﻿<?xml version="1.0" encoding="utf-8"?><gpx creator="Garmin Desktop App" version="1.1" xsi:schemaLocation="http://www.topografix.com/GPX/1/1 http://www.topografix.com/GPX/1/1/gpx.xsd http://www.garmin.com/xmlschemas/WaypointExtension/v1 http://www8.garmin.com/xmlschemas/WaypointExtensionv1.xsd http://www.garmin.com/xmlschemas/TrackPointExtension/v1 http://www.garmin.com/xmlschemas/TrackPointExtensionv1.xsd http://www.garmin.com/xmlschemas/GpxExtensions/v3 http://www8.garmin.com/xmlschemas/GpxExtensionsv3.xsd http://www.garmin.com/xmlschemas/ActivityExtension/v1 http://www8.garmin.com/xmlschemas/ActivityExtensionv1.xsd http://www.garmin.com/xmlschemas/AdventuresExtensions/v1 http://www8.garmin.com/xmlschemas/AdventuresExtensionv1.xsd http://www.garmin.com/xmlschemas/PressureExtension/v1 http://www.garmin.com/xmlschemas/PressureExtensionv1.xsd http://www.garmin.com/xmlschemas/TripExtensions/v1 http://www.garmin.com/xmlschemas/TripExtensionsv1.xsd http://www.garmin.com/xmlschemas/TripMetaDataExtensions/v1 http://www.garmin.com/xmlschemas/TripMetaDataExtensionsv1.xsd http://www.garmin.com/xmlschemas/ViaPointTransportationModeExtensions/v1 http://www.garmin.com/xmlschemas/ViaPointTransportationModeExtensionsv1.xsd http://www.garmin.com/xmlschemas/CreationTimeExtension/v1 http://www.garmin.com/xmlschemas/CreationTimeExtensionsv1.xsd http://www.garmin.com/xmlschemas/AccelerationExtension/v1 http://www.garmin.com/xmlschemas/AccelerationExtensionv1.xsd http://www.garmin.com/xmlschemas/PowerExtension/v1 http://www.garmin.com/xmlschemas/PowerExtensionv1.xsd http://www.garmin.com/xmlschemas/VideoExtension/v1 http://www.garmin.com/xmlschemas/VideoExtensionv1.xsd" xmlns="http://www.topografix.com/GPX/1/1" xmlns:xsi="http://www.w3.org/2001/XMLSchema-instance" xmlns:wptx1="http://www.garmin.com/xmlschemas/WaypointExtension/v1" xmlns:gpxtrx="http://www.garmin.com/xmlschemas/GpxExtensions/v3" xmlns:gpxtpx="http://www.garmin.com/xmlschemas/TrackPointExtension/v1" xmlns:gpxx="http://www.garmin.com/xmlschemas/GpxExtensions/v3" xmlns:trp="http://www.garmin.com/xmlschemas/TripExtensions/v1" xmlns:adv="http://www.garmin.com/xmlschemas/AdventuresExtensions/v1" xmlns:prs="http://www.garmin.com/xmlschemas/PressureExtension/v1" xmlns:tmd="http://www.garmin.com/xmlschemas/TripMetaDataExtensions/v1" xmlns:vptm="http://www.garmin.com/xmlschemas/ViaPointTransportationModeExtensions/v1" xmlns:ctx="http://www.garmin.com/xmlschemas/CreationTimeExtension/v1" xmlns:gpxacc="http://www.garmin.com/xmlschemas/AccelerationExtension/v1" xmlns:gpxpx="http://www.garmin.com/xmlschemas/PowerExtension/v1" xmlns:vidx1="http://www.garmin.com/xmlschemas/VideoExtension/v1">

  <metadata>
    <link href="http://www.garmin.com">
      <text>Garmin International</text>
    </link>
    <time>2026-07-10T19:15:38Z</time>
    <bounds maxlat="53.373017013072968" maxlon="-3.026061002165079" minlat="52.780787022784352" minlon="-6.382130021229386" />
  </metadata>

  <trk>
    <name>260710_Dublin_Llanymynech_Track</name>
    <extensions>
      <gpxx:TrackExtension>
        <gpxx:DisplayColor>DarkGray</gpxx:DisplayColor>
      </gpxx:TrackExtension>
    </extensions>
    <trkseg>
      <trkpt lat="53.371420009061694" lon="-6.382001023739576">
        <ele>77.040000000000006</ele>
        <time>2026-07-10T04:59:56Z</time>
      </trkpt>
      <trkpt lat="53.371374998241663" lon="-6.382130021229386">
        <ele>79.930000000000007</ele>
        <time>2026-07-10T05:00:31Z</time>
      </trkpt>
      <trkpt lat="53.371861986815929" lon="-6.381941009312868">
        <ele>78.480000000000004</ele>
        <time>2026-07-10T05:00:37Z</time>
      </trkpt>
      <trkpt lat="53.371861986815929" lon="-6.381941009312868">
        <ele>78.969999999999999</ele>
        <time>2026-07-10T05:00:43Z</time>
      </trkpt>
      <trkpt lat="53.371861986815929" lon="-6.381954001262784">
        <ele>78.480000000000004</ele>
        <time>2026-07-10T05:00:55Z</time>
      </trkpt>
      <trkpt lat="53.371859975159168" lon="-6.381871020421386">
        <ele>78.480000000000004</ele>
        <time>2026-07-10T05:00:56Z</time>
      </trkpt>
      <trkpt lat="53.371857963502407" lon="-6.381758032366633">
        <ele>78.480000000000004</ele>
        <time>2026-07-10T05:00:57Z</time>
      </trkpt>
      <trkpt lat="53.371852012351155" lon="-6.380450958386064">
        <ele>76.560000000000002</ele>
        <time>2026-07-10T05:01:04Z</time>
      </trkpt>
      <trkpt lat="53.371870033442974" lon="-6.379648977890611">
        <ele>75.120000000000005</ele>
        <time>2026-07-10T05:01:08Z</time>
      </trkpt>
      <trkpt lat="53.371882019564509" lon="-6.379468012601137">
        <ele>74.640000000000001</ele>
        <time>2026-07-10T05:01:09Z</time>
      </trkpt>
      <trkpt lat="53.371999030932784" lon="-6.377700017765164">
        <ele>72.239999999999995</ele>
        <time>2026-07-10T05:01:19Z</time>
      </trkpt>
      <trkpt lat="53.372003976255655" lon="-6.377159971743822">
        <ele>70.310000000000002</ele>
        <time>2026-07-10T05:01:25Z</time>
      </trkpt>
      <trkpt lat="53.371999030932784" lon="-6.377065004780889">
        <ele>68.870000000000005</ele>
        <time>2026-07-10T05:01:37Z</time>
      </trkpt>
      <trkpt lat="53.371995007619262" lon="-6.376978000625968">
        <ele>68.390000000000001</ele>
        <time>2026-07-10T05:01:38Z</time>
      </trkpt>
      <trkpt lat="53.371931975707412" lon="-6.376902982592583">
        <ele>67.430000000000007</ele>
        <time>2026-07-10T05:01:39Z</time>
      </trkpt>
      <trkpt lat="53.37186299264431" lon="-6.376909017562866">
        <ele>66.950000000000003</ele>
        <time>2026-07-10T05:01:40Z</time>
      </trkpt>
      <trkpt lat="53.371782023459673" lon="-6.376915974542499">
        <ele>66.469999999999999</ele>
        <time>2026-07-10T05:01:41Z</time>
      </trkpt>
      <trkpt lat="53.371683033183217" lon="-6.376913962885737">
        <ele>66.469999999999999</ele>
        <time>2026-07-10T05:01:42Z</time>
      </trkpt>
      <trkpt lat="53.371259998530149" lon="-6.376860989257693">
        <ele>65.989999999999995</ele>
        <time>2026-07-10T05:01:46Z</time>
      </trkpt>
      <trkpt lat="53.370714001357555" lon="-6.376711959019303">
        <ele>64.549999999999997</ele>
        <time>2026-07-10T05:01:51Z</time>
      </trkpt>
      <trkpt lat="53.370418958365917" lon="-6.376615986227989">
        <ele>65.510000000000005</ele>
        <time>2026-07-10T05:01:54Z</time>
      </trkpt>
      <trkpt lat="53.369846977293491" lon="-6.376408031210303">
        <ele>67.909999999999997</ele>
        <time>2026-07-10T05:01:59Z</time>
      </trkpt>
      <trkpt lat="53.36973499506712" lon="-6.376351034268737">
        <ele>68.390000000000001</ele>
        <time>2026-07-10T05:02:00Z</time>
      </trkpt>
      <trkpt lat="53.369510024785995" lon="-6.376189012080431">
        <ele>68.390000000000001</ele>
        <time>2026-07-10T05:02:02Z</time>
      </trkpt>
      <trkpt lat="53.369389995932579" lon="-6.376103013753891">
        <ele>67.909999999999997</ele>
        <time>2026-07-10T05:02:03Z</time>
      </trkpt>
      <trkpt lat="53.368785995990038" lon="-6.375581994652748">
        <ele>65.989999999999995</ele>
        <time>2026-07-10T05:02:08Z</time>
      </trkpt>
      <trkpt lat="53.368665967136621" lon="-6.375462971627712">
        <ele>65.510000000000005</ele>
        <time>2026-07-10T05:02:09Z</time>
      </trkpt>
      <trkpt lat="53.367719985544682" lon="-6.374452030286193">
        <ele>65.030000000000001</ele>
        <time>2026-07-10T05:02:19Z</time>
      </trkpt>
      <trkpt lat="53.36739300750196" lon="-6.374137960374355">
        <ele>63.579999999999998</ele>
        <time>2026-07-10T05:02:24Z</time>
      </trkpt>
      <trkpt lat="53.367337016388774" lon="-6.374022960662842">
        <ele>63.579999999999998</ele>
        <time>2026-07-10T05:02:25Z</time>
      </trkpt>
      <trkpt lat="53.366896966472268" lon="-6.37302802875638">
        <ele>65.030000000000001</ele>
        <time>2026-07-10T05:02:32Z</time>
      </trkpt>
      <trkpt lat="53.366865031421185" lon="-6.372852008789778">
        <ele>65.030000000000001</ele>
        <time>2026-07-10T05:02:33Z</time>
      </trkpt>
      <trkpt lat="53.366841981187463" lon="-6.372671965509653">
        <ele>65.510000000000005</ele>
        <time>2026-07-10T05:02:34Z</time>
      </trkpt>
      <trkpt lat="53.366819014772773" lon="-6.372499968856573">
        <ele>65.510000000000005</ele>
        <time>2026-07-10T05:02:35Z</time>
      </trkpt>
      <trkpt lat="53.366829995065928" lon="-6.37229603715241">
        <ele>65.510000000000005</ele>
        <time>2026-07-10T05:02:36Z</time>
      </trkpt>
      <trkpt lat="53.366840975359082" lon="-6.372089004144073">
        <ele>65.510000000000005</ele>
        <time>2026-07-10T05:02:37Z</time>
      </trkpt>
      <trkpt lat="53.366851033642888" lon="-6.371881971135736">
        <ele>65.030000000000001</ele>
        <time>2026-07-10T05:02:38Z</time>
      </trkpt>
      <trkpt lat="53.366862013936043" lon="-6.371683990582824">
        <ele>65.510000000000005</ele>
        <time>2026-07-10T05:02:39Z</time>
      </trkpt>
      <trkpt lat="53.366726981475949" lon="-6.370067959651351">
        <ele>65.030000000000001</ele>
        <time>2026-07-10T05:02:47Z</time>
      </trkpt>
      <trkpt lat="53.366711977869272" lon="-6.369425989687443">
        <ele>65.989999999999995</ele>
        <time>2026-07-10T05:02:50Z</time>
      </trkpt>
      <trkpt lat="53.366711977869272" lon="-6.369194984436035">
        <ele>66.469999999999999</ele>
        <time>2026-07-10T05:02:51Z</time>
      </trkpt>
      <trkpt lat="53.36674802005291" lon="-6.368994992226362">
        <ele>66.950000000000003</ele>
        <time>2026-07-10T05:02:52Z</time>
      </trkpt>
      <trkpt lat="53.367013977840543" lon="-6.367260022088885">
        <ele>70.310000000000002</ele>
        <time>2026-07-10T05:03:00Z</time>
      </trkpt>
      <trkpt lat="53.367077009752393" lon="-6.365997958928347">
        <ele>71.760000000000005</ele>
        <time>2026-07-10T05:03:06Z</time>
      </trkpt>
      <trkpt lat="53.367077009752393" lon="-6.365871978923678">
        <ele>72.239999999999995</ele>
        <time>2026-07-10T05:03:07Z</time>
      </trkpt>
      <trkpt lat="53.367077009752393" lon="-6.36568003334105">
        <ele>72.719999999999999</ele>
        <time>2026-07-10T05:03:08Z</time>
      </trkpt>
      <trkpt lat="53.367077009752393" lon="-6.365075027570128">
        <ele>74.159999999999997</ele>
        <time>2026-07-10T05:03:11Z</time>
      </trkpt>
      <trkpt lat="53.367077009752393" lon="-6.364902025088668">
        <ele>74.640000000000001</ele>
        <time>2026-07-10T05:03:12Z</time>
      </trkpt>
      <trkpt lat="53.367077009752393" lon="-6.364748971536756">
        <ele>75.120000000000005</ele>
        <time>2026-07-10T05:03:13Z</time>
      </trkpt>
      <trkpt lat="53.367077009752393" lon="-6.364631960168481">
        <ele>75.599999999999994</ele>
        <time>2026-07-10T05:03:14Z</time>
      </trkpt>
      <trkpt lat="53.367077009752393" lon="-6.364539004862309">
        <ele>76.079999999999998</ele>
        <time>2026-07-10T05:03:15Z</time>
      </trkpt>
      <trkpt lat="53.367162002250552" lon="-6.364410007372499">
        <ele>76.560000000000002</ele>
        <time>2026-07-10T05:03:16Z</time>
      </trkpt>
      <trkpt lat="53.367230985313654" lon="-6.364410007372499">
        <ele>76.560000000000002</ele>
        <time>2026-07-10T05:03:17Z</time>
      </trkpt>
      <trkpt lat="53.367317989468575" lon="-6.364410007372499">
        <ele>77.040000000000006</ele>
        <time>2026-07-10T05:03:18Z</time>
      </trkpt>
      <trkpt lat="53.367414968088269" lon="-6.364410007372499">
        <ele>77.040000000000006</ele>
        <time>2026-07-10T05:03:19Z</time>
      </trkpt>
      <trkpt lat="53.368343012407422" lon="-6.364367008209229">
        <ele>78.480000000000004</ele>
        <time>2026-07-10T05:03:27Z</time>
      </trkpt>
      <trkpt lat="53.369067963212729" lon="-6.363933999091387">
        <ele>78.480000000000004</ele>
        <time>2026-07-10T05:03:33Z</time>
      </trkpt>
      <trkpt lat="53.369193021208048" lon="-6.363859986886382">
        <ele>78.480000000000004</ele>
        <time>2026-07-10T05:03:34Z</time>
      </trkpt>
      <trkpt lat="53.369576996192336" lon="-6.363688996061683">
        <ele>78.969999999999999</ele>
        <time>2026-07-10T05:03:37Z</time>
      </trkpt>
      <trkpt lat="53.369837002828717" lon="-6.363654965534806">
        <ele>79.450000000000003</ele>
        <time>2026-07-10T05:03:39Z</time>
      </trkpt>
      <trkpt lat="53.370101032778621" lon="-6.3636190071702">
        <ele>79.450000000000003</ele>
        <time>2026-07-10T05:03:41Z</time>
      </trkpt>
      <trkpt lat="53.370992029085755" lon="-6.363452039659023">
        <ele>78</ele>
        <time>2026-07-10T05:03:48Z</time>
      </trkpt>
      <trkpt lat="53.371101999655366" lon="-6.363400993868709">
        <ele>78</ele>
        <time>2026-07-10T05:03:49Z</time>
      </trkpt>
      <trkpt lat="53.372244033962488" lon="-6.362901013344526">
        <ele>75.599999999999994</ele>
        <time>2026-07-10T05:03:59Z</time>
      </trkpt>
      <trkpt lat="53.372831018641591" lon="-6.362659027799964">
        <ele>71.760000000000005</ele>
        <time>2026-07-10T05:04:07Z</time>
      </trkpt>
      <trkpt lat="53.372855996713042" lon="-6.362647041678429">
        <ele>71.269999999999996</ele>
        <time>2026-07-10T05:04:08Z</time>
      </trkpt>
      <trkpt lat="53.372855996713042" lon="-6.362647041678429">
        <ele>70.310000000000002</ele>
        <time>2026-07-10T05:04:18Z</time>
      </trkpt>
      <trkpt lat="53.372902013361454" lon="-6.362623991444707">
        <ele>69.349999999999994</ele>
        <time>2026-07-10T05:04:21Z</time>
      </trkpt>
      <trkpt lat="53.372950963675976" lon="-6.362600019201636">
        <ele>68.870000000000005</ele>
        <time>2026-07-10T05:04:22Z</time>
      </trkpt>
      <trkpt lat="53.373017013072968" lon="-6.362427016720176">
        <ele>68.390000000000001</ele>
        <time>2026-07-10T05:04:23Z</time>
      </trkpt>
      <trkpt lat="53.372992035001516" lon="-6.362364990636706">
        <ele>67.909999999999997</ele>
        <time>2026-07-10T05:04:24Z</time>
      </trkpt>
      <trkpt lat="53.37295800447464" lon="-6.362278992310166">
        <ele>67.909999999999997</ele>
        <time>2026-07-10T05:04:25Z</time>
      </trkpt>
      <trkpt lat="53.372921040281653" lon="-6.362186959013343">
        <ele>67.430000000000007</ele>
        <time>2026-07-10T05:04:26Z</time>
      </trkpt>
      <trkpt lat="53.372879968956113" lon="-6.362080005928874">
        <ele>66.950000000000003</ele>
        <time>2026-07-10T05:04:27Z</time>
      </trkpt>
      <trkpt lat="53.372837975621223" lon="-6.361953020095825">
        <ele>67.430000000000007</ele>
        <time>2026-07-10T05:04:28Z</time>
      </trkpt>
      <trkpt lat="53.372312011197209" lon="-6.360643012449145">
        <ele>70.790000000000006</ele>
        <time>2026-07-10T05:04:36Z</time>
      </trkpt>
      <trkpt lat="53.372173039242625" lon="-6.360087040811777">
        <ele>72.239999999999995</ele>
        <time>2026-07-10T05:04:39Z</time>
      </trkpt>
      <trkpt lat="53.37177699431777" lon="-6.357887964695692">
        <ele>68.870000000000005</ele>
        <time>2026-07-10T05:04:51Z</time>
      </trkpt>
      <trkpt lat="53.371413974091411" lon="-6.356608970090747">
        <ele>68.390000000000001</ele>
        <time>2026-07-10T05:04:58Z</time>
      </trkpt>
      <trkpt lat="53.371201995760202" lon="-6.355487974360585">
        <ele>67.430000000000007</ele>
        <time>2026-07-10T05:05:03Z</time>
      </trkpt>
      <trkpt lat="53.371185986325145" lon="-6.355258980765939">
        <ele>66.950000000000003</ele>
        <time>2026-07-10T05:05:04Z</time>
      </trkpt>
      <trkpt lat="53.371177017688751" lon="-6.355026969686151">
        <ele>66.469999999999999</ele>
        <time>2026-07-10T05:05:05Z</time>
      </trkpt>
      <trkpt lat="53.371182968840003" lon="-6.354801999405026">
        <ele>65.989999999999995</ele>
        <time>2026-07-10T05:05:06Z</time>
      </trkpt>
      <trkpt lat="53.371190009638667" lon="-6.354584991931915">
        <ele>65.510000000000005</ele>
        <time>2026-07-10T05:05:07Z</time>
      </trkpt>
      <trkpt lat="53.371187997981906" lon="-6.354145025834441">
        <ele>64.549999999999997</ele>
        <time>2026-07-10T05:05:09Z</time>
      </trkpt>
      <trkpt lat="53.371122032403946" lon="-6.353535996749997">
        <ele>62.619999999999997</ele>
        <time>2026-07-10T05:05:12Z</time>
      </trkpt>
      <trkpt lat="53.371005021035671" lon="-6.352943982928991">
        <ele>61.659999999999997</ele>
        <time>2026-07-10T05:05:15Z</time>
      </trkpt>
      <trkpt lat="53.370951041579247" lon="-6.352765029296279">
        <ele>61.659999999999997</ele>
        <time>2026-07-10T05:05:16Z</time>
      </trkpt>
      <trkpt lat="53.370445026084781" lon="-6.350982030853629">
        <ele>60.219999999999999</ele>
        <time>2026-07-10T05:05:25Z</time>
      </trkpt>
      <trkpt lat="53.37001302279532" lon="-6.349459961056709">
        <ele>58.299999999999997</ele>
        <time>2026-07-10T05:05:34Z</time>
      </trkpt>
      <trkpt lat="53.369803978130221" lon="-6.348581034690142">
        <ele>57.340000000000003</ele>
        <time>2026-07-10T05:05:40Z</time>
      </trkpt>
      <trkpt lat="53.369808001443744" lon="-6.348422029986978">
        <ele>56.859999999999999</ele>
        <time>2026-07-10T05:05:41Z</time>
      </trkpt>
      <trkpt lat="53.369833985343575" lon="-6.348050041124225">
        <ele>56.859999999999999</ele>
        <time>2026-07-10T05:05:43Z</time>
      </trkpt>
      <trkpt lat="53.369862986728549" lon="-6.347858011722565">
        <ele>57.340000000000003</ele>
        <time>2026-07-10T05:05:44Z</time>
      </trkpt>
      <trkpt lat="53.369889976456761" lon="-6.347679980099201">
        <ele>57.340000000000003</ele>
        <time>2026-07-10T05:05:45Z</time>
      </trkpt>
      <trkpt lat="53.369915960356593" lon="-6.347506977617741">
        <ele>57.82</ele>
        <time>2026-07-10T05:05:46Z</time>
      </trkpt>
      <trkpt lat="53.369943033903837" lon="-6.347321989014745">
        <ele>58.299999999999997</ele>
        <time>2026-07-10T05:05:47Z</time>
      </trkpt>
      <trkpt lat="53.370044035837054" lon="-6.346454964950681">
        <ele>58.780000000000001</ele>
        <time>2026-07-10T05:05:51Z</time>
      </trkpt>
      <trkpt lat="53.370261965319514" lon="-6.344832982867956">
        <ele>57.82</ele>
        <time>2026-07-10T05:05:58Z</time>
      </trkpt>
      <trkpt lat="53.370504034683108" lon="-6.343115027993918">
        <ele>57.82</ele>
        <time>2026-07-10T05:06:06Z</time>
      </trkpt>
      <trkpt lat="53.370730010792613" lon="-6.341412998735905">
        <ele>57.82</ele>
        <time>2026-07-10T05:06:14Z</time>
      </trkpt>
      <trkpt lat="53.370976019650698" lon="-6.339505026116967">
        <ele>57.82</ele>
        <time>2026-07-10T05:06:23Z</time>
      </trkpt>
      <trkpt lat="53.371216999366879" lon="-6.337798973545432">
        <ele>56.369999999999997</ele>
        <time>2026-07-10T05:06:30Z</time>
      </trkpt>
      <trkpt lat="53.371324958279729" lon="-6.337330006062985">
        <ele>55.890000000000001</ele>
        <time>2026-07-10T05:06:34Z</time>
      </trkpt>
      <trkpt lat="53.371383966878057" lon="-6.3372359611094">
        <ele>55.409999999999997</ele>
        <time>2026-07-10T05:06:35Z</time>
      </trkpt>
      <trkpt lat="53.371517993509769" lon="-6.337158009409905">
        <ele>55.409999999999997</ele>
        <time>2026-07-10T05:06:37Z</time>
      </trkpt>
      <trkpt lat="53.371517993509769" lon="-6.337076034396887">
        <ele>55.409999999999997</ele>
        <time>2026-07-10T05:06:38Z</time>
      </trkpt>
      <trkpt lat="53.371517993509769" lon="-6.336991963908076">
        <ele>55.409999999999997</ele>
        <time>2026-07-10T05:06:39Z</time>
      </trkpt>
      <trkpt lat="53.371473988518119" lon="-6.336900014430285">
        <ele>55.409999999999997</ele>
        <time>2026-07-10T05:06:40Z</time>
      </trkpt>
      <trkpt lat="53.371454039588571" lon="-6.336879981681705">
        <ele>55.409999999999997</ele>
        <time>2026-07-10T05:06:41Z</time>
      </trkpt>
      <trkpt lat="53.371290005743504" lon="-6.336616035550833">
        <ele>54.93</ele>
        <time>2026-07-10T05:06:43Z</time>
      </trkpt>
      <trkpt lat="53.371253963559866" lon="-6.33648200891912">
        <ele>54.93</ele>
        <time>2026-07-10T05:06:44Z</time>
      </trkpt>
      <trkpt lat="53.371222028508782" lon="-6.336329039186239">
        <ele>54.93</ele>
        <time>2026-07-10T05:06:45Z</time>
      </trkpt>
      <trkpt lat="53.371193027123809" lon="-6.33616098202765">
        <ele>54.93</ele>
        <time>2026-07-10T05:06:46Z</time>
      </trkpt>
      <trkpt lat="53.371162014082074" lon="-6.335979010909796">
        <ele>54.93</ele>
        <time>2026-07-10T05:06:47Z</time>
      </trkpt>
      <trkpt lat="53.371129995211959" lon="-6.335791004821658">
        <ele>55.409999999999997</ele>
        <time>2026-07-10T05:06:48Z</time>
      </trkpt>
      <trkpt lat="53.371107028797269" lon="-6.335595035925508">
        <ele>55.890000000000001</ele>
        <time>2026-07-10T05:06:49Z</time>
      </trkpt>
      <trkpt lat="53.371020024642348" lon="-6.334843011572957">
        <ele>55.890000000000001</ele>
        <time>2026-07-10T05:06:53Z</time>
      </trkpt>
      <trkpt lat="53.371006026864052" lon="-6.334733041003346">
        <ele>55.890000000000001</ele>
        <time>2026-07-10T05:06:54Z</time>
      </trkpt>
      <trkpt lat="53.370997980237007" lon="-6.334665985777974">
        <ele>55.890000000000001</ele>
        <time>2026-07-10T05:06:55Z</time>
      </trkpt>
      <trkpt lat="53.370991023257375" lon="-6.334606977179647">
        <ele>55.890000000000001</ele>
        <time>2026-07-10T05:06:56Z</time>
      </trkpt>
      <trkpt lat="53.37098197080195" lon="-6.334533970803022">
        <ele>55.890000000000001</ele>
        <time>2026-07-10T05:06:57Z</time>
      </trkpt>
      <trkpt lat="53.370975013822317" lon="-6.334472028538585">
        <ele>55.890000000000001</ele>
        <time>2026-07-10T05:06:58Z</time>
      </trkpt>
      <trkpt lat="53.370965961366892" lon="-6.334402961656451">
        <ele>55.890000000000001</ele>
        <time>2026-07-10T05:07:02Z</time>
      </trkpt>
      <trkpt lat="53.370922962203622" lon="-6.333872973918915">
        <ele>55.890000000000001</ele>
        <time>2026-07-10T05:07:06Z</time>
      </trkpt>
      <trkpt lat="53.370940983295441" lon="-6.333720004186034">
        <ele>55.890000000000001</ele>
        <time>2026-07-10T05:07:07Z</time>
      </trkpt>
      <trkpt lat="53.37096001021564" lon="-6.333553958684206">
        <ele>56.369999999999997</ele>
        <time>2026-07-10T05:07:08Z</time>
      </trkpt>
      <trkpt lat="53.371026981621981" lon="-6.333459997549653">
        <ele>56.369999999999997</ele>
        <time>2026-07-10T05:07:09Z</time>
      </trkpt>
      <trkpt lat="53.371105017140508" lon="-6.333352038636804">
        <ele>56.859999999999999</ele>
        <time>2026-07-10T05:07:10Z</time>
      </trkpt>
      <trkpt lat="53.371184980496764" lon="-6.3332399725914">
        <ele>56.859999999999999</ele>
        <time>2026-07-10T05:07:11Z</time>
      </trkpt>
      <trkpt lat="53.371263016015291" lon="-6.33313000202179">
        <ele>56.859999999999999</ele>
        <time>2026-07-10T05:07:12Z</time>
      </trkpt>
      <trkpt lat="53.371343985199928" lon="-6.333016008138657">
        <ele>56.859999999999999</ele>
        <time>2026-07-10T05:07:13Z</time>
      </trkpt>
      <trkpt lat="53.371424032375216" lon="-6.332905031740665">
        <ele>57.340000000000003</ele>
        <time>2026-07-10T05:07:14Z</time>
      </trkpt>
      <trkpt lat="53.371493015438318" lon="-6.33280897513032">
        <ele>57.340000000000003</ele>
        <time>2026-07-10T05:07:15Z</time>
      </trkpt>
      <trkpt lat="53.371557975187898" lon="-6.332718031480908">
        <ele>57.340000000000003</ele>
        <time>2026-07-10T05:07:16Z</time>
      </trkpt>
      <trkpt lat="53.371623018756509" lon="-6.332617029547691">
        <ele>57.82</ele>
        <time>2026-07-10T05:07:17Z</time>
      </trkpt>
      <trkpt lat="53.371679009869695" lon="-6.332509992644191">
        <ele>58.299999999999997</ele>
        <time>2026-07-10T05:07:18Z</time>
      </trkpt>
      <trkpt lat="53.371848994866014" lon="-6.3322280254215">
        <ele>58.780000000000001</ele>
        <time>2026-07-10T05:07:21Z</time>
      </trkpt>
      <trkpt lat="53.37192602455616" lon="-6.332138003781438">
        <ele>59.259999999999998</ele>
        <time>2026-07-10T05:07:22Z</time>
      </trkpt>
      <trkpt lat="53.371973969042301" lon="-6.332105984911323">
        <ele>59.259999999999998</ele>
        <time>2026-07-10T05:07:23Z</time>
      </trkpt>
      <trkpt lat="53.372132973745465" lon="-6.33205602876842">
        <ele>59.259999999999998</ele>
        <time>2026-07-10T05:07:25Z</time>
      </trkpt>
      <trkpt lat="53.372192988172174" lon="-6.331984028220177">
        <ele>58.780000000000001</ele>
        <time>2026-07-10T05:07:26Z</time>
      </trkpt>
      <trkpt lat="53.372240010648966" lon="-6.331890989094973">
        <ele>58.780000000000001</ele>
        <time>2026-07-10T05:07:27Z</time>
      </trkpt>
      <trkpt lat="53.372230958193541" lon="-6.331791998818517">
        <ele>58.299999999999997</ele>
        <time>2026-07-10T05:07:28Z</time>
      </trkpt>
      <trkpt lat="53.372201034799218" lon="-6.331697031855583">
        <ele>57.82</ele>
        <time>2026-07-10T05:07:29Z</time>
      </trkpt>
      <trkpt lat="53.372183013707399" lon="-6.331643974408507">
        <ele>57.340000000000003</ele>
        <time>2026-07-10T05:07:30Z</time>
      </trkpt>
      <trkpt lat="53.372023003175855" lon="-6.331550013273954">
        <ele>57.340000000000003</ele>
        <time>2026-07-10T05:07:31Z</time>
      </trkpt>
      <trkpt lat="53.371872967109084" lon="-6.331114992499352">
        <ele>57.82</ele>
        <time>2026-07-10T05:07:34Z</time>
      </trkpt>
      <trkpt lat="53.37126100435853" lon="-6.329326964914799">
        <ele>57.82</ele>
        <time>2026-07-10T05:07:44Z</time>
      </trkpt>
      <trkpt lat="53.370720036327839" lon="-6.327708000317216">
        <ele>55.409999999999997</ele>
        <time>2026-07-10T05:07:53Z</time>
      </trkpt>
      <trkpt lat="53.370158029720187" lon="-6.325960038229823">
        <ele>49.649999999999999</ele>
        <time>2026-07-10T05:08:02Z</time>
      </trkpt>
      <trkpt lat="53.369185980409384" lon="-6.322910031303763">
        <ele>47.719999999999999</ele>
        <time>2026-07-10T05:08:15Z</time>
      </trkpt>
      <trkpt lat="53.368410989642143" lon="-6.320617999881506">
        <ele>47.240000000000002</ele>
        <time>2026-07-10T05:08:26Z</time>
      </trkpt>
      <trkpt lat="53.3677570335567" lon="-6.317993039265275">
        <ele>46.759999999999998</ele>
        <time>2026-07-10T05:08:38Z</time>
      </trkpt>
      <trkpt lat="53.36717901751399" lon="-6.315361959859729">
        <ele>44.840000000000003</ele>
        <time>2026-07-10T05:08:50Z</time>
      </trkpt>
      <trkpt lat="53.36713501252234" lon="-6.31514897570014">
        <ele>44.840000000000003</ele>
        <time>2026-07-10T05:08:51Z</time>
      </trkpt>
      <trkpt lat="53.367082038894296" lon="-6.314938003197312">
        <ele>44.840000000000003</ele>
        <time>2026-07-10T05:08:52Z</time>
      </trkpt>
      <trkpt lat="53.366381982341409" lon="-6.312673967331648">
        <ele>46.759999999999998</ele>
        <time>2026-07-10T05:09:03Z</time>
      </trkpt>
      <trkpt lat="53.365557035431266" lon="-6.3102260325104">
        <ele>46.759999999999998</ele>
        <time>2026-07-10T05:09:15Z</time>
      </trkpt>
      <trkpt lat="53.364805011078715" lon="-6.307997032999992">
        <ele>46.759999999999998</ele>
        <time>2026-07-10T05:09:26Z</time>
      </trkpt>
      <trkpt lat="53.364404020830989" lon="-6.306674033403397">
        <ele>48.200000000000003</ele>
        <time>2026-07-10T05:09:34Z</time>
      </trkpt>
      <trkpt lat="53.363746041432023" lon="-6.304677966982126">
        <ele>48.200000000000003</ele>
        <time>2026-07-10T05:09:44Z</time>
      </trkpt>
      <trkpt lat="53.363067023456097" lon="-6.302663963288069">
        <ele>44.840000000000003</ele>
        <time>2026-07-10T05:09:54Z</time>
      </trkpt>
      <trkpt lat="53.36249403655529" lon="-6.300998982042074">
        <ele>44.359999999999999</ele>
        <time>2026-07-10T05:10:02Z</time>
      </trkpt>
      <trkpt lat="53.362009981647134" lon="-6.29954899661243">
        <ele>45.799999999999997</ele>
        <time>2026-07-10T05:10:10Z</time>
      </trkpt>
      <trkpt lat="53.36178501136601" lon="-6.298807030543685">
        <ele>45.799999999999997</ele>
        <time>2026-07-10T05:10:17Z</time>
      </trkpt>
      <trkpt lat="53.361704964190722" lon="-6.298433030024171">
        <ele>45.32</ele>
        <time>2026-07-10T05:10:22Z</time>
      </trkpt>
      <trkpt lat="53.361582001671195" lon="-6.297398032620549">
        <ele>44.359999999999999</ele>
        <time>2026-07-10T05:10:29Z</time>
      </trkpt>
      <trkpt lat="53.361574038863182" lon="-6.297215977683663">
        <ele>44.359999999999999</ele>
        <time>2026-07-10T05:10:30Z</time>
      </trkpt>
      <trkpt lat="53.361501032486558" lon="-6.295497016981244">
        <ele>43.399999999999999</ele>
        <time>2026-07-10T05:10:38Z</time>
      </trkpt>
      <trkpt lat="53.361412016674876" lon="-6.292963000014424">
        <ele>40.990000000000002</ele>
        <time>2026-07-10T05:10:49Z</time>
      </trkpt>
      <trkpt lat="53.361341021955013" lon="-6.290689995512366">
        <ele>36.189999999999998</ele>
        <time>2026-07-10T05:10:59Z</time>
      </trkpt>
      <trkpt lat="53.361258041113615" lon="-6.28839997574687">
        <ele>31.859999999999999</ele>
        <time>2026-07-10T05:11:09Z</time>
      </trkpt>
      <trkpt lat="53.361214958131313" lon="-6.287214020267129">
        <ele>29.460000000000001</ele>
        <time>2026-07-10T05:11:14Z</time>
      </trkpt>
      <trkpt lat="53.36120598949492" lon="-6.286977985873818">
        <ele>28.5</ele>
        <time>2026-07-10T05:11:15Z</time>
      </trkpt>
      <trkpt lat="53.361114040017128" lon="-6.284718979150057">
        <ele>21.77</ele>
        <time>2026-07-10T05:11:25Z</time>
      </trkpt>
      <trkpt lat="53.361062994226813" lon="-6.283157011494041">
        <ele>22.73</ele>
        <time>2026-07-10T05:11:32Z</time>
      </trkpt>
      <trkpt lat="53.3610550314188" lon="-6.282922988757491">
        <ele>21.77</ele>
        <time>2026-07-10T05:11:33Z</time>
      </trkpt>
      <trkpt lat="53.360956963151693" lon="-6.280404981225729">
        <ele>19.84</ele>
        <time>2026-07-10T05:11:45Z</time>
      </trkpt>
      <trkpt lat="53.360884040594101" lon="-6.278657019138336">
        <ele>19.359999999999999</ele>
        <time>2026-07-10T05:11:54Z</time>
      </trkpt>
      <trkpt lat="53.360841041430831" lon="-6.277566030621529">
        <ele>19.84</ele>
        <time>2026-07-10T05:12:02Z</time>
      </trkpt>
      <trkpt lat="53.360836012288928" lon="-6.277437033131719">
        <ele>19.84</ele>
        <time>2026-07-10T05:12:03Z</time>
      </trkpt>
      <trkpt lat="53.360811034217477" lon="-6.276833033189178">
        <ele>19.359999999999999</ele>
        <time>2026-07-10T05:12:07Z</time>
      </trkpt>
      <trkpt lat="53.360811034217477" lon="-6.276089977473021">
        <ele>17.440000000000001</ele>
        <time>2026-07-10T05:12:13Z</time>
      </trkpt>
      <trkpt lat="53.360811034217477" lon="-6.276085032150149">
        <ele>17.440000000000001</ele>
        <time>2026-07-10T05:12:14Z</time>
      </trkpt>
      <trkpt lat="53.360811034217477" lon="-6.276011019945145">
        <ele>17.440000000000001</ele>
        <time>2026-07-10T05:12:15Z</time>
      </trkpt>
      <trkpt lat="53.360811034217477" lon="-6.275852015241981">
        <ele>17.920000000000002</ele>
        <time>2026-07-10T05:12:23Z</time>
      </trkpt>
      <trkpt lat="53.360811034217477" lon="-6.275481032207608">
        <ele>20.32</ele>
        <time>2026-07-10T05:12:37Z</time>
      </trkpt>
      <trkpt lat="53.360788989812136" lon="-6.274294992908835">
        <ele>24.170000000000002</ele>
        <time>2026-07-10T05:12:45Z</time>
      </trkpt>
      <trkpt lat="53.360788989812136" lon="-6.273342976346612">
        <ele>25.609999999999999</ele>
        <time>2026-07-10T05:12:52Z</time>
      </trkpt>
      <trkpt lat="53.360788989812136" lon="-6.273261001333594">
        <ele>25.609999999999999</ele>
        <time>2026-07-10T05:12:53Z</time>
      </trkpt>
      <trkpt lat="53.360791001468897" lon="-6.273166034370661">
        <ele>25.609999999999999</ele>
        <time>2026-07-10T05:13:01Z</time>
      </trkpt>
      <trkpt lat="53.360791001468897" lon="-6.273166034370661">
        <ele>26.09</ele>
        <time>2026-07-10T05:13:46Z</time>
      </trkpt>
      <trkpt lat="53.360808016732335" lon="-6.272764960303903">
        <ele>29.940000000000001</ele>
        <time>2026-07-10T05:13:56Z</time>
      </trkpt>
      <trkpt lat="53.360725035890937" lon="-6.271632984280586">
        <ele>32.340000000000003</ele>
        <time>2026-07-10T05:14:05Z</time>
      </trkpt>
      <trkpt lat="53.360634008422494" lon="-6.270142011344433">
        <ele>31.379999999999999</ele>
        <time>2026-07-10T05:14:13Z</time>
      </trkpt>
      <trkpt lat="53.360593020915985" lon="-6.269787037745118">
        <ele>30.420000000000002</ele>
        <time>2026-07-10T05:14:15Z</time>
      </trkpt>
      <trkpt lat="53.360425969585776" lon="-6.267789965495467">
        <ele>24.649999999999999</ele>
        <time>2026-07-10T05:14:25Z</time>
      </trkpt>
      <trkpt lat="53.360334020107985" lon="-6.266408041119576">
        <ele>23.690000000000001</ele>
        <time>2026-07-10T05:14:33Z</time>
      </trkpt>
      <trkpt lat="53.36032697930932" lon="-6.266293963417411">
        <ele>23.690000000000001</ele>
        <time>2026-07-10T05:14:34Z</time>
      </trkpt>
      <trkpt lat="53.360315999016166" lon="-6.266115009784699">
        <ele>23.690000000000001</ele>
        <time>2026-07-10T05:14:36Z</time>
      </trkpt>
      <trkpt lat="53.360309964045882" lon="-6.266058012843132">
        <ele>23.690000000000001</ele>
        <time>2026-07-10T05:14:37Z</time>
      </trkpt>
      <trkpt lat="53.360306024551392" lon="-6.266013002023101">
        <ele>23.690000000000001</ele>
        <time>2026-07-10T05:14:38Z</time>
      </trkpt>
      <trkpt lat="53.360305018723011" lon="-6.266005039215088">
        <ele>24.170000000000002</ele>
        <time>2026-07-10T05:14:39Z</time>
      </trkpt>
      <trkpt lat="53.360237963497639" lon="-6.266028005629778">
        <ele>24.649999999999999</ele>
        <time>2026-07-10T05:14:53Z</time>
      </trkpt>
      <trkpt lat="53.360300995409489" lon="-6.265965979546309">
        <ele>24.649999999999999</ele>
        <time>2026-07-10T05:14:55Z</time>
      </trkpt>
      <trkpt lat="53.360294038429856" lon="-6.265885010361671">
        <ele>24.649999999999999</ele>
        <time>2026-07-10T05:14:56Z</time>
      </trkpt>
      <trkpt lat="53.36028398014605" lon="-6.265780990943313">
        <ele>24.649999999999999</ele>
        <time>2026-07-10T05:14:57Z</time>
      </trkpt>
      <trkpt lat="53.360274005681276" lon="-6.265674037858844">
        <ele>24.649999999999999</ele>
        <time>2026-07-10T05:14:58Z</time>
      </trkpt>
      <trkpt lat="53.360147019848228" lon="-6.264147022739053">
        <ele>26.09</ele>
        <time>2026-07-10T05:15:09Z</time>
      </trkpt>
      <trkpt lat="53.360047023743391" lon="-6.262862998992205">
        <ele>27.530000000000001</ele>
        <time>2026-07-10T05:15:17Z</time>
      </trkpt>
      <trkpt lat="53.360017016530037" lon="-6.262636017054319">
        <ele>27.530000000000001</ele>
        <time>2026-07-10T05:15:19Z</time>
      </trkpt>
      <trkpt lat="53.360004024580121" lon="-6.262539960443974">
        <ele>27.530000000000001</ele>
        <time>2026-07-10T05:15:20Z</time>
      </trkpt>
      <trkpt lat="53.35998298600316" lon="-6.26238196156919">
        <ele>27.530000000000001</ele>
        <time>2026-07-10T05:15:22Z</time>
      </trkpt>
      <trkpt lat="53.359976029023528" lon="-6.262326976284385">
        <ele>28.02</ele>
        <time>2026-07-10T05:15:23Z</time>
      </trkpt>
      <trkpt lat="53.359969994053245" lon="-6.262286994606257">
        <ele>28.02</ele>
        <time>2026-07-10T05:15:33Z</time>
      </trkpt>
      <trkpt lat="53.359951972961426" lon="-6.262151962146163">
        <ele>28.02</ele>
        <time>2026-07-10T05:16:22Z</time>
      </trkpt>
      <trkpt lat="53.359861029312015" lon="-6.261662961915135">
        <ele>27.050000000000001</ele>
        <time>2026-07-10T05:16:28Z</time>
      </trkpt>
      <trkpt lat="53.359682997688651" lon="-6.260825023055077">
        <ele>24.649999999999999</ele>
        <time>2026-07-10T05:16:36Z</time>
      </trkpt>
      <trkpt lat="53.359620971605182" lon="-6.260528974235058">
        <ele>24.170000000000002</ele>
        <time>2026-07-10T05:16:38Z</time>
      </trkpt>
      <trkpt lat="53.359592976048589" lon="-6.260386984795332">
        <ele>24.170000000000002</ele>
        <time>2026-07-10T05:16:39Z</time>
      </trkpt>
      <trkpt lat="53.359563974663615" lon="-6.260244995355606">
        <ele>23.690000000000001</ele>
        <time>2026-07-10T05:16:40Z</time>
      </trkpt>
      <trkpt lat="53.359485017135739" lon="-6.259849034249783">
        <ele>22.73</ele>
        <time>2026-07-10T05:16:43Z</time>
      </trkpt>
      <trkpt lat="53.359463978558779" lon="-6.259744009003043">
        <ele>22.73</ele>
        <time>2026-07-10T05:16:44Z</time>
      </trkpt>
      <trkpt lat="53.359447969123721" lon="-6.259663961827755">
        <ele>22.73</ele>
        <time>2026-07-10T05:16:45Z</time>
      </trkpt>
      <trkpt lat="53.359436988830566" lon="-6.259607970714569">
        <ele>22.73</ele>
        <time>2026-07-10T05:16:46Z</time>
      </trkpt>
      <trkpt lat="53.359429026022553" lon="-6.25956597737968">
        <ele>22.25</ele>
        <time>2026-07-10T05:16:47Z</time>
      </trkpt>
      <trkpt lat="53.359399018809199" lon="-6.259418036788702">
        <ele>21.77</ele>
        <time>2026-07-10T05:16:51Z</time>
      </trkpt>
      <trkpt lat="53.359319977462292" lon="-6.259033977985382">
        <ele>21.289999999999999</ele>
        <time>2026-07-10T05:16:55Z</time>
      </trkpt>
      <trkpt lat="53.359259963035583" lon="-6.258809007704258">
        <ele>21.289999999999999</ele>
        <time>2026-07-10T05:16:57Z</time>
      </trkpt>
      <trkpt lat="53.359045973047614" lon="-6.257762024179101">
        <ele>18.399999999999999</ele>
        <time>2026-07-10T05:17:05Z</time>
      </trkpt>
      <trkpt lat="53.359017977491021" lon="-6.25761098228395">
        <ele>17.920000000000002</ele>
        <time>2026-07-10T05:17:06Z</time>
      </trkpt>
      <trkpt lat="53.358811028301716" lon="-6.256661983206868">
        <ele>16.48</ele>
        <time>2026-07-10T05:17:12Z</time>
      </trkpt>
      <trkpt lat="53.358784038573503" lon="-6.256486969068646">
        <ele>16</ele>
        <time>2026-07-10T05:17:13Z</time>
      </trkpt>
      <trkpt lat="53.358753025531769" lon="-6.256320001557469">
        <ele>15.52</ele>
        <time>2026-07-10T05:17:14Z</time>
      </trkpt>
      <trkpt lat="53.358723018318415" lon="-6.256169965490699">
        <ele>15.52</ele>
        <time>2026-07-10T05:17:15Z</time>
      </trkpt>
      <trkpt lat="53.358696028590202" lon="-6.256040968000889">
        <ele>15.039999999999999</ele>
        <time>2026-07-10T05:17:16Z</time>
      </trkpt>
      <trkpt lat="53.358656968921423" lon="-6.255852039903402">
        <ele>14.56</ele>
        <time>2026-07-10T05:17:18Z</time>
      </trkpt>
      <trkpt lat="53.358632996678352" lon="-6.255729999393225">
        <ele>14.08</ele>
        <time>2026-07-10T05:17:25Z</time>
      </trkpt>
      <trkpt lat="53.358564013615251" lon="-6.255394974723458">
        <ele>13.119999999999999</ele>
        <time>2026-07-10T05:17:34Z</time>
      </trkpt>
      <trkpt lat="53.358527971431613" lon="-6.255218032747507">
        <ele>13.119999999999999</ele>
        <time>2026-07-10T05:17:43Z</time>
      </trkpt>
      <trkpt lat="53.358452031388879" lon="-6.254849983379245">
        <ele>14.08</ele>
        <time>2026-07-10T05:18:10Z</time>
      </trkpt>
      <trkpt lat="53.358195964246988" lon="-6.253638966009021">
        <ele>15.52</ele>
        <time>2026-07-10T05:18:20Z</time>
      </trkpt>
      <trkpt lat="53.357835039496422" lon="-6.251882035285235">
        <ele>14.56</ele>
        <time>2026-07-10T05:18:30Z</time>
      </trkpt>
      <trkpt lat="53.35768198594451" lon="-6.251149037852883">
        <ele>13.6</ele>
        <time>2026-07-10T05:18:34Z</time>
      </trkpt>
      <trkpt lat="53.357548965141177" lon="-6.250619972124696">
        <ele>13.119999999999999</ele>
        <time>2026-07-10T05:18:37Z</time>
      </trkpt>
      <trkpt lat="53.357397001236677" lon="-6.250299029052258">
        <ele>13.119999999999999</ele>
        <time>2026-07-10T05:18:40Z</time>
      </trkpt>
      <trkpt lat="53.357319971546531" lon="-6.250149998813868">
        <ele>13.119999999999999</ele>
        <time>2026-07-10T05:18:42Z</time>
      </trkpt>
      <trkpt lat="53.357285019010305" lon="-6.250101970508695">
        <ele>13.119999999999999</ele>
        <time>2026-07-10T05:18:43Z</time>
      </trkpt>
      <trkpt lat="53.357240008190274" lon="-6.250041034072638">
        <ele>13.119999999999999</ele>
        <time>2026-07-10T05:18:51Z</time>
      </trkpt>
      <trkpt lat="53.35714302957058" lon="-6.249909019097686">
        <ele>13.119999999999999</ele>
        <time>2026-07-10T05:19:29Z</time>
      </trkpt>
      <trkpt lat="53.356618992984295" lon="-6.249223966151476">
        <ele>15.039999999999999</ele>
        <time>2026-07-10T05:19:36Z</time>
      </trkpt>
      <trkpt lat="53.355968976393342" lon="-6.248357025906444">
        <ele>11.67</ele>
        <time>2026-07-10T05:19:44Z</time>
      </trkpt>
      <trkpt lat="53.355206977576017" lon="-6.247306019067764">
        <ele>12.630000000000001</ele>
        <time>2026-07-10T05:19:55Z</time>
      </trkpt>
      <trkpt lat="53.355117961764336" lon="-6.247192025184631">
        <ele>12.15</ele>
        <time>2026-07-10T05:19:57Z</time>
      </trkpt>
      <trkpt lat="53.354969015344977" lon="-6.247012987732887">
        <ele>12.15</ele>
        <time>2026-07-10T05:20:02Z</time>
      </trkpt>
      <trkpt lat="53.354931967332959" lon="-6.246929001063108">
        <ele>12.630000000000001</ele>
        <time>2026-07-10T05:20:03Z</time>
      </trkpt>
      <trkpt lat="53.354881005361676" lon="-6.246869992464781">
        <ele>12.630000000000001</ele>
        <time>2026-07-10T05:20:04Z</time>
      </trkpt>
      <trkpt lat="53.354815961793065" lon="-6.246793968603015">
        <ele>13.119999999999999</ele>
        <time>2026-07-10T05:20:05Z</time>
      </trkpt>
      <trkpt lat="53.354757037013769" lon="-6.246702019125223">
        <ele>13.119999999999999</ele>
        <time>2026-07-10T05:20:06Z</time>
      </trkpt>
      <trkpt lat="53.354681013152003" lon="-6.246606968343258">
        <ele>13.119999999999999</ele>
        <time>2026-07-10T05:20:07Z</time>
      </trkpt>
      <trkpt lat="53.354602977633476" lon="-6.246519964188337">
        <ele>12.630000000000001</ele>
        <time>2026-07-10T05:20:08Z</time>
      </trkpt>
      <trkpt lat="53.354522008448839" lon="-6.246420973911881">
        <ele>12.15</ele>
        <time>2026-07-10T05:20:09Z</time>
      </trkpt>
      <trkpt lat="53.35443701595068" lon="-6.246312009170651">
        <ele>12.15</ele>
        <time>2026-07-10T05:20:10Z</time>
      </trkpt>
      <trkpt lat="53.35435202345252" lon="-6.24620103277266">
        <ele>12.15</ele>
        <time>2026-07-10T05:20:11Z</time>
      </trkpt>
      <trkpt lat="53.353691026568413" lon="-6.245323028415442">
        <ele>10.710000000000001</ele>
        <time>2026-07-10T05:20:19Z</time>
      </trkpt>
      <trkpt lat="53.35349396802485" lon="-6.24502002261579">
        <ele>9.27</ele>
        <time>2026-07-10T05:20:22Z</time>
      </trkpt>
      <trkpt lat="53.353347033262253" lon="-6.244853977113962">
        <ele>9.27</ele>
        <time>2026-07-10T05:20:23Z</time>
      </trkpt>
      <trkpt lat="53.35218102671206" lon="-6.243264013901353">
        <ele>9.27</ele>
        <time>2026-07-10T05:20:36Z</time>
      </trkpt>
      <trkpt lat="53.351396983489394" lon="-6.242200015112758">
        <ele>10.710000000000001</ele>
        <time>2026-07-10T05:20:45Z</time>
      </trkpt>
      <trkpt lat="53.350825002416968" lon="-6.241413038223982">
        <ele>10.710000000000001</ele>
        <time>2026-07-10T05:20:54Z</time>
      </trkpt>
      <trkpt lat="53.35074101574719" lon="-6.241306001320481">
        <ele>11.19</ele>
        <time>2026-07-10T05:21:02Z</time>
      </trkpt>
      <trkpt lat="53.350575976073742" lon="-6.241080025210977">
        <ele>11.19</ele>
        <time>2026-07-10T05:21:05Z</time>
      </trkpt>
      <trkpt lat="53.350636996328831" lon="-6.240974999964237">
        <ele>11.19</ele>
        <time>2026-07-10T05:21:06Z</time>
      </trkpt>
      <trkpt lat="53.350627021864057" lon="-6.240882966667414">
        <ele>11.67</ele>
        <time>2026-07-10T05:21:07Z</time>
      </trkpt>
      <trkpt lat="53.350616041570902" lon="-6.240778025239706">
        <ele>11.67</ele>
        <time>2026-07-10T05:21:08Z</time>
      </trkpt>
      <trkpt lat="53.350607994943857" lon="-6.24063896946609">
        <ele>11.67</ele>
        <time>2026-07-10T05:21:09Z</time>
      </trkpt>
      <trkpt lat="53.350597014650702" lon="-6.240469990298152">
        <ele>11.67</ele>
        <time>2026-07-10T05:21:10Z</time>
      </trkpt>
      <trkpt lat="53.350597014650702" lon="-6.240335963666439">
        <ele>12.15</ele>
        <time>2026-07-10T05:21:11Z</time>
      </trkpt>
      <trkpt lat="53.350491989403963" lon="-6.238894024863839">
        <ele>15.039999999999999</ele>
        <time>2026-07-10T05:21:19Z</time>
      </trkpt>
      <trkpt lat="53.350323010236025" lon="-6.236449023708701">
        <ele>15.039999999999999</ele>
        <time>2026-07-10T05:21:31Z</time>
      </trkpt>
      <trkpt lat="53.350287973880768" lon="-6.23586799018085">
        <ele>12.630000000000001</ele>
        <time>2026-07-10T05:21:35Z</time>
      </trkpt>
      <trkpt lat="53.35027095861733" lon="-6.235616030171514">
        <ele>11.19</ele>
        <time>2026-07-10T05:21:37Z</time>
      </trkpt>
      <trkpt lat="53.350262995809317" lon="-6.235488038510084">
        <ele>10.710000000000001</ele>
        <time>2026-07-10T05:21:38Z</time>
      </trkpt>
      <trkpt lat="53.350174985826015" lon="-6.234185993671417">
        <ele>10.23</ele>
        <time>2026-07-10T05:21:46Z</time>
      </trkpt>
      <trkpt lat="53.350041965022683" lon="-6.232177019119263">
        <ele>12.15</ele>
        <time>2026-07-10T05:21:57Z</time>
      </trkpt>
      <trkpt lat="53.350017992779613" lon="-6.231783991679549">
        <ele>12.15</ele>
        <time>2026-07-10T05:21:59Z</time>
      </trkpt>
      <trkpt lat="53.350002989172935" lon="-6.231580981984735">
        <ele>11.67</ele>
        <time>2026-07-10T05:22:00Z</time>
      </trkpt>
      <trkpt lat="53.349988991394639" lon="-6.231383001431823">
        <ele>11.19</ele>
        <time>2026-07-10T05:22:01Z</time>
      </trkpt>
      <trkpt lat="53.349973987787962" lon="-6.231179991737008">
        <ele>10.710000000000001</ele>
        <time>2026-07-10T05:22:02Z</time>
      </trkpt>
      <trkpt lat="53.349958984181285" lon="-6.230974970385432">
        <ele>10.23</ele>
        <time>2026-07-10T05:22:03Z</time>
      </trkpt>
      <trkpt lat="53.349943980574608" lon="-6.230773972347379">
        <ele>9.75</ele>
        <time>2026-07-10T05:22:04Z</time>
      </trkpt>
      <trkpt lat="53.349929982796311" lon="-6.230578003451228">
        <ele>9.75</ele>
        <time>2026-07-10T05:22:05Z</time>
      </trkpt>
      <trkpt lat="53.349915985018015" lon="-6.23038899153471">
        <ele>9.75</ele>
        <time>2026-07-10T05:22:06Z</time>
      </trkpt>
      <trkpt lat="53.349788999184966" lon="-6.228671036660671">
        <ele>9.75</ele>
        <time>2026-07-10T05:22:15Z</time>
      </trkpt>
      <trkpt lat="53.349707024171948" lon="-6.227369997650385">
        <ele>10.23</ele>
        <time>2026-07-10T05:22:24Z</time>
      </trkpt>
      <trkpt lat="53.349707024171948" lon="-6.227369997650385">
        <ele>10.710000000000001</ele>
        <time>2026-07-10T05:22:38Z</time>
      </trkpt>
      <trkpt lat="53.349707024171948" lon="-6.227369997650385">
        <ele>10.710000000000001</ele>
        <time>2026-07-10T05:23:29Z</time>
      </trkpt>
      <trkpt lat="53.349707024171948" lon="-6.227371003478766">
        <ele>10.710000000000001</ele>
        <time>2026-07-10T05:23:38Z</time>
      </trkpt>
      <trkpt lat="53.349701995030046" lon="-6.227309983223677">
        <ele>11.19</ele>
        <time>2026-07-10T05:23:39Z</time>
      </trkpt>
      <trkpt lat="53.349695038050413" lon="-6.227224990725517">
        <ele>12.15</ele>
        <time>2026-07-10T05:23:40Z</time>
      </trkpt>
      <trkpt lat="53.349727978929877" lon="-6.226949980482459">
        <ele>13.119999999999999</ele>
        <time>2026-07-10T05:23:41Z</time>
      </trkpt>
      <trkpt lat="53.349812971428037" lon="-6.226911004632711">
        <ele>14.08</ele>
        <time>2026-07-10T05:23:42Z</time>
      </trkpt>
      <trkpt lat="53.349917996674776" lon="-6.226863982155919">
        <ele>15.039999999999999</ele>
        <time>2026-07-10T05:23:43Z</time>
      </trkpt>
      <trkpt lat="53.350039031356573" lon="-6.226810002699494">
        <ele>15.52</ele>
        <time>2026-07-10T05:23:44Z</time>
      </trkpt>
      <trkpt lat="53.351124990731478" lon="-6.22604900971055">
        <ele>17.920000000000002</ele>
        <time>2026-07-10T05:23:53Z</time>
      </trkpt>
      <trkpt lat="53.352280016988516" lon="-6.225173017010093">
        <ele>18.879999999999999</ele>
        <time>2026-07-10T05:24:05Z</time>
      </trkpt>
      <trkpt lat="53.352314969524741" lon="-6.225136974826455">
        <ele>19.359999999999999</ele>
        <time>2026-07-10T05:24:06Z</time>
      </trkpt>
      <trkpt lat="53.352314969524741" lon="-6.225136974826455">
        <ele>19.359999999999999</ele>
        <time>2026-07-10T05:24:17Z</time>
      </trkpt>
      <trkpt lat="53.352314969524741" lon="-6.225136974826455">
        <ele>19.359999999999999</ele>
        <time>2026-07-10T05:25:06Z</time>
      </trkpt>
      <trkpt lat="53.352517979219556" lon="-6.224918039515615">
        <ele>19.359999999999999</ele>
        <time>2026-07-10T05:25:27Z</time>
      </trkpt>
      <trkpt lat="53.352986024692655" lon="-6.224198034033179">
        <ele>18.879999999999999</ele>
        <time>2026-07-10T05:25:33Z</time>
      </trkpt>
      <trkpt lat="53.353098006919026" lon="-6.224167020991445">
        <ele>18.879999999999999</ele>
        <time>2026-07-10T05:25:34Z</time>
      </trkpt>
      <trkpt lat="53.353172019124031" lon="-6.224098037928343">
        <ele>18.879999999999999</ele>
        <time>2026-07-10T05:25:35Z</time>
      </trkpt>
      <trkpt lat="53.353290036320686" lon="-6.224042968824506">
        <ele>18.879999999999999</ele>
        <time>2026-07-10T05:25:36Z</time>
      </trkpt>
      <trkpt lat="53.353393971920013" lon="-6.223995024338365">
        <ele>18.879999999999999</ele>
        <time>2026-07-10T05:25:37Z</time>
      </trkpt>
      <trkpt lat="53.353496985509992" lon="-6.223948001861572">
        <ele>18.399999999999999</ele>
        <time>2026-07-10T05:25:38Z</time>
      </trkpt>
      <trkpt lat="53.353604022413492" lon="-6.223948001861572">
        <ele>17.920000000000002</ele>
        <time>2026-07-10T05:25:39Z</time>
      </trkpt>
      <trkpt lat="53.35368700325489" lon="-6.223948001861572">
        <ele>17.920000000000002</ele>
        <time>2026-07-10T05:25:40Z</time>
      </trkpt>
      <trkpt lat="53.353779036551714" lon="-6.223998041823506">
        <ele>17.440000000000001</ele>
        <time>2026-07-10T05:25:41Z</time>
      </trkpt>
      <trkpt lat="53.353851959109306" lon="-6.224037017673254">
        <ele>16.960000000000001</ele>
        <time>2026-07-10T05:25:42Z</time>
      </trkpt>
      <trkpt lat="53.353906022384763" lon="-6.224067024886608">
        <ele>16.48</ele>
        <time>2026-07-10T05:25:43Z</time>
      </trkpt>
      <trkpt lat="53.354022027924657" lon="-6.224129972979426">
        <ele>13.6</ele>
        <time>2026-07-10T05:25:51Z</time>
      </trkpt>
      <trkpt lat="53.354228977113962" lon="-6.224227035418153">
        <ele>11.67</ele>
        <time>2026-07-10T05:26:14Z</time>
      </trkpt>
      <trkpt lat="53.354285974055529" lon="-6.224227035418153">
        <ele>11.67</ele>
        <time>2026-07-10T05:26:15Z</time>
      </trkpt>
      <trkpt lat="53.354321010410786" lon="-6.224186969920993">
        <ele>11.19</ele>
        <time>2026-07-10T05:26:16Z</time>
      </trkpt>
      <trkpt lat="53.354344982653856" lon="-6.224110024049878">
        <ele>11.67</ele>
        <time>2026-07-10T05:26:17Z</time>
      </trkpt>
      <trkpt lat="53.354375995695591" lon="-6.224011033773422">
        <ele>11.67</ele>
        <time>2026-07-10T05:26:18Z</time>
      </trkpt>
      <trkpt lat="53.354409020394087" lon="-6.22390097938478">
        <ele>12.15</ele>
        <time>2026-07-10T05:26:19Z</time>
      </trkpt>
      <trkpt lat="53.354444978758693" lon="-6.223785979673266">
        <ele>12.630000000000001</ele>
        <time>2026-07-10T05:26:20Z</time>
      </trkpt>
      <trkpt lat="53.35448102094233" lon="-6.223668968304992">
        <ele>13.119999999999999</ele>
        <time>2026-07-10T05:26:21Z</time>
      </trkpt>
      <trkpt lat="53.354494012892246" lon="-6.223578024655581">
        <ele>13.6</ele>
        <time>2026-07-10T05:26:22Z</time>
      </trkpt>
      <trkpt lat="53.354501975700259" lon="-6.223519016057253">
        <ele>14.08</ele>
        <time>2026-07-10T05:26:23Z</time>
      </trkpt>
      <trkpt lat="53.354656035080552" lon="-6.222692979499698">
        <ele>16.960000000000001</ele>
        <time>2026-07-10T05:26:32Z</time>
      </trkpt>
      <trkpt lat="53.354820990934968" lon="-6.22220297344029">
        <ele>17.920000000000002</ele>
        <time>2026-07-10T05:26:37Z</time>
      </trkpt>
      <trkpt lat="53.354850998148322" lon="-6.222081016749144">
        <ele>17.920000000000002</ele>
        <time>2026-07-10T05:26:38Z</time>
      </trkpt>
      <trkpt lat="53.354857033118606" lon="-6.221909020096064">
        <ele>17.920000000000002</ele>
        <time>2026-07-10T05:26:39Z</time>
      </trkpt>
      <trkpt lat="53.354731975123286" lon="-6.220810990780592">
        <ele>16.960000000000001</ele>
        <time>2026-07-10T05:26:46Z</time>
      </trkpt>
      <trkpt lat="53.354708002880216" lon="-6.220686016604304">
        <ele>16.48</ele>
        <time>2026-07-10T05:26:47Z</time>
      </trkpt>
      <trkpt lat="53.354425029829144" lon="-6.219385983422399">
        <ele>14.56</ele>
        <time>2026-07-10T05:26:56Z</time>
      </trkpt>
      <trkpt lat="53.354113977402449" lon="-6.218278985470533">
        <ele>13.6</ele>
        <time>2026-07-10T05:27:04Z</time>
      </trkpt>
      <trkpt lat="53.353883977979422" lon="-6.216961015015841">
        <ele>13.119999999999999</ele>
        <time>2026-07-10T05:27:13Z</time>
      </trkpt>
      <trkpt lat="53.353762021288276" lon="-6.214748024940491">
        <ele>13.119999999999999</ele>
        <time>2026-07-10T05:27:27Z</time>
      </trkpt>
      <trkpt lat="53.353770989924669" lon="-6.214135978370905">
        <ele>12.15</ele>
        <time>2026-07-10T05:27:32Z</time>
      </trkpt>
      <trkpt lat="53.353824969381094" lon="-6.213906984776259">
        <ele>12.15</ele>
        <time>2026-07-10T05:27:34Z</time>
      </trkpt>
      <trkpt lat="53.353807032108307" lon="-6.213744040578604">
        <ele>12.15</ele>
        <time>2026-07-10T05:27:35Z</time>
      </trkpt>
      <trkpt lat="53.353794040158391" lon="-6.213690983131528">
        <ele>12.15</ele>
        <time>2026-07-10T05:27:36Z</time>
      </trkpt>
      <trkpt lat="53.353660013526678" lon="-6.213570032268763">
        <ele>12.15</ele>
        <time>2026-07-10T05:27:37Z</time>
      </trkpt>
      <trkpt lat="53.353641992434859" lon="-6.213447991758585">
        <ele>12.15</ele>
        <time>2026-07-10T05:27:38Z</time>
      </trkpt>
      <trkpt lat="53.35362397134304" lon="-6.21332704089582">
        <ele>12.15</ele>
        <time>2026-07-10T05:27:39Z</time>
      </trkpt>
      <trkpt lat="53.353606034070253" lon="-6.213211035355926">
        <ele>11.67</ele>
        <time>2026-07-10T05:27:40Z</time>
      </trkpt>
      <trkpt lat="53.35360100492835" lon="-6.213099975138903">
        <ele>11.67</ele>
        <time>2026-07-10T05:27:41Z</time>
      </trkpt>
      <trkpt lat="53.35360100492835" lon="-6.212981035932899">
        <ele>11.67</ele>
        <time>2026-07-10T05:27:42Z</time>
      </trkpt>
      <trkpt lat="53.35360100492835" lon="-6.212861007079482">
        <ele>11.19</ele>
        <time>2026-07-10T05:27:43Z</time>
      </trkpt>
      <trkpt lat="53.35360100492835" lon="-6.212733015418053">
        <ele>11.67</ele>
        <time>2026-07-10T05:27:44Z</time>
      </trkpt>
      <trkpt lat="53.35353696718812" lon="-6.211346983909607">
        <ele>11.19</ele>
        <time>2026-07-10T05:27:53Z</time>
      </trkpt>
      <trkpt lat="53.35353503935039" lon="-6.211200971156359">
        <ele>10.710000000000001</ele>
        <time>2026-07-10T05:27:54Z</time>
      </trkpt>
      <trkpt lat="53.353469995781779" lon="-6.20989297516644">
        <ele>10.710000000000001</ele>
        <time>2026-07-10T05:28:04Z</time>
      </trkpt>
      <trkpt lat="53.353386009112" lon="-6.208351962268353">
        <ele>11.67</ele>
        <time>2026-07-10T05:28:14Z</time>
      </trkpt>
      <trkpt lat="53.353353990241885" lon="-6.207212023437023">
        <ele>11.67</ele>
        <time>2026-07-10T05:28:21Z</time>
      </trkpt>
      <trkpt lat="53.353327000513673" lon="-6.207043966278434">
        <ele>11.67</ele>
        <time>2026-07-10T05:28:22Z</time>
      </trkpt>
      <trkpt lat="53.353248964995146" lon="-6.20658203959465">
        <ele>12.630000000000001</ele>
        <time>2026-07-10T05:28:25Z</time>
      </trkpt>
      <trkpt lat="53.353233961388469" lon="-6.206436026841402">
        <ele>13.119999999999999</ele>
        <time>2026-07-10T05:28:26Z</time>
      </trkpt>
      <trkpt lat="53.35317000746727" lon="-6.204725028946996">
        <ele>14.56</ele>
        <time>2026-07-10T05:28:35Z</time>
      </trkpt>
      <trkpt lat="53.353126002475619" lon="-6.203533038496971">
        <ele>16</ele>
        <time>2026-07-10T05:28:42Z</time>
      </trkpt>
      <trkpt lat="53.353108987212181" lon="-6.203078990802169">
        <ele>17.440000000000001</ele>
        <time>2026-07-10T05:28:45Z</time>
      </trkpt>
      <trkpt lat="53.353107981383801" lon="-6.20293096639216">
        <ele>18.879999999999999</ele>
        <time>2026-07-10T05:28:46Z</time>
      </trkpt>
      <trkpt lat="53.353107981383801" lon="-6.202794006094337">
        <ele>19.84</ele>
        <time>2026-07-10T05:28:47Z</time>
      </trkpt>
      <trkpt lat="53.353086020797491" lon="-6.201350977644324">
        <ele>24.170000000000002</ele>
        <time>2026-07-10T05:28:58Z</time>
      </trkpt>
      <trkpt lat="53.353086020797491" lon="-6.200295025482774">
        <ele>18.399999999999999</ele>
        <time>2026-07-10T05:29:06Z</time>
      </trkpt>
      <trkpt lat="53.353086020797491" lon="-6.199324987828732">
        <ele>16.960000000000001</ele>
        <time>2026-07-10T05:29:14Z</time>
      </trkpt>
      <trkpt lat="53.353086020797491" lon="-6.198400966823101">
        <ele>16.48</ele>
        <time>2026-07-10T05:29:21Z</time>
      </trkpt>
      <trkpt lat="53.353086020797491" lon="-6.197861004620791">
        <ele>16.960000000000001</ele>
        <time>2026-07-10T05:29:26Z</time>
      </trkpt>
      <trkpt lat="53.353078979998827" lon="-6.196773033589125">
        <ele>18.399999999999999</ele>
        <time>2026-07-10T05:29:35Z</time>
      </trkpt>
      <trkpt lat="53.353064982220531" lon="-6.196668008342385">
        <ele>18.399999999999999</ele>
        <time>2026-07-10T05:29:36Z</time>
      </trkpt>
      <trkpt lat="53.353050984442234" lon="-6.196560971438885">
        <ele>18.399999999999999</ele>
        <time>2026-07-10T05:29:37Z</time>
      </trkpt>
      <trkpt lat="53.353043021634221" lon="-6.196503974497318">
        <ele>18.399999999999999</ele>
        <time>2026-07-10T05:29:38Z</time>
      </trkpt>
      <trkpt lat="53.352966997772455" lon="-6.196446977555752">
        <ele>18.399999999999999</ele>
        <time>2026-07-10T05:29:39Z</time>
      </trkpt>
      <trkpt lat="53.352908995002508" lon="-6.196402972564101">
        <ele>18.399999999999999</ele>
        <time>2026-07-10T05:29:40Z</time>
      </trkpt>
      <trkpt lat="53.352855015546083" lon="-6.196372965350747">
        <ele>18.399999999999999</ele>
        <time>2026-07-10T05:29:41Z</time>
      </trkpt>
      <trkpt lat="53.352768011391163" lon="-6.196362990885973">
        <ele>18.399999999999999</ele>
        <time>2026-07-10T05:29:42Z</time>
      </trkpt>
      <trkpt lat="53.352660974487662" lon="-6.196352010592818">
        <ele>17.440000000000001</ele>
        <time>2026-07-10T05:29:43Z</time>
      </trkpt>
      <trkpt lat="53.351616002619267" lon="-6.196254026144743">
        <ele>12.15</ele>
        <time>2026-07-10T05:29:52Z</time>
      </trkpt>
      <trkpt lat="53.350931033492088" lon="-6.196225024759769">
        <ele>10.23</ele>
        <time>2026-07-10T05:30:02Z</time>
      </trkpt>
      <trkpt lat="53.350525014102459" lon="-6.196225024759769">
        <ele>8.789999999999999</ele>
        <time>2026-07-10T05:30:14Z</time>
      </trkpt>
      <trkpt lat="53.350429963320494" lon="-6.196225024759769">
        <ele>8.789999999999999</ele>
        <time>2026-07-10T05:30:29Z</time>
      </trkpt>
      <trkpt lat="53.350374978035688" lon="-6.196225024759769">
        <ele>9.27</ele>
        <time>2026-07-10T05:30:30Z</time>
      </trkpt>
      <trkpt lat="53.350231982767582" lon="-6.196225024759769">
        <ele>9.27</ele>
        <time>2026-07-10T05:30:31Z</time>
      </trkpt>
      <trkpt lat="53.350231982767582" lon="-6.19598999619484">
        <ele>9.27</ele>
        <time>2026-07-10T05:30:32Z</time>
      </trkpt>
      <trkpt lat="53.350231982767582" lon="-6.19588396511972">
        <ele>9.75</ele>
        <time>2026-07-10T05:30:33Z</time>
      </trkpt>
      <trkpt lat="53.350231982767582" lon="-6.195764020085335">
        <ele>9.75</ele>
        <time>2026-07-10T05:30:34Z</time>
      </trkpt>
      <trkpt lat="53.350231982767582" lon="-6.195633010938764">
        <ele>9.75</ele>
        <time>2026-07-10T05:30:35Z</time>
      </trkpt>
      <trkpt lat="53.350231982767582" lon="-6.195500995963812">
        <ele>10.23</ele>
        <time>2026-07-10T05:30:36Z</time>
      </trkpt>
      <trkpt lat="53.350231982767582" lon="-6.194579992443323">
        <ele>11.67</ele>
        <time>2026-07-10T05:30:44Z</time>
      </trkpt>
      <trkpt lat="53.350212033838034" lon="-6.194388968870044">
        <ele>11.67</ele>
        <time>2026-07-10T05:30:45Z</time>
      </trkpt>
      <trkpt lat="53.35016299970448" lon="-6.194360973313451">
        <ele>11.67</ele>
        <time>2026-07-10T05:30:46Z</time>
      </trkpt>
      <trkpt lat="53.350102985277772" lon="-6.194327026605606">
        <ele>11.67</ele>
        <time>2026-07-10T05:30:47Z</time>
      </trkpt>
      <trkpt lat="53.350025033578277" lon="-6.19431302882731">
        <ele>11.67</ele>
        <time>2026-07-10T05:30:48Z</time>
      </trkpt>
      <trkpt lat="53.349952027201653" lon="-6.194309005513787">
        <ele>11.67</ele>
        <time>2026-07-10T05:30:49Z</time>
      </trkpt>
      <trkpt lat="53.349868962541223" lon="-6.194305988028646">
        <ele>11.67</ele>
        <time>2026-07-10T05:30:50Z</time>
      </trkpt>
      <trkpt lat="53.348586028441787" lon="-6.19429400190711">
        <ele>10.710000000000001</ele>
        <time>2026-07-10T05:31:04Z</time>
      </trkpt>
      <trkpt lat="53.347871974110603" lon="-6.194335995242">
        <ele>11.19</ele>
        <time>2026-07-10T05:31:15Z</time>
      </trkpt>
      <trkpt lat="53.347737025469542" lon="-6.194280004128814">
        <ele>11.19</ele>
        <time>2026-07-10T05:31:18Z</time>
      </trkpt>
      <trkpt lat="53.347698971629143" lon="-6.194265000522137">
        <ele>11.19</ele>
        <time>2026-07-10T05:31:19Z</time>
      </trkpt>
      <trkpt lat="53.347575003281236" lon="-6.194228958338499">
        <ele>11.19</ele>
        <time>2026-07-10T05:31:21Z</time>
      </trkpt>
      <trkpt lat="53.34752001799643" lon="-6.194228958338499">
        <ele>11.19</ele>
        <time>2026-07-10T05:31:22Z</time>
      </trkpt>
      <trkpt lat="53.347279960289598" lon="-6.194228958338499">
        <ele>12.15</ele>
        <time>2026-07-10T05:31:31Z</time>
      </trkpt>
      <trkpt lat="53.347220029681921" lon="-6.194228958338499">
        <ele>12.630000000000001</ele>
        <time>2026-07-10T05:31:41Z</time>
      </trkpt>
      <trkpt lat="53.347139982506633" lon="-6.194228958338499">
        <ele>13.119999999999999</ele>
        <time>2026-07-10T05:32:06Z</time>
      </trkpt>
      <trkpt lat="53.347139982506633" lon="-6.194228958338499">
        <ele>13.6</ele>
        <time>2026-07-10T05:32:59Z</time>
      </trkpt>
      <trkpt lat="53.347139982506633" lon="-6.194228958338499">
        <ele>13.119999999999999</ele>
        <time>2026-07-10T05:33:51Z</time>
      </trkpt>
      <trkpt lat="53.347139982506633" lon="-6.194228958338499">
        <ele>13.6</ele>
        <time>2026-07-10T05:34:34Z</time>
      </trkpt>
      <trkpt lat="53.347139982506633" lon="-6.194228958338499">
        <ele>13.6</ele>
        <time>2026-07-10T05:35:01Z</time>
      </trkpt>
      <trkpt lat="53.347139982506633" lon="-6.194228958338499">
        <ele>13.6</ele>
        <time>2026-07-10T05:35:32Z</time>
      </trkpt>
      <trkpt lat="53.347139982506633" lon="-6.194228958338499">
        <ele>13.6</ele>
        <time>2026-07-10T05:35:51Z</time>
      </trkpt>
      <trkpt lat="53.347139982506633" lon="-6.194228958338499">
        <ele>13.119999999999999</ele>
        <time>2026-07-10T05:36:28Z</time>
      </trkpt>
      <trkpt lat="53.347139982506633" lon="-6.194228958338499">
        <ele>13.119999999999999</ele>
        <time>2026-07-10T05:37:29Z</time>
      </trkpt>
      <trkpt lat="53.347139982506633" lon="-6.194228958338499">
        <ele>13.119999999999999</ele>
        <time>2026-07-10T05:38:15Z</time>
      </trkpt>
      <trkpt lat="53.347078040242195" lon="-6.194228958338499">
        <ele>13.119999999999999</ele>
        <time>2026-07-10T05:38:28Z</time>
      </trkpt>
      <trkpt lat="53.347053984180093" lon="-6.194228958338499">
        <ele>13.119999999999999</ele>
        <time>2026-07-10T05:38:29Z</time>
      </trkpt>
      <trkpt lat="53.347032023593783" lon="-6.194228958338499">
        <ele>13.6</ele>
        <time>2026-07-10T05:38:30Z</time>
      </trkpt>
      <trkpt lat="53.347032023593783" lon="-6.194228958338499">
        <ele>13.6</ele>
        <time>2026-07-10T05:38:31Z</time>
      </trkpt>
      <trkpt lat="53.346967985853553" lon="-6.194228958338499">
        <ele>14.56</ele>
        <time>2026-07-10T05:38:43Z</time>
      </trkpt>
      <trkpt lat="53.346913000568748" lon="-6.194228958338499">
        <ele>15.039999999999999</ele>
        <time>2026-07-10T05:38:58Z</time>
      </trkpt>
      <trkpt lat="53.346851980313659" lon="-6.194228958338499">
        <ele>14.56</ele>
        <time>2026-07-10T05:39:12Z</time>
      </trkpt>
      <trkpt lat="53.346816021949053" lon="-6.194228958338499">
        <ele>14.08</ele>
        <time>2026-07-10T05:39:31Z</time>
      </trkpt>
      <trkpt lat="53.346816021949053" lon="-6.194228958338499">
        <ele>14.08</ele>
        <time>2026-07-10T05:39:47Z</time>
      </trkpt>
      <trkpt lat="53.346736980602145" lon="-6.19422803632915">
        <ele>14.08</ele>
        <time>2026-07-10T05:40:27Z</time>
      </trkpt>
      <trkpt lat="53.346603959798813" lon="-6.194223007187247">
        <ele>13.119999999999999</ele>
        <time>2026-07-10T05:40:43Z</time>
      </trkpt>
      <trkpt lat="53.346517961472273" lon="-6.194219989702106">
        <ele>12.630000000000001</ele>
        <time>2026-07-10T05:40:45Z</time>
      </trkpt>
      <trkpt lat="53.34646800532937" lon="-6.194218983873725">
        <ele>12.630000000000001</ele>
        <time>2026-07-10T05:40:46Z</time>
      </trkpt>
      <trkpt lat="53.346155025064945" lon="-6.19420800358057">
        <ele>12.630000000000001</ele>
        <time>2026-07-10T05:40:52Z</time>
      </trkpt>
      <trkpt lat="53.346155025064945" lon="-6.19420800358057">
        <ele>12.630000000000001</ele>
        <time>2026-07-10T05:40:53Z</time>
      </trkpt>
      <trkpt lat="53.346155025064945" lon="-6.19420800358057">
        <ele>12.630000000000001</ele>
        <time>2026-07-10T05:40:54Z</time>
      </trkpt>
      <trkpt lat="53.346155025064945" lon="-6.19420800358057">
        <ele>12.630000000000001</ele>
        <time>2026-07-10T05:40:55Z</time>
      </trkpt>
      <trkpt lat="53.346105990931392" lon="-6.194306993857026">
        <ele>12.630000000000001</ele>
        <time>2026-07-10T05:40:56Z</time>
      </trkpt>
      <trkpt lat="53.346069026738405" lon="-6.19437899440527">
        <ele>12.630000000000001</ele>
        <time>2026-07-10T05:40:57Z</time>
      </trkpt>
      <trkpt lat="53.346069026738405" lon="-6.19437899440527">
        <ele>13.119999999999999</ele>
        <time>2026-07-10T05:40:58Z</time>
      </trkpt>
      <trkpt lat="53.346069026738405" lon="-6.194463986903429">
        <ele>13.6</ele>
        <time>2026-07-10T05:40:59Z</time>
      </trkpt>
      <trkpt lat="53.346069026738405" lon="-6.194576974958181">
        <ele>13.6</ele>
        <time>2026-07-10T05:41:00Z</time>
      </trkpt>
      <trkpt lat="53.346069026738405" lon="-6.194685017690063">
        <ele>14.08</ele>
        <time>2026-07-10T05:41:01Z</time>
      </trkpt>
      <trkpt lat="53.346069026738405" lon="-6.19476699270308">
        <ele>14.08</ele>
        <time>2026-07-10T05:41:02Z</time>
      </trkpt>
      <trkpt lat="53.346069026738405" lon="-6.194888027384877">
        <ele>14.56</ele>
        <time>2026-07-10T05:41:05Z</time>
      </trkpt>
      <trkpt lat="53.346069026738405" lon="-6.194888027384877">
        <ele>14.08</ele>
        <time>2026-07-10T05:41:17Z</time>
      </trkpt>
      <trkpt lat="53.346069026738405" lon="-6.194888027384877">
        <ele>13.6</ele>
        <time>2026-07-10T05:41:32Z</time>
      </trkpt>
      <trkpt lat="53.346157958731055" lon="-6.194719970226288">
        <ele>14.08</ele>
        <time>2026-07-10T05:41:38Z</time>
      </trkpt>
      <trkpt lat="53.3461660053581" lon="-6.194776967167854">
        <ele>13.119999999999999</ele>
        <time>2026-07-10T05:41:47Z</time>
      </trkpt>
      <trkpt lat="53.346082018688321" lon="-6.194802029058337">
        <ele>12.15</ele>
        <time>2026-07-10T05:42:08Z</time>
      </trkpt>
      <trkpt lat="53.346077995374799" lon="-6.194802029058337">
        <ele>12.15</ele>
        <time>2026-07-10T05:42:58Z</time>
      </trkpt>
      <trkpt lat="53.346069026738405" lon="-6.194820972159505">
        <ele>12.15</ele>
        <time>2026-07-10T05:43:13Z</time>
      </trkpt>
      <trkpt lat="53.346069026738405" lon="-6.194861037656665">
        <ele>12.15</ele>
        <time>2026-07-10T05:43:14Z</time>
      </trkpt>
      <trkpt lat="53.346069026738405" lon="-6.194933960214257">
        <ele>12.630000000000001</ele>
        <time>2026-07-10T05:43:15Z</time>
      </trkpt>
      <trkpt lat="53.346069026738405" lon="-6.195965018123388">
        <ele>12.15</ele>
        <time>2026-07-10T05:43:23Z</time>
      </trkpt>
      <trkpt lat="53.346069026738405" lon="-6.197240995243192">
        <ele>11.67</ele>
        <time>2026-07-10T05:43:34Z</time>
      </trkpt>
      <trkpt lat="53.346069026738405" lon="-6.197306960821152">
        <ele>11.67</ele>
        <time>2026-07-10T05:43:35Z</time>
      </trkpt>
      <trkpt lat="53.345912033692002" lon="-6.197360018268228">
        <ele>11.67</ele>
        <time>2026-07-10T05:43:36Z</time>
      </trkpt>
      <trkpt lat="53.345876997336745" lon="-6.197364963591099">
        <ele>11.67</ele>
        <time>2026-07-10T05:43:37Z</time>
      </trkpt>
      <trkpt lat="53.345830980688334" lon="-6.197369992733002">
        <ele>11.67</ele>
        <time>2026-07-10T05:43:38Z</time>
      </trkpt>
      <trkpt lat="53.345773983746767" lon="-6.197377033531666">
        <ele>11.67</ele>
        <time>2026-07-10T05:43:39Z</time>
      </trkpt>
      <trkpt lat="53.345702989026904" lon="-6.197390025481582">
        <ele>11.19</ele>
        <time>2026-07-10T05:43:40Z</time>
      </trkpt>
      <trkpt lat="53.345623025670648" lon="-6.197412991896272">
        <ele>11.67</ele>
        <time>2026-07-10T05:43:41Z</time>
      </trkpt>
      <trkpt lat="53.345531998202205" lon="-6.197438975796104">
        <ele>12.15</ele>
        <time>2026-07-10T05:43:42Z</time>
      </trkpt>
      <trkpt lat="53.34543501958251" lon="-6.197466971352696">
        <ele>13.119999999999999</ele>
        <time>2026-07-10T05:43:43Z</time>
      </trkpt>
      <trkpt lat="53.345276014879346" lon="-6.197511982172728">
        <ele>14.08</ele>
        <time>2026-07-10T05:43:44Z</time>
      </trkpt>
      <trkpt lat="53.345249025151134" lon="-6.197485998272896">
        <ele>15.039999999999999</ele>
        <time>2026-07-10T05:43:45Z</time>
      </trkpt>
      <trkpt lat="53.345191022381186" lon="-6.197426989674568">
        <ele>16</ele>
        <time>2026-07-10T05:43:46Z</time>
      </trkpt>
      <trkpt lat="53.345169983804226" lon="-6.197288017719984">
        <ele>16.960000000000001</ele>
        <time>2026-07-10T05:43:47Z</time>
      </trkpt>
      <trkpt lat="53.345131007954478" lon="-6.197205036878586">
        <ele>17.920000000000002</ele>
        <time>2026-07-10T05:43:48Z</time>
      </trkpt>
      <trkpt lat="53.345102006569505" lon="-6.197130018845201">
        <ele>18.399999999999999</ele>
        <time>2026-07-10T05:43:49Z</time>
      </trkpt>
      <trkpt lat="53.345093037933111" lon="-6.197020970284939">
        <ele>19.359999999999999</ele>
        <time>2026-07-10T05:43:50Z</time>
      </trkpt>
      <trkpt lat="53.345082979649305" lon="-6.196902031078935">
        <ele>19.84</ele>
        <time>2026-07-10T05:43:51Z</time>
      </trkpt>
      <trkpt lat="53.345073005184531" lon="-6.196774039417505">
        <ele>20.809999999999999</ele>
        <time>2026-07-10T05:43:52Z</time>
      </trkpt>
      <trkpt lat="53.345042997971177" lon="-6.196418981999159">
        <ele>21.77</ele>
        <time>2026-07-10T05:43:55Z</time>
      </trkpt>
      <trkpt lat="53.345036040991545" lon="-6.196329966187477">
        <ele>22.25</ele>
        <time>2026-07-10T05:43:56Z</time>
      </trkpt>
      <trkpt lat="53.345030006021261" lon="-6.196255031973124">
        <ele>22.25</ele>
        <time>2026-07-10T05:43:57Z</time>
      </trkpt>
      <trkpt lat="53.345023971050978" lon="-6.196189988404512">
        <ele>22.25</ele>
        <time>2026-07-10T05:43:58Z</time>
      </trkpt>
      <trkpt lat="53.345019025728106" lon="-6.196125028654933">
        <ele>22.25</ele>
        <time>2026-07-10T05:43:59Z</time>
      </trkpt>
      <trkpt lat="53.345015002414584" lon="-6.196060990914702">
        <ele>22.25</ele>
        <time>2026-07-10T05:44:00Z</time>
      </trkpt>
      <trkpt lat="53.345012990757823" lon="-6.196007011458278">
        <ele>22.25</ele>
        <time>2026-07-10T05:44:01Z</time>
      </trkpt>
      <trkpt lat="53.344918023794889" lon="-6.195954037830234">
        <ele>22.25</ele>
        <time>2026-07-10T05:44:02Z</time>
      </trkpt>
      <trkpt lat="53.344908971339464" lon="-6.195853035897017">
        <ele>22.25</ele>
        <time>2026-07-10T05:44:03Z</time>
      </trkpt>
      <trkpt lat="53.344880975782871" lon="-6.195545000955463">
        <ele>22.25</ele>
        <time>2026-07-10T05:44:06Z</time>
      </trkpt>
      <trkpt lat="53.344873012974858" lon="-6.195449028164148">
        <ele>22.25</ele>
        <time>2026-07-10T05:44:07Z</time>
      </trkpt>
      <trkpt lat="53.344839988276362" lon="-6.195076033473015">
        <ele>20.809999999999999</ele>
        <time>2026-07-10T05:44:16Z</time>
      </trkpt>
      <trkpt lat="53.318130970001221" lon="-4.621140025556088">
        <ele>13.6</ele>
        <time>2026-07-10T10:20:35Z</time>
      </trkpt>
      <trkpt lat="53.317925026640296" lon="-4.621387040242553">
        <ele>15.52</ele>
        <time>2026-07-10T10:20:43Z</time>
      </trkpt>
      <trkpt lat="53.317797034978867" lon="-4.621643023565412">
        <ele>16.960000000000001</ele>
        <time>2026-07-10T10:20:57Z</time>
      </trkpt>
      <trkpt lat="53.317706007510424" lon="-4.621906969696283">
        <ele>16.960000000000001</ele>
        <time>2026-07-10T10:21:12Z</time>
      </trkpt>
      <trkpt lat="53.31761003471911" lon="-4.622296979650855">
        <ele>17.440000000000001</ele>
        <time>2026-07-10T10:21:27Z</time>
      </trkpt>
      <trkpt lat="53.317500986158848" lon="-4.622743986546993">
        <ele>16.960000000000001</ele>
        <time>2026-07-10T10:21:37Z</time>
      </trkpt>
      <trkpt lat="53.317409036681056" lon="-4.623198034241796">
        <ele>14.56</ele>
        <time>2026-07-10T10:21:49Z</time>
      </trkpt>
      <trkpt lat="53.31735203973949" lon="-4.623966990038753">
        <ele>15.52</ele>
        <time>2026-07-10T10:22:01Z</time>
      </trkpt>
      <trkpt lat="53.317300993949175" lon="-4.624405028298497">
        <ele>16.48</ele>
        <time>2026-07-10T10:22:10Z</time>
      </trkpt>
      <trkpt lat="53.317076023668051" lon="-4.62466998025775">
        <ele>15.039999999999999</ele>
        <time>2026-07-10T10:22:19Z</time>
      </trkpt>
      <trkpt lat="53.316671010106802" lon="-4.624827979132533">
        <ele>15.52</ele>
        <time>2026-07-10T10:22:32Z</time>
      </trkpt>
      <trkpt lat="53.316417038440704" lon="-4.62492797523737">
        <ele>17.440000000000001</ele>
        <time>2026-07-10T10:22:42Z</time>
      </trkpt>
      <trkpt lat="53.316231966018677" lon="-4.624999975785613">
        <ele>17.920000000000002</ele>
        <time>2026-07-10T10:22:51Z</time>
      </trkpt>
      <trkpt lat="53.31574397161603" lon="-4.625189993530512">
        <ele>16.960000000000001</ele>
        <time>2026-07-10T10:23:02Z</time>
      </trkpt>
      <trkpt lat="53.315208032727242" lon="-4.625390991568565">
        <ele>16</ele>
        <time>2026-07-10T10:23:13Z</time>
      </trkpt>
      <trkpt lat="53.314933022484183" lon="-4.625397026538849">
        <ele>15.039999999999999</ele>
        <time>2026-07-10T10:23:21Z</time>
      </trkpt>
      <trkpt lat="53.314912989735603" lon="-4.625566005706787">
        <ele>15.52</ele>
        <time>2026-07-10T10:23:23Z</time>
      </trkpt>
      <trkpt lat="53.314816011115909" lon="-4.625939000397921">
        <ele>13.119999999999999</ele>
        <time>2026-07-10T10:23:34Z</time>
      </trkpt>
      <trkpt lat="53.314631022512913" lon="-4.626654982566834">
        <ele>11.67</ele>
        <time>2026-07-10T10:23:48Z</time>
      </trkpt>
      <trkpt lat="53.314439998939633" lon="-4.627174995839596">
        <ele>14.08</ele>
        <time>2026-07-10T10:23:59Z</time>
      </trkpt>
      <trkpt lat="53.314200025051832" lon="-4.627757035195828">
        <ele>13.119999999999999</ele>
        <time>2026-07-10T10:24:11Z</time>
      </trkpt>
      <trkpt lat="53.313863994553685" lon="-4.628567984327674">
        <ele>13.119999999999999</ele>
        <time>2026-07-10T10:24:19Z</time>
      </trkpt>
      <trkpt lat="53.313671965152025" lon="-4.628937039524317">
        <ele>13.119999999999999</ele>
        <time>2026-07-10T10:24:22Z</time>
      </trkpt>
      <trkpt lat="53.312907032668591" lon="-4.630089970305562">
        <ele>14.56</ele>
        <time>2026-07-10T10:24:32Z</time>
      </trkpt>
      <trkpt lat="53.312572007998824" lon="-4.630481991916895">
        <ele>14.08</ele>
        <time>2026-07-10T10:24:36Z</time>
      </trkpt>
      <trkpt lat="53.312466982752085" lon="-4.630563966929913">
        <ele>14.08</ele>
        <time>2026-07-10T10:24:37Z</time>
      </trkpt>
      <trkpt lat="53.312362963333726" lon="-4.6305560041219">
        <ele>14.08</ele>
        <time>2026-07-10T10:24:38Z</time>
      </trkpt>
      <trkpt lat="53.312070015817881" lon="-4.63053303770721">
        <ele>14.08</ele>
        <time>2026-07-10T10:24:41Z</time>
      </trkpt>
      <trkpt lat="53.311982005834579" lon="-4.630524991080165">
        <ele>14.08</ele>
        <time>2026-07-10T10:24:42Z</time>
      </trkpt>
      <trkpt lat="53.311896007508039" lon="-4.630568996071816">
        <ele>14.08</ele>
        <time>2026-07-10T10:24:43Z</time>
      </trkpt>
      <trkpt lat="53.311814032495022" lon="-4.630637979134917">
        <ele>14.56</ele>
        <time>2026-07-10T10:24:44Z</time>
      </trkpt>
      <trkpt lat="53.311729962006211" lon="-4.630706962198019">
        <ele>14.08</ele>
        <time>2026-07-10T10:24:45Z</time>
      </trkpt>
      <trkpt lat="53.31075900234282" lon="-4.631497962400317">
        <ele>15.039999999999999</ele>
        <time>2026-07-10T10:24:56Z</time>
      </trkpt>
      <trkpt lat="53.310660012066364" lon="-4.631553031504154">
        <ele>15.039999999999999</ele>
        <time>2026-07-10T10:24:57Z</time>
      </trkpt>
      <trkpt lat="53.310556998476386" lon="-4.631573986262083">
        <ele>15.52</ele>
        <time>2026-07-10T10:24:58Z</time>
      </trkpt>
      <trkpt lat="53.310464965179563" lon="-4.631573986262083">
        <ele>15.52</ele>
        <time>2026-07-10T10:24:59Z</time>
      </trkpt>
      <trkpt lat="53.310377961024642" lon="-4.631573986262083">
        <ele>15.52</ele>
        <time>2026-07-10T10:25:00Z</time>
      </trkpt>
      <trkpt lat="53.310292968526483" lon="-4.631559988483787">
        <ele>15.52</ele>
        <time>2026-07-10T10:25:01Z</time>
      </trkpt>
      <trkpt lat="53.31022197380662" lon="-4.631525035947561">
        <ele>15.039999999999999</ele>
        <time>2026-07-10T10:25:02Z</time>
      </trkpt>
      <trkpt lat="53.310155002400279" lon="-4.631491005420685">
        <ele>15.039999999999999</ele>
        <time>2026-07-10T10:25:03Z</time>
      </trkpt>
      <trkpt lat="53.310054000467062" lon="-4.631405007094145">
        <ele>15.039999999999999</ele>
        <time>2026-07-10T10:25:04Z</time>
      </trkpt>
      <trkpt lat="53.310029022395611" lon="-4.631275003775954">
        <ele>15.039999999999999</ele>
        <time>2026-07-10T10:25:05Z</time>
      </trkpt>
      <trkpt lat="53.31000798381865" lon="-4.631143994629383">
        <ele>15.039999999999999</ele>
        <time>2026-07-10T10:25:06Z</time>
      </trkpt>
      <trkpt lat="53.309986023232341" lon="-4.631002005189657">
        <ele>15.039999999999999</ele>
        <time>2026-07-10T10:25:07Z</time>
      </trkpt>
      <trkpt lat="53.309888960793614" lon="-4.629291007295251">
        <ele>14.08</ele>
        <time>2026-07-10T10:25:18Z</time>
      </trkpt>
      <trkpt lat="53.309884015470743" lon="-4.628506964072585">
        <ele>13.6</ele>
        <time>2026-07-10T10:25:25Z</time>
      </trkpt>
      <trkpt lat="53.309888960793614" lon="-4.628399005159736">
        <ele>13.6</ele>
        <time>2026-07-10T10:25:26Z</time>
      </trkpt>
      <trkpt lat="53.309901030734181" lon="-4.628305966034532">
        <ele>13.6</ele>
        <time>2026-07-10T10:25:27Z</time>
      </trkpt>
      <trkpt lat="53.309934977442026" lon="-4.628204964101315">
        <ele>13.6</ele>
        <time>2026-07-10T10:25:28Z</time>
      </trkpt>
      <trkpt lat="53.30998401157558" lon="-4.628154002130032">
        <ele>13.6</ele>
        <time>2026-07-10T10:25:29Z</time>
      </trkpt>
      <trkpt lat="53.310046037659049" lon="-4.628087030723691">
        <ele>13.119999999999999</ele>
        <time>2026-07-10T10:25:30Z</time>
      </trkpt>
      <trkpt lat="53.310120971873403" lon="-4.628008995205164">
        <ele>13.119999999999999</ele>
        <time>2026-07-10T10:25:31Z</time>
      </trkpt>
      <trkpt lat="53.310786997899413" lon="-4.627449000254273">
        <ele>13.6</ele>
        <time>2026-07-10T10:25:38Z</time>
      </trkpt>
      <trkpt lat="53.311154041439295" lon="-4.627054966986179">
        <ele>15.52</ele>
        <time>2026-07-10T10:25:45Z</time>
      </trkpt>
      <trkpt lat="53.311254037544131" lon="-4.626957988366485">
        <ele>16.960000000000001</ele>
        <time>2026-07-10T10:25:49Z</time>
      </trkpt>
      <trkpt lat="53.311311034485698" lon="-4.62690400891006">
        <ele>16.960000000000001</ele>
        <time>2026-07-10T10:25:50Z</time>
      </trkpt>
      <trkpt lat="53.311601970344782" lon="-4.626583987846971">
        <ele>16.960000000000001</ele>
        <time>2026-07-10T10:25:54Z</time>
      </trkpt>
      <trkpt lat="53.311628960072994" lon="-4.626486003398895">
        <ele>16.48</ele>
        <time>2026-07-10T10:25:55Z</time>
      </trkpt>
      <trkpt lat="53.311651004478335" lon="-4.626403022557497">
        <ele>16</ele>
        <time>2026-07-10T10:25:56Z</time>
      </trkpt>
      <trkpt lat="53.311615968123078" lon="-4.626305038109422">
        <ele>15.52</ele>
        <time>2026-07-10T10:25:57Z</time>
      </trkpt>
      <trkpt lat="53.311582021415234" lon="-4.626209987327457">
        <ele>15.039999999999999</ele>
        <time>2026-07-10T10:25:58Z</time>
      </trkpt>
      <trkpt lat="53.311542039737105" lon="-4.626096999272704">
        <ele>15.039999999999999</ele>
        <time>2026-07-10T10:25:59Z</time>
      </trkpt>
      <trkpt lat="53.311496023088694" lon="-4.625971019268036">
        <ele>15.039999999999999</ele>
        <time>2026-07-10T10:26:00Z</time>
      </trkpt>
      <trkpt lat="53.311450006440282" lon="-4.625841015949845">
        <ele>14.56</ele>
        <time>2026-07-10T10:26:01Z</time>
      </trkpt>
      <trkpt lat="53.311361996456981" lon="-4.625595007091761">
        <ele>14.08</ele>
        <time>2026-07-10T10:26:03Z</time>
      </trkpt>
      <trkpt lat="53.311285972595215" lon="-4.625529041513801">
        <ele>13.6</ele>
        <time>2026-07-10T10:26:04Z</time>
      </trkpt>
      <trkpt lat="53.311212966218591" lon="-4.62548797018826">
        <ele>13.6</ele>
        <time>2026-07-10T10:26:05Z</time>
      </trkpt>
      <trkpt lat="53.311127973720431" lon="-4.625495010986924">
        <ele>13.6</ele>
        <time>2026-07-10T10:26:06Z</time>
      </trkpt>
      <trkpt lat="53.311044992879033" lon="-4.625511020421982">
        <ele>13.119999999999999</ele>
        <time>2026-07-10T10:26:07Z</time>
      </trkpt>
      <trkpt lat="53.31095295958221" lon="-4.62554999627173">
        <ele>13.119999999999999</ele>
        <time>2026-07-10T10:26:08Z</time>
      </trkpt>
      <trkpt lat="53.310872996225953" lon="-4.62561596184969">
        <ele>13.119999999999999</ele>
        <time>2026-07-10T10:26:09Z</time>
      </trkpt>
      <trkpt lat="53.310792027041316" lon="-4.625683017075062">
        <ele>13.119999999999999</ele>
        <time>2026-07-10T10:26:10Z</time>
      </trkpt>
      <trkpt lat="53.309958027675748" lon="-4.626483991742134">
        <ele>15.039999999999999</ele>
        <time>2026-07-10T10:26:21Z</time>
      </trkpt>
      <trkpt lat="53.309817966073751" lon="-4.626585999503732">
        <ele>15.039999999999999</ele>
        <time>2026-07-10T10:26:24Z</time>
      </trkpt>
      <trkpt lat="53.309783013537526" lon="-4.626611983403564">
        <ele>15.039999999999999</ele>
        <time>2026-07-10T10:26:25Z</time>
      </trkpt>
      <trkpt lat="53.309752000495791" lon="-4.626635033637285">
        <ele>15.039999999999999</ele>
        <time>2026-07-10T10:26:26Z</time>
      </trkpt>
      <trkpt lat="53.309724004939198" lon="-4.626654982566834">
        <ele>14.56</ele>
        <time>2026-07-10T10:26:27Z</time>
      </trkpt>
      <trkpt lat="53.309701038524508" lon="-4.626671997830272">
        <ele>14.56</ele>
        <time>2026-07-10T10:26:28Z</time>
      </trkpt>
      <trkpt lat="53.309701038524508" lon="-4.626671997830272">
        <ele>13.6</ele>
        <time>2026-07-10T10:26:40Z</time>
      </trkpt>
      <trkpt lat="53.309513032436371" lon="-4.626819016411901">
        <ele>15.52</ele>
        <time>2026-07-10T10:26:56Z</time>
      </trkpt>
      <trkpt lat="53.309500962495804" lon="-4.626829996705055">
        <ele>16</ele>
        <time>2026-07-10T10:27:14Z</time>
      </trkpt>
      <trkpt lat="53.309500962495804" lon="-4.626829996705055">
        <ele>15.52</ele>
        <time>2026-07-10T10:28:09Z</time>
      </trkpt>
      <trkpt lat="53.309500962495804" lon="-4.626829996705055">
        <ele>15.52</ele>
        <time>2026-07-10T10:28:11Z</time>
      </trkpt>
      <trkpt lat="53.309391997754574" lon="-4.626929992809892">
        <ele>14.56</ele>
        <time>2026-07-10T10:28:28Z</time>
      </trkpt>
      <trkpt lat="53.309169039130211" lon="-4.627131996676326">
        <ele>13.119999999999999</ele>
        <time>2026-07-10T10:28:44Z</time>
      </trkpt>
      <trkpt lat="53.308963011950254" lon="-4.627320002764463">
        <ele>13.119999999999999</ele>
        <time>2026-07-10T10:28:48Z</time>
      </trkpt>
      <trkpt lat="53.30891297198832" lon="-4.627365013584495">
        <ele>13.6</ele>
        <time>2026-07-10T10:28:49Z</time>
      </trkpt>
      <trkpt lat="53.308637961745262" lon="-4.62761496193707">
        <ele>16</ele>
        <time>2026-07-10T10:28:58Z</time>
      </trkpt>
      <trkpt lat="53.308506030589342" lon="-4.627751000225544">
        <ele>16.48</ele>
        <time>2026-07-10T10:29:05Z</time>
      </trkpt>
      <trkpt lat="53.308506030589342" lon="-4.627751000225544">
        <ele>16</ele>
        <time>2026-07-10T10:29:22Z</time>
      </trkpt>
      <trkpt lat="53.308303020894527" lon="-4.627962978556752">
        <ele>18.399999999999999</ele>
        <time>2026-07-10T10:29:39Z</time>
      </trkpt>
      <trkpt lat="53.308022981509566" lon="-4.628330022096634">
        <ele>19.359999999999999</ele>
        <time>2026-07-10T10:29:53Z</time>
      </trkpt>
      <trkpt lat="53.307904964312911" lon="-4.628533031791449">
        <ele>18.399999999999999</ele>
        <time>2026-07-10T10:30:08Z</time>
      </trkpt>
      <trkpt lat="53.307904964312911" lon="-4.628533031791449">
        <ele>19.84</ele>
        <time>2026-07-10T10:30:37Z</time>
      </trkpt>
      <trkpt lat="53.307734979316592" lon="-4.62896604090929">
        <ele>19.359999999999999</ele>
        <time>2026-07-10T10:30:53Z</time>
      </trkpt>
      <trkpt lat="53.307593995705247" lon="-4.629472978413105">
        <ele>17.920000000000002</ele>
        <time>2026-07-10T10:31:03Z</time>
      </trkpt>
      <trkpt lat="53.307581003755331" lon="-4.629551013931632">
        <ele>17.920000000000002</ele>
        <time>2026-07-10T10:31:12Z</time>
      </trkpt>
      <trkpt lat="53.307581003755331" lon="-4.629551013931632">
        <ele>18.399999999999999</ele>
        <time>2026-07-10T10:31:27Z</time>
      </trkpt>
      <trkpt lat="53.307550996541977" lon="-4.629725022241473">
        <ele>16</ele>
        <time>2026-07-10T10:32:00Z</time>
      </trkpt>
      <trkpt lat="53.307424010708928" lon="-4.630050994455814">
        <ele>15.52</ele>
        <time>2026-07-10T10:32:14Z</time>
      </trkpt>
      <trkpt lat="53.307109018787742" lon="-4.63034201413393">
        <ele>14.56</ele>
        <time>2026-07-10T10:32:27Z</time>
      </trkpt>
      <trkpt lat="53.306748010218143" lon="-4.630128024145961">
        <ele>14.08</ele>
        <time>2026-07-10T10:32:38Z</time>
      </trkpt>
      <trkpt lat="53.306556986644864" lon="-4.629995003342629">
        <ele>14.56</ele>
        <time>2026-07-10T10:32:43Z</time>
      </trkpt>
      <trkpt lat="53.306543994694948" lon="-4.629986034706235">
        <ele>15.039999999999999</ele>
        <time>2026-07-10T10:32:44Z</time>
      </trkpt>
      <trkpt lat="53.306475011631846" lon="-4.629917973652482">
        <ele>16</ele>
        <time>2026-07-10T10:32:51Z</time>
      </trkpt>
      <trkpt lat="53.306453973054886" lon="-4.629896013066173">
        <ele>16</ele>
        <time>2026-07-10T10:33:14Z</time>
      </trkpt>
      <trkpt lat="53.306430000811815" lon="-4.629948986694217">
        <ele>16.960000000000001</ele>
        <time>2026-07-10T10:33:19Z</time>
      </trkpt>
      <trkpt lat="53.306425977498293" lon="-4.629989974200726">
        <ele>17.440000000000001</ele>
        <time>2026-07-10T10:33:20Z</time>
      </trkpt>
      <trkpt lat="53.306422038003802" lon="-4.630022998899221">
        <ele>17.920000000000002</ele>
        <time>2026-07-10T10:33:25Z</time>
      </trkpt>
      <trkpt lat="53.306414997205138" lon="-4.630090976133943">
        <ele>17.920000000000002</ele>
        <time>2026-07-10T10:33:26Z</time>
      </trkpt>
      <trkpt lat="53.306411979719996" lon="-4.630116960033774">
        <ele>17.920000000000002</ele>
        <time>2026-07-10T10:33:27Z</time>
      </trkpt>
      <trkpt lat="53.306411979719996" lon="-4.630116960033774">
        <ele>18.399999999999999</ele>
        <time>2026-07-10T10:33:41Z</time>
      </trkpt>
      <trkpt lat="53.306410973891616" lon="-4.630129029974341">
        <ele>18.399999999999999</ele>
        <time>2026-07-10T10:33:42Z</time>
      </trkpt>
      <trkpt lat="53.306407034397125" lon="-4.630166999995709">
        <ele>18.399999999999999</ele>
        <time>2026-07-10T10:33:43Z</time>
      </trkpt>
      <trkpt lat="53.306399993598461" lon="-4.630230031907558">
        <ele>18.399999999999999</ele>
        <time>2026-07-10T10:33:44Z</time>
      </trkpt>
      <trkpt lat="53.306391024962068" lon="-4.630318963900209">
        <ele>18.879999999999999</ele>
        <time>2026-07-10T10:33:45Z</time>
      </trkpt>
      <trkpt lat="53.306380966678262" lon="-4.630409991368651">
        <ele>18.879999999999999</ele>
        <time>2026-07-10T10:33:46Z</time>
      </trkpt>
      <trkpt lat="53.306309971958399" lon="-4.63122102431953">
        <ele>18.879999999999999</ele>
        <time>2026-07-10T10:33:54Z</time>
      </trkpt>
      <trkpt lat="53.306304020807147" lon="-4.631297970190644">
        <ele>18.399999999999999</ele>
        <time>2026-07-10T10:34:03Z</time>
      </trkpt>
      <trkpt lat="53.306291028857231" lon="-4.631530987098813">
        <ele>17.920000000000002</ele>
        <time>2026-07-10T10:34:18Z</time>
      </trkpt>
      <trkpt lat="53.306284993886948" lon="-4.631615979596973">
        <ele>17.920000000000002</ele>
        <time>2026-07-10T10:34:19Z</time>
      </trkpt>
      <trkpt lat="53.306186003610492" lon="-4.631753023713827">
        <ele>17.440000000000001</ele>
        <time>2026-07-10T10:34:20Z</time>
      </trkpt>
      <trkpt lat="53.306136969476938" lon="-4.631718993186951">
        <ele>16.960000000000001</ele>
        <time>2026-07-10T10:34:21Z</time>
      </trkpt>
      <trkpt lat="53.306076033040881" lon="-4.6316749881953">
        <ele>16.48</ele>
        <time>2026-07-10T10:34:22Z</time>
      </trkpt>
      <trkpt lat="53.306003026664257" lon="-4.631623020395637">
        <ele>16</ele>
        <time>2026-07-10T10:34:23Z</time>
      </trkpt>
      <trkpt lat="53.305914010852575" lon="-4.631558982655406">
        <ele>15.52</ele>
        <time>2026-07-10T10:34:24Z</time>
      </trkpt>
      <trkpt lat="53.305003987625241" lon="-4.630603026598692">
        <ele>12.630000000000001</ele>
        <time>2026-07-10T10:34:32Z</time>
      </trkpt>
      <trkpt lat="53.304857974871993" lon="-4.630400016903877">
        <ele>13.119999999999999</ele>
        <time>2026-07-10T10:34:34Z</time>
      </trkpt>
      <trkpt lat="53.304857974871993" lon="-4.630400016903877">
        <ele>13.119999999999999</ele>
        <time>2026-07-10T10:34:39Z</time>
      </trkpt>
      <trkpt lat="53.304637027904391" lon="-4.629960972815752">
        <ele>13.6</ele>
        <time>2026-07-10T10:34:47Z</time>
      </trkpt>
      <trkpt lat="53.304612971842289" lon="-4.629878997802734">
        <ele>13.6</ele>
        <time>2026-07-10T10:34:48Z</time>
      </trkpt>
      <trkpt lat="53.304529991000891" lon="-4.629818983376026">
        <ele>13.6</ele>
        <time>2026-07-10T10:34:49Z</time>
      </trkpt>
      <trkpt lat="53.304436029866338" lon="-4.629763998091221">
        <ele>13.6</ele>
        <time>2026-07-10T10:34:50Z</time>
      </trkpt>
      <trkpt lat="53.304323963820934" lon="-4.629731979221106">
        <ele>13.119999999999999</ele>
        <time>2026-07-10T10:34:51Z</time>
      </trkpt>
      <trkpt lat="53.304214999079704" lon="-4.629642041400075">
        <ele>12.630000000000001</ele>
        <time>2026-07-10T10:34:52Z</time>
      </trkpt>
      <trkpt lat="53.304104022681713" lon="-4.629536010324955">
        <ele>12.630000000000001</ele>
        <time>2026-07-10T10:34:53Z</time>
      </trkpt>
      <trkpt lat="53.304006960242987" lon="-4.629400977864862">
        <ele>12.15</ele>
        <time>2026-07-10T10:34:54Z</time>
      </trkpt>
      <trkpt lat="53.302667029201984" lon="-4.627546984702349">
        <ele>14.08</ele>
        <time>2026-07-10T10:35:06Z</time>
      </trkpt>
      <trkpt lat="53.301303964108229" lon="-4.625504985451698">
        <ele>13.119999999999999</ele>
        <time>2026-07-10T10:35:16Z</time>
      </trkpt>
      <trkpt lat="53.299726992845535" lon="-4.62340003810823">
        <ele>13.119999999999999</ele>
        <time>2026-07-10T10:35:27Z</time>
      </trkpt>
      <trkpt lat="53.298604991286993" lon="-4.62146800942719">
        <ele>12.15</ele>
        <time>2026-07-10T10:35:35Z</time>
      </trkpt>
      <trkpt lat="53.297564964741468" lon="-4.618979003280401">
        <ele>11.67</ele>
        <time>2026-07-10T10:35:44Z</time>
      </trkpt>
      <trkpt lat="53.296489985659719" lon="-4.615428010001779">
        <ele>11.19</ele>
        <time>2026-07-10T10:35:56Z</time>
      </trkpt>
      <trkpt lat="53.295376030728221" lon="-4.611481977626681">
        <ele>10.23</ele>
        <time>2026-07-10T10:36:08Z</time>
      </trkpt>
      <trkpt lat="53.294442035257816" lon="-4.607409965246916">
        <ele>11.67</ele>
        <time>2026-07-10T10:36:18Z</time>
      </trkpt>
      <trkpt lat="53.293757988139987" lon="-4.602392977103591">
        <ele>13.119999999999999</ele>
        <time>2026-07-10T10:36:29Z</time>
      </trkpt>
      <trkpt lat="53.293016022071242" lon="-4.595562983304262">
        <ele>12.630000000000001</ele>
        <time>2026-07-10T10:36:44Z</time>
      </trkpt>
      <trkpt lat="53.292364999651909" lon="-4.592026993632317">
        <ele>11.19</ele>
        <time>2026-07-10T10:36:52Z</time>
      </trkpt>
      <trkpt lat="53.29116496257484" lon="-4.587867977097631">
        <ele>7.83</ele>
        <time>2026-07-10T10:37:02Z</time>
      </trkpt>
      <trkpt lat="53.288975022733212" lon="-4.580957014113665">
        <ele>8.789999999999999</ele>
        <time>2026-07-10T10:37:19Z</time>
      </trkpt>
      <trkpt lat="53.287608018144965" lon="-4.577512973919511">
        <ele>10.710000000000001</ele>
        <time>2026-07-10T10:37:28Z</time>
      </trkpt>
      <trkpt lat="53.286087037995458" lon="-4.575560996308923">
        <ele>12.630000000000001</ele>
        <time>2026-07-10T10:37:35Z</time>
      </trkpt>
      <trkpt lat="53.284278977662325" lon="-4.574379986152053">
        <ele>12.15</ele>
        <time>2026-07-10T10:37:42Z</time>
      </trkpt>
      <trkpt lat="53.282188028097153" lon="-4.573135022073984">
        <ele>11.67</ele>
        <time>2026-07-10T10:37:50Z</time>
      </trkpt>
      <trkpt lat="53.280346021056175" lon="-4.571147002279759">
        <ele>11.19</ele>
        <time>2026-07-10T10:37:58Z</time>
      </trkpt>
      <trkpt lat="53.278996031731367" lon="-4.568863017484546">
        <ele>11.67</ele>
        <time>2026-07-10T10:38:05Z</time>
      </trkpt>
      <trkpt lat="53.277845028787851" lon="-4.565747966989875">
        <ele>13.119999999999999</ele>
        <time>2026-07-10T10:38:13Z</time>
      </trkpt>
      <trkpt lat="53.277225019410253" lon="-4.562246007844806">
        <ele>17.920000000000002</ele>
        <time>2026-07-10T10:38:21Z</time>
      </trkpt>
      <trkpt lat="53.277061991393566" lon="-4.559038002043963">
        <ele>19.84</ele>
        <time>2026-07-10T10:38:28Z</time>
      </trkpt>
      <trkpt lat="53.277397016063333" lon="-4.55538097769022">
        <ele>17.920000000000002</ele>
        <time>2026-07-10T10:38:36Z</time>
      </trkpt>
      <trkpt lat="53.27822900377214" lon="-4.551983959972858">
        <ele>16</ele>
        <time>2026-07-10T10:38:44Z</time>
      </trkpt>
      <trkpt lat="53.27939098700881" lon="-4.548844015225768">
        <ele>16</ele>
        <time>2026-07-10T10:38:52Z</time>
      </trkpt>
      <trkpt lat="53.280360018834472" lon="-4.545556968078017">
        <ele>14.08</ele>
        <time>2026-07-10T10:39:00Z</time>
      </trkpt>
      <trkpt lat="53.280838038772345" lon="-4.541988037526608">
        <ele>15.039999999999999</ele>
        <time>2026-07-10T10:39:08Z</time>
      </trkpt>
      <trkpt lat="53.280800990760326" lon="-4.53832196071744">
        <ele>17.440000000000001</ele>
        <time>2026-07-10T10:39:16Z</time>
      </trkpt>
      <trkpt lat="53.280372004956007" lon="-4.533821968361735">
        <ele>23.690000000000001</ele>
        <time>2026-07-10T10:39:26Z</time>
      </trkpt>
      <trkpt lat="53.279498023912311" lon="-4.529444016516209">
        <ele>29.460000000000001</ele>
        <time>2026-07-10T10:39:36Z</time>
      </trkpt>
      <trkpt lat="53.277834970504045" lon="-4.523079972714186">
        <ele>26.09</ele>
        <time>2026-07-10T10:39:51Z</time>
      </trkpt>
      <trkpt lat="53.275959016755223" lon="-4.515857035294175">
        <ele>21.77</ele>
        <time>2026-07-10T10:40:08Z</time>
      </trkpt>
      <trkpt lat="53.275423999875784" lon="-4.513737000524998">
        <ele>22.25</ele>
        <time>2026-07-10T10:40:13Z</time>
      </trkpt>
      <trkpt lat="53.27481203712523" lon="-4.510230012238026">
        <ele>22.25</ele>
        <time>2026-07-10T10:40:21Z</time>
      </trkpt>
      <trkpt lat="53.274357989430428" lon="-4.505227021872997">
        <ele>23.690000000000001</ele>
        <time>2026-07-10T10:40:32Z</time>
      </trkpt>
      <trkpt lat="53.273485014215112" lon="-4.499439988285303">
        <ele>26.09</ele>
        <time>2026-07-10T10:40:45Z</time>
      </trkpt>
      <trkpt lat="53.272532997652888" lon="-4.494651993736625">
        <ele>28.98</ele>
        <time>2026-07-10T10:40:56Z</time>
      </trkpt>
      <trkpt lat="53.271337989717722" lon="-4.491519005969167">
        <ele>27.050000000000001</ele>
        <time>2026-07-10T10:41:04Z</time>
      </trkpt>
      <trkpt lat="53.269707038998604" lon="-4.488982977345586">
        <ele>19.359999999999999</ele>
        <time>2026-07-10T10:41:12Z</time>
      </trkpt>
      <trkpt lat="53.267252985388041" lon="-4.485341962426901">
        <ele>16.960000000000001</ele>
        <time>2026-07-10T10:41:24Z</time>
      </trkpt>
      <trkpt lat="53.265649024397135" lon="-4.481658032163978">
        <ele>24.170000000000002</ele>
        <time>2026-07-10T10:41:34Z</time>
      </trkpt>
      <trkpt lat="53.264616960659623" lon="-4.477850971743465">
        <ele>24.649999999999999</ele>
        <time>2026-07-10T10:41:43Z</time>
      </trkpt>
      <trkpt lat="53.264025030657649" lon="-4.473827993497253">
        <ele>24.170000000000002</ele>
        <time>2026-07-10T10:41:52Z</time>
      </trkpt>
      <trkpt lat="53.263435028493404" lon="-4.467473002150655">
        <ele>27.050000000000001</ele>
        <time>2026-07-10T10:42:06Z</time>
      </trkpt>
      <trkpt lat="53.262573033571243" lon="-4.460263978689909">
        <ele>29.460000000000001</ele>
        <time>2026-07-10T10:42:22Z</time>
      </trkpt>
      <trkpt lat="53.261749008670449" lon="-4.454907020553947">
        <ele>30.899999999999999</ele>
        <time>2026-07-10T10:42:34Z</time>
      </trkpt>
      <trkpt lat="53.261168980970979" lon="-4.452350959181786">
        <ele>29.940000000000001</ele>
        <time>2026-07-10T10:42:40Z</time>
      </trkpt>
      <trkpt lat="53.259897027164698" lon="-4.448768030852079">
        <ele>30.899999999999999</ele>
        <time>2026-07-10T10:42:49Z</time>
      </trkpt>
      <trkpt lat="53.257766012102365" lon="-4.443387016654015">
        <ele>34.740000000000002</ele>
        <time>2026-07-10T10:43:03Z</time>
      </trkpt>
      <trkpt lat="53.256289036944509" lon="-4.438455021008849">
        <ele>41.469999999999999</ele>
        <time>2026-07-10T10:43:15Z</time>
      </trkpt>
      <trkpt lat="53.25470301322639" lon="-4.4331060256809">
        <ele>45.799999999999997</ele>
        <time>2026-07-10T10:43:28Z</time>
      </trkpt>
      <trkpt lat="53.253180021420121" lon="-4.428757997229695">
        <ele>52.530000000000001</ele>
        <time>2026-07-10T10:43:39Z</time>
      </trkpt>
      <trkpt lat="53.252067994326353" lon="-4.424056001007557">
        <ele>59.740000000000002</ele>
        <time>2026-07-10T10:43:50Z</time>
      </trkpt>
      <trkpt lat="53.251468017697334" lon="-4.419581992551684">
        <ele>66.469999999999999</ele>
        <time>2026-07-10T10:44:00Z</time>
      </trkpt>
      <trkpt lat="53.251251010224223" lon="-4.415465975180268">
        <ele>72.239999999999995</ele>
        <time>2026-07-10T10:44:09Z</time>
      </trkpt>
      <trkpt lat="53.250950016081333" lon="-4.411354986950755">
        <ele>77.519999999999996</ele>
        <time>2026-07-10T10:44:18Z</time>
      </trkpt>
      <trkpt lat="53.250261023640633" lon="-4.406421985477209">
        <ele>81.370000000000005</ele>
        <time>2026-07-10T10:44:29Z</time>
      </trkpt>
      <trkpt lat="53.249124018475413" lon="-4.401188995689154">
        <ele>78.969999999999999</ele>
        <time>2026-07-10T10:44:41Z</time>
      </trkpt>
      <trkpt lat="53.247285028919578" lon="-4.394446006044745">
        <ele>68.870000000000005</ele>
        <time>2026-07-10T10:44:57Z</time>
      </trkpt>
      <trkpt lat="53.24510196223855" lon="-4.386498034000397">
        <ele>60.219999999999999</ele>
        <time>2026-07-10T10:45:16Z</time>
      </trkpt>
      <trkpt lat="53.243246041238308" lon="-4.379317006096244">
        <ele>57.82</ele>
        <time>2026-07-10T10:45:33Z</time>
      </trkpt>
      <trkpt lat="53.242309028282762" lon="-4.373541958630085">
        <ele>53.490000000000002</ele>
        <time>2026-07-10T10:45:46Z</time>
      </trkpt>
      <trkpt lat="53.24177099391818" lon="-4.367180010303855">
        <ele>51.090000000000003</ele>
        <time>2026-07-10T10:46:00Z</time>
      </trkpt>
      <trkpt lat="53.241148972883821" lon="-4.358527036383748">
        <ele>61.659999999999997</ele>
        <time>2026-07-10T10:46:19Z</time>
      </trkpt>
      <trkpt lat="53.240712024271488" lon="-4.351723026484251">
        <ele>76.079999999999998</ele>
        <time>2026-07-10T10:46:34Z</time>
      </trkpt>
      <trkpt lat="53.240905981510878" lon="-4.348038006573916">
        <ele>82.329999999999998</ele>
        <time>2026-07-10T10:46:42Z</time>
      </trkpt>
      <trkpt lat="53.241665968671441" lon="-4.344060039147735">
        <ele>86.180000000000007</ele>
        <time>2026-07-10T10:46:51Z</time>
      </trkpt>
      <trkpt lat="53.242271980270743" lon="-4.339976040646434">
        <ele>74.640000000000001</ele>
        <time>2026-07-10T10:47:00Z</time>
      </trkpt>
      <trkpt lat="53.24224398471415" lon="-4.336318010464311">
        <ele>66.469999999999999</ele>
        <time>2026-07-10T10:47:08Z</time>
      </trkpt>
      <trkpt lat="53.24181399308145" lon="-4.333182005211711">
        <ele>57.340000000000003</ele>
        <time>2026-07-10T10:47:15Z</time>
      </trkpt>
      <trkpt lat="53.240771032869816" lon="-4.3293990008533">
        <ele>44.359999999999999</ele>
        <time>2026-07-10T10:47:24Z</time>
      </trkpt>
      <trkpt lat="53.23906296864152" lon="-4.325175024569035">
        <ele>28.98</ele>
        <time>2026-07-10T10:47:35Z</time>
      </trkpt>
      <trkpt lat="53.237460013478994" lon="-4.321438036859036">
        <ele>18.399999999999999</ele>
        <time>2026-07-10T10:47:45Z</time>
      </trkpt>
      <trkpt lat="53.235880024731159" lon="-4.316635960713029">
        <ele>9.27</ele>
        <time>2026-07-10T10:47:57Z</time>
      </trkpt>
      <trkpt lat="53.234662972390652" lon="-4.312323974445462">
        <ele>7.35</ele>
        <time>2026-07-10T10:48:08Z</time>
      </trkpt>
      <trkpt lat="53.233310971409082" lon="-4.307533968240023">
        <ele>10.710000000000001</ele>
        <time>2026-07-10T10:48:20Z</time>
      </trkpt>
      <trkpt lat="53.231447003781796" lon="-4.300935985520482">
        <ele>10.710000000000001</ele>
        <time>2026-07-10T10:48:36Z</time>
      </trkpt>
      <trkpt lat="53.230292983353138" lon="-4.29579402320087">
        <ele>13.6</ele>
        <time>2026-07-10T10:48:48Z</time>
      </trkpt>
      <trkpt lat="53.229068974032998" lon="-4.290260039269924">
        <ele>32.82</ele>
        <time>2026-07-10T10:49:01Z</time>
      </trkpt>
      <trkpt lat="53.227778999134898" lon="-4.28395701572299">
        <ele>53.490000000000002</ele>
        <time>2026-07-10T10:49:16Z</time>
      </trkpt>
      <trkpt lat="53.227382032200694" lon="-4.280465031042695">
        <ele>58.780000000000001</ele>
        <time>2026-07-10T10:49:25Z</time>
      </trkpt>
      <trkpt lat="53.227191008627415" lon="-4.276106022298336">
        <ele>61.659999999999997</ele>
        <time>2026-07-10T10:49:37Z</time>
      </trkpt>
      <trkpt lat="53.227069973945618" lon="-4.271251978352666">
        <ele>64.549999999999997</ele>
        <time>2026-07-10T10:49:49Z</time>
      </trkpt>
      <trkpt lat="53.226696979254484" lon="-4.265250032767654">
        <ele>72.239999999999995</ele>
        <time>2026-07-10T10:50:04Z</time>
      </trkpt>
      <trkpt lat="53.226669989526272" lon="-4.262092988938093">
        <ele>78.969999999999999</ele>
        <time>2026-07-10T10:50:14Z</time>
      </trkpt>
      <trkpt lat="53.226534035056829" lon="-4.260505959391594">
        <ele>82.810000000000002</ele>
        <time>2026-07-10T10:50:22Z</time>
      </trkpt>
      <trkpt lat="53.226524982601404" lon="-4.26041099242866">
        <ele>82.810000000000002</ele>
        <time>2026-07-10T10:50:23Z</time>
      </trkpt>
      <trkpt lat="53.226519031450152" lon="-4.260348966345191">
        <ele>82.810000000000002</ele>
        <time>2026-07-10T10:50:24Z</time>
      </trkpt>
      <trkpt lat="53.22651500813663" lon="-4.260304039344192">
        <ele>82.810000000000002</ele>
        <time>2026-07-10T10:50:25Z</time>
      </trkpt>
      <trkpt lat="53.226458011195064" lon="-4.26023899577558">
        <ele>83.290000000000006</ele>
        <time>2026-07-10T10:50:26Z</time>
      </trkpt>
      <trkpt lat="53.226432027295232" lon="-4.260244024917483">
        <ele>83.290000000000006</ele>
        <time>2026-07-10T10:50:27Z</time>
      </trkpt>
      <trkpt lat="53.226390033960342" lon="-4.260253999382258">
        <ele>83.290000000000006</ele>
        <time>2026-07-10T10:50:28Z</time>
      </trkpt>
      <trkpt lat="53.226329013705254" lon="-4.260266991332173">
        <ele>83.290000000000006</ele>
        <time>2026-07-10T10:50:29Z</time>
      </trkpt>
      <trkpt lat="53.22625701315701" lon="-4.26030202768743">
        <ele>83.290000000000006</ele>
        <time>2026-07-10T10:50:30Z</time>
      </trkpt>
      <trkpt lat="53.226173026487231" lon="-4.26034796051681">
        <ele>83.290000000000006</ele>
        <time>2026-07-10T10:50:31Z</time>
      </trkpt>
      <trkpt lat="53.225063011050224" lon="-4.260831009596586">
        <ele>80.409999999999997</ele>
        <time>2026-07-10T10:50:41Z</time>
      </trkpt>
      <trkpt lat="53.224131027236581" lon="-4.261286985129118">
        <ele>76.079999999999998</ele>
        <time>2026-07-10T10:50:49Z</time>
      </trkpt>
      <trkpt lat="53.224079981446266" lon="-4.26131296902895">
        <ele>75.599999999999994</ele>
        <time>2026-07-10T10:50:50Z</time>
      </trkpt>
      <trkpt lat="53.223954001441598" lon="-4.261128986254334">
        <ele>74.640000000000001</ele>
        <time>2026-07-10T10:50:52Z</time>
      </trkpt>
      <trkpt lat="53.223911002278328" lon="-4.261128986254334">
        <ele>74.640000000000001</ele>
        <time>2026-07-10T10:50:53Z</time>
      </trkpt>
      <trkpt lat="53.223241958767176" lon="-4.261317998170853">
        <ele>69.829999999999998</ele>
        <time>2026-07-10T10:51:00Z</time>
      </trkpt>
      <trkpt lat="53.22305403649807" lon="-4.261337025091052">
        <ele>68.870000000000005</ele>
        <time>2026-07-10T10:51:02Z</time>
      </trkpt>
      <trkpt lat="53.222955968230963" lon="-4.261326966807246">
        <ele>67.909999999999997</ele>
        <time>2026-07-10T10:51:03Z</time>
      </trkpt>
      <trkpt lat="53.222864018753171" lon="-4.261278016492724">
        <ele>67.430000000000007</ele>
        <time>2026-07-10T10:51:04Z</time>
      </trkpt>
      <trkpt lat="53.222768967971206" lon="-4.26122797653079">
        <ele>66.950000000000003</ele>
        <time>2026-07-10T10:51:05Z</time>
      </trkpt>
      <trkpt lat="53.222674001008272" lon="-4.261178020387888">
        <ele>66.469999999999999</ele>
        <time>2026-07-10T10:51:06Z</time>
      </trkpt>
      <trkpt lat="53.222565958276391" lon="-4.261109959334135">
        <ele>66.469999999999999</ele>
        <time>2026-07-10T10:51:07Z</time>
      </trkpt>
      <trkpt lat="53.222487000748515" lon="-4.261004012078047">
        <ele>65.989999999999995</ele>
        <time>2026-07-10T10:51:08Z</time>
      </trkpt>
      <trkpt lat="53.22241298854351" lon="-4.260807037353516">
        <ele>65.989999999999995</ele>
        <time>2026-07-10T10:51:09Z</time>
      </trkpt>
      <trkpt lat="53.22236898355186" lon="-4.260637974366546">
        <ele>65.510000000000005</ele>
        <time>2026-07-10T10:51:10Z</time>
      </trkpt>
      <trkpt lat="53.222321961075068" lon="-4.260415015742183">
        <ele>65.030000000000001</ele>
        <time>2026-07-10T10:51:11Z</time>
      </trkpt>
      <trkpt lat="53.222319027408957" lon="-4.260211000218988">
        <ele>65.030000000000001</ele>
        <time>2026-07-10T10:51:12Z</time>
      </trkpt>
      <trkpt lat="53.222289020195603" lon="-4.258187022060156">
        <ele>63.579999999999998</ele>
        <time>2026-07-10T10:51:20Z</time>
      </trkpt>
      <trkpt lat="53.222337970510125" lon="-4.256678028032184">
        <ele>62.619999999999997</ele>
        <time>2026-07-10T10:51:26Z</time>
      </trkpt>
      <trkpt lat="53.222973989322782" lon="-4.253801023587585">
        <ele>58.780000000000001</ele>
        <time>2026-07-10T10:51:35Z</time>
      </trkpt>
      <trkpt lat="53.223466007038951" lon="-4.251628015190363">
        <ele>54.93</ele>
        <time>2026-07-10T10:51:42Z</time>
      </trkpt>
      <trkpt lat="53.223756020888686" lon="-4.248109040781856">
        <ele>51.57</ele>
        <time>2026-07-10T10:51:53Z</time>
      </trkpt>
      <trkpt lat="53.223826009780169" lon="-4.247231958433986">
        <ele>51.090000000000003</ele>
        <time>2026-07-10T10:51:58Z</time>
      </trkpt>
      <trkpt lat="53.223833972588181" lon="-4.247141014784575">
        <ele>51.090000000000003</ele>
        <time>2026-07-10T10:51:59Z</time>
      </trkpt>
      <trkpt lat="53.223840007558465" lon="-4.247073959559202">
        <ele>51.090000000000003</ele>
        <time>2026-07-10T10:52:00Z</time>
      </trkpt>
      <trkpt lat="53.223844030871987" lon="-4.2470240034163">
        <ele>51.090000000000003</ele>
        <time>2026-07-10T10:52:01Z</time>
      </trkpt>
      <trkpt lat="53.223847970366478" lon="-4.246978992596269">
        <ele>51.090000000000003</ele>
        <time>2026-07-10T10:52:02Z</time>
      </trkpt>
      <trkpt lat="53.22385199368" lon="-4.246929958462715">
        <ele>51.090000000000003</ele>
        <time>2026-07-10T10:52:03Z</time>
      </trkpt>
      <trkpt lat="53.223856016993523" lon="-4.24687497317791">
        <ele>51.090000000000003</ele>
        <time>2026-07-10T10:52:04Z</time>
      </trkpt>
      <trkpt lat="53.223860962316394" lon="-4.246821999549866">
        <ele>51.090000000000003</ele>
        <time>2026-07-10T10:52:05Z</time>
      </trkpt>
      <trkpt lat="53.223865991458297" lon="-4.246763996779919">
        <ele>51.090000000000003</ele>
        <time>2026-07-10T10:52:06Z</time>
      </trkpt>
      <trkpt lat="53.223891975358129" lon="-4.246455039829016">
        <ele>50.130000000000003</ele>
        <time>2026-07-10T10:52:11Z</time>
      </trkpt>
      <trkpt lat="53.223899016156793" lon="-4.246366024017334">
        <ele>50.130000000000003</ele>
        <time>2026-07-10T10:52:12Z</time>
      </trkpt>
      <trkpt lat="53.223906978964806" lon="-4.246276002377272">
        <ele>50.130000000000003</ele>
        <time>2026-07-10T10:52:13Z</time>
      </trkpt>
      <trkpt lat="53.223913013935089" lon="-4.246201990172267">
        <ele>50.130000000000003</ele>
        <time>2026-07-10T10:52:14Z</time>
      </trkpt>
      <trkpt lat="53.22391795925796" lon="-4.246139964088798">
        <ele>50.130000000000003</ele>
        <time>2026-07-10T10:52:15Z</time>
      </trkpt>
      <trkpt lat="53.223922988399863" lon="-4.246086990460753">
        <ele>50.130000000000003</ele>
        <time>2026-07-10T10:52:16Z</time>
      </trkpt>
      <trkpt lat="53.223928017541766" lon="-4.246019013226032">
        <ele>50.130000000000003</ele>
        <time>2026-07-10T10:52:17Z</time>
      </trkpt>
      <trkpt lat="53.223935980349779" lon="-4.245924968272448">
        <ele>50.130000000000003</ele>
        <time>2026-07-10T10:52:18Z</time>
      </trkpt>
      <trkpt lat="53.223946038633585" lon="-4.245808962732554">
        <ele>50.130000000000003</ele>
        <time>2026-07-10T10:52:19Z</time>
      </trkpt>
      <trkpt lat="53.224018039181828" lon="-4.244949985295534">
        <ele>51.090000000000003</ele>
        <time>2026-07-10T10:52:24Z</time>
      </trkpt>
      <trkpt lat="53.224020972847939" lon="-4.244671035557985">
        <ele>50.609999999999999</ele>
        <time>2026-07-10T10:52:25Z</time>
      </trkpt>
      <trkpt lat="53.223987026140094" lon="-4.24223399721086">
        <ele>50.609999999999999</ele>
        <time>2026-07-10T10:52:33Z</time>
      </trkpt>
      <trkpt lat="53.223770018666983" lon="-4.239438967779279">
        <ele>49.159999999999997</ele>
        <time>2026-07-10T10:52:41Z</time>
      </trkpt>
      <trkpt lat="53.223325023427606" lon="-4.233716977760196">
        <ele>45.799999999999997</ele>
        <time>2026-07-10T10:52:57Z</time>
      </trkpt>
      <trkpt lat="53.223139028996229" lon="-4.231372978538275">
        <ele>44.840000000000003</ele>
        <time>2026-07-10T10:53:04Z</time>
      </trkpt>
      <trkpt lat="53.222837029024959" lon="-4.227609001100063">
        <ele>42.439999999999998</ele>
        <time>2026-07-10T10:53:14Z</time>
      </trkpt>
      <trkpt lat="53.222567969933152" lon="-4.224318014457822">
        <ele>42.920000000000002</ele>
        <time>2026-07-10T10:53:24Z</time>
      </trkpt>
      <trkpt lat="53.222172008827329" lon="-4.219608977437019">
        <ele>45.32</ele>
        <time>2026-07-10T10:53:38Z</time>
      </trkpt>
      <trkpt lat="53.222059020772576" lon="-4.21825697645545">
        <ele>43.399999999999999</ele>
        <time>2026-07-10T10:53:44Z</time>
      </trkpt>
      <trkpt lat="53.221974028274417" lon="-4.216618984937668">
        <ele>42.920000000000002</ele>
        <time>2026-07-10T10:53:53Z</time>
      </trkpt>
      <trkpt lat="53.221850981935859" lon="-4.214957021176815">
        <ele>42.920000000000002</ele>
        <time>2026-07-10T10:54:04Z</time>
      </trkpt>
      <trkpt lat="53.221738999709487" lon="-4.21387399546802">
        <ele>42.439999999999998</ele>
        <time>2026-07-10T10:54:13Z</time>
      </trkpt>
      <trkpt lat="53.221731958910823" lon="-4.21380802989006">
        <ele>42.439999999999998</ele>
        <time>2026-07-10T10:54:14Z</time>
      </trkpt>
      <trkpt lat="53.221726007759571" lon="-4.213749021291733">
        <ele>42.439999999999998</ele>
        <time>2026-07-10T10:54:15Z</time>
      </trkpt>
      <trkpt lat="53.22170102968812" lon="-4.213252980262041">
        <ele>40.990000000000002</ele>
        <time>2026-07-10T10:54:25Z</time>
      </trkpt>
      <trkpt lat="53.221651995554566" lon="-4.212602041661739">
        <ele>41.950000000000003</ele>
        <time>2026-07-10T10:54:37Z</time>
      </trkpt>
      <trkpt lat="53.221598016098142" lon="-4.211883964017034">
        <ele>42.439999999999998</ele>
        <time>2026-07-10T10:54:50Z</time>
      </trkpt>
      <trkpt lat="53.22155199944973" lon="-4.211189020425081">
        <ele>41.469999999999999</ele>
        <time>2026-07-10T10:55:01Z</time>
      </trkpt>
      <trkpt lat="53.221510006114841" lon="-4.210662972182035">
        <ele>40.030000000000001</ele>
        <time>2026-07-10T10:55:09Z</time>
      </trkpt>
      <trkpt lat="53.221497014164925" lon="-4.210504973307252">
        <ele>39.549999999999997</ele>
        <time>2026-07-10T10:55:11Z</time>
      </trkpt>
      <trkpt lat="53.221491985023022" lon="-4.210436996072531">
        <ele>39.07</ele>
        <time>2026-07-10T10:55:12Z</time>
      </trkpt>
      <trkpt lat="53.221468012779951" lon="-4.210147988051176">
        <ele>37.630000000000003</ele>
        <time>2026-07-10T10:55:22Z</time>
      </trkpt>
      <trkpt lat="53.221464995294809" lon="-4.210107000544667">
        <ele>37.630000000000003</ele>
        <time>2026-07-10T10:55:31Z</time>
      </trkpt>
      <trkpt lat="53.22144404053688" lon="-4.210107000544667">
        <ele>37.149999999999999</ele>
        <time>2026-07-10T10:55:32Z</time>
      </trkpt>
      <trkpt lat="53.221407998353243" lon="-4.21011496335268">
        <ele>37.149999999999999</ele>
        <time>2026-07-10T10:55:33Z</time>
      </trkpt>
      <trkpt lat="53.221372039988637" lon="-4.210122004151344">
        <ele>37.149999999999999</ele>
        <time>2026-07-10T10:55:34Z</time>
      </trkpt>
      <trkpt lat="53.221338009461761" lon="-4.210129966959357">
        <ele>37.630000000000003</ele>
        <time>2026-07-10T10:55:35Z</time>
      </trkpt>
      <trkpt lat="53.221311019733548" lon="-4.210136001929641">
        <ele>37.630000000000003</ele>
        <time>2026-07-10T10:55:36Z</time>
      </trkpt>
      <trkpt lat="53.221152015030384" lon="-4.210123009979725">
        <ele>40.030000000000001</ele>
        <time>2026-07-10T10:55:45Z</time>
      </trkpt>
      <trkpt lat="53.22114497423172" lon="-4.210097026079893">
        <ele>40.509999999999998</ele>
        <time>2026-07-10T10:55:46Z</time>
      </trkpt>
      <trkpt lat="53.221136005595326" lon="-4.210061989724636">
        <ele>40.509999999999998</ele>
        <time>2026-07-10T10:55:47Z</time>
      </trkpt>
      <trkpt lat="53.221125025302172" lon="-4.210024019703269">
        <ele>40.509999999999998</ele>
        <time>2026-07-10T10:55:48Z</time>
      </trkpt>
      <trkpt lat="53.221114967018366" lon="-4.20998596586287">
        <ele>40.509999999999998</ele>
        <time>2026-07-10T10:55:49Z</time>
      </trkpt>
      <trkpt lat="53.221088983118534" lon="-4.209839031100273">
        <ele>39.549999999999997</ele>
        <time>2026-07-10T10:56:02Z</time>
      </trkpt>
      <trkpt lat="53.221088983118534" lon="-4.209839031100273">
        <ele>39.549999999999997</ele>
        <time>2026-07-10T10:56:18Z</time>
      </trkpt>
      <trkpt lat="53.221024023368955" lon="-4.20981296338141">
        <ele>41.950000000000003</ele>
        <time>2026-07-10T10:56:32Z</time>
      </trkpt>
      <trkpt lat="53.221022011712193" lon="-4.209806006401777">
        <ele>41.469999999999999</ele>
        <time>2026-07-10T10:57:15Z</time>
      </trkpt>
      <trkpt lat="53.221061993390322" lon="-4.209687989205122">
        <ele>66.950000000000003</ele>
        <time>2026-07-10T11:20:50Z</time>
      </trkpt>
      <trkpt lat="53.221007008105516" lon="-4.209759989753366">
        <ele>45.799999999999997</ele>
        <time>2026-07-10T11:21:27Z</time>
      </trkpt>
      <trkpt lat="53.221041960641742" lon="-4.209744986146689">
        <ele>44.840000000000003</ele>
        <time>2026-07-10T11:21:39Z</time>
      </trkpt>
      <trkpt lat="53.221109015867114" lon="-4.20987700112164">
        <ele>40.030000000000001</ele>
        <time>2026-07-10T11:21:50Z</time>
      </trkpt>
      <trkpt lat="53.221112033352256" lon="-4.209922011941671">
        <ele>37.149999999999999</ele>
        <time>2026-07-10T11:22:03Z</time>
      </trkpt>
      <trkpt lat="53.221140028908849" lon="-4.209927963092923">
        <ele>40.990000000000002</ele>
        <time>2026-07-10T11:22:33Z</time>
      </trkpt>
      <trkpt lat="53.221114967018366" lon="-4.209986971691251">
        <ele>41.469999999999999</ele>
        <time>2026-07-10T11:22:35Z</time>
      </trkpt>
      <trkpt lat="53.221126031130552" lon="-4.21002603136003">
        <ele>41.469999999999999</ele>
        <time>2026-07-10T11:22:36Z</time>
      </trkpt>
      <trkpt lat="53.221139023080468" lon="-4.210072970017791">
        <ele>40.990000000000002</ele>
        <time>2026-07-10T11:22:37Z</time>
      </trkpt>
      <trkpt lat="53.221155032515526" lon="-4.21013399027288">
        <ele>41.469999999999999</ele>
        <time>2026-07-10T11:22:38Z</time>
      </trkpt>
      <trkpt lat="53.221226027235389" lon="-4.21015402302146">
        <ele>40.990000000000002</ele>
        <time>2026-07-10T11:22:39Z</time>
      </trkpt>
      <trkpt lat="53.221260979771614" lon="-4.210145976394415">
        <ele>41.469999999999999</ele>
        <time>2026-07-10T11:22:40Z</time>
      </trkpt>
      <trkpt lat="53.221300039440393" lon="-4.210138013586402">
        <ele>41.469999999999999</ele>
        <time>2026-07-10T11:22:41Z</time>
      </trkpt>
      <trkpt lat="53.22133700363338" lon="-4.210129966959357">
        <ele>41.469999999999999</ele>
        <time>2026-07-10T11:22:42Z</time>
      </trkpt>
      <trkpt lat="53.221367010846734" lon="-4.210124015808106">
        <ele>40.990000000000002</ele>
        <time>2026-07-10T11:22:43Z</time>
      </trkpt>
      <trkpt lat="53.221381008625031" lon="-4.210120998322964">
        <ele>41.469999999999999</ele>
        <time>2026-07-10T11:22:44Z</time>
      </trkpt>
      <trkpt lat="53.221397018060088" lon="-4.210116975009441">
        <ele>41.469999999999999</ele>
        <time>2026-07-10T11:22:54Z</time>
      </trkpt>
      <trkpt lat="53.221412021666765" lon="-4.210114041343331">
        <ele>40.990000000000002</ele>
        <time>2026-07-10T11:22:55Z</time>
      </trkpt>
      <trkpt lat="53.221428031101823" lon="-4.21011102385819">
        <ele>40.990000000000002</ele>
        <time>2026-07-10T11:23:01Z</time>
      </trkpt>
      <trkpt lat="53.221460971981287" lon="-4.210053021088243">
        <ele>40.990000000000002</ele>
        <time>2026-07-10T11:23:02Z</time>
      </trkpt>
      <trkpt lat="53.221457032486796" lon="-4.210000969469547">
        <ele>40.990000000000002</ele>
        <time>2026-07-10T11:23:03Z</time>
      </trkpt>
      <trkpt lat="53.221452003344893" lon="-4.209930980578065">
        <ele>40.509999999999998</ele>
        <time>2026-07-10T11:23:04Z</time>
      </trkpt>
      <trkpt lat="53.221444962546229" lon="-4.209843976423144">
        <ele>40.509999999999998</ele>
        <time>2026-07-10T11:23:05Z</time>
      </trkpt>
      <trkpt lat="53.221436999738216" lon="-4.20974699780345">
        <ele>40.030000000000001</ele>
        <time>2026-07-10T11:23:06Z</time>
      </trkpt>
      <trkpt lat="53.221328034996986" lon="-4.208435984328389">
        <ele>39.07</ele>
        <time>2026-07-10T11:23:17Z</time>
      </trkpt>
      <trkpt lat="53.221214041113853" lon="-4.206983987241983">
        <ele>40.509999999999998</ele>
        <time>2026-07-10T11:23:29Z</time>
      </trkpt>
      <trkpt lat="53.221105998381972" lon="-4.205638021230698">
        <ele>43.399999999999999</ele>
        <time>2026-07-10T11:23:40Z</time>
      </trkpt>
      <trkpt lat="53.221045983955264" lon="-4.204854983836412">
        <ele>46.280000000000001</ele>
        <time>2026-07-10T11:23:49Z</time>
      </trkpt>
      <trkpt lat="53.221007008105516" lon="-4.20435500331223">
        <ele>47.719999999999999</ele>
        <time>2026-07-10T11:23:55Z</time>
      </trkpt>
      <trkpt lat="53.220999967306852" lon="-4.204270010814071">
        <ele>47.719999999999999</ele>
        <time>2026-07-10T11:23:56Z</time>
      </trkpt>
      <trkpt lat="53.220969960093498" lon="-4.203888969495893">
        <ele>48.68</ele>
        <time>2026-07-10T11:24:02Z</time>
      </trkpt>
      <trkpt lat="53.220964008942246" lon="-4.203809006139636">
        <ele>48.68</ele>
        <time>2026-07-10T11:24:03Z</time>
      </trkpt>
      <trkpt lat="53.220957973971963" lon="-4.203743040561676">
        <ele>48.68</ele>
        <time>2026-07-10T11:24:04Z</time>
      </trkpt>
      <trkpt lat="53.220955040305853" lon="-4.203698029741645">
        <ele>48.68</ele>
        <time>2026-07-10T11:24:05Z</time>
      </trkpt>
      <trkpt lat="53.220936013385653" lon="-4.203466018661857">
        <ele>49.649999999999999</ele>
        <time>2026-07-10T11:24:13Z</time>
      </trkpt>
      <trkpt lat="53.220927966758609" lon="-4.203364010900259">
        <ele>49.649999999999999</ele>
        <time>2026-07-10T11:24:19Z</time>
      </trkpt>
      <trkpt lat="53.220918998122215" lon="-4.203282035887241">
        <ele>49.159999999999997</ele>
        <time>2026-07-10T11:24:31Z</time>
      </trkpt>
      <trkpt lat="53.220918998122215" lon="-4.203282035887241">
        <ele>47.719999999999999</ele>
        <time>2026-07-10T11:24:49Z</time>
      </trkpt>
      <trkpt lat="53.220918998122215" lon="-4.203282035887241">
        <ele>47.240000000000002</ele>
        <time>2026-07-10T11:25:26Z</time>
      </trkpt>
      <trkpt lat="53.220813972875476" lon="-4.202999984845519">
        <ele>47.719999999999999</ele>
        <time>2026-07-10T11:27:53Z</time>
      </trkpt>
      <trkpt lat="53.220845991745591" lon="-4.203076008707285">
        <ele>51.57</ele>
        <time>2026-07-10T11:28:13Z</time>
      </trkpt>
      <trkpt lat="53.220889996737242" lon="-4.203066034242511">
        <ele>48.200000000000003</ele>
        <time>2026-07-10T11:29:00Z</time>
      </trkpt>
      <trkpt lat="53.220889996737242" lon="-4.20300199650228">
        <ele>48.68</ele>
        <time>2026-07-10T11:29:02Z</time>
      </trkpt>
      <trkpt lat="53.220882033929229" lon="-4.202929995954037">
        <ele>49.649999999999999</ele>
        <time>2026-07-10T11:29:03Z</time>
      </trkpt>
      <trkpt lat="53.220873987302184" lon="-4.202860007062554">
        <ele>50.130000000000003</ele>
        <time>2026-07-10T11:29:04Z</time>
      </trkpt>
      <trkpt lat="53.220868958160281" lon="-4.202810972929001">
        <ele>50.609999999999999</ele>
        <time>2026-07-10T11:29:05Z</time>
      </trkpt>
      <trkpt lat="53.220849009230733" lon="-4.202635958790779">
        <ele>53.009999999999998</ele>
        <time>2026-07-10T11:29:12Z</time>
      </trkpt>
      <trkpt lat="53.220733003690839" lon="-4.201682014390826">
        <ele>53.490000000000002</ele>
        <time>2026-07-10T11:29:21Z</time>
      </trkpt>
      <trkpt lat="53.220720011740923" lon="-4.201571960002184">
        <ele>53.009999999999998</ele>
        <time>2026-07-10T11:29:22Z</time>
      </trkpt>
      <trkpt lat="53.220707019791007" lon="-4.201468024402857">
        <ele>52.530000000000001</ele>
        <time>2026-07-10T11:29:23Z</time>
      </trkpt>
      <trkpt lat="53.220676006749272" lon="-4.201208017766476">
        <ele>50.130000000000003</ele>
        <time>2026-07-10T11:29:30Z</time>
      </trkpt>
      <trkpt lat="53.220650022849441" lon="-4.200995033606887">
        <ele>50.609999999999999</ele>
        <time>2026-07-10T11:29:53Z</time>
      </trkpt>
      <trkpt lat="53.220630995929241" lon="-4.200836028903723">
        <ele>50.130000000000003</ele>
        <time>2026-07-10T11:30:03Z</time>
      </trkpt>
      <trkpt lat="53.220618003979325" lon="-4.200721029192209">
        <ele>50.130000000000003</ele>
        <time>2026-07-10T11:30:14Z</time>
      </trkpt>
      <trkpt lat="53.220607023686171" lon="-4.200623966753483">
        <ele>51.090000000000003</ele>
        <time>2026-07-10T11:30:35Z</time>
      </trkpt>
      <trkpt lat="53.220572993159294" lon="-4.200329007580876">
        <ele>52.530000000000001</ele>
        <time>2026-07-10T11:30:47Z</time>
      </trkpt>
      <trkpt lat="53.220547009259462" lon="-4.200119040906429">
        <ele>53.009999999999998</ele>
        <time>2026-07-10T11:30:58Z</time>
      </trkpt>
      <trkpt lat="53.220493029803038" lon="-4.199789967387915">
        <ele>53.009999999999998</ele>
        <time>2026-07-10T11:31:11Z</time>
      </trkpt>
      <trkpt lat="53.220483977347612" lon="-4.199732970446348">
        <ele>52.530000000000001</ele>
        <time>2026-07-10T11:31:12Z</time>
      </trkpt>
      <trkpt lat="53.220346011221409" lon="-4.19904800131917">
        <ele>53.969999999999999</ele>
        <time>2026-07-10T11:31:18Z</time>
      </trkpt>
      <trkpt lat="53.220330001786351" lon="-4.198983963578939">
        <ele>53.969999999999999</ele>
        <time>2026-07-10T11:31:19Z</time>
      </trkpt>
      <trkpt lat="53.220319021493196" lon="-4.198942976072431">
        <ele>54.450000000000003</ele>
        <time>2026-07-10T11:31:20Z</time>
      </trkpt>
      <trkpt lat="53.220311980694532" lon="-4.198913974687457">
        <ele>54.93</ele>
        <time>2026-07-10T11:31:21Z</time>
      </trkpt>
      <trkpt lat="53.220306029543281" lon="-4.198891008272767">
        <ele>54.93</ele>
        <time>2026-07-10T11:31:22Z</time>
      </trkpt>
      <trkpt lat="53.220298988744617" lon="-4.198866030201316">
        <ele>55.409999999999997</ele>
        <time>2026-07-10T11:31:23Z</time>
      </trkpt>
      <trkpt lat="53.220292031764984" lon="-4.198836022987962">
        <ele>55.409999999999997</ele>
        <time>2026-07-10T11:31:24Z</time>
      </trkpt>
      <trkpt lat="53.220283985137939" lon="-4.198806015774608">
        <ele>55.409999999999997</ele>
        <time>2026-07-10T11:31:25Z</time>
      </trkpt>
      <trkpt lat="53.220278033986688" lon="-4.198781037703157">
        <ele>55.409999999999997</ele>
        <time>2026-07-10T11:31:26Z</time>
      </trkpt>
      <trkpt lat="53.220271999016404" lon="-4.198757987469435">
        <ele>54.93</ele>
        <time>2026-07-10T11:31:38Z</time>
      </trkpt>
      <trkpt lat="53.220187006518245" lon="-4.198333024978638">
        <ele>55.409999999999997</ele>
        <time>2026-07-10T11:31:48Z</time>
      </trkpt>
      <trkpt lat="53.220131015405059" lon="-4.197950977832079">
        <ele>55.409999999999997</ele>
        <time>2026-07-10T11:31:56Z</time>
      </trkpt>
      <trkpt lat="53.220122968778014" lon="-4.197898004204035">
        <ele>55.409999999999997</ele>
        <time>2026-07-10T11:31:57Z</time>
      </trkpt>
      <trkpt lat="53.220144007354975" lon="-4.19711303897202">
        <ele>54.93</ele>
        <time>2026-07-10T11:32:03Z</time>
      </trkpt>
      <trkpt lat="53.220140989869833" lon="-4.195602033287287">
        <ele>51.57</ele>
        <time>2026-07-10T11:32:12Z</time>
      </trkpt>
      <trkpt lat="53.220121040940285" lon="-4.195382008329034">
        <ele>51.57</ele>
        <time>2026-07-10T11:32:14Z</time>
      </trkpt>
      <trkpt lat="53.220108970999718" lon="-4.195302966982126">
        <ele>51.57</ele>
        <time>2026-07-10T11:32:15Z</time>
      </trkpt>
      <trkpt lat="53.220098996534944" lon="-4.195235995575786">
        <ele>51.090000000000003</ele>
        <time>2026-07-10T11:32:16Z</time>
      </trkpt>
      <trkpt lat="53.220092039555311" lon="-4.195189978927374">
        <ele>51.090000000000003</ele>
        <time>2026-07-10T11:32:17Z</time>
      </trkpt>
      <trkpt lat="53.220091033726931" lon="-4.195189978927374">
        <ele>51.090000000000003</ele>
        <time>2026-07-10T11:32:18Z</time>
      </trkpt>
      <trkpt lat="53.220083992928267" lon="-4.195119990035892">
        <ele>51.090000000000003</ele>
        <time>2026-07-10T11:32:19Z</time>
      </trkpt>
      <trkpt lat="53.220080975443125" lon="-4.195088976994157">
        <ele>50.609999999999999</ele>
        <time>2026-07-10T11:32:20Z</time>
      </trkpt>
      <trkpt lat="53.220077035948634" lon="-4.195058969780803">
        <ele>50.130000000000003</ele>
        <time>2026-07-10T11:32:21Z</time>
      </trkpt>
      <trkpt lat="53.220073012635112" lon="-4.195017982274294">
        <ele>50.130000000000003</ele>
        <time>2026-07-10T11:32:22Z</time>
      </trkpt>
      <trkpt lat="53.220068989321589" lon="-4.194981018081307">
        <ele>49.649999999999999</ele>
        <time>2026-07-10T11:32:23Z</time>
      </trkpt>
      <trkpt lat="53.220036970451474" lon="-4.194691004231572">
        <ele>49.159999999999997</ele>
        <time>2026-07-10T11:32:34Z</time>
      </trkpt>
      <trkpt lat="53.220017021521926" lon="-4.194499980658293">
        <ele>49.159999999999997</ele>
        <time>2026-07-10T11:32:46Z</time>
      </trkpt>
      <trkpt lat="53.220007969066501" lon="-4.194008968770504">
        <ele>49.159999999999997</ele>
        <time>2026-07-10T11:32:52Z</time>
      </trkpt>
      <trkpt lat="53.220063960179687" lon="-4.193598004058003">
        <ele>48.200000000000003</ele>
        <time>2026-07-10T11:33:02Z</time>
      </trkpt>
      <trkpt lat="53.220121040940285" lon="-4.193385019898415">
        <ele>48.68</ele>
        <time>2026-07-10T11:33:14Z</time>
      </trkpt>
      <trkpt lat="53.220253977924585" lon="-4.192929966375232">
        <ele>48.68</ele>
        <time>2026-07-10T11:33:21Z</time>
      </trkpt>
      <trkpt lat="53.220332013443112" lon="-4.192649004980922">
        <ele>49.159999999999997</ele>
        <time>2026-07-10T11:33:28Z</time>
      </trkpt>
      <trkpt lat="53.220338970422745" lon="-4.192598965018988">
        <ele>49.649999999999999</ele>
        <time>2026-07-10T11:33:29Z</time>
      </trkpt>
      <trkpt lat="53.220346011221409" lon="-4.192549008876085">
        <ele>50.130000000000003</ele>
        <time>2026-07-10T11:33:30Z</time>
      </trkpt>
      <trkpt lat="53.220352968201041" lon="-4.192501986399293">
        <ele>50.130000000000003</ele>
        <time>2026-07-10T11:33:31Z</time>
      </trkpt>
      <trkpt lat="53.220359003171325" lon="-4.192454963922501">
        <ele>50.130000000000003</ele>
        <time>2026-07-10T11:33:32Z</time>
      </trkpt>
      <trkpt lat="53.220365038141608" lon="-4.192415988072753">
        <ele>50.609999999999999</ele>
        <time>2026-07-10T11:33:33Z</time>
      </trkpt>
      <trkpt lat="53.220392027869821" lon="-4.192227981984615">
        <ele>53.490000000000002</ele>
        <time>2026-07-10T11:33:43Z</time>
      </trkpt>
      <trkpt lat="53.220423962920904" lon="-4.191825985908508">
        <ele>54.93</ele>
        <time>2026-07-10T11:33:51Z</time>
      </trkpt>
      <trkpt lat="53.220439972355962" lon="-4.191736970096827">
        <ele>54.93</ele>
        <time>2026-07-10T11:33:52Z</time>
      </trkpt>
      <trkpt lat="53.220454975962639" lon="-4.191654995083809">
        <ele>54.93</ele>
        <time>2026-07-10T11:33:53Z</time>
      </trkpt>
      <trkpt lat="53.220503004267812" lon="-4.1913550067693">
        <ele>54.450000000000003</ele>
        <time>2026-07-10T11:34:01Z</time>
      </trkpt>
      <trkpt lat="53.220525970682502" lon="-4.191007995977998">
        <ele>53.969999999999999</ele>
        <time>2026-07-10T11:34:12Z</time>
      </trkpt>
      <trkpt lat="53.220611969009042" lon="-4.190294025465846">
        <ele>54.93</ele>
        <time>2026-07-10T11:34:23Z</time>
      </trkpt>
      <trkpt lat="53.220611969009042" lon="-4.190294025465846">
        <ele>55.890000000000001</ele>
        <time>2026-07-10T11:34:35Z</time>
      </trkpt>
      <trkpt lat="53.220667960122228" lon="-4.190035024657846">
        <ele>57.82</ele>
        <time>2026-07-10T11:34:50Z</time>
      </trkpt>
      <trkpt lat="53.220725040882826" lon="-4.189813993871212">
        <ele>57.82</ele>
        <time>2026-07-10T11:35:05Z</time>
      </trkpt>
      <trkpt lat="53.220725040882826" lon="-4.189813993871212">
        <ele>57.82</ele>
        <time>2026-07-10T11:35:40Z</time>
      </trkpt>
      <trkpt lat="53.220725040882826" lon="-4.189813993871212">
        <ele>57.340000000000003</ele>
        <time>2026-07-10T11:35:58Z</time>
      </trkpt>
      <trkpt lat="53.220742978155613" lon="-4.18974501080811">
        <ele>57.82</ele>
        <time>2026-07-10T11:35:59Z</time>
      </trkpt>
      <trkpt lat="53.220752030611038" lon="-4.189712991937995">
        <ele>57.82</ele>
        <time>2026-07-10T11:36:00Z</time>
      </trkpt>
      <trkpt lat="53.220760999247432" lon="-4.189676027745009">
        <ele>57.340000000000003</ele>
        <time>2026-07-10T11:36:01Z</time>
      </trkpt>
      <trkpt lat="53.220781031996012" lon="-4.189603021368384">
        <ele>57.340000000000003</ele>
        <time>2026-07-10T11:36:02Z</time>
      </trkpt>
      <trkpt lat="53.220943976193666" lon="-4.189046965911984">
        <ele>55.890000000000001</ele>
        <time>2026-07-10T11:36:06Z</time>
      </trkpt>
      <trkpt lat="53.221032992005348" lon="-4.188694003969431">
        <ele>54.450000000000003</ele>
        <time>2026-07-10T11:36:08Z</time>
      </trkpt>
      <trkpt lat="53.221069034188986" lon="-4.188493005931377">
        <ele>53.490000000000002</ele>
        <time>2026-07-10T11:36:09Z</time>
      </trkpt>
      <trkpt lat="53.221471030265093" lon="-4.186627026647329">
        <ele>51.090000000000003</ele>
        <time>2026-07-10T11:36:19Z</time>
      </trkpt>
      <trkpt lat="53.221963969990611" lon="-4.185236971825361">
        <ele>49.649999999999999</ele>
        <time>2026-07-10T11:36:28Z</time>
      </trkpt>
      <trkpt lat="53.222107971087098" lon="-4.18488996103406">
        <ele>48.68</ele>
        <time>2026-07-10T11:36:30Z</time>
      </trkpt>
      <trkpt lat="53.223039032891393" lon="-4.182789037004113">
        <ele>42.920000000000002</ele>
        <time>2026-07-10T11:36:43Z</time>
      </trkpt>
      <trkpt lat="53.223925000056624" lon="-4.180793976411223">
        <ele>36.189999999999998</ele>
        <time>2026-07-10T11:36:54Z</time>
      </trkpt>
      <trkpt lat="53.224806021898985" lon="-4.17880997993052">
        <ele>31.379999999999999</ele>
        <time>2026-07-10T11:37:06Z</time>
      </trkpt>
      <trkpt lat="53.225479004904628" lon="-4.176649963483214">
        <ele>27.050000000000001</ele>
        <time>2026-07-10T11:37:18Z</time>
      </trkpt>
      <trkpt lat="53.225729037076235" lon="-4.174886997789145">
        <ele>27.050000000000001</ele>
        <time>2026-07-10T11:37:27Z</time>
      </trkpt>
      <trkpt lat="53.225901033729315" lon="-4.173374986276031">
        <ele>26.57</ele>
        <time>2026-07-10T11:37:36Z</time>
      </trkpt>
      <trkpt lat="53.226117035374045" lon="-4.171323012560606">
        <ele>25.609999999999999</ele>
        <time>2026-07-10T11:37:47Z</time>
      </trkpt>
      <trkpt lat="53.226185012608767" lon="-4.169418979436159">
        <ele>22.25</ele>
        <time>2026-07-10T11:37:58Z</time>
      </trkpt>
      <trkpt lat="53.226144025102258" lon="-4.168586991727352">
        <ele>21.77</ele>
        <time>2026-07-10T11:38:04Z</time>
      </trkpt>
      <trkpt lat="53.226153999567032" lon="-4.168355986475945">
        <ele>20.32</ele>
        <time>2026-07-10T11:38:10Z</time>
      </trkpt>
      <trkpt lat="53.226142013445497" lon="-4.167936975136399">
        <ele>20.32</ele>
        <time>2026-07-10T11:38:19Z</time>
      </trkpt>
      <trkpt lat="53.22612700983882" lon="-4.167847037315369">
        <ele>20.32</ele>
        <time>2026-07-10T11:38:20Z</time>
      </trkpt>
      <trkpt lat="53.226094990968704" lon="-4.167778976261616">
        <ele>19.84</ele>
        <time>2026-07-10T11:38:21Z</time>
      </trkpt>
      <trkpt lat="53.226052997633815" lon="-4.167728014290333">
        <ele>19.84</ele>
        <time>2026-07-10T11:38:22Z</time>
      </trkpt>
      <trkpt lat="53.226014021784067" lon="-4.167680991813541">
        <ele>19.84</ele>
        <time>2026-07-10T11:38:23Z</time>
      </trkpt>
      <trkpt lat="53.225948978215456" lon="-4.167680991813541">
        <ele>19.84</ele>
        <time>2026-07-10T11:38:24Z</time>
      </trkpt>
      <trkpt lat="53.225844958797097" lon="-4.167606979608536">
        <ele>19.359999999999999</ele>
        <time>2026-07-10T11:38:26Z</time>
      </trkpt>
      <trkpt lat="53.225803971290588" lon="-4.167578984051943">
        <ele>19.359999999999999</ele>
        <time>2026-07-10T11:38:27Z</time>
      </trkpt>
      <trkpt lat="53.225768012925982" lon="-4.167554005980492">
        <ele>19.359999999999999</ele>
        <time>2026-07-10T11:38:28Z</time>
      </trkpt>
      <trkpt lat="53.225726019591093" lon="-4.167515030130744">
        <ele>19.359999999999999</ele>
        <time>2026-07-10T11:38:29Z</time>
      </trkpt>
      <trkpt lat="53.225696012377739" lon="-4.167463984340429">
        <ele>18.879999999999999</ele>
        <time>2026-07-10T11:38:30Z</time>
      </trkpt>
      <trkpt lat="53.225443968549371" lon="-4.167124014347792">
        <ele>19.84</ele>
        <time>2026-07-10T11:38:39Z</time>
      </trkpt>
      <trkpt lat="53.225352019071579" lon="-4.167009014636278">
        <ele>20.32</ele>
        <time>2026-07-10T11:38:41Z</time>
      </trkpt>
      <trkpt lat="53.225274989381433" lon="-4.166916981339455">
        <ele>20.809999999999999</ele>
        <time>2026-07-10T11:38:43Z</time>
      </trkpt>
      <trkpt lat="53.22520399466157" lon="-4.166838023811579">
        <ele>21.77</ele>
        <time>2026-07-10T11:38:45Z</time>
      </trkpt>
      <trkpt lat="53.225167030468583" lon="-4.166796030476689">
        <ele>22.25</ele>
        <time>2026-07-10T11:38:46Z</time>
      </trkpt>
      <trkpt lat="53.225134005770087" lon="-4.166758982464671">
        <ele>22.73</ele>
        <time>2026-07-10T11:38:47Z</time>
      </trkpt>
      <trkpt lat="53.225108021870255" lon="-4.166730986908078">
        <ele>23.210000000000001</ele>
        <time>2026-07-10T11:38:48Z</time>
      </trkpt>
      <trkpt lat="53.225086983293295" lon="-4.166707014665008">
        <ele>23.210000000000001</ele>
        <time>2026-07-10T11:38:49Z</time>
      </trkpt>
      <trkpt lat="53.225062005221844" lon="-4.166679019108415">
        <ele>23.690000000000001</ele>
        <time>2026-07-10T11:38:50Z</time>
      </trkpt>
      <trkpt lat="53.225029986351728" lon="-4.166643982753158">
        <ele>24.170000000000002</ele>
        <time>2026-07-10T11:38:51Z</time>
      </trkpt>
      <trkpt lat="53.224987993016839" lon="-4.166596960276365">
        <ele>24.649999999999999</ele>
        <time>2026-07-10T11:38:52Z</time>
      </trkpt>
      <trkpt lat="53.224893026053905" lon="-4.166507022455335">
        <ele>26.57</ele>
        <time>2026-07-10T11:38:54Z</time>
      </trkpt>
      <trkpt lat="53.2247119769454" lon="-4.166367966681719">
        <ele>31.379999999999999</ele>
        <time>2026-07-10T11:38:58Z</time>
      </trkpt>
      <trkpt lat="53.22453604079783" lon="-4.166241986677051">
        <ele>38.109999999999999</ele>
        <time>2026-07-10T11:39:07Z</time>
      </trkpt>
      <trkpt lat="53.224383993074298" lon="-4.166162023320794">
        <ele>38.590000000000003</ele>
        <time>2026-07-10T11:39:17Z</time>
      </trkpt>
      <trkpt lat="53.224100014194846" lon="-4.166063033044338">
        <ele>37.149999999999999</ele>
        <time>2026-07-10T11:39:28Z</time>
      </trkpt>
      <trkpt lat="53.223831038922071" lon="-4.166052974760532">
        <ele>38.590000000000003</ele>
        <time>2026-07-10T11:39:33Z</time>
      </trkpt>
      <trkpt lat="53.22363599203527" lon="-4.16606898419559">
        <ele>39.07</ele>
        <time>2026-07-10T11:39:37Z</time>
      </trkpt>
      <trkpt lat="53.223328040912747" lon="-4.166070995852351">
        <ele>40.030000000000001</ele>
        <time>2026-07-10T11:39:46Z</time>
      </trkpt>
      <trkpt lat="53.22312100790441" lon="-4.166019028052688">
        <ele>41.950000000000003</ele>
        <time>2026-07-10T11:39:56Z</time>
      </trkpt>
      <trkpt lat="53.222767040133476" lon="-4.165711998939514">
        <ele>41.469999999999999</ele>
        <time>2026-07-10T11:40:06Z</time>
      </trkpt>
      <trkpt lat="53.222697973251343" lon="-4.165427014231682">
        <ele>40.509999999999998</ele>
        <time>2026-07-10T11:40:13Z</time>
      </trkpt>
      <trkpt lat="53.222564030438662" lon="-4.16531402617693">
        <ele>40.509999999999998</ele>
        <time>2026-07-10T11:40:19Z</time>
      </trkpt>
      <trkpt lat="53.222360014915466" lon="-4.165321988984942">
        <ele>40.509999999999998</ele>
        <time>2026-07-10T11:40:28Z</time>
      </trkpt>
      <trkpt lat="53.222319027408957" lon="-4.165313020348549">
        <ele>40.509999999999998</ele>
        <time>2026-07-10T11:40:29Z</time>
      </trkpt>
      <trkpt lat="53.222281979396939" lon="-4.165303967893124">
        <ele>40.509999999999998</ele>
        <time>2026-07-10T11:40:30Z</time>
      </trkpt>
      <trkpt lat="53.222243003547192" lon="-4.165273038670421">
        <ele>40.509999999999998</ele>
        <time>2026-07-10T11:40:31Z</time>
      </trkpt>
      <trkpt lat="53.222145019099116" lon="-4.165129959583283">
        <ele>40.030000000000001</ele>
        <time>2026-07-10T11:40:41Z</time>
      </trkpt>
      <trkpt lat="53.221978973597288" lon="-4.164968021214008">
        <ele>39.549999999999997</ele>
        <time>2026-07-10T11:40:47Z</time>
      </trkpt>
      <trkpt lat="53.221705975010991" lon="-4.164703991264105">
        <ele>39.549999999999997</ele>
        <time>2026-07-10T11:40:55Z</time>
      </trkpt>
      <trkpt lat="53.221663981676102" lon="-4.164660992100835">
        <ele>39.549999999999997</ele>
        <time>2026-07-10T11:40:56Z</time>
      </trkpt>
      <trkpt lat="53.22161603718996" lon="-4.164613969624043">
        <ele>39.549999999999997</ele>
        <time>2026-07-10T11:40:57Z</time>
      </trkpt>
      <trkpt lat="53.221558034420013" lon="-4.164555966854096">
        <ele>39.549999999999997</ele>
        <time>2026-07-10T11:40:58Z</time>
      </trkpt>
      <trkpt lat="53.221498019993305" lon="-4.164496036246419">
        <ele>40.030000000000001</ele>
        <time>2026-07-10T11:40:59Z</time>
      </trkpt>
      <trkpt lat="53.221442028880119" lon="-4.164439961314201">
        <ele>40.509999999999998</ele>
        <time>2026-07-10T11:41:00Z</time>
      </trkpt>
      <trkpt lat="53.221386959776282" lon="-4.164384976029396">
        <ele>40.509999999999998</ele>
        <time>2026-07-10T11:41:01Z</time>
      </trkpt>
      <trkpt lat="53.221009019762278" lon="-4.164014998823404">
        <ele>40.990000000000002</ele>
        <time>2026-07-10T11:41:09Z</time>
      </trkpt>
      <trkpt lat="53.220965014770627" lon="-4.163973005488515">
        <ele>40.990000000000002</ele>
        <time>2026-07-10T11:41:10Z</time>
      </trkpt>
      <trkpt lat="53.220912963151932" lon="-4.163922965526581">
        <ele>40.990000000000002</ele>
        <time>2026-07-10T11:41:11Z</time>
      </trkpt>
      <trkpt lat="53.220726968720555" lon="-4.163742000237107">
        <ele>41.950000000000003</ele>
        <time>2026-07-10T11:41:14Z</time>
      </trkpt>
      <trkpt lat="53.220653040334582" lon="-4.163671005517244">
        <ele>41.950000000000003</ele>
        <time>2026-07-10T11:41:15Z</time>
      </trkpt>
      <trkpt lat="53.220080975443125" lon="-4.163105981424451">
        <ele>46.280000000000001</ele>
        <time>2026-07-10T11:41:22Z</time>
      </trkpt>
      <trkpt lat="53.22000696323812" lon="-4.163036998361349">
        <ele>46.759999999999998</ele>
        <time>2026-07-10T11:41:23Z</time>
      </trkpt>
      <trkpt lat="53.219734970480204" lon="-4.16278000921011">
        <ele>49.159999999999997</ele>
        <time>2026-07-10T11:41:28Z</time>
      </trkpt>
      <trkpt lat="53.219701023772359" lon="-4.162747990339994">
        <ele>49.649999999999999</ele>
        <time>2026-07-10T11:41:29Z</time>
      </trkpt>
      <trkpt lat="53.219671016559005" lon="-4.162719994783402">
        <ele>50.130000000000003</ele>
        <time>2026-07-10T11:41:30Z</time>
      </trkpt>
      <trkpt lat="53.219642015174031" lon="-4.162691999226809">
        <ele>50.609999999999999</ele>
        <time>2026-07-10T11:41:31Z</time>
      </trkpt>
      <trkpt lat="53.219614019617438" lon="-4.162666015326977">
        <ele>51.57</ele>
        <time>2026-07-10T11:41:32Z</time>
      </trkpt>
      <trkpt lat="53.219580994918942" lon="-4.162635002285242">
        <ele>51.57</ele>
        <time>2026-07-10T11:41:33Z</time>
      </trkpt>
      <trkpt lat="53.219442022964358" lon="-4.162503993138671">
        <ele>52.530000000000001</ele>
        <time>2026-07-10T11:41:36Z</time>
      </trkpt>
      <trkpt lat="53.219397012144327" lon="-4.16245898231864">
        <ele>53.009999999999998</ele>
        <time>2026-07-10T11:41:37Z</time>
      </trkpt>
      <trkpt lat="53.219304978847504" lon="-4.162363009527326">
        <ele>53.490000000000002</ele>
        <time>2026-07-10T11:41:39Z</time>
      </trkpt>
      <trkpt lat="53.219257034361362" lon="-4.162312969565392">
        <ele>53.490000000000002</ele>
        <time>2026-07-10T11:41:40Z</time>
      </trkpt>
      <trkpt lat="53.21920900605619" lon="-4.162262007594109">
        <ele>52.530000000000001</ele>
        <time>2026-07-10T11:41:41Z</time>
      </trkpt>
      <trkpt lat="53.218997027724981" lon="-4.162037037312985">
        <ele>51.57</ele>
        <time>2026-07-10T11:41:46Z</time>
      </trkpt>
      <trkpt lat="53.218966014683247" lon="-4.162013987079263">
        <ele>51.090000000000003</ele>
        <time>2026-07-10T11:41:47Z</time>
      </trkpt>
      <trkpt lat="53.218883033841848" lon="-4.161945004016161">
        <ele>49.159999999999997</ele>
        <time>2026-07-10T11:41:54Z</time>
      </trkpt>
      <trkpt lat="53.218812961131334" lon="-4.161848025396466">
        <ele>48.200000000000003</ele>
        <time>2026-07-10T11:41:56Z</time>
      </trkpt>
      <trkpt lat="53.218781026080251" lon="-4.161754986271262">
        <ele>48.200000000000003</ele>
        <time>2026-07-10T11:41:57Z</time>
      </trkpt>
      <trkpt lat="53.218740038573742" lon="-4.161630012094975">
        <ele>47.719999999999999</ele>
        <time>2026-07-10T11:41:58Z</time>
      </trkpt>
      <trkpt lat="53.218748001381755" lon="-4.161518029868603">
        <ele>47.240000000000002</ele>
        <time>2026-07-10T11:41:59Z</time>
      </trkpt>
      <trkpt lat="53.218755964189768" lon="-4.161403030157089">
        <ele>46.280000000000001</ele>
        <time>2026-07-10T11:42:00Z</time>
      </trkpt>
      <trkpt lat="53.218774991109967" lon="-4.161288030445576">
        <ele>46.280000000000001</ele>
        <time>2026-07-10T11:42:01Z</time>
      </trkpt>
      <trkpt lat="53.218803992494941" lon="-4.161201026290655">
        <ele>45.799999999999997</ele>
        <time>2026-07-10T11:42:02Z</time>
      </trkpt>
      <trkpt lat="53.218833999708295" lon="-4.161107987165451">
        <ele>45.32</ele>
        <time>2026-07-10T11:42:03Z</time>
      </trkpt>
      <trkpt lat="53.218864006921649" lon="-4.161011008545756">
        <ele>44.840000000000003</ele>
        <time>2026-07-10T11:42:04Z</time>
      </trkpt>
      <trkpt lat="53.218895019963384" lon="-4.160914029926062">
        <ele>44.359999999999999</ele>
        <time>2026-07-10T11:42:05Z</time>
      </trkpt>
      <trkpt lat="53.218928966671228" lon="-4.160807998850942">
        <ele>44.359999999999999</ele>
        <time>2026-07-10T11:42:06Z</time>
      </trkpt>
      <trkpt lat="53.219241024926305" lon="-4.159634029492736">
        <ele>41.950000000000003</ele>
        <time>2026-07-10T11:42:15Z</time>
      </trkpt>
      <trkpt lat="53.219301039353013" lon="-4.159476030617952">
        <ele>41.950000000000003</ele>
        <time>2026-07-10T11:42:16Z</time>
      </trkpt>
      <trkpt lat="53.219374967738986" lon="-4.159323982894421">
        <ele>41.469999999999999</ele>
        <time>2026-07-10T11:42:17Z</time>
      </trkpt>
      <trkpt lat="53.220131015405059" lon="-4.157889001071453">
        <ele>41.950000000000003</ele>
        <time>2026-07-10T11:42:26Z</time>
      </trkpt>
      <trkpt lat="53.220210978761315" lon="-4.157748017460108">
        <ele>41.950000000000003</ele>
        <time>2026-07-10T11:42:27Z</time>
      </trkpt>
      <trkpt lat="53.221027040854096" lon="-4.156437003985047">
        <ele>40.990000000000002</ele>
        <time>2026-07-10T11:42:36Z</time>
      </trkpt>
      <trkpt lat="53.22146600112319" lon="-4.155854964628816">
        <ele>40.990000000000002</ele>
        <time>2026-07-10T11:42:40Z</time>
      </trkpt>
      <trkpt lat="53.221576977521181" lon="-4.155708029866219">
        <ele>40.990000000000002</ele>
        <time>2026-07-10T11:42:41Z</time>
      </trkpt>
      <trkpt lat="53.22178702801466" lon="-4.155388008803129">
        <ele>40.990000000000002</ele>
        <time>2026-07-10T11:42:43Z</time>
      </trkpt>
      <trkpt lat="53.222640976309776" lon="-4.153602998703718">
        <ele>40.509999999999998</ele>
        <time>2026-07-10T11:42:52Z</time>
      </trkpt>
      <trkpt lat="53.223254028707743" lon="-4.151449017226696">
        <ele>41.950000000000003</ele>
        <time>2026-07-10T11:43:02Z</time>
      </trkpt>
      <trkpt lat="53.223877977579832" lon="-4.149210965260863">
        <ele>44.359999999999999</ele>
        <time>2026-07-10T11:43:13Z</time>
      </trkpt>
      <trkpt lat="53.224123986437917" lon="-4.148495988920331">
        <ele>45.799999999999997</ele>
        <time>2026-07-10T11:43:17Z</time>
      </trkpt>
      <trkpt lat="53.224276034161448" lon="-4.148346958681941">
        <ele>45.799999999999997</ele>
        <time>2026-07-10T11:43:18Z</time>
      </trkpt>
      <trkpt lat="53.224299000576138" lon="-4.148306977003813">
        <ele>45.799999999999997</ele>
        <time>2026-07-10T11:43:19Z</time>
      </trkpt>
      <trkpt lat="53.224354991689324" lon="-4.148208992555738">
        <ele>46.280000000000001</ele>
        <time>2026-07-10T11:43:20Z</time>
      </trkpt>
      <trkpt lat="53.224300006404519" lon="-4.147982010617852">
        <ele>46.280000000000001</ele>
        <time>2026-07-10T11:43:21Z</time>
      </trkpt>
      <trkpt lat="53.224339988082647" lon="-4.147875979542732">
        <ele>46.280000000000001</ele>
        <time>2026-07-10T11:43:22Z</time>
      </trkpt>
      <trkpt lat="53.224386004731059" lon="-4.147752011194825">
        <ele>45.799999999999997</ele>
        <time>2026-07-10T11:43:23Z</time>
      </trkpt>
      <trkpt lat="53.224445013329387" lon="-4.14761102758348">
        <ele>45.799999999999997</ele>
        <time>2026-07-10T11:43:24Z</time>
      </trkpt>
      <trkpt lat="53.225240958854556" lon="-4.145879996940494">
        <ele>47.240000000000002</ele>
        <time>2026-07-10T11:43:34Z</time>
      </trkpt>
      <trkpt lat="53.226202027872205" lon="-4.143553012982011">
        <ele>52.530000000000001</ele>
        <time>2026-07-10T11:43:45Z</time>
      </trkpt>
      <trkpt lat="53.227254962548614" lon="-4.141331976279616">
        <ele>56.369999999999997</ele>
        <time>2026-07-10T11:43:57Z</time>
      </trkpt>
      <trkpt lat="53.22812701575458" lon="-4.13944797590375">
        <ele>61.18</ele>
        <time>2026-07-10T11:44:06Z</time>
      </trkpt>
      <trkpt lat="53.228321978822351" lon="-4.138868032023311">
        <ele>62.140000000000001</ele>
        <time>2026-07-10T11:44:09Z</time>
      </trkpt>
      <trkpt lat="53.228603024035692" lon="-4.137797998264432">
        <ele>61.659999999999997</ele>
        <time>2026-07-10T11:44:15Z</time>
      </trkpt>
      <trkpt lat="53.228778960183263" lon="-4.137330958619714">
        <ele>63.579999999999998</ele>
        <time>2026-07-10T11:44:18Z</time>
      </trkpt>
      <trkpt lat="53.228824976831675" lon="-4.137211013585329">
        <ele>64.069999999999993</ele>
        <time>2026-07-10T11:44:19Z</time>
      </trkpt>
      <trkpt lat="53.22883503511548" lon="-4.137010015547276">
        <ele>65.030000000000001</ele>
        <time>2026-07-10T11:44:20Z</time>
      </trkpt>
      <trkpt lat="53.228845009580255" lon="-4.136832989752293">
        <ele>65.510000000000005</ele>
        <time>2026-07-10T11:44:21Z</time>
      </trkpt>
      <trkpt lat="53.228833023458719" lon="-4.136668033897877">
        <ele>65.989999999999995</ele>
        <time>2026-07-10T11:44:22Z</time>
      </trkpt>
      <trkpt lat="53.228812990710139" lon="-4.136472987011075">
        <ele>66.469999999999999</ele>
        <time>2026-07-10T11:44:23Z</time>
      </trkpt>
      <trkpt lat="53.22879203595221" lon="-4.136279029771686">
        <ele>66.950000000000003</ele>
        <time>2026-07-10T11:44:24Z</time>
      </trkpt>
      <trkpt lat="53.228767979890108" lon="-4.136082977056503">
        <ele>66.950000000000003</ele>
        <time>2026-07-10T11:44:25Z</time>
      </trkpt>
      <trkpt lat="53.228746019303799" lon="-4.135892959311605">
        <ele>66.950000000000003</ele>
        <time>2026-07-10T11:44:26Z</time>
      </trkpt>
      <trkpt lat="53.228446030989289" lon="-4.134945971891284">
        <ele>65.510000000000005</ele>
        <time>2026-07-10T11:44:32Z</time>
      </trkpt>
      <trkpt lat="53.228390039876103" lon="-4.134810017421842">
        <ele>65.030000000000001</ele>
        <time>2026-07-10T11:44:33Z</time>
      </trkpt>
      <trkpt lat="53.228263976052403" lon="-4.134540036320686">
        <ele>64.549999999999997</ele>
        <time>2026-07-10T11:44:36Z</time>
      </trkpt>
      <trkpt lat="53.228231035172939" lon="-4.134486978873611">
        <ele>64.069999999999993</ele>
        <time>2026-07-10T11:44:37Z</time>
      </trkpt>
      <trkpt lat="53.228155011311173" lon="-4.134364016354084">
        <ele>63.100000000000001</ele>
        <time>2026-07-10T11:44:45Z</time>
      </trkpt>
      <trkpt lat="53.227940015494823" lon="-4.134143991395831">
        <ele>62.619999999999997</ele>
        <time>2026-07-10T11:44:51Z</time>
      </trkpt>
      <trkpt lat="53.227881006896496" lon="-4.134099986404181">
        <ele>62.619999999999997</ele>
        <time>2026-07-10T11:44:52Z</time>
      </trkpt>
      <trkpt lat="53.227801965549588" lon="-4.134052963927388">
        <ele>62.619999999999997</ele>
        <time>2026-07-10T11:44:53Z</time>
      </trkpt>
      <trkpt lat="53.227728959172964" lon="-4.134046006947756">
        <ele>63.100000000000001</ele>
        <time>2026-07-10T11:44:54Z</time>
      </trkpt>
      <trkpt lat="53.227661987766623" lon="-4.134038966149092">
        <ele>63.100000000000001</ele>
        <time>2026-07-10T11:44:55Z</time>
      </trkpt>
      <trkpt lat="53.227609014138579" lon="-4.134042989462614">
        <ele>63.579999999999998</ele>
        <time>2026-07-10T11:44:56Z</time>
      </trkpt>
      <trkpt lat="53.227560985833406" lon="-4.134068973362446">
        <ele>63.579999999999998</ele>
        <time>2026-07-10T11:44:57Z</time>
      </trkpt>
      <trkpt lat="53.227513041347265" lon="-4.134095041081309">
        <ele>63.579999999999998</ele>
        <time>2026-07-10T11:44:58Z</time>
      </trkpt>
      <trkpt lat="53.227463001385331" lon="-4.134122030809522">
        <ele>64.069999999999993</ele>
        <time>2026-07-10T11:44:59Z</time>
      </trkpt>
      <trkpt lat="53.227411033585668" lon="-4.134151032194495">
        <ele>64.069999999999993</ele>
        <time>2026-07-10T11:45:00Z</time>
      </trkpt>
      <trkpt lat="53.227354036644101" lon="-4.134181039407849">
        <ele>64.069999999999993</ele>
        <time>2026-07-10T11:45:01Z</time>
      </trkpt>
      <trkpt lat="53.227228978648782" lon="-4.13424801081419">
        <ele>64.069999999999993</ele>
        <time>2026-07-10T11:45:03Z</time>
      </trkpt>
      <trkpt lat="53.227158989757299" lon="-4.134284975007176">
        <ele>63.579999999999998</ele>
        <time>2026-07-10T11:45:04Z</time>
      </trkpt>
      <trkpt lat="53.227093024179339" lon="-4.134321017190814">
        <ele>63.579999999999998</ele>
        <time>2026-07-10T11:45:05Z</time>
      </trkpt>
      <trkpt lat="53.227027980610728" lon="-4.134352030232549">
        <ele>63.579999999999998</ele>
        <time>2026-07-10T11:45:06Z</time>
      </trkpt>
      <trkpt lat="53.226962015032768" lon="-4.134382037445903">
        <ele>63.579999999999998</ele>
        <time>2026-07-10T11:45:07Z</time>
      </trkpt>
      <trkpt lat="53.226895965635777" lon="-4.134412966668606">
        <ele>63.579999999999998</ele>
        <time>2026-07-10T11:45:08Z</time>
      </trkpt>
      <trkpt lat="53.226742995902896" lon="-4.13448597304523">
        <ele>64.069999999999993</ele>
        <time>2026-07-10T11:45:10Z</time>
      </trkpt>
      <trkpt lat="53.226706031709909" lon="-4.134514974430203">
        <ele>64.549999999999997</ele>
        <time>2026-07-10T11:45:11Z</time>
      </trkpt>
      <trkpt lat="53.226654985919595" lon="-4.134554034098983">
        <ele>65.030000000000001</ele>
        <time>2026-07-10T11:45:12Z</time>
      </trkpt>
      <trkpt lat="53.226031959056854" lon="-4.134841030463576">
        <ele>66.469999999999999</ele>
        <time>2026-07-10T11:45:23Z</time>
      </trkpt>
      <trkpt lat="53.224979024380445" lon="-4.135351991280913">
        <ele>59.740000000000002</ele>
        <time>2026-07-10T11:45:35Z</time>
      </trkpt>
      <trkpt lat="53.22404301725328" lon="-4.135459028184414">
        <ele>53.969999999999999</ele>
        <time>2026-07-10T11:45:45Z</time>
      </trkpt>
      <trkpt lat="53.22340196929872" lon="-4.135201033204794">
        <ele>48.68</ele>
        <time>2026-07-10T11:45:53Z</time>
      </trkpt>
      <trkpt lat="53.223369028419256" lon="-4.13512903265655">
        <ele>48.200000000000003</ele>
        <time>2026-07-10T11:45:54Z</time>
      </trkpt>
      <trkpt lat="53.223339021205902" lon="-4.135067006573081">
        <ele>47.719999999999999</ele>
        <time>2026-07-10T11:45:55Z</time>
      </trkpt>
      <trkpt lat="53.223288981243968" lon="-4.134958041831851">
        <ele>47.240000000000002</ele>
        <time>2026-07-10T11:45:56Z</time>
      </trkpt>
      <trkpt lat="53.223322005942464" lon="-4.134900961071253">
        <ele>46.759999999999998</ele>
        <time>2026-07-10T11:45:57Z</time>
      </trkpt>
      <trkpt lat="53.223366010934114" lon="-4.13482703268528">
        <ele>46.759999999999998</ele>
        <time>2026-07-10T11:45:58Z</time>
      </trkpt>
      <trkpt lat="53.223417978733778" lon="-4.134740028530359">
        <ele>46.280000000000001</ele>
        <time>2026-07-10T11:45:59Z</time>
      </trkpt>
      <trkpt lat="53.223477993160486" lon="-4.134639026597142">
        <ele>45.799999999999997</ele>
        <time>2026-07-10T11:46:00Z</time>
      </trkpt>
      <trkpt lat="53.223539013415575" lon="-4.134537018835545">
        <ele>44.840000000000003</ele>
        <time>2026-07-10T11:46:01Z</time>
      </trkpt>
      <trkpt lat="53.224349040538073" lon="-4.133267998695374">
        <ele>34.740000000000002</ele>
        <time>2026-07-10T11:46:15Z</time>
      </trkpt>
      <trkpt lat="53.224397990852594" lon="-4.133188035339117">
        <ele>34.259999999999998</ele>
        <time>2026-07-10T11:46:16Z</time>
      </trkpt>
      <trkpt lat="53.224550960585475" lon="-4.132941020652652">
        <ele>33.299999999999997</ele>
        <time>2026-07-10T11:46:20Z</time>
      </trkpt>
      <trkpt lat="53.224588008597493" lon="-4.132881006225944">
        <ele>33.299999999999997</ele>
        <time>2026-07-10T11:46:21Z</time>
      </trkpt>
      <trkpt lat="53.224892020225525" lon="-4.132255967706442">
        <ele>29.940000000000001</ele>
        <time>2026-07-10T11:46:32Z</time>
      </trkpt>
      <trkpt lat="53.224924961104989" lon="-4.132182961329818">
        <ele>29.460000000000001</ele>
        <time>2026-07-10T11:46:33Z</time>
      </trkpt>
      <trkpt lat="53.225007019937038" lon="-4.13212101906538">
        <ele>28.98</ele>
        <time>2026-07-10T11:46:34Z</time>
      </trkpt>
      <trkpt lat="53.225048007443547" lon="-4.132104003801942">
        <ele>28.02</ele>
        <time>2026-07-10T11:46:35Z</time>
      </trkpt>
      <trkpt lat="53.225159989669919" lon="-4.132098974660039">
        <ele>27.530000000000001</ele>
        <time>2026-07-10T11:46:36Z</time>
      </trkpt>
      <trkpt lat="53.225221009925008" lon="-4.132015993818641">
        <ele>27.050000000000001</ele>
        <time>2026-07-10T11:46:37Z</time>
      </trkpt>
      <trkpt lat="53.225287981331348" lon="-4.131926978006959">
        <ele>27.050000000000001</ele>
        <time>2026-07-10T11:46:38Z</time>
      </trkpt>
      <trkpt lat="53.225357970222831" lon="-4.131835028529167">
        <ele>27.050000000000001</ele>
        <time>2026-07-10T11:46:39Z</time>
      </trkpt>
      <trkpt lat="53.226074036210775" lon="-4.130879994481802">
        <ele>25.609999999999999</ele>
        <time>2026-07-10T11:46:50Z</time>
      </trkpt>
      <trkpt lat="53.226435966789722" lon="-4.130399962887168">
        <ele>24.649999999999999</ele>
        <time>2026-07-10T11:46:55Z</time>
      </trkpt>
      <trkpt lat="53.226503022015095" lon="-4.130311030894518">
        <ele>25.129999999999999</ele>
        <time>2026-07-10T11:46:56Z</time>
      </trkpt>
      <trkpt lat="53.227319000288844" lon="-4.12917997688055">
        <ele>27.050000000000001</ele>
        <time>2026-07-10T11:47:08Z</time>
      </trkpt>
      <trkpt lat="53.227388989180326" lon="-4.129077969118953">
        <ele>27.530000000000001</ele>
        <time>2026-07-10T11:47:09Z</time>
      </trkpt>
      <trkpt lat="53.228144031018019" lon="-4.127933001145721">
        <ele>27.530000000000001</ele>
        <time>2026-07-10T11:47:21Z</time>
      </trkpt>
      <trkpt lat="53.228509984910488" lon="-4.127276027575135">
        <ele>26.57</ele>
        <time>2026-07-10T11:47:30Z</time>
      </trkpt>
      <trkpt lat="53.228660020977259" lon="-4.126953994855285">
        <ele>25.609999999999999</ele>
        <time>2026-07-10T11:47:39Z</time>
      </trkpt>
      <trkpt lat="53.228725986555219" lon="-4.12681401707232">
        <ele>24.649999999999999</ele>
        <time>2026-07-10T11:47:42Z</time>
      </trkpt>
      <trkpt lat="53.228760017082095" lon="-4.126740004867315">
        <ele>24.649999999999999</ele>
        <time>2026-07-10T11:47:43Z</time>
      </trkpt>
      <trkpt lat="53.228839980438352" lon="-4.126633973792195">
        <ele>25.129999999999999</ele>
        <time>2026-07-10T11:47:45Z</time>
      </trkpt>
      <trkpt lat="53.228888008743525" lon="-4.126570019870997">
        <ele>25.129999999999999</ele>
        <time>2026-07-10T11:47:46Z</time>
      </trkpt>
      <trkpt lat="53.228936037048697" lon="-4.126505982130766">
        <ele>24.649999999999999</ele>
        <time>2026-07-10T11:47:47Z</time>
      </trkpt>
      <trkpt lat="53.228953974321485" lon="-4.126482009887695">
        <ele>24.649999999999999</ele>
        <time>2026-07-10T11:47:48Z</time>
      </trkpt>
      <trkpt lat="53.229081965982914" lon="-4.126353012397885">
        <ele>24.649999999999999</ele>
        <time>2026-07-10T11:47:49Z</time>
      </trkpt>
      <trkpt lat="53.229731982573867" lon="-4.125915979966521">
        <ele>21.77</ele>
        <time>2026-07-10T11:47:59Z</time>
      </trkpt>
      <trkpt lat="53.230116963386536" lon="-4.125650022178888">
        <ele>20.32</ele>
        <time>2026-07-10T11:48:04Z</time>
      </trkpt>
      <trkpt lat="53.230197010561824" lon="-4.125596964731813">
        <ele>20.32</ele>
        <time>2026-07-10T11:48:05Z</time>
      </trkpt>
      <trkpt lat="53.230580985546112" lon="-4.12535103969276">
        <ele>19.359999999999999</ele>
        <time>2026-07-10T11:48:10Z</time>
      </trkpt>
      <trkpt lat="53.230755999684334" lon="-4.12524500861764">
        <ele>18.399999999999999</ele>
        <time>2026-07-10T11:48:12Z</time>
      </trkpt>
      <trkpt lat="53.230935037136078" lon="-4.125146018341184">
        <ele>17.440000000000001</ele>
        <time>2026-07-10T11:48:14Z</time>
      </trkpt>
      <trkpt lat="53.231699969619513" lon="-4.124658023938537">
        <ele>16</ele>
        <time>2026-07-10T11:48:23Z</time>
      </trkpt>
      <trkpt lat="53.23209903202951" lon="-4.124218979850411">
        <ele>16</ele>
        <time>2026-07-10T11:48:28Z</time>
      </trkpt>
      <trkpt lat="53.232881985604763" lon="-4.123504003509879">
        <ele>16</ele>
        <time>2026-07-10T11:48:38Z</time>
      </trkpt>
      <trkpt lat="53.233817992731929" lon="-4.122905032709241">
        <ele>13.119999999999999</ele>
        <time>2026-07-10T11:48:50Z</time>
      </trkpt>
      <trkpt lat="53.233931986615062" lon="-4.122791038826108">
        <ele>12.630000000000001</ele>
        <time>2026-07-10T11:48:52Z</time>
      </trkpt>
      <trkpt lat="53.233972974121571" lon="-4.122697999700904">
        <ele>12.630000000000001</ele>
        <time>2026-07-10T11:48:53Z</time>
      </trkpt>
      <trkpt lat="53.234017984941602" lon="-4.122598003596067">
        <ele>12.630000000000001</ele>
        <time>2026-07-10T11:48:54Z</time>
      </trkpt>
      <trkpt lat="53.234026031568646" lon="-4.12249599583447">
        <ele>13.119999999999999</ele>
        <time>2026-07-10T11:48:55Z</time>
      </trkpt>
      <trkpt lat="53.234039023518562" lon="-4.122341014444828">
        <ele>12.630000000000001</ele>
        <time>2026-07-10T11:48:56Z</time>
      </trkpt>
      <trkpt lat="53.234030976891518" lon="-4.122232971712947">
        <ele>12.630000000000001</ele>
        <time>2026-07-10T11:48:57Z</time>
      </trkpt>
      <trkpt lat="53.233955958858132" lon="-4.121341975405812">
        <ele>12.15</ele>
        <time>2026-07-10T11:49:03Z</time>
      </trkpt>
      <trkpt lat="53.233941961079836" lon="-4.121201997622848">
        <ele>11.67</ele>
        <time>2026-07-10T11:49:04Z</time>
      </trkpt>
      <trkpt lat="53.233931986615062" lon="-4.121095966547728">
        <ele>11.67</ele>
        <time>2026-07-10T11:49:05Z</time>
      </trkpt>
      <trkpt lat="53.233869960531592" lon="-4.12092799320817">
        <ele>11.19</ele>
        <time>2026-07-10T11:49:07Z</time>
      </trkpt>
      <trkpt lat="53.233671979978681" lon="-4.120461959391832">
        <ele>10.710000000000001</ele>
        <time>2026-07-10T11:49:12Z</time>
      </trkpt>
      <trkpt lat="53.232700014486909" lon="-4.118664041161537">
        <ele>11.19</ele>
        <time>2026-07-10T11:49:25Z</time>
      </trkpt>
      <trkpt lat="53.231734000146389" lon="-4.116548029705882">
        <ele>12.15</ele>
        <time>2026-07-10T11:49:40Z</time>
      </trkpt>
      <trkpt lat="53.231147015467286" lon="-4.115000981837511">
        <ele>19.84</ele>
        <time>2026-07-10T11:49:50Z</time>
      </trkpt>
      <trkpt lat="53.231044001877308" lon="-4.114228002727032">
        <ele>23.210000000000001</ele>
        <time>2026-07-10T11:49:55Z</time>
      </trkpt>
      <trkpt lat="53.231035033240914" lon="-4.113935977220535">
        <ele>24.170000000000002</ele>
        <time>2026-07-10T11:49:57Z</time>
      </trkpt>
      <trkpt lat="53.231035033240914" lon="-4.113780995830894">
        <ele>25.609999999999999</ele>
        <time>2026-07-10T11:49:58Z</time>
      </trkpt>
      <trkpt lat="53.231035033240914" lon="-4.113618973642588">
        <ele>26.57</ele>
        <time>2026-07-10T11:49:59Z</time>
      </trkpt>
      <trkpt lat="53.230985999107361" lon="-4.113295013085008">
        <ele>28.5</ele>
        <time>2026-07-10T11:50:01Z</time>
      </trkpt>
      <trkpt lat="53.230959009379148" lon="-4.11312997341156">
        <ele>28.98</ele>
        <time>2026-07-10T11:50:02Z</time>
      </trkpt>
      <trkpt lat="53.230917016044259" lon="-4.112975997850299">
        <ele>29.460000000000001</ele>
        <time>2026-07-10T11:50:03Z</time>
      </trkpt>
      <trkpt lat="53.230868987739086" lon="-4.112830990925431">
        <ele>29.940000000000001</ele>
        <time>2026-07-10T11:50:04Z</time>
      </trkpt>
      <trkpt lat="53.230822971090674" lon="-4.112693024799228">
        <ele>29.940000000000001</ele>
        <time>2026-07-10T11:50:05Z</time>
      </trkpt>
      <trkpt lat="53.230754993855953" lon="-4.11259001120925">
        <ele>29.940000000000001</ele>
        <time>2026-07-10T11:50:06Z</time>
      </trkpt>
      <trkpt lat="53.230679975822568" lon="-4.112480040639639">
        <ele>29.940000000000001</ele>
        <time>2026-07-10T11:50:07Z</time>
      </trkpt>
      <trkpt lat="53.230604035779834" lon="-4.112368980422616">
        <ele>29.940000000000001</ele>
        <time>2026-07-10T11:50:08Z</time>
      </trkpt>
      <trkpt lat="53.230533041059971" lon="-4.112270995974541">
        <ele>29.940000000000001</ele>
        <time>2026-07-10T11:50:09Z</time>
      </trkpt>
      <trkpt lat="53.230441007763147" lon="-4.112198995426297">
        <ele>29.940000000000001</ele>
        <time>2026-07-10T11:50:10Z</time>
      </trkpt>
      <trkpt lat="53.230356015264988" lon="-4.112133029848337">
        <ele>30.420000000000002</ele>
        <time>2026-07-10T11:50:11Z</time>
      </trkpt>
      <trkpt lat="53.23027697391808" lon="-4.112072009593248">
        <ele>30.420000000000002</ele>
        <time>2026-07-10T11:50:12Z</time>
      </trkpt>
      <trkpt lat="53.230198016390204" lon="-4.112009983509779">
        <ele>30.420000000000002</ele>
        <time>2026-07-10T11:50:13Z</time>
      </trkpt>
      <trkpt lat="53.230112018063664" lon="-4.111944017931819">
        <ele>30.420000000000002</ele>
        <time>2026-07-10T11:50:14Z</time>
      </trkpt>
      <trkpt lat="53.23001897893846" lon="-4.111874029040337">
        <ele>30.420000000000002</ele>
        <time>2026-07-10T11:50:15Z</time>
      </trkpt>
      <trkpt lat="53.229918982833624" lon="-4.111800016835332">
        <ele>30.899999999999999</ele>
        <time>2026-07-10T11:50:16Z</time>
      </trkpt>
      <trkpt lat="53.228827994316816" lon="-4.111051009967923">
        <ele>29.460000000000001</ele>
        <time>2026-07-10T11:50:26Z</time>
      </trkpt>
      <trkpt lat="53.227823004126549" lon="-4.110668040812016">
        <ele>27.050000000000001</ele>
        <time>2026-07-10T11:50:36Z</time>
      </trkpt>
      <trkpt lat="53.226462034508586" lon="-4.110333016142249">
        <ele>26.09</ele>
        <time>2026-07-10T11:50:47Z</time>
      </trkpt>
      <trkpt lat="53.224973995238543" lon="-4.110035039484501">
        <ele>34.740000000000002</ele>
        <time>2026-07-10T11:50:58Z</time>
      </trkpt>
      <trkpt lat="53.223604978993535" lon="-4.109610999003053">
        <ele>40.030000000000001</ele>
        <time>2026-07-10T11:51:08Z</time>
      </trkpt>
      <trkpt lat="53.223480004817247" lon="-4.109486024826765">
        <ele>40.509999999999998</ele>
        <time>2026-07-10T11:51:09Z</time>
      </trkpt>
      <trkpt lat="53.222996033728123" lon="-4.108983026817441">
        <ele>40.990000000000002</ele>
        <time>2026-07-10T11:51:13Z</time>
      </trkpt>
      <trkpt lat="53.222882961854339" lon="-4.108851011842489">
        <ele>40.990000000000002</ele>
        <time>2026-07-10T11:51:14Z</time>
      </trkpt>
      <trkpt lat="53.222772991284728" lon="-4.10872402600944">
        <ele>40.990000000000002</ele>
        <time>2026-07-10T11:51:15Z</time>
      </trkpt>
      <trkpt lat="53.222663020715117" lon="-4.108596034348011">
        <ele>41.469999999999999</ele>
        <time>2026-07-10T11:51:16Z</time>
      </trkpt>
      <trkpt lat="53.222550032660365" lon="-4.108469970524311">
        <ele>41.469999999999999</ele>
        <time>2026-07-10T11:51:17Z</time>
      </trkpt>
      <trkpt lat="53.22232598438859" lon="-4.108246006071568">
        <ele>41.950000000000003</ele>
        <time>2026-07-10T11:51:19Z</time>
      </trkpt>
      <trkpt lat="53.222210984677076" lon="-4.108131006360054">
        <ele>42.439999999999998</ele>
        <time>2026-07-10T11:51:20Z</time>
      </trkpt>
      <trkpt lat="53.22208802215755" lon="-4.108017012476921">
        <ele>42.920000000000002</ele>
        <time>2026-07-10T11:51:21Z</time>
      </trkpt>
      <trkpt lat="53.221949972212315" lon="-4.107943000271916">
        <ele>43.399999999999999</ele>
        <time>2026-07-10T11:51:22Z</time>
      </trkpt>
      <trkpt lat="53.221806976944208" lon="-4.107866976410151">
        <ele>43.880000000000003</ele>
        <time>2026-07-10T11:51:23Z</time>
      </trkpt>
      <trkpt lat="53.221372039988637" lon="-4.107633037492633">
        <ele>44.359999999999999</ele>
        <time>2026-07-10T11:51:26Z</time>
      </trkpt>
      <trkpt lat="53.220791006460786" lon="-4.107191981747747">
        <ele>44.840000000000003</ele>
        <time>2026-07-10T11:51:30Z</time>
      </trkpt>
      <trkpt lat="53.219948038458824" lon="-4.106100993230939">
        <ele>44.359999999999999</ele>
        <time>2026-07-10T11:51:38Z</time>
      </trkpt>
      <trkpt lat="53.21976900100708" lon="-4.105842998251319">
        <ele>44.359999999999999</ele>
        <time>2026-07-10T11:51:40Z</time>
      </trkpt>
      <trkpt lat="53.21968199685216" lon="-4.105718024075031">
        <ele>44.359999999999999</ele>
        <time>2026-07-10T11:51:41Z</time>
      </trkpt>
      <trkpt lat="53.219216968864202" lon="-4.105158029124141">
        <ele>43.880000000000003</ele>
        <time>2026-07-10T11:51:47Z</time>
      </trkpt>
      <trkpt lat="53.218601988628507" lon="-4.104056982323527">
        <ele>43.880000000000003</ele>
        <time>2026-07-10T11:51:55Z</time>
      </trkpt>
      <trkpt lat="53.218418005853891" lon="-4.103780966252089">
        <ele>43.880000000000003</ele>
        <time>2026-07-10T11:51:57Z</time>
      </trkpt>
      <trkpt lat="53.218331001698971" lon="-4.103649035096169">
        <ele>43.880000000000003</ele>
        <time>2026-07-10T11:51:58Z</time>
      </trkpt>
      <trkpt lat="53.217437993735075" lon="-4.10234397277236">
        <ele>46.280000000000001</ele>
        <time>2026-07-10T11:52:09Z</time>
      </trkpt>
      <trkpt lat="53.217052007094026" lon="-4.101971983909607">
        <ele>46.759999999999998</ele>
        <time>2026-07-10T11:52:15Z</time>
      </trkpt>
      <trkpt lat="53.217004984617233" lon="-4.101933008059859">
        <ele>46.759999999999998</ele>
        <time>2026-07-10T11:52:16Z</time>
      </trkpt>
      <trkpt lat="53.216980006545782" lon="-4.101912975311279">
        <ele>46.759999999999998</ele>
        <time>2026-07-10T11:52:17Z</time>
      </trkpt>
      <trkpt lat="53.216936001554132" lon="-4.101711977273226">
        <ele>46.759999999999998</ele>
        <time>2026-07-10T11:52:18Z</time>
      </trkpt>
      <trkpt lat="53.216915968805552" lon="-4.101697979494929">
        <ele>47.240000000000002</ele>
        <time>2026-07-10T11:52:19Z</time>
      </trkpt>
      <trkpt lat="53.216767022386193" lon="-4.101788001134992">
        <ele>47.719999999999999</ele>
        <time>2026-07-10T11:52:20Z</time>
      </trkpt>
      <trkpt lat="53.216689992696047" lon="-4.101756988093257">
        <ele>48.200000000000003</ele>
        <time>2026-07-10T11:52:21Z</time>
      </trkpt>
      <trkpt lat="53.216034024953842" lon="-4.101536963135004">
        <ele>49.649999999999999</ele>
        <time>2026-07-10T11:52:27Z</time>
      </trkpt>
      <trkpt lat="53.214799035340548" lon="-4.101775009185076">
        <ele>53.969999999999999</ele>
        <time>2026-07-10T11:52:35Z</time>
      </trkpt>
      <trkpt lat="53.213466983288527" lon="-4.102846970781684">
        <ele>59.259999999999998</ele>
        <time>2026-07-10T11:52:44Z</time>
      </trkpt>
      <trkpt lat="53.212651005014777" lon="-4.103800999000669">
        <ele>65.989999999999995</ele>
        <time>2026-07-10T11:52:52Z</time>
      </trkpt>
      <trkpt lat="53.212430980056524" lon="-4.103800999000669">
        <ele>66.469999999999999</ele>
        <time>2026-07-10T11:52:53Z</time>
      </trkpt>
      <trkpt lat="53.211616007611156" lon="-4.104467025026679">
        <ele>71.269999999999996</ele>
        <time>2026-07-10T11:53:02Z</time>
      </trkpt>
      <trkpt lat="53.210268029943109" lon="-4.105838974937797">
        <ele>80.890000000000001</ele>
        <time>2026-07-10T11:53:12Z</time>
      </trkpt>
      <trkpt lat="53.209106968715787" lon="-4.107362972572446">
        <ele>87.620000000000005</ele>
        <time>2026-07-10T11:53:20Z</time>
      </trkpt>
      <trkpt lat="53.208006005734205" lon="-4.108119020238519">
        <ele>91.939999999999998</ele>
        <time>2026-07-10T11:53:27Z</time>
      </trkpt>
      <trkpt lat="53.206821978092194" lon="-4.108218010514975">
        <ele>91.939999999999998</ele>
        <time>2026-07-10T11:53:34Z</time>
      </trkpt>
      <trkpt lat="53.205855963751674" lon="-4.107756000012159">
        <ele>88.099999999999994</ele>
        <time>2026-07-10T11:53:41Z</time>
      </trkpt>
      <trkpt lat="53.205758985131979" lon="-4.107625996693969">
        <ele>87.620000000000005</ele>
        <time>2026-07-10T11:53:42Z</time>
      </trkpt>
      <trkpt lat="53.205681033432484" lon="-4.107513008639216">
        <ele>86.659999999999997</ele>
        <time>2026-07-10T11:53:43Z</time>
      </trkpt>
      <trkpt lat="53.205612972378731" lon="-4.107414018362761">
        <ele>86.180000000000007</ele>
        <time>2026-07-10T11:53:44Z</time>
      </trkpt>
      <trkpt lat="53.205590005964041" lon="-4.107294995337725">
        <ele>85.689999999999998</ele>
        <time>2026-07-10T11:53:45Z</time>
      </trkpt>
      <trkpt lat="53.205576008185744" lon="-4.107210002839565">
        <ele>85.209999999999994</ele>
        <time>2026-07-10T11:53:46Z</time>
      </trkpt>
      <trkpt lat="53.205563016235828" lon="-4.107125010341406">
        <ele>84.25</ele>
        <time>2026-07-10T11:53:47Z</time>
      </trkpt>
      <trkpt lat="53.20554600097239" lon="-4.107023002579808">
        <ele>83.769999999999996</ele>
        <time>2026-07-10T11:53:48Z</time>
      </trkpt>
      <trkpt lat="53.20552202872932" lon="-4.106870032846928">
        <ele>83.290000000000006</ele>
        <time>2026-07-10T11:53:49Z</time>
      </trkpt>
      <trkpt lat="53.20554499514401" lon="-4.106686972081661">
        <ele>83.290000000000006</ele>
        <time>2026-07-10T11:53:50Z</time>
      </trkpt>
      <trkpt lat="53.20558900013566" lon="-4.106507012620568">
        <ele>82.810000000000002</ele>
        <time>2026-07-10T11:53:51Z</time>
      </trkpt>
      <trkpt lat="53.205687990412116" lon="-4.106099987402558">
        <ele>81.849999999999994</ele>
        <time>2026-07-10T11:53:53Z</time>
      </trkpt>
      <trkpt lat="53.205857975408435" lon="-4.105655997991562">
        <ele>80.890000000000001</ele>
        <time>2026-07-10T11:53:55Z</time>
      </trkpt>
      <trkpt lat="53.205959983170033" lon="-4.105418035760522">
        <ele>79.930000000000007</ele>
        <time>2026-07-10T11:53:56Z</time>
      </trkpt>
      <trkpt lat="53.2069649733603" lon="-4.103191969916225">
        <ele>71.269999999999996</ele>
        <time>2026-07-10T11:54:04Z</time>
      </trkpt>
      <trkpt lat="53.208205997943878" lon="-4.099741978570819">
        <ele>60.700000000000003</ele>
        <time>2026-07-10T11:54:14Z</time>
      </trkpt>
      <trkpt lat="53.20922096259892" lon="-4.096000967547298">
        <ele>51.090000000000003</ele>
        <time>2026-07-10T11:54:23Z</time>
      </trkpt>
      <trkpt lat="53.210772033780813" lon="-4.090192979201675">
        <ele>43.399999999999999</ele>
        <time>2026-07-10T11:54:37Z</time>
      </trkpt>
      <trkpt lat="53.212352022528648" lon="-4.084452968090773">
        <ele>46.759999999999998</ele>
        <time>2026-07-10T11:54:51Z</time>
      </trkpt>
      <trkpt lat="53.213888006284833" lon="-4.079174967482686">
        <ele>52.530000000000001</ele>
        <time>2026-07-10T11:55:04Z</time>
      </trkpt>
      <trkpt lat="53.217085031792521" lon="-4.071054998785257">
        <ele>49.159999999999997</ele>
        <time>2026-07-10T11:55:32Z</time>
      </trkpt>
      <trkpt lat="53.219071961939335" lon="-4.06723503023386">
        <ele>42.439999999999998</ele>
        <time>2026-07-10T11:55:45Z</time>
      </trkpt>
      <trkpt lat="53.220773991197348" lon="-4.063925016671419">
        <ele>36.670000000000002</ele>
        <time>2026-07-10T11:55:56Z</time>
      </trkpt>
      <trkpt lat="53.222424974665046" lon="-4.060567980632186">
        <ele>33.780000000000001</ele>
        <time>2026-07-10T11:56:06Z</time>
      </trkpt>
      <trkpt lat="53.224248960614204" lon="-4.056004034355283">
        <ele>33.299999999999997</ele>
        <time>2026-07-10T11:56:18Z</time>
      </trkpt>
      <trkpt lat="53.225759966298938" lon="-4.051153007894754">
        <ele>32.82</ele>
        <time>2026-07-10T11:56:30Z</time>
      </trkpt>
      <trkpt lat="53.227235013619065" lon="-4.045761013403535">
        <ele>33.299999999999997</ele>
        <time>2026-07-10T11:56:43Z</time>
      </trkpt>
      <trkpt lat="53.22905296459794" lon="-4.03911299072206">
        <ele>35.710000000000001</ele>
        <time>2026-07-10T11:56:59Z</time>
      </trkpt>
      <trkpt lat="53.230759017169476" lon="-4.03290200047195">
        <ele>39.07</ele>
        <time>2026-07-10T11:57:14Z</time>
      </trkpt>
      <trkpt lat="53.232923978939652" lon="-4.025014964863658">
        <ele>37.149999999999999</ele>
        <time>2026-07-10T11:57:33Z</time>
      </trkpt>
      <trkpt lat="53.234395002946258" lon="-4.020116999745369">
        <ele>33.780000000000001</ele>
        <time>2026-07-10T11:57:45Z</time>
      </trkpt>
      <trkpt lat="53.236343041062355" lon="-4.013570984825492">
        <ele>31.379999999999999</ele>
        <time>2026-07-10T11:58:01Z</time>
      </trkpt>
      <trkpt lat="53.238440025597811" lon="-4.008739991113544">
        <ele>27.530000000000001</ele>
        <time>2026-07-10T11:58:14Z</time>
      </trkpt>
      <trkpt lat="53.239949019625783" lon="-4.00535898283124">
        <ele>22.73</ele>
        <time>2026-07-10T11:58:24Z</time>
      </trkpt>
      <trkpt lat="53.241505958139896" lon="-4.002334959805012">
        <ele>22.25</ele>
        <time>2026-07-10T11:58:34Z</time>
      </trkpt>
      <trkpt lat="53.243693970143795" lon="-3.999269027262926">
        <ele>23.210000000000001</ele>
        <time>2026-07-10T11:58:46Z</time>
      </trkpt>
      <trkpt lat="53.245616024360061" lon="-3.997239014133811">
        <ele>26.57</ele>
        <time>2026-07-10T11:58:55Z</time>
      </trkpt>
      <trkpt lat="53.248251965269446" lon="-3.994839023798704">
        <ele>19.84</ele>
        <time>2026-07-10T11:59:07Z</time>
      </trkpt>
      <trkpt lat="53.250518012791872" lon="-3.992825020104647">
        <ele>14.56</ele>
        <time>2026-07-10T11:59:18Z</time>
      </trkpt>
      <trkpt lat="53.252335963770747" lon="-3.990795006975532">
        <ele>13.6</ele>
        <time>2026-07-10T11:59:27Z</time>
      </trkpt>
      <trkpt lat="53.254339993000031" lon="-3.987723039463162">
        <ele>16</ele>
        <time>2026-07-10T11:59:37Z</time>
      </trkpt>
      <trkpt lat="53.256030036136508" lon="-3.984615029767156">
        <ele>18.399999999999999</ele>
        <time>2026-07-10T11:59:46Z</time>
      </trkpt>
      <trkpt lat="53.257748996838927" lon="-3.980648964643478">
        <ele>20.809999999999999</ele>
        <time>2026-07-10T11:59:57Z</time>
      </trkpt>
      <trkpt lat="53.258628007024527" lon="-3.977904981002212">
        <ele>18.399999999999999</ele>
        <time>2026-07-10T12:00:05Z</time>
      </trkpt>
      <trkpt lat="53.259266959503293" lon="-3.975784024223685">
        <ele>14.56</ele>
        <time>2026-07-10T12:00:13Z</time>
      </trkpt>
      <trkpt lat="53.259975984692574" lon="-3.97332301363349">
        <ele>16.960000000000001</ele>
        <time>2026-07-10T12:00:24Z</time>
      </trkpt>
      <trkpt lat="53.260212019085884" lon="-3.972666962072253">
        <ele>18.879999999999999</ele>
        <time>2026-07-10T12:00:28Z</time>
      </trkpt>
      <trkpt lat="53.260302962735295" lon="-3.972522960975766">
        <ele>19.359999999999999</ele>
        <time>2026-07-10T12:00:29Z</time>
      </trkpt>
      <trkpt lat="53.260368006303906" lon="-3.972308970987797">
        <ele>19.359999999999999</ele>
        <time>2026-07-10T12:00:30Z</time>
      </trkpt>
      <trkpt lat="53.260404970496893" lon="-3.972166981548071">
        <ele>19.359999999999999</ele>
        <time>2026-07-10T12:00:31Z</time>
      </trkpt>
      <trkpt lat="53.260458027943969" lon="-3.971961038187146">
        <ele>19.359999999999999</ele>
        <time>2026-07-10T12:00:32Z</time>
      </trkpt>
      <trkpt lat="53.260524999350309" lon="-3.971751993522048">
        <ele>19.359999999999999</ele>
        <time>2026-07-10T12:00:33Z</time>
      </trkpt>
      <trkpt lat="53.260609991848469" lon="-3.971567004919052">
        <ele>19.359999999999999</ele>
        <time>2026-07-10T12:00:34Z</time>
      </trkpt>
      <trkpt lat="53.261898038908839" lon="-3.96894003264606">
        <ele>18.879999999999999</ele>
        <time>2026-07-10T12:00:47Z</time>
      </trkpt>
      <trkpt lat="53.263094974681735" lon="-3.966160006821156">
        <ele>20.809999999999999</ele>
        <time>2026-07-10T12:00:58Z</time>
      </trkpt>
      <trkpt lat="53.263882035389543" lon="-3.963059959933162">
        <ele>29.460000000000001</ele>
        <time>2026-07-10T12:01:08Z</time>
      </trkpt>
      <trkpt lat="53.264953996986151" lon="-3.958467012271285">
        <ele>42.439999999999998</ele>
        <time>2026-07-10T12:01:22Z</time>
      </trkpt>
      <trkpt lat="53.265822026878595" lon="-3.955548014491797">
        <ele>41.469999999999999</ele>
        <time>2026-07-10T12:01:32Z</time>
      </trkpt>
      <trkpt lat="53.266403982415795" lon="-3.952497001737356">
        <ele>40.990000000000002</ele>
        <time>2026-07-10T12:01:43Z</time>
      </trkpt>
      <trkpt lat="53.266468020156026" lon="-3.952245963737369">
        <ele>41.469999999999999</ele>
        <time>2026-07-10T12:01:44Z</time>
      </trkpt>
      <trkpt lat="53.266525017097592" lon="-3.952021999284625">
        <ele>41.950000000000003</ele>
        <time>2026-07-10T12:01:45Z</time>
      </trkpt>
      <trkpt lat="53.266574973240495" lon="-3.951823012903333">
        <ele>42.439999999999998</ele>
        <time>2026-07-10T12:01:46Z</time>
      </trkpt>
      <trkpt lat="53.266671029850841" lon="-3.951447000727058">
        <ele>43.399999999999999</ele>
        <time>2026-07-10T12:01:48Z</time>
      </trkpt>
      <trkpt lat="53.266719980165362" lon="-3.951254971325398">
        <ele>43.880000000000003</ele>
        <time>2026-07-10T12:01:49Z</time>
      </trkpt>
      <trkpt lat="53.266888959333301" lon="-3.949794005602598">
        <ele>46.759999999999998</ele>
        <time>2026-07-10T12:01:56Z</time>
      </trkpt>
      <trkpt lat="53.266886025667191" lon="-3.949559982866049">
        <ele>46.759999999999998</ele>
        <time>2026-07-10T12:01:57Z</time>
      </trkpt>
      <trkpt lat="53.266876973211765" lon="-3.948844000697136">
        <ele>47.719999999999999</ele>
        <time>2026-07-10T12:02:00Z</time>
      </trkpt>
      <trkpt lat="53.266921984031796" lon="-3.947183964774013">
        <ele>48.68</ele>
        <time>2026-07-10T12:02:08Z</time>
      </trkpt>
      <trkpt lat="53.266859035938978" lon="-3.945235004648566">
        <ele>44.359999999999999</ele>
        <time>2026-07-10T12:02:16Z</time>
      </trkpt>
      <trkpt lat="53.266909997910261" lon="-3.9424719940871">
        <ele>41.950000000000003</ele>
        <time>2026-07-10T12:02:26Z</time>
      </trkpt>
      <trkpt lat="53.267474016174674" lon="-3.939632959663868">
        <ele>32.340000000000003</ele>
        <time>2026-07-10T12:02:36Z</time>
      </trkpt>
      <trkpt lat="53.267972990870476" lon="-3.936123959720135">
        <ele>20.32</ele>
        <time>2026-07-10T12:02:47Z</time>
      </trkpt>
      <trkpt lat="53.268683021888137" lon="-3.932365011423826">
        <ele>15.52</ele>
        <time>2026-07-10T12:02:58Z</time>
      </trkpt>
      <trkpt lat="53.269832013174891" lon="-3.927524965256453">
        <ele>15.039999999999999</ele>
        <time>2026-07-10T12:03:12Z</time>
      </trkpt>
      <trkpt lat="53.271502023562789" lon="-3.922016965225339">
        <ele>20.32</ele>
        <time>2026-07-10T12:03:28Z</time>
      </trkpt>
      <trkpt lat="53.272909009829164" lon="-3.918714998289943">
        <ele>22.73</ele>
        <time>2026-07-10T12:03:39Z</time>
      </trkpt>
      <trkpt lat="53.274221029132605" lon="-3.915343964472413">
        <ele>26.57</ele>
        <time>2026-07-10T12:03:50Z</time>
      </trkpt>
      <trkpt lat="53.275183020159602" lon="-3.912008972838521">
        <ele>28.5</ele>
        <time>2026-07-10T12:04:02Z</time>
      </trkpt>
      <trkpt lat="53.275563977658749" lon="-3.911129962652922">
        <ele>26.57</ele>
        <time>2026-07-10T12:04:07Z</time>
      </trkpt>
      <trkpt lat="53.275755001232028" lon="-3.910760991275311">
        <ele>25.609999999999999</ele>
        <time>2026-07-10T12:04:11Z</time>
      </trkpt>
      <trkpt lat="53.275832030922174" lon="-3.910641968250275">
        <ele>24.649999999999999</ele>
        <time>2026-07-10T12:04:14Z</time>
      </trkpt>
      <trkpt lat="53.275854997336864" lon="-3.910616990178824">
        <ele>24.649999999999999</ele>
        <time>2026-07-10T12:04:15Z</time>
      </trkpt>
      <trkpt lat="53.275874024257064" lon="-3.910597041249275">
        <ele>24.170000000000002</ele>
        <time>2026-07-10T12:04:16Z</time>
      </trkpt>
      <trkpt lat="53.27605901286006" lon="-3.910396965220571">
        <ele>23.210000000000001</ele>
        <time>2026-07-10T12:04:20Z</time>
      </trkpt>
      <trkpt lat="53.276117015630007" lon="-3.910275008529425">
        <ele>22.73</ele>
        <time>2026-07-10T12:04:21Z</time>
      </trkpt>
      <trkpt lat="53.276152973994613" lon="-3.910102006047964">
        <ele>22.25</ele>
        <time>2026-07-10T12:04:22Z</time>
      </trkpt>
      <trkpt lat="53.276265040040016" lon="-3.909752983599901">
        <ele>21.77</ele>
        <time>2026-07-10T12:04:24Z</time>
      </trkpt>
      <trkpt lat="53.276332011446357" lon="-3.909545028582215">
        <ele>21.289999999999999</ele>
        <time>2026-07-10T12:04:25Z</time>
      </trkpt>
      <trkpt lat="53.277152013033628" lon="-3.907860014587641">
        <ele>18.399999999999999</ele>
        <time>2026-07-10T12:04:33Z</time>
      </trkpt>
      <trkpt lat="53.279002988710999" lon="-3.903919011354446">
        <ele>20.32</ele>
        <time>2026-07-10T12:04:49Z</time>
      </trkpt>
      <trkpt lat="53.280695965513587" lon="-3.900362988933921">
        <ele>18.879999999999999</ele>
        <time>2026-07-10T12:05:01Z</time>
      </trkpt>
      <trkpt lat="53.282748023048043" lon="-3.895875988528132">
        <ele>21.77</ele>
        <time>2026-07-10T12:05:15Z</time>
      </trkpt>
      <trkpt lat="53.284218963235617" lon="-3.892623977735639">
        <ele>22.25</ele>
        <time>2026-07-10T12:05:25Z</time>
      </trkpt>
      <trkpt lat="53.285350017249584" lon="-3.889828026294708">
        <ele>16.48</ele>
        <time>2026-07-10T12:05:34Z</time>
      </trkpt>
      <trkpt lat="53.286550976336002" lon="-3.8870619982481">
        <ele>17.920000000000002</ele>
        <time>2026-07-10T12:05:46Z</time>
      </trkpt>
      <trkpt lat="53.287099990993738" lon="-3.88587998226285">
        <ele>20.809999999999999</ele>
        <time>2026-07-10T12:05:52Z</time>
      </trkpt>
      <trkpt lat="53.287196969613433" lon="-3.885757019743323">
        <ele>20.809999999999999</ele>
        <time>2026-07-10T12:05:53Z</time>
      </trkpt>
      <trkpt lat="53.287287997081876" lon="-3.88564202003181">
        <ele>21.289999999999999</ele>
        <time>2026-07-10T12:05:54Z</time>
      </trkpt>
      <trkpt lat="53.287698961794376" lon="-3.885076995939016">
        <ele>23.210000000000001</ele>
        <time>2026-07-10T12:05:59Z</time>
      </trkpt>
      <trkpt lat="53.287760987877846" lon="-3.884955961257219">
        <ele>23.210000000000001</ele>
        <time>2026-07-10T12:06:00Z</time>
      </trkpt>
      <trkpt lat="53.287848997861147" lon="-3.884684974327683">
        <ele>22.73</ele>
        <time>2026-07-10T12:06:02Z</time>
      </trkpt>
      <trkpt lat="53.287894008681178" lon="-3.884543990716338">
        <ele>22.73</ele>
        <time>2026-07-10T12:06:03Z</time>
      </trkpt>
      <trkpt lat="53.28794103115797" lon="-3.884396972134709">
        <ele>22.73</ele>
        <time>2026-07-10T12:06:04Z</time>
      </trkpt>
      <trkpt lat="53.288100035861135" lon="-3.883704962208867">
        <ele>22.25</ele>
        <time>2026-07-10T12:06:08Z</time>
      </trkpt>
      <trkpt lat="53.288872009143233" lon="-3.881707973778248">
        <ele>26.57</ele>
        <time>2026-07-10T12:06:20Z</time>
      </trkpt>
      <trkpt lat="53.28899203799665" lon="-3.881477974355221">
        <ele>23.210000000000001</ele>
        <time>2026-07-10T12:06:22Z</time>
      </trkpt>
      <trkpt lat="53.289041994139552" lon="-3.881316035985947">
        <ele>20.809999999999999</ele>
        <time>2026-07-10T12:06:23Z</time>
      </trkpt>
      <trkpt lat="53.28925103880465" lon="-3.880439959466457">
        <ele>18.879999999999999</ele>
        <time>2026-07-10T12:06:28Z</time>
      </trkpt>
      <trkpt lat="53.289268976077437" lon="-3.880252037197352">
        <ele>18.879999999999999</ele>
        <time>2026-07-10T12:06:29Z</time>
      </trkpt>
      <trkpt lat="53.289261013269424" lon="-3.880053972825408">
        <ele>17.920000000000002</ele>
        <time>2026-07-10T12:06:30Z</time>
      </trkpt>
      <trkpt lat="53.28925296664238" lon="-3.879858003929257">
        <ele>17.920000000000002</ele>
        <time>2026-07-10T12:06:31Z</time>
      </trkpt>
      <trkpt lat="53.289226982742548" lon="-3.879674021154642">
        <ele>17.440000000000001</ele>
        <time>2026-07-10T12:06:32Z</time>
      </trkpt>
      <trkpt lat="53.289182977750897" lon="-3.879504036158323">
        <ele>17.440000000000001</ele>
        <time>2026-07-10T12:06:33Z</time>
      </trkpt>
      <trkpt lat="53.289139978587627" lon="-3.879336984828115">
        <ele>16.960000000000001</ele>
        <time>2026-07-10T12:06:34Z</time>
      </trkpt>
      <trkpt lat="53.289096979424357" lon="-3.879170017316937">
        <ele>16.48</ele>
        <time>2026-07-10T12:06:35Z</time>
      </trkpt>
      <trkpt lat="53.288978040218353" lon="-3.878712030127645">
        <ele>15.52</ele>
        <time>2026-07-10T12:06:38Z</time>
      </trkpt>
      <trkpt lat="53.288944009691477" lon="-3.878578003495932">
        <ele>15.52</ele>
        <time>2026-07-10T12:06:39Z</time>
      </trkpt>
      <trkpt lat="53.288910984992981" lon="-3.878451017662883">
        <ele>15.52</ele>
        <time>2026-07-10T12:06:40Z</time>
      </trkpt>
      <trkpt lat="53.288864968344569" lon="-3.878335012122989">
        <ele>15.52</ele>
        <time>2026-07-10T12:06:41Z</time>
      </trkpt>
      <trkpt lat="53.288810988888144" lon="-3.878210037946701">
        <ele>15.52</ele>
        <time>2026-07-10T12:06:42Z</time>
      </trkpt>
      <trkpt lat="53.288754997774959" lon="-3.87807902880013">
        <ele>15.52</ele>
        <time>2026-07-10T12:06:43Z</time>
      </trkpt>
      <trkpt lat="53.288579983636737" lon="-3.877668986096978">
        <ele>15.039999999999999</ele>
        <time>2026-07-10T12:06:46Z</time>
      </trkpt>
      <trkpt lat="53.288524998351932" lon="-3.877542000263929">
        <ele>15.039999999999999</ele>
        <time>2026-07-10T12:06:47Z</time>
      </trkpt>
      <trkpt lat="53.288277983665466" lon="-3.877078983932734">
        <ele>15.039999999999999</ele>
        <time>2026-07-10T12:06:51Z</time>
      </trkpt>
      <trkpt lat="53.288200031965971" lon="-3.876974964514375">
        <ele>15.039999999999999</ele>
        <time>2026-07-10T12:06:52Z</time>
      </trkpt>
      <trkpt lat="53.288125013932586" lon="-3.876874968409538">
        <ele>15.039999999999999</ele>
        <time>2026-07-10T12:06:53Z</time>
      </trkpt>
      <trkpt lat="53.287902977317572" lon="-3.876559976488352">
        <ele>15.039999999999999</ele>
        <time>2026-07-10T12:06:56Z</time>
      </trkpt>
      <trkpt lat="53.287836005911231" lon="-3.876437013968825">
        <ele>15.039999999999999</ele>
        <time>2026-07-10T12:06:57Z</time>
      </trkpt>
      <trkpt lat="53.287771968171" lon="-3.876307010650635">
        <ele>15.039999999999999</ele>
        <time>2026-07-10T12:06:58Z</time>
      </trkpt>
      <trkpt lat="53.287708014249802" lon="-3.8761689607054">
        <ele>15.52</ele>
        <time>2026-07-10T12:06:59Z</time>
      </trkpt>
      <trkpt lat="53.28764297068119" lon="-3.876028982922435">
        <ele>15.52</ele>
        <time>2026-07-10T12:07:00Z</time>
      </trkpt>
      <trkpt lat="53.287342982366681" lon="-3.875257009640336">
        <ele>16.48</ele>
        <time>2026-07-10T12:07:05Z</time>
      </trkpt>
      <trkpt lat="53.286911984905601" lon="-3.872872022911906">
        <ele>14.56</ele>
        <time>2026-07-10T12:07:17Z</time>
      </trkpt>
      <trkpt lat="53.28660998493433" lon="-3.870148994028568">
        <ele>16.48</ele>
        <time>2026-07-10T12:07:29Z</time>
      </trkpt>
      <trkpt lat="53.28656698577106" lon="-3.867409033700824">
        <ele>15.039999999999999</ele>
        <time>2026-07-10T12:07:38Z</time>
      </trkpt>
      <trkpt lat="53.286745017394423" lon="-3.862929996103048">
        <ele>17.920000000000002</ele>
        <time>2026-07-10T12:07:51Z</time>
      </trkpt>
      <trkpt lat="53.287227982655168" lon="-3.859898010268807">
        <ele>20.32</ele>
        <time>2026-07-10T12:08:00Z</time>
      </trkpt>
      <trkpt lat="53.288043038919568" lon="-3.856687992811203">
        <ele>18.879999999999999</ele>
        <time>2026-07-10T12:08:10Z</time>
      </trkpt>
      <trkpt lat="53.288831021636724" lon="-3.853201037272811">
        <ele>13.6</ele>
        <time>2026-07-10T12:08:20Z</time>
      </trkpt>
      <trkpt lat="53.28916797414422" lon="-3.850619997829199">
        <ele>12.630000000000001</ele>
        <time>2026-07-10T12:08:27Z</time>
      </trkpt>
      <trkpt lat="53.28955203294754" lon="-3.845607032999396">
        <ele>11.67</ele>
        <time>2026-07-10T12:08:40Z</time>
      </trkpt>
      <trkpt lat="53.28959503211081" lon="-3.841370986774564">
        <ele>13.6</ele>
        <time>2026-07-10T12:08:51Z</time>
      </trkpt>
      <trkpt lat="53.289471985772252" lon="-3.837267961353064">
        <ele>8.310000000000001</ele>
        <time>2026-07-10T12:09:02Z</time>
      </trkpt>
      <trkpt lat="53.28942303545773" lon="-3.836519960314035">
        <ele>7.35</ele>
        <time>2026-07-10T12:09:04Z</time>
      </trkpt>
      <trkpt lat="53.289396967738867" lon="-3.836147971451283">
        <ele>7.83</ele>
        <time>2026-07-10T12:09:05Z</time>
      </trkpt>
      <trkpt lat="53.289314992725849" lon="-3.835081961005926">
        <ele>8.310000000000001</ele>
        <time>2026-07-10T12:09:08Z</time>
      </trkpt>
      <trkpt lat="53.287758976221085" lon="-3.825012026354671">
        <ele>8.310000000000001</ele>
        <time>2026-07-10T12:09:36Z</time>
      </trkpt>
      <trkpt lat="53.287330996245146" lon="-3.823430025950074">
        <ele>8.310000000000001</ele>
        <time>2026-07-10T12:09:41Z</time>
      </trkpt>
      <trkpt lat="53.286920031532645" lon="-3.822228983044624">
        <ele>-5.15</ele>
        <time>2026-07-10T12:09:47Z</time>
      </trkpt>
      <trkpt lat="53.285553026944399" lon="-3.819654984399676">
        <ele>7.35</ele>
        <time>2026-07-10T12:09:51Z</time>
      </trkpt>
      <trkpt lat="53.284227009862661" lon="-3.817754974588752">
        <ele>14.56</ele>
        <time>2026-07-10T12:10:00Z</time>
      </trkpt>
      <trkpt lat="53.283122023567557" lon="-3.815586995333433">
        <ele>12.15</ele>
        <time>2026-07-10T12:10:08Z</time>
      </trkpt>
      <trkpt lat="53.281677989289165" lon="-3.811899041756988">
        <ele>18.399999999999999</ele>
        <time>2026-07-10T12:10:21Z</time>
      </trkpt>
      <trkpt lat="53.280911967158318" lon="-3.809055984020233">
        <ele>17.440000000000001</ele>
        <time>2026-07-10T12:10:30Z</time>
      </trkpt>
      <trkpt lat="53.280272008851171" lon="-3.805163009092212">
        <ele>14.08</ele>
        <time>2026-07-10T12:10:41Z</time>
      </trkpt>
      <trkpt lat="53.279821984469891" lon="-3.801470026373863">
        <ele>16.48</ele>
        <time>2026-07-10T12:10:52Z</time>
      </trkpt>
      <trkpt lat="53.279701033607125" lon="-3.798405015841126">
        <ele>18.399999999999999</ele>
        <time>2026-07-10T12:11:02Z</time>
      </trkpt>
      <trkpt lat="53.279924998059869" lon="-3.795293988659978">
        <ele>18.399999999999999</ele>
        <time>2026-07-10T12:11:12Z</time>
      </trkpt>
      <trkpt lat="53.280295981094241" lon="-3.793094996362925">
        <ele>16.48</ele>
        <time>2026-07-10T12:11:21Z</time>
      </trkpt>
      <trkpt lat="53.280360018834472" lon="-3.792665004730225">
        <ele>12.630000000000001</ele>
        <time>2026-07-10T12:11:27Z</time>
      </trkpt>
      <trkpt lat="53.280410980805755" lon="-3.792480016127229">
        <ele>11.67</ele>
        <time>2026-07-10T12:11:49Z</time>
      </trkpt>
      <trkpt lat="53.280447022989392" lon="-3.792368033900857">
        <ele>11.67</ele>
        <time>2026-07-10T12:11:50Z</time>
      </trkpt>
      <trkpt lat="53.280633017420769" lon="-3.791799992322922">
        <ele>12.630000000000001</ele>
        <time>2026-07-10T12:11:54Z</time>
      </trkpt>
      <trkpt lat="53.280809037387371" lon="-3.791136983782053">
        <ele>14.56</ele>
        <time>2026-07-10T12:11:58Z</time>
      </trkpt>
      <trkpt lat="53.280876008793712" lon="-3.79104201681912">
        <ele>15.039999999999999</ele>
        <time>2026-07-10T12:11:59Z</time>
      </trkpt>
      <trkpt lat="53.28095999546349" lon="-3.79099901765585">
        <ele>15.52</ele>
        <time>2026-07-10T12:12:00Z</time>
      </trkpt>
      <trkpt lat="53.281073989346623" lon="-3.790947971865535">
        <ele>16</ele>
        <time>2026-07-10T12:12:01Z</time>
      </trkpt>
      <trkpt lat="53.281158981844783" lon="-3.790943026542664">
        <ele>16.48</ele>
        <time>2026-07-10T12:12:02Z</time>
      </trkpt>
      <trkpt lat="53.281275993213058" lon="-3.790935985744">
        <ele>16.960000000000001</ele>
        <time>2026-07-10T12:12:03Z</time>
      </trkpt>
      <trkpt lat="53.282604021951556" lon="-3.790873037651181">
        <ele>27.530000000000001</ele>
        <time>2026-07-10T12:12:12Z</time>
      </trkpt>
      <trkpt lat="53.284534038975835" lon="-3.790776981040835">
        <ele>37.630000000000003</ele>
        <time>2026-07-10T12:12:22Z</time>
      </trkpt>
      <trkpt lat="53.286811988800764" lon="-3.790826015174389">
        <ele>39.549999999999997</ele>
        <time>2026-07-10T12:12:33Z</time>
      </trkpt>
      <trkpt lat="53.287837011739612" lon="-3.791687004268169">
        <ele>39.549999999999997</ele>
        <time>2026-07-10T12:12:39Z</time>
      </trkpt>
      <trkpt lat="53.288572020828724" lon="-3.793150987476111">
        <ele>43.880000000000003</ele>
        <time>2026-07-10T12:12:46Z</time>
      </trkpt>
      <trkpt lat="53.289004024118185" lon="-3.795389961451292">
        <ele>44.359999999999999</ele>
        <time>2026-07-10T12:12:55Z</time>
      </trkpt>
      <trkpt lat="53.28923000022769" lon="-3.797034993767738">
        <ele>41.469999999999999</ele>
        <time>2026-07-10T12:13:04Z</time>
      </trkpt>
      <trkpt lat="53.289254978299141" lon="-3.797184024006128">
        <ele>40.990000000000002</ele>
        <time>2026-07-10T12:13:05Z</time>
      </trkpt>
      <trkpt lat="53.289264030754566" lon="-3.797478983178735">
        <ele>40.030000000000001</ele>
        <time>2026-07-10T12:13:07Z</time>
      </trkpt>
      <trkpt lat="53.289251960813999" lon="-3.797801015898585">
        <ele>39.549999999999997</ele>
        <time>2026-07-10T12:13:09Z</time>
      </trkpt>
      <trkpt lat="53.289239974692464" lon="-3.79796396009624">
        <ele>39.549999999999997</ele>
        <time>2026-07-10T12:13:10Z</time>
      </trkpt>
      <trkpt lat="53.289270987734199" lon="-3.798179961740971">
        <ele>39.549999999999997</ele>
        <time>2026-07-10T12:13:11Z</time>
      </trkpt>
      <trkpt lat="53.289309963583946" lon="-3.798309965059161">
        <ele>39.07</ele>
        <time>2026-07-10T12:13:12Z</time>
      </trkpt>
      <trkpt lat="53.289357991889119" lon="-3.798472993075848">
        <ele>39.07</ele>
        <time>2026-07-10T12:13:13Z</time>
      </trkpt>
      <trkpt lat="53.289452958852053" lon="-3.798817992210388">
        <ele>37.630000000000003</ele>
        <time>2026-07-10T12:13:15Z</time>
      </trkpt>
      <trkpt lat="53.28948799520731" lon="-3.799017984420061">
        <ele>37.149999999999999</ele>
        <time>2026-07-10T12:13:16Z</time>
      </trkpt>
      <trkpt lat="53.28976996243" lon="-3.800998041406274">
        <ele>29.940000000000001</ele>
        <time>2026-07-10T12:13:25Z</time>
      </trkpt>
      <trkpt lat="53.290215041488409" lon="-3.803471960127354">
        <ele>19.359999999999999</ele>
        <time>2026-07-10T12:13:34Z</time>
      </trkpt>
      <trkpt lat="53.290501032024622" lon="-3.804262038320303">
        <ele>16.48</ele>
        <time>2026-07-10T12:13:37Z</time>
      </trkpt>
      <trkpt lat="53.290726002305746" lon="-3.804696975275874">
        <ele>14.56</ele>
        <time>2026-07-10T12:13:39Z</time>
      </trkpt>
      <trkpt lat="53.291418012231588" lon="-3.805455034598708">
        <ele>12.630000000000001</ele>
        <time>2026-07-10T12:13:45Z</time>
      </trkpt>
      <trkpt lat="53.291928973048925" lon="-3.80580497905612">
        <ele>13.119999999999999</ele>
        <time>2026-07-10T12:13:50Z</time>
      </trkpt>
      <trkpt lat="53.293061032891273" lon="-3.806525990366936">
        <ele>13.6</ele>
        <time>2026-07-10T12:14:02Z</time>
      </trkpt>
      <trkpt lat="53.293111994862556" lon="-3.806569995358586">
        <ele>13.6</ele>
        <time>2026-07-10T12:14:03Z</time>
      </trkpt>
      <trkpt lat="53.293240992352366" lon="-3.806612994521856">
        <ele>13.6</ele>
        <time>2026-07-10T12:14:04Z</time>
      </trkpt>
      <trkpt lat="53.294053031131625" lon="-3.806784991174936">
        <ele>13.6</ele>
        <time>2026-07-10T12:14:11Z</time>
      </trkpt>
      <trkpt lat="53.29599897377193" lon="-3.80735001526773">
        <ele>14.56</ele>
        <time>2026-07-10T12:14:24Z</time>
      </trkpt>
      <trkpt lat="53.296941015869379" lon="-3.807571968063712">
        <ele>13.6</ele>
        <time>2026-07-10T12:14:30Z</time>
      </trkpt>
      <trkpt lat="53.297103038057685" lon="-3.807589989155531">
        <ele>13.119999999999999</ele>
        <time>2026-07-10T12:14:31Z</time>
      </trkpt>
      <trkpt lat="53.29872602596879" lon="-3.807745976373553">
        <ele>13.6</ele>
        <time>2026-07-10T12:14:41Z</time>
      </trkpt>
      <trkpt lat="53.300822004675865" lon="-3.807601975277066">
        <ele>15.039999999999999</ele>
        <time>2026-07-10T12:14:53Z</time>
      </trkpt>
      <trkpt lat="53.302562003955245" lon="-3.807364013046026">
        <ele>17.920000000000002</ele>
        <time>2026-07-10T12:15:03Z</time>
      </trkpt>
      <trkpt lat="53.303449982777238" lon="-3.807628965005279">
        <ele>17.920000000000002</ele>
        <time>2026-07-10T12:15:10Z</time>
      </trkpt>
      <trkpt lat="53.303647041320801" lon="-3.807788975536823">
        <ele>19.359999999999999</ele>
        <time>2026-07-10T12:15:13Z</time>
      </trkpt>
      <trkpt lat="53.303803028538823" lon="-3.807968012988567">
        <ele>20.809999999999999</ele>
        <time>2026-07-10T12:15:16Z</time>
      </trkpt>
      <trkpt lat="53.303869999945164" lon="-3.808012017980218">
        <ele>21.77</ele>
        <time>2026-07-10T12:15:17Z</time>
      </trkpt>
      <trkpt lat="53.303952980786562" lon="-3.808050993829966">
        <ele>22.25</ele>
        <time>2026-07-10T12:15:18Z</time>
      </trkpt>
      <trkpt lat="53.30416101962328" lon="-3.808116959407926">
        <ele>23.210000000000001</ele>
        <time>2026-07-10T12:15:20Z</time>
      </trkpt>
      <trkpt lat="53.30429102294147" lon="-3.808157024905086">
        <ele>23.690000000000001</ele>
        <time>2026-07-10T12:15:21Z</time>
      </trkpt>
      <trkpt lat="53.3043999876827" lon="-3.80825400352478">
        <ele>24.649999999999999</ele>
        <time>2026-07-10T12:15:22Z</time>
      </trkpt>
      <trkpt lat="53.305576974526048" lon="-3.809212977066636">
        <ele>31.379999999999999</ele>
        <time>2026-07-10T12:15:30Z</time>
      </trkpt>
      <trkpt lat="53.307044981047511" lon="-3.810264989733696">
        <ele>38.109999999999999</ele>
        <time>2026-07-10T12:15:39Z</time>
      </trkpt>
      <trkpt lat="53.30841600894928" lon="-3.810976026579738">
        <ele>40.990000000000002</ele>
        <time>2026-07-10T12:15:47Z</time>
      </trkpt>
      <trkpt lat="53.309929026290774" lon="-3.811644986271858">
        <ele>34.259999999999998</ele>
        <time>2026-07-10T12:15:56Z</time>
      </trkpt>
      <trkpt lat="53.310599997639656" lon="-3.812299026176333">
        <ele>28.02</ele>
        <time>2026-07-10T12:16:02Z</time>
      </trkpt>
      <trkpt lat="53.31065003760159" lon="-3.812398016452789">
        <ele>27.050000000000001</ele>
        <time>2026-07-10T12:16:03Z</time>
      </trkpt>
      <trkpt lat="53.31084500066936" lon="-3.812789032235742">
        <ele>25.129999999999999</ele>
        <time>2026-07-10T12:16:11Z</time>
      </trkpt>
      <trkpt lat="53.310856986790895" lon="-3.812905959784985">
        <ele>24.649999999999999</ele>
        <time>2026-07-10T12:16:12Z</time>
      </trkpt>
      <trkpt lat="53.31086796708405" lon="-3.813052978366613">
        <ele>24.649999999999999</ele>
        <time>2026-07-10T12:16:13Z</time>
      </trkpt>
      <trkpt lat="53.31090996041894" lon="-3.813150962814689">
        <ele>24.170000000000002</ele>
        <time>2026-07-10T12:16:14Z</time>
      </trkpt>
      <trkpt lat="53.311006017029285" lon="-3.813190022483468">
        <ele>24.170000000000002</ele>
        <time>2026-07-10T12:16:15Z</time>
      </trkpt>
      <trkpt lat="53.311071982607245" lon="-3.813199996948242">
        <ele>24.170000000000002</ele>
        <time>2026-07-10T12:16:16Z</time>
      </trkpt>
      <trkpt lat="53.311149012297392" lon="-3.813078040257096">
        <ele>24.170000000000002</ele>
        <time>2026-07-10T12:16:17Z</time>
      </trkpt>
      <trkpt lat="53.311248002573848" lon="-3.813010985031724">
        <ele>24.170000000000002</ele>
        <time>2026-07-10T12:16:18Z</time>
      </trkpt>
      <trkpt lat="53.311350010335445" lon="-3.81300201639533">
        <ele>23.690000000000001</ele>
        <time>2026-07-10T12:16:19Z</time>
      </trkpt>
      <trkpt lat="53.311456963419914" lon="-3.812995981425047">
        <ele>23.690000000000001</ele>
        <time>2026-07-10T12:16:20Z</time>
      </trkpt>
      <trkpt lat="53.311569029465318" lon="-3.812990030273795">
        <ele>23.210000000000001</ele>
        <time>2026-07-10T12:16:21Z</time>
      </trkpt>
      <trkpt lat="53.312625987455249" lon="-3.813125984743238">
        <ele>16.48</ele>
        <time>2026-07-10T12:16:30Z</time>
      </trkpt>
      <trkpt lat="53.31346501596272" lon="-3.813820006325841">
        <ele>14.08</ele>
        <time>2026-07-10T12:16:39Z</time>
      </trkpt>
      <trkpt lat="53.314691036939621" lon="-3.815397983416915">
        <ele>9.75</ele>
        <time>2026-07-10T12:16:52Z</time>
      </trkpt>
      <trkpt lat="53.315880009904504" lon="-3.817006973549724">
        <ele>9.27</ele>
        <time>2026-07-10T12:17:04Z</time>
      </trkpt>
      <trkpt lat="53.31651602871716" lon="-3.817875003442168">
        <ele>9.75</ele>
        <time>2026-07-10T12:17:12Z</time>
      </trkpt>
      <trkpt lat="53.316806964576244" lon="-3.818271970376372">
        <ele>8.789999999999999</ele>
        <time>2026-07-10T12:17:20Z</time>
      </trkpt>
      <trkpt lat="53.316846024245024" lon="-3.818323016166687">
        <ele>9.27</ele>
        <time>2026-07-10T12:17:29Z</time>
      </trkpt>
      <trkpt lat="53.316995976492763" lon="-3.818524014204741">
        <ele>9.27</ele>
        <time>2026-07-10T12:17:38Z</time>
      </trkpt>
      <trkpt lat="53.317038975656033" lon="-3.818581011146307">
        <ele>9.75</ele>
        <time>2026-07-10T12:17:51Z</time>
      </trkpt>
      <trkpt lat="53.317171996459365" lon="-3.818758958950639">
        <ele>9.27</ele>
        <time>2026-07-10T12:17:56Z</time>
      </trkpt>
      <trkpt lat="53.317210972309113" lon="-3.818810004740953">
        <ele>9.27</ele>
        <time>2026-07-10T12:17:57Z</time>
      </trkpt>
      <trkpt lat="53.317260006442666" lon="-3.818927016109228">
        <ele>9.27</ele>
        <time>2026-07-10T12:17:58Z</time>
      </trkpt>
      <trkpt lat="53.317281967028975" lon="-3.8190389983356">
        <ele>9.27</ele>
        <time>2026-07-10T12:17:59Z</time>
      </trkpt>
      <trkpt lat="53.317356985062361" lon="-3.819063976407051">
        <ele>9.27</ele>
        <time>2026-07-10T12:18:00Z</time>
      </trkpt>
      <trkpt lat="53.317448012530804" lon="-3.819138994440436">
        <ele>9.27</ele>
        <time>2026-07-10T12:18:01Z</time>
      </trkpt>
      <trkpt lat="53.317519007250667" lon="-3.819233039394021">
        <ele>9.27</ele>
        <time>2026-07-10T12:18:02Z</time>
      </trkpt>
      <trkpt lat="53.318123007193208" lon="-3.82002898491919">
        <ele>10.23</ele>
        <time>2026-07-10T12:18:11Z</time>
      </trkpt>
      <trkpt lat="53.318663975223899" lon="-3.820712026208639">
        <ele>10.710000000000001</ele>
        <time>2026-07-10T12:18:19Z</time>
      </trkpt>
      <trkpt lat="53.319276021793485" lon="-3.821472013369203">
        <ele>9.75</ele>
        <time>2026-07-10T12:18:29Z</time>
      </trkpt>
      <trkpt lat="53.319377023726702" lon="-3.82159698754549">
        <ele>9.27</ele>
        <time>2026-07-10T12:18:36Z</time>
      </trkpt>
      <trkpt lat="53.319471990689635" lon="-3.821716010570526">
        <ele>9.27</ele>
        <time>2026-07-10T12:19:09Z</time>
      </trkpt>
      <trkpt lat="53.319747000932693" lon="-3.822037037461996">
        <ele>9.27</ele>
        <time>2026-07-10T12:19:14Z</time>
      </trkpt>
      <trkpt lat="53.320575971156359" lon="-3.822958040982485">
        <ele>9.27</ele>
        <time>2026-07-10T12:19:26Z</time>
      </trkpt>
      <trkpt lat="53.321541985496879" lon="-3.824127987027168">
        <ele>8.789999999999999</ele>
        <time>2026-07-10T12:19:39Z</time>
      </trkpt>
      <trkpt lat="53.321663020178676" lon="-3.824502993375063">
        <ele>8.310000000000001</ele>
        <time>2026-07-10T12:19:46Z</time>
      </trkpt>
      <trkpt lat="53.321669977158308" lon="-3.824554039165378">
        <ele>8.310000000000001</ele>
        <time>2026-07-10T12:19:47Z</time>
      </trkpt>
      <trkpt lat="53.32169403322041" lon="-3.824743973091245">
        <ele>8.310000000000001</ele>
        <time>2026-07-10T12:19:48Z</time>
      </trkpt>
      <trkpt lat="53.32169403322041" lon="-3.824743973091245">
        <ele>8.310000000000001</ele>
        <time>2026-07-10T12:19:49Z</time>
      </trkpt>
      <trkpt lat="53.321679029613733" lon="-3.824779009446502">
        <ele>8.310000000000001</ele>
        <time>2026-07-10T12:19:50Z</time>
      </trkpt>
      <trkpt lat="53.321641981601715" lon="-3.824864001944661">
        <ele>8.310000000000001</ele>
        <time>2026-07-10T12:19:51Z</time>
      </trkpt>
      <trkpt lat="53.321604011580348" lon="-3.824953017756343">
        <ele>8.310000000000001</ele>
        <time>2026-07-10T12:19:52Z</time>
      </trkpt>
      <trkpt lat="53.321362026035786" lon="-3.825512006878853">
        <ele>8.310000000000001</ele>
        <time>2026-07-10T12:19:58Z</time>
      </trkpt>
      <trkpt lat="53.321296982467175" lon="-3.825663970783353">
        <ele>8.310000000000001</ele>
        <time>2026-07-10T12:20:00Z</time>
      </trkpt>
      <trkpt lat="53.321268986910582" lon="-3.825729014351964">
        <ele>8.789999999999999</ele>
        <time>2026-07-10T12:20:01Z</time>
      </trkpt>
      <trkpt lat="53.321249037981033" lon="-3.825775031000376">
        <ele>8.789999999999999</ele>
        <time>2026-07-10T12:20:02Z</time>
      </trkpt>
      <trkpt lat="53.321220958605409" lon="-3.825838984921575">
        <ele>8.789999999999999</ele>
        <time>2026-07-10T12:20:03Z</time>
      </trkpt>
      <trkpt lat="53.321234034374356" lon="-3.825851976871491">
        <ele>8.310000000000001</ele>
        <time>2026-07-10T12:20:04Z</time>
      </trkpt>
      <trkpt lat="53.321249959990382" lon="-3.825869997963309">
        <ele>7.83</ele>
        <time>2026-07-10T12:20:05Z</time>
      </trkpt>
      <trkpt lat="53.321252977475524" lon="-3.825766984373331">
        <ele>7.35</ele>
        <time>2026-07-10T12:20:06Z</time>
      </trkpt>
      <trkpt lat="53.32126697525382" lon="-3.825733959674835">
        <ele>7.35</ele>
        <time>2026-07-10T12:20:07Z</time>
      </trkpt>
      <trkpt lat="53.321284996345639" lon="-3.825691966339946">
        <ele>7.35</ele>
        <time>2026-07-10T12:20:08Z</time>
      </trkpt>
      <trkpt lat="53.321310980245471" lon="-3.825631029903889">
        <ele>7.35</ele>
        <time>2026-07-10T12:20:09Z</time>
      </trkpt>
      <trkpt lat="53.321345010772347" lon="-3.825551988556981">
        <ele>6.87</ele>
        <time>2026-07-10T12:20:10Z</time>
      </trkpt>
      <trkpt lat="53.32177902571857" lon="-3.824594020843506">
        <ele>5.42</ele>
        <time>2026-07-10T12:20:21Z</time>
      </trkpt>
      <trkpt lat="53.321852032095194" lon="-3.824422024190426">
        <ele>6.39</ele>
        <time>2026-07-10T12:20:27Z</time>
      </trkpt>
      <trkpt lat="53.321923026815057" lon="-3.824415989220142">
        <ele>6.87</ele>
        <time>2026-07-10T12:20:29Z</time>
      </trkpt>
      <trkpt lat="53.322078008204699" lon="-3.824405008926988">
        <ele>6.87</ele>
        <time>2026-07-10T12:20:32Z</time>
      </trkpt>
      <trkpt lat="53.32212301902473" lon="-3.824400985613465">
        <ele>6.87</ele>
        <time>2026-07-10T12:20:33Z</time>
      </trkpt>
      <trkpt lat="53.322151014581323" lon="-3.824443984776735">
        <ele>6.87</ele>
        <time>2026-07-10T12:20:34Z</time>
      </trkpt>
      <trkpt lat="53.322187978774309" lon="-3.824498970061541">
        <ele>6.87</ele>
        <time>2026-07-10T12:20:35Z</time>
      </trkpt>
      <trkpt lat="53.32223298959434" lon="-3.824566025286913">
        <ele>6.39</ele>
        <time>2026-07-10T12:20:36Z</time>
      </trkpt>
      <trkpt lat="53.322284035384655" lon="-3.824643976986408">
        <ele>5.91</ele>
        <time>2026-07-10T12:20:37Z</time>
      </trkpt>
      <trkpt lat="53.322343965992332" lon="-3.824746990576387">
        <ele>5.91</ele>
        <time>2026-07-10T12:20:38Z</time>
      </trkpt>
      <trkpt lat="53.322706986218691" lon="-3.826132016256452">
        <ele>3.98</ele>
        <time>2026-07-10T12:20:49Z</time>
      </trkpt>
      <trkpt lat="53.323018960654736" lon="-3.827069029211998">
        <ele>0.14</ele>
        <time>2026-07-10T12:20:57Z</time>
      </trkpt>
      <trkpt lat="53.323058020323515" lon="-3.827186040580273">
        <ele>-0.34</ele>
        <time>2026-07-10T12:20:58Z</time>
      </trkpt>
      <trkpt lat="53.323259018361568" lon="-3.827729020267725">
        <ele>-1.3</ele>
        <time>2026-07-10T12:21:03Z</time>
      </trkpt>
      <trkpt lat="53.323297994211316" lon="-3.8278270047158">
        <ele>-1.79</ele>
        <time>2026-07-10T12:21:04Z</time>
      </trkpt>
      <trkpt lat="53.323336970061064" lon="-3.827925994992256">
        <ele>-1.79</ele>
        <time>2026-07-10T12:21:05Z</time>
      </trkpt>
      <trkpt lat="53.323378963395953" lon="-3.828033031895757">
        <ele>-2.27</ele>
        <time>2026-07-10T12:21:06Z</time>
      </trkpt>
      <trkpt lat="53.323422968387604" lon="-3.828141996636987">
        <ele>-2.27</ele>
        <time>2026-07-10T12:21:07Z</time>
      </trkpt>
      <trkpt lat="53.323464039713144" lon="-3.828248027712107">
        <ele>-2.75</ele>
        <time>2026-07-10T12:21:08Z</time>
      </trkpt>
      <trkpt lat="53.323495974764228" lon="-3.828327991068363">
        <ele>-2.75</ele>
        <time>2026-07-10T12:21:09Z</time>
      </trkpt>
      <trkpt lat="53.323538973927498" lon="-3.82842899300158">
        <ele>-3.71</ele>
        <time>2026-07-10T12:21:10Z</time>
      </trkpt>
      <trkpt lat="53.323817001655698" lon="-3.829081021249294">
        <ele>-6.11</ele>
        <time>2026-07-10T12:21:17Z</time>
      </trkpt>
      <trkpt lat="53.324221009388566" lon="-3.829927006736398">
        <ele>-3.23</ele>
        <time>2026-07-10T12:21:28Z</time>
      </trkpt>
      <trkpt lat="53.324232995510101" lon="-3.82995299063623">
        <ele>-3.23</ele>
        <time>2026-07-10T12:21:34Z</time>
      </trkpt>
      <trkpt lat="53.324249004945159" lon="-3.829982997849584">
        <ele>-3.23</ele>
        <time>2026-07-10T12:21:35Z</time>
      </trkpt>
      <trkpt lat="53.324590986594558" lon="-3.830610970035195">
        <ele>-1.3</ele>
        <time>2026-07-10T12:21:44Z</time>
      </trkpt>
      <trkpt lat="53.324715960770845" lon="-3.830797970294952">
        <ele>-1.79</ele>
        <time>2026-07-10T12:21:46Z</time>
      </trkpt>
      <trkpt lat="53.325136983767152" lon="-3.831345979124308">
        <ele>0.14</ele>
        <time>2026-07-10T12:21:54Z</time>
      </trkpt>
      <trkpt lat="53.325276961550117" lon="-3.831502972170711">
        <ele>1.58</ele>
        <time>2026-07-10T12:22:02Z</time>
      </trkpt>
      <trkpt lat="53.325424985960126" lon="-3.831717967987061">
        <ele>3.98</ele>
        <time>2026-07-10T12:22:08Z</time>
      </trkpt>
      <trkpt lat="53.325523976236582" lon="-3.831963976845145">
        <ele>6.39</ele>
        <time>2026-07-10T12:22:18Z</time>
      </trkpt>
      <trkpt lat="53.325809966772795" lon="-3.832093980163336">
        <ele>5.91</ele>
        <time>2026-07-10T12:22:27Z</time>
      </trkpt>
      <trkpt lat="53.326301984488964" lon="-3.832498993724585">
        <ele>6.87</ele>
        <time>2026-07-10T12:22:42Z</time>
      </trkpt>
      <trkpt lat="53.326538018882275" lon="-3.8326829764992">
        <ele>7.83</ele>
        <time>2026-07-10T12:22:48Z</time>
      </trkpt>
      <trkpt lat="53.326582023873925" lon="-3.832708038389683">
        <ele>8.310000000000001</ele>
        <time>2026-07-10T12:22:49Z</time>
      </trkpt>
      <trkpt lat="53.326628962531686" lon="-3.832734022289515">
        <ele>7.83</ele>
        <time>2026-07-10T12:22:50Z</time>
      </trkpt>
      <trkpt lat="53.327054008841515" lon="-3.832971984520555">
        <ele>11.19</ele>
        <time>2026-07-10T12:23:01Z</time>
      </trkpt>
      <trkpt lat="53.327272022143006" lon="-3.833100982010365">
        <ele>16</ele>
        <time>2026-07-10T12:23:11Z</time>
      </trkpt>
      <trkpt lat="53.327385010197759" lon="-3.833167031407356">
        <ele>17.920000000000002</ele>
        <time>2026-07-10T12:23:17Z</time>
      </trkpt>
      <trkpt lat="53.327407976612449" lon="-3.833125038072467">
        <ele>17.440000000000001</ele>
        <time>2026-07-10T12:23:18Z</time>
      </trkpt>
      <trkpt lat="53.327414011582732" lon="-3.833079021424055">
        <ele>17.440000000000001</ele>
        <time>2026-07-10T12:23:19Z</time>
      </trkpt>
      <trkpt lat="53.327447958290577" lon="-3.832996040582657">
        <ele>16.960000000000001</ele>
        <time>2026-07-10T12:23:20Z</time>
      </trkpt>
      <trkpt lat="53.327487017959356" lon="-3.832980031147599">
        <ele>16.960000000000001</ele>
        <time>2026-07-10T12:23:21Z</time>
      </trkpt>
      <trkpt lat="53.327537979930639" lon="-3.832958992570639">
        <ele>16.960000000000001</ele>
        <time>2026-07-10T12:23:22Z</time>
      </trkpt>
      <trkpt lat="53.327599000185728" lon="-3.832935020327568">
        <ele>16.960000000000001</ele>
        <time>2026-07-10T12:23:23Z</time>
      </trkpt>
      <trkpt lat="53.327660020440817" lon="-3.832865031436086">
        <ele>16.48</ele>
        <time>2026-07-10T12:23:24Z</time>
      </trkpt>
      <trkpt lat="53.327702013775706" lon="-3.832766963168979">
        <ele>16.48</ele>
        <time>2026-07-10T12:23:25Z</time>
      </trkpt>
      <trkpt lat="53.327808966860175" lon="-3.832511985674501">
        <ele>17.440000000000001</ele>
        <time>2026-07-10T12:23:28Z</time>
      </trkpt>
      <trkpt lat="53.327873004600406" lon="-3.832448031753302">
        <ele>18.399999999999999</ele>
        <time>2026-07-10T12:23:29Z</time>
      </trkpt>
      <trkpt lat="53.327922038733959" lon="-3.832435039803386">
        <ele>18.879999999999999</ele>
        <time>2026-07-10T12:23:30Z</time>
      </trkpt>
      <trkpt lat="53.327970989048481" lon="-3.83248801343143">
        <ele>19.84</ele>
        <time>2026-07-10T12:23:31Z</time>
      </trkpt>
      <trkpt lat="53.328003007918596" lon="-3.832592032849789">
        <ele>20.32</ele>
        <time>2026-07-10T12:23:32Z</time>
      </trkpt>
      <trkpt lat="53.32803200930357" lon="-3.832736033946276">
        <ele>20.809999999999999</ele>
        <time>2026-07-10T12:23:33Z</time>
      </trkpt>
      <trkpt lat="53.328051036223769" lon="-3.832905013114214">
        <ele>21.77</ele>
        <time>2026-07-10T12:23:34Z</time>
      </trkpt>
      <trkpt lat="53.328065034002066" lon="-3.833093019202352">
        <ele>22.73</ele>
        <time>2026-07-10T12:23:35Z</time>
      </trkpt>
      <trkpt lat="53.328050030395389" lon="-3.834604024887085">
        <ele>31.379999999999999</ele>
        <time>2026-07-10T12:23:45Z</time>
      </trkpt>
      <trkpt lat="53.328066039830446" lon="-3.834861014038324">
        <ele>33.780000000000001</ele>
        <time>2026-07-10T12:23:47Z</time>
      </trkpt>
      <trkpt lat="53.328072996810079" lon="-3.834984982386231">
        <ele>34.740000000000002</ele>
        <time>2026-07-10T12:23:48Z</time>
      </trkpt>
      <trkpt lat="53.328080959618092" lon="-3.83510903455317">
        <ele>36.189999999999998</ele>
        <time>2026-07-10T12:23:49Z</time>
      </trkpt>
      <trkpt lat="53.328088000416756" lon="-3.835230991244316">
        <ele>37.630000000000003</ele>
        <time>2026-07-10T12:23:50Z</time>
      </trkpt>
      <trkpt lat="53.328095963224769" lon="-3.835358982905746">
        <ele>38.590000000000003</ele>
        <time>2026-07-10T12:23:51Z</time>
      </trkpt>
      <trkpt lat="53.328104009851813" lon="-3.83549502119422">
        <ele>39.549999999999997</ele>
        <time>2026-07-10T12:23:52Z</time>
      </trkpt>
      <trkpt lat="53.328123958781362" lon="-3.835637010633946">
        <ele>40.990000000000002</ele>
        <time>2026-07-10T12:23:53Z</time>
      </trkpt>
      <trkpt lat="53.328157989308238" lon="-3.835774976760149">
        <ele>42.439999999999998</ele>
        <time>2026-07-10T12:23:54Z</time>
      </trkpt>
      <trkpt lat="53.328192019835114" lon="-3.835912020877004">
        <ele>43.880000000000003</ele>
        <time>2026-07-10T12:23:55Z</time>
      </trkpt>
      <trkpt lat="53.328249016776681" lon="-3.836166998371482">
        <ele>45.799999999999997</ele>
        <time>2026-07-10T12:23:57Z</time>
      </trkpt>
      <trkpt lat="53.328422019258142" lon="-3.836667984724045">
        <ele>51.090000000000003</ele>
        <time>2026-07-10T12:24:01Z</time>
      </trkpt>
      <trkpt lat="53.328457977622747" lon="-3.836790025234222">
        <ele>52.530000000000001</ele>
        <time>2026-07-10T12:24:02Z</time>
      </trkpt>
      <trkpt lat="53.32865696400404" lon="-3.837981009855866">
        <ele>57.340000000000003</ele>
        <time>2026-07-10T12:24:10Z</time>
      </trkpt>
      <trkpt lat="53.328652018681169" lon="-3.838512003421783">
        <ele>61.18</ele>
        <time>2026-07-10T12:24:15Z</time>
      </trkpt>
      <trkpt lat="53.328649001196027" lon="-3.838587021455169">
        <ele>62.140000000000001</ele>
        <time>2026-07-10T12:24:16Z</time>
      </trkpt>
      <trkpt lat="53.328645983710885" lon="-3.838678970932961">
        <ele>63.100000000000001</ele>
        <time>2026-07-10T12:24:17Z</time>
      </trkpt>
      <trkpt lat="53.328645983710885" lon="-3.83988001383841">
        <ele>75.120000000000005</ele>
        <time>2026-07-10T12:24:25Z</time>
      </trkpt>
      <trkpt lat="53.32874296233058" lon="-3.841309966519475">
        <ele>91.939999999999998</ele>
        <time>2026-07-10T12:24:33Z</time>
      </trkpt>
      <trkpt lat="53.328766012564301" lon="-3.841481963172555">
        <ele>93.870000000000005</ele>
        <time>2026-07-10T12:24:34Z</time>
      </trkpt>
      <trkpt lat="53.328812029212713" lon="-3.841639962047339">
        <ele>95.790000000000006</ele>
        <time>2026-07-10T12:24:35Z</time>
      </trkpt>
      <trkpt lat="53.328929962590337" lon="-3.842039024457336">
        <ele>102.52</ele>
        <time>2026-07-10T12:24:38Z</time>
      </trkpt>
      <trkpt lat="53.328995006158948" lon="-3.842168021947146">
        <ele>104.44</ele>
        <time>2026-07-10T12:24:39Z</time>
      </trkpt>
      <trkpt lat="53.329072035849094" lon="-3.842170033603907">
        <ele>106.36</ele>
        <time>2026-07-10T12:24:40Z</time>
      </trkpt>
      <trkpt lat="53.329155016690493" lon="-3.842171961441636">
        <ele>109.25</ele>
        <time>2026-07-10T12:24:41Z</time>
      </trkpt>
      <trkpt lat="53.329237997531891" lon="-3.842173973098397">
        <ele>111.65000000000001</ele>
        <time>2026-07-10T12:24:42Z</time>
      </trkpt>
      <trkpt lat="53.329309998080134" lon="-3.842175984755158">
        <ele>114.53</ele>
        <time>2026-07-10T12:24:43Z</time>
      </trkpt>
      <trkpt lat="53.329366995021701" lon="-3.84217799641192">
        <ele>117.42</ele>
        <time>2026-07-10T12:24:44Z</time>
      </trkpt>
      <trkpt lat="53.329437989741564" lon="-3.8421790022403">
        <ele>127.03</ele>
        <time>2026-07-10T12:24:50Z</time>
      </trkpt>
      <trkpt lat="53.329555001109838" lon="-3.842182019725442">
        <ele>135.68000000000001</ele>
        <time>2026-07-10T12:24:55Z</time>
      </trkpt>
      <trkpt lat="53.329632030799985" lon="-3.842184031382203">
        <ele>137.13</ele>
        <time>2026-07-10T12:24:56Z</time>
      </trkpt>
      <trkpt lat="53.330146009102464" lon="-3.842188976705074">
        <ele>146.74000000000001</ele>
        <time>2026-07-10T12:25:02Z</time>
      </trkpt>
      <trkpt lat="53.330220021307468" lon="-3.842226024717093">
        <ele>148.18000000000001</ele>
        <time>2026-07-10T12:25:03Z</time>
      </trkpt>
      <trkpt lat="53.330272994935513" lon="-3.842292996123433">
        <ele>149.62</ele>
        <time>2026-07-10T12:25:04Z</time>
      </trkpt>
      <trkpt lat="53.330319011583924" lon="-3.842349993065">
        <ele>151.06</ele>
        <time>2026-07-10T12:25:05Z</time>
      </trkpt>
      <trkpt lat="53.330362010747194" lon="-3.842403972521424">
        <ele>152.50999999999999</ele>
        <time>2026-07-10T12:25:06Z</time>
      </trkpt>
      <trkpt lat="53.330378020182252" lon="-3.842494999989867">
        <ele>153.94999999999999</ele>
        <time>2026-07-10T12:25:07Z</time>
      </trkpt>
      <trkpt lat="53.330381037667394" lon="-3.84260798804462">
        <ele>154.91</ele>
        <time>2026-07-10T12:25:08Z</time>
      </trkpt>
      <trkpt lat="53.330376008525491" lon="-3.842732962220907">
        <ele>155.87</ele>
        <time>2026-07-10T12:25:09Z</time>
      </trkpt>
      <trkpt lat="53.330366034060717" lon="-3.842962039634585">
        <ele>157.31</ele>
        <time>2026-07-10T12:25:11Z</time>
      </trkpt>
      <trkpt lat="53.330364022403955" lon="-3.843060024082661">
        <ele>158.27000000000001</ele>
        <time>2026-07-10T12:25:12Z</time>
      </trkpt>
      <trkpt lat="53.330491008237004" lon="-3.844202980399132">
        <ele>162.12</ele>
        <time>2026-07-10T12:25:20Z</time>
      </trkpt>
      <trkpt lat="53.3306950237602" lon="-3.845525979995728">
        <ele>162.59999999999999</ele>
        <time>2026-07-10T12:25:28Z</time>
      </trkpt>
      <trkpt lat="53.33071799017489" lon="-3.845668975263834">
        <ele>162.59999999999999</ele>
        <time>2026-07-10T12:25:29Z</time>
      </trkpt>
      <trkpt lat="53.330860985442996" lon="-3.846479002386332">
        <ele>162.12</ele>
        <time>2026-07-10T12:25:34Z</time>
      </trkpt>
      <trkpt lat="53.330914964899421" lon="-3.846641024574637">
        <ele>162.12</ele>
        <time>2026-07-10T12:25:35Z</time>
      </trkpt>
      <trkpt lat="53.330981014296412" lon="-3.846773961558938">
        <ele>161.63999999999999</ele>
        <time>2026-07-10T12:25:36Z</time>
      </trkpt>
      <trkpt lat="53.331047985702753" lon="-3.846907988190651">
        <ele>162.12</ele>
        <time>2026-07-10T12:25:37Z</time>
      </trkpt>
      <trkpt lat="53.331115040928125" lon="-3.847041008993983">
        <ele>162.12</ele>
        <time>2026-07-10T12:25:38Z</time>
      </trkpt>
      <trkpt lat="53.331182012334466" lon="-3.847175035625696">
        <ele>162.12</ele>
        <time>2026-07-10T12:25:39Z</time>
      </trkpt>
      <trkpt lat="53.331245966255665" lon="-3.8473130017519">
        <ele>162.59999999999999</ele>
        <time>2026-07-10T12:25:40Z</time>
      </trkpt>
      <trkpt lat="53.331286031752825" lon="-3.847472006455064">
        <ele>162.59999999999999</ele>
        <time>2026-07-10T12:25:41Z</time>
      </trkpt>
      <trkpt lat="53.331300029531121" lon="-3.84763796813786">
        <ele>162.59999999999999</ele>
        <time>2026-07-10T12:25:42Z</time>
      </trkpt>
      <trkpt lat="53.331286031752825" lon="-3.84780602529645">
        <ele>162.59999999999999</ele>
        <time>2026-07-10T12:25:43Z</time>
      </trkpt>
      <trkpt lat="53.331272033974528" lon="-3.84797902777791">
        <ele>163.08000000000001</ele>
        <time>2026-07-10T12:25:44Z</time>
      </trkpt>
      <trkpt lat="53.331258036196232" lon="-3.848145995289087">
        <ele>163.08000000000001</ele>
        <time>2026-07-10T12:25:45Z</time>
      </trkpt>
      <trkpt lat="53.331210007891059" lon="-3.848725017160177">
        <ele>163.08000000000001</ele>
        <time>2026-07-10T12:25:51Z</time>
      </trkpt>
      <trkpt lat="53.331162985414267" lon="-3.84928903542459">
        <ele>164.52000000000001</ele>
        <time>2026-07-10T12:25:58Z</time>
      </trkpt>
      <trkpt lat="53.331121997907758" lon="-3.849766971543431">
        <ele>167.41</ele>
        <time>2026-07-10T12:26:01Z</time>
      </trkpt>
      <trkpt lat="53.331072041764855" lon="-3.849946008995175">
        <ele>168.84999999999999</ele>
        <time>2026-07-10T12:26:02Z</time>
      </trkpt>
      <trkpt lat="53.331005992367864" lon="-3.850066037848592">
        <ele>169.81</ele>
        <time>2026-07-10T12:26:03Z</time>
      </trkpt>
      <trkpt lat="53.330885963514447" lon="-3.850284973159432">
        <ele>171.72999999999999</ele>
        <time>2026-07-10T12:26:05Z</time>
      </trkpt>
      <trkpt lat="53.330857967957854" lon="-3.850396033376455">
        <ele>172.69</ele>
        <time>2026-07-10T12:26:06Z</time>
      </trkpt>
      <trkpt lat="53.330829972401261" lon="-3.850539028644562">
        <ele>173.66</ele>
        <time>2026-07-10T12:26:07Z</time>
      </trkpt>
      <trkpt lat="53.330792002379894" lon="-3.850729968398809">
        <ele>174.62</ele>
        <time>2026-07-10T12:26:08Z</time>
      </trkpt>
      <trkpt lat="53.33078102208674" lon="-3.850855026394129">
        <ele>176.06</ele>
        <time>2026-07-10T12:26:09Z</time>
      </trkpt>
      <trkpt lat="53.330768030136824" lon="-3.851026017218828">
        <ele>177.5</ele>
        <time>2026-07-10T12:26:10Z</time>
      </trkpt>
      <trkpt lat="53.33073802292347" lon="-3.851838978007436">
        <ele>186.15000000000001</ele>
        <time>2026-07-10T12:26:17Z</time>
      </trkpt>
      <trkpt lat="53.330769035965204" lon="-3.852257989346981">
        <ele>190</ele>
        <time>2026-07-10T12:26:22Z</time>
      </trkpt>
      <trkpt lat="53.330807005986571" lon="-3.85238497518003">
        <ele>190.47999999999999</ele>
        <time>2026-07-10T12:26:23Z</time>
      </trkpt>
      <trkpt lat="53.330858973786235" lon="-3.852467034012079">
        <ele>191.44</ele>
        <time>2026-07-10T12:26:24Z</time>
      </trkpt>
      <trkpt lat="53.33091102540493" lon="-3.852548003196716">
        <ele>191.91999999999999</ele>
        <time>2026-07-10T12:26:25Z</time>
      </trkpt>
      <trkpt lat="53.330973973497748" lon="-3.852609023451805">
        <ele>191.91999999999999</ele>
        <time>2026-07-10T12:26:26Z</time>
      </trkpt>
      <trkpt lat="53.331031976267695" lon="-3.852630984038115">
        <ele>192.40000000000001</ele>
        <time>2026-07-10T12:26:27Z</time>
      </trkpt>
      <trkpt lat="53.33108201622963" lon="-3.852651016786695">
        <ele>192.40000000000001</ele>
        <time>2026-07-10T12:26:28Z</time>
      </trkpt>
      <trkpt lat="53.331186035647988" lon="-3.852690998464823">
        <ele>192.88</ele>
        <time>2026-07-10T12:26:30Z</time>
      </trkpt>
      <trkpt lat="53.331248983740807" lon="-3.852715976536274">
        <ele>192.88</ele>
        <time>2026-07-10T12:26:31Z</time>
      </trkpt>
      <trkpt lat="53.331318972632289" lon="-3.852742966264486">
        <ele>193.36000000000001</ele>
        <time>2026-07-10T12:26:32Z</time>
      </trkpt>
      <trkpt lat="53.331386027857661" lon="-3.852842962369323">
        <ele>193.84</ele>
        <time>2026-07-10T12:26:33Z</time>
      </trkpt>
      <trkpt lat="53.331443024799228" lon="-3.852938013151288">
        <ele>193.84</ele>
        <time>2026-07-10T12:26:34Z</time>
      </trkpt>
      <trkpt lat="53.331503039225936" lon="-3.853038009256125">
        <ele>194.31999999999999</ele>
        <time>2026-07-10T12:26:35Z</time>
      </trkpt>
      <trkpt lat="53.332052975893021" lon="-3.854370983317494">
        <ele>202.00999999999999</ele>
        <time>2026-07-10T12:26:47Z</time>
      </trkpt>
      <trkpt lat="53.332256991416216" lon="-3.854922009631991">
        <ele>203.46000000000001</ele>
        <time>2026-07-10T12:26:53Z</time>
      </trkpt>
      <trkpt lat="53.332279035821557" lon="-3.8549820240587">
        <ele>203.46000000000001</ele>
        <time>2026-07-10T12:26:54Z</time>
      </trkpt>
      <trkpt lat="53.332294039428234" lon="-3.855020999908447">
        <ele>203.46000000000001</ele>
        <time>2026-07-10T12:26:55Z</time>
      </trkpt>
      <trkpt lat="53.332213992252946" lon="-3.855165001004934">
        <ele>203.46000000000001</ele>
        <time>2026-07-10T12:26:56Z</time>
      </trkpt>
      <trkpt lat="53.33222396671772" lon="-3.855228032916784">
        <ele>203.94</ele>
        <time>2026-07-10T12:26:57Z</time>
      </trkpt>
      <trkpt lat="53.332208041101694" lon="-3.855128036811948">
        <ele>203.46000000000001</ele>
        <time>2026-07-10T12:26:58Z</time>
      </trkpt>
      <trkpt lat="53.332208041101694" lon="-3.855128036811948">
        <ele>203.46000000000001</ele>
        <time>2026-07-10T12:26:59Z</time>
      </trkpt>
      <trkpt lat="53.332208041101694" lon="-3.855128036811948">
        <ele>203.46000000000001</ele>
        <time>2026-07-10T12:27:09Z</time>
      </trkpt>
      <trkpt lat="53.332208041101694" lon="-3.855128036811948">
        <ele>203.46000000000001</ele>
        <time>2026-07-10T12:27:53Z</time>
      </trkpt>
      <trkpt lat="53.332195971161127" lon="-3.855333980172873">
        <ele>201.05000000000001</ele>
        <time>2026-07-10T12:41:06Z</time>
      </trkpt>
      <trkpt lat="53.332222960889339" lon="-3.855330962687731">
        <ele>201.05000000000001</ele>
        <time>2026-07-10T12:41:34Z</time>
      </trkpt>
      <trkpt lat="53.332251040264964" lon="-3.855297015979886">
        <ele>201.05000000000001</ele>
        <time>2026-07-10T12:41:47Z</time>
      </trkpt>
      <trkpt lat="53.332251040264964" lon="-3.855386031791568">
        <ele>201.05000000000001</ele>
        <time>2026-07-10T12:41:50Z</time>
      </trkpt>
      <trkpt lat="53.332255985587835" lon="-3.855405980721116">
        <ele>201.05000000000001</ele>
        <time>2026-07-10T12:41:51Z</time>
      </trkpt>
      <trkpt lat="53.332294039428234" lon="-3.855020999908447">
        <ele>200.09</ele>
        <time>2026-07-10T12:41:54Z</time>
      </trkpt>
      <trkpt lat="53.332294039428234" lon="-3.855020999908447">
        <ele>200.09</ele>
        <time>2026-07-10T12:41:55Z</time>
      </trkpt>
      <trkpt lat="53.332294039428234" lon="-3.855020999908447">
        <ele>199.61000000000001</ele>
        <time>2026-07-10T12:41:56Z</time>
      </trkpt>
      <trkpt lat="53.332294039428234" lon="-3.855020999908447">
        <ele>199.61000000000001</ele>
        <time>2026-07-10T12:41:57Z</time>
      </trkpt>
      <trkpt lat="53.332282975316048" lon="-3.854993004351854">
        <ele>199.61000000000001</ele>
        <time>2026-07-10T12:41:58Z</time>
      </trkpt>
      <trkpt lat="53.332177028059959" lon="-3.854707013815641">
        <ele>199.61000000000001</ele>
        <time>2026-07-10T12:42:03Z</time>
      </trkpt>
      <trkpt lat="53.332150960341096" lon="-3.854637024924159">
        <ele>199.61000000000001</ele>
        <time>2026-07-10T12:42:04Z</time>
      </trkpt>
      <trkpt lat="53.331886008381844" lon="-3.853919031098485">
        <ele>198.16999999999999</ele>
        <time>2026-07-10T12:42:15Z</time>
      </trkpt>
      <trkpt lat="53.33142701536417" lon="-3.852912029251456">
        <ele>191.91999999999999</ele>
        <time>2026-07-10T12:42:25Z</time>
      </trkpt>
      <trkpt lat="53.331328025087714" lon="-3.852746989578009">
        <ele>190.47999999999999</ele>
        <time>2026-07-10T12:42:27Z</time>
      </trkpt>
      <trkpt lat="53.33123398013413" lon="-3.852710025385022">
        <ele>189.52000000000001</ele>
        <time>2026-07-10T12:42:28Z</time>
      </trkpt>
      <trkpt lat="53.331158962100744" lon="-3.852681024000049">
        <ele>188.56</ele>
        <time>2026-07-10T12:42:29Z</time>
      </trkpt>
      <trkpt lat="53.330942960456014" lon="-3.85259703733027">
        <ele>187.11000000000001</ele>
        <time>2026-07-10T12:42:32Z</time>
      </trkpt>
      <trkpt lat="53.330887975171208" lon="-3.852511961013079">
        <ele>187.11000000000001</ele>
        <time>2026-07-10T12:42:33Z</time>
      </trkpt>
      <trkpt lat="53.330853022634983" lon="-3.852456975728273">
        <ele>186.63</ele>
        <time>2026-07-10T12:42:34Z</time>
      </trkpt>
      <trkpt lat="53.330819997936487" lon="-3.85240601375699">
        <ele>186.15000000000001</ele>
        <time>2026-07-10T12:42:35Z</time>
      </trkpt>
      <trkpt lat="53.330792002379894" lon="-3.852359997108579">
        <ele>185.66999999999999</ele>
        <time>2026-07-10T12:42:36Z</time>
      </trkpt>
      <trkpt lat="53.330771969631314" lon="-3.852271987125278">
        <ele>185.19</ele>
        <time>2026-07-10T12:42:37Z</time>
      </trkpt>
      <trkpt lat="53.330756966024637" lon="-3.852203004062176">
        <ele>185.19</ele>
        <time>2026-07-10T12:42:38Z</time>
      </trkpt>
      <trkpt lat="53.330746991559863" lon="-3.852120023220778">
        <ele>184.71000000000001</ele>
        <time>2026-07-10T12:42:39Z</time>
      </trkpt>
      <trkpt lat="53.330743974074721" lon="-3.852026984095573">
        <ele>184.22999999999999</ele>
        <time>2026-07-10T12:42:40Z</time>
      </trkpt>
      <trkpt lat="53.33078202791512" lon="-3.850854020565748">
        <ele>178.46000000000001</ele>
        <time>2026-07-10T12:42:49Z</time>
      </trkpt>
      <trkpt lat="53.330841036513448" lon="-3.850482031702995">
        <ele>174.62</ele>
        <time>2026-07-10T12:42:52Z</time>
      </trkpt>
      <trkpt lat="53.330864002928138" lon="-3.850366026163101">
        <ele>173.16999999999999</ele>
        <time>2026-07-10T12:42:53Z</time>
      </trkpt>
      <trkpt lat="53.330888980999589" lon="-3.850279022008181">
        <ele>172.21000000000001</ele>
        <time>2026-07-10T12:42:54Z</time>
      </trkpt>
      <trkpt lat="53.330939020961523" lon="-3.850187994539738">
        <ele>171.25</ele>
        <time>2026-07-10T12:42:55Z</time>
      </trkpt>
      <trkpt lat="53.330989982932806" lon="-3.850095961242914">
        <ele>169.81</ele>
        <time>2026-07-10T12:42:56Z</time>
      </trkpt>
      <trkpt lat="53.331043040379882" lon="-3.8499999884516">
        <ele>168.84999999999999</ele>
        <time>2026-07-10T12:42:57Z</time>
      </trkpt>
      <trkpt lat="53.331094002351165" lon="-3.849906027317047">
        <ele>167.88999999999999</ele>
        <time>2026-07-10T12:42:58Z</time>
      </trkpt>
      <trkpt lat="53.331121997907758" lon="-3.849772000685334">
        <ele>166.93000000000001</ele>
        <time>2026-07-10T12:42:59Z</time>
      </trkpt>
      <trkpt lat="53.331130966544151" lon="-3.849665969610214">
        <ele>165.47999999999999</ele>
        <time>2026-07-10T12:43:00Z</time>
      </trkpt>
      <trkpt lat="53.331140018999577" lon="-3.849565973505378">
        <ele>164.52000000000001</ele>
        <time>2026-07-10T12:43:01Z</time>
      </trkpt>
      <trkpt lat="53.33114798180759" lon="-3.84946396574378">
        <ele>164.03999999999999</ele>
        <time>2026-07-10T12:43:02Z</time>
      </trkpt>
      <trkpt lat="53.331258036196232" lon="-3.848139038309455">
        <ele>155.38999999999999</ele>
        <time>2026-07-10T12:43:14Z</time>
      </trkpt>
      <trkpt lat="53.331288965418935" lon="-3.847767971456051">
        <ele>153.94999999999999</ele>
        <time>2026-07-10T12:43:18Z</time>
      </trkpt>
      <trkpt lat="53.331297012045979" lon="-3.847674010321498">
        <ele>153.47</ele>
        <time>2026-07-10T12:43:19Z</time>
      </trkpt>
      <trkpt lat="53.331303969025612" lon="-3.847582982853055">
        <ele>152.99000000000001</ele>
        <time>2026-07-10T12:43:20Z</time>
      </trkpt>
      <trkpt lat="53.331292988732457" lon="-3.847501007840037">
        <ele>152.99000000000001</ele>
        <time>2026-07-10T12:43:21Z</time>
      </trkpt>
      <trkpt lat="53.331272033974528" lon="-3.847416015341878">
        <ele>152.50999999999999</ele>
        <time>2026-07-10T12:43:22Z</time>
      </trkpt>
      <trkpt lat="53.331249989569187" lon="-3.847325993701816">
        <ele>152.03</ele>
        <time>2026-07-10T12:43:23Z</time>
      </trkpt>
      <trkpt lat="53.331219982355833" lon="-3.847251981496811">
        <ele>152.03</ele>
        <time>2026-07-10T12:43:24Z</time>
      </trkpt>
      <trkpt lat="53.331180000677705" lon="-3.847171012312174">
        <ele>151.53999999999999</ele>
        <time>2026-07-10T12:43:25Z</time>
      </trkpt>
      <trkpt lat="53.331138007342815" lon="-3.847089037299156">
        <ele>151.53999999999999</ele>
        <time>2026-07-10T12:43:26Z</time>
      </trkpt>
      <trkpt lat="53.331099031493068" lon="-3.847011001780629">
        <ele>151.06</ele>
        <time>2026-07-10T12:43:27Z</time>
      </trkpt>
      <trkpt lat="53.331060977652669" lon="-3.846933972090483">
        <ele>151.06</ele>
        <time>2026-07-10T12:43:28Z</time>
      </trkpt>
      <trkpt lat="53.330985037609935" lon="-3.846781002357602">
        <ele>150.58000000000001</ele>
        <time>2026-07-10T12:43:30Z</time>
      </trkpt>
      <trkpt lat="53.330947989597917" lon="-3.846706990152597">
        <ele>150.58000000000001</ele>
        <time>2026-07-10T12:43:31Z</time>
      </trkpt>
      <trkpt lat="53.330912031233311" lon="-3.846635995432735">
        <ele>150.58000000000001</ele>
        <time>2026-07-10T12:43:32Z</time>
      </trkpt>
      <trkpt lat="53.330875989049673" lon="-3.846559971570969">
        <ele>150.58000000000001</ele>
        <time>2026-07-10T12:43:33Z</time>
      </trkpt>
      <trkpt lat="53.330858973786235" lon="-3.846470033749938">
        <ele>151.06</ele>
        <time>2026-07-10T12:43:34Z</time>
      </trkpt>
      <trkpt lat="53.330840030685067" lon="-3.846372971311212">
        <ele>150.58000000000001</ele>
        <time>2026-07-10T12:43:35Z</time>
      </trkpt>
      <trkpt lat="53.330822009593248" lon="-3.846276998519898">
        <ele>150.58000000000001</ele>
        <time>2026-07-10T12:43:36Z</time>
      </trkpt>
      <trkpt lat="53.330806000158191" lon="-3.846193011850119">
        <ele>150.09999999999999</ele>
        <time>2026-07-10T12:43:37Z</time>
      </trkpt>
      <trkpt lat="53.330793008208275" lon="-3.846126962453127">
        <ele>150.09999999999999</ele>
        <time>2026-07-10T12:43:38Z</time>
      </trkpt>
      <trkpt lat="53.330862997099757" lon="-3.846012968569994">
        <ele>150.09999999999999</ele>
        <time>2026-07-10T12:43:39Z</time>
      </trkpt>
      <trkpt lat="53.330913037061691" lon="-3.846014980226755">
        <ele>150.09999999999999</ele>
        <time>2026-07-10T12:43:40Z</time>
      </trkpt>
      <trkpt lat="53.330967016518116" lon="-3.846017997711897">
        <ele>150.09999999999999</ele>
        <time>2026-07-10T12:43:41Z</time>
      </trkpt>
      <trkpt lat="53.33101999014616" lon="-3.846020009368658">
        <ele>150.09999999999999</ele>
        <time>2026-07-10T12:43:42Z</time>
      </trkpt>
      <trkpt lat="53.331380998715758" lon="-3.846000982448459">
        <ele>151.06</ele>
        <time>2026-07-10T12:43:48Z</time>
      </trkpt>
      <trkpt lat="53.33144897595048" lon="-3.845947002992034">
        <ele>151.53999999999999</ele>
        <time>2026-07-10T12:43:49Z</time>
      </trkpt>
      <trkpt lat="53.331519970670342" lon="-3.845889000222087">
        <ele>151.53999999999999</ele>
        <time>2026-07-10T12:43:50Z</time>
      </trkpt>
      <trkpt lat="53.331761034205556" lon="-3.84572203271091">
        <ele>152.99000000000001</ele>
        <time>2026-07-10T12:43:53Z</time>
      </trkpt>
      <trkpt lat="53.331848960369825" lon="-3.845683978870511">
        <ele>152.99000000000001</ele>
        <time>2026-07-10T12:43:54Z</time>
      </trkpt>
      <trkpt lat="53.331935964524746" lon="-3.845647014677525">
        <ele>153.47</ele>
        <time>2026-07-10T12:43:55Z</time>
      </trkpt>
      <trkpt lat="53.332021040841937" lon="-3.845629999414086">
        <ele>153.47</ele>
        <time>2026-07-10T12:43:56Z</time>
      </trkpt>
      <trkpt lat="53.332101004198194" lon="-3.845652965828776">
        <ele>153.94999999999999</ele>
        <time>2026-07-10T12:43:57Z</time>
      </trkpt>
      <trkpt lat="53.33218096755445" lon="-3.845676016062498">
        <ele>153.94999999999999</ele>
        <time>2026-07-10T12:43:58Z</time>
      </trkpt>
      <trkpt lat="53.332496965304017" lon="-3.845752039924264">
        <ele>152.99000000000001</ele>
        <time>2026-07-10T12:44:02Z</time>
      </trkpt>
      <trkpt lat="53.332594027742743" lon="-3.845772994682193">
        <ele>152.50999999999999</ele>
        <time>2026-07-10T12:44:03Z</time>
      </trkpt>
      <trkpt lat="53.332644989714026" lon="-3.845854969695211">
        <ele>152.03</ele>
        <time>2026-07-10T12:44:04Z</time>
      </trkpt>
      <trkpt lat="53.332706009969115" lon="-3.845953037962318">
        <ele>152.03</ele>
        <time>2026-07-10T12:44:05Z</time>
      </trkpt>
      <trkpt lat="53.332769963890314" lon="-3.846057979390025">
        <ele>151.53999999999999</ele>
        <time>2026-07-10T12:44:06Z</time>
      </trkpt>
      <trkpt lat="53.332837019115686" lon="-3.846165016293526">
        <ele>151.53999999999999</ele>
        <time>2026-07-10T12:44:07Z</time>
      </trkpt>
      <trkpt lat="53.333430960774422" lon="-3.847126001492143">
        <ele>150.09999999999999</ele>
        <time>2026-07-10T12:44:15Z</time>
      </trkpt>
      <trkpt lat="53.333497010171413" lon="-3.847257010638714">
        <ele>151.06</ele>
        <time>2026-07-10T12:44:16Z</time>
      </trkpt>
      <trkpt lat="53.333540009334683" lon="-3.847434036433697">
        <ele>152.03</ele>
        <time>2026-07-10T12:44:17Z</time>
      </trkpt>
      <trkpt lat="53.333565993234515" lon="-3.84759203530848">
        <ele>152.99000000000001</ele>
        <time>2026-07-10T12:44:18Z</time>
      </trkpt>
      <trkpt lat="53.333591977134347" lon="-3.847748022526503">
        <ele>153.47</ele>
        <time>2026-07-10T12:44:19Z</time>
      </trkpt>
      <trkpt lat="53.33361703902483" lon="-3.847897974774241">
        <ele>153.94999999999999</ele>
        <time>2026-07-10T12:44:20Z</time>
      </trkpt>
      <trkpt lat="53.3336410112679" lon="-3.848042981699109">
        <ele>154.43000000000001</ele>
        <time>2026-07-10T12:44:21Z</time>
      </trkpt>
      <trkpt lat="53.333681998774409" lon="-3.8481729850173">
        <ele>154.91</ele>
        <time>2026-07-10T12:44:22Z</time>
      </trkpt>
      <trkpt lat="53.33372700959444" lon="-3.848304999992251">
        <ele>155.38999999999999</ele>
        <time>2026-07-10T12:44:23Z</time>
      </trkpt>
      <trkpt lat="53.333915015682578" lon="-3.848843034356833">
        <ele>154.43000000000001</ele>
        <time>2026-07-10T12:44:27Z</time>
      </trkpt>
      <trkpt lat="53.333957009017467" lon="-3.848964991047978">
        <ele>153.94999999999999</ele>
        <time>2026-07-10T12:44:28Z</time>
      </trkpt>
      <trkpt lat="53.334003025665879" lon="-3.849084014073014">
        <ele>153.47</ele>
        <time>2026-07-10T12:44:29Z</time>
      </trkpt>
      <trkpt lat="53.334067985415459" lon="-3.849189039319754">
        <ele>152.50999999999999</ele>
        <time>2026-07-10T12:44:30Z</time>
      </trkpt>
      <trkpt lat="53.334137974306941" lon="-3.849278977140784">
        <ele>151.53999999999999</ele>
        <time>2026-07-10T12:44:31Z</time>
      </trkpt>
      <trkpt lat="53.334939032793045" lon="-3.850224958732724">
        <ele>143.37</ele>
        <time>2026-07-10T12:44:43Z</time>
      </trkpt>
      <trkpt lat="53.33583296276629" lon="-3.850813033059239">
        <ele>129.91999999999999</ele>
        <time>2026-07-10T12:44:53Z</time>
      </trkpt>
      <trkpt lat="53.335918039083481" lon="-3.850808003917337">
        <ele>127.51000000000001</ele>
        <time>2026-07-10T12:44:54Z</time>
      </trkpt>
      <trkpt lat="53.336066985502839" lon="-3.850799035280943">
        <ele>123.67</ele>
        <time>2026-07-10T12:44:56Z</time>
      </trkpt>
      <trkpt lat="53.336156001314521" lon="-3.85079400613904">
        <ele>122.22</ele>
        <time>2026-07-10T12:44:57Z</time>
      </trkpt>
      <trkpt lat="53.336212998256087" lon="-3.850737009197474">
        <ele>120.3</ele>
        <time>2026-07-10T12:44:58Z</time>
      </trkpt>
      <trkpt lat="53.336273012682796" lon="-3.850657967850566">
        <ele>118.38</ele>
        <time>2026-07-10T12:44:59Z</time>
      </trkpt>
      <trkpt lat="53.336321962997317" lon="-3.850578004494309">
        <ele>116.94</ele>
        <time>2026-07-10T12:45:00Z</time>
      </trkpt>
      <trkpt lat="53.33636999130249" lon="-3.850498041138053">
        <ele>115.98</ele>
        <time>2026-07-10T12:45:01Z</time>
      </trkpt>
      <trkpt lat="53.336417013779283" lon="-3.850421011447907">
        <ele>114.53</ele>
        <time>2026-07-10T12:45:02Z</time>
      </trkpt>
      <trkpt lat="53.336480967700481" lon="-3.850302994251251">
        <ele>113.56999999999999</ele>
        <time>2026-07-10T12:45:03Z</time>
      </trkpt>
      <trkpt lat="53.336505023762584" lon="-3.850172990933061">
        <ele>112.61</ele>
        <time>2026-07-10T12:45:04Z</time>
      </trkpt>
      <trkpt lat="53.33677601069212" lon="-3.848684029653668">
        <ele>103</ele>
        <time>2026-07-10T12:45:15Z</time>
      </trkpt>
      <trkpt lat="53.336795037612319" lon="-3.848577998578548">
        <ele>102.04000000000001</ele>
        <time>2026-07-10T12:45:16Z</time>
      </trkpt>
      <trkpt lat="53.336810041218996" lon="-3.84849501773715">
        <ele>101.56</ele>
        <time>2026-07-10T12:45:17Z</time>
      </trkpt>
      <trkpt lat="53.336821021512151" lon="-3.848433997482061">
        <ele>101.08</ele>
        <time>2026-07-10T12:45:18Z</time>
      </trkpt>
      <trkpt lat="53.336876006796956" lon="-3.848453024402261">
        <ele>100.11</ele>
        <time>2026-07-10T12:45:19Z</time>
      </trkpt>
      <trkpt lat="53.336923029273748" lon="-3.848470039665699">
        <ele>99.629999999999995</ele>
        <time>2026-07-10T12:45:20Z</time>
      </trkpt>
      <trkpt lat="53.336969967931509" lon="-3.848487976938486">
        <ele>99.150000000000006</ele>
        <time>2026-07-10T12:45:21Z</time>
      </trkpt>
      <trkpt lat="53.337016990408301" lon="-3.848504992201924">
        <ele>98.670000000000002</ele>
        <time>2026-07-10T12:45:22Z</time>
      </trkpt>
      <trkpt lat="53.337065018713474" lon="-3.848542040213943">
        <ele>97.709999999999994</ele>
        <time>2026-07-10T12:45:23Z</time>
      </trkpt>
      <trkpt lat="53.337089996784925" lon="-3.848616974428296">
        <ele>97.230000000000004</ele>
        <time>2026-07-10T12:45:24Z</time>
      </trkpt>
      <trkpt lat="53.337112963199615" lon="-3.848687969148159">
        <ele>96.75</ele>
        <time>2026-07-10T12:45:25Z</time>
      </trkpt>
      <trkpt lat="53.337138025090098" lon="-3.848761981353164">
        <ele>96.269999999999996</ele>
        <time>2026-07-10T12:45:26Z</time>
      </trkpt>
      <trkpt lat="53.337156968191266" lon="-3.848842028528452">
        <ele>95.790000000000006</ele>
        <time>2026-07-10T12:45:27Z</time>
      </trkpt>
      <trkpt lat="53.337276997044683" lon="-3.849432030692697">
        <ele>94.349999999999994</ele>
        <time>2026-07-10T12:45:37Z</time>
      </trkpt>
      <trkpt lat="53.337352015078068" lon="-3.849796978756785">
        <ele>96.75</ele>
        <time>2026-07-10T12:45:47Z</time>
      </trkpt>
      <trkpt lat="53.33735796622932" lon="-3.849825980141759">
        <ele>96.75</ele>
        <time>2026-07-10T12:45:48Z</time>
      </trkpt>
      <trkpt lat="53.337364001199603" lon="-3.849853975698352">
        <ele>96.75</ele>
        <time>2026-07-10T12:45:49Z</time>
      </trkpt>
      <trkpt lat="53.337369030341506" lon="-3.849877025932074">
        <ele>97.230000000000004</ele>
        <time>2026-07-10T12:45:50Z</time>
      </trkpt>
      <trkpt lat="53.337369030341506" lon="-3.849877025932074">
        <ele>97.709999999999994</ele>
        <time>2026-07-10T12:46:06Z</time>
      </trkpt>
      <trkpt lat="53.337369030341506" lon="-3.849877025932074">
        <ele>98.189999999999998</ele>
        <time>2026-07-10T12:46:13Z</time>
      </trkpt>
      <trkpt lat="53.337354026734829" lon="-3.849794967100024">
        <ele>100.11</ele>
        <time>2026-07-10T12:46:19Z</time>
      </trkpt>
      <trkpt lat="53.337344974279404" lon="-3.84976102039218">
        <ele>100.59999999999999</ele>
        <time>2026-07-10T12:46:21Z</time>
      </trkpt>
      <trkpt lat="53.337299963459373" lon="-3.849540995433927">
        <ele>99.629999999999995</ele>
        <time>2026-07-10T12:46:31Z</time>
      </trkpt>
      <trkpt lat="53.337264005094767" lon="-3.849365981295705">
        <ele>99.629999999999995</ele>
        <time>2026-07-10T12:46:33Z</time>
      </trkpt>
      <trkpt lat="53.337068036198616" lon="-3.848550003021956">
        <ele>100.11</ele>
        <time>2026-07-10T12:46:41Z</time>
      </trkpt>
      <trkpt lat="53.33705697208643" lon="-3.848518989980221">
        <ele>100.59999999999999</ele>
        <time>2026-07-10T12:46:42Z</time>
      </trkpt>
      <trkpt lat="53.336996035650373" lon="-3.848497029393911">
        <ele>100.59999999999999</ele>
        <time>2026-07-10T12:46:43Z</time>
      </trkpt>
      <trkpt lat="53.336894027888775" lon="-3.848459981381893">
        <ele>101.08</ele>
        <time>2026-07-10T12:46:45Z</time>
      </trkpt>
      <trkpt lat="53.336837030947208" lon="-3.848439026623964">
        <ele>101.56</ele>
        <time>2026-07-10T12:46:46Z</time>
      </trkpt>
      <trkpt lat="53.336821021512151" lon="-3.848433997482061">
        <ele>102.04000000000001</ele>
        <time>2026-07-10T12:46:47Z</time>
      </trkpt>
      <trkpt lat="53.33682001568377" lon="-3.848442966118455">
        <ele>102.04000000000001</ele>
        <time>2026-07-10T12:46:48Z</time>
      </trkpt>
      <trkpt lat="53.336804006248713" lon="-3.848527958616614">
        <ele>102.52</ele>
        <time>2026-07-10T12:46:49Z</time>
      </trkpt>
      <trkpt lat="53.336786990985274" lon="-3.84862300939858">
        <ele>103</ele>
        <time>2026-07-10T12:46:50Z</time>
      </trkpt>
      <trkpt lat="53.336767964065075" lon="-3.848728034645319">
        <ele>103.48</ele>
        <time>2026-07-10T12:46:51Z</time>
      </trkpt>
      <trkpt lat="53.336639972403646" lon="-3.849429013207555">
        <ele>109.73</ele>
        <time>2026-07-10T12:47:00Z</time>
      </trkpt>
      <trkpt lat="53.336590016260743" lon="-3.849705029278994">
        <ele>112.61</ele>
        <time>2026-07-10T12:47:20Z</time>
      </trkpt>
      <trkpt lat="53.336568977683783" lon="-3.849819023162127">
        <ele>113.09</ele>
        <time>2026-07-10T12:47:21Z</time>
      </trkpt>
      <trkpt lat="53.336548022925854" lon="-3.849937962368131">
        <ele>113.56999999999999</ele>
        <time>2026-07-10T12:47:22Z</time>
      </trkpt>
      <trkpt lat="53.336524972692132" lon="-3.850061008706689">
        <ele>114.05</ele>
        <time>2026-07-10T12:47:23Z</time>
      </trkpt>
      <trkpt lat="53.336504017934203" lon="-3.850176008418202">
        <ele>114.53</ele>
        <time>2026-07-10T12:47:24Z</time>
      </trkpt>
      <trkpt lat="53.336485996842384" lon="-3.850277010351419">
        <ele>115.01000000000001</ele>
        <time>2026-07-10T12:47:25Z</time>
      </trkpt>
      <trkpt lat="53.336478034034371" lon="-3.850322021171451">
        <ele>115.5</ele>
        <time>2026-07-10T12:47:26Z</time>
      </trkpt>
      <trkpt lat="53.336318023502827" lon="-3.850584039464593">
        <ele>118.38</ele>
        <time>2026-07-10T12:47:31Z</time>
      </trkpt>
      <trkpt lat="53.336286004632711" lon="-3.850635001435876">
        <ele>118.86</ele>
        <time>2026-07-10T12:47:32Z</time>
      </trkpt>
      <trkpt lat="53.336241999641061" lon="-3.8507080078125">
        <ele>119.34</ele>
        <time>2026-07-10T12:47:33Z</time>
      </trkpt>
      <trkpt lat="53.336206963285804" lon="-3.850742960348725">
        <ele>119.81999999999999</ele>
        <time>2026-07-10T12:47:34Z</time>
      </trkpt>
      <trkpt lat="53.336163964122534" lon="-3.850785959511995">
        <ele>120.3</ele>
        <time>2026-07-10T12:47:35Z</time>
      </trkpt>
      <trkpt lat="53.336090035736561" lon="-3.850798029452562">
        <ele>120.3</ele>
        <time>2026-07-10T12:47:36Z</time>
      </trkpt>
      <trkpt lat="53.336037984117866" lon="-3.850800963118672">
        <ele>120.78</ele>
        <time>2026-07-10T12:47:37Z</time>
      </trkpt>
      <trkpt lat="53.33598299883306" lon="-3.850803980603814">
        <ele>121.26000000000001</ele>
        <time>2026-07-10T12:47:38Z</time>
      </trkpt>
      <trkpt lat="53.335927007719874" lon="-3.850806998088956">
        <ele>121.73999999999999</ele>
        <time>2026-07-10T12:47:39Z</time>
      </trkpt>
      <trkpt lat="53.335871016606688" lon="-3.850811021402478">
        <ele>121.73999999999999</ele>
        <time>2026-07-10T12:47:40Z</time>
      </trkpt>
      <trkpt lat="53.335812008008361" lon="-3.85081403888762">
        <ele>122.22</ele>
        <time>2026-07-10T12:47:41Z</time>
      </trkpt>
      <trkpt lat="53.334999969229102" lon="-3.850281033664942">
        <ele>134.72</ele>
        <time>2026-07-10T12:47:52Z</time>
      </trkpt>
      <trkpt lat="53.334773993119597" lon="-3.850070983171463">
        <ele>139.05000000000001</ele>
        <time>2026-07-10T12:47:55Z</time>
      </trkpt>
      <trkpt lat="53.333989027887583" lon="-3.849056018516421">
        <ele>149.62</ele>
        <time>2026-07-10T12:48:05Z</time>
      </trkpt>
      <trkpt lat="53.333930019289255" lon="-3.848886033520103">
        <ele>150.58000000000001</ele>
        <time>2026-07-10T12:48:06Z</time>
      </trkpt>
      <trkpt lat="53.333881990984082" lon="-3.848747983574867">
        <ele>151.53999999999999</ele>
        <time>2026-07-10T12:48:07Z</time>
      </trkpt>
      <trkpt lat="53.333636987954378" lon="-3.848015991970897">
        <ele>155.38999999999999</ele>
        <time>2026-07-10T12:48:12Z</time>
      </trkpt>
      <trkpt lat="53.333611004054546" lon="-3.847861010581255">
        <ele>155.87</ele>
        <time>2026-07-10T12:48:13Z</time>
      </trkpt>
      <trkpt lat="53.333559036254883" lon="-3.847549958154559">
        <ele>155.38999999999999</ele>
        <time>2026-07-10T12:48:15Z</time>
      </trkpt>
      <trkpt lat="53.333532968536019" lon="-3.847391959279776">
        <ele>155.38999999999999</ele>
        <time>2026-07-10T12:48:16Z</time>
      </trkpt>
      <trkpt lat="53.33349097520113" lon="-3.847245024517179">
        <ele>154.91</ele>
        <time>2026-07-10T12:48:17Z</time>
      </trkpt>
      <trkpt lat="53.333430960774422" lon="-3.847124995663762">
        <ele>154.43000000000001</ele>
        <time>2026-07-10T12:48:18Z</time>
      </trkpt>
      <trkpt lat="53.333358038216829" lon="-3.847006978467107">
        <ele>153.94999999999999</ele>
        <time>2026-07-10T12:48:19Z</time>
      </trkpt>
      <trkpt lat="53.333286037668586" lon="-3.846889967098832">
        <ele>152.99000000000001</ele>
        <time>2026-07-10T12:48:20Z</time>
      </trkpt>
      <trkpt lat="53.332797959446907" lon="-3.846102990210056">
        <ele>156.34999999999999</ele>
        <time>2026-07-10T12:48:29Z</time>
      </trkpt>
      <trkpt lat="53.332760995253921" lon="-3.846042975783348">
        <ele>156.83000000000001</ele>
        <time>2026-07-10T12:48:30Z</time>
      </trkpt>
      <trkpt lat="53.332721013575792" lon="-3.845978016033769">
        <ele>157.78999999999999</ele>
        <time>2026-07-10T12:48:31Z</time>
      </trkpt>
      <trkpt lat="53.332626968622208" lon="-3.845826974138618">
        <ele>158.27000000000001</ele>
        <time>2026-07-10T12:48:33Z</time>
      </trkpt>
      <trkpt lat="53.332567038014531" lon="-3.845766959711909">
        <ele>158.75</ele>
        <time>2026-07-10T12:48:34Z</time>
      </trkpt>
      <trkpt lat="53.332496965304017" lon="-3.845752039924264">
        <ele>159.24000000000001</ele>
        <time>2026-07-10T12:48:35Z</time>
      </trkpt>
      <trkpt lat="53.332418007776141" lon="-3.845735024660826">
        <ele>159.24000000000001</ele>
        <time>2026-07-10T12:48:36Z</time>
      </trkpt>
      <trkpt lat="53.332331003621221" lon="-3.845717003569007">
        <ele>159.72</ele>
        <time>2026-07-10T12:48:37Z</time>
      </trkpt>
      <trkpt lat="53.332241987809539" lon="-3.845694037154317">
        <ele>159.72</ele>
        <time>2026-07-10T12:48:38Z</time>
      </trkpt>
      <trkpt lat="53.331992961466312" lon="-3.845622958615422">
        <ele>160.19999999999999</ele>
        <time>2026-07-10T12:48:41Z</time>
      </trkpt>
      <trkpt lat="53.331889025866985" lon="-3.845666963607073">
        <ele>159.72</ele>
        <time>2026-07-10T12:48:42Z</time>
      </trkpt>
      <trkpt lat="53.331799004226923" lon="-3.845706023275852">
        <ele>159.72</ele>
        <time>2026-07-10T12:48:43Z</time>
      </trkpt>
      <trkpt lat="53.331713005900383" lon="-3.845742987468839">
        <ele>159.72</ele>
        <time>2026-07-10T12:48:44Z</time>
      </trkpt>
      <trkpt lat="53.331647962331772" lon="-3.84578799828887">
        <ele>159.24000000000001</ele>
        <time>2026-07-10T12:48:45Z</time>
      </trkpt>
      <trkpt lat="53.331560958176851" lon="-3.845856981351972">
        <ele>157.78999999999999</ele>
        <time>2026-07-10T12:48:50Z</time>
      </trkpt>
      <trkpt lat="53.331560958176851" lon="-3.845856981351972">
        <ele>157.78999999999999</ele>
        <time>2026-07-10T12:49:26Z</time>
      </trkpt>
      <trkpt lat="53.331560958176851" lon="-3.845856981351972">
        <ele>156.34999999999999</ele>
        <time>2026-07-10T12:50:09Z</time>
      </trkpt>
      <trkpt lat="53.331489041447639" lon="-3.845913978293538">
        <ele>155.38999999999999</ele>
        <time>2026-07-10T12:50:14Z</time>
      </trkpt>
      <trkpt lat="53.331430032849312" lon="-3.84596100077033">
        <ele>154.91</ele>
        <time>2026-07-10T12:50:15Z</time>
      </trkpt>
      <trkpt lat="53.331371024250984" lon="-3.846009029075503">
        <ele>154.43000000000001</ele>
        <time>2026-07-10T12:50:16Z</time>
      </trkpt>
      <trkpt lat="53.331301035359502" lon="-3.846020009368658">
        <ele>154.43000000000001</ele>
        <time>2026-07-10T12:50:17Z</time>
      </trkpt>
      <trkpt lat="53.331242026761174" lon="-3.846029983833432">
        <ele>154.43000000000001</ele>
        <time>2026-07-10T12:50:18Z</time>
      </trkpt>
      <trkpt lat="53.331181006506085" lon="-3.846027972176671">
        <ele>153.94999999999999</ele>
        <time>2026-07-10T12:50:19Z</time>
      </trkpt>
      <trkpt lat="53.331111017614603" lon="-3.84602403268218">
        <ele>153.94999999999999</ele>
        <time>2026-07-10T12:50:20Z</time>
      </trkpt>
      <trkpt lat="53.330909013748169" lon="-3.846014980226755">
        <ele>152.99000000000001</ele>
        <time>2026-07-10T12:50:23Z</time>
      </trkpt>
      <trkpt lat="53.330856962129474" lon="-3.846012968569994">
        <ele>152.50999999999999</ele>
        <time>2026-07-10T12:50:24Z</time>
      </trkpt>
      <trkpt lat="53.33076199516654" lon="-3.845953959971666">
        <ele>152.03</ele>
        <time>2026-07-10T12:50:25Z</time>
      </trkpt>
      <trkpt lat="53.330742968246341" lon="-3.845834014937282">
        <ele>152.03</ele>
        <time>2026-07-10T12:50:26Z</time>
      </trkpt>
      <trkpt lat="53.330720001831651" lon="-3.845686996355653">
        <ele>152.03</ele>
        <time>2026-07-10T12:50:27Z</time>
      </trkpt>
      <trkpt lat="53.330694017931819" lon="-3.845514999702573">
        <ele>152.03</ele>
        <time>2026-07-10T12:50:28Z</time>
      </trkpt>
      <trkpt lat="53.330664010718465" lon="-3.845320036634803">
        <ele>152.03</ele>
        <time>2026-07-10T12:50:29Z</time>
      </trkpt>
      <trkpt lat="53.330412972718477" lon="-3.843560004606843">
        <ele>152.99000000000001</ele>
        <time>2026-07-10T12:50:38Z</time>
      </trkpt>
      <trkpt lat="53.330364022403955" lon="-3.843061029911041">
        <ele>152.03</ele>
        <time>2026-07-10T12:50:41Z</time>
      </trkpt>
      <trkpt lat="53.330367961898446" lon="-3.842914011329413">
        <ele>151.53999999999999</ele>
        <time>2026-07-10T12:50:42Z</time>
      </trkpt>
      <trkpt lat="53.33037399686873" lon="-3.842763975262642">
        <ele>150.58000000000001</ele>
        <time>2026-07-10T12:50:43Z</time>
      </trkpt>
      <trkpt lat="53.330380031839013" lon="-3.842620979994535">
        <ele>150.09999999999999</ele>
        <time>2026-07-10T12:50:44Z</time>
      </trkpt>
      <trkpt lat="53.330376008525491" lon="-3.842483013868332">
        <ele>149.13999999999999</ele>
        <time>2026-07-10T12:50:45Z</time>
      </trkpt>
      <trkpt lat="53.330324040725827" lon="-3.842356028035283">
        <ele>148.66</ele>
        <time>2026-07-10T12:50:46Z</time>
      </trkpt>
      <trkpt lat="53.330256985500455" lon="-3.842272963374853">
        <ele>147.69999999999999</ele>
        <time>2026-07-10T12:50:47Z</time>
      </trkpt>
      <trkpt lat="53.330164030194283" lon="-3.842188976705074">
        <ele>146.25999999999999</ele>
        <time>2026-07-10T12:50:48Z</time>
      </trkpt>
      <trkpt lat="53.330071996897459" lon="-3.842188976705074">
        <ele>145.30000000000001</ele>
        <time>2026-07-10T12:50:49Z</time>
      </trkpt>
      <trkpt lat="53.329973006621003" lon="-3.842188976705074">
        <ele>143.84999999999999</ele>
        <time>2026-07-10T12:50:50Z</time>
      </trkpt>
      <trkpt lat="53.329866975545883" lon="-3.842188976705074">
        <ele>142.41</ele>
        <time>2026-07-10T12:50:51Z</time>
      </trkpt>
      <trkpt lat="53.329079998657107" lon="-3.842171039432287">
        <ele>125.11</ele>
        <time>2026-07-10T12:50:59Z</time>
      </trkpt>
      <trkpt lat="53.329010009765625" lon="-3.842169027775526">
        <ele>123.19</ele>
        <time>2026-07-10T12:51:00Z</time>
      </trkpt>
      <trkpt lat="53.328933985903859" lon="-3.842054028064013">
        <ele>121.73999999999999</ele>
        <time>2026-07-10T12:51:01Z</time>
      </trkpt>
      <trkpt lat="53.328894004225731" lon="-3.841917989775538">
        <ele>119.81999999999999</ele>
        <time>2026-07-10T12:51:02Z</time>
      </trkpt>
      <trkpt lat="53.32884999923408" lon="-3.841768959537149">
        <ele>117.90000000000001</ele>
        <time>2026-07-10T12:51:03Z</time>
      </trkpt>
      <trkpt lat="53.32880599424243" lon="-3.841616995632649">
        <ele>115.98</ele>
        <time>2026-07-10T12:51:04Z</time>
      </trkpt>
      <trkpt lat="53.328746985644102" lon="-3.841357994824648">
        <ele>112.61</ele>
        <time>2026-07-10T12:51:06Z</time>
      </trkpt>
      <trkpt lat="53.328737011179328" lon="-3.84123201481998">
        <ele>110.69</ele>
        <time>2026-07-10T12:51:07Z</time>
      </trkpt>
      <trkpt lat="53.328668028116226" lon="-3.840326014906168">
        <ele>101.08</ele>
        <time>2026-07-10T12:51:13Z</time>
      </trkpt>
      <trkpt lat="53.328645983710885" lon="-3.838798999786377">
        <ele>85.209999999999994</ele>
        <time>2026-07-10T12:51:23Z</time>
      </trkpt>
      <trkpt lat="53.328652018681169" lon="-3.838512003421783">
        <ele>80.409999999999997</ele>
        <time>2026-07-10T12:51:26Z</time>
      </trkpt>
      <trkpt lat="53.328658975660801" lon="-3.838312011212111">
        <ele>77.519999999999996</ele>
        <time>2026-07-10T12:51:28Z</time>
      </trkpt>
      <trkpt lat="53.328662998974323" lon="-3.838200028985739">
        <ele>76.079999999999998</ele>
        <time>2026-07-10T12:51:29Z</time>
      </trkpt>
      <trkpt lat="53.328667022287846" lon="-3.838090980425477">
        <ele>74.640000000000001</ele>
        <time>2026-07-10T12:51:30Z</time>
      </trkpt>
      <trkpt lat="53.32865503616631" lon="-3.837965000420809">
        <ele>73.200000000000003</ele>
        <time>2026-07-10T12:51:31Z</time>
      </trkpt>
      <trkpt lat="53.328644977882504" lon="-3.83786098100245">
        <ele>72.719999999999999</ele>
        <time>2026-07-10T12:51:32Z</time>
      </trkpt>
      <trkpt lat="53.32863500341773" lon="-3.837760984897614">
        <ele>71.760000000000005</ele>
        <time>2026-07-10T12:51:33Z</time>
      </trkpt>
      <trkpt lat="53.328625028952956" lon="-3.837656965479255">
        <ele>70.790000000000006</ele>
        <time>2026-07-10T12:51:34Z</time>
      </trkpt>
      <trkpt lat="53.32861497066915" lon="-3.837551018223167">
        <ele>69.829999999999998</ele>
        <time>2026-07-10T12:51:35Z</time>
      </trkpt>
      <trkpt lat="53.328603990375996" lon="-3.837439035996795">
        <ele>69.349999999999994</ele>
        <time>2026-07-10T12:51:36Z</time>
      </trkpt>
      <trkpt lat="53.328417995944619" lon="-3.836653986945748">
        <ele>66.469999999999999</ele>
        <time>2026-07-10T12:51:43Z</time>
      </trkpt>
      <trkpt lat="53.328367033973336" lon="-3.836481990292668">
        <ele>65.510000000000005</ele>
        <time>2026-07-10T12:51:45Z</time>
      </trkpt>
      <trkpt lat="53.328281035646796" lon="-3.836309993639588">
        <ele>64.549999999999997</ele>
        <time>2026-07-10T12:51:46Z</time>
      </trkpt>
      <trkpt lat="53.328253962099552" lon="-3.836186025291681">
        <ele>63.579999999999998</ele>
        <time>2026-07-10T12:51:47Z</time>
      </trkpt>
      <trkpt lat="53.328225966542959" lon="-3.836062978953123">
        <ele>62.140000000000001</ele>
        <time>2026-07-10T12:51:48Z</time>
      </trkpt>
      <trkpt lat="53.328195037320256" lon="-3.835924006998539">
        <ele>60.700000000000003</ele>
        <time>2026-07-10T12:51:49Z</time>
      </trkpt>
      <trkpt lat="53.328168969601393" lon="-3.83581998758018">
        <ele>59.740000000000002</ele>
        <time>2026-07-10T12:51:50Z</time>
      </trkpt>
      <trkpt lat="53.328138962388039" lon="-3.835699036717415">
        <ele>58.299999999999997</ele>
        <time>2026-07-10T12:51:51Z</time>
      </trkpt>
      <trkpt lat="53.328109961003065" lon="-3.83558495901525">
        <ele>56.859999999999999</ele>
        <time>2026-07-10T12:51:52Z</time>
      </trkpt>
      <trkpt lat="53.328101998195052" lon="-3.835457973182201">
        <ele>55.890000000000001</ele>
        <time>2026-07-10T12:51:53Z</time>
      </trkpt>
      <trkpt lat="53.328094035387039" lon="-3.83532302454114">
        <ele>54.450000000000003</ele>
        <time>2026-07-10T12:51:54Z</time>
      </trkpt>
      <trkpt lat="53.328084982931614" lon="-3.835177011787891">
        <ele>53.490000000000002</ele>
        <time>2026-07-10T12:51:55Z</time>
      </trkpt>
      <trkpt lat="53.32807601429522" lon="-3.835029993206263">
        <ele>52.530000000000001</ele>
        <time>2026-07-10T12:51:56Z</time>
      </trkpt>
      <trkpt lat="53.328066961839795" lon="-3.834880962967873">
        <ele>51.090000000000003</ele>
        <time>2026-07-10T12:51:57Z</time>
      </trkpt>
      <trkpt lat="53.328052964061499" lon="-3.833400970324874">
        <ele>40.030000000000001</ele>
        <time>2026-07-10T12:52:07Z</time>
      </trkpt>
      <trkpt lat="53.328063022345304" lon="-3.833143981173635">
        <ele>38.109999999999999</ele>
        <time>2026-07-10T12:52:09Z</time>
      </trkpt>
      <trkpt lat="53.327998984605074" lon="-3.832580968737602">
        <ele>33.299999999999997</ele>
        <time>2026-07-10T12:52:13Z</time>
      </trkpt>
      <trkpt lat="53.32796897739172" lon="-3.832479966804385">
        <ele>31.859999999999999</ele>
        <time>2026-07-10T12:52:14Z</time>
      </trkpt>
      <trkpt lat="53.327933019027114" lon="-3.832438979297876">
        <ele>29.940000000000001</ele>
        <time>2026-07-10T12:52:15Z</time>
      </trkpt>
      <trkpt lat="53.327894965186715" lon="-3.832425987347961">
        <ele>28.98</ele>
        <time>2026-07-10T12:52:16Z</time>
      </trkpt>
      <trkpt lat="53.327859006822109" lon="-3.832462029531598">
        <ele>27.530000000000001</ele>
        <time>2026-07-10T12:52:17Z</time>
      </trkpt>
      <trkpt lat="53.327821958810091" lon="-3.832497987896204">
        <ele>26.57</ele>
        <time>2026-07-10T12:52:18Z</time>
      </trkpt>
      <trkpt lat="53.32779798656702" lon="-3.832536963745952">
        <ele>25.609999999999999</ele>
        <time>2026-07-10T12:52:19Z</time>
      </trkpt>
      <trkpt lat="53.327768985182047" lon="-3.832607036456466">
        <ele>24.170000000000002</ele>
        <time>2026-07-10T12:52:20Z</time>
      </trkpt>
      <trkpt lat="53.327649962157011" lon="-3.832890009507537">
        <ele>20.32</ele>
        <time>2026-07-10T12:52:24Z</time>
      </trkpt>
      <trkpt lat="53.327592965215445" lon="-3.832937031984329">
        <ele>19.359999999999999</ele>
        <time>2026-07-10T12:52:25Z</time>
      </trkpt>
      <trkpt lat="53.327558012679219" lon="-3.832951029762626">
        <ele>18.879999999999999</ele>
        <time>2026-07-10T12:52:26Z</time>
      </trkpt>
      <trkpt lat="53.327422980219126" lon="-3.83300500921905">
        <ele>16.48</ele>
        <time>2026-07-10T12:52:34Z</time>
      </trkpt>
      <trkpt lat="53.327422980219126" lon="-3.83300500921905">
        <ele>13.6</ele>
        <time>2026-07-10T12:52:42Z</time>
      </trkpt>
      <trkpt lat="53.327304041013122" lon="-3.833120008930564">
        <ele>12.630000000000001</ele>
        <time>2026-07-10T12:52:44Z</time>
      </trkpt>
      <trkpt lat="53.327251989394426" lon="-3.833088995888829">
        <ele>11.67</ele>
        <time>2026-07-10T12:52:45Z</time>
      </trkpt>
      <trkpt lat="53.32719499245286" lon="-3.833055971190333">
        <ele>11.19</ele>
        <time>2026-07-10T12:52:46Z</time>
      </trkpt>
      <trkpt lat="53.326725019142032" lon="-3.832788001745939">
        <ele>4.46</ele>
        <time>2026-07-10T12:52:57Z</time>
      </trkpt>
      <trkpt lat="53.326499965041876" lon="-3.832662021741271">
        <ele>2.06</ele>
        <time>2026-07-10T12:53:03Z</time>
      </trkpt>
      <trkpt lat="53.326451014727354" lon="-3.832622040063143">
        <ele>1.1</ele>
        <time>2026-07-10T12:53:05Z</time>
      </trkpt>
      <trkpt lat="53.326421007514" lon="-3.83259697817266">
        <ele>0.62</ele>
        <time>2026-07-10T12:53:06Z</time>
      </trkpt>
      <trkpt lat="53.326391000300646" lon="-3.832573005929589">
        <ele>0.14</ele>
        <time>2026-07-10T12:53:07Z</time>
      </trkpt>
      <trkpt lat="53.326308019459248" lon="-3.832504022866488">
        <ele>-1.3</ele>
        <time>2026-07-10T12:53:10Z</time>
      </trkpt>
      <trkpt lat="53.326052036136389" lon="-3.832292966544628">
        <ele>-3.23</ele>
        <time>2026-07-10T12:53:20Z</time>
      </trkpt>
      <trkpt lat="53.325997972860932" lon="-3.832248961552978">
        <ele>-3.23</ele>
        <time>2026-07-10T12:53:30Z</time>
      </trkpt>
      <trkpt lat="53.325997972860932" lon="-3.832248961552978">
        <ele>-3.23</ele>
        <time>2026-07-10T12:53:39Z</time>
      </trkpt>
      <trkpt lat="53.325980035588145" lon="-3.832234041765332">
        <ele>-3.23</ele>
        <time>2026-07-10T12:53:40Z</time>
      </trkpt>
      <trkpt lat="53.325980035588145" lon="-3.832234041765332">
        <ele>-3.23</ele>
        <time>2026-07-10T12:53:41Z</time>
      </trkpt>
      <trkpt lat="53.326000990346074" lon="-3.831905974075198">
        <ele>-4.19</ele>
        <time>2026-07-10T12:53:51Z</time>
      </trkpt>
      <trkpt lat="53.325923960655928" lon="-3.832049975171685">
        <ele>19.84</ele>
        <time>2026-07-10T13:18:54Z</time>
      </trkpt>
      <trkpt lat="53.325932007282972" lon="-3.832105966284871">
        <ele>21.289999999999999</ele>
        <time>2026-07-10T13:19:17Z</time>
      </trkpt>
      <trkpt lat="53.325869981199503" lon="-3.832217026501894">
        <ele>26.09</ele>
        <time>2026-07-10T13:19:56Z</time>
      </trkpt>
      <trkpt lat="53.325872998684645" lon="-3.832329008728266">
        <ele>16</ele>
        <time>2026-07-10T13:20:25Z</time>
      </trkpt>
      <trkpt lat="53.325856989249587" lon="-3.832306964322925">
        <ele>13.119999999999999</ele>
        <time>2026-07-10T13:20:44Z</time>
      </trkpt>
      <trkpt lat="53.325853971764445" lon="-3.832306964322925">
        <ele>13.6</ele>
        <time>2026-07-10T13:20:49Z</time>
      </trkpt>
      <trkpt lat="53.325770990923047" lon="-3.832061039283872">
        <ele>13.119999999999999</ele>
        <time>2026-07-10T13:20:57Z</time>
      </trkpt>
      <trkpt lat="53.325663032010198" lon="-3.831825004890561">
        <ele>13.6</ele>
        <time>2026-07-10T13:21:00Z</time>
      </trkpt>
      <trkpt lat="53.325449964031577" lon="-3.831649990752339">
        <ele>13.119999999999999</ele>
        <time>2026-07-10T13:21:11Z</time>
      </trkpt>
      <trkpt lat="53.325331024825573" lon="-3.831548988819122">
        <ele>13.6</ele>
        <time>2026-07-10T13:21:24Z</time>
      </trkpt>
      <trkpt lat="53.324964987114072" lon="-3.831126037985086">
        <ele>12.15</ele>
        <time>2026-07-10T13:21:35Z</time>
      </trkpt>
      <trkpt lat="53.324864991009235" lon="-3.830993017181754">
        <ele>10.710000000000001</ele>
        <time>2026-07-10T13:21:44Z</time>
      </trkpt>
      <trkpt lat="53.324843030422926" lon="-3.830964015796781">
        <ele>11.19</ele>
        <time>2026-07-10T13:21:56Z</time>
      </trkpt>
      <trkpt lat="53.324782010167837" lon="-3.830883968621492">
        <ele>10.710000000000001</ele>
        <time>2026-07-10T13:22:13Z</time>
      </trkpt>
      <trkpt lat="53.324516974389553" lon="-3.830478033050895">
        <ele>7.35</ele>
        <time>2026-07-10T13:22:24Z</time>
      </trkpt>
      <trkpt lat="53.324137022718787" lon="-3.829760039225221">
        <ele>7.35</ele>
        <time>2026-07-10T13:22:36Z</time>
      </trkpt>
      <trkpt lat="53.324111038818955" lon="-3.829707987606525">
        <ele>7.35</ele>
        <time>2026-07-10T13:22:37Z</time>
      </trkpt>
      <trkpt lat="53.324087988585234" lon="-3.829662976786494">
        <ele>7.83</ele>
        <time>2026-07-10T13:22:38Z</time>
      </trkpt>
      <trkpt lat="53.324067033827305" lon="-3.829619977623224">
        <ele>7.83</ele>
        <time>2026-07-10T13:22:39Z</time>
      </trkpt>
      <trkpt lat="53.324043983593583" lon="-3.829573038965464">
        <ele>7.35</ele>
        <time>2026-07-10T13:22:40Z</time>
      </trkpt>
      <trkpt lat="53.323876010254025" lon="-3.82922200486064">
        <ele>7.35</ele>
        <time>2026-07-10T13:22:49Z</time>
      </trkpt>
      <trkpt lat="53.323826976120472" lon="-3.829107005149126">
        <ele>7.83</ele>
        <time>2026-07-10T13:22:51Z</time>
      </trkpt>
      <trkpt lat="53.323803003877401" lon="-3.829047996550798">
        <ele>7.83</ele>
        <time>2026-07-10T13:22:52Z</time>
      </trkpt>
      <trkpt lat="53.323775008320808" lon="-3.828983958810568">
        <ele>7.83</ele>
        <time>2026-07-10T13:22:53Z</time>
      </trkpt>
      <trkpt lat="53.323685992509127" lon="-3.82877298630774">
        <ele>7.83</ele>
        <time>2026-07-10T13:22:56Z</time>
      </trkpt>
      <trkpt lat="53.323654979467392" lon="-3.828700985759497">
        <ele>7.83</ele>
        <time>2026-07-10T13:22:57Z</time>
      </trkpt>
      <trkpt lat="53.323622960597277" lon="-3.828626973554492">
        <ele>7.83</ele>
        <time>2026-07-10T13:22:58Z</time>
      </trkpt>
      <trkpt lat="53.323591025546193" lon="-3.828550027683377">
        <ele>7.83</ele>
        <time>2026-07-10T13:22:59Z</time>
      </trkpt>
      <trkpt lat="53.323556995019317" lon="-3.82847199216485">
        <ele>7.83</ele>
        <time>2026-07-10T13:23:00Z</time>
      </trkpt>
      <trkpt lat="53.323523970320821" lon="-3.828393034636974">
        <ele>8.310000000000001</ele>
        <time>2026-07-10T13:23:01Z</time>
      </trkpt>
      <trkpt lat="53.323495974764228" lon="-3.828327991068363">
        <ele>8.310000000000001</ele>
        <time>2026-07-10T13:23:02Z</time>
      </trkpt>
      <trkpt lat="53.323459010571241" lon="-3.828235035762191">
        <ele>8.310000000000001</ele>
        <time>2026-07-10T13:23:03Z</time>
      </trkpt>
      <trkpt lat="53.323277039453387" lon="-3.827774031087756">
        <ele>9.75</ele>
        <time>2026-07-10T13:23:08Z</time>
      </trkpt>
      <trkpt lat="53.323237979784608" lon="-3.827675962820649">
        <ele>9.75</ele>
        <time>2026-07-10T13:23:09Z</time>
      </trkpt>
      <trkpt lat="53.322912007570267" lon="-3.826748002320528">
        <ele>12.15</ele>
        <time>2026-07-10T13:23:18Z</time>
      </trkpt>
      <trkpt lat="53.322851993143559" lon="-3.826567959040403">
        <ele>11.19</ele>
        <time>2026-07-10T13:23:20Z</time>
      </trkpt>
      <trkpt lat="53.322776975110173" lon="-3.826342988759279">
        <ele>9.75</ele>
        <time>2026-07-10T13:23:27Z</time>
      </trkpt>
      <trkpt lat="53.322687037289143" lon="-3.826050041243434">
        <ele>8.310000000000001</ele>
        <time>2026-07-10T13:23:42Z</time>
      </trkpt>
      <trkpt lat="53.322509005665779" lon="-3.825345039367676">
        <ele>8.789999999999999</ele>
        <time>2026-07-10T13:23:53Z</time>
      </trkpt>
      <trkpt lat="53.322353018447757" lon="-3.824781021103263">
        <ele>10.23</ele>
        <time>2026-07-10T13:24:04Z</time>
      </trkpt>
      <trkpt lat="53.322332985699177" lon="-3.824685970321298">
        <ele>10.23</ele>
        <time>2026-07-10T13:24:11Z</time>
      </trkpt>
      <trkpt lat="53.322227960452437" lon="-3.824071995913982">
        <ele>10.710000000000001</ele>
        <time>2026-07-10T13:24:21Z</time>
      </trkpt>
      <trkpt lat="53.321933001279831" lon="-3.822865001857281">
        <ele>11.19</ele>
        <time>2026-07-10T13:24:30Z</time>
      </trkpt>
      <trkpt lat="53.321718005463481" lon="-3.821782981976867">
        <ele>12.15</ele>
        <time>2026-07-10T13:24:40Z</time>
      </trkpt>
      <trkpt lat="53.321446012705564" lon="-3.820244986563921">
        <ele>14.08</ele>
        <time>2026-07-10T13:24:53Z</time>
      </trkpt>
      <trkpt lat="53.321393961086869" lon="-3.819943992421031">
        <ele>14.08</ele>
        <time>2026-07-10T13:24:55Z</time>
      </trkpt>
      <trkpt lat="53.321335958316922" lon="-3.819811977446079">
        <ele>13.6</ele>
        <time>2026-07-10T13:24:56Z</time>
      </trkpt>
      <trkpt lat="53.321274016052485" lon="-3.819693960249424">
        <ele>13.6</ele>
        <time>2026-07-10T13:24:57Z</time>
      </trkpt>
      <trkpt lat="53.32120000384748" lon="-3.819648027420044">
        <ele>13.6</ele>
        <time>2026-07-10T13:24:58Z</time>
      </trkpt>
      <trkpt lat="53.32113797776401" lon="-3.819608967751265">
        <ele>13.6</ele>
        <time>2026-07-10T13:24:59Z</time>
      </trkpt>
      <trkpt lat="53.321057008579373" lon="-3.81964199244976">
        <ele>14.08</ele>
        <time>2026-07-10T13:25:00Z</time>
      </trkpt>
      <trkpt lat="53.320992970839143" lon="-3.819694966077805">
        <ele>14.08</ele>
        <time>2026-07-10T13:25:01Z</time>
      </trkpt>
      <trkpt lat="53.32092298194766" lon="-3.819752968847752">
        <ele>14.08</ele>
        <time>2026-07-10T13:25:02Z</time>
      </trkpt>
      <trkpt lat="53.320610001683235" lon="-3.820015992969275">
        <ele>13.119999999999999</ele>
        <time>2026-07-10T13:25:06Z</time>
      </trkpt>
      <trkpt lat="53.319872980937362" lon="-3.821204965934157">
        <ele>10.710000000000001</ele>
        <time>2026-07-10T13:25:17Z</time>
      </trkpt>
      <trkpt lat="53.319748006761074" lon="-3.821511995047331">
        <ele>10.23</ele>
        <time>2026-07-10T13:25:23Z</time>
      </trkpt>
      <trkpt lat="53.319748006761074" lon="-3.821511995047331">
        <ele>10.710000000000001</ele>
        <time>2026-07-10T13:26:05Z</time>
      </trkpt>
      <trkpt lat="53.319720011204481" lon="-3.821578966453672">
        <ele>10.710000000000001</ele>
        <time>2026-07-10T13:26:13Z</time>
      </trkpt>
      <trkpt lat="53.319691009819508" lon="-3.821652978658676">
        <ele>10.710000000000001</ele>
        <time>2026-07-10T13:26:14Z</time>
      </trkpt>
      <trkpt lat="53.319579027593136" lon="-3.821689020842314">
        <ele>10.710000000000001</ele>
        <time>2026-07-10T13:26:15Z</time>
      </trkpt>
      <trkpt lat="53.31952597014606" lon="-3.821653984487057">
        <ele>10.23</ele>
        <time>2026-07-10T13:26:16Z</time>
      </trkpt>
      <trkpt lat="53.319455981254578" lon="-3.821566980332136">
        <ele>9.75</ele>
        <time>2026-07-10T13:26:17Z</time>
      </trkpt>
      <trkpt lat="53.319388004019856" lon="-3.821481987833977">
        <ele>9.75</ele>
        <time>2026-07-10T13:26:18Z</time>
      </trkpt>
      <trkpt lat="53.318713009357452" lon="-3.820638014003635">
        <ele>7.35</ele>
        <time>2026-07-10T13:26:27Z</time>
      </trkpt>
      <trkpt lat="53.31823599524796" lon="-3.820046000182629">
        <ele>5.42</ele>
        <time>2026-07-10T13:26:35Z</time>
      </trkpt>
      <trkpt lat="53.318015970289707" lon="-3.819738971069455">
        <ele>4.94</ele>
        <time>2026-07-10T13:26:38Z</time>
      </trkpt>
      <trkpt lat="53.317945981398225" lon="-3.81964098662138">
        <ele>4.46</ele>
        <time>2026-07-10T13:26:39Z</time>
      </trkpt>
      <trkpt lat="53.317540967836976" lon="-3.819076968356967">
        <ele>3.5</ele>
        <time>2026-07-10T13:26:46Z</time>
      </trkpt>
      <trkpt lat="53.31744197756052" lon="-3.818847974762321">
        <ele>3.5</ele>
        <time>2026-07-10T13:26:48Z</time>
      </trkpt>
      <trkpt lat="53.317396966740489" lon="-3.818744039162993">
        <ele>3.5</ele>
        <time>2026-07-10T13:26:49Z</time>
      </trkpt>
      <trkpt lat="53.316555004566908" lon="-3.817784981802106">
        <ele>4.94</ele>
        <time>2026-07-10T13:26:59Z</time>
      </trkpt>
      <trkpt lat="53.315470973029733" lon="-3.816312029957771">
        <ele>5.42</ele>
        <time>2026-07-10T13:27:12Z</time>
      </trkpt>
      <trkpt lat="53.314184015616775" lon="-3.814589967951179">
        <ele>7.83</ele>
        <time>2026-07-10T13:27:27Z</time>
      </trkpt>
      <trkpt lat="53.312939973548055" lon="-3.813178958371282">
        <ele>14.08</ele>
        <time>2026-07-10T13:27:41Z</time>
      </trkpt>
      <trkpt lat="53.312549963593483" lon="-3.812974020838738">
        <ele>15.52</ele>
        <time>2026-07-10T13:27:45Z</time>
      </trkpt>
      <trkpt lat="53.312423983588815" lon="-3.812920963391662">
        <ele>16</ele>
        <time>2026-07-10T13:27:46Z</time>
      </trkpt>
      <trkpt lat="53.312338991090655" lon="-3.812905959784985">
        <ele>16</ele>
        <time>2026-07-10T13:27:47Z</time>
      </trkpt>
      <trkpt lat="53.311349004507065" lon="-3.812820967286825">
        <ele>18.879999999999999</ele>
        <time>2026-07-10T13:27:57Z</time>
      </trkpt>
      <trkpt lat="53.31127398647368" lon="-3.812818033620715">
        <ele>19.359999999999999</ele>
        <time>2026-07-10T13:27:58Z</time>
      </trkpt>
      <trkpt lat="53.311196034774184" lon="-3.812806969508529">
        <ele>19.84</ele>
        <time>2026-07-10T13:27:59Z</time>
      </trkpt>
      <trkpt lat="53.311142977327108" lon="-3.812733041122556">
        <ele>20.32</ele>
        <time>2026-07-10T13:28:00Z</time>
      </trkpt>
      <trkpt lat="53.311081035062671" lon="-3.812661962583661">
        <ele>20.809999999999999</ele>
        <time>2026-07-10T13:28:01Z</time>
      </trkpt>
      <trkpt lat="53.311008028686047" lon="-3.812648970633745">
        <ele>21.289999999999999</ele>
        <time>2026-07-10T13:28:02Z</time>
      </trkpt>
      <trkpt lat="53.310924964025617" lon="-3.812604965642095">
        <ele>21.77</ele>
        <time>2026-07-10T13:28:03Z</time>
      </trkpt>
      <trkpt lat="53.31084500066936" lon="-3.812530031427741">
        <ele>22.25</ele>
        <time>2026-07-10T13:28:04Z</time>
      </trkpt>
      <trkpt lat="53.310756990686059" lon="-3.812446966767311">
        <ele>23.210000000000001</ele>
        <time>2026-07-10T13:28:05Z</time>
      </trkpt>
      <trkpt lat="53.310656994581223" lon="-3.812353005632758">
        <ele>23.690000000000001</ele>
        <time>2026-07-10T13:28:06Z</time>
      </trkpt>
      <trkpt lat="53.309796005487442" lon="-3.811552030965686">
        <ele>29.460000000000001</ele>
        <time>2026-07-10T13:28:13Z</time>
      </trkpt>
      <trkpt lat="53.308336967602372" lon="-3.810946019366384">
        <ele>35.229999999999997</ele>
        <time>2026-07-10T13:28:21Z</time>
      </trkpt>
      <trkpt lat="53.30815901979804" lon="-3.810863960534334">
        <ele>35.710000000000001</ele>
        <time>2026-07-10T13:28:22Z</time>
      </trkpt>
      <trkpt lat="53.307994985952973" lon="-3.810781985521317">
        <ele>36.189999999999998</ele>
        <time>2026-07-10T13:28:23Z</time>
      </trkpt>
      <trkpt lat="53.306231014430523" lon="-3.809737013652921">
        <ele>37.149999999999999</ele>
        <time>2026-07-10T13:28:34Z</time>
      </trkpt>
      <trkpt lat="53.306057006120682" lon="-3.809625031426549">
        <ele>36.189999999999998</ele>
        <time>2026-07-10T13:28:35Z</time>
      </trkpt>
      <trkpt lat="53.304367968812585" lon="-3.808226007968187">
        <ele>24.170000000000002</ele>
        <time>2026-07-10T13:28:46Z</time>
      </trkpt>
      <trkpt lat="53.304174011573195" lon="-3.808007994666696">
        <ele>21.289999999999999</ele>
        <time>2026-07-10T13:28:48Z</time>
      </trkpt>
      <trkpt lat="53.30409798771143" lon="-3.807911016047001">
        <ele>20.32</ele>
        <time>2026-07-10T13:28:49Z</time>
      </trkpt>
      <trkpt lat="53.30405498854816" lon="-3.807857036590576">
        <ele>19.84</ele>
        <time>2026-07-10T13:28:50Z</time>
      </trkpt>
      <trkpt lat="53.30396899022162" lon="-3.807685039937496">
        <ele>18.879999999999999</ele>
        <time>2026-07-10T13:28:51Z</time>
      </trkpt>
      <trkpt lat="53.30384099856019" lon="-3.807621002197266">
        <ele>18.399999999999999</ele>
        <time>2026-07-10T13:28:52Z</time>
      </trkpt>
      <trkpt lat="53.303773021325469" lon="-3.807625025510788">
        <ele>18.399999999999999</ele>
        <time>2026-07-10T13:28:53Z</time>
      </trkpt>
      <trkpt lat="53.303656009957194" lon="-3.80763198249042">
        <ele>18.399999999999999</ele>
        <time>2026-07-10T13:28:54Z</time>
      </trkpt>
      <trkpt lat="53.303529024124146" lon="-3.807639023289084">
        <ele>18.399999999999999</ele>
        <time>2026-07-10T13:28:55Z</time>
      </trkpt>
      <trkpt lat="53.303399020805955" lon="-3.807603986933827">
        <ele>18.399999999999999</ele>
        <time>2026-07-10T13:28:56Z</time>
      </trkpt>
      <trkpt lat="53.302645990625024" lon="-3.807370970025659">
        <ele>18.399999999999999</ele>
        <time>2026-07-10T13:29:01Z</time>
      </trkpt>
      <trkpt lat="53.302477011457086" lon="-3.807357978075743">
        <ele>17.920000000000002</ele>
        <time>2026-07-10T13:29:02Z</time>
      </trkpt>
      <trkpt lat="53.300764001905918" lon="-3.807612033560872">
        <ele>14.08</ele>
        <time>2026-07-10T13:29:11Z</time>
      </trkpt>
      <trkpt lat="53.298380021005869" lon="-3.807731978595257">
        <ele>12.15</ele>
        <time>2026-07-10T13:29:23Z</time>
      </trkpt>
      <trkpt lat="53.296585958451033" lon="-3.807500973343849">
        <ele>12.630000000000001</ele>
        <time>2026-07-10T13:29:32Z</time>
      </trkpt>
      <trkpt lat="53.29464697279036" lon="-3.807001998648047">
        <ele>12.630000000000001</ele>
        <time>2026-07-10T13:29:42Z</time>
      </trkpt>
      <trkpt lat="53.293708031997085" lon="-3.806658005341888">
        <ele>11.19</ele>
        <time>2026-07-10T13:29:49Z</time>
      </trkpt>
      <trkpt lat="53.293602000921965" lon="-3.80661902949214">
        <ele>10.710000000000001</ele>
        <time>2026-07-10T13:29:50Z</time>
      </trkpt>
      <trkpt lat="53.293426986783743" lon="-3.806497994810343">
        <ele>10.710000000000001</ele>
        <time>2026-07-10T13:29:52Z</time>
      </trkpt>
      <trkpt lat="53.293295977637172" lon="-3.806402022019029">
        <ele>10.23</ele>
        <time>2026-07-10T13:29:54Z</time>
      </trkpt>
      <trkpt lat="53.293262030929327" lon="-3.806376960128546">
        <ele>10.23</ele>
        <time>2026-07-10T13:29:55Z</time>
      </trkpt>
      <trkpt lat="53.293174020946026" lon="-3.806319963186979">
        <ele>10.23</ele>
        <time>2026-07-10T13:29:56Z</time>
      </trkpt>
      <trkpt lat="53.293133033439517" lon="-3.806333960965276">
        <ele>10.23</ele>
        <time>2026-07-10T13:29:57Z</time>
      </trkpt>
      <trkpt lat="53.2930320315063" lon="-3.806327003985643">
        <ele>9.75</ele>
        <time>2026-07-10T13:29:58Z</time>
      </trkpt>
      <trkpt lat="53.292949972674251" lon="-3.80632096901536">
        <ele>10.23</ele>
        <time>2026-07-10T13:29:59Z</time>
      </trkpt>
      <trkpt lat="53.29286296851933" lon="-3.806316023692489">
        <ele>10.23</ele>
        <time>2026-07-10T13:30:00Z</time>
      </trkpt>
      <trkpt lat="53.292763978242874" lon="-3.806285010650754">
        <ele>10.23</ele>
        <time>2026-07-10T13:30:01Z</time>
      </trkpt>
      <trkpt lat="53.292545964941382" lon="-3.806159030646086">
        <ele>10.710000000000001</ele>
        <time>2026-07-10T13:30:03Z</time>
      </trkpt>
      <trkpt lat="53.292428031563759" lon="-3.806091975420713">
        <ele>10.710000000000001</ele>
        <time>2026-07-10T13:30:04Z</time>
      </trkpt>
      <trkpt lat="53.292304985225201" lon="-3.806020980700851">
        <ele>10.710000000000001</ele>
        <time>2026-07-10T13:30:05Z</time>
      </trkpt>
      <trkpt lat="53.291068989783525" lon="-3.805115986615419">
        <ele>9.27</ele>
        <time>2026-07-10T13:30:14Z</time>
      </trkpt>
      <trkpt lat="53.290321994572878" lon="-3.803803967311978">
        <ele>10.23</ele>
        <time>2026-07-10T13:30:21Z</time>
      </trkpt>
      <trkpt lat="53.290244964882731" lon="-3.803589977324009">
        <ele>11.19</ele>
        <time>2026-07-10T13:30:22Z</time>
      </trkpt>
      <trkpt lat="53.290082020685077" lon="-3.802895033732057">
        <ele>13.6</ele>
        <time>2026-07-10T13:30:25Z</time>
      </trkpt>
      <trkpt lat="53.289735009893775" lon="-3.800749015063047">
        <ele>23.690000000000001</ele>
        <time>2026-07-10T13:30:34Z</time>
      </trkpt>
      <trkpt lat="53.28951196745038" lon="-3.799160979688168">
        <ele>30.420000000000002</ele>
        <time>2026-07-10T13:30:41Z</time>
      </trkpt>
      <trkpt lat="53.289448013529181" lon="-3.798611965030432">
        <ele>32.340000000000003</ele>
        <time>2026-07-10T13:30:44Z</time>
      </trkpt>
      <trkpt lat="53.289454970508814" lon="-3.798448015004396">
        <ele>32.82</ele>
        <time>2026-07-10T13:30:45Z</time>
      </trkpt>
      <trkpt lat="53.289461005479097" lon="-3.79828498698771">
        <ele>33.299999999999997</ele>
        <time>2026-07-10T13:30:46Z</time>
      </trkpt>
      <trkpt lat="53.289464022964239" lon="-3.798201000317931">
        <ele>33.780000000000001</ele>
        <time>2026-07-10T13:30:47Z</time>
      </trkpt>
      <trkpt lat="53.28946896828711" lon="-3.797928001731634">
        <ele>33.780000000000001</ele>
        <time>2026-07-10T13:30:48Z</time>
      </trkpt>
      <trkpt lat="53.289415994659066" lon="-3.79776799120009">
        <ele>34.259999999999998</ele>
        <time>2026-07-10T13:30:49Z</time>
      </trkpt>
      <trkpt lat="53.289363021031022" lon="-3.797589959576726">
        <ele>34.740000000000002</ele>
        <time>2026-07-10T13:30:50Z</time>
      </trkpt>
      <trkpt lat="53.289307029917836" lon="-3.79740103147924">
        <ele>35.229999999999997</ele>
        <time>2026-07-10T13:30:51Z</time>
      </trkpt>
      <trkpt lat="53.289257995784283" lon="-3.797201961278915">
        <ele>35.229999999999997</ele>
        <time>2026-07-10T13:30:52Z</time>
      </trkpt>
      <trkpt lat="53.289221031591296" lon="-3.796975985169411">
        <ele>35.229999999999997</ele>
        <time>2026-07-10T13:30:53Z</time>
      </trkpt>
      <trkpt lat="53.288848036900163" lon="-3.794360999017954">
        <ele>38.109999999999999</ele>
        <time>2026-07-10T13:31:03Z</time>
      </trkpt>
      <trkpt lat="53.288249988108873" lon="-3.792343977838755">
        <ele>35.710000000000001</ele>
        <time>2026-07-10T13:31:11Z</time>
      </trkpt>
      <trkpt lat="53.288126019760966" lon="-3.792127976194024">
        <ele>34.740000000000002</ele>
        <time>2026-07-10T13:31:12Z</time>
      </trkpt>
      <trkpt lat="53.288000039756298" lon="-3.791909962892532">
        <ele>33.780000000000001</ele>
        <time>2026-07-10T13:31:13Z</time>
      </trkpt>
      <trkpt lat="53.286875020712614" lon="-3.790845964103937">
        <ele>30.420000000000002</ele>
        <time>2026-07-10T13:31:20Z</time>
      </trkpt>
      <trkpt lat="53.285563001409173" lon="-3.790711015462875">
        <ele>31.859999999999999</ele>
        <time>2026-07-10T13:31:27Z</time>
      </trkpt>
      <trkpt lat="53.283540029078722" lon="-3.790830038487911">
        <ele>28.5</ele>
        <time>2026-07-10T13:31:38Z</time>
      </trkpt>
      <trkpt lat="53.281629038974643" lon="-3.790927017107606">
        <ele>13.6</ele>
        <time>2026-07-10T13:31:50Z</time>
      </trkpt>
      <trkpt lat="53.281123023480177" lon="-3.790945038199425">
        <ele>9.27</ele>
        <time>2026-07-10T13:31:56Z</time>
      </trkpt>
      <trkpt lat="53.281097961589694" lon="-3.790946966037154">
        <ele>8.310000000000001</ele>
        <time>2026-07-10T13:32:04Z</time>
      </trkpt>
      <trkpt lat="53.281073989346623" lon="-3.790947971865535">
        <ele>7.35</ele>
        <time>2026-07-10T13:32:14Z</time>
      </trkpt>
      <trkpt lat="53.280857987701893" lon="-3.790745967999101">
        <ele>7.83</ele>
        <time>2026-07-10T13:32:28Z</time>
      </trkpt>
      <trkpt lat="53.280820017680526" lon="-3.790710009634495">
        <ele>7.83</ele>
        <time>2026-07-10T13:32:29Z</time>
      </trkpt>
      <trkpt lat="53.280731001868844" lon="-3.790627028793097">
        <ele>7.35</ele>
        <time>2026-07-10T13:32:30Z</time>
      </trkpt>
      <trkpt lat="53.280718009918928" lon="-3.790561985224485">
        <ele>7.35</ele>
        <time>2026-07-10T13:32:31Z</time>
      </trkpt>
      <trkpt lat="53.280631005764008" lon="-3.790317988023162">
        <ele>7.35</ele>
        <time>2026-07-10T13:32:33Z</time>
      </trkpt>
      <trkpt lat="53.280584989115596" lon="-3.790198964998126">
        <ele>7.35</ele>
        <time>2026-07-10T13:32:34Z</time>
      </trkpt>
      <trkpt lat="53.280524974688888" lon="-3.79009896889329">
        <ele>7.35</ele>
        <time>2026-07-10T13:32:35Z</time>
      </trkpt>
      <trkpt lat="53.280441993847489" lon="-3.790015988051891">
        <ele>7.35</ele>
        <time>2026-07-10T13:32:36Z</time>
      </trkpt>
      <trkpt lat="53.280347026884556" lon="-3.789977012202144">
        <ele>7.35</ele>
        <time>2026-07-10T13:32:37Z</time>
      </trkpt>
      <trkpt lat="53.280302016064525" lon="-3.789961002767086">
        <ele>6.87</ele>
        <time>2026-07-10T13:32:38Z</time>
      </trkpt>
      <trkpt lat="53.280197996646166" lon="-3.789984975010157">
        <ele>6.87</ele>
        <time>2026-07-10T13:32:39Z</time>
      </trkpt>
      <trkpt lat="53.280136976391077" lon="-3.789998972788453">
        <ele>7.35</ele>
        <time>2026-07-10T13:32:40Z</time>
      </trkpt>
      <trkpt lat="53.280107975006104" lon="-3.790006013587117">
        <ele>6.87</ele>
        <time>2026-07-10T13:32:41Z</time>
      </trkpt>
      <trkpt lat="53.280089031904936" lon="-3.790010958909988">
        <ele>6.87</ele>
        <time>2026-07-10T13:32:42Z</time>
      </trkpt>
      <trkpt lat="53.280089031904936" lon="-3.790010958909988">
        <ele>6.39</ele>
        <time>2026-07-10T13:32:55Z</time>
      </trkpt>
      <trkpt lat="53.280051983892918" lon="-3.790019005537033">
        <ele>6.39</ele>
        <time>2026-07-10T13:33:31Z</time>
      </trkpt>
      <trkpt lat="53.279993981122971" lon="-3.790064016357064">
        <ele>6.39</ele>
        <time>2026-07-10T13:33:32Z</time>
      </trkpt>
      <trkpt lat="53.279932038858533" lon="-3.790146997198463">
        <ele>6.39</ele>
        <time>2026-07-10T13:33:33Z</time>
      </trkpt>
      <trkpt lat="53.279893985018134" lon="-3.790197037160397">
        <ele>5.91</ele>
        <time>2026-07-10T13:33:34Z</time>
      </trkpt>
      <trkpt lat="53.279837993904948" lon="-3.790423013269901">
        <ele>5.91</ele>
        <time>2026-07-10T13:33:35Z</time>
      </trkpt>
      <trkpt lat="53.279763981699944" lon="-3.79059199243784">
        <ele>5.91</ele>
        <time>2026-07-10T13:33:36Z</time>
      </trkpt>
      <trkpt lat="53.279686030000448" lon="-3.790685031563044">
        <ele>5.91</ele>
        <time>2026-07-10T13:33:37Z</time>
      </trkpt>
      <trkpt lat="53.279613023623824" lon="-3.790771029889584">
        <ele>5.91</ele>
        <time>2026-07-10T13:33:38Z</time>
      </trkpt>
      <trkpt lat="53.279538005590439" lon="-3.790829032659531">
        <ele>5.42</ele>
        <time>2026-07-10T13:33:39Z</time>
      </trkpt>
      <trkpt lat="53.279458964243531" lon="-3.790851999074221">
        <ele>5.42</ele>
        <time>2026-07-10T13:33:40Z</time>
      </trkpt>
      <trkpt lat="53.279384030029178" lon="-3.790848981589079">
        <ele>5.42</ele>
        <time>2026-07-10T13:33:41Z</time>
      </trkpt>
      <trkpt lat="53.279317980632186" lon="-3.790824003517628">
        <ele>5.42</ele>
        <time>2026-07-10T13:33:42Z</time>
      </trkpt>
      <trkpt lat="53.279244974255562" lon="-3.790792990475893">
        <ele>5.42</ele>
        <time>2026-07-10T13:33:43Z</time>
      </trkpt>
      <trkpt lat="53.279182026162744" lon="-3.790723001584411">
        <ele>5.42</ele>
        <time>2026-07-10T13:33:44Z</time>
      </trkpt>
      <trkpt lat="53.279056968167424" lon="-3.790584029629827">
        <ele>5.42</ele>
        <time>2026-07-10T13:33:46Z</time>
      </trkpt>
      <trkpt lat="53.278973987326026" lon="-3.790515968576074">
        <ele>5.42</ele>
        <time>2026-07-10T13:33:47Z</time>
      </trkpt>
      <trkpt lat="53.278881032019854" lon="-3.790544969961047">
        <ele>5.91</ele>
        <time>2026-07-10T13:33:48Z</time>
      </trkpt>
      <trkpt lat="53.278696965426207" lon="-3.790647983551025">
        <ele>6.87</ele>
        <time>2026-07-10T13:33:50Z</time>
      </trkpt>
      <trkpt lat="53.278608033433557" lon="-3.79061596468091">
        <ele>7.83</ele>
        <time>2026-07-10T13:33:51Z</time>
      </trkpt>
      <trkpt lat="53.278537960723042" lon="-3.79059199243784">
        <ele>8.789999999999999</ele>
        <time>2026-07-10T13:33:52Z</time>
      </trkpt>
      <trkpt lat="53.278481969609857" lon="-3.79057195968926">
        <ele>9.27</ele>
        <time>2026-07-10T13:33:53Z</time>
      </trkpt>
      <trkpt lat="53.278427990153432" lon="-3.790553016588092">
        <ele>9.75</ele>
        <time>2026-07-10T13:33:54Z</time>
      </trkpt>
      <trkpt lat="53.278134958818555" lon="-3.790351012721658">
        <ele>13.119999999999999</ele>
        <time>2026-07-10T13:33:58Z</time>
      </trkpt>
      <trkpt lat="53.277860032394528" lon="-3.790095029398799">
        <ele>16.48</ele>
        <time>2026-07-10T13:34:01Z</time>
      </trkpt>
      <trkpt lat="53.277227031067014" lon="-3.789379969239235">
        <ele>27.530000000000001</ele>
        <time>2026-07-10T13:34:08Z</time>
      </trkpt>
      <trkpt lat="53.277145978063345" lon="-3.789374018087983">
        <ele>29.940000000000001</ele>
        <time>2026-07-10T13:34:09Z</time>
      </trkpt>
      <trkpt lat="53.277056962251663" lon="-3.789366977289319">
        <ele>31.859999999999999</ele>
        <time>2026-07-10T13:34:10Z</time>
      </trkpt>
      <trkpt lat="53.276964006945491" lon="-3.789369994774461">
        <ele>34.259999999999998</ele>
        <time>2026-07-10T13:34:11Z</time>
      </trkpt>
      <trkpt lat="53.276878008618951" lon="-3.789438977837563">
        <ele>36.189999999999998</ele>
        <time>2026-07-10T13:34:12Z</time>
      </trkpt>
      <trkpt lat="53.276783041656017" lon="-3.789515001699328">
        <ele>38.109999999999999</ele>
        <time>2026-07-10T13:34:13Z</time>
      </trkpt>
      <trkpt lat="53.276487998664379" lon="-3.789756987243891">
        <ele>43.880000000000003</ele>
        <time>2026-07-10T13:34:16Z</time>
      </trkpt>
      <trkpt lat="53.276390014216304" lon="-3.789837034419179">
        <ele>45.799999999999997</ele>
        <time>2026-07-10T13:34:17Z</time>
      </trkpt>
      <trkpt lat="53.276075022295117" lon="-3.790047001093626">
        <ele>52.049999999999997</ele>
        <time>2026-07-10T13:34:20Z</time>
      </trkpt>
      <trkpt lat="53.276027999818325" lon="-3.790047001093626">
        <ele>54.450000000000003</ele>
        <time>2026-07-10T13:34:21Z</time>
      </trkpt>
      <trkpt lat="53.275935966521502" lon="-3.790047001093626">
        <ele>56.859999999999999</ele>
        <time>2026-07-10T13:34:22Z</time>
      </trkpt>
      <trkpt lat="53.275768999010324" lon="-3.789982041344047">
        <ele>60.219999999999999</ele>
        <time>2026-07-10T13:34:24Z</time>
      </trkpt>
      <trkpt lat="53.275692975148559" lon="-3.789935018867254">
        <ele>61.18</ele>
        <time>2026-07-10T13:34:25Z</time>
      </trkpt>
      <trkpt lat="53.275636984035373" lon="-3.78984097391367">
        <ele>62.140000000000001</ele>
        <time>2026-07-10T13:34:26Z</time>
      </trkpt>
      <trkpt lat="53.275599014014006" lon="-3.789741983637214">
        <ele>63.100000000000001</ele>
        <time>2026-07-10T13:34:27Z</time>
      </trkpt>
      <trkpt lat="53.275560038164258" lon="-3.789639975875616">
        <ele>64.069999999999993</ele>
        <time>2026-07-10T13:34:28Z</time>
      </trkpt>
      <trkpt lat="53.275546040385962" lon="-3.789495974779129">
        <ele>65.510000000000005</ele>
        <time>2026-07-10T13:34:29Z</time>
      </trkpt>
      <trkpt lat="53.275526007637382" lon="-3.789326995611191">
        <ele>66.950000000000003</ele>
        <time>2026-07-10T13:34:30Z</time>
      </trkpt>
      <trkpt lat="53.275498012080789" lon="-3.789146030321717">
        <ele>68.390000000000001</ele>
        <time>2026-07-10T13:34:31Z</time>
      </trkpt>
      <trkpt lat="53.275365997105837" lon="-3.788309013471007">
        <ele>73.680000000000007</ele>
        <time>2026-07-10T13:34:36Z</time>
      </trkpt>
      <trkpt lat="53.275360967963934" lon="-3.788201976567507">
        <ele>74.640000000000001</ele>
        <time>2026-07-10T13:34:37Z</time>
      </trkpt>
      <trkpt lat="53.275355016812682" lon="-3.788069961592555">
        <ele>75.599999999999994</ele>
        <time>2026-07-10T13:34:38Z</time>
      </trkpt>
      <trkpt lat="53.275348981842399" lon="-3.787941969931126">
        <ele>76.560000000000002</ele>
        <time>2026-07-10T13:34:39Z</time>
      </trkpt>
      <trkpt lat="53.275316962972283" lon="-3.787813978269696">
        <ele>77.519999999999996</ele>
        <time>2026-07-10T13:34:40Z</time>
      </trkpt>
      <trkpt lat="53.275250997394323" lon="-3.787708031013608">
        <ele>78.969999999999999</ele>
        <time>2026-07-10T13:34:41Z</time>
      </trkpt>
      <trkpt lat="53.275174973532557" lon="-3.787589007988572">
        <ele>79.930000000000007</ele>
        <time>2026-07-10T13:34:42Z</time>
      </trkpt>
      <trkpt lat="53.275100961327553" lon="-3.787469984963536">
        <ele>80.890000000000001</ele>
        <time>2026-07-10T13:34:43Z</time>
      </trkpt>
      <trkpt lat="53.27503097243607" lon="-3.787360014393926">
        <ele>81.849999999999994</ele>
        <time>2026-07-10T13:34:44Z</time>
      </trkpt>
      <trkpt lat="53.27496500685811" lon="-3.787253983318806">
        <ele>82.810000000000002</ele>
        <time>2026-07-10T13:34:45Z</time>
      </trkpt>
      <trkpt lat="53.274903986603022" lon="-3.787157004699111">
        <ele>83.769999999999996</ele>
        <time>2026-07-10T13:34:46Z</time>
      </trkpt>
      <trkpt lat="53.274860987439752" lon="-3.78704996779561">
        <ele>84.25</ele>
        <time>2026-07-10T13:34:47Z</time>
      </trkpt>
      <trkpt lat="53.274829974398017" lon="-3.786907978355885">
        <ele>84.730000000000004</ele>
        <time>2026-07-10T13:34:48Z</time>
      </trkpt>
      <trkpt lat="53.274796027690172" lon="-3.786751991137862">
        <ele>85.209999999999994</ele>
        <time>2026-07-10T13:34:49Z</time>
      </trkpt>
      <trkpt lat="53.274355977773666" lon="-3.785039987415075">
        <ele>92.900000000000006</ele>
        <time>2026-07-10T13:34:58Z</time>
      </trkpt>
      <trkpt lat="53.273887010291219" lon="-3.782906960695982">
        <ele>98.670000000000002</ele>
        <time>2026-07-10T13:35:09Z</time>
      </trkpt>
      <trkpt lat="53.273820960894227" lon="-3.782601021230221">
        <ele>99.629999999999995</ele>
        <time>2026-07-10T13:35:11Z</time>
      </trkpt>
      <trkpt lat="53.27376002445817" lon="-3.78242801874876">
        <ele>100.11</ele>
        <time>2026-07-10T13:35:12Z</time>
      </trkpt>
      <trkpt lat="53.273702021688223" lon="-3.782268008217216">
        <ele>101.08</ele>
        <time>2026-07-10T13:35:13Z</time>
      </trkpt>
      <trkpt lat="53.273643013089895" lon="-3.782101962715387">
        <ele>101.56</ele>
        <time>2026-07-10T13:35:14Z</time>
      </trkpt>
      <trkpt lat="53.273581992834806" lon="-3.781930971890688">
        <ele>102.52</ele>
        <time>2026-07-10T13:35:15Z</time>
      </trkpt>
      <trkpt lat="53.273518038913608" lon="-3.781752018257976">
        <ele>103</ele>
        <time>2026-07-10T13:35:16Z</time>
      </trkpt>
      <trkpt lat="53.273451989516616" lon="-3.781566023826599">
        <ele>103.48</ele>
        <time>2026-07-10T13:35:17Z</time>
      </trkpt>
      <trkpt lat="53.273378983139992" lon="-3.781372988596559">
        <ele>103.95999999999999</ele>
        <time>2026-07-10T13:35:18Z</time>
      </trkpt>
      <trkpt lat="53.272122032940388" lon="-3.779147006571293">
        <ele>120.3</ele>
        <time>2026-07-10T13:35:30Z</time>
      </trkpt>
      <trkpt lat="53.271406972780824" lon="-3.778027016669512">
        <ele>127.98999999999999</ele>
        <time>2026-07-10T13:35:37Z</time>
      </trkpt>
      <trkpt lat="53.271234976127744" lon="-3.777774972841144">
        <ele>129.43000000000001</ele>
        <time>2026-07-10T13:35:39Z</time>
      </trkpt>
      <trkpt lat="53.271143026649952" lon="-3.777672965079546">
        <ele>129.43000000000001</ele>
        <time>2026-07-10T13:35:40Z</time>
      </trkpt>
      <trkpt lat="53.271019980311394" lon="-3.777631977573037">
        <ele>129.91999999999999</ele>
        <time>2026-07-10T13:35:41Z</time>
      </trkpt>
      <trkpt lat="53.270890982821584" lon="-3.777614962309599">
        <ele>130.40000000000001</ele>
        <time>2026-07-10T13:35:42Z</time>
      </trkpt>
      <trkpt lat="53.270754022523761" lon="-3.777597025036812">
        <ele>130.88</ele>
        <time>2026-07-10T13:35:43Z</time>
      </trkpt>
      <trkpt lat="53.26959396712482" lon="-3.777423016726971">
        <ele>132.31999999999999</ele>
        <time>2026-07-10T13:35:52Z</time>
      </trkpt>
      <trkpt lat="53.269491959363222" lon="-3.77735503949225">
        <ele>132.31999999999999</ele>
        <time>2026-07-10T13:35:53Z</time>
      </trkpt>
      <trkpt lat="53.269387017935514" lon="-3.777266023680568">
        <ele>132.31999999999999</ele>
        <time>2026-07-10T13:35:54Z</time>
      </trkpt>
      <trkpt lat="53.269277969375253" lon="-3.777156975120306">
        <ele>131.84</ele>
        <time>2026-07-10T13:35:55Z</time>
      </trkpt>
      <trkpt lat="53.2691649813205" lon="-3.777043987065554">
        <ele>131.84</ele>
        <time>2026-07-10T13:35:56Z</time>
      </trkpt>
      <trkpt lat="53.268950991332531" lon="-3.776829997077584">
        <ele>131.36000000000001</ele>
        <time>2026-07-10T13:35:58Z</time>
      </trkpt>
      <trkpt lat="53.268844960257411" lon="-3.776737963780761">
        <ele>131.84</ele>
        <time>2026-07-10T13:35:59Z</time>
      </trkpt>
      <trkpt lat="53.268729960545897" lon="-3.776704017072916">
        <ele>131.84</ele>
        <time>2026-07-10T13:36:00Z</time>
      </trkpt>
      <trkpt lat="53.268616972491145" lon="-3.77667099237442">
        <ele>132.31999999999999</ele>
        <time>2026-07-10T13:36:01Z</time>
      </trkpt>
      <trkpt lat="53.268503984436393" lon="-3.776637967675924">
        <ele>132.80000000000001</ele>
        <time>2026-07-10T13:36:02Z</time>
      </trkpt>
      <trkpt lat="53.268387978896499" lon="-3.77660402096808">
        <ele>132.80000000000001</ele>
        <time>2026-07-10T13:36:03Z</time>
      </trkpt>
      <trkpt lat="53.267250973731279" lon="-3.776052994653583">
        <ele>131.84</ele>
        <time>2026-07-10T13:36:12Z</time>
      </trkpt>
      <trkpt lat="53.267002031207085" lon="-3.775921985507011">
        <ele>131.84</ele>
        <time>2026-07-10T13:36:14Z</time>
      </trkpt>
      <trkpt lat="53.266870016232133" lon="-3.775899019092321">
        <ele>131.84</ele>
        <time>2026-07-10T13:36:15Z</time>
      </trkpt>
      <trkpt lat="53.266734983772039" lon="-3.7758759688586">
        <ele>132.31999999999999</ele>
        <time>2026-07-10T13:36:16Z</time>
      </trkpt>
      <trkpt lat="53.266371041536331" lon="-3.775813020765781">
        <ele>131.84</ele>
        <time>2026-07-10T13:36:19Z</time>
      </trkpt>
      <trkpt lat="53.266266016289592" lon="-3.775772033259273">
        <ele>130.88</ele>
        <time>2026-07-10T13:36:20Z</time>
      </trkpt>
      <trkpt lat="53.266179012134671" lon="-3.775674970820546">
        <ele>130.40000000000001</ele>
        <time>2026-07-10T13:36:21Z</time>
      </trkpt>
      <trkpt lat="53.266088990494609" lon="-3.775571035221219">
        <ele>129.43000000000001</ele>
        <time>2026-07-10T13:36:22Z</time>
      </trkpt>
      <trkpt lat="53.265993017703295" lon="-3.775458969175816">
        <ele>129.43000000000001</ele>
        <time>2026-07-10T13:36:23Z</time>
      </trkpt>
      <trkpt lat="53.265894027426839" lon="-3.775341035798192">
        <ele>129.43000000000001</ele>
        <time>2026-07-10T13:36:24Z</time>
      </trkpt>
      <trkpt lat="53.265783973038197" lon="-3.775247996672988">
        <ele>129.91999999999999</ele>
        <time>2026-07-10T13:36:25Z</time>
      </trkpt>
      <trkpt lat="53.264559963718057" lon="-3.774139992892742">
        <ele>140.97</ele>
        <time>2026-07-10T13:36:36Z</time>
      </trkpt>
      <trkpt lat="53.263785978779197" lon="-3.772925036028028">
        <ele>148.18000000000001</ele>
        <time>2026-07-10T13:36:44Z</time>
      </trkpt>
      <trkpt lat="53.263744991272688" lon="-3.772782040759921">
        <ele>149.13999999999999</ele>
        <time>2026-07-10T13:36:45Z</time>
      </trkpt>
      <trkpt lat="53.263504011556506" lon="-3.77194301225245">
        <ele>156.34999999999999</ele>
        <time>2026-07-10T13:36:52Z</time>
      </trkpt>
      <trkpt lat="53.262855000793934" lon="-3.770384984090924">
        <ele>159.24000000000001</ele>
        <time>2026-07-10T13:37:00Z</time>
      </trkpt>
      <trkpt lat="53.262132983654737" lon="-3.768856963142753">
        <ele>162.12</ele>
        <time>2026-07-10T13:37:08Z</time>
      </trkpt>
      <trkpt lat="53.262062994763255" lon="-3.768709022551775">
        <ele>162.12</ele>
        <time>2026-07-10T13:37:09Z</time>
      </trkpt>
      <trkpt lat="53.261992000043392" lon="-3.768557980656624">
        <ele>162.12</ele>
        <time>2026-07-10T13:37:10Z</time>
      </trkpt>
      <trkpt lat="53.26132102869451" lon="-3.767487024888396">
        <ele>165</ele>
        <time>2026-07-10T13:37:17Z</time>
      </trkpt>
      <trkpt lat="53.261118018999696" lon="-3.767167003825307">
        <ele>165.96000000000001</ele>
        <time>2026-07-10T13:37:19Z</time>
      </trkpt>
      <trkpt lat="53.261009976267815" lon="-3.767026020213962">
        <ele>165.96000000000001</ele>
        <time>2026-07-10T13:37:20Z</time>
      </trkpt>
      <trkpt lat="53.260203972458839" lon="-3.766290005296469">
        <ele>169.81</ele>
        <time>2026-07-10T13:37:26Z</time>
      </trkpt>
      <trkpt lat="53.260065000504255" lon="-3.766160001978278">
        <ele>170.77000000000001</ele>
        <time>2026-07-10T13:37:27Z</time>
      </trkpt>
      <trkpt lat="53.259963998571038" lon="-3.765979958698154">
        <ele>171.25</ele>
        <time>2026-07-10T13:37:28Z</time>
      </trkpt>
      <trkpt lat="53.259853022173047" lon="-3.7657789606601">
        <ele>172.21000000000001</ele>
        <time>2026-07-10T13:37:29Z</time>
      </trkpt>
      <trkpt lat="53.25977498665452" lon="-3.765564970672131">
        <ele>172.69</ele>
        <time>2026-07-10T13:37:30Z</time>
      </trkpt>
      <trkpt lat="53.259369973093271" lon="-3.764339033514261">
        <ele>179.90000000000001</ele>
        <time>2026-07-10T13:37:36Z</time>
      </trkpt>
      <trkpt lat="53.259314987808466" lon="-3.764110039919615">
        <ele>181.34999999999999</ele>
        <time>2026-07-10T13:37:37Z</time>
      </trkpt>
      <trkpt lat="53.259310964494944" lon="-3.7639070302248">
        <ele>183.27000000000001</ele>
        <time>2026-07-10T13:37:38Z</time>
      </trkpt>
      <trkpt lat="53.259306019172072" lon="-3.763702008873224">
        <ele>185.19</ele>
        <time>2026-07-10T13:37:39Z</time>
      </trkpt>
      <trkpt lat="53.259300990030169" lon="-3.763492964208126">
        <ele>187.11000000000001</ele>
        <time>2026-07-10T13:37:40Z</time>
      </trkpt>
      <trkpt lat="53.259295960888267" lon="-3.763271011412144">
        <ele>188.56</ele>
        <time>2026-07-10T13:37:41Z</time>
      </trkpt>
      <trkpt lat="53.259280035272241" lon="-3.763045035302639">
        <ele>189.52000000000001</ele>
        <time>2026-07-10T13:37:42Z</time>
      </trkpt>
      <trkpt lat="53.25923603028059" lon="-3.761924039572477">
        <ele>194.31999999999999</ele>
        <time>2026-07-10T13:37:47Z</time>
      </trkpt>
      <trkpt lat="53.259252039715648" lon="-3.761723041534424">
        <ele>195.28</ele>
        <time>2026-07-10T13:37:48Z</time>
      </trkpt>
      <trkpt lat="53.259391011670232" lon="-3.760719979181886">
        <ele>201.53</ele>
        <time>2026-07-10T13:37:53Z</time>
      </trkpt>
      <trkpt lat="53.259467035531998" lon="-3.760357964783907">
        <ele>204.90000000000001</ele>
        <time>2026-07-10T13:37:55Z</time>
      </trkpt>
      <trkpt lat="53.259503999724984" lon="-3.760176999494433">
        <ele>206.34</ele>
        <time>2026-07-10T13:37:56Z</time>
      </trkpt>
      <trkpt lat="53.259601984173059" lon="-3.759440984576941">
        <ele>212.11000000000001</ele>
        <time>2026-07-10T13:38:00Z</time>
      </trkpt>
      <trkpt lat="53.259597038850188" lon="-3.759039994329214">
        <ele>213.55000000000001</ele>
        <time>2026-07-10T13:38:02Z</time>
      </trkpt>
      <trkpt lat="53.259544987231493" lon="-3.758317977190018">
        <ele>216.91</ele>
        <time>2026-07-10T13:38:06Z</time>
      </trkpt>
      <trkpt lat="53.259534006938338" lon="-3.758165007457137">
        <ele>217.88</ele>
        <time>2026-07-10T13:38:07Z</time>
      </trkpt>
      <trkpt lat="53.259549010545015" lon="-3.757778014987707">
        <ele>219.31999999999999</ele>
        <time>2026-07-10T13:38:09Z</time>
      </trkpt>
      <trkpt lat="53.259717989712954" lon="-3.755309963598847">
        <ele>228.44999999999999</ele>
        <time>2026-07-10T13:38:19Z</time>
      </trkpt>
      <trkpt lat="53.259907001629472" lon="-3.75333602540195">
        <ele>230.84999999999999</ele>
        <time>2026-07-10T13:38:27Z</time>
      </trkpt>
      <trkpt lat="53.260116968303919" lon="-3.750936035066843">
        <ele>230.37</ele>
        <time>2026-07-10T13:38:37Z</time>
      </trkpt>
      <trkpt lat="53.260288964956999" lon="-3.748764032498002">
        <ele>223.63999999999999</ele>
        <time>2026-07-10T13:38:47Z</time>
      </trkpt>
      <trkpt lat="53.260316038504243" lon="-3.748549036681652">
        <ele>223.63999999999999</ele>
        <time>2026-07-10T13:38:48Z</time>
      </trkpt>
      <trkpt lat="53.260858012363315" lon="-3.746982039883733">
        <ele>225.56999999999999</ele>
        <time>2026-07-10T13:38:56Z</time>
      </trkpt>
      <trkpt lat="53.261131010949612" lon="-3.746008984744549">
        <ele>230.84999999999999</ele>
        <time>2026-07-10T13:39:03Z</time>
      </trkpt>
      <trkpt lat="53.261230001226068" lon="-3.745783008635044">
        <ele>233.74000000000001</ele>
        <time>2026-07-10T13:39:09Z</time>
      </trkpt>
      <trkpt lat="53.261262020096183" lon="-3.745673960074782">
        <ele>234.69999999999999</ele>
        <time>2026-07-10T13:39:10Z</time>
      </trkpt>
      <trkpt lat="53.261230001226068" lon="-3.745572958141565">
        <ele>235.66</ele>
        <time>2026-07-10T13:39:11Z</time>
      </trkpt>
      <trkpt lat="53.261189013719559" lon="-3.745447983965278">
        <ele>236.13999999999999</ele>
        <time>2026-07-10T13:39:12Z</time>
      </trkpt>
      <trkpt lat="53.261140985414386" lon="-3.745299959555268">
        <ele>236.62</ele>
        <time>2026-07-10T13:39:13Z</time>
      </trkpt>
      <trkpt lat="53.260926995426416" lon="-3.744808025658131">
        <ele>239.50999999999999</ele>
        <time>2026-07-10T13:39:16Z</time>
      </trkpt>
      <trkpt lat="53.260830016806722" lon="-3.744639968499541">
        <ele>240.47</ele>
        <time>2026-07-10T13:39:17Z</time>
      </trkpt>
      <trkpt lat="53.260723985731602" lon="-3.744461014866829">
        <ele>241.43000000000001</ele>
        <time>2026-07-10T13:39:18Z</time>
      </trkpt>
      <trkpt lat="53.259493019431829" lon="-3.743201969191432">
        <ele>255.37</ele>
        <time>2026-07-10T13:39:28Z</time>
      </trkpt>
      <trkpt lat="53.259349018335342" lon="-3.74313298612833">
        <ele>256.81</ele>
        <time>2026-07-10T13:39:29Z</time>
      </trkpt>
      <trkpt lat="53.257946977391839" lon="-3.742736019194126">
        <ele>264.98000000000002</ele>
        <time>2026-07-10T13:39:38Z</time>
      </trkpt>
      <trkpt lat="53.257799036800861" lon="-3.742651026695967">
        <ele>265.94</ele>
        <time>2026-07-10T13:39:39Z</time>
      </trkpt>
      <trkpt lat="53.257641959935427" lon="-3.742561005055904">
        <ele>266.89999999999998</ele>
        <time>2026-07-10T13:39:40Z</time>
      </trkpt>
      <trkpt lat="53.257524026557803" lon="-3.74242102727294">
        <ele>268.35000000000002</ele>
        <time>2026-07-10T13:39:41Z</time>
      </trkpt>
      <trkpt lat="53.257397962734103" lon="-3.742270991206169">
        <ele>269.31</ele>
        <time>2026-07-10T13:39:42Z</time>
      </trkpt>
      <trkpt lat="53.257276006042957" lon="-3.742102012038231">
        <ele>270.75</ele>
        <time>2026-07-10T13:39:43Z</time>
      </trkpt>
      <trkpt lat="53.257183972746134" lon="-3.741891961544752">
        <ele>272.19</ele>
        <time>2026-07-10T13:39:44Z</time>
      </trkpt>
      <trkpt lat="53.257097974419594" lon="-3.741694986820221">
        <ele>273.63</ele>
        <time>2026-07-10T13:39:45Z</time>
      </trkpt>
      <trkpt lat="53.25693997554481" lon="-3.741334984079003">
        <ele>277</ele>
        <time>2026-07-10T13:39:47Z</time>
      </trkpt>
      <trkpt lat="53.256855988875031" lon="-3.741178996860981">
        <ele>278.44</ele>
        <time>2026-07-10T13:39:48Z</time>
      </trkpt>
      <trkpt lat="53.256755992770195" lon="-3.741037007421255">
        <ele>279.39999999999998</ele>
        <time>2026-07-10T13:39:49Z</time>
      </trkpt>
      <trkpt lat="53.256644010543823" lon="-3.740946985781193">
        <ele>280.36000000000001</ele>
        <time>2026-07-10T13:39:50Z</time>
      </trkpt>
      <trkpt lat="53.25652901083231" lon="-3.740855036303401">
        <ele>281.31999999999999</ele>
        <time>2026-07-10T13:39:51Z</time>
      </trkpt>
      <trkpt lat="53.256398001685739" lon="-3.740778006613255">
        <ele>281.80000000000001</ele>
        <time>2026-07-10T13:39:52Z</time>
      </trkpt>
      <trkpt lat="53.256255006417632" lon="-3.74072503298521">
        <ele>282.27999999999997</ele>
        <time>2026-07-10T13:39:53Z</time>
      </trkpt>
      <trkpt lat="53.256109999492764" lon="-3.740671975538135">
        <ele>282.76999999999998</ele>
        <time>2026-07-10T13:39:54Z</time>
      </trkpt>
      <trkpt lat="53.255957029759884" lon="-3.740641968324781">
        <ele>283.25</ele>
        <time>2026-07-10T13:39:55Z</time>
      </trkpt>
      <trkpt lat="53.25493804179132" lon="-3.740477012470365">
        <ele>288.05000000000001</ele>
        <time>2026-07-10T13:40:02Z</time>
      </trkpt>
      <trkpt lat="53.254217030480504" lon="-3.740203008055687">
        <ele>295.25999999999999</ele>
        <time>2026-07-10T13:40:10Z</time>
      </trkpt>
      <trkpt lat="53.253960963338614" lon="-3.740105023607612">
        <ele>301.02999999999997</ele>
        <time>2026-07-10T13:40:17Z</time>
      </trkpt>
      <trkpt lat="53.253943026065826" lon="-3.740098988637328">
        <ele>302.94999999999999</ele>
        <time>2026-07-10T13:40:28Z</time>
      </trkpt>
      <trkpt lat="53.253696011379361" lon="-3.740005027502775">
        <ele>304.38999999999999</ele>
        <time>2026-07-10T13:40:41Z</time>
      </trkpt>
      <trkpt lat="53.253318993374705" lon="-3.739916011691093">
        <ele>307.75999999999999</ele>
        <time>2026-07-10T13:40:51Z</time>
      </trkpt>
      <trkpt lat="53.252983968704939" lon="-3.739902013912797">
        <ele>309.19999999999999</ele>
        <time>2026-07-10T13:41:03Z</time>
      </trkpt>
      <trkpt lat="53.252622038125992" lon="-3.73988701030612">
        <ele>309.19999999999999</ele>
        <time>2026-07-10T13:41:14Z</time>
      </trkpt>
      <trkpt lat="53.252563029527664" lon="-3.739883992820978">
        <ele>309.19999999999999</ele>
        <time>2026-07-10T13:41:15Z</time>
      </trkpt>
      <trkpt lat="53.251987025141716" lon="-3.739662040024996">
        <ele>312.08999999999997</ele>
        <time>2026-07-10T13:41:24Z</time>
      </trkpt>
      <trkpt lat="53.251946959644556" lon="-3.739643013104796">
        <ele>312.56999999999999</ele>
        <time>2026-07-10T13:41:25Z</time>
      </trkpt>
      <trkpt lat="53.25162903405726" lon="-3.739493982866406">
        <ele>314.97000000000003</ele>
        <time>2026-07-10T13:41:32Z</time>
      </trkpt>
      <trkpt lat="53.251581005752087" lon="-3.739471016451716">
        <ele>315.44999999999999</ele>
        <time>2026-07-10T13:41:33Z</time>
      </trkpt>
      <trkpt lat="53.250940963625908" lon="-3.739196006208658">
        <ele>315.44999999999999</ele>
        <time>2026-07-10T13:41:45Z</time>
      </trkpt>
      <trkpt lat="53.250794028863311" lon="-3.739165998995304">
        <ele>314.49000000000001</ele>
        <time>2026-07-10T13:41:48Z</time>
      </trkpt>
      <trkpt lat="53.250606022775173" lon="-3.739171028137207">
        <ele>314.00999999999999</ele>
        <time>2026-07-10T13:41:52Z</time>
      </trkpt>
      <trkpt lat="53.249797001481056" lon="-3.739335983991623">
        <ele>313.52999999999997</ele>
        <time>2026-07-10T13:42:01Z</time>
      </trkpt>
      <trkpt lat="53.248791005462408" lon="-3.739542011171579">
        <ele>314.49000000000001</ele>
        <time>2026-07-10T13:42:09Z</time>
      </trkpt>
      <trkpt lat="53.248671982437372" lon="-3.739550979807973">
        <ele>314.00999999999999</ele>
        <time>2026-07-10T13:42:10Z</time>
      </trkpt>
      <trkpt lat="53.248546002432704" lon="-3.739531030878425">
        <ele>314.00999999999999</ele>
        <time>2026-07-10T13:42:11Z</time>
      </trkpt>
      <trkpt lat="53.247883999720216" lon="-3.739302959293127">
        <ele>313.05000000000001</ele>
        <time>2026-07-10T13:42:16Z</time>
      </trkpt>
      <trkpt lat="53.247751984745264" lon="-3.739251997321844">
        <ele>312.56999999999999</ele>
        <time>2026-07-10T13:42:17Z</time>
      </trkpt>
      <trkpt lat="53.247618963941932" lon="-3.739276975393295">
        <ele>312.56999999999999</ele>
        <time>2026-07-10T13:42:18Z</time>
      </trkpt>
      <trkpt lat="53.247485021129251" lon="-3.739341013133526">
        <ele>312.56999999999999</ele>
        <time>2026-07-10T13:42:19Z</time>
      </trkpt>
      <trkpt lat="53.247335990890861" lon="-3.739412007853389">
        <ele>312.56999999999999</ele>
        <time>2026-07-10T13:42:20Z</time>
      </trkpt>
      <trkpt lat="53.245897991582751" lon="-3.739956999197602">
        <ele>317.85000000000002</ele>
        <time>2026-07-10T13:42:29Z</time>
      </trkpt>
      <trkpt lat="53.245758013799787" lon="-3.739933026954532">
        <ele>318.81</ele>
        <time>2026-07-10T13:42:30Z</time>
      </trkpt>
      <trkpt lat="53.2456140127033" lon="-3.73990997672081">
        <ele>319.30000000000001</ele>
        <time>2026-07-10T13:42:31Z</time>
      </trkpt>
      <trkpt lat="53.245473029091954" lon="-3.739886004477739">
        <ele>319.77999999999997</ele>
        <time>2026-07-10T13:42:32Z</time>
      </trkpt>
      <trkpt lat="53.2453359849751" lon="-3.73980101197958">
        <ele>320.25999999999999</ele>
        <time>2026-07-10T13:42:33Z</time>
      </trkpt>
      <trkpt lat="53.245201036334038" lon="-3.739693975076079">
        <ele>320.25999999999999</ele>
        <time>2026-07-10T13:42:34Z</time>
      </trkpt>
      <trkpt lat="53.245066003873944" lon="-3.73958601616323">
        <ele>320.74000000000001</ele>
        <time>2026-07-10T13:42:35Z</time>
      </trkpt>
      <trkpt lat="53.244385980069637" lon="-3.739084023982287">
        <ele>319.77999999999997</ele>
        <time>2026-07-10T13:42:40Z</time>
      </trkpt>
      <trkpt lat="53.244235021993518" lon="-3.739043036475778">
        <ele>319.77999999999997</ele>
        <time>2026-07-10T13:42:41Z</time>
      </trkpt>
      <trkpt lat="53.244082974269986" lon="-3.739000959321857">
        <ele>319.77999999999997</ele>
        <time>2026-07-10T13:42:42Z</time>
      </trkpt>
      <trkpt lat="53.242991985753179" lon="-3.738843966275454">
        <ele>318.32999999999998</ele>
        <time>2026-07-10T13:42:49Z</time>
      </trkpt>
      <trkpt lat="53.242835998535156" lon="-3.738872967660427">
        <ele>318.32999999999998</ele>
        <time>2026-07-10T13:42:50Z</time>
      </trkpt>
      <trkpt lat="53.241389030590653" lon="-3.739423993974924">
        <ele>318.81</ele>
        <time>2026-07-10T13:42:59Z</time>
      </trkpt>
      <trkpt lat="53.241238994523883" lon="-3.739442015066743">
        <ele>318.81</ele>
        <time>2026-07-10T13:43:00Z</time>
      </trkpt>
      <trkpt lat="53.241097005084157" lon="-3.739412007853389">
        <ele>318.81</ele>
        <time>2026-07-10T13:43:01Z</time>
      </trkpt>
      <trkpt lat="53.240959960967302" lon="-3.739332966506481">
        <ele>318.32999999999998</ele>
        <time>2026-07-10T13:43:02Z</time>
      </trkpt>
      <trkpt lat="53.240823000669479" lon="-3.739253003150225">
        <ele>318.81</ele>
        <time>2026-07-10T13:43:03Z</time>
      </trkpt>
      <trkpt lat="53.240684028714895" lon="-3.739173039793968">
        <ele>318.32999999999998</ele>
        <time>2026-07-10T13:43:04Z</time>
      </trkpt>
      <trkpt lat="53.240409018471837" lon="-3.739014035090804">
        <ele>318.32999999999998</ele>
        <time>2026-07-10T13:43:06Z</time>
      </trkpt>
      <trkpt lat="53.240272980183363" lon="-3.738961983472109">
        <ele>318.32999999999998</ele>
        <time>2026-07-10T13:43:07Z</time>
      </trkpt>
      <trkpt lat="53.240129984915257" lon="-3.738930970430374">
        <ele>318.32999999999998</ele>
        <time>2026-07-10T13:43:08Z</time>
      </trkpt>
      <trkpt lat="53.239981960505247" lon="-3.738899035379291">
        <ele>317.37</ele>
        <time>2026-07-10T13:43:09Z</time>
      </trkpt>
      <trkpt lat="53.239853968843818" lon="-3.738871039822698">
        <ele>316.41000000000003</ele>
        <time>2026-07-10T13:43:10Z</time>
      </trkpt>
      <trkpt lat="53.239696975797415" lon="-3.738942034542561">
        <ele>315.44999999999999</ele>
        <time>2026-07-10T13:43:11Z</time>
      </trkpt>
      <trkpt lat="53.239559009671211" lon="-3.739004982635379">
        <ele>314.49000000000001</ele>
        <time>2026-07-10T13:43:12Z</time>
      </trkpt>
      <trkpt lat="53.239422971382737" lon="-3.739067008718848">
        <ele>313.52999999999997</ele>
        <time>2026-07-10T13:43:13Z</time>
      </trkpt>
      <trkpt lat="53.239305038005114" lon="-3.739184020087123">
        <ele>311.60000000000002</ele>
        <time>2026-07-10T13:43:14Z</time>
      </trkpt>
      <trkpt lat="53.239200012758374" lon="-3.739329027011991">
        <ele>310.16000000000003</ele>
        <time>2026-07-10T13:43:15Z</time>
      </trkpt>
      <trkpt lat="53.239096999168396" lon="-3.739492977038026">
        <ele>308.24000000000001</ele>
        <time>2026-07-10T13:43:16Z</time>
      </trkpt>
      <trkpt lat="53.238989040255547" lon="-3.739663967862725">
        <ele>306.31999999999999</ele>
        <time>2026-07-10T13:43:17Z</time>
      </trkpt>
      <trkpt lat="53.238534992560744" lon="-3.740301998332143">
        <ele>299.58999999999997</ele>
        <time>2026-07-10T13:43:21Z</time>
      </trkpt>
      <trkpt lat="53.238428039476275" lon="-3.740406017750502">
        <ele>298.14999999999998</ele>
        <time>2026-07-10T13:43:22Z</time>
      </trkpt>
      <trkpt lat="53.238304993137717" lon="-3.740453962236643">
        <ele>296.69999999999999</ele>
        <time>2026-07-10T13:43:23Z</time>
      </trkpt>
      <trkpt lat="53.237941972911358" lon="-3.740652026608586">
        <ele>292.38</ele>
        <time>2026-07-10T13:43:26Z</time>
      </trkpt>
      <trkpt lat="53.237607032060623" lon="-3.740928964689374">
        <ele>287.56999999999999</ele>
        <time>2026-07-10T13:43:29Z</time>
      </trkpt>
      <trkpt lat="53.23749496601522" lon="-3.740980010479689">
        <ele>285.64999999999998</ele>
        <time>2026-07-10T13:43:30Z</time>
      </trkpt>
      <trkpt lat="53.237378960475326" lon="-3.741018986329436">
        <ele>284.20999999999998</ele>
        <time>2026-07-10T13:43:31Z</time>
      </trkpt>
      <trkpt lat="53.237266978248954" lon="-3.741081012412906">
        <ele>282.27999999999997</ele>
        <time>2026-07-10T13:43:32Z</time>
      </trkpt>
      <trkpt lat="53.237159019336104" lon="-3.741164999082685">
        <ele>280.83999999999997</ele>
        <time>2026-07-10T13:43:33Z</time>
      </trkpt>
      <trkpt lat="53.237061034888029" lon="-3.741271030157805">
        <ele>279.88</ele>
        <time>2026-07-10T13:43:34Z</time>
      </trkpt>
      <trkpt lat="53.236964978277683" lon="-3.741389969363809">
        <ele>278.92000000000002</ele>
        <time>2026-07-10T13:43:35Z</time>
      </trkpt>
      <trkpt lat="53.236786024644971" lon="-3.741595996543765">
        <ele>277.48000000000002</ele>
        <time>2026-07-10T13:43:37Z</time>
      </trkpt>
      <trkpt lat="53.236639006063342" lon="-3.741651987656951">
        <ele>277.48000000000002</ele>
        <time>2026-07-10T13:43:38Z</time>
      </trkpt>
      <trkpt lat="53.236530963331461" lon="-3.74169398099184">
        <ele>277</ele>
        <time>2026-07-10T13:43:39Z</time>
      </trkpt>
      <trkpt lat="53.236429039388895" lon="-3.741676965728402">
        <ele>277</ele>
        <time>2026-07-10T13:43:40Z</time>
      </trkpt>
      <trkpt lat="53.236323008313775" lon="-3.741640001535416">
        <ele>277</ele>
        <time>2026-07-10T13:43:41Z</time>
      </trkpt>
      <trkpt lat="53.236209014430642" lon="-3.741600019857287">
        <ele>277</ele>
        <time>2026-07-10T13:43:42Z</time>
      </trkpt>
      <trkpt lat="53.234844021499157" lon="-3.741121999919415">
        <ele>281.31999999999999</ele>
        <time>2026-07-10T13:43:52Z</time>
      </trkpt>
      <trkpt lat="53.234582003206015" lon="-3.741014963015914">
        <ele>282.27999999999997</ele>
        <time>2026-07-10T13:43:54Z</time>
      </trkpt>
      <trkpt lat="53.234482007101178" lon="-3.74089602380991">
        <ele>282.76999999999998</ele>
        <time>2026-07-10T13:43:55Z</time>
      </trkpt>
      <trkpt lat="53.234383016824722" lon="-3.740777000784874">
        <ele>283.25</ele>
        <time>2026-07-10T13:43:56Z</time>
      </trkpt>
      <trkpt lat="53.234296012669802" lon="-3.740672981366515">
        <ele>284.20999999999998</ele>
        <time>2026-07-10T13:43:57Z</time>
      </trkpt>
      <trkpt lat="53.234170032665133" lon="-3.740614978596568">
        <ele>285.17000000000002</ele>
        <time>2026-07-10T13:43:58Z</time>
      </trkpt>
      <trkpt lat="53.234044974669814" lon="-3.740556975826621">
        <ele>285.64999999999998</ele>
        <time>2026-07-10T13:43:59Z</time>
      </trkpt>
      <trkpt lat="53.233910026028752" lon="-3.740582037717104">
        <ele>286.61000000000001</ele>
        <time>2026-07-10T13:44:00Z</time>
      </trkpt>
      <trkpt lat="53.233767030760646" lon="-3.740632999688387">
        <ele>287.08999999999997</ele>
        <time>2026-07-10T13:44:01Z</time>
      </trkpt>
      <trkpt lat="53.233607020229101" lon="-3.740689996629953">
        <ele>288.05000000000001</ele>
        <time>2026-07-10T13:44:02Z</time>
      </trkpt>
      <trkpt lat="53.233436029404402" lon="-3.740751016885042">
        <ele>289.00999999999999</ele>
        <time>2026-07-10T13:44:03Z</time>
      </trkpt>
      <trkpt lat="53.23180197738111" lon="-3.741350993514061">
        <ele>293.33999999999997</ele>
        <time>2026-07-10T13:44:12Z</time>
      </trkpt>
      <trkpt lat="53.230259958654642" lon="-3.742063958197832">
        <ele>296.69999999999999</ele>
        <time>2026-07-10T13:44:21Z</time>
      </trkpt>
      <trkpt lat="53.229769030585885" lon="-3.742218017578125">
        <ele>297.67000000000002</ele>
        <time>2026-07-10T13:44:24Z</time>
      </trkpt>
      <trkpt lat="53.229617988690734" lon="-3.742236960679293">
        <ele>298.14999999999998</ele>
        <time>2026-07-10T13:44:25Z</time>
      </trkpt>
      <trkpt lat="53.22920199483633" lon="-3.742222962900996">
        <ele>300.06999999999999</ele>
        <time>2026-07-10T13:44:28Z</time>
      </trkpt>
      <trkpt lat="53.229088000953197" lon="-3.742219023406506">
        <ele>300.55000000000001</ele>
        <time>2026-07-10T13:44:29Z</time>
      </trkpt>
      <trkpt lat="53.228992028161883" lon="-3.742264034226537">
        <ele>301.02999999999997</ele>
        <time>2026-07-10T13:44:30Z</time>
      </trkpt>
      <trkpt lat="53.228889014571905" lon="-3.7423350289464">
        <ele>301.50999999999999</ele>
        <time>2026-07-10T13:44:31Z</time>
      </trkpt>
      <trkpt lat="53.228779966011643" lon="-3.742409963160753">
        <ele>301.99000000000001</ele>
        <time>2026-07-10T13:44:32Z</time>
      </trkpt>
      <trkpt lat="53.228560024872422" lon="-3.742538038641214">
        <ele>302.94999999999999</ele>
        <time>2026-07-10T13:44:34Z</time>
      </trkpt>
      <trkpt lat="53.228442007675767" lon="-3.742532003670931">
        <ele>302.94999999999999</ele>
        <time>2026-07-10T13:44:35Z</time>
      </trkpt>
      <trkpt lat="53.228314016014338" lon="-3.742524962872267">
        <ele>303.43000000000001</ele>
        <time>2026-07-10T13:44:36Z</time>
      </trkpt>
      <trkpt lat="53.228174960240722" lon="-3.74250803142786">
        <ele>303.43000000000001</ele>
        <time>2026-07-10T13:44:37Z</time>
      </trkpt>
      <trkpt lat="53.228030037134886" lon="-3.742452962324023">
        <ele>303.43000000000001</ele>
        <time>2026-07-10T13:44:38Z</time>
      </trkpt>
      <trkpt lat="53.22728899307549" lon="-3.742089020088315">
        <ele>305.83999999999997</ele>
        <time>2026-07-10T13:44:43Z</time>
      </trkpt>
      <trkpt lat="53.227148009464145" lon="-3.741980977356434">
        <ele>305.83999999999997</ele>
        <time>2026-07-10T13:44:44Z</time>
      </trkpt>
      <trkpt lat="53.225330980494618" lon="-3.740326976403594">
        <ele>298.14999999999998</ele>
        <time>2026-07-10T13:44:56Z</time>
      </trkpt>
      <trkpt lat="53.22501003742218" lon="-3.740089014172554">
        <ele>296.69999999999999</ele>
        <time>2026-07-10T13:44:58Z</time>
      </trkpt>
      <trkpt lat="53.224841980263591" lon="-3.740032017230988">
        <ele>296.22000000000003</ele>
        <time>2026-07-10T13:44:59Z</time>
      </trkpt>
      <trkpt lat="53.224389022216201" lon="-3.739900002256036">
        <ele>295.74000000000001</ele>
        <time>2026-07-10T13:45:02Z</time>
      </trkpt>
      <trkpt lat="53.224272010847926" lon="-3.739824984222651">
        <ele>295.74000000000001</ele>
        <time>2026-07-10T13:45:03Z</time>
      </trkpt>
      <trkpt lat="53.224161034449935" lon="-3.739731023088098">
        <ele>295.25999999999999</ele>
        <time>2026-07-10T13:45:04Z</time>
      </trkpt>
      <trkpt lat="53.224059026688337" lon="-3.739588027819991">
        <ele>295.25999999999999</ele>
        <time>2026-07-10T13:45:05Z</time>
      </trkpt>
      <trkpt lat="53.223952995613217" lon="-3.739440003409982">
        <ele>294.77999999999997</ele>
        <time>2026-07-10T13:45:06Z</time>
      </trkpt>
      <trkpt lat="53.22385199368" lon="-3.739279992878437">
        <ele>294.30000000000001</ele>
        <time>2026-07-10T13:45:07Z</time>
      </trkpt>
      <trkpt lat="53.223773036152124" lon="-3.739078994840384">
        <ele>293.81999999999999</ele>
        <time>2026-07-10T13:45:08Z</time>
      </trkpt>
      <trkpt lat="53.223695000633597" lon="-3.738881014287472">
        <ele>293.33999999999997</ele>
        <time>2026-07-10T13:45:09Z</time>
      </trkpt>
      <trkpt lat="53.223509006202221" lon="-3.738510031253099">
        <ele>292.38</ele>
        <time>2026-07-10T13:45:11Z</time>
      </trkpt>
      <trkpt lat="53.223411021754146" lon="-3.73834197409451">
        <ele>292.38</ele>
        <time>2026-07-10T13:45:12Z</time>
      </trkpt>
      <trkpt lat="53.223331980407238" lon="-3.738205013796687">
        <ele>292.38</ele>
        <time>2026-07-10T13:45:13Z</time>
      </trkpt>
      <trkpt lat="53.223210023716092" lon="-3.738108035176992">
        <ele>292.38</ele>
        <time>2026-07-10T13:45:14Z</time>
      </trkpt>
      <trkpt lat="53.223118996247649" lon="-3.738035028800368">
        <ele>292.38</ele>
        <time>2026-07-10T13:45:15Z</time>
      </trkpt>
      <trkpt lat="53.223032997921109" lon="-3.738054977729917">
        <ele>292.38</ele>
        <time>2026-07-10T13:45:16Z</time>
      </trkpt>
      <trkpt lat="53.222976000979543" lon="-3.73812597244978">
        <ele>292.38</ele>
        <time>2026-07-10T13:45:17Z</time>
      </trkpt>
      <trkpt lat="53.222902994602919" lon="-3.738216999918222">
        <ele>292.86000000000001</ele>
        <time>2026-07-10T13:45:18Z</time>
      </trkpt>
      <trkpt lat="53.22281900793314" lon="-3.738324036821723">
        <ele>292.86000000000001</ele>
        <time>2026-07-10T13:45:19Z</time>
      </trkpt>
      <trkpt lat="53.222726974636316" lon="-3.738440964370966">
        <ele>292.86000000000001</ele>
        <time>2026-07-10T13:45:20Z</time>
      </trkpt>
      <trkpt lat="53.222522959113121" lon="-3.738699965178967">
        <ele>293.33999999999997</ele>
        <time>2026-07-10T13:45:22Z</time>
      </trkpt>
      <trkpt lat="53.22241298854351" lon="-3.738816976547241">
        <ele>292.86000000000001</ele>
        <time>2026-07-10T13:45:23Z</time>
      </trkpt>
      <trkpt lat="53.222292959690094" lon="-3.738923007622361">
        <ele>292.86000000000001</ele>
        <time>2026-07-10T13:45:24Z</time>
      </trkpt>
      <trkpt lat="53.221826003864408" lon="-3.739397004246712">
        <ele>294.77999999999997</ele>
        <time>2026-07-10T13:45:29Z</time>
      </trkpt>
      <trkpt lat="53.221756014972925" lon="-3.739519966766238">
        <ele>295.25999999999999</ele>
        <time>2026-07-10T13:45:30Z</time>
      </trkpt>
      <trkpt lat="53.22165803052485" lon="-3.739686012268066">
        <ele>295.74000000000001</ele>
        <time>2026-07-10T13:45:31Z</time>
      </trkpt>
      <trkpt lat="53.221335997804999" lon="-3.740394031628966">
        <ele>298.63</ele>
        <time>2026-07-10T13:45:35Z</time>
      </trkpt>
      <trkpt lat="53.221214041113853" lon="-3.740558987483382">
        <ele>299.58999999999997</ele>
        <time>2026-07-10T13:45:36Z</time>
      </trkpt>
      <trkpt lat="53.221080014482141" lon="-3.740740036591888">
        <ele>300.55000000000001</ele>
        <time>2026-07-10T13:45:37Z</time>
      </trkpt>
      <trkpt lat="53.220937019214034" lon="-3.74091999605298">
        <ele>301.02999999999997</ele>
        <time>2026-07-10T13:45:38Z</time>
      </trkpt>
      <trkpt lat="53.220773991197348" lon="-3.741075983271003">
        <ele>301.02999999999997</ele>
        <time>2026-07-10T13:45:39Z</time>
      </trkpt>
      <trkpt lat="53.220608029514551" lon="-3.741235993802548">
        <ele>301.50999999999999</ele>
        <time>2026-07-10T13:45:40Z</time>
      </trkpt>
      <trkpt lat="53.219971004873514" lon="-3.741685012355447">
        <ele>303.91000000000003</ele>
        <time>2026-07-10T13:45:44Z</time>
      </trkpt>
      <trkpt lat="53.219807976856828" lon="-3.741747038438916">
        <ele>303.91000000000003</ele>
        <time>2026-07-10T13:45:45Z</time>
      </trkpt>
      <trkpt lat="53.218107037246227" lon="-3.742053983733058">
        <ele>301.99000000000001</ele>
        <time>2026-07-10T13:45:54Z</time>
      </trkpt>
      <trkpt lat="53.217583000659943" lon="-3.742244001477957">
        <ele>301.02999999999997</ele>
        <time>2026-07-10T13:45:57Z</time>
      </trkpt>
      <trkpt lat="53.217420978471637" lon="-3.74231499619782">
        <ele>301.02999999999997</ele>
        <time>2026-07-10T13:45:58Z</time>
      </trkpt>
      <trkpt lat="53.217288041487336" lon="-3.742460003122687">
        <ele>300.55000000000001</ele>
        <time>2026-07-10T13:45:59Z</time>
      </trkpt>
      <trkpt lat="53.217174969613552" lon="-3.74261699616909">
        <ele>300.06999999999999</ele>
        <time>2026-07-10T13:46:00Z</time>
      </trkpt>
      <trkpt lat="53.217099029570818" lon="-3.742826962843537">
        <ele>300.06999999999999</ele>
        <time>2026-07-10T13:46:01Z</time>
      </trkpt>
      <trkpt lat="53.217016970738769" lon="-3.743053022772074">
        <ele>299.58999999999997</ele>
        <time>2026-07-10T13:46:02Z</time>
      </trkpt>
      <trkpt lat="53.216931978240609" lon="-3.743288973346353">
        <ele>300.06999999999999</ele>
        <time>2026-07-10T13:46:03Z</time>
      </trkpt>
      <trkpt lat="53.216410037130117" lon="-3.744696965441108">
        <ele>307.27999999999997</ele>
        <time>2026-07-10T13:46:09Z</time>
      </trkpt>
      <trkpt lat="53.216305011883378" lon="-3.744863010942936">
        <ele>308.24000000000001</ele>
        <time>2026-07-10T13:46:10Z</time>
      </trkpt>
      <trkpt lat="53.216185988858342" lon="-3.745050011202693">
        <ele>308.72000000000003</ele>
        <time>2026-07-10T13:46:11Z</time>
      </trkpt>
      <trkpt lat="53.21605104021728" lon="-3.745166016742587">
        <ele>309.19999999999999</ele>
        <time>2026-07-10T13:46:12Z</time>
      </trkpt>
      <trkpt lat="53.215904021635652" lon="-3.745291996747255">
        <ele>309.68000000000001</ele>
        <time>2026-07-10T13:46:13Z</time>
      </trkpt>
      <trkpt lat="53.214790988713503" lon="-3.74624602496624">
        <ele>312.56999999999999</ele>
        <time>2026-07-10T13:46:20Z</time>
      </trkpt>
      <trkpt lat="53.214127980172634" lon="-3.746793027967215">
        <ele>312.56999999999999</ele>
        <time>2026-07-10T13:46:24Z</time>
      </trkpt>
      <trkpt lat="53.213978027924895" lon="-3.74689101241529">
        <ele>312.08999999999997</ele>
        <time>2026-07-10T13:46:25Z</time>
      </trkpt>
      <trkpt lat="53.213835032656789" lon="-3.746984973549843">
        <ele>312.08999999999997</ele>
        <time>2026-07-10T13:46:26Z</time>
      </trkpt>
      <trkpt lat="53.213701006025076" lon="-3.747072983533144">
        <ele>312.08999999999997</ele>
        <time>2026-07-10T13:46:27Z</time>
      </trkpt>
      <trkpt lat="53.213557004928589" lon="-3.747069966048002">
        <ele>312.56999999999999</ele>
        <time>2026-07-10T13:46:28Z</time>
      </trkpt>
      <trkpt lat="53.213393976911902" lon="-3.74704297631979">
        <ele>313.05000000000001</ele>
        <time>2026-07-10T13:46:29Z</time>
      </trkpt>
      <trkpt lat="53.213226003572345" lon="-3.747014980763197">
        <ele>313.52999999999997</ele>
        <time>2026-07-10T13:46:30Z</time>
      </trkpt>
      <trkpt lat="53.211554987356067" lon="-3.746775006875396">
        <ele>321.69999999999999</ele>
        <time>2026-07-10T13:46:39Z</time>
      </trkpt>
      <trkpt lat="53.209325987845659" lon="-3.746882965788245">
        <ele>326.99000000000001</ele>
        <time>2026-07-10T13:46:50Z</time>
      </trkpt>
      <trkpt lat="53.208347987383604" lon="-3.746929988265038">
        <ele>329.87</ele>
        <time>2026-07-10T13:46:55Z</time>
      </trkpt>
      <trkpt lat="53.208178002387285" lon="-3.746938034892082">
        <ele>330.35000000000002</ele>
        <time>2026-07-10T13:46:56Z</time>
      </trkpt>
      <trkpt lat="53.208012040704489" lon="-3.74687097966671">
        <ele>330.35000000000002</ele>
        <time>2026-07-10T13:46:57Z</time>
      </trkpt>
      <trkpt lat="53.207842977717519" lon="-3.746793027967215">
        <ele>330.35000000000002</ele>
        <time>2026-07-10T13:46:58Z</time>
      </trkpt>
      <trkpt lat="53.207667041569948" lon="-3.746712980791926">
        <ele>330.35000000000002</ele>
        <time>2026-07-10T13:46:59Z</time>
      </trkpt>
      <trkpt lat="53.20582402870059" lon="-3.745558960363269">
        <ele>331.79000000000002</ele>
        <time>2026-07-10T13:47:10Z</time>
      </trkpt>
      <trkpt lat="53.205650020390749" lon="-3.745513027533889">
        <ele>331.31</ele>
        <time>2026-07-10T13:47:11Z</time>
      </trkpt>
      <trkpt lat="53.204285027459264" lon="-3.745475979521871">
        <ele>328.91000000000003</ele>
        <time>2026-07-10T13:47:19Z</time>
      </trkpt>
      <trkpt lat="53.204180002212524" lon="-3.74556097202003">
        <ele>329.38999999999999</ele>
        <time>2026-07-10T13:47:20Z</time>
      </trkpt>
      <trkpt lat="53.204075982794166" lon="-3.745677983388305">
        <ele>329.87</ele>
        <time>2026-07-10T13:47:21Z</time>
      </trkpt>
      <trkpt lat="53.203845983371139" lon="-3.745935978367925">
        <ele>329.87</ele>
        <time>2026-07-10T13:47:23Z</time>
      </trkpt>
      <trkpt lat="53.20371899753809" lon="-3.746077967807651">
        <ele>329.87</ele>
        <time>2026-07-10T13:47:24Z</time>
      </trkpt>
      <trkpt lat="53.20357097312808" lon="-3.746168995276094">
        <ele>329.87</ele>
        <time>2026-07-10T13:47:25Z</time>
      </trkpt>
      <trkpt lat="53.203428983688354" lon="-3.746244013309479">
        <ele>330.35000000000002</ele>
        <time>2026-07-10T13:47:26Z</time>
      </trkpt>
      <trkpt lat="53.20329001173377" lon="-3.746294975280762">
        <ele>330.35000000000002</ele>
        <time>2026-07-10T13:47:27Z</time>
      </trkpt>
      <trkpt lat="53.203151961788535" lon="-3.746294975280762">
        <ele>330.35000000000002</ele>
        <time>2026-07-10T13:47:28Z</time>
      </trkpt>
      <trkpt lat="53.203022964298725" lon="-3.746230015531182">
        <ele>330.35000000000002</ele>
        <time>2026-07-10T13:47:29Z</time>
      </trkpt>
      <trkpt lat="53.202896984294057" lon="-3.746143011376262">
        <ele>329.87</ele>
        <time>2026-07-10T13:47:30Z</time>
      </trkpt>
      <trkpt lat="53.202768992632627" lon="-3.746056007221341">
        <ele>329.38999999999999</ele>
        <time>2026-07-10T13:47:31Z</time>
      </trkpt>
      <trkpt lat="53.20264401845634" lon="-3.746005967259407">
        <ele>329.38999999999999</ele>
        <time>2026-07-10T13:47:32Z</time>
      </trkpt>
      <trkpt lat="53.20251502096653" lon="-3.745986018329859">
        <ele>328.43000000000001</ele>
        <time>2026-07-10T13:47:33Z</time>
      </trkpt>
      <trkpt lat="53.202377976849675" lon="-3.745999010279775">
        <ele>327.94999999999999</ele>
        <time>2026-07-10T13:47:34Z</time>
      </trkpt>
      <trkpt lat="53.202231964096427" lon="-3.746071010828018">
        <ele>327.47000000000003</ele>
        <time>2026-07-10T13:47:35Z</time>
      </trkpt>
      <trkpt lat="53.202080000191927" lon="-3.746145023033023">
        <ele>326.99000000000001</ele>
        <time>2026-07-10T13:47:36Z</time>
      </trkpt>
      <trkpt lat="53.201767019927502" lon="-3.746298998594284">
        <ele>326.5</ele>
        <time>2026-07-10T13:47:38Z</time>
      </trkpt>
      <trkpt lat="53.201369969174266" lon="-3.746493961662054">
        <ele>326.5</ele>
        <time>2026-07-10T13:47:41Z</time>
      </trkpt>
      <trkpt lat="53.20124801248312" lon="-3.746519023552537">
        <ele>326.5</ele>
        <time>2026-07-10T13:47:42Z</time>
      </trkpt>
      <trkpt lat="53.201114991679788" lon="-3.74648398719728">
        <ele>326.5</ele>
        <time>2026-07-10T13:47:43Z</time>
      </trkpt>
      <trkpt lat="53.199758967384696" lon="-3.746129013597965">
        <ele>326.99000000000001</ele>
        <time>2026-07-10T13:47:51Z</time>
      </trkpt>
      <trkpt lat="53.198625985532999" lon="-3.745636995881796">
        <ele>326.5</ele>
        <time>2026-07-10T13:47:58Z</time>
      </trkpt>
      <trkpt lat="53.198483996093273" lon="-3.745654011145234">
        <ele>326.01999999999998</ele>
        <time>2026-07-10T13:47:59Z</time>
      </trkpt>
      <trkpt lat="53.198332032188773" lon="-3.745697010308504">
        <ele>326.01999999999998</ele>
        <time>2026-07-10T13:48:00Z</time>
      </trkpt>
      <trkpt lat="53.198169004172087" lon="-3.745744032785296">
        <ele>325.54000000000002</ele>
        <time>2026-07-10T13:48:01Z</time>
      </trkpt>
      <trkpt lat="53.198000025004148" lon="-3.745792983099818">
        <ele>325.54000000000002</ele>
        <time>2026-07-10T13:48:02Z</time>
      </trkpt>
      <trkpt lat="53.197667011991143" lon="-3.745915023609996">
        <ele>325.54000000000002</ele>
        <time>2026-07-10T13:48:04Z</time>
      </trkpt>
      <trkpt lat="53.197507001459599" lon="-3.745990041643381">
        <ele>325.54000000000002</ele>
        <time>2026-07-10T13:48:05Z</time>
      </trkpt>
      <trkpt lat="53.197364006191492" lon="-3.746127001941204">
        <ele>325.54000000000002</ele>
        <time>2026-07-10T13:48:06Z</time>
      </trkpt>
      <trkpt lat="53.197226962074637" lon="-3.746263962239027">
        <ele>325.06</ele>
        <time>2026-07-10T13:48:07Z</time>
      </trkpt>
      <trkpt lat="53.197115985676646" lon="-3.746401006355882">
        <ele>325.06</ele>
        <time>2026-07-10T13:48:08Z</time>
      </trkpt>
      <trkpt lat="53.197049014270306" lon="-3.746575014665723">
        <ele>324.57999999999998</ele>
        <time>2026-07-10T13:48:09Z</time>
      </trkpt>
      <trkpt lat="53.196998974308372" lon="-3.746750028803945">
        <ele>324.57999999999998</ele>
        <time>2026-07-10T13:48:10Z</time>
      </trkpt>
      <trkpt lat="53.196954969316721" lon="-3.746941974386573">
        <ele>324.10000000000002</ele>
        <time>2026-07-10T13:48:11Z</time>
      </trkpt>
      <trkpt lat="53.196916999295354" lon="-3.747110031545162">
        <ele>324.10000000000002</ele>
        <time>2026-07-10T13:48:12Z</time>
      </trkpt>
      <trkpt lat="53.196829995140433" lon="-3.747270964086056">
        <ele>324.10000000000002</ele>
        <time>2026-07-10T13:48:13Z</time>
      </trkpt>
      <trkpt lat="53.196743996813893" lon="-3.747361991554499">
        <ele>324.10000000000002</ele>
        <time>2026-07-10T13:48:14Z</time>
      </trkpt>
      <trkpt lat="53.196635032072663" lon="-3.747401973232627">
        <ele>324.57999999999998</ele>
        <time>2026-07-10T13:48:15Z</time>
      </trkpt>
      <trkpt lat="53.196513997390866" lon="-3.747444972395897">
        <ele>324.57999999999998</ele>
        <time>2026-07-10T13:48:16Z</time>
      </trkpt>
      <trkpt lat="53.196382988244295" lon="-3.747491994872689">
        <ele>324.57999999999998</ele>
        <time>2026-07-10T13:48:17Z</time>
      </trkpt>
      <trkpt lat="53.196251979097724" lon="-3.747540023177862">
        <ele>324.57999999999998</ele>
        <time>2026-07-10T13:48:18Z</time>
      </trkpt>
      <trkpt lat="53.196145026013255" lon="-3.747670026496053">
        <ele>324.57999999999998</ele>
        <time>2026-07-10T13:48:19Z</time>
      </trkpt>
      <trkpt lat="53.196038994938135" lon="-3.747798018157482">
        <ele>324.57999999999998</ele>
        <time>2026-07-10T13:48:20Z</time>
      </trkpt>
      <trkpt lat="53.195926006883383" lon="-3.747906982898712">
        <ele>324.10000000000002</ele>
        <time>2026-07-10T13:48:21Z</time>
      </trkpt>
      <trkpt lat="53.19581301882863" lon="-3.747919974848628">
        <ele>323.62</ele>
        <time>2026-07-10T13:48:22Z</time>
      </trkpt>
      <trkpt lat="53.195714028552175" lon="-3.74788099899888">
        <ele>323.62</ele>
        <time>2026-07-10T13:48:23Z</time>
      </trkpt>
      <trkpt lat="53.195615960285068" lon="-3.747783014550805">
        <ele>323.13999999999999</ele>
        <time>2026-07-10T13:48:24Z</time>
      </trkpt>
      <trkpt lat="53.19551101885736" lon="-3.747677989304066">
        <ele>323.13999999999999</ele>
        <time>2026-07-10T13:48:25Z</time>
      </trkpt>
      <trkpt lat="53.195396019145846" lon="-3.747595008462668">
        <ele>322.66000000000003</ele>
        <time>2026-07-10T13:48:26Z</time>
      </trkpt>
      <trkpt lat="53.195268027484417" lon="-3.747568018734455">
        <ele>322.18000000000001</ele>
        <time>2026-07-10T13:48:27Z</time>
      </trkpt>
      <trkpt lat="53.195131989195943" lon="-3.747541029006243">
        <ele>322.18000000000001</ele>
        <time>2026-07-10T13:48:28Z</time>
      </trkpt>
      <trkpt lat="53.194989999756217" lon="-3.747604982927442">
        <ele>321.69999999999999</ele>
        <time>2026-07-10T13:48:29Z</time>
      </trkpt>
      <trkpt lat="53.194836024194956" lon="-3.747673965990543">
        <ele>321.69999999999999</ele>
        <time>2026-07-10T13:48:30Z</time>
      </trkpt>
      <trkpt lat="53.194670984521508" lon="-3.747747978195548">
        <ele>321.22000000000003</ele>
        <time>2026-07-10T13:48:31Z</time>
      </trkpt>
      <trkpt lat="53.19330096244812" lon="-3.748550964519382">
        <ele>318.81</ele>
        <time>2026-07-10T13:48:39Z</time>
      </trkpt>
      <trkpt lat="53.193156039342284" lon="-3.748689014464617">
        <ele>318.32999999999998</ele>
        <time>2026-07-10T13:48:40Z</time>
      </trkpt>
      <trkpt lat="53.193022012710571" lon="-3.748832009732723">
        <ele>317.85000000000002</ele>
        <time>2026-07-10T13:48:41Z</time>
      </trkpt>
      <trkpt lat="53.192930985242128" lon="-3.749047005549073">
        <ele>317.37</ele>
        <time>2026-07-10T13:48:42Z</time>
      </trkpt>
      <trkpt lat="53.192838029935956" lon="-3.749266024678946">
        <ele>316.88999999999999</ele>
        <time>2026-07-10T13:48:43Z</time>
      </trkpt>
      <trkpt lat="53.192766029387712" lon="-3.74951203353703">
        <ele>316.41000000000003</ele>
        <time>2026-07-10T13:48:44Z</time>
      </trkpt>
      <trkpt lat="53.192707020789385" lon="-3.749784026294947">
        <ele>315.44999999999999</ele>
        <time>2026-07-10T13:48:45Z</time>
      </trkpt>
      <trkpt lat="53.192649018019438" lon="-3.750057024881244">
        <ele>314.97000000000003</ele>
        <time>2026-07-10T13:48:46Z</time>
      </trkpt>
      <trkpt lat="53.192540975287557" lon="-3.750558011233807">
        <ele>314.49000000000001</ele>
        <time>2026-07-10T13:48:48Z</time>
      </trkpt>
      <trkpt lat="53.192447014153004" lon="-3.75073897652328">
        <ele>314.00999999999999</ele>
        <time>2026-07-10T13:48:49Z</time>
      </trkpt>
      <trkpt lat="53.19235498085618" lon="-3.750894963741303">
        <ele>314.00999999999999</ele>
        <time>2026-07-10T13:48:50Z</time>
      </trkpt>
      <trkpt lat="53.192221038043499" lon="-3.750979034230113">
        <ele>314.00999999999999</ele>
        <time>2026-07-10T13:48:51Z</time>
      </trkpt>
      <trkpt lat="53.19207301363349" lon="-3.751070983707905">
        <ele>314.49000000000001</ele>
        <time>2026-07-10T13:48:52Z</time>
      </trkpt>
      <trkpt lat="53.191914008930326" lon="-3.751170979812741">
        <ele>314.49000000000001</ele>
        <time>2026-07-10T13:48:53Z</time>
      </trkpt>
      <trkpt lat="53.190084993839264" lon="-3.752314019948244">
        <ele>313.05000000000001</ele>
        <time>2026-07-10T13:49:03Z</time>
      </trkpt>
      <trkpt lat="53.188571976497769" lon="-3.752945009618998">
        <ele>305.83999999999997</ele>
        <time>2026-07-10T13:49:11Z</time>
      </trkpt>
      <trkpt lat="53.18683298304677" lon="-3.752575032413006">
        <ele>303.91000000000003</ele>
        <time>2026-07-10T13:49:20Z</time>
      </trkpt>
      <trkpt lat="53.184437016025186" lon="-3.752001961693168">
        <ele>302.47000000000003</ele>
        <time>2026-07-10T13:49:32Z</time>
      </trkpt>
      <trkpt lat="53.182595008984208" lon="-3.752061976119876">
        <ele>301.50999999999999</ele>
        <time>2026-07-10T13:49:41Z</time>
      </trkpt>
      <trkpt lat="53.182222014293075" lon="-3.752104975283146">
        <ele>301.02999999999997</ele>
        <time>2026-07-10T13:49:43Z</time>
      </trkpt>
      <trkpt lat="53.182027973234653" lon="-3.752062981948257">
        <ele>301.02999999999997</ele>
        <time>2026-07-10T13:49:44Z</time>
      </trkpt>
      <trkpt lat="53.181825969368219" lon="-3.751999028027058">
        <ele>301.02999999999997</ele>
        <time>2026-07-10T13:49:45Z</time>
      </trkpt>
      <trkpt lat="53.179945992305875" lon="-3.751566018909216">
        <ele>301.50999999999999</ele>
        <time>2026-07-10T13:49:54Z</time>
      </trkpt>
      <trkpt lat="53.179426984861493" lon="-3.751448001712561">
        <ele>302.47000000000003</ele>
        <time>2026-07-10T13:49:57Z</time>
      </trkpt>
      <trkpt lat="53.179292036220431" lon="-3.751354962587357">
        <ele>302.94999999999999</ele>
        <time>2026-07-10T13:49:58Z</time>
      </trkpt>
      <trkpt lat="53.17916396073997" lon="-3.751227976754308">
        <ele>303.43000000000001</ele>
        <time>2026-07-10T13:49:59Z</time>
      </trkpt>
      <trkpt lat="53.178616035729647" lon="-3.750560022890568">
        <ele>304.88</ele>
        <time>2026-07-10T13:50:03Z</time>
      </trkpt>
      <trkpt lat="53.178461976349354" lon="-3.750407975167036">
        <ele>305.83999999999997</ele>
        <time>2026-07-10T13:50:04Z</time>
      </trkpt>
      <trkpt lat="53.176985001191497" lon="-3.749401979148388">
        <ele>299.58999999999997</ele>
        <time>2026-07-10T13:50:12Z</time>
      </trkpt>
      <trkpt lat="53.175251958891749" lon="-3.748661018908024">
        <ele>289.97000000000003</ele>
        <time>2026-07-10T13:50:21Z</time>
      </trkpt>
      <trkpt lat="53.173713041469455" lon="-3.748495979234576">
        <ele>289.97000000000003</ele>
        <time>2026-07-10T13:50:29Z</time>
      </trkpt>
      <trkpt lat="53.171886038035154" lon="-3.748623970896006">
        <ele>291.42000000000002</ele>
        <time>2026-07-10T13:50:38Z</time>
      </trkpt>
      <trkpt lat="53.171360995620489" lon="-3.748708963394165">
        <ele>291.89999999999998</ele>
        <time>2026-07-10T13:50:41Z</time>
      </trkpt>
      <trkpt lat="53.171193022280931" lon="-3.748793033882976">
        <ele>291.89999999999998</ele>
        <time>2026-07-10T13:50:42Z</time>
      </trkpt>
      <trkpt lat="53.171038962900639" lon="-3.74886997975409">
        <ele>290.94</ele>
        <time>2026-07-10T13:50:43Z</time>
      </trkpt>
      <trkpt lat="53.170747021213174" lon="-3.74914800748229">
        <ele>290.45999999999998</ele>
        <time>2026-07-10T13:50:45Z</time>
      </trkpt>
      <trkpt lat="53.170626992359757" lon="-3.749262001365423">
        <ele>289.97000000000003</ele>
        <time>2026-07-10T13:50:46Z</time>
      </trkpt>
      <trkpt lat="53.170563038438559" lon="-3.749394016340375">
        <ele>289.49000000000001</ele>
        <time>2026-07-10T13:50:47Z</time>
      </trkpt>
      <trkpt lat="53.170519033446908" lon="-3.74955696053803">
        <ele>289.00999999999999</ele>
        <time>2026-07-10T13:50:48Z</time>
      </trkpt>
      <trkpt lat="53.170468993484974" lon="-3.749741027131677">
        <ele>289.00999999999999</ele>
        <time>2026-07-10T13:50:49Z</time>
      </trkpt>
      <trkpt lat="53.170415014028549" lon="-3.74994101934135">
        <ele>288.52999999999997</ele>
        <time>2026-07-10T13:50:50Z</time>
      </trkpt>
      <trkpt lat="53.17037402652204" lon="-3.75009298324585">
        <ele>288.05000000000001</ele>
        <time>2026-07-10T13:50:51Z</time>
      </trkpt>
      <trkpt lat="53.170296996831894" lon="-3.750269003212452">
        <ele>287.56999999999999</ele>
        <time>2026-07-10T13:50:52Z</time>
      </trkpt>
      <trkpt lat="53.170228013768792" lon="-3.750427002087236">
        <ele>287.08999999999997</ele>
        <time>2026-07-10T13:50:53Z</time>
      </trkpt>
      <trkpt lat="53.170127011835575" lon="-3.750538984313607">
        <ele>286.13</ele>
        <time>2026-07-10T13:50:54Z</time>
      </trkpt>
      <trkpt lat="53.170013017952442" lon="-3.750661024823785">
        <ele>285.64999999999998</ele>
        <time>2026-07-10T13:50:55Z</time>
      </trkpt>
      <trkpt lat="53.169897012412548" lon="-3.75078197568655">
        <ele>284.69</ele>
        <time>2026-07-10T13:50:56Z</time>
      </trkpt>
      <trkpt lat="53.169755022972822" lon="-3.750852970406413">
        <ele>284.20999999999998</ele>
        <time>2026-07-10T13:50:57Z</time>
      </trkpt>
      <trkpt lat="53.169610016047955" lon="-3.750925976783037">
        <ele>283.73000000000002</ele>
        <time>2026-07-10T13:50:58Z</time>
      </trkpt>
      <trkpt lat="53.169464003294706" lon="-3.750922037288547">
        <ele>283.73000000000002</ele>
        <time>2026-07-10T13:50:59Z</time>
      </trkpt>
      <trkpt lat="53.16932201385498" lon="-3.750914996489883">
        <ele>283.25</ele>
        <time>2026-07-10T13:51:00Z</time>
      </trkpt>
      <trkpt lat="53.169181030243635" lon="-3.750889012590051">
        <ele>283.25</ele>
        <time>2026-07-10T13:51:01Z</time>
      </trkpt>
      <trkpt lat="53.169039040803909" lon="-3.750808965414763">
        <ele>283.25</ele>
        <time>2026-07-10T13:51:02Z</time>
      </trkpt>
      <trkpt lat="53.168895961716771" lon="-3.750727996230125">
        <ele>283.25</ele>
        <time>2026-07-10T13:51:03Z</time>
      </trkpt>
      <trkpt lat="53.168623968958855" lon="-3.750647027045488">
        <ele>282.76999999999998</ele>
        <time>2026-07-10T13:51:05Z</time>
      </trkpt>
      <trkpt lat="53.168494971469045" lon="-3.750669993460178">
        <ele>281.80000000000001</ele>
        <time>2026-07-10T13:51:06Z</time>
      </trkpt>
      <trkpt lat="53.168357005342841" lon="-3.750693965703249">
        <ele>281.31999999999999</ele>
        <time>2026-07-10T13:51:07Z</time>
      </trkpt>
      <trkpt lat="53.168233036994934" lon="-3.750793039798737">
        <ele>280.83999999999997</ele>
        <time>2026-07-10T13:51:08Z</time>
      </trkpt>
      <trkpt lat="53.168091969564557" lon="-3.750906027853489">
        <ele>279.88</ele>
        <time>2026-07-10T13:51:09Z</time>
      </trkpt>
      <trkpt lat="53.167098965495825" lon="-3.752013025805354">
        <ele>276.04000000000002</ele>
        <time>2026-07-10T13:51:16Z</time>
      </trkpt>
      <trkpt lat="53.16697801463306" lon="-3.752240007743239">
        <ele>274.58999999999997</ele>
        <time>2026-07-10T13:51:17Z</time>
      </trkpt>
      <trkpt lat="53.166643995791674" lon="-3.752881977707148">
        <ele>271.70999999999998</ele>
        <time>2026-07-10T13:51:20Z</time>
      </trkpt>
      <trkpt lat="53.166532013565302" lon="-3.753054980188608">
        <ele>270.75</ele>
        <time>2026-07-10T13:51:21Z</time>
      </trkpt>
      <trkpt lat="53.166406033560634" lon="-3.753180960193276">
        <ele>270.26999999999998</ele>
        <time>2026-07-10T13:51:22Z</time>
      </trkpt>
      <trkpt lat="53.166272006928921" lon="-3.753253966569901">
        <ele>270.26999999999998</ele>
        <time>2026-07-10T13:51:23Z</time>
      </trkpt>
      <trkpt lat="53.166123982518911" lon="-3.753300989046693">
        <ele>270.75</ele>
        <time>2026-07-10T13:51:24Z</time>
      </trkpt>
      <trkpt lat="53.16596900112927" lon="-3.753351029008627">
        <ele>271.23000000000002</ele>
        <time>2026-07-10T13:51:25Z</time>
      </trkpt>
      <trkpt lat="53.164496971294284" lon="-3.753539035096765">
        <ele>283.25</ele>
        <time>2026-07-10T13:51:33Z</time>
      </trkpt>
      <trkpt lat="53.162953024730086" lon="-3.753902977332473">
        <ele>282.27999999999997</ele>
        <time>2026-07-10T13:51:41Z</time>
      </trkpt>
      <trkpt lat="53.162049958482385" lon="-3.754161978140473">
        <ele>279.39999999999998</ele>
        <time>2026-07-10T13:51:46Z</time>
      </trkpt>
      <trkpt lat="53.161893971264362" lon="-3.754292987287045">
        <ele>279.39999999999998</ele>
        <time>2026-07-10T13:51:47Z</time>
      </trkpt>
      <trkpt lat="53.161738989874721" lon="-3.754422990605235">
        <ele>278.92000000000002</ele>
        <time>2026-07-10T13:51:48Z</time>
      </trkpt>
      <trkpt lat="53.160387994721532" lon="-3.755555972456932">
        <ele>273.63</ele>
        <time>2026-07-10T13:51:57Z</time>
      </trkpt>
      <trkpt lat="53.15984501503408" lon="-3.756009014323354">
        <ele>268.35000000000002</ele>
        <time>2026-07-10T13:52:01Z</time>
      </trkpt>
      <trkpt lat="53.159709982573986" lon="-3.756123008206487">
        <ele>267.38</ele>
        <time>2026-07-10T13:52:02Z</time>
      </trkpt>
      <trkpt lat="53.159607974812388" lon="-3.756180005148053">
        <ele>265.94</ele>
        <time>2026-07-10T13:52:03Z</time>
      </trkpt>
      <trkpt lat="53.15950496122241" lon="-3.756202971562743">
        <ele>264.98000000000002</ele>
        <time>2026-07-10T13:52:04Z</time>
      </trkpt>
      <trkpt lat="53.159421980381012" lon="-3.756192997097969">
        <ele>263.54000000000002</ele>
        <time>2026-07-10T13:52:05Z</time>
      </trkpt>
      <trkpt lat="53.15935299731791" lon="-3.756168019026518">
        <ele>262.10000000000002</ele>
        <time>2026-07-10T13:52:06Z</time>
      </trkpt>
      <trkpt lat="53.159294994547963" lon="-3.756086966022849">
        <ele>260.64999999999998</ele>
        <time>2026-07-10T13:52:07Z</time>
      </trkpt>
      <trkpt lat="53.159247972071171" lon="-3.755982024595141">
        <ele>259.69</ele>
        <time>2026-07-10T13:52:08Z</time>
      </trkpt>
      <trkpt lat="53.159218970686197" lon="-3.755842968821526">
        <ele>259.20999999999998</ele>
        <time>2026-07-10T13:52:09Z</time>
      </trkpt>
      <trkpt lat="53.159188041463494" lon="-3.755689999088645">
        <ele>258.73000000000002</ele>
        <time>2026-07-10T13:52:10Z</time>
      </trkpt>
      <trkpt lat="53.158980002626777" lon="-3.754705963656306">
        <ele>257.29000000000002</ele>
        <time>2026-07-10T13:52:18Z</time>
      </trkpt>
      <trkpt lat="53.158882018178701" lon="-3.754463978111744">
        <ele>256.81</ele>
        <time>2026-07-10T13:52:24Z</time>
      </trkpt>
      <trkpt lat="53.158895010128617" lon="-3.754357025027275">
        <ele>256.81</ele>
        <time>2026-07-10T13:52:25Z</time>
      </trkpt>
      <trkpt lat="53.15903197042644" lon="-3.753281040117145">
        <ele>256.81</ele>
        <time>2026-07-10T13:52:31Z</time>
      </trkpt>
      <trkpt lat="53.159298012033105" lon="-3.751557972282171">
        <ele>258.25</ele>
        <time>2026-07-10T13:52:39Z</time>
      </trkpt>
      <trkpt lat="53.159307986497879" lon="-3.751457976177335">
        <ele>257.76999999999998</ele>
        <time>2026-07-10T13:52:40Z</time>
      </trkpt>
      <trkpt lat="53.159315027296543" lon="-3.75138295814395">
        <ele>256.81</ele>
        <time>2026-07-10T13:52:41Z</time>
      </trkpt>
      <trkpt lat="53.159226011484861" lon="-3.751270975917578">
        <ele>256.32999999999998</ele>
        <time>2026-07-10T13:52:42Z</time>
      </trkpt>
      <trkpt lat="53.159170020371675" lon="-3.751255972310901">
        <ele>255.37</ele>
        <time>2026-07-10T13:52:43Z</time>
      </trkpt>
      <trkpt lat="53.159100031480193" lon="-3.751239040866494">
        <ele>255.37</ele>
        <time>2026-07-10T13:52:44Z</time>
      </trkpt>
      <trkpt lat="53.159013027325273" lon="-3.751216996461153">
        <ele>255.84999999999999</ele>
        <time>2026-07-10T13:52:45Z</time>
      </trkpt>
      <trkpt lat="53.158915964886546" lon="-3.751214984804392">
        <ele>255.84999999999999</ele>
        <time>2026-07-10T13:52:46Z</time>
      </trkpt>
      <trkpt lat="53.158810017630458" lon="-3.751224959269166">
        <ele>256.32999999999998</ele>
        <time>2026-07-10T13:52:47Z</time>
      </trkpt>
      <trkpt lat="53.158695017918944" lon="-3.751236023381352">
        <ele>256.32999999999998</ele>
        <time>2026-07-10T13:52:48Z</time>
      </trkpt>
      <trkpt lat="53.157580979168415" lon="-3.751524025574327">
        <ele>258.73000000000002</ele>
        <time>2026-07-10T13:52:56Z</time>
      </trkpt>
      <trkpt lat="53.157446030527353" lon="-3.751514973118901">
        <ele>259.20999999999998</ele>
        <time>2026-07-10T13:52:57Z</time>
      </trkpt>
      <trkpt lat="53.157329019159079" lon="-3.751465016975999">
        <ele>259.69</ele>
        <time>2026-07-10T13:52:58Z</time>
      </trkpt>
      <trkpt lat="53.157233968377113" lon="-3.751363009214401">
        <ele>260.17000000000002</ele>
        <time>2026-07-10T13:52:59Z</time>
      </trkpt>
      <trkpt lat="53.157136989757419" lon="-3.751258989796042">
        <ele>260.64999999999998</ele>
        <time>2026-07-10T13:53:00Z</time>
      </trkpt>
      <trkpt lat="53.157037999480963" lon="-3.751129992306233">
        <ele>261.13999999999999</ele>
        <time>2026-07-10T13:53:01Z</time>
      </trkpt>
      <trkpt lat="53.156945966184139" lon="-3.750967970117927">
        <ele>261.62</ele>
        <time>2026-07-10T13:53:02Z</time>
      </trkpt>
      <trkpt lat="53.156314976513386" lon="-3.74985602684319">
        <ele>264.98000000000002</ele>
        <time>2026-07-10T13:53:08Z</time>
      </trkpt>
      <trkpt lat="53.156200982630253" lon="-3.74968403019011">
        <ele>265.45999999999998</ele>
        <time>2026-07-10T13:53:09Z</time>
      </trkpt>
      <trkpt lat="53.155266987159848" lon="-3.748977016657591">
        <ele>268.35000000000002</ele>
        <time>2026-07-10T13:53:16Z</time>
      </trkpt>
      <trkpt lat="53.15380996093154" lon="-3.748551970347762">
        <ele>274.11000000000001</ele>
        <time>2026-07-10T13:53:25Z</time>
      </trkpt>
      <trkpt lat="53.152327034622431" lon="-3.747907988727093">
        <ele>277.95999999999998</ele>
        <time>2026-07-10T13:53:34Z</time>
      </trkpt>
      <trkpt lat="53.152160989120603" lon="-3.747919974848628">
        <ele>278.92000000000002</ele>
        <time>2026-07-10T13:53:35Z</time>
      </trkpt>
      <trkpt lat="53.151500998064876" lon="-3.747956017032266">
        <ele>283.73000000000002</ele>
        <time>2026-07-10T13:53:39Z</time>
      </trkpt>
      <trkpt lat="53.151346016675234" lon="-3.747896002605557">
        <ele>284.69</ele>
        <time>2026-07-10T13:53:40Z</time>
      </trkpt>
      <trkpt lat="53.150159977376461" lon="-3.747269958257675">
        <ele>289.97000000000003</ele>
        <time>2026-07-10T13:53:48Z</time>
      </trkpt>
      <trkpt lat="53.148988019675016" lon="-3.746127001941204">
        <ele>294.77999999999997</ele>
        <time>2026-07-10T13:53:56Z</time>
      </trkpt>
      <trkpt lat="53.147323038429022" lon="-3.744230009615421">
        <ele>300.55000000000001</ele>
        <time>2026-07-10T13:54:08Z</time>
      </trkpt>
      <trkpt lat="53.14658903516829" lon="-3.743392992764711">
        <ele>303.43000000000001</ele>
        <time>2026-07-10T13:54:14Z</time>
      </trkpt>
      <trkpt lat="53.146479986608028" lon="-3.743323003873229">
        <ele>303.91000000000003</ele>
        <time>2026-07-10T13:54:15Z</time>
      </trkpt>
      <trkpt lat="53.146362975239754" lon="-3.743273969739676">
        <ele>304.38999999999999</ele>
        <time>2026-07-10T13:54:16Z</time>
      </trkpt>
      <trkpt lat="53.146245963871479" lon="-3.743225019425154">
        <ele>304.88</ele>
        <time>2026-07-10T13:54:17Z</time>
      </trkpt>
      <trkpt lat="53.146128030493855" lon="-3.74317497946322">
        <ele>305.36000000000001</ele>
        <time>2026-07-10T13:54:18Z</time>
      </trkpt>
      <trkpt lat="53.145669959485531" lon="-3.742944980040193">
        <ele>308.24000000000001</ele>
        <time>2026-07-10T13:54:22Z</time>
      </trkpt>
      <trkpt lat="53.145557977259159" lon="-3.742839032784104">
        <ele>308.72000000000003</ele>
        <time>2026-07-10T13:54:23Z</time>
      </trkpt>
      <trkpt lat="53.144388031214476" lon="-3.7418860103935">
        <ele>313.05000000000001</ele>
        <time>2026-07-10T13:54:32Z</time>
      </trkpt>
      <trkpt lat="53.144009001553059" lon="-3.741666991263628">
        <ele>314.49000000000001</ele>
        <time>2026-07-10T13:54:35Z</time>
      </trkpt>
      <trkpt lat="53.143900036811829" lon="-3.741557020694017">
        <ele>314.49000000000001</ele>
        <time>2026-07-10T13:54:36Z</time>
      </trkpt>
      <trkpt lat="53.143790988251567" lon="-3.741448977962136">
        <ele>314.49000000000001</ele>
        <time>2026-07-10T13:54:37Z</time>
      </trkpt>
      <trkpt lat="53.143684035167098" lon="-3.741342024877667">
        <ele>314.49000000000001</ele>
        <time>2026-07-10T13:54:38Z</time>
      </trkpt>
      <trkpt lat="53.143570041283965" lon="-3.741264995187521">
        <ele>314.49000000000001</ele>
        <time>2026-07-10T13:54:39Z</time>
      </trkpt>
      <trkpt lat="53.143445989117026" lon="-3.74124001711607">
        <ele>314.49000000000001</ele>
        <time>2026-07-10T13:54:40Z</time>
      </trkpt>
      <trkpt lat="53.143328977748752" lon="-3.741216966882348">
        <ele>314.97000000000003</ele>
        <time>2026-07-10T13:54:41Z</time>
      </trkpt>
      <trkpt lat="53.143186988309026" lon="-3.741187965497375">
        <ele>314.97000000000003</ele>
        <time>2026-07-10T13:54:42Z</time>
      </trkpt>
      <trkpt lat="53.143103001639247" lon="-3.741215961053968">
        <ele>315.44999999999999</ele>
        <time>2026-07-10T13:54:43Z</time>
      </trkpt>
      <trkpt lat="53.142972998321056" lon="-3.741259966045618">
        <ele>315.44999999999999</ele>
        <time>2026-07-10T13:54:44Z</time>
      </trkpt>
      <trkpt lat="53.142844000831246" lon="-3.741332972422242">
        <ele>315.44999999999999</ele>
        <time>2026-07-10T13:54:45Z</time>
      </trkpt>
      <trkpt lat="53.142722966149449" lon="-3.741416037082672">
        <ele>315.44999999999999</ele>
        <time>2026-07-10T13:54:46Z</time>
      </trkpt>
      <trkpt lat="53.142611989751458" lon="-3.741492982953787">
        <ele>315.93000000000001</ele>
        <time>2026-07-10T13:54:47Z</time>
      </trkpt>
      <trkpt lat="53.142535965889692" lon="-3.741601025685668">
        <ele>316.41000000000003</ele>
        <time>2026-07-10T13:54:48Z</time>
      </trkpt>
      <trkpt lat="53.142466982826591" lon="-3.741727005690336">
        <ele>317.37</ele>
        <time>2026-07-10T13:54:49Z</time>
      </trkpt>
      <trkpt lat="53.142393976449966" lon="-3.741858014836907">
        <ele>317.85000000000002</ele>
        <time>2026-07-10T13:54:50Z</time>
      </trkpt>
      <trkpt lat="53.142084013670683" lon="-3.742506019771099">
        <ele>318.32999999999998</ele>
        <time>2026-07-10T13:54:54Z</time>
      </trkpt>
      <trkpt lat="53.142046965658665" lon="-3.742671981453896">
        <ele>317.85000000000002</ele>
        <time>2026-07-10T13:54:55Z</time>
      </trkpt>
      <trkpt lat="53.14203598536551" lon="-3.742826962843537">
        <ele>317.85000000000002</ele>
        <time>2026-07-10T13:54:56Z</time>
      </trkpt>
      <trkpt lat="53.142010001465678" lon="-3.743210015818477">
        <ele>318.81</ele>
        <time>2026-07-10T13:54:59Z</time>
      </trkpt>
      <trkpt lat="53.141967002302408" lon="-3.743276987224817">
        <ele>318.81</ele>
        <time>2026-07-10T13:55:00Z</time>
      </trkpt>
      <trkpt lat="53.141908999532461" lon="-3.743317974731326">
        <ele>319.30000000000001</ele>
        <time>2026-07-10T13:55:01Z</time>
      </trkpt>
      <trkpt lat="53.141840016469359" lon="-3.743356028571725">
        <ele>319.77999999999997</ele>
        <time>2026-07-10T13:55:02Z</time>
      </trkpt>
      <trkpt lat="53.141743037849665" lon="-3.743358962237835">
        <ele>320.25999999999999</ele>
        <time>2026-07-10T13:55:03Z</time>
      </trkpt>
      <trkpt lat="53.141627032309771" lon="-3.743362985551357">
        <ele>320.74000000000001</ele>
        <time>2026-07-10T13:55:04Z</time>
      </trkpt>
      <trkpt lat="53.140535037964582" lon="-3.743402967229486">
        <ele>327.94999999999999</ele>
        <time>2026-07-10T13:55:11Z</time>
      </trkpt>
      <trkpt lat="53.138707028701901" lon="-3.743471028283238">
        <ele>342.37</ele>
        <time>2026-07-10T13:55:22Z</time>
      </trkpt>
      <trkpt lat="53.13758703880012" lon="-3.743406990543008">
        <ele>349.10000000000002</ele>
        <time>2026-07-10T13:55:29Z</time>
      </trkpt>
      <trkpt lat="53.137421999126673" lon="-3.743415037170053">
        <ele>350.06</ele>
        <time>2026-07-10T13:55:30Z</time>
      </trkpt>
      <trkpt lat="53.136781034991145" lon="-3.743484020233154">
        <ele>355.82999999999998</ele>
        <time>2026-07-10T13:55:34Z</time>
      </trkpt>
      <trkpt lat="53.136638961732388" lon="-3.743469016626477">
        <ele>356.79000000000002</ele>
        <time>2026-07-10T13:55:35Z</time>
      </trkpt>
      <trkpt lat="53.136483980342746" lon="-3.743409002199769">
        <ele>357.75</ele>
        <time>2026-07-10T13:55:36Z</time>
      </trkpt>
      <trkpt lat="53.135307999327779" lon="-3.742719003930688">
        <ele>362.06999999999999</ele>
        <time>2026-07-10T13:55:44Z</time>
      </trkpt>
      <trkpt lat="53.134561004117131" lon="-3.742067981511354">
        <ele>364.95999999999998</ele>
        <time>2026-07-10T13:55:50Z</time>
      </trkpt>
      <trkpt lat="53.134424965828657" lon="-3.742022970691323">
        <ele>365.44</ele>
        <time>2026-07-10T13:55:51Z</time>
      </trkpt>
      <trkpt lat="53.134271996095777" lon="-3.741973014548421">
        <ele>365.92000000000002</ele>
        <time>2026-07-10T13:55:52Z</time>
      </trkpt>
      <trkpt lat="53.133477978408337" lon="-3.74171300791204">
        <ele>367.83999999999997</ele>
        <time>2026-07-10T13:55:57Z</time>
      </trkpt>
      <trkpt lat="53.133338000625372" lon="-3.741646958515048">
        <ele>368.31999999999999</ele>
        <time>2026-07-10T13:55:58Z</time>
      </trkpt>
      <trkpt lat="53.133218977600336" lon="-3.741551991552115">
        <ele>368.31999999999999</ele>
        <time>2026-07-10T13:55:59Z</time>
      </trkpt>
      <trkpt lat="53.133103977888823" lon="-3.741443026810885">
        <ele>368.31999999999999</ele>
        <time>2026-07-10T13:56:00Z</time>
      </trkpt>
      <trkpt lat="53.132976992055774" lon="-3.74130698852241">
        <ele>368.80000000000001</ele>
        <time>2026-07-10T13:56:01Z</time>
      </trkpt>
      <trkpt lat="53.132319012656808" lon="-3.740601986646652">
        <ele>369.27999999999997</ele>
        <time>2026-07-10T13:56:06Z</time>
      </trkpt>
      <trkpt lat="53.132183980196714" lon="-3.740515988320112">
        <ele>369.27999999999997</ele>
        <time>2026-07-10T13:56:07Z</time>
      </trkpt>
      <trkpt lat="53.132046014070511" lon="-3.740467960014939">
        <ele>368.80000000000001</ele>
        <time>2026-07-10T13:56:08Z</time>
      </trkpt>
      <trkpt lat="53.131777038797736" lon="-3.740352038294077">
        <ele>367.83999999999997</ele>
        <time>2026-07-10T13:56:10Z</time>
      </trkpt>
      <trkpt lat="53.131642006337643" lon="-3.740254975855351">
        <ele>366.88</ele>
        <time>2026-07-10T13:56:11Z</time>
      </trkpt>
      <trkpt lat="53.131504962220788" lon="-3.740142993628979">
        <ele>365.92000000000002</ele>
        <time>2026-07-10T13:56:12Z</time>
      </trkpt>
      <trkpt lat="53.131373031064868" lon="-3.739984994754195">
        <ele>365.44</ele>
        <time>2026-07-10T13:56:13Z</time>
      </trkpt>
      <trkpt lat="53.131245961412787" lon="-3.739832025021315">
        <ele>364.48000000000002</ele>
        <time>2026-07-10T13:56:14Z</time>
      </trkpt>
      <trkpt lat="53.130742041394114" lon="-3.738977992907167">
        <ele>358.23000000000002</ele>
        <time>2026-07-10T13:56:19Z</time>
      </trkpt>
      <trkpt lat="53.130696024745703" lon="-3.738811025395989">
        <ele>356.79000000000002</ele>
        <time>2026-07-10T13:56:20Z</time>
      </trkpt>
      <trkpt lat="53.130674986168742" lon="-3.738667024299502">
        <ele>355.33999999999997</ele>
        <time>2026-07-10T13:56:21Z</time>
      </trkpt>
      <trkpt lat="53.13067096285522" lon="-3.738501984626055">
        <ele>354.38</ele>
        <time>2026-07-10T13:56:22Z</time>
      </trkpt>
      <trkpt lat="53.130665011703968" lon="-3.738322025164962">
        <ele>352.94</ele>
        <time>2026-07-10T13:56:23Z</time>
      </trkpt>
      <trkpt lat="53.130659982562065" lon="-3.738136030733585">
        <ele>352.45999999999998</ele>
        <time>2026-07-10T13:56:24Z</time>
      </trkpt>
      <trkpt lat="53.130640033632517" lon="-3.7379539757967">
        <ele>351.5</ele>
        <time>2026-07-10T13:56:25Z</time>
      </trkpt>
      <trkpt lat="53.130571972578764" lon="-3.737794971093535">
        <ele>350.54000000000002</ele>
        <time>2026-07-10T13:56:26Z</time>
      </trkpt>
      <trkpt lat="53.130489997565746" lon="-3.737659016624093">
        <ele>349.57999999999998</ele>
        <time>2026-07-10T13:56:27Z</time>
      </trkpt>
      <trkpt lat="53.130397964268923" lon="-3.737582992762327">
        <ele>349.10000000000002</ele>
        <time>2026-07-10T13:56:28Z</time>
      </trkpt>
      <trkpt lat="53.130263015627861" lon="-3.737599002197385">
        <ele>349.10000000000002</ele>
        <time>2026-07-10T13:56:29Z</time>
      </trkpt>
      <trkpt lat="53.130127983167768" lon="-3.737615011632443">
        <ele>348.62</ele>
        <time>2026-07-10T13:56:30Z</time>
      </trkpt>
      <trkpt lat="53.129988005384803" lon="-3.737655999138951">
        <ele>349.10000000000002</ele>
        <time>2026-07-10T13:56:31Z</time>
      </trkpt>
      <trkpt lat="53.129840986803174" lon="-3.737752977758646">
        <ele>349.57999999999998</ele>
        <time>2026-07-10T13:56:32Z</time>
      </trkpt>
      <trkpt lat="53.128461996093392" lon="-3.738480024039745">
        <ele>360.14999999999998</ele>
        <time>2026-07-10T13:56:41Z</time>
      </trkpt>
      <trkpt lat="53.128326963633299" lon="-3.738586977124214">
        <ele>360.63</ele>
        <time>2026-07-10T13:56:42Z</time>
      </trkpt>
      <trkpt lat="53.128213975578547" lon="-3.738718992099166">
        <ele>361.11000000000001</ele>
        <time>2026-07-10T13:56:43Z</time>
      </trkpt>
      <trkpt lat="53.128114985302091" lon="-3.73883499763906">
        <ele>361.58999999999997</ele>
        <time>2026-07-10T13:56:44Z</time>
      </trkpt>
      <trkpt lat="53.128030998632312" lon="-3.738932982087135">
        <ele>362.06999999999999</ele>
        <time>2026-07-10T13:56:45Z</time>
      </trkpt>
      <trkpt lat="53.127754982560873" lon="-3.739205980673432">
        <ele>364.48000000000002</ele>
        <time>2026-07-10T13:56:51Z</time>
      </trkpt>
      <trkpt lat="53.127716006711125" lon="-3.739230036735535">
        <ele>364.48000000000002</ele>
        <time>2026-07-10T13:56:52Z</time>
      </trkpt>
      <trkpt lat="53.127673007547855" lon="-3.739257026463747">
        <ele>364.95999999999998</ele>
        <time>2026-07-10T13:56:53Z</time>
      </trkpt>
      <trkpt lat="53.127673007547855" lon="-3.739257026463747">
        <ele>365.44</ele>
        <time>2026-07-10T13:57:02Z</time>
      </trkpt>
      <trkpt lat="53.127673007547855" lon="-3.739257026463747">
        <ele>365.92000000000002</ele>
        <time>2026-07-10T13:57:52Z</time>
      </trkpt>
      <trkpt lat="53.127673007547855" lon="-3.739257026463747">
        <ele>365.44</ele>
        <time>2026-07-10T13:58:46Z</time>
      </trkpt>
      <trkpt lat="53.127558007836342" lon="-3.739257026463747">
        <ele>364.95999999999998</ele>
        <time>2026-07-10T13:59:01Z</time>
      </trkpt>
      <trkpt lat="53.127482989802957" lon="-3.739249985665083">
        <ele>364.95999999999998</ele>
        <time>2026-07-10T13:59:02Z</time>
      </trkpt>
      <trkpt lat="53.126647984609008" lon="-3.738957960158587">
        <ele>369.75999999999999</ele>
        <time>2026-07-10T13:59:10Z</time>
      </trkpt>
      <trkpt lat="53.125449037179351" lon="-3.738539032638073">
        <ele>376.00999999999999</ele>
        <time>2026-07-10T13:59:18Z</time>
      </trkpt>
      <trkpt lat="53.125156005844474" lon="-3.738515982404351">
        <ele>376.97000000000003</ele>
        <time>2026-07-10T13:59:20Z</time>
      </trkpt>
      <trkpt lat="53.123455988243222" lon="-3.73859996907413">
        <ele>389.94999999999999</ele>
        <time>2026-07-10T13:59:30Z</time>
      </trkpt>
      <trkpt lat="53.121912963688374" lon="-3.738675992935896">
        <ele>393.80000000000001</ele>
        <time>2026-07-10T13:59:39Z</time>
      </trkpt>
      <trkpt lat="53.121762005612254" lon="-3.738736007362604">
        <ele>393.31999999999999</ele>
        <time>2026-07-10T13:59:40Z</time>
      </trkpt>
      <trkpt lat="53.12162596732378" lon="-3.738803984597325">
        <ele>392.83999999999997</ele>
        <time>2026-07-10T13:59:41Z</time>
      </trkpt>
      <trkpt lat="53.121511973440647" lon="-3.738904986530542">
        <ele>392.36000000000001</ele>
        <time>2026-07-10T13:59:42Z</time>
      </trkpt>
      <trkpt lat="53.121405020356178" lon="-3.739004982635379">
        <ele>392.36000000000001</ele>
        <time>2026-07-10T13:59:43Z</time>
      </trkpt>
      <trkpt lat="53.121334025636315" lon="-3.739159964025021">
        <ele>391.87</ele>
        <time>2026-07-10T13:59:44Z</time>
      </trkpt>
      <trkpt lat="53.121260013431311" lon="-3.739321986213327">
        <ele>392.36000000000001</ele>
        <time>2026-07-10T13:59:45Z</time>
      </trkpt>
      <trkpt lat="53.121188012883067" lon="-3.73947998508811">
        <ele>392.36000000000001</ele>
        <time>2026-07-10T13:59:46Z</time>
      </trkpt>
      <trkpt lat="53.121119029819965" lon="-3.739632032811642">
        <ele>392.36000000000001</ele>
        <time>2026-07-10T13:59:47Z</time>
      </trkpt>
      <trkpt lat="53.121039988473058" lon="-3.739765975624323">
        <ele>391.87</ele>
        <time>2026-07-10T13:59:48Z</time>
      </trkpt>
      <trkpt lat="53.120919037610292" lon="-3.739843005314469">
        <ele>391.87</ele>
        <time>2026-07-10T13:59:49Z</time>
      </trkpt>
      <trkpt lat="53.12078501097858" lon="-3.73990997672081">
        <ele>391.87</ele>
        <time>2026-07-10T13:59:50Z</time>
      </trkpt>
      <trkpt lat="53.12063698656857" lon="-3.739941995590925">
        <ele>391.38999999999999</ele>
        <time>2026-07-10T13:59:51Z</time>
      </trkpt>
      <trkpt lat="53.120480999350548" lon="-3.739966973662376">
        <ele>390.91000000000003</ele>
        <time>2026-07-10T13:59:52Z</time>
      </trkpt>
      <trkpt lat="53.119822014123201" lon="-3.739934032782912">
        <ele>390.43000000000001</ele>
        <time>2026-07-10T13:59:56Z</time>
      </trkpt>
      <trkpt lat="53.119681030511856" lon="-3.739863038063049">
        <ele>389.94999999999999</ele>
        <time>2026-07-10T13:59:57Z</time>
      </trkpt>
      <trkpt lat="53.119550021365285" lon="-3.739797994494438">
        <ele>389.47000000000003</ele>
        <time>2026-07-10T13:59:58Z</time>
      </trkpt>
      <trkpt lat="53.119424963369966" lon="-3.739734962582588">
        <ele>388.99000000000001</ele>
        <time>2026-07-10T13:59:59Z</time>
      </trkpt>
      <trkpt lat="53.119296971708536" lon="-3.739681988954544">
        <ele>388.50999999999999</ele>
        <time>2026-07-10T14:00:00Z</time>
      </trkpt>
      <trkpt lat="53.119162023067474" lon="-3.739662962034345">
        <ele>388.50999999999999</ele>
        <time>2026-07-10T14:00:01Z</time>
      </trkpt>
      <trkpt lat="53.119025984779" lon="-3.739643013104796">
        <ele>388.50999999999999</ele>
        <time>2026-07-10T14:00:02Z</time>
      </trkpt>
      <trkpt lat="53.118869997560978" lon="-3.739686012268066">
        <ele>388.02999999999997</ele>
        <time>2026-07-10T14:00:03Z</time>
      </trkpt>
      <trkpt lat="53.118710992857814" lon="-3.739731023088098">
        <ele>387.55000000000001</ele>
        <time>2026-07-10T14:00:04Z</time>
      </trkpt>
      <trkpt lat="53.118545031175017" lon="-3.739800006151199">
        <ele>387.06999999999999</ele>
        <time>2026-07-10T14:00:05Z</time>
      </trkpt>
      <trkpt lat="53.11838099732995" lon="-3.73988701030612">
        <ele>386.58999999999997</ele>
        <time>2026-07-10T14:00:06Z</time>
      </trkpt>
      <trkpt lat="53.117424035444856" lon="-3.740334017202258">
        <ele>382.25999999999999</ele>
        <time>2026-07-10T14:00:12Z</time>
      </trkpt>
      <trkpt lat="53.117424035444856" lon="-3.740334017202258">
        <ele>381.77999999999997</ele>
        <time>2026-07-10T14:00:13Z</time>
      </trkpt>
      <trkpt lat="53.115567024797201" lon="-3.740073004737496">
        <ele>376.49000000000001</ele>
        <time>2026-07-10T14:00:23Z</time>
      </trkpt>
      <trkpt lat="53.114194991067052" lon="-3.739619962871075">
        <ele>369.27999999999997</ele>
        <time>2026-07-10T14:00:33Z</time>
      </trkpt>
      <trkpt lat="53.114047972485423" lon="-3.739572018384934">
        <ele>367.83999999999997</ele>
        <time>2026-07-10T14:00:35Z</time>
      </trkpt>
      <trkpt lat="53.113999022170901" lon="-3.739572018384934">
        <ele>367.83999999999997</ele>
        <time>2026-07-10T14:00:36Z</time>
      </trkpt>
      <trkpt lat="53.113970020785928" lon="-3.739645024761558">
        <ele>367.36000000000001</ele>
        <time>2026-07-10T14:00:37Z</time>
      </trkpt>
      <trkpt lat="53.113948982208967" lon="-3.739753989502788">
        <ele>366.88</ele>
        <time>2026-07-10T14:00:38Z</time>
      </trkpt>
      <trkpt lat="53.113926015794277" lon="-3.739907965064049">
        <ele>366.39999999999998</ele>
        <time>2026-07-10T14:00:39Z</time>
      </trkpt>
      <trkpt lat="53.113899026066065" lon="-3.740087002515793">
        <ele>365.92000000000002</ele>
        <time>2026-07-10T14:00:40Z</time>
      </trkpt>
      <trkpt lat="53.113801963627338" lon="-3.740744981914759">
        <ele>364.48000000000002</ele>
        <time>2026-07-10T14:00:43Z</time>
      </trkpt>
      <trkpt lat="53.113763993605971" lon="-3.74098596163094">
        <ele>364</ele>
        <time>2026-07-10T14:00:44Z</time>
      </trkpt>
      <trkpt lat="53.113694004714489" lon="-3.741186959668994">
        <ele>363.51999999999998</ele>
        <time>2026-07-10T14:00:45Z</time>
      </trkpt>
      <trkpt lat="53.113622004166245" lon="-3.741394998505712">
        <ele>363.04000000000002</ele>
        <time>2026-07-10T14:00:46Z</time>
      </trkpt>
      <trkpt lat="53.113533994182944" lon="-3.741598008200526">
        <ele>362.55000000000001</ele>
        <time>2026-07-10T14:00:47Z</time>
      </trkpt>
      <trkpt lat="53.11343701556325" lon="-3.74180001206696">
        <ele>361.58999999999997</ele>
        <time>2026-07-10T14:00:48Z</time>
      </trkpt>
      <trkpt lat="53.113081958144903" lon="-3.742539966478944">
        <ele>357.75</ele>
        <time>2026-07-10T14:00:52Z</time>
      </trkpt>
      <trkpt lat="53.113057985901833" lon="-3.742802990600467">
        <ele>356.79000000000002</ele>
        <time>2026-07-10T14:00:53Z</time>
      </trkpt>
      <trkpt lat="53.113039964810014" lon="-3.742994014173746">
        <ele>356.31</ele>
        <time>2026-07-10T14:00:54Z</time>
      </trkpt>
      <trkpt lat="53.113006018102169" lon="-3.743358962237835">
        <ele>355.33999999999997</ele>
        <time>2026-07-10T14:00:56Z</time>
      </trkpt>
      <trkpt lat="53.11296796426177" lon="-3.74353900551796">
        <ele>354.86000000000001</ele>
        <time>2026-07-10T14:00:57Z</time>
      </trkpt>
      <trkpt lat="53.112909039482474" lon="-3.743699016049504">
        <ele>353.89999999999998</ele>
        <time>2026-07-10T14:00:58Z</time>
      </trkpt>
      <trkpt lat="53.112851958721876" lon="-3.743852991610766">
        <ele>353.42000000000002</ele>
        <time>2026-07-10T14:00:59Z</time>
      </trkpt>
      <trkpt lat="53.112762020900846" lon="-3.743932032957673">
        <ele>352.94</ele>
        <time>2026-07-10T14:01:00Z</time>
      </trkpt>
      <trkpt lat="53.112664958462119" lon="-3.744002021849155">
        <ele>352.94</ele>
        <time>2026-07-10T14:01:01Z</time>
      </trkpt>
      <trkpt lat="53.112555993720889" lon="-3.74403303489089">
        <ele>352.45999999999998</ele>
        <time>2026-07-10T14:01:02Z</time>
      </trkpt>
      <trkpt lat="53.11244803480804" lon="-3.744015013799071">
        <ele>351.98000000000002</ele>
        <time>2026-07-10T14:01:03Z</time>
      </trkpt>
      <trkpt lat="53.112347032874823" lon="-3.74399296939373">
        <ele>351.01999999999998</ele>
        <time>2026-07-10T14:01:04Z</time>
      </trkpt>
      <trkpt lat="53.112260028719902" lon="-3.743892973288894">
        <ele>350.54000000000002</ele>
        <time>2026-07-10T14:01:05Z</time>
      </trkpt>
      <trkpt lat="53.112163972109556" lon="-3.743783002719283">
        <ele>349.57999999999998</ele>
        <time>2026-07-10T14:01:06Z</time>
      </trkpt>
      <trkpt lat="53.112059030681849" lon="-3.743663979694247">
        <ele>348.13</ele>
        <time>2026-07-10T14:01:07Z</time>
      </trkpt>
      <trkpt lat="53.111165016889572" lon="-3.742716992273927">
        <ele>339.95999999999998</ele>
        <time>2026-07-10T14:01:14Z</time>
      </trkpt>
      <trkpt lat="53.111027972772717" lon="-3.742640968412161">
        <ele>339.48000000000002</ele>
        <time>2026-07-10T14:01:15Z</time>
      </trkpt>
      <trkpt lat="53.110440988093615" lon="-3.742317007854581">
        <ele>337.56</ele>
        <time>2026-07-10T14:01:20Z</time>
      </trkpt>
      <trkpt lat="53.110351972281933" lon="-3.742294041439891">
        <ele>336.60000000000002</ele>
        <time>2026-07-10T14:01:21Z</time>
      </trkpt>
      <trkpt lat="53.110263040289283" lon="-3.742332011461258">
        <ele>335.63999999999999</ele>
        <time>2026-07-10T14:01:22Z</time>
      </trkpt>
      <trkpt lat="53.110176958143711" lon="-3.742368975654244">
        <ele>335.16000000000003</ele>
        <time>2026-07-10T14:01:23Z</time>
      </trkpt>
      <trkpt lat="53.1100860144943" lon="-3.742408035323024">
        <ele>334.68000000000001</ele>
        <time>2026-07-10T14:01:24Z</time>
      </trkpt>
      <trkpt lat="53.110020970925689" lon="-3.742542983964086">
        <ele>334.68000000000001</ele>
        <time>2026-07-10T14:01:25Z</time>
      </trkpt>
      <trkpt lat="53.10995802283287" lon="-3.742690002545714">
        <ele>335.16000000000003</ele>
        <time>2026-07-10T14:01:26Z</time>
      </trkpt>
      <trkpt lat="53.109889039769769" lon="-3.742849007248879">
        <ele>336.12</ele>
        <time>2026-07-10T14:01:27Z</time>
      </trkpt>
      <trkpt lat="53.109754007309675" lon="-3.743159975856543">
        <ele>338.04000000000002</ele>
        <time>2026-07-10T14:01:29Z</time>
      </trkpt>
      <trkpt lat="53.109677983447909" lon="-3.743305988609791">
        <ele>339</ele>
        <time>2026-07-10T14:01:30Z</time>
      </trkpt>
      <trkpt lat="53.108878014609218" lon="-3.744734013453126">
        <ele>343.32999999999998</ele>
        <time>2026-07-10T14:01:38Z</time>
      </trkpt>
      <trkpt lat="53.108505019918084" lon="-3.745400039479137">
        <ele>342.85000000000002</ele>
        <time>2026-07-10T14:01:42Z</time>
      </trkpt>
      <trkpt lat="53.108414998278022" lon="-3.74556097202003">
        <ele>343.32999999999998</ele>
        <time>2026-07-10T14:01:43Z</time>
      </trkpt>
      <trkpt lat="53.108312990516424" lon="-3.745712013915181">
        <ele>343.32999999999998</ele>
        <time>2026-07-10T14:01:44Z</time>
      </trkpt>
      <trkpt lat="53.108183993026614" lon="-3.745800023898482">
        <ele>343.81</ele>
        <time>2026-07-10T14:01:45Z</time>
      </trkpt>
      <trkpt lat="53.108050972223282" lon="-3.745890967547894">
        <ele>344.29000000000002</ele>
        <time>2026-07-10T14:01:46Z</time>
      </trkpt>
      <trkpt lat="53.107917029410601" lon="-3.745981995016336">
        <ele>344.76999999999998</ele>
        <time>2026-07-10T14:01:47Z</time>
      </trkpt>
      <trkpt lat="53.106749011203647" lon="-3.746842984110117">
        <ele>341.41000000000003</ele>
        <time>2026-07-10T14:01:56Z</time>
      </trkpt>
      <trkpt lat="53.106394959613681" lon="-3.747080024331808">
        <ele>340.44</ele>
        <time>2026-07-10T14:01:59Z</time>
      </trkpt>
      <trkpt lat="53.106296975165606" lon="-3.747211033478379">
        <ele>339.48000000000002</ele>
        <time>2026-07-10T14:02:00Z</time>
      </trkpt>
      <trkpt lat="53.106201002374291" lon="-3.747340030968189">
        <ele>338.51999999999998</ele>
        <time>2026-07-10T14:02:01Z</time>
      </trkpt>
      <trkpt lat="53.106104023754597" lon="-3.747471962124109">
        <ele>337.07999999999998</ele>
        <time>2026-07-10T14:02:02Z</time>
      </trkpt>
      <trkpt lat="53.105998998507857" lon="-3.747612023726106">
        <ele>335.63999999999999</ele>
        <time>2026-07-10T14:02:03Z</time>
      </trkpt>
      <trkpt lat="53.10589699074626" lon="-3.747749989852309">
        <ele>333.70999999999998</ele>
        <time>2026-07-10T14:02:04Z</time>
      </trkpt>
      <trkpt lat="53.105786014348269" lon="-3.748071016743779">
        <ele>330.82999999999998</ele>
        <time>2026-07-10T14:02:06Z</time>
      </trkpt>
      <trkpt lat="53.105786014348269" lon="-3.748234966769815">
        <ele>329.87</ele>
        <time>2026-07-10T14:02:07Z</time>
      </trkpt>
      <trkpt lat="53.105786014348269" lon="-3.748947009444237">
        <ele>326.99000000000001</ele>
        <time>2026-07-10T14:02:11Z</time>
      </trkpt>
      <trkpt lat="53.105758018791676" lon="-3.749073995277286">
        <ele>326.5</ele>
        <time>2026-07-10T14:02:12Z</time>
      </trkpt>
      <trkpt lat="53.105721976608038" lon="-3.7491699680686">
        <ele>326.01999999999998</ele>
        <time>2026-07-10T14:02:13Z</time>
      </trkpt>
      <trkpt lat="53.105546962469816" lon="-3.749220008030534">
        <ele>325.54000000000002</ele>
        <time>2026-07-10T14:02:15Z</time>
      </trkpt>
      <trkpt lat="53.105440009385347" lon="-3.749251021072269">
        <ele>325.54000000000002</ele>
        <time>2026-07-10T14:02:16Z</time>
      </trkpt>
      <trkpt lat="53.105205986648798" lon="-3.749317992478609">
        <ele>325.06</ele>
        <time>2026-07-10T14:02:18Z</time>
      </trkpt>
      <trkpt lat="53.105079000815749" lon="-3.749364009127021">
        <ele>325.06</ele>
        <time>2026-07-10T14:02:19Z</time>
      </trkpt>
      <trkpt lat="53.103993963450193" lon="-3.749935990199447">
        <ele>323.62</ele>
        <time>2026-07-10T14:02:27Z</time>
      </trkpt>
      <trkpt lat="53.103903019800782" lon="-3.750005979090929">
        <ele>323.62</ele>
        <time>2026-07-10T14:02:28Z</time>
      </trkpt>
      <trkpt lat="53.103815009817481" lon="-3.750101029872894">
        <ele>323.13999999999999</ele>
        <time>2026-07-10T14:02:29Z</time>
      </trkpt>
      <trkpt lat="53.102984027937055" lon="-3.750923965126276">
        <ele>323.62</ele>
        <time>2026-07-10T14:02:36Z</time>
      </trkpt>
      <trkpt lat="53.102246001362801" lon="-3.751444984227419">
        <ele>319.77999999999997</ele>
        <time>2026-07-10T14:02:42Z</time>
      </trkpt>
      <trkpt lat="53.102195961400867" lon="-3.751570964232087">
        <ele>319.30000000000001</ele>
        <time>2026-07-10T14:02:43Z</time>
      </trkpt>
      <trkpt lat="53.102161008864641" lon="-3.751673977822065">
        <ele>318.81</ele>
        <time>2026-07-10T14:02:44Z</time>
      </trkpt>
      <trkpt lat="53.102168971672654" lon="-3.751810016110539">
        <ele>318.32999999999998</ele>
        <time>2026-07-10T14:02:45Z</time>
      </trkpt>
      <trkpt lat="53.102178024128079" lon="-3.751970026642084">
        <ele>317.85000000000002</ele>
        <time>2026-07-10T14:02:46Z</time>
      </trkpt>
      <trkpt lat="53.102187998592854" lon="-3.752142023295164">
        <ele>317.85000000000002</ele>
        <time>2026-07-10T14:02:47Z</time>
      </trkpt>
      <trkpt lat="53.102198978886008" lon="-3.752326006069779">
        <ele>317.37</ele>
        <time>2026-07-10T14:02:48Z</time>
      </trkpt>
      <trkpt lat="53.102209959179163" lon="-3.752517029643059">
        <ele>316.88999999999999</ele>
        <time>2026-07-10T14:02:49Z</time>
      </trkpt>
      <trkpt lat="53.102219011634588" lon="-3.753172997385263">
        <ele>315.44999999999999</ele>
        <time>2026-07-10T14:02:53Z</time>
      </trkpt>
      <trkpt lat="53.102203002199531" lon="-3.753204010426998">
        <ele>314.97000000000003</ele>
        <time>2026-07-10T14:02:54Z</time>
      </trkpt>
      <trkpt lat="53.1021389644593" lon="-3.753247009590268">
        <ele>314.49000000000001</ele>
        <time>2026-07-10T14:02:55Z</time>
      </trkpt>
      <trkpt lat="53.102089008316398" lon="-3.753228988498449">
        <ele>314.00999999999999</ele>
        <time>2026-07-10T14:02:56Z</time>
      </trkpt>
      <trkpt lat="53.102019019424915" lon="-3.753203004598618">
        <ele>313.52999999999997</ele>
        <time>2026-07-10T14:02:57Z</time>
      </trkpt>
      <trkpt lat="53.101935032755136" lon="-3.753171991556883">
        <ele>313.52999999999997</ele>
        <time>2026-07-10T14:02:58Z</time>
      </trkpt>
      <trkpt lat="53.10183797031641" lon="-3.753136033192277">
        <ele>314.00999999999999</ele>
        <time>2026-07-10T14:02:59Z</time>
      </trkpt>
      <trkpt lat="53.101726993918419" lon="-3.753096973523498">
        <ele>314.49000000000001</ele>
        <time>2026-07-10T14:03:00Z</time>
      </trkpt>
      <trkpt lat="53.100981004536152" lon="-3.753076018765569">
        <ele>314.00999999999999</ele>
        <time>2026-07-10T14:03:06Z</time>
      </trkpt>
      <trkpt lat="53.100885031744838" lon="-3.753024972975254">
        <ele>313.52999999999997</ele>
        <time>2026-07-10T14:03:07Z</time>
      </trkpt>
      <trkpt lat="53.100795010104775" lon="-3.752963030710816">
        <ele>312.56999999999999</ele>
        <time>2026-07-10T14:03:08Z</time>
      </trkpt>
      <trkpt lat="53.100709011778235" lon="-3.752904022112489">
        <ele>311.60000000000002</ele>
        <time>2026-07-10T14:03:09Z</time>
      </trkpt>
      <trkpt lat="53.100614966824651" lon="-3.752839984372258">
        <ele>310.16000000000003</ele>
        <time>2026-07-10T14:03:10Z</time>
      </trkpt>
      <trkpt lat="53.10052502900362" lon="-3.752765972167254">
        <ele>309.68000000000001</ele>
        <time>2026-07-10T14:03:11Z</time>
      </trkpt>
      <trkpt lat="53.100422015413642" lon="-3.752681985497475">
        <ele>309.19999999999999</ele>
        <time>2026-07-10T14:03:12Z</time>
      </trkpt>
      <trkpt lat="53.100299974903464" lon="-3.752644015476108">
        <ele>308.72000000000003</ele>
        <time>2026-07-10T14:03:13Z</time>
      </trkpt>
      <trkpt lat="53.100176006555557" lon="-3.752638986334205">
        <ele>308.24000000000001</ele>
        <time>2026-07-10T14:03:14Z</time>
      </trkpt>
      <trkpt lat="53.100057989358902" lon="-3.752634041011334">
        <ele>308.24000000000001</ele>
        <time>2026-07-10T14:03:15Z</time>
      </trkpt>
      <trkpt lat="53.099821032956243" lon="-3.752624988555908">
        <ele>308.24000000000001</ele>
        <time>2026-07-10T14:03:17Z</time>
      </trkpt>
      <trkpt lat="53.099721036851406" lon="-3.752541001886129">
        <ele>307.75999999999999</ele>
        <time>2026-07-10T14:03:18Z</time>
      </trkpt>
      <trkpt lat="53.099414007738233" lon="-3.752282001078129">
        <ele>305.83999999999997</ele>
        <time>2026-07-10T14:03:21Z</time>
      </trkpt>
      <trkpt lat="53.099330021068454" lon="-3.752073040232062">
        <ele>305.36000000000001</ele>
        <time>2026-07-10T14:03:22Z</time>
      </trkpt>
      <trkpt lat="53.099271012470126" lon="-3.751926021650434">
        <ele>304.38999999999999</ele>
        <time>2026-07-10T14:03:23Z</time>
      </trkpt>
      <trkpt lat="53.099210998043418" lon="-3.751774979755282">
        <ele>303.43000000000001</ele>
        <time>2026-07-10T14:03:24Z</time>
      </trkpt>
      <trkpt lat="53.099149977788329" lon="-3.751624021679163">
        <ele>302.94999999999999</ele>
        <time>2026-07-10T14:03:25Z</time>
      </trkpt>
      <trkpt lat="53.099082000553608" lon="-3.751496030017734">
        <ele>302.47000000000003</ele>
        <time>2026-07-10T14:03:26Z</time>
      </trkpt>
      <trkpt lat="53.098990973085165" lon="-3.751396033912897">
        <ele>302.47000000000003</ele>
        <time>2026-07-10T14:03:27Z</time>
      </trkpt>
      <trkpt lat="53.098891982808709" lon="-3.751287991181016">
        <ele>302.47000000000003</ele>
        <time>2026-07-10T14:03:28Z</time>
      </trkpt>
      <trkpt lat="53.098787041381001" lon="-3.751171985641122">
        <ele>302.94999999999999</ele>
        <time>2026-07-10T14:03:29Z</time>
      </trkpt>
      <trkpt lat="53.09799000620842" lon="-3.750011008232832">
        <ele>304.38999999999999</ele>
        <time>2026-07-10T14:03:37Z</time>
      </trkpt>
      <trkpt lat="53.097752965986729" lon="-3.749610017985106">
        <ele>302.94999999999999</ele>
        <time>2026-07-10T14:03:42Z</time>
      </trkpt>
      <trkpt lat="53.097507040947676" lon="-3.749249009415507">
        <ele>300.55000000000001</ele>
        <time>2026-07-10T14:03:54Z</time>
      </trkpt>
      <trkpt lat="53.096844032406807" lon="-3.748421967029572">
        <ele>295.25999999999999</ele>
        <time>2026-07-10T14:04:01Z</time>
      </trkpt>
      <trkpt lat="53.096031993627548" lon="-3.747328966856003">
        <ele>291.89999999999998</ele>
        <time>2026-07-10T14:04:09Z</time>
      </trkpt>
      <trkpt lat="53.0950259976089" lon="-3.745940001681447">
        <ele>285.17000000000002</ele>
        <time>2026-07-10T14:04:18Z</time>
      </trkpt>
      <trkpt lat="53.094933964312077" lon="-3.745834976434708">
        <ele>284.69</ele>
        <time>2026-07-10T14:04:19Z</time>
      </trkpt>
      <trkpt lat="53.09483103454113" lon="-3.745749983936548">
        <ele>284.20999999999998</ele>
        <time>2026-07-10T14:04:20Z</time>
      </trkpt>
      <trkpt lat="53.094719974324107" lon="-3.745659040287137">
        <ele>283.73000000000002</ele>
        <time>2026-07-10T14:04:21Z</time>
      </trkpt>
      <trkpt lat="53.093601996079087" lon="-3.744691014289856">
        <ele>277.95999999999998</ele>
        <time>2026-07-10T14:04:30Z</time>
      </trkpt>
      <trkpt lat="53.093531001359224" lon="-3.744541984051466">
        <ele>277.95999999999998</ele>
        <time>2026-07-10T14:04:31Z</time>
      </trkpt>
      <trkpt lat="53.093466041609645" lon="-3.744403012096882">
        <ele>278.44</ele>
        <time>2026-07-10T14:04:32Z</time>
      </trkpt>
      <trkpt lat="53.093448020517826" lon="-3.744243001565337">
        <ele>278.92000000000002</ele>
        <time>2026-07-10T14:04:33Z</time>
      </trkpt>
      <trkpt lat="53.093448020517826" lon="-3.744079973548651">
        <ele>279.88</ele>
        <time>2026-07-10T14:04:34Z</time>
      </trkpt>
      <trkpt lat="53.093448020517826" lon="-3.743913006037474">
        <ele>280.83999999999997</ele>
        <time>2026-07-10T14:04:35Z</time>
      </trkpt>
      <trkpt lat="53.093433016911149" lon="-3.743743021041155">
        <ele>281.80000000000001</ele>
        <time>2026-07-10T14:04:36Z</time>
      </trkpt>
      <trkpt lat="53.093394041061401" lon="-3.743589967489243">
        <ele>282.76999999999998</ele>
        <time>2026-07-10T14:04:37Z</time>
      </trkpt>
      <trkpt lat="53.09334802441299" lon="-3.743436997756362">
        <ele>283.73000000000002</ele>
        <time>2026-07-10T14:04:38Z</time>
      </trkpt>
      <trkpt lat="53.093275018036366" lon="-3.743311017751694">
        <ele>284.20999999999998</ele>
        <time>2026-07-10T14:04:39Z</time>
      </trkpt>
      <trkpt lat="53.093195976689458" lon="-3.74317497946322">
        <ele>285.17000000000002</ele>
        <time>2026-07-10T14:04:40Z</time>
      </trkpt>
      <trkpt lat="53.092449987307191" lon="-3.741848962381482">
        <ele>295.74000000000001</ele>
        <time>2026-07-10T14:04:48Z</time>
      </trkpt>
      <trkpt lat="53.091849004849792" lon="-3.740884959697723">
        <ele>301.99000000000001</ele>
        <time>2026-07-10T14:04:55Z</time>
      </trkpt>
      <trkpt lat="53.091213991865516" lon="-3.740186998620629">
        <ele>304.88</ele>
        <time>2026-07-10T14:05:03Z</time>
      </trkpt>
      <trkpt lat="53.090095007792115" lon="-3.739486020058394">
        <ele>307.75999999999999</ele>
        <time>2026-07-10T14:05:15Z</time>
      </trkpt>
      <trkpt lat="53.089611958712339" lon="-3.739202963188291">
        <ele>310.63999999999999</ele>
        <time>2026-07-10T14:05:21Z</time>
      </trkpt>
      <trkpt lat="53.089442979544401" lon="-3.739165998995304">
        <ele>312.56999999999999</ele>
        <time>2026-07-10T14:05:25Z</time>
      </trkpt>
      <trkpt lat="53.089224966242909" lon="-3.739400021731854">
        <ele>314.00999999999999</ele>
        <time>2026-07-10T14:05:29Z</time>
      </trkpt>
      <trkpt lat="53.089178027585149" lon="-3.739449977874756">
        <ele>314.00999999999999</ele>
        <time>2026-07-10T14:05:30Z</time>
      </trkpt>
      <trkpt lat="53.089136034250259" lon="-3.739557014778256">
        <ele>314.00999999999999</ele>
        <time>2026-07-10T14:05:31Z</time>
      </trkpt>
      <trkpt lat="53.089098986238241" lon="-3.739650975912809">
        <ele>314.00999999999999</ele>
        <time>2026-07-10T14:05:32Z</time>
      </trkpt>
      <trkpt lat="53.089057998731732" lon="-3.739752983674407">
        <ele>314.00999999999999</ele>
        <time>2026-07-10T14:05:33Z</time>
      </trkpt>
      <trkpt lat="53.088962025940418" lon="-3.739996980875731">
        <ele>313.52999999999997</ele>
        <time>2026-07-10T14:05:35Z</time>
      </trkpt>
      <trkpt lat="53.088807966560125" lon="-3.740347009152174">
        <ele>312.08999999999997</ele>
        <time>2026-07-10T14:05:38Z</time>
      </trkpt>
      <trkpt lat="53.088747030124068" lon="-3.740452034398913">
        <ele>310.63999999999999</ele>
        <time>2026-07-10T14:05:39Z</time>
      </trkpt>
      <trkpt lat="53.088680980727077" lon="-3.740564016625285">
        <ele>309.68000000000001</ele>
        <time>2026-07-10T14:05:40Z</time>
      </trkpt>
      <trkpt lat="53.088618032634258" lon="-3.740693014115095">
        <ele>308.72000000000003</ele>
        <time>2026-07-10T14:05:41Z</time>
      </trkpt>
      <trkpt lat="53.088562963530421" lon="-3.740836009383202">
        <ele>307.75999999999999</ele>
        <time>2026-07-10T14:05:42Z</time>
      </trkpt>
      <trkpt lat="53.088190974667668" lon="-3.741809986531735">
        <ele>298.63</ele>
        <time>2026-07-10T14:05:49Z</time>
      </trkpt>
      <trkpt lat="53.088187035173178" lon="-3.741915011778474">
        <ele>297.18000000000001</ele>
        <time>2026-07-10T14:05:50Z</time>
      </trkpt>
      <trkpt lat="53.088164990767837" lon="-3.742411974817514">
        <ele>292.38</ele>
        <time>2026-07-10T14:05:53Z</time>
      </trkpt>
      <trkpt lat="53.088157027959824" lon="-3.742581959813833">
        <ele>290.45999999999998</ele>
        <time>2026-07-10T14:05:54Z</time>
      </trkpt>
      <trkpt lat="53.08814998716116" lon="-3.742728978395462">
        <ele>288.52999999999997</ele>
        <time>2026-07-10T14:05:55Z</time>
      </trkpt>
      <trkpt lat="53.088169014081359" lon="-3.742879014462233">
        <ele>287.08999999999997</ele>
        <time>2026-07-10T14:05:56Z</time>
      </trkpt>
      <trkpt lat="53.088197009637952" lon="-3.743017986416817">
        <ele>285.64999999999998</ele>
        <time>2026-07-10T14:05:57Z</time>
      </trkpt>
      <trkpt lat="53.088223999366164" lon="-3.743155030533671">
        <ele>283.73000000000002</ele>
        <time>2026-07-10T14:05:58Z</time>
      </trkpt>
      <trkpt lat="53.088251994922757" lon="-3.743296014145017">
        <ele>281.80000000000001</ele>
        <time>2026-07-10T14:05:59Z</time>
      </trkpt>
      <trkpt lat="53.088282002136111" lon="-3.743443032726646">
        <ele>279.88</ele>
        <time>2026-07-10T14:06:00Z</time>
      </trkpt>
      <trkpt lat="53.088301029056311" lon="-3.743594996631146">
        <ele>277.95999999999998</ele>
        <time>2026-07-10T14:06:01Z</time>
      </trkpt>
      <trkpt lat="53.088305974379182" lon="-3.743760958313942">
        <ele>276.51999999999998</ele>
        <time>2026-07-10T14:06:02Z</time>
      </trkpt>
      <trkpt lat="53.088311003521085" lon="-3.74392700381577">
        <ele>275.06999999999999</ele>
        <time>2026-07-10T14:06:03Z</time>
      </trkpt>
      <trkpt lat="53.088316032662988" lon="-3.744086008518934">
        <ele>273.63</ele>
        <time>2026-07-10T14:06:04Z</time>
      </trkpt>
      <trkpt lat="53.088320977985859" lon="-3.744249036535621">
        <ele>272.19</ele>
        <time>2026-07-10T14:06:05Z</time>
      </trkpt>
      <trkpt lat="53.088336987420917" lon="-3.744739964604378">
        <ele>268.35000000000002</ele>
        <time>2026-07-10T14:06:08Z</time>
      </trkpt>
      <trkpt lat="53.088341010734439" lon="-3.744879020377994">
        <ele>266.89999999999998</ele>
        <time>2026-07-10T14:06:09Z</time>
      </trkpt>
      <trkpt lat="53.088375041261315" lon="-3.745008017867804">
        <ele>265.45999999999998</ele>
        <time>2026-07-10T14:06:10Z</time>
      </trkpt>
      <trkpt lat="53.088406976312399" lon="-3.745135003700852">
        <ele>264.01999999999998</ele>
        <time>2026-07-10T14:06:11Z</time>
      </trkpt>
      <trkpt lat="53.088440001010895" lon="-3.745261989533901">
        <ele>262.57999999999998</ele>
        <time>2026-07-10T14:06:12Z</time>
      </trkpt>
      <trkpt lat="53.088473025709391" lon="-3.745390987023711">
        <ele>261.13999999999999</ele>
        <time>2026-07-10T14:06:13Z</time>
      </trkpt>
      <trkpt lat="53.088506972417235" lon="-3.745521996170282">
        <ele>259.69</ele>
        <time>2026-07-10T14:06:14Z</time>
      </trkpt>
      <trkpt lat="53.088505966588855" lon="-3.745661973953247">
        <ele>258.73000000000002</ele>
        <time>2026-07-10T14:06:15Z</time>
      </trkpt>
      <trkpt lat="53.088498003780842" lon="-3.745791977271438">
        <ele>258.25</ele>
        <time>2026-07-10T14:06:16Z</time>
      </trkpt>
      <trkpt lat="53.088481994345784" lon="-3.745923992246389">
        <ele>258.25</ele>
        <time>2026-07-10T14:06:17Z</time>
      </trkpt>
      <trkpt lat="53.088446035981178" lon="-3.746057013049722">
        <ele>258.25</ele>
        <time>2026-07-10T14:06:18Z</time>
      </trkpt>
      <trkpt lat="53.088179994374514" lon="-3.746957983821631">
        <ele>260.17000000000002</ele>
        <time>2026-07-10T14:06:24Z</time>
      </trkpt>
      <trkpt lat="53.088116040453315" lon="-3.747081030160189">
        <ele>261.13999999999999</ele>
        <time>2026-07-10T14:06:25Z</time>
      </trkpt>
      <trkpt lat="53.087985031306744" lon="-3.747330978512764">
        <ele>263.06</ele>
        <time>2026-07-10T14:06:27Z</time>
      </trkpt>
      <trkpt lat="53.087947983294725" lon="-3.747458970174193">
        <ele>264.01999999999998</ele>
        <time>2026-07-10T14:06:28Z</time>
      </trkpt>
      <trkpt lat="53.087933985516429" lon="-3.747597020119429">
        <ele>264.98000000000002</ele>
        <time>2026-07-10T14:06:29Z</time>
      </trkpt>
      <trkpt lat="53.087918981909752" lon="-3.747744960710406">
        <ele>265.45999999999998</ele>
        <time>2026-07-10T14:06:30Z</time>
      </trkpt>
      <trkpt lat="53.087901966646314" lon="-3.747907988727093">
        <ele>265.94</ele>
        <time>2026-07-10T14:06:31Z</time>
      </trkpt>
      <trkpt lat="53.087886963039637" lon="-3.748058024793863">
        <ele>265.94</ele>
        <time>2026-07-10T14:06:32Z</time>
      </trkpt>
      <trkpt lat="53.087873971089721" lon="-3.748186016455293">
        <ele>265.94</ele>
        <time>2026-07-10T14:06:33Z</time>
      </trkpt>
      <trkpt lat="53.08782703243196" lon="-3.748292969539762">
        <ele>265.94</ele>
        <time>2026-07-10T14:06:34Z</time>
      </trkpt>
      <trkpt lat="53.087767018005252" lon="-3.748386008664966">
        <ele>265.94</ele>
        <time>2026-07-10T14:06:35Z</time>
      </trkpt>
      <trkpt lat="53.08769803494215" lon="-3.748483993113041">
        <ele>265.94</ele>
        <time>2026-07-10T14:06:36Z</time>
      </trkpt>
      <trkpt lat="53.087609019130468" lon="-3.748576026409864">
        <ele>266.42000000000002</ele>
        <time>2026-07-10T14:06:37Z</time>
      </trkpt>
      <trkpt lat="53.087405003607273" lon="-3.748789010569453">
        <ele>267.38</ele>
        <time>2026-07-10T14:06:39Z</time>
      </trkpt>
      <trkpt lat="53.087306013330817" lon="-3.748892024159432">
        <ele>268.35000000000002</ele>
        <time>2026-07-10T14:06:40Z</time>
      </trkpt>
      <trkpt lat="53.087209034711123" lon="-3.748993026092649">
        <ele>268.82999999999998</ele>
        <time>2026-07-10T14:06:41Z</time>
      </trkpt>
      <trkpt lat="53.08713803999126" lon="-3.749134009703994">
        <ele>269.31</ele>
        <time>2026-07-10T14:06:42Z</time>
      </trkpt>
      <trkpt lat="53.087077019736171" lon="-3.749294020235539">
        <ele>269.79000000000002</ele>
        <time>2026-07-10T14:06:43Z</time>
      </trkpt>
      <trkpt lat="53.087010970339179" lon="-3.749462999403477">
        <ele>270.75</ele>
        <time>2026-07-10T14:06:44Z</time>
      </trkpt>
      <trkpt lat="53.086945004761219" lon="-3.749633990228176">
        <ele>271.23000000000002</ele>
        <time>2026-07-10T14:06:45Z</time>
      </trkpt>
      <trkpt lat="53.086686003953218" lon="-3.75052004121244">
        <ele>278.44</ele>
        <time>2026-07-10T14:06:52Z</time>
      </trkpt>
      <trkpt lat="53.086649039760232" lon="-3.7505860067904">
        <ele>279.88</ele>
        <time>2026-07-10T14:06:54Z</time>
      </trkpt>
      <trkpt lat="53.086639987304807" lon="-3.750603022053838">
        <ele>280.36000000000001</ele>
        <time>2026-07-10T14:06:55Z</time>
      </trkpt>
      <trkpt lat="53.086597993969917" lon="-3.750610984861851">
        <ele>280.83999999999997</ele>
        <time>2026-07-10T14:06:59Z</time>
      </trkpt>
      <trkpt lat="53.086550971493125" lon="-3.750577960163355">
        <ele>280.83999999999997</ele>
        <time>2026-07-10T14:07:00Z</time>
      </trkpt>
      <trkpt lat="53.086489029228687" lon="-3.750534961000085">
        <ele>280.83999999999997</ele>
        <time>2026-07-10T14:07:01Z</time>
      </trkpt>
      <trkpt lat="53.086356008425355" lon="-3.750442005693913">
        <ele>279.88</ele>
        <time>2026-07-10T14:07:03Z</time>
      </trkpt>
      <trkpt lat="53.086285013705492" lon="-3.750391965731978">
        <ele>279.39999999999998</ele>
        <time>2026-07-10T14:07:04Z</time>
      </trkpt>
      <trkpt lat="53.086117040365934" lon="-3.750314014032483">
        <ele>277.95999999999998</ele>
        <time>2026-07-10T14:07:06Z</time>
      </trkpt>
      <trkpt lat="53.086020983755589" lon="-3.750295992940664">
        <ele>277.48000000000002</ele>
        <time>2026-07-10T14:07:07Z</time>
      </trkpt>
      <trkpt lat="53.08591696433723" lon="-3.750276966020465">
        <ele>276.51999999999998</ele>
        <time>2026-07-10T14:07:08Z</time>
      </trkpt>
      <trkpt lat="53.08535504154861" lon="-3.750304961577058">
        <ele>273.14999999999998</ele>
        <time>2026-07-10T14:07:13Z</time>
      </trkpt>
      <trkpt lat="53.084958996623755" lon="-3.75028601847589">
        <ele>271.23000000000002</ele>
        <time>2026-07-10T14:07:17Z</time>
      </trkpt>
      <trkpt lat="53.084209989756346" lon="-3.749959962442517">
        <ele>271.23000000000002</ele>
        <time>2026-07-10T14:07:23Z</time>
      </trkpt>
      <trkpt lat="53.084108987823129" lon="-3.749916041269898">
        <ele>272.19</ele>
        <time>2026-07-10T14:07:24Z</time>
      </trkpt>
      <trkpt lat="53.084001028910279" lon="-3.749913023784757">
        <ele>272.67000000000002</ele>
        <time>2026-07-10T14:07:25Z</time>
      </trkpt>
      <trkpt lat="53.083890974521637" lon="-3.749933978542686">
        <ele>273.63</ele>
        <time>2026-07-10T14:07:26Z</time>
      </trkpt>
      <trkpt lat="53.083781003952026" lon="-3.749955017119646">
        <ele>275.06999999999999</ele>
        <time>2026-07-10T14:07:27Z</time>
      </trkpt>
      <trkpt lat="53.083673967048526" lon="-3.749974966049194">
        <ele>277</ele>
        <time>2026-07-10T14:07:28Z</time>
      </trkpt>
      <trkpt lat="53.083566008135676" lon="-3.749994998797774">
        <ele>278.44</ele>
        <time>2026-07-10T14:07:29Z</time>
      </trkpt>
      <trkpt lat="53.082507038488984" lon="-3.750186022371054">
        <ele>284.69</ele>
        <time>2026-07-10T14:07:37Z</time>
      </trkpt>
      <trkpt lat="53.081431975588202" lon="-3.75028601847589">
        <ele>284.69</ele>
        <time>2026-07-10T14:07:46Z</time>
      </trkpt>
      <trkpt lat="53.081303983926773" lon="-3.750362964347005">
        <ele>284.69</ele>
        <time>2026-07-10T14:07:47Z</time>
      </trkpt>
      <trkpt lat="53.08118999004364" lon="-3.750433037057519">
        <ele>284.69</ele>
        <time>2026-07-10T14:07:48Z</time>
      </trkpt>
      <trkpt lat="53.081073984503746" lon="-3.750503025949001">
        <ele>284.69</ele>
        <time>2026-07-10T14:07:49Z</time>
      </trkpt>
      <trkpt lat="53.080052984878421" lon="-3.751271981745958">
        <ele>284.20999999999998</ele>
        <time>2026-07-10T14:07:58Z</time>
      </trkpt>
      <trkpt lat="53.079778980463743" lon="-3.751397961750627">
        <ele>283.73000000000002</ele>
        <time>2026-07-10T14:08:00Z</time>
      </trkpt>
      <trkpt lat="53.078493028879166" lon="-3.751909006386995">
        <ele>278.92000000000002</ele>
        <time>2026-07-10T14:08:10Z</time>
      </trkpt>
      <trkpt lat="53.07837501168251" lon="-3.751974971964955">
        <ele>278.44</ele>
        <time>2026-07-10T14:08:11Z</time>
      </trkpt>
      <trkpt lat="53.077918030321598" lon="-3.752256017178297">
        <ele>276.51999999999998</ele>
        <time>2026-07-10T14:08:15Z</time>
      </trkpt>
      <trkpt lat="53.077817028388381" lon="-3.752357019111514">
        <ele>276.51999999999998</ele>
        <time>2026-07-10T14:08:16Z</time>
      </trkpt>
      <trkpt lat="53.077721977606416" lon="-3.752498002722859">
        <ele>276.51999999999998</ele>
        <time>2026-07-10T14:08:17Z</time>
      </trkpt>
      <trkpt lat="53.076997026801109" lon="-3.753299983218312">
        <ele>276.04000000000002</ele>
        <time>2026-07-10T14:08:24Z</time>
      </trkpt>
      <trkpt lat="53.075615018606186" lon="-3.753923010081053">
        <ele>275.56</ele>
        <time>2026-07-10T14:08:35Z</time>
      </trkpt>
      <trkpt lat="53.075517034158111" lon="-3.753975983709097">
        <ele>275.06999999999999</ele>
        <time>2026-07-10T14:08:36Z</time>
      </trkpt>
      <trkpt lat="53.075457019731402" lon="-3.754061982035637">
        <ele>275.06999999999999</ele>
        <time>2026-07-10T14:08:37Z</time>
      </trkpt>
      <trkpt lat="53.075400022789836" lon="-3.754142029210925">
        <ele>275.06999999999999</ele>
        <time>2026-07-10T14:08:38Z</time>
      </trkpt>
      <trkpt lat="53.075357023626566" lon="-3.754248982295394">
        <ele>275.06999999999999</ele>
        <time>2026-07-10T14:08:39Z</time>
      </trkpt>
      <trkpt lat="53.075325004756451" lon="-3.754353001713753">
        <ele>275.06999999999999</ele>
        <time>2026-07-10T14:08:40Z</time>
      </trkpt>
      <trkpt lat="53.075203970074654" lon="-3.754736976698041">
        <ele>274.11000000000001</ele>
        <time>2026-07-10T14:08:44Z</time>
      </trkpt>
      <trkpt lat="53.075163988396525" lon="-3.754803026095033">
        <ele>273.63</ele>
        <time>2026-07-10T14:08:45Z</time>
      </trkpt>
      <trkpt lat="53.0751290358603" lon="-3.75486203469336">
        <ele>273.63</ele>
        <time>2026-07-10T14:08:46Z</time>
      </trkpt>
      <trkpt lat="53.075090982019901" lon="-3.754923976957798">
        <ele>273.14999999999998</ele>
        <time>2026-07-10T14:08:47Z</time>
      </trkpt>
      <trkpt lat="53.075054017826915" lon="-3.754986003041267">
        <ele>272.67000000000002</ele>
        <time>2026-07-10T14:08:48Z</time>
      </trkpt>
      <trkpt lat="53.075010012835264" lon="-3.755054986104369">
        <ele>272.19</ele>
        <time>2026-07-10T14:08:49Z</time>
      </trkpt>
      <trkpt lat="53.074944969266653" lon="-3.755110977217555">
        <ele>271.70999999999998</ele>
        <time>2026-07-10T14:08:50Z</time>
      </trkpt>
      <trkpt lat="53.07487296871841" lon="-3.755174009129405">
        <ele>270.75</ele>
        <time>2026-07-10T14:08:51Z</time>
      </trkpt>
      <trkpt lat="53.074783030897379" lon="-3.7552519608289">
        <ele>269.31</ele>
        <time>2026-07-10T14:08:52Z</time>
      </trkpt>
      <trkpt lat="53.074111975729465" lon="-3.755832994356751">
        <ele>258.25</ele>
        <time>2026-07-10T14:08:58Z</time>
      </trkpt>
      <trkpt lat="53.074006028473377" lon="-3.755950005725026">
        <ele>258.25</ele>
        <time>2026-07-10T14:08:59Z</time>
      </trkpt>
      <trkpt lat="53.073568996042013" lon="-3.756573032587767">
        <ele>258.73000000000002</ele>
        <time>2026-07-10T14:09:04Z</time>
      </trkpt>
      <trkpt lat="53.072742959484458" lon="-3.757752031087875">
        <ele>255.84999999999999</ele>
        <time>2026-07-10T14:09:13Z</time>
      </trkpt>
      <trkpt lat="53.072514971718192" lon="-3.758076997473836">
        <ele>258.25</ele>
        <time>2026-07-10T14:09:17Z</time>
      </trkpt>
      <trkpt lat="53.072485970333219" lon="-3.758118990808725">
        <ele>259.20999999999998</ele>
        <time>2026-07-10T14:09:18Z</time>
      </trkpt>
      <trkpt lat="53.072391003370285" lon="-3.758113961666822">
        <ele>260.64999999999998</ele>
        <time>2026-07-10T14:09:25Z</time>
      </trkpt>
      <trkpt lat="53.072355967015028" lon="-3.758067023009062">
        <ele>261.13999999999999</ele>
        <time>2026-07-10T14:09:26Z</time>
      </trkpt>
      <trkpt lat="53.072305005043745" lon="-3.75799703411758">
        <ele>261.62</ele>
        <time>2026-07-10T14:09:27Z</time>
      </trkpt>
      <trkpt lat="53.071707040071487" lon="-3.757184995338321">
        <ele>263.06</ele>
        <time>2026-07-10T14:09:34Z</time>
      </trkpt>
      <trkpt lat="53.071158025413752" lon="-3.756506983190775">
        <ele>263.54000000000002</ele>
        <time>2026-07-10T14:09:39Z</time>
      </trkpt>
      <trkpt lat="53.071045037358999" lon="-3.756405981257558">
        <ele>263.06</ele>
        <time>2026-07-10T14:09:40Z</time>
      </trkpt>
      <trkpt lat="53.070936994627118" lon="-3.756309002637863">
        <ele>262.57999999999998</ele>
        <time>2026-07-10T14:09:41Z</time>
      </trkpt>
      <trkpt lat="53.070839010179043" lon="-3.756271032616496">
        <ele>261.62</ele>
        <time>2026-07-10T14:09:42Z</time>
      </trkpt>
      <trkpt lat="53.070732979103923" lon="-3.756267009302974">
        <ele>261.13999999999999</ele>
        <time>2026-07-10T14:09:43Z</time>
      </trkpt>
      <trkpt lat="53.070626026019454" lon="-3.756262985989451">
        <ele>260.17000000000002</ele>
        <time>2026-07-10T14:09:44Z</time>
      </trkpt>
      <trkpt lat="53.070524018257856" lon="-3.756258962675929">
        <ele>259.69</ele>
        <time>2026-07-10T14:09:45Z</time>
      </trkpt>
      <trkpt lat="53.070435002446175" lon="-3.756256029009819">
        <ele>259.20999999999998</ele>
        <time>2026-07-10T14:09:46Z</time>
      </trkpt>
      <trkpt lat="53.070316985249519" lon="-3.756250999867916">
        <ele>257.76999999999998</ele>
        <time>2026-07-10T14:09:47Z</time>
      </trkpt>
      <trkpt lat="53.070264011621475" lon="-3.75617397017777">
        <ele>256.32999999999998</ele>
        <time>2026-07-10T14:09:48Z</time>
      </trkpt>
      <trkpt lat="53.070176001638174" lon="-3.756046984344721">
        <ele>254.41</ele>
        <time>2026-07-10T14:09:49Z</time>
      </trkpt>
      <trkpt lat="53.070076005533338" lon="-3.755901977419853">
        <ele>252.96000000000001</ele>
        <time>2026-07-10T14:09:50Z</time>
      </trkpt>
      <trkpt lat="53.069967962801456" lon="-3.75574498437345">
        <ele>251.03999999999999</ele>
        <time>2026-07-10T14:09:51Z</time>
      </trkpt>
      <trkpt lat="53.069694964215159" lon="-3.755242992192507">
        <ele>244.31</ele>
        <time>2026-07-10T14:09:54Z</time>
      </trkpt>
      <trkpt lat="53.069590022787452" lon="-3.755147019401193">
        <ele>241.43000000000001</ele>
        <time>2026-07-10T14:09:55Z</time>
      </trkpt>
      <trkpt lat="53.069158019497991" lon="-3.754620971158147">
        <ele>234.69999999999999</ele>
        <time>2026-07-10T14:09:59Z</time>
      </trkpt>
      <trkpt lat="53.069038996472955" lon="-3.754575038328767">
        <ele>233.25999999999999</ele>
        <time>2026-07-10T14:10:00Z</time>
      </trkpt>
      <trkpt lat="53.068793993443251" lon="-3.754478981718421">
        <ele>230.37</ele>
        <time>2026-07-10T14:10:02Z</time>
      </trkpt>
      <trkpt lat="53.068693997338414" lon="-3.754404969513416">
        <ele>228.93000000000001</ele>
        <time>2026-07-10T14:10:03Z</time>
      </trkpt>
      <trkpt lat="53.068623002618551" lon="-3.754322994500399">
        <ele>227.97</ele>
        <time>2026-07-10T14:10:04Z</time>
      </trkpt>
      <trkpt lat="53.068558964878321" lon="-3.754195002838969">
        <ele>226.53</ele>
        <time>2026-07-10T14:10:05Z</time>
      </trkpt>
      <trkpt lat="53.068486964330077" lon="-3.754051001742482">
        <ele>225.56999999999999</ele>
        <time>2026-07-10T14:10:06Z</time>
      </trkpt>
      <trkpt lat="53.067978015169501" lon="-3.753033019602299">
        <ele>218.36000000000001</ele>
        <time>2026-07-10T14:10:12Z</time>
      </trkpt>
      <trkpt lat="53.067896040156484" lon="-3.752978034317493">
        <ele>217.40000000000001</ele>
        <time>2026-07-10T14:10:13Z</time>
      </trkpt>
      <trkpt lat="53.06778397411108" lon="-3.752903016284108">
        <ele>216.91</ele>
        <time>2026-07-10T14:10:14Z</time>
      </trkpt>
      <trkpt lat="53.067651959136128" lon="-3.752847025170922">
        <ele>215.94999999999999</ele>
        <time>2026-07-10T14:10:15Z</time>
      </trkpt>
      <trkpt lat="53.067516004666686" lon="-3.752819029614329">
        <ele>214.99000000000001</ele>
        <time>2026-07-10T14:10:16Z</time>
      </trkpt>
      <trkpt lat="53.067382983863354" lon="-3.752791034057736">
        <ele>214.03</ele>
        <time>2026-07-10T14:10:17Z</time>
      </trkpt>
      <trkpt lat="53.067255998030305" lon="-3.752763960510492">
        <ele>212.59</ele>
        <time>2026-07-10T14:10:18Z</time>
      </trkpt>
      <trkpt lat="53.067151978611946" lon="-3.752686008810997">
        <ele>211.15000000000001</ele>
        <time>2026-07-10T14:10:19Z</time>
      </trkpt>
      <trkpt lat="53.066949974745512" lon="-3.752430025488138">
        <ele>208.25999999999999</ele>
        <time>2026-07-10T14:10:21Z</time>
      </trkpt>
      <trkpt lat="53.066833969205618" lon="-3.752313014119864">
        <ele>207.30000000000001</ele>
        <time>2026-07-10T14:10:22Z</time>
      </trkpt>
      <trkpt lat="53.066722992807627" lon="-3.752239001914859">
        <ele>205.86000000000001</ele>
        <time>2026-07-10T14:10:23Z</time>
      </trkpt>
      <trkpt lat="53.066607993096113" lon="-3.752193991094828">
        <ele>204.90000000000001</ele>
        <time>2026-07-10T14:10:24Z</time>
      </trkpt>
      <trkpt lat="53.066483018919826" lon="-3.752159960567951">
        <ele>203.94</ele>
        <time>2026-07-10T14:10:25Z</time>
      </trkpt>
      <trkpt lat="53.065187009051442" lon="-3.751972960308194">
        <ele>197.69</ele>
        <time>2026-07-10T14:10:34Z</time>
      </trkpt>
      <trkpt lat="53.06492599658668" lon="-3.752003973349929">
        <ele>196.72999999999999</ele>
        <time>2026-07-10T14:10:36Z</time>
      </trkpt>
      <trkpt lat="53.064798004925251" lon="-3.752046972513199">
        <ele>196.25</ele>
        <time>2026-07-10T14:10:37Z</time>
      </trkpt>
      <trkpt lat="53.064416041597724" lon="-3.752254005521536">
        <ele>194.80000000000001</ele>
        <time>2026-07-10T14:10:40Z</time>
      </trkpt>
      <trkpt lat="53.064285032451153" lon="-3.752286024391651">
        <ele>194.31999999999999</ele>
        <time>2026-07-10T14:10:41Z</time>
      </trkpt>
      <trkpt lat="53.063171999529004" lon="-3.752432037144899">
        <ele>184.71000000000001</ele>
        <time>2026-07-10T14:10:48Z</time>
      </trkpt>
      <trkpt lat="53.062848960980773" lon="-3.752334974706173">
        <ele>182.31</ele>
        <time>2026-07-10T14:10:50Z</time>
      </trkpt>
      <trkpt lat="53.062710994854569" lon="-3.752293987199664">
        <ele>181.83000000000001</ele>
        <time>2026-07-10T14:10:51Z</time>
      </trkpt>
      <trkpt lat="53.062579985707998" lon="-3.752255011349917">
        <ele>181.34999999999999</ele>
        <time>2026-07-10T14:10:52Z</time>
      </trkpt>
      <trkpt lat="53.062444031238556" lon="-3.752214023843408">
        <ele>181.34999999999999</ele>
        <time>2026-07-10T14:10:53Z</time>
      </trkpt>
      <trkpt lat="53.062297012656927" lon="-3.752182004973292">
        <ele>181.83000000000001</ele>
        <time>2026-07-10T14:10:54Z</time>
      </trkpt>
      <trkpt lat="53.062145970761776" lon="-3.752250988036394">
        <ele>182.31</ele>
        <time>2026-07-10T14:10:55Z</time>
      </trkpt>
      <trkpt lat="53.061995012685657" lon="-3.752318965271115">
        <ele>182.78999999999999</ele>
        <time>2026-07-10T14:10:56Z</time>
      </trkpt>
      <trkpt lat="53.061841037124395" lon="-3.752389037981629">
        <ele>183.75</ele>
        <time>2026-07-10T14:10:57Z</time>
      </trkpt>
      <trkpt lat="53.061732994392514" lon="-3.752510994672775">
        <ele>184.71000000000001</ele>
        <time>2026-07-10T14:10:58Z</time>
      </trkpt>
      <trkpt lat="53.061515986919403" lon="-3.752755997702479">
        <ele>186.63</ele>
        <time>2026-07-10T14:11:00Z</time>
      </trkpt>
      <trkpt lat="53.061419008299708" lon="-3.752866974100471">
        <ele>187.11000000000001</ele>
        <time>2026-07-10T14:11:01Z</time>
      </trkpt>
      <trkpt lat="53.061282970011234" lon="-3.752909973263741">
        <ele>188.08000000000001</ele>
        <time>2026-07-10T14:11:02Z</time>
      </trkpt>
      <trkpt lat="53.061189008876681" lon="-3.752856999635696">
        <ele>188.56</ele>
        <time>2026-07-10T14:11:03Z</time>
      </trkpt>
      <trkpt lat="53.06107702665031" lon="-3.752793967723846">
        <ele>188.08000000000001</ele>
        <time>2026-07-10T14:11:04Z</time>
      </trkpt>
      <trkpt lat="53.060953980311751" lon="-3.752723978832364">
        <ele>187.59</ele>
        <time>2026-07-10T14:11:05Z</time>
      </trkpt>
      <trkpt lat="53.060332965105772" lon="-3.752373028546572">
        <ele>181.34999999999999</ele>
        <time>2026-07-10T14:11:11Z</time>
      </trkpt>
      <trkpt lat="53.060312010347843" lon="-3.752360958606005">
        <ele>177.5</ele>
        <time>2026-07-10T14:11:18Z</time>
      </trkpt>
      <trkpt lat="53.060232969000936" lon="-3.752316031605005">
        <ele>175.09999999999999</ele>
        <time>2026-07-10T14:11:21Z</time>
      </trkpt>
      <trkpt lat="53.060187036171556" lon="-3.752264985814691">
        <ele>174.62</ele>
        <time>2026-07-10T14:11:22Z</time>
      </trkpt>
      <trkpt lat="53.060130039229989" lon="-3.752170018851757">
        <ele>174.13999999999999</ele>
        <time>2026-07-10T14:11:23Z</time>
      </trkpt>
      <trkpt lat="53.059440040960908" lon="-3.751025972887874">
        <ele>175.58000000000001</ele>
        <time>2026-07-10T14:11:31Z</time>
      </trkpt>
      <trkpt lat="53.059279024600983" lon="-3.750770995393395">
        <ele>176.53999999999999</ele>
        <time>2026-07-10T14:11:33Z</time>
      </trkpt>
      <trkpt lat="53.059203000739217" lon="-3.750661024823785">
        <ele>176.53999999999999</ele>
        <time>2026-07-10T14:11:34Z</time>
      </trkpt>
      <trkpt lat="53.059108033776283" lon="-3.750582989305258">
        <ele>176.53999999999999</ele>
        <time>2026-07-10T14:11:35Z</time>
      </trkpt>
      <trkpt lat="53.059008037671447" lon="-3.750518029555678">
        <ele>176.06</ele>
        <time>2026-07-10T14:11:36Z</time>
      </trkpt>
      <trkpt lat="53.058904018253088" lon="-3.750450974330306">
        <ele>176.06</ele>
        <time>2026-07-10T14:11:37Z</time>
      </trkpt>
      <trkpt lat="53.058173032477498" lon="-3.750068005174398">
        <ele>173.66</ele>
        <time>2026-07-10T14:11:44Z</time>
      </trkpt>
      <trkpt lat="53.057602979242802" lon="-3.750032968819141">
        <ele>170.77000000000001</ele>
        <time>2026-07-10T14:11:49Z</time>
      </trkpt>
      <trkpt lat="53.057508012279868" lon="-3.750040009617806">
        <ele>169.81</ele>
        <time>2026-07-10T14:11:50Z</time>
      </trkpt>
      <trkpt lat="53.05742503143847" lon="-3.750085020437837">
        <ele>168.84999999999999</ele>
        <time>2026-07-10T14:11:51Z</time>
      </trkpt>
      <trkpt lat="53.057211963459849" lon="-3.75020002014935">
        <ele>165</ele>
        <time>2026-07-10T14:11:54Z</time>
      </trkpt>
      <trkpt lat="53.057150021195412" lon="-3.750233966857195">
        <ele>164.03999999999999</ele>
        <time>2026-07-10T14:11:55Z</time>
      </trkpt>
      <trkpt lat="53.057084977626801" lon="-3.750269003212452">
        <ele>163.08000000000001</ele>
        <time>2026-07-10T14:11:56Z</time>
      </trkpt>
      <trkpt lat="53.056960003450513" lon="-3.750314014032483">
        <ele>158.27000000000001</ele>
        <time>2026-07-10T14:12:02Z</time>
      </trkpt>
      <trkpt lat="53.056865036487579" lon="-3.750326000154018">
        <ele>157.31</ele>
        <time>2026-07-10T14:12:04Z</time>
      </trkpt>
      <trkpt lat="53.056374024599791" lon="-3.75039397738874">
        <ele>153.94999999999999</ele>
        <time>2026-07-10T14:12:11Z</time>
      </trkpt>
      <trkpt lat="53.056327002122998" lon="-3.750401018187404">
        <ele>153.94999999999999</ele>
        <time>2026-07-10T14:12:12Z</time>
      </trkpt>
      <trkpt lat="53.056175960227847" lon="-3.750421972945333">
        <ele>152.99000000000001</ele>
        <time>2026-07-10T14:12:15Z</time>
      </trkpt>
      <trkpt lat="53.056121980771422" lon="-3.750429013743997">
        <ele>152.50999999999999</ele>
        <time>2026-07-10T14:12:16Z</time>
      </trkpt>
      <trkpt lat="53.056071018800139" lon="-3.75043697655201">
        <ele>151.53999999999999</ele>
        <time>2026-07-10T14:12:17Z</time>
      </trkpt>
      <trkpt lat="53.055804977193475" lon="-3.750580977648497">
        <ele>149.13999999999999</ele>
        <time>2026-07-10T14:12:22Z</time>
      </trkpt>
      <trkpt lat="53.055762983858585" lon="-3.750626994296908">
        <ele>149.13999999999999</ele>
        <time>2026-07-10T14:12:23Z</time>
      </trkpt>
      <trkpt lat="53.05572803132236" lon="-3.750663958489895">
        <ele>149.13999999999999</ele>
        <time>2026-07-10T14:12:24Z</time>
      </trkpt>
      <trkpt lat="53.055689977481961" lon="-3.750705029815435">
        <ele>149.13999999999999</ele>
        <time>2026-07-10T14:12:25Z</time>
      </trkpt>
      <trkpt lat="53.055649995803833" lon="-3.750749034807086">
        <ele>148.66</ele>
        <time>2026-07-10T14:12:26Z</time>
      </trkpt>
      <trkpt lat="53.055614959448576" lon="-3.750787004828453">
        <ele>148.66</ele>
        <time>2026-07-10T14:12:27Z</time>
      </trkpt>
      <trkpt lat="53.055584030225873" lon="-3.750820029526949">
        <ele>148.66</ele>
        <time>2026-07-10T14:12:28Z</time>
      </trkpt>
      <trkpt lat="53.055545976385474" lon="-3.750861017033458">
        <ele>149.13999999999999</ele>
        <time>2026-07-10T14:12:29Z</time>
      </trkpt>
      <trkpt lat="53.055503983050585" lon="-3.75090803951025">
        <ele>149.13999999999999</ele>
        <time>2026-07-10T14:12:30Z</time>
      </trkpt>
      <trkpt lat="53.055460983887315" lon="-3.75095397233963">
        <ele>149.13999999999999</ele>
        <time>2026-07-10T14:12:31Z</time>
      </trkpt>
      <trkpt lat="53.055425025522709" lon="-3.750992026180029">
        <ele>149.62</ele>
        <time>2026-07-10T14:12:38Z</time>
      </trkpt>
      <trkpt lat="53.055402981117368" lon="-3.751020021736622">
        <ele>150.58000000000001</ele>
        <time>2026-07-10T14:12:41Z</time>
      </trkpt>
      <trkpt lat="53.055395018309355" lon="-3.75108296982944">
        <ele>151.06</ele>
        <time>2026-07-10T14:12:42Z</time>
      </trkpt>
      <trkpt lat="53.0553840380162" lon="-3.75116502866149">
        <ele>151.53999999999999</ele>
        <time>2026-07-10T14:12:43Z</time>
      </trkpt>
      <trkpt lat="53.05536400526762" lon="-3.751323027536273">
        <ele>152.50999999999999</ele>
        <time>2026-07-10T14:12:45Z</time>
      </trkpt>
      <trkpt lat="53.055353024974465" lon="-3.751408020034432">
        <ele>152.99000000000001</ele>
        <time>2026-07-10T14:12:46Z</time>
      </trkpt>
      <trkpt lat="53.055327963083982" lon="-3.751528970897198">
        <ele>153.47</ele>
        <time>2026-07-10T14:12:47Z</time>
      </trkpt>
      <trkpt lat="53.055284963920712" lon="-3.751602983102202">
        <ele>153.47</ele>
        <time>2026-07-10T14:12:48Z</time>
      </trkpt>
      <trkpt lat="53.055238025262952" lon="-3.751683030277491">
        <ele>153.94999999999999</ele>
        <time>2026-07-10T14:12:49Z</time>
      </trkpt>
      <trkpt lat="53.055188991129398" lon="-3.751766011118889">
        <ele>154.43000000000001</ele>
        <time>2026-07-10T14:12:50Z</time>
      </trkpt>
      <trkpt lat="53.055133000016212" lon="-3.751860978081822">
        <ele>154.91</ele>
        <time>2026-07-10T14:12:51Z</time>
      </trkpt>
      <trkpt lat="53.054975001141429" lon="-3.752131965011358">
        <ele>155.87</ele>
        <time>2026-07-10T14:12:54Z</time>
      </trkpt>
      <trkpt lat="53.054916998371482" lon="-3.752283006906509">
        <ele>156.34999999999999</ele>
        <time>2026-07-10T14:12:55Z</time>
      </trkpt>
      <trkpt lat="53.054733015596867" lon="-3.752763038501144">
        <ele>158.27000000000001</ele>
        <time>2026-07-10T14:12:59Z</time>
      </trkpt>
      <trkpt lat="53.054627990350127" lon="-3.752966970205307">
        <ele>159.24000000000001</ele>
        <time>2026-07-10T14:13:01Z</time>
      </trkpt>
      <trkpt lat="53.054521959275007" lon="-3.753132009878755">
        <ele>159.72</ele>
        <time>2026-07-10T14:13:03Z</time>
      </trkpt>
      <trkpt lat="53.05450301617384" lon="-3.753161011263728">
        <ele>159.72</ele>
        <time>2026-07-10T14:13:04Z</time>
      </trkpt>
      <trkpt lat="53.054520031437278" lon="-3.753221025690436">
        <ele>160.19999999999999</ele>
        <time>2026-07-10T14:13:05Z</time>
      </trkpt>
      <trkpt lat="53.05454702116549" lon="-3.753310963511467">
        <ele>160.68000000000001</ele>
        <time>2026-07-10T14:13:06Z</time>
      </trkpt>
      <trkpt lat="53.054578034207225" lon="-3.753418000414968">
        <ele>161.16</ele>
        <time>2026-07-10T14:13:07Z</time>
      </trkpt>
      <trkpt lat="53.054609969258308" lon="-3.753525959327817">
        <ele>161.63999999999999</ele>
        <time>2026-07-10T14:13:08Z</time>
      </trkpt>
      <trkpt lat="53.054631007835269" lon="-3.753669038414955">
        <ele>162.12</ele>
        <time>2026-07-10T14:13:09Z</time>
      </trkpt>
      <trkpt lat="53.054647017270327" lon="-3.753784038126469">
        <ele>162.59999999999999</ele>
        <time>2026-07-10T14:13:10Z</time>
      </trkpt>
      <trkpt lat="53.054823959246278" lon="-3.755007041618228">
        <ele>167.88999999999999</ele>
        <time>2026-07-10T14:13:17Z</time>
      </trkpt>
      <trkpt lat="53.054938958957791" lon="-3.7555299885571">
        <ele>171.25</ele>
        <time>2026-07-10T14:13:21Z</time>
      </trkpt>
      <trkpt lat="53.054967038333416" lon="-3.755655968561769">
        <ele>172.21000000000001</ele>
        <time>2026-07-10T14:13:22Z</time>
      </trkpt>
      <trkpt lat="53.055056976154447" lon="-3.756239013746381">
        <ele>177.02000000000001</ele>
        <time>2026-07-10T14:13:26Z</time>
      </trkpt>
      <trkpt lat="53.055217992514372" lon="-3.757925033569336">
        <ele>188.56</ele>
        <time>2026-07-10T14:13:35Z</time>
      </trkpt>
      <trkpt lat="53.055228972807527" lon="-3.758352007716894">
        <ele>191.91999999999999</ele>
        <time>2026-07-10T14:13:38Z</time>
      </trkpt>
      <trkpt lat="53.055231990292668" lon="-3.75845099799335">
        <ele>193.36000000000001</ele>
        <time>2026-07-10T14:13:39Z</time>
      </trkpt>
      <trkpt lat="53.055260991677642" lon="-3.758507994934917">
        <ele>194.31999999999999</ele>
        <time>2026-07-10T14:13:40Z</time>
      </trkpt>
      <trkpt lat="53.05529996752739" lon="-3.758570021018386">
        <ele>195.28</ele>
        <time>2026-07-10T14:13:41Z</time>
      </trkpt>
      <trkpt lat="53.055350007489324" lon="-3.758650990203023">
        <ele>195.77000000000001</ele>
        <time>2026-07-10T14:13:42Z</time>
      </trkpt>
      <trkpt lat="53.055657036602497" lon="-3.759142002090812">
        <ele>197.69</ele>
        <time>2026-07-10T14:13:47Z</time>
      </trkpt>
      <trkpt lat="53.055695006623864" lon="-3.759235041216016">
        <ele>198.16999999999999</ele>
        <time>2026-07-10T14:13:48Z</time>
      </trkpt>
      <trkpt lat="53.055739011615515" lon="-3.759348029270768">
        <ele>198.65000000000001</ele>
        <time>2026-07-10T14:13:49Z</time>
      </trkpt>
      <trkpt lat="53.056276962161064" lon="-3.760721990838647">
        <ele>196.72999999999999</ele>
        <time>2026-07-10T14:14:01Z</time>
      </trkpt>
      <trkpt lat="53.056434039026499" lon="-3.761121975257993">
        <ele>192.40000000000001</ele>
        <time>2026-07-10T14:14:05Z</time>
      </trkpt>
      <trkpt lat="53.056540992110968" lon="-3.761293971911073">
        <ele>190</ele>
        <time>2026-07-10T14:14:07Z</time>
      </trkpt>
      <trkpt lat="53.056626990437508" lon="-3.7613529805094">
        <ele>188.56</ele>
        <time>2026-07-10T14:14:08Z</time>
      </trkpt>
      <trkpt lat="53.056707037612796" lon="-3.761407965794206">
        <ele>187.59</ele>
        <time>2026-07-10T14:14:09Z</time>
      </trkpt>
      <trkpt lat="53.056924967095256" lon="-3.761536963284016">
        <ele>184.22999999999999</ele>
        <time>2026-07-10T14:14:12Z</time>
      </trkpt>
      <trkpt lat="53.057082965970039" lon="-3.761564958840609">
        <ele>183.27000000000001</ele>
        <time>2026-07-10T14:14:14Z</time>
      </trkpt>
      <trkpt lat="53.057328974828124" lon="-3.76167400740087">
        <ele>180.87</ele>
        <time>2026-07-10T14:14:17Z</time>
      </trkpt>
      <trkpt lat="53.057386977598071" lon="-3.761732010170817">
        <ele>179.90000000000001</ele>
        <time>2026-07-10T14:14:18Z</time>
      </trkpt>
      <trkpt lat="53.057442968711257" lon="-3.761788001284003">
        <ele>179.41999999999999</ele>
        <time>2026-07-10T14:14:19Z</time>
      </trkpt>
      <trkpt lat="53.057480016723275" lon="-3.761862013489008">
        <ele>178.46000000000001</ele>
        <time>2026-07-10T14:14:20Z</time>
      </trkpt>
      <trkpt lat="53.05751102976501" lon="-3.761962009593844">
        <ele>177.5</ele>
        <time>2026-07-10T14:14:21Z</time>
      </trkpt>
      <trkpt lat="53.057819986715913" lon="-3.762968005612493">
        <ele>171.25</ele>
        <time>2026-07-10T14:14:29Z</time>
      </trkpt>
      <trkpt lat="53.057884024456143" lon="-3.763175960630179">
        <ele>169.33000000000001</ele>
        <time>2026-07-10T14:14:31Z</time>
      </trkpt>
      <trkpt lat="53.05798796005547" lon="-3.76330696977675">
        <ele>166.93000000000001</ele>
        <time>2026-07-10T14:14:33Z</time>
      </trkpt>
      <trkpt lat="53.058046968653798" lon="-3.763372013345361">
        <ele>165.96000000000001</ele>
        <time>2026-07-10T14:14:34Z</time>
      </trkpt>
      <trkpt lat="53.058150988072157" lon="-3.763532023876905">
        <ele>164.52000000000001</ele>
        <time>2026-07-10T14:14:36Z</time>
      </trkpt>
      <trkpt lat="53.058184012770653" lon="-3.763636965304613">
        <ele>163.56</ele>
        <time>2026-07-10T14:14:37Z</time>
      </trkpt>
      <trkpt lat="53.058217959478498" lon="-3.763745008036494">
        <ele>163.08000000000001</ele>
        <time>2026-07-10T14:14:38Z</time>
      </trkpt>
      <trkpt lat="53.058259030804038" lon="-3.764018006622791">
        <ele>162.12</ele>
        <time>2026-07-10T14:14:40Z</time>
      </trkpt>
      <trkpt lat="53.058344023302197" lon="-3.764791991561651">
        <ele>164.03999999999999</ele>
        <time>2026-07-10T14:14:45Z</time>
      </trkpt>
      <trkpt lat="53.058312004432082" lon="-3.765422981232405">
        <ele>167.41</ele>
        <time>2026-07-10T14:14:50Z</time>
      </trkpt>
      <trkpt lat="53.058304963633418" lon="-3.765565976500511">
        <ele>167.41</ele>
        <time>2026-07-10T14:14:51Z</time>
      </trkpt>
      <trkpt lat="53.058270011097193" lon="-3.766166958957911">
        <ele>167.88999999999999</ele>
        <time>2026-07-10T14:14:55Z</time>
      </trkpt>
      <trkpt lat="53.058256013318896" lon="-3.766307020559907">
        <ele>168.84999999999999</ele>
        <time>2026-07-10T14:14:56Z</time>
      </trkpt>
      <trkpt lat="53.058213014155626" lon="-3.766736006364226">
        <ele>169.81</ele>
        <time>2026-07-10T14:14:59Z</time>
      </trkpt>
      <trkpt lat="53.058198010548949" lon="-3.766887970268726">
        <ele>170.28999999999999</ele>
        <time>2026-07-10T14:15:00Z</time>
      </trkpt>
      <trkpt lat="53.058188036084175" lon="-3.767498005181551">
        <ele>170.77000000000001</ele>
        <time>2026-07-10T14:15:04Z</time>
      </trkpt>
      <trkpt lat="53.058194993063807" lon="-3.767651980742812">
        <ele>170.28999999999999</ele>
        <time>2026-07-10T14:15:05Z</time>
      </trkpt>
      <trkpt lat="53.058213014155626" lon="-3.768027992919087">
        <ele>168.84999999999999</ele>
        <time>2026-07-10T14:15:08Z</time>
      </trkpt>
      <trkpt lat="53.058192981407046" lon="-3.768114997074008">
        <ele>168.84999999999999</ele>
        <time>2026-07-10T14:15:09Z</time>
      </trkpt>
      <trkpt lat="53.05815601721406" lon="-3.768185991793871">
        <ele>168.37</ele>
        <time>2026-07-10T14:15:10Z</time>
      </trkpt>
      <trkpt lat="53.058115029707551" lon="-3.768263021484017">
        <ele>168.37</ele>
        <time>2026-07-10T14:15:11Z</time>
      </trkpt>
      <trkpt lat="53.058074964210391" lon="-3.768338039517403">
        <ele>168.37</ele>
        <time>2026-07-10T14:15:12Z</time>
      </trkpt>
      <trkpt lat="53.058021990582347" lon="-3.76843904145062">
        <ele>167.88999999999999</ele>
        <time>2026-07-10T14:15:13Z</time>
      </trkpt>
      <trkpt lat="53.058004975318909" lon="-3.768534008413553">
        <ele>167.41</ele>
        <time>2026-07-10T14:15:14Z</time>
      </trkpt>
      <trkpt lat="53.05798502638936" lon="-3.768641967326403">
        <ele>167.41</ele>
        <time>2026-07-10T14:15:15Z</time>
      </trkpt>
      <trkpt lat="53.057988965883851" lon="-3.768758978694677">
        <ele>166.93000000000001</ele>
        <time>2026-07-10T14:15:16Z</time>
      </trkpt>
      <trkpt lat="53.058003969490528" lon="-3.768873978406191">
        <ele>166.93000000000001</ele>
        <time>2026-07-10T14:15:17Z</time>
      </trkpt>
      <trkpt lat="53.058016961440444" lon="-3.768985960632563">
        <ele>166.93000000000001</ele>
        <time>2026-07-10T14:15:18Z</time>
      </trkpt>
      <trkpt lat="53.058051997795701" lon="-3.769089980050921">
        <ele>166.93000000000001</ele>
        <time>2026-07-10T14:15:19Z</time>
      </trkpt>
      <trkpt lat="53.058103965595365" lon="-3.769212020561099">
        <ele>166.93000000000001</ele>
        <time>2026-07-10T14:15:20Z</time>
      </trkpt>
      <trkpt lat="53.058152999728918" lon="-3.769325008615851">
        <ele>167.41</ele>
        <time>2026-07-10T14:15:21Z</time>
      </trkpt>
      <trkpt lat="53.058189963921905" lon="-3.769411006942391">
        <ele>168.37</ele>
        <time>2026-07-10T14:15:22Z</time>
      </trkpt>
      <trkpt lat="53.058207985013723" lon="-3.769527012482286">
        <ele>168.84999999999999</ele>
        <time>2026-07-10T14:15:23Z</time>
      </trkpt>
      <trkpt lat="53.058197004720569" lon="-3.769615022465587">
        <ele>169.33000000000001</ele>
        <time>2026-07-10T14:15:24Z</time>
      </trkpt>
      <trkpt lat="53.058187030255795" lon="-3.769701020792127">
        <ele>170.28999999999999</ele>
        <time>2026-07-10T14:15:25Z</time>
      </trkpt>
      <trkpt lat="53.058174038305879" lon="-3.769801016896963">
        <ele>170.77000000000001</ele>
        <time>2026-07-10T14:15:26Z</time>
      </trkpt>
      <trkpt lat="53.058161968365312" lon="-3.769905958324671">
        <ele>171.25</ele>
        <time>2026-07-10T14:15:27Z</time>
      </trkpt>
      <trkpt lat="53.058148976415396" lon="-3.770006960257888">
        <ele>171.72999999999999</ele>
        <time>2026-07-10T14:15:28Z</time>
      </trkpt>
      <trkpt lat="53.058123998343945" lon="-3.770468970760703">
        <ele>173.66</ele>
        <time>2026-07-10T14:15:32Z</time>
      </trkpt>
      <trkpt lat="53.058144031092525" lon="-3.77061297185719">
        <ele>174.13999999999999</ele>
        <time>2026-07-10T14:15:33Z</time>
      </trkpt>
      <trkpt lat="53.058275962248445" lon="-3.771510003134608">
        <ele>176.53999999999999</ele>
        <time>2026-07-10T14:15:39Z</time>
      </trkpt>
      <trkpt lat="53.058388028293848" lon="-3.772034961730242">
        <ele>177.97999999999999</ele>
        <time>2026-07-10T14:15:43Z</time>
      </trkpt>
      <trkpt lat="53.05841501802206" lon="-3.772146021947265">
        <ele>177.97999999999999</ele>
        <time>2026-07-10T14:15:44Z</time>
      </trkpt>
      <trkpt lat="53.058462962508202" lon="-3.772248029708862">
        <ele>177.97999999999999</ele>
        <time>2026-07-10T14:15:45Z</time>
      </trkpt>
      <trkpt lat="53.058885997161269" lon="-3.773262994363904">
        <ele>171.72999999999999</ele>
        <time>2026-07-10T14:15:54Z</time>
      </trkpt>
      <trkpt lat="53.058901000767946" lon="-3.773331977427006">
        <ele>171.25</ele>
        <time>2026-07-10T14:15:55Z</time>
      </trkpt>
      <trkpt lat="53.058895971626043" lon="-3.773455023765564">
        <ele>170.77000000000001</ele>
        <time>2026-07-10T14:15:56Z</time>
      </trkpt>
      <trkpt lat="53.058892032131553" lon="-3.773560971021652">
        <ele>170.28999999999999</ele>
        <time>2026-07-10T14:15:57Z</time>
      </trkpt>
      <trkpt lat="53.05888700298965" lon="-3.773669013753533">
        <ele>169.81</ele>
        <time>2026-07-10T14:15:58Z</time>
      </trkpt>
      <trkpt lat="53.058882979676127" lon="-3.773779990151525">
        <ele>169.33000000000001</ele>
        <time>2026-07-10T14:15:59Z</time>
      </trkpt>
      <trkpt lat="53.058861019089818" lon="-3.774288017302752">
        <ele>166.44999999999999</ele>
        <time>2026-07-10T14:16:03Z</time>
      </trkpt>
      <trkpt lat="53.058768985792994" lon="-3.77574797719717">
        <ele>165.47999999999999</ele>
        <time>2026-07-10T14:16:13Z</time>
      </trkpt>
      <trkpt lat="53.058663960546255" lon="-3.776490027084947">
        <ele>166.44999999999999</ele>
        <time>2026-07-10T14:16:19Z</time>
      </trkpt>
      <trkpt lat="53.058634037151933" lon="-3.776580970734358">
        <ele>166.93000000000001</ele>
        <time>2026-07-10T14:16:20Z</time>
      </trkpt>
      <trkpt lat="53.058606963604689" lon="-3.776662023738027">
        <ele>166.93000000000001</ele>
        <time>2026-07-10T14:16:21Z</time>
      </trkpt>
      <trkpt lat="53.058576034381986" lon="-3.776754979044199">
        <ele>167.41</ele>
        <time>2026-07-10T14:16:22Z</time>
      </trkpt>
      <trkpt lat="53.058537980541587" lon="-3.776866961270571">
        <ele>167.41</ele>
        <time>2026-07-10T14:16:23Z</time>
      </trkpt>
      <trkpt lat="53.058493975549936" lon="-3.777000987902284">
        <ele>166.93000000000001</ele>
        <time>2026-07-10T14:16:24Z</time>
      </trkpt>
      <trkpt lat="53.058471009135246" lon="-3.777179019525647">
        <ele>166.93000000000001</ele>
        <time>2026-07-10T14:16:26Z</time>
      </trkpt>
      <trkpt lat="53.058460028842092" lon="-3.777411030605435">
        <ele>166.44999999999999</ele>
        <time>2026-07-10T14:16:28Z</time>
      </trkpt>
      <trkpt lat="53.058488024398685" lon="-3.777517983689904">
        <ele>166.44999999999999</ele>
        <time>2026-07-10T14:16:29Z</time>
      </trkpt>
      <trkpt lat="53.058534041047096" lon="-3.777589984238148">
        <ele>165.96000000000001</ele>
        <time>2026-07-10T14:16:30Z</time>
      </trkpt>
      <trkpt lat="53.058688016608357" lon="-3.77783096395433">
        <ele>164.03999999999999</ele>
        <time>2026-07-10T14:16:33Z</time>
      </trkpt>
      <trkpt lat="53.058743001893163" lon="-3.77791503444314">
        <ele>163.56</ele>
        <time>2026-07-10T14:16:34Z</time>
      </trkpt>
      <trkpt lat="53.058805027976632" lon="-3.778013018891215">
        <ele>162.59999999999999</ele>
        <time>2026-07-10T14:16:35Z</time>
      </trkpt>
      <trkpt lat="53.058871999382973" lon="-3.778117038309574">
        <ele>161.63999999999999</ele>
        <time>2026-07-10T14:16:36Z</time>
      </trkpt>
      <trkpt lat="53.058933019638062" lon="-3.778210999444127">
        <ele>161.16</ele>
        <time>2026-07-10T14:16:37Z</time>
      </trkpt>
      <trkpt lat="53.058984987437725" lon="-3.778292974457145">
        <ele>160.68000000000001</ele>
        <time>2026-07-10T14:16:38Z</time>
      </trkpt>
      <trkpt lat="53.059045001864433" lon="-3.778438987210393">
        <ele>160.19999999999999</ele>
        <time>2026-07-10T14:16:39Z</time>
      </trkpt>
      <trkpt lat="53.059031004086137" lon="-3.778520962223411">
        <ele>159.72</ele>
        <time>2026-07-10T14:16:40Z</time>
      </trkpt>
      <trkpt lat="53.059014994651079" lon="-3.778624981641769">
        <ele>158.75</ele>
        <time>2026-07-10T14:16:41Z</time>
      </trkpt>
      <trkpt lat="53.05899403989315" lon="-3.778753979131579">
        <ele>158.27000000000001</ele>
        <time>2026-07-10T14:16:42Z</time>
      </trkpt>
      <trkpt lat="53.058969983831048" lon="-3.778900997713208">
        <ele>158.27000000000001</ele>
        <time>2026-07-10T14:16:43Z</time>
      </trkpt>
      <trkpt lat="53.058942994102836" lon="-3.779066037386656">
        <ele>158.27000000000001</ele>
        <time>2026-07-10T14:16:44Z</time>
      </trkpt>
      <trkpt lat="53.058792036026716" lon="-3.779665008187294">
        <ele>159.72</ele>
        <time>2026-07-10T14:16:48Z</time>
      </trkpt>
      <trkpt lat="53.058750964701176" lon="-3.779812026768923">
        <ele>160.68000000000001</ele>
        <time>2026-07-10T14:16:49Z</time>
      </trkpt>
      <trkpt lat="53.058750964701176" lon="-3.780167000368238">
        <ele>163.08000000000001</ele>
        <time>2026-07-10T14:16:52Z</time>
      </trkpt>
      <trkpt lat="53.058793963864446" lon="-3.780504036694765">
        <ele>163.56</ele>
        <time>2026-07-10T14:16:54Z</time>
      </trkpt>
      <trkpt lat="53.05882103741169" lon="-3.780664969235659">
        <ele>163.56</ele>
        <time>2026-07-10T14:16:55Z</time>
      </trkpt>
      <trkpt lat="53.058869987726212" lon="-3.78096898086369">
        <ele>162.12</ele>
        <time>2026-07-10T14:16:57Z</time>
      </trkpt>
      <trkpt lat="53.058893959969282" lon="-3.781111976131797">
        <ele>161.63999999999999</ele>
        <time>2026-07-10T14:16:58Z</time>
      </trkpt>
      <trkpt lat="53.058916004374623" lon="-3.781244996935129">
        <ele>160.68000000000001</ele>
        <time>2026-07-10T14:16:59Z</time>
      </trkpt>
      <trkpt lat="53.058935031294823" lon="-3.781365025788546">
        <ele>159.72</ele>
        <time>2026-07-10T14:17:00Z</time>
      </trkpt>
      <trkpt lat="53.058970989659429" lon="-3.781472984701395">
        <ele>158.75</ele>
        <time>2026-07-10T14:17:01Z</time>
      </trkpt>
      <trkpt lat="53.059011977165937" lon="-3.781551020219922">
        <ele>157.78999999999999</ele>
        <time>2026-07-10T14:17:02Z</time>
      </trkpt>
      <trkpt lat="53.059123959392309" lon="-3.781766016036272">
        <ele>155.38999999999999</ele>
        <time>2026-07-10T14:17:05Z</time>
      </trkpt>
      <trkpt lat="53.059150027111173" lon="-3.781814966350794">
        <ele>154.43000000000001</ele>
        <time>2026-07-10T14:17:06Z</time>
      </trkpt>
      <trkpt lat="53.05916796438396" lon="-3.78184899687767">
        <ele>152.99000000000001</ele>
        <time>2026-07-10T14:17:07Z</time>
      </trkpt>
      <trkpt lat="53.059182967990637" lon="-3.781877998262644">
        <ele>152.50999999999999</ele>
        <time>2026-07-10T14:17:08Z</time>
      </trkpt>
      <trkpt lat="53.059195037931204" lon="-3.781901970505714">
        <ele>151.53999999999999</ele>
        <time>2026-07-10T14:17:09Z</time>
      </trkpt>
      <trkpt lat="53.059169976040721" lon="-3.781961984932423">
        <ele>149.13999999999999</ele>
        <time>2026-07-10T14:17:13Z</time>
      </trkpt>
      <trkpt lat="53.05914499796927" lon="-3.78199802711606">
        <ele>148.18000000000001</ele>
        <time>2026-07-10T14:17:14Z</time>
      </trkpt>
      <trkpt lat="53.059101998806" lon="-3.782059969380498">
        <ele>147.69999999999999</ele>
        <time>2026-07-10T14:17:15Z</time>
      </trkpt>
      <trkpt lat="53.058776026591659" lon="-3.78253597766161">
        <ele>145.30000000000001</ele>
        <time>2026-07-10T14:17:19Z</time>
      </trkpt>
      <trkpt lat="53.05867301300168" lon="-3.782675033435226">
        <ele>145.30000000000001</ele>
        <time>2026-07-10T14:17:20Z</time>
      </trkpt>
      <trkpt lat="53.058538986369967" lon="-3.782768994569778">
        <ele>144.81999999999999</ele>
        <time>2026-07-10T14:17:21Z</time>
      </trkpt>
      <trkpt lat="53.058110000565648" lon="-3.783111982047558">
        <ele>145.30000000000001</ele>
        <time>2026-07-10T14:17:24Z</time>
      </trkpt>
      <trkpt lat="53.056937037035823" lon="-3.784386031329632">
        <ele>149.62</ele>
        <time>2026-07-10T14:17:32Z</time>
      </trkpt>
      <trkpt lat="53.056132039055228" lon="-3.785108970478177">
        <ele>151.06</ele>
        <time>2026-07-10T14:17:37Z</time>
      </trkpt>
      <trkpt lat="53.054584991186857" lon="-3.786377990618348">
        <ele>150.09999999999999</ele>
        <time>2026-07-10T14:17:46Z</time>
      </trkpt>
      <trkpt lat="53.054080987349153" lon="-3.786909990012646">
        <ele>148.18000000000001</ele>
        <time>2026-07-10T14:17:49Z</time>
      </trkpt>
      <trkpt lat="53.053491991013288" lon="-3.787823030725122">
        <ele>146.74000000000001</ele>
        <time>2026-07-10T14:17:53Z</time>
      </trkpt>
      <trkpt lat="53.052456993609667" lon="-3.789392039179802">
        <ele>146.74000000000001</ele>
        <time>2026-07-10T14:18:00Z</time>
      </trkpt>
      <trkpt lat="53.051295010372996" lon="-3.79102198407054">
        <ele>147.69999999999999</ele>
        <time>2026-07-10T14:18:08Z</time>
      </trkpt>
      <trkpt lat="53.049874026328325" lon="-3.792720995843411">
        <ele>147.69999999999999</ele>
        <time>2026-07-10T14:18:17Z</time>
      </trkpt>
      <trkpt lat="53.048738026991487" lon="-3.793840985745192">
        <ele>151.53999999999999</ele>
        <time>2026-07-10T14:18:24Z</time>
      </trkpt>
      <trkpt lat="53.047292986884713" lon="-3.795754993334413">
        <ele>157.78999999999999</ele>
        <time>2026-07-10T14:18:34Z</time>
      </trkpt>
      <trkpt lat="53.047000961378217" lon="-3.796063028275967">
        <ele>159.24000000000001</ele>
        <time>2026-07-10T14:18:36Z</time>
      </trkpt>
      <trkpt lat="53.046606006100774" lon="-3.796387994661927">
        <ele>160.68000000000001</ele>
        <time>2026-07-10T14:18:40Z</time>
      </trkpt>
      <trkpt lat="53.045661030337214" lon="-3.797055026516318">
        <ele>157.78999999999999</ele>
        <time>2026-07-10T14:18:51Z</time>
      </trkpt>
      <trkpt lat="53.044973965734243" lon="-3.797534974291921">
        <ele>157.78999999999999</ele>
        <time>2026-07-10T14:19:00Z</time>
      </trkpt>
      <trkpt lat="53.043991019949317" lon="-3.798331003636122">
        <ele>158.75</ele>
        <time>2026-07-10T14:19:11Z</time>
      </trkpt>
      <trkpt lat="53.043065993115306" lon="-3.7992940004915">
        <ele>159.72</ele>
        <time>2026-07-10T14:19:22Z</time>
      </trkpt>
      <trkpt lat="53.042098972946405" lon="-3.800678020343185">
        <ele>156.34999999999999</ele>
        <time>2026-07-10T14:19:34Z</time>
      </trkpt>
      <trkpt lat="53.041702006012201" lon="-3.801256036385894">
        <ele>153.94999999999999</ele>
        <time>2026-07-10T14:19:39Z</time>
      </trkpt>
      <trkpt lat="53.04120697081089" lon="-3.801817037165165">
        <ele>149.13999999999999</ele>
        <time>2026-07-10T14:19:45Z</time>
      </trkpt>
      <trkpt lat="53.041121978312731" lon="-3.801883002743125">
        <ele>148.18000000000001</ele>
        <time>2026-07-10T14:19:46Z</time>
      </trkpt>
      <trkpt lat="53.041041009128094" lon="-3.801946034654975">
        <ele>147.22</ele>
        <time>2026-07-10T14:19:47Z</time>
      </trkpt>
      <trkpt lat="53.040021015331149" lon="-3.802819009870291">
        <ele>146.74000000000001</ele>
        <time>2026-07-10T14:20:00Z</time>
      </trkpt>
      <trkpt lat="53.039447022601962" lon="-3.803294012323022">
        <ele>149.62</ele>
        <time>2026-07-10T14:20:08Z</time>
      </trkpt>
      <trkpt lat="53.03937996737659" lon="-3.803328964859247">
        <ele>150.58000000000001</ele>
        <time>2026-07-10T14:20:09Z</time>
      </trkpt>
      <trkpt lat="53.039307966828346" lon="-3.803366012871265">
        <ele>150.58000000000001</ele>
        <time>2026-07-10T14:20:10Z</time>
      </trkpt>
      <trkpt lat="53.038922986015677" lon="-3.803563993424177">
        <ele>152.03</ele>
        <time>2026-07-10T14:20:15Z</time>
      </trkpt>
      <trkpt lat="53.038566000759602" lon="-3.803793992847204">
        <ele>152.50999999999999</ele>
        <time>2026-07-10T14:20:20Z</time>
      </trkpt>
      <trkpt lat="53.038496011868119" lon="-3.803844032809138">
        <ele>152.03</ele>
        <time>2026-07-10T14:20:21Z</time>
      </trkpt>
      <trkpt lat="53.038458041846752" lon="-3.803947968408465">
        <ele>151.53999999999999</ele>
        <time>2026-07-10T14:20:22Z</time>
      </trkpt>
      <trkpt lat="53.038424011319876" lon="-3.804044025018811">
        <ele>151.06</ele>
        <time>2026-07-10T14:20:23Z</time>
      </trkpt>
      <trkpt lat="53.038387969136238" lon="-3.804145026952028">
        <ele>151.06</ele>
        <time>2026-07-10T14:20:24Z</time>
      </trkpt>
      <trkpt lat="53.038387969136238" lon="-3.804274024441838">
        <ele>150.58000000000001</ele>
        <time>2026-07-10T14:20:25Z</time>
      </trkpt>
      <trkpt lat="53.038387969136238" lon="-3.804423976689577">
        <ele>151.06</ele>
        <time>2026-07-10T14:20:26Z</time>
      </trkpt>
      <trkpt lat="53.038523001596332" lon="-3.805876979604363">
        <ele>155.38999999999999</ele>
        <time>2026-07-10T14:20:37Z</time>
      </trkpt>
      <trkpt lat="53.038620986044407" lon="-3.806293979287148">
        <ele>155.87</ele>
        <time>2026-07-10T14:20:41Z</time>
      </trkpt>
      <trkpt lat="53.038700027391315" lon="-3.806629003956914">
        <ele>156.34999999999999</ele>
        <time>2026-07-10T14:20:45Z</time>
      </trkpt>
      <trkpt lat="53.038706984370947" lon="-3.806704021990299">
        <ele>156.34999999999999</ele>
        <time>2026-07-10T14:20:46Z</time>
      </trkpt>
      <trkpt lat="53.038675971329212" lon="-3.8067920319736">
        <ele>156.34999999999999</ele>
        <time>2026-07-10T14:20:47Z</time>
      </trkpt>
      <trkpt lat="53.038634983822703" lon="-3.806852968409658">
        <ele>156.34999999999999</ele>
        <time>2026-07-10T14:20:48Z</time>
      </trkpt>
      <trkpt lat="53.038590978831053" lon="-3.806910971179605">
        <ele>156.34999999999999</ele>
        <time>2026-07-10T14:20:49Z</time>
      </trkpt>
      <trkpt lat="53.038538005203009" lon="-3.806975008919835">
        <ele>156.34999999999999</ele>
        <time>2026-07-10T14:20:50Z</time>
      </trkpt>
      <trkpt lat="53.03847698494792" lon="-3.80704902112484">
        <ele>155.87</ele>
        <time>2026-07-10T14:20:51Z</time>
      </trkpt>
      <trkpt lat="53.038395009934902" lon="-3.807122027501464">
        <ele>155.87</ele>
        <time>2026-07-10T14:20:52Z</time>
      </trkpt>
      <trkpt lat="53.038301970809698" lon="-3.807164020836353">
        <ele>155.87</ele>
        <time>2026-07-10T14:20:53Z</time>
      </trkpt>
      <trkpt lat="53.037658995017409" lon="-3.807455040514469">
        <ele>157.31</ele>
        <time>2026-07-10T14:21:00Z</time>
      </trkpt>
      <trkpt lat="53.037571990862489" lon="-3.807494016364217">
        <ele>157.78999999999999</ele>
        <time>2026-07-10T14:21:01Z</time>
      </trkpt>
      <trkpt lat="53.036604970693588" lon="-3.807940017431974">
        <ele>159.24000000000001</ele>
        <time>2026-07-10T14:21:10Z</time>
      </trkpt>
      <trkpt lat="53.035376016050577" lon="-3.808528007939458">
        <ele>156.83000000000001</ele>
        <time>2026-07-10T14:21:19Z</time>
      </trkpt>
      <trkpt lat="53.034125017002225" lon="-3.809422021731734">
        <ele>155.87</ele>
        <time>2026-07-10T14:21:27Z</time>
      </trkpt>
      <trkpt lat="53.032828001305461" lon="-3.81040396168828">
        <ele>158.75</ele>
        <time>2026-07-10T14:21:36Z</time>
      </trkpt>
      <trkpt lat="53.032078994438052" lon="-3.810624992474914">
        <ele>160.68000000000001</ele>
        <time>2026-07-10T14:21:41Z</time>
      </trkpt>
      <trkpt lat="53.031977992504835" lon="-3.810705961659551">
        <ele>160.68000000000001</ele>
        <time>2026-07-10T14:21:42Z</time>
      </trkpt>
      <trkpt lat="53.031848995015025" lon="-3.810807969421148">
        <ele>160.68000000000001</ele>
        <time>2026-07-10T14:21:43Z</time>
      </trkpt>
      <trkpt lat="53.031718991696835" lon="-3.810911988839507">
        <ele>160.68000000000001</ele>
        <time>2026-07-10T14:21:44Z</time>
      </trkpt>
      <trkpt lat="53.031584965065122" lon="-3.811018019914627">
        <ele>160.68000000000001</ele>
        <time>2026-07-10T14:21:45Z</time>
      </trkpt>
      <trkpt lat="53.031189003959298" lon="-3.811309039592743">
        <ele>160.68000000000001</ele>
        <time>2026-07-10T14:21:48Z</time>
      </trkpt>
      <trkpt lat="53.030894966796041" lon="-3.811411969363689">
        <ele>161.16</ele>
        <time>2026-07-10T14:21:50Z</time>
      </trkpt>
      <trkpt lat="53.030198011547327" lon="-3.811735007911921">
        <ele>160.19999999999999</ele>
        <time>2026-07-10T14:21:55Z</time>
      </trkpt>
      <trkpt lat="53.02977598272264" lon="-3.812060980126262">
        <ele>158.75</ele>
        <time>2026-07-10T14:21:58Z</time>
      </trkpt>
      <trkpt lat="53.028524983674288" lon="-3.813250958919525">
        <ele>155.38999999999999</ele>
        <time>2026-07-10T14:22:07Z</time>
      </trkpt>
      <trkpt lat="53.027015989646316" lon="-3.814599020406604">
        <ele>155.38999999999999</ele>
        <time>2026-07-10T14:22:18Z</time>
      </trkpt>
      <trkpt lat="53.025839002802968" lon="-3.81603199057281">
        <ele>160.19999999999999</ele>
        <time>2026-07-10T14:22:27Z</time>
      </trkpt>
      <trkpt lat="53.025058982893825" lon="-3.81723496131599">
        <ele>162.59999999999999</ele>
        <time>2026-07-10T14:22:34Z</time>
      </trkpt>
      <trkpt lat="53.024964015930891" lon="-3.817317020148039">
        <ele>162.59999999999999</ele>
        <time>2026-07-10T14:22:35Z</time>
      </trkpt>
      <trkpt lat="53.024869970977306" lon="-3.817397989332676">
        <ele>163.08000000000001</ele>
        <time>2026-07-10T14:22:36Z</time>
      </trkpt>
      <trkpt lat="53.024593032896519" lon="-3.817637041211128">
        <ele>163.56</ele>
        <time>2026-07-10T14:22:39Z</time>
      </trkpt>
      <trkpt lat="53.024502005428076" lon="-3.817715998739004">
        <ele>163.56</ele>
        <time>2026-07-10T14:22:40Z</time>
      </trkpt>
      <trkpt lat="53.02431701682508" lon="-3.817876009270549">
        <ele>164.03999999999999</ele>
        <time>2026-07-10T14:22:42Z</time>
      </trkpt>
      <trkpt lat="53.024160023778677" lon="-3.818110032007098">
        <ele>164.03999999999999</ele>
        <time>2026-07-10T14:22:44Z</time>
      </trkpt>
      <trkpt lat="53.024078970775008" lon="-3.818241963163018">
        <ele>163.56</ele>
        <time>2026-07-10T14:22:45Z</time>
      </trkpt>
      <trkpt lat="53.023993978276849" lon="-3.818379007279873">
        <ele>163.56</ele>
        <time>2026-07-10T14:22:46Z</time>
      </trkpt>
      <trkpt lat="53.023908985778689" lon="-3.818516973406076">
        <ele>163.08000000000001</ele>
        <time>2026-07-10T14:22:47Z</time>
      </trkpt>
      <trkpt lat="53.023787029087543" lon="-3.818672960624099">
        <ele>163.08000000000001</ele>
        <time>2026-07-10T14:22:48Z</time>
      </trkpt>
      <trkpt lat="53.023673035204411" lon="-3.818765999749303">
        <ele>163.08000000000001</ele>
        <time>2026-07-10T14:22:49Z</time>
      </trkpt>
      <trkpt lat="53.023557029664516" lon="-3.818861972540617">
        <ele>163.56</ele>
        <time>2026-07-10T14:22:50Z</time>
      </trkpt>
      <trkpt lat="53.023440018296242" lon="-3.818959034979343">
        <ele>164.03999999999999</ele>
        <time>2026-07-10T14:22:51Z</time>
      </trkpt>
      <trkpt lat="53.022230006754398" lon="-3.819958996027708">
        <ele>167.88999999999999</ele>
        <time>2026-07-10T14:23:00Z</time>
      </trkpt>
      <trkpt lat="53.021385027095675" lon="-3.821375034749508">
        <ele>166.44999999999999</ele>
        <time>2026-07-10T14:23:07Z</time>
      </trkpt>
      <trkpt lat="53.020941037684679" lon="-3.822353035211563">
        <ele>164.52000000000001</ele>
        <time>2026-07-10T14:23:11Z</time>
      </trkpt>
      <trkpt lat="53.020766023546457" lon="-3.822511034086347">
        <ele>164.03999999999999</ele>
        <time>2026-07-10T14:23:12Z</time>
      </trkpt>
      <trkpt lat="53.019498009234667" lon="-3.823435977101326">
        <ele>165.96000000000001</ele>
        <time>2026-07-10T14:23:20Z</time>
      </trkpt>
      <trkpt lat="53.019382003694773" lon="-3.823558017611504">
        <ele>166.44999999999999</ele>
        <time>2026-07-10T14:23:21Z</time>
      </trkpt>
      <trkpt lat="53.019286030903459" lon="-3.823752980679274">
        <ele>166.93000000000001</ele>
        <time>2026-07-10T14:23:22Z</time>
      </trkpt>
      <trkpt lat="53.019201960414648" lon="-3.82395900785923">
        <ele>166.44999999999999</ele>
        <time>2026-07-10T14:23:23Z</time>
      </trkpt>
      <trkpt lat="53.019111016765237" lon="-3.824180038645864">
        <ele>166.44999999999999</ele>
        <time>2026-07-10T14:23:24Z</time>
      </trkpt>
      <trkpt lat="53.019017977640033" lon="-3.824406014755368">
        <ele>166.44999999999999</ele>
        <time>2026-07-10T14:23:25Z</time>
      </trkpt>
      <trkpt lat="53.018926028162241" lon="-3.824629979208112">
        <ele>166.44999999999999</ele>
        <time>2026-07-10T14:23:26Z</time>
      </trkpt>
      <trkpt lat="53.018830977380276" lon="-3.824844975024462">
        <ele>166.44999999999999</ele>
        <time>2026-07-10T14:23:27Z</time>
      </trkpt>
      <trkpt lat="53.018727041780949" lon="-3.825046978890896">
        <ele>166.44999999999999</ele>
        <time>2026-07-10T14:23:28Z</time>
      </trkpt>
      <trkpt lat="53.01862402819097" lon="-3.825245965272188">
        <ele>166.44999999999999</ele>
        <time>2026-07-10T14:23:29Z</time>
      </trkpt>
      <trkpt lat="53.018531994894147" lon="-3.825447969138622">
        <ele>165.96000000000001</ele>
        <time>2026-07-10T14:23:30Z</time>
      </trkpt>
      <trkpt lat="53.018486984074116" lon="-3.825672017410398">
        <ele>166.44999999999999</ele>
        <time>2026-07-10T14:23:31Z</time>
      </trkpt>
      <trkpt lat="53.018439961597323" lon="-3.825906962156296">
        <ele>166.44999999999999</ele>
        <time>2026-07-10T14:23:32Z</time>
      </trkpt>
      <trkpt lat="53.018391011282802" lon="-3.826151965186">
        <ele>165.96000000000001</ele>
        <time>2026-07-10T14:23:33Z</time>
      </trkpt>
      <trkpt lat="53.018286991864443" lon="-3.826643982902169">
        <ele>165.96000000000001</ele>
        <time>2026-07-10T14:23:35Z</time>
      </trkpt>
      <trkpt lat="53.018212979659438" lon="-3.826882028952241">
        <ele>165.96000000000001</ele>
        <time>2026-07-10T14:23:36Z</time>
      </trkpt>
      <trkpt lat="53.017496997490525" lon="-3.828798970207572">
        <ele>165.47999999999999</ele>
        <time>2026-07-10T14:23:44Z</time>
      </trkpt>
      <trkpt lat="53.017416028305888" lon="-3.828980019316077">
        <ele>165.96000000000001</ele>
        <time>2026-07-10T14:23:45Z</time>
      </trkpt>
      <trkpt lat="53.016684036701918" lon="-3.830159017816186">
        <ele>167.41</ele>
        <time>2026-07-10T14:23:52Z</time>
      </trkpt>
      <trkpt lat="53.016309030354023" lon="-3.830679031088948">
        <ele>167.41</ele>
        <time>2026-07-10T14:23:57Z</time>
      </trkpt>
      <trkpt lat="53.016235018149018" lon="-3.830782966688275">
        <ele>167.88999999999999</ele>
        <time>2026-07-10T14:23:58Z</time>
      </trkpt>
      <trkpt lat="53.016179027035832" lon="-3.830859996378422">
        <ele>167.88999999999999</ele>
        <time>2026-07-10T14:23:59Z</time>
      </trkpt>
      <trkpt lat="53.016095962375402" lon="-3.830859996378422">
        <ele>167.88999999999999</ele>
        <time>2026-07-10T14:24:00Z</time>
      </trkpt>
      <trkpt lat="53.016071990132332" lon="-3.830859996378422">
        <ele>167.88999999999999</ele>
        <time>2026-07-10T14:24:01Z</time>
      </trkpt>
      <trkpt lat="53.016005018725991" lon="-3.830779027193785">
        <ele>168.37</ele>
        <time>2026-07-10T14:24:02Z</time>
      </trkpt>
      <trkpt lat="53.015965037047863" lon="-3.830730998888612">
        <ele>168.37</ele>
        <time>2026-07-10T14:24:03Z</time>
      </trkpt>
      <trkpt lat="53.015883984044194" lon="-3.830669978633523">
        <ele>168.84999999999999</ele>
        <time>2026-07-10T14:24:04Z</time>
      </trkpt>
      <trkpt lat="53.015819024294615" lon="-3.830622034147382">
        <ele>168.84999999999999</ele>
        <time>2026-07-10T14:24:05Z</time>
      </trkpt>
      <trkpt lat="53.015718022361398" lon="-3.830639971420169">
        <ele>168.84999999999999</ele>
        <time>2026-07-10T14:24:06Z</time>
      </trkpt>
      <trkpt lat="53.015663959085941" lon="-3.830666961148381">
        <ele>168.84999999999999</ele>
        <time>2026-07-10T14:24:07Z</time>
      </trkpt>
      <trkpt lat="53.015581984072924" lon="-3.830797970294952">
        <ele>169.33000000000001</ele>
        <time>2026-07-10T14:24:08Z</time>
      </trkpt>
      <trkpt lat="53.015520963817835" lon="-3.830896038562059">
        <ele>169.33000000000001</ele>
        <time>2026-07-10T14:24:09Z</time>
      </trkpt>
      <trkpt lat="53.015460027381778" lon="-3.830993017181754">
        <ele>169.81</ele>
        <time>2026-07-10T14:24:10Z</time>
      </trkpt>
      <trkpt lat="53.015419039875269" lon="-3.831102987751365">
        <ele>170.28999999999999</ele>
        <time>2026-07-10T14:24:11Z</time>
      </trkpt>
      <trkpt lat="53.015374029055238" lon="-3.831238020211458">
        <ele>170.28999999999999</ele>
        <time>2026-07-10T14:24:12Z</time>
      </trkpt>
      <trkpt lat="53.015323989093304" lon="-3.831385960802436">
        <ele>170.28999999999999</ele>
        <time>2026-07-10T14:24:13Z</time>
      </trkpt>
      <trkpt lat="53.015050990507007" lon="-3.832312999293208">
        <ele>172.69</ele>
        <time>2026-07-10T14:24:18Z</time>
      </trkpt>
      <trkpt lat="53.015031041577458" lon="-3.832529000937939">
        <ele>173.16999999999999</ele>
        <time>2026-07-10T14:24:19Z</time>
      </trkpt>
      <trkpt lat="53.015012014657259" lon="-3.832742990925908">
        <ele>173.66</ele>
        <time>2026-07-10T14:24:20Z</time>
      </trkpt>
      <trkpt lat="53.01499399356544" lon="-3.832948012277484">
        <ele>174.13999999999999</ele>
        <time>2026-07-10T14:24:21Z</time>
      </trkpt>
      <trkpt lat="53.014976978302002" lon="-3.833146998658776">
        <ele>174.62</ele>
        <time>2026-07-10T14:24:22Z</time>
      </trkpt>
      <trkpt lat="53.014682019129395" lon="-3.835274996235967">
        <ele>181.34999999999999</ele>
        <time>2026-07-10T14:24:32Z</time>
      </trkpt>
      <trkpt lat="53.014366021379828" lon="-3.837041985243559">
        <ele>186.15000000000001</ele>
        <time>2026-07-10T14:24:40Z</time>
      </trkpt>
      <trkpt lat="53.014330985024571" lon="-3.83723602630198">
        <ele>186.63</ele>
        <time>2026-07-10T14:24:41Z</time>
      </trkpt>
      <trkpt lat="53.014270970597863" lon="-3.837396958842874">
        <ele>186.63</ele>
        <time>2026-07-10T14:24:42Z</time>
      </trkpt>
      <trkpt lat="53.014194024726748" lon="-3.837502989917994">
        <ele>186.63</ele>
        <time>2026-07-10T14:24:43Z</time>
      </trkpt>
      <trkpt lat="53.014116995036602" lon="-3.837610026821494">
        <ele>186.63</ele>
        <time>2026-07-10T14:24:44Z</time>
      </trkpt>
      <trkpt lat="53.014046000316739" lon="-3.837707005441189">
        <ele>186.15000000000001</ele>
        <time>2026-07-10T14:24:45Z</time>
      </trkpt>
      <trkpt lat="53.013525987043977" lon="-3.838426005095244">
        <ele>182.78999999999999</ele>
        <time>2026-07-10T14:24:53Z</time>
      </trkpt>
      <trkpt lat="53.013466978445649" lon="-3.838507980108261">
        <ele>182.78999999999999</ele>
        <time>2026-07-10T14:24:54Z</time>
      </trkpt>
      <trkpt lat="53.013410987332463" lon="-3.838584003970027">
        <ele>182.78999999999999</ele>
        <time>2026-07-10T14:24:55Z</time>
      </trkpt>
      <trkpt lat="53.013391038402915" lon="-3.838617028668523">
        <ele>182.78999999999999</ele>
        <time>2026-07-10T14:24:56Z</time>
      </trkpt>
      <trkpt lat="53.013375028967857" lon="-3.838643012568355">
        <ele>182.78999999999999</ele>
        <time>2026-07-10T14:24:57Z</time>
      </trkpt>
      <trkpt lat="53.013352984562516" lon="-3.83867796510458">
        <ele>182.31</ele>
        <time>2026-07-10T14:25:04Z</time>
      </trkpt>
      <trkpt lat="53.013301016762853" lon="-3.838762035593391">
        <ele>181.83000000000001</ele>
        <time>2026-07-10T14:25:06Z</time>
      </trkpt>
      <trkpt lat="53.013258017599583" lon="-3.838833030313253">
        <ele>182.31</ele>
        <time>2026-07-10T14:25:07Z</time>
      </trkpt>
      <trkpt lat="53.012795001268387" lon="-3.839581031352282">
        <ele>186.15000000000001</ele>
        <time>2026-07-10T14:25:14Z</time>
      </trkpt>
      <trkpt lat="53.012725012376904" lon="-3.839695025235415">
        <ele>186.15000000000001</ele>
        <time>2026-07-10T14:25:15Z</time>
      </trkpt>
      <trkpt lat="53.012643959373236" lon="-3.839787980541587">
        <ele>186.63</ele>
        <time>2026-07-10T14:25:16Z</time>
      </trkpt>
      <trkpt lat="53.01254304125905" lon="-3.839851012453437">
        <ele>186.63</ele>
        <time>2026-07-10T14:25:17Z</time>
      </trkpt>
      <trkpt lat="53.011688003316522" lon="-3.840385023504496">
        <ele>194.31999999999999</ele>
        <time>2026-07-10T14:25:25Z</time>
      </trkpt>
      <trkpt lat="53.01159999333322" lon="-3.840460041537881">
        <ele>195.28</ele>
        <time>2026-07-10T14:25:26Z</time>
      </trkpt>
      <trkpt lat="53.0115129891783" lon="-3.84054696187377">
        <ele>195.77000000000001</ele>
        <time>2026-07-10T14:25:27Z</time>
      </trkpt>
      <trkpt lat="53.011159021407366" lon="-3.840901013463736">
        <ele>197.21000000000001</ele>
        <time>2026-07-10T14:25:31Z</time>
      </trkpt>
      <trkpt lat="53.011084003373981" lon="-3.840976031497121">
        <ele>197.69</ele>
        <time>2026-07-10T14:25:32Z</time>
      </trkpt>
      <trkpt lat="53.011006973683834" lon="-3.841012995690107">
        <ele>197.69</ele>
        <time>2026-07-10T14:25:33Z</time>
      </trkpt>
      <trkpt lat="53.010923992842436" lon="-3.841021964326501">
        <ele>198.16999999999999</ele>
        <time>2026-07-10T14:25:34Z</time>
      </trkpt>
      <trkpt lat="53.010831037536263" lon="-3.841029005125165">
        <ele>198.65000000000001</ele>
        <time>2026-07-10T14:25:35Z</time>
      </trkpt>
      <trkpt lat="53.010728023946285" lon="-3.841002015396953">
        <ele>199.13</ele>
        <time>2026-07-10T14:25:36Z</time>
      </trkpt>
      <trkpt lat="53.010616041719913" lon="-3.840972008183599">
        <ele>200.09</ele>
        <time>2026-07-10T14:25:37Z</time>
      </trkpt>
      <trkpt lat="53.009569980204105" lon="-3.840655004605651">
        <ele>212.59</ele>
        <time>2026-07-10T14:25:47Z</time>
      </trkpt>
      <trkpt lat="53.009503008797765" lon="-3.840599013492465">
        <ele>213.55000000000001</ele>
        <time>2026-07-10T14:25:48Z</time>
      </trkpt>
      <trkpt lat="53.008965980261564" lon="-3.840168016031385">
        <ele>220.75999999999999</ele>
        <time>2026-07-10T14:25:54Z</time>
      </trkpt>
      <trkpt lat="53.008847963064909" lon="-3.840148989111185">
        <ele>222.19999999999999</ele>
        <time>2026-07-10T14:25:55Z</time>
      </trkpt>
      <trkpt lat="53.007467966526747" lon="-3.839913960546255">
        <ele>239.99000000000001</ele>
        <time>2026-07-10T14:26:05Z</time>
      </trkpt>
      <trkpt lat="53.006037008017302" lon="-3.839540965855122">
        <ele>260.64999999999998</ele>
        <time>2026-07-10T14:26:14Z</time>
      </trkpt>
      <trkpt lat="53.005030006170273" lon="-3.839279031381011">
        <ele>278.92000000000002</ele>
        <time>2026-07-10T14:26:22Z</time>
      </trkpt>
      <trkpt lat="53.004996981471777" lon="-3.839269978925586">
        <ele>280.83999999999997</ele>
        <time>2026-07-10T14:26:23Z</time>
      </trkpt>
      <trkpt lat="53.004974015057087" lon="-3.839263021945953">
        <ele>282.27999999999997</ele>
        <time>2026-07-10T14:26:24Z</time>
      </trkpt>
      <trkpt lat="53.00495901145041" lon="-3.83925799280405">
        <ele>283.25</ele>
        <time>2026-07-10T14:26:25Z</time>
      </trkpt>
      <trkpt lat="53.00495901145041" lon="-3.83925799280405">
        <ele>285.17000000000002</ele>
        <time>2026-07-10T14:26:37Z</time>
      </trkpt>
      <trkpt lat="53.00495901145041" lon="-3.83925799280405">
        <ele>286.13</ele>
        <time>2026-07-10T14:27:24Z</time>
      </trkpt>
      <trkpt lat="53.00495901145041" lon="-3.83925799280405">
        <ele>286.61000000000001</ele>
        <time>2026-07-10T14:28:21Z</time>
      </trkpt>
      <trkpt lat="53.00495901145041" lon="-3.83925799280405">
        <ele>286.61000000000001</ele>
        <time>2026-07-10T14:29:03Z</time>
      </trkpt>
      <trkpt lat="53.004851974546909" lon="-3.839222034439445">
        <ele>285.64999999999998</ele>
        <time>2026-07-10T14:29:14Z</time>
      </trkpt>
      <trkpt lat="53.004783997312188" lon="-3.839199990034103">
        <ele>286.13</ele>
        <time>2026-07-10T14:29:15Z</time>
      </trkpt>
      <trkpt lat="53.003959972411394" lon="-3.838929003104568">
        <ele>291.42000000000002</ele>
        <time>2026-07-10T14:29:24Z</time>
      </trkpt>
      <trkpt lat="53.002633033320308" lon="-3.838404966518283">
        <ele>299.11000000000001</ele>
        <time>2026-07-10T14:29:34Z</time>
      </trkpt>
      <trkpt lat="53.001234009861946" lon="-3.838001964613795">
        <ele>314.49000000000001</ele>
        <time>2026-07-10T14:29:44Z</time>
      </trkpt>
      <trkpt lat="53.000960005447268" lon="-3.838033983483911">
        <ele>318.81</ele>
        <time>2026-07-10T14:29:47Z</time>
      </trkpt>
      <trkpt lat="53.000841988250613" lon="-3.838067008182406">
        <ele>320.25999999999999</ele>
        <time>2026-07-10T14:29:48Z</time>
      </trkpt>
      <trkpt lat="52.999603981152177" lon="-3.83846003562212">
        <ele>335.63999999999999</ele>
        <time>2026-07-10T14:29:56Z</time>
      </trkpt>
      <trkpt lat="52.998993024230003" lon="-3.838780978694558">
        <ele>343.81</ele>
        <time>2026-07-10T14:30:00Z</time>
      </trkpt>
      <trkpt lat="52.998851034790277" lon="-3.838927997276187">
        <ele>345.73000000000002</ele>
        <time>2026-07-10T14:30:01Z</time>
      </trkpt>
      <trkpt lat="52.997879991307855" lon="-3.839936004951596">
        <ele>362.06999999999999</ele>
        <time>2026-07-10T14:30:08Z</time>
      </trkpt>
      <trkpt lat="52.996858991682529" lon="-3.840862037613988">
        <ele>378.89999999999998</ele>
        <time>2026-07-10T14:30:16Z</time>
      </trkpt>
      <trkpt lat="52.995905969291925" lon="-3.841149033978581">
        <ele>394.75999999999999</ele>
        <time>2026-07-10T14:30:24Z</time>
      </trkpt>
      <trkpt lat="52.994811041280627" lon="-3.841192033141851">
        <ele>411.10000000000002</ele>
        <time>2026-07-10T14:30:34Z</time>
      </trkpt>
      <trkpt lat="52.994426982477307" lon="-3.841118020936847">
        <ele>415.43000000000001</ele>
        <time>2026-07-10T14:30:37Z</time>
      </trkpt>
      <trkpt lat="52.994320029392838" lon="-3.841164037585259">
        <ele>416.87</ele>
        <time>2026-07-10T14:30:38Z</time>
      </trkpt>
      <trkpt lat="52.994212992489338" lon="-3.841214999556541">
        <ele>418.31</ele>
        <time>2026-07-10T14:30:39Z</time>
      </trkpt>
      <trkpt lat="52.993893977254629" lon="-3.841337962076068">
        <ele>421.68000000000001</ele>
        <time>2026-07-10T14:30:42Z</time>
      </trkpt>
      <trkpt lat="52.99378702417016" lon="-3.841348020359874">
        <ele>423.12</ele>
        <time>2026-07-10T14:30:43Z</time>
      </trkpt>
      <trkpt lat="52.992834001779556" lon="-3.841434018686414">
        <ele>433.69</ele>
        <time>2026-07-10T14:30:50Z</time>
      </trkpt>
      <trkpt lat="52.992682959884405" lon="-3.841403005644679">
        <ele>434.64999999999998</ele>
        <time>2026-07-10T14:30:51Z</time>
      </trkpt>
      <trkpt lat="52.991244038566947" lon="-3.840886009857059">
        <ele>441.86000000000001</ele>
        <time>2026-07-10T14:31:00Z</time>
      </trkpt>
      <trkpt lat="52.989519964903593" lon="-3.840175978839397">
        <ele>458.69</ele>
        <time>2026-07-10T14:31:11Z</time>
      </trkpt>
      <trkpt lat="52.98938300460577" lon="-3.840131973847747">
        <ele>460.13</ele>
        <time>2026-07-10T14:31:12Z</time>
      </trkpt>
      <trkpt lat="52.989241015166044" lon="-3.840154018253088">
        <ele>461.56999999999999</ele>
        <time>2026-07-10T14:31:13Z</time>
      </trkpt>
      <trkpt lat="52.989088967442513" lon="-3.840178996324539">
        <ele>462.52999999999997</ele>
        <time>2026-07-10T14:31:14Z</time>
      </trkpt>
      <trkpt lat="52.988642966374755" lon="-3.840248985216022">
        <ele>465.89999999999998</ele>
        <time>2026-07-10T14:31:17Z</time>
      </trkpt>
      <trkpt lat="52.988536013290286" lon="-3.840306987985969">
        <ele>466.86000000000001</ele>
        <time>2026-07-10T14:31:18Z</time>
      </trkpt>
      <trkpt lat="52.98843702301383" lon="-3.840405978262425">
        <ele>467.81999999999999</ele>
        <time>2026-07-10T14:31:19Z</time>
      </trkpt>
      <trkpt lat="52.988337026908994" lon="-3.840536987408996">
        <ele>468.77999999999997</ele>
        <time>2026-07-10T14:31:20Z</time>
      </trkpt>
      <trkpt lat="52.988228984177113" lon="-3.840687023475766">
        <ele>469.74000000000001</ele>
        <time>2026-07-10T14:31:21Z</time>
      </trkpt>
      <trkpt lat="52.987179988995194" lon="-3.84202896617353">
        <ele>476.47000000000003</ele>
        <time>2026-07-10T14:31:29Z</time>
      </trkpt>
      <trkpt lat="52.986173992976546" lon="-3.842733968049288">
        <ele>479.83999999999997</ele>
        <time>2026-07-10T14:31:36Z</time>
      </trkpt>
      <trkpt lat="52.986041978001595" lon="-3.842789959162474">
        <ele>480.31999999999999</ele>
        <time>2026-07-10T14:31:37Z</time>
      </trkpt>
      <trkpt lat="52.985904011875391" lon="-3.842789959162474">
        <ele>480.31999999999999</ele>
        <time>2026-07-10T14:31:38Z</time>
      </trkpt>
      <trkpt lat="52.985761016607285" lon="-3.842789959162474">
        <ele>479.83999999999997</ele>
        <time>2026-07-10T14:31:39Z</time>
      </trkpt>
      <trkpt lat="52.985620032995939" lon="-3.842789959162474">
        <ele>479.83999999999997</ele>
        <time>2026-07-10T14:31:40Z</time>
      </trkpt>
      <trkpt lat="52.984399041160941" lon="-3.842583009973168">
        <ele>486.56</ele>
        <time>2026-07-10T14:31:50Z</time>
      </trkpt>
      <trkpt lat="52.983235968276858" lon="-3.84228696115315">
        <ele>486.07999999999998</ele>
        <time>2026-07-10T14:32:00Z</time>
      </trkpt>
      <trkpt lat="52.982731964439154" lon="-3.842087974771857">
        <ele>484.16000000000003</ele>
        <time>2026-07-10T14:32:04Z</time>
      </trkpt>
      <trkpt lat="52.982595004141331" lon="-3.842065008357167">
        <ele>483.68000000000001</ele>
        <time>2026-07-10T14:32:05Z</time>
      </trkpt>
      <trkpt lat="52.981060026213527" lon="-3.842168021947146">
        <ele>481.75999999999999</ele>
        <time>2026-07-10T14:32:14Z</time>
      </trkpt>
      <trkpt lat="52.980216974392533" lon="-3.842224013060331">
        <ele>483.68000000000001</ele>
        <time>2026-07-10T14:32:20Z</time>
      </trkpt>
      <trkpt lat="52.980113960802555" lon="-3.842230970039964">
        <ele>484.63999999999999</ele>
        <time>2026-07-10T14:32:25Z</time>
      </trkpt>
      <trkpt lat="52.979860994964838" lon="-3.842247985303402">
        <ele>485.60000000000002</ele>
        <time>2026-07-10T14:32:38Z</time>
      </trkpt>
      <trkpt lat="52.978999000042677" lon="-3.842305988073349">
        <ele>484.63999999999999</ele>
        <time>2026-07-10T14:32:45Z</time>
      </trkpt>
      <trkpt lat="52.977858977392316" lon="-3.842503968626261">
        <ele>487.52999999999997</ele>
        <time>2026-07-10T14:32:53Z</time>
      </trkpt>
      <trkpt lat="52.977735009044409" lon="-3.842617962509394">
        <ele>487.52999999999997</ele>
        <time>2026-07-10T14:32:54Z</time>
      </trkpt>
      <trkpt lat="52.977603999897838" lon="-3.84275701828301">
        <ele>487.52999999999997</ele>
        <time>2026-07-10T14:32:55Z</time>
      </trkpt>
      <trkpt lat="52.977481037378311" lon="-3.84292901493609">
        <ele>487.52999999999997</ele>
        <time>2026-07-10T14:32:56Z</time>
      </trkpt>
      <trkpt lat="52.977352039888501" lon="-3.843108974397183">
        <ele>487.52999999999997</ele>
        <time>2026-07-10T14:32:57Z</time>
      </trkpt>
      <trkpt lat="52.977222036570311" lon="-3.843291029334068">
        <ele>487.52999999999997</ele>
        <time>2026-07-10T14:32:58Z</time>
      </trkpt>
      <trkpt lat="52.976537989452481" lon="-3.844487965106964">
        <ele>486.07999999999998</ele>
        <time>2026-07-10T14:33:05Z</time>
      </trkpt>
      <trkpt lat="52.976210005581379" lon="-3.844975959509611">
        <ele>485.12</ele>
        <time>2026-07-10T14:33:11Z</time>
      </trkpt>
      <trkpt lat="52.975726034492254" lon="-3.84626199491322">
        <ele>487.52999999999997</ele>
        <time>2026-07-10T14:33:17Z</time>
      </trkpt>
      <trkpt lat="52.974424995481968" lon="-3.84954895824194">
        <ele>491.37</ele>
        <time>2026-07-10T14:33:29Z</time>
      </trkpt>
      <trkpt lat="52.97395602799952" lon="-3.850484965369105">
        <ele>488.97000000000003</ele>
        <time>2026-07-10T14:33:33Z</time>
      </trkpt>
      <trkpt lat="52.973689986392856" lon="-3.850910011678934">
        <ele>488.00999999999999</ele>
        <time>2026-07-10T14:33:35Z</time>
      </trkpt>
      <trkpt lat="52.973573980852962" lon="-3.851140011101961">
        <ele>487.52999999999997</ele>
        <time>2026-07-10T14:33:36Z</time>
      </trkpt>
      <trkpt lat="52.972785998135805" lon="-3.853382002562285">
        <ele>481.27999999999997</ele>
        <time>2026-07-10T14:33:44Z</time>
      </trkpt>
      <trkpt lat="52.971852002665401" lon="-3.855939991772175">
        <ele>472.63</ele>
        <time>2026-07-10T14:33:53Z</time>
      </trkpt>
      <trkpt lat="52.971698027104139" lon="-3.856096984818578">
        <ele>472.13999999999999</ele>
        <time>2026-07-10T14:33:54Z</time>
      </trkpt>
      <trkpt lat="52.971536004915833" lon="-3.856261018663645">
        <ele>471.66000000000003</ele>
        <time>2026-07-10T14:33:55Z</time>
      </trkpt>
      <trkpt lat="52.970020975917578" lon="-3.858045022934675">
        <ele>465.89999999999998</ele>
        <time>2026-07-10T14:34:04Z</time>
      </trkpt>
      <trkpt lat="52.968598986044526" lon="-3.860664032399654">
        <ele>450.02999999999997</ele>
        <time>2026-07-10T14:34:13Z</time>
      </trkpt>
      <trkpt lat="52.96686602756381" lon="-3.863723007962108">
        <ele>441.86000000000001</ele>
        <time>2026-07-10T14:34:24Z</time>
      </trkpt>
      <trkpt lat="52.966167982667685" lon="-3.864793963730335">
        <ele>438.98000000000002</ele>
        <time>2026-07-10T14:34:29Z</time>
      </trkpt>
      <trkpt lat="52.966098999604583" lon="-3.864964032545686">
        <ele>438.01999999999998</ele>
        <time>2026-07-10T14:34:30Z</time>
      </trkpt>
      <trkpt lat="52.966058012098074" lon="-3.865162013098598">
        <ele>437.06</ele>
        <time>2026-07-10T14:34:31Z</time>
      </trkpt>
      <trkpt lat="52.966013001278043" lon="-3.86538103222847">
        <ele>435.61000000000001</ele>
        <time>2026-07-10T14:34:32Z</time>
      </trkpt>
      <trkpt lat="52.965963967144489" lon="-3.865616982802749">
        <ele>434.17000000000002</ele>
        <time>2026-07-10T14:34:33Z</time>
      </trkpt>
      <trkpt lat="52.965510003268719" lon="-3.867228990420699">
        <ele>423.12</ele>
        <time>2026-07-10T14:34:40Z</time>
      </trkpt>
      <trkpt lat="52.965234993025661" lon="-3.867731988430023">
        <ele>419.26999999999998</ele>
        <time>2026-07-10T14:34:43Z</time>
      </trkpt>
      <trkpt lat="52.965153018012643" lon="-3.867873977869749">
        <ele>418.31</ele>
        <time>2026-07-10T14:34:44Z</time>
      </trkpt>
      <trkpt lat="52.96503902412951" lon="-3.86798202060163">
        <ele>417.35000000000002</ele>
        <time>2026-07-10T14:34:45Z</time>
      </trkpt>
      <trkpt lat="52.964931987226009" lon="-3.868082016706467">
        <ele>416.87</ele>
        <time>2026-07-10T14:34:46Z</time>
      </trkpt>
      <trkpt lat="52.964826039969921" lon="-3.868183018639684">
        <ele>416.38999999999999</ele>
        <time>2026-07-10T14:34:47Z</time>
      </trkpt>
      <trkpt lat="52.964608026668429" lon="-3.868285026401281">
        <ele>415.43000000000001</ele>
        <time>2026-07-10T14:34:49Z</time>
      </trkpt>
      <trkpt lat="52.964497972279787" lon="-3.868317967280746">
        <ele>414.47000000000003</ele>
        <time>2026-07-10T14:34:50Z</time>
      </trkpt>
      <trkpt lat="52.964384984225035" lon="-3.868343029171228">
        <ele>413.98000000000002</ele>
        <time>2026-07-10T14:34:51Z</time>
      </trkpt>
      <trkpt lat="52.964265961199999" lon="-3.868318973109126">
        <ele>413.5</ele>
        <time>2026-07-10T14:34:52Z</time>
      </trkpt>
      <trkpt lat="52.964150039479136" lon="-3.868296006694436">
        <ele>413.01999999999998</ele>
        <time>2026-07-10T14:34:53Z</time>
      </trkpt>
      <trkpt lat="52.964049959555268" lon="-3.868249990046024">
        <ele>412.54000000000002</ele>
        <time>2026-07-10T14:34:54Z</time>
      </trkpt>
      <trkpt lat="52.963958010077477" lon="-3.868155023083091">
        <ele>412.06</ele>
        <time>2026-07-10T14:34:55Z</time>
      </trkpt>
      <trkpt lat="52.963861031457782" lon="-3.868053015321493">
        <ele>411.57999999999998</ele>
        <time>2026-07-10T14:34:56Z</time>
      </trkpt>
      <trkpt lat="52.963762041181326" lon="-3.867950001731515">
        <ele>411.57999999999998</ele>
        <time>2026-07-10T14:34:57Z</time>
      </trkpt>
      <trkpt lat="52.963658021762967" lon="-3.867841958999634">
        <ele>410.62</ele>
        <time>2026-07-10T14:34:58Z</time>
      </trkpt>
      <trkpt lat="52.963537992909551" lon="-3.867744980379939">
        <ele>410.13999999999999</ele>
        <time>2026-07-10T14:34:59Z</time>
      </trkpt>
      <trkpt lat="52.962872972711921" lon="-3.867440968751907">
        <ele>403.88999999999999</ele>
        <time>2026-07-10T14:35:04Z</time>
      </trkpt>
      <trkpt lat="52.96278496272862" lon="-3.867449015378952">
        <ele>402.93000000000001</ele>
        <time>2026-07-10T14:35:05Z</time>
      </trkpt>
      <trkpt lat="52.96269997023046" lon="-3.867491008713841">
        <ele>401.97000000000003</ele>
        <time>2026-07-10T14:35:06Z</time>
      </trkpt>
      <trkpt lat="52.962619001045823" lon="-3.86757499538362">
        <ele>401.00999999999999</ele>
        <time>2026-07-10T14:35:07Z</time>
      </trkpt>
      <trkpt lat="52.962538031861186" lon="-3.867695024237037">
        <ele>400.52999999999997</ele>
        <time>2026-07-10T14:35:08Z</time>
      </trkpt>
      <trkpt lat="52.962453039363027" lon="-3.867821004241705">
        <ele>399.56999999999999</ele>
        <time>2026-07-10T14:35:09Z</time>
      </trkpt>
      <trkpt lat="52.962252963334322" lon="-3.868115963414311">
        <ele>398.12</ele>
        <time>2026-07-10T14:35:11Z</time>
      </trkpt>
      <trkpt lat="52.962138969451189" lon="-3.868258958682418">
        <ele>398.12</ele>
        <time>2026-07-10T14:35:12Z</time>
      </trkpt>
      <trkpt lat="52.961996980011463" lon="-3.868350991979241">
        <ele>397.63999999999999</ele>
        <time>2026-07-10T14:35:13Z</time>
      </trkpt>
      <trkpt lat="52.961849961429834" lon="-3.868436990305781">
        <ele>398.12</ele>
        <time>2026-07-10T14:35:14Z</time>
      </trkpt>
      <trkpt lat="52.96168701723218" lon="-3.8684740383178">
        <ele>398.12</ele>
        <time>2026-07-10T14:35:15Z</time>
      </trkpt>
      <trkpt lat="52.961518038064241" lon="-3.868513014167547">
        <ele>398.12</ele>
        <time>2026-07-10T14:35:16Z</time>
      </trkpt>
      <trkpt lat="52.959917010739446" lon="-3.868684004992247">
        <ele>395.72000000000003</ele>
        <time>2026-07-10T14:35:26Z</time>
      </trkpt>
      <trkpt lat="52.959683993831277" lon="-3.86869003996253">
        <ele>394.75999999999999</ele>
        <time>2026-07-10T14:35:29Z</time>
      </trkpt>
      <trkpt lat="52.959652980789542" lon="-3.86869003996253">
        <ele>394.27999999999997</ele>
        <time>2026-07-10T14:35:30Z</time>
      </trkpt>
      <trkpt lat="52.959631020203233" lon="-3.86869003996253">
        <ele>393.31999999999999</ele>
        <time>2026-07-10T14:35:31Z</time>
      </trkpt>
      <trkpt lat="52.959612999111414" lon="-3.86869003996253">
        <ele>392.83999999999997</ele>
        <time>2026-07-10T14:35:32Z</time>
      </trkpt>
      <trkpt lat="52.959601012989879" lon="-3.86869003996253">
        <ele>392.36000000000001</ele>
        <time>2026-07-10T14:35:33Z</time>
      </trkpt>
      <trkpt lat="52.959601012989879" lon="-3.86869003996253">
        <ele>391.87</ele>
        <time>2026-07-10T14:35:34Z</time>
      </trkpt>
      <trkpt lat="52.959565976634622" lon="-3.868593983352184">
        <ele>389.94999999999999</ele>
        <time>2026-07-10T14:35:38Z</time>
      </trkpt>
      <trkpt lat="52.95958299189806" lon="-3.868547966703773">
        <ele>389.47000000000003</ele>
        <time>2026-07-10T14:35:39Z</time>
      </trkpt>
      <trkpt lat="52.959610987454653" lon="-3.8684740383178">
        <ele>389.47000000000003</ele>
        <time>2026-07-10T14:35:40Z</time>
      </trkpt>
      <trkpt lat="52.959866970777512" lon="-3.867539959028363">
        <ele>389.47000000000003</ele>
        <time>2026-07-10T14:35:46Z</time>
      </trkpt>
      <trkpt lat="52.959944000467658" lon="-3.867092030122876">
        <ele>389.94999999999999</ele>
        <time>2026-07-10T14:35:48Z</time>
      </trkpt>
      <trkpt lat="52.959984987974167" lon="-3.86684400960803">
        <ele>389.94999999999999</ele>
        <time>2026-07-10T14:35:49Z</time>
      </trkpt>
      <trkpt lat="52.959989011287689" lon="-3.866576962172985">
        <ele>389.94999999999999</ele>
        <time>2026-07-10T14:35:50Z</time>
      </trkpt>
      <trkpt lat="52.959964033216238" lon="-3.86630698107183">
        <ele>389.94999999999999</ele>
        <time>2026-07-10T14:35:51Z</time>
      </trkpt>
      <trkpt lat="52.959937965497375" lon="-3.866024008020759">
        <ele>390.43000000000001</ele>
        <time>2026-07-10T14:35:52Z</time>
      </trkpt>
      <trkpt lat="52.95990502461791" lon="-3.865737011656165">
        <ele>390.91000000000003</ele>
        <time>2026-07-10T14:35:53Z</time>
      </trkpt>
      <trkpt lat="52.959371013566852" lon="-3.86344900354743">
        <ele>395.24000000000001</ele>
        <time>2026-07-10T14:36:01Z</time>
      </trkpt>
      <trkpt lat="52.958500972017646" lon="-3.860573004931212">
        <ele>403.41000000000003</ele>
        <time>2026-07-10T14:36:11Z</time>
      </trkpt>
      <trkpt lat="52.958397036418319" lon="-3.8603559974581">
        <ele>403.88999999999999</ele>
        <time>2026-07-10T14:36:12Z</time>
      </trkpt>
      <trkpt lat="52.958291005343199" lon="-3.860178971663117">
        <ele>404.37</ele>
        <time>2026-07-10T14:36:13Z</time>
      </trkpt>
      <trkpt lat="52.958159996196628" lon="-3.860061960294843">
        <ele>404.37</ele>
        <time>2026-07-10T14:36:14Z</time>
      </trkpt>
      <trkpt lat="52.958027981221676" lon="-3.859943021088839">
        <ele>404.85000000000002</ele>
        <time>2026-07-10T14:36:15Z</time>
      </trkpt>
      <trkpt lat="52.957886997610331" lon="-3.859822992235422">
        <ele>404.85000000000002</ele>
        <time>2026-07-10T14:36:16Z</time>
      </trkpt>
      <trkpt lat="52.957727992907166" lon="-3.859760966151953">
        <ele>405.32999999999998</ele>
        <time>2026-07-10T14:36:17Z</time>
      </trkpt>
      <trkpt lat="52.957563037052751" lon="-3.859698018059135">
        <ele>405.81</ele>
        <time>2026-07-10T14:36:18Z</time>
      </trkpt>
      <trkpt lat="52.956803971901536" lon="-3.859387971460819">
        <ele>407.74000000000001</ele>
        <time>2026-07-10T14:36:23Z</time>
      </trkpt>
      <trkpt lat="52.95668201521039" lon="-3.85930398479104">
        <ele>407.74000000000001</ele>
        <time>2026-07-10T14:36:24Z</time>
      </trkpt>
      <trkpt lat="52.956584030762315" lon="-3.859175993129611">
        <ele>408.22000000000003</ele>
        <time>2026-07-10T14:36:25Z</time>
      </trkpt>
      <trkpt lat="52.956501971930265" lon="-3.859025035053492">
        <ele>408.22000000000003</ele>
        <time>2026-07-10T14:36:26Z</time>
      </trkpt>
      <trkpt lat="52.95644698664546" lon="-3.858831999823451">
        <ele>408.22000000000003</ele>
        <time>2026-07-10T14:36:27Z</time>
      </trkpt>
      <trkpt lat="52.956397030502558" lon="-3.858615998178721">
        <ele>408.22000000000003</ele>
        <time>2026-07-10T14:36:28Z</time>
      </trkpt>
      <trkpt lat="52.955808034166694" lon="-3.856585985049605">
        <ele>409.18000000000001</ele>
        <time>2026-07-10T14:36:36Z</time>
      </trkpt>
      <trkpt lat="52.9555659648031" lon="-3.856103019788861">
        <ele>409.66000000000003</ele>
        <time>2026-07-10T14:36:38Z</time>
      </trkpt>
      <trkpt lat="52.955429004505277" lon="-3.855884000658989">
        <ele>410.13999999999999</ele>
        <time>2026-07-10T14:36:39Z</time>
      </trkpt>
      <trkpt lat="52.955018039792776" lon="-3.85534898377955">
        <ele>413.01999999999998</ele>
        <time>2026-07-10T14:36:42Z</time>
      </trkpt>
      <trkpt lat="52.954932041466236" lon="-3.855142034590244">
        <ele>413.98000000000002</ele>
        <time>2026-07-10T14:36:43Z</time>
      </trkpt>
      <trkpt lat="52.954879989847541" lon="-3.854909017682076">
        <ele>414.94999999999999</ele>
        <time>2026-07-10T14:36:44Z</time>
      </trkpt>
      <trkpt lat="52.95483497902751" lon="-3.854665020480752">
        <ele>415.91000000000003</ele>
        <time>2026-07-10T14:36:45Z</time>
      </trkpt>
      <trkpt lat="52.954787034541368" lon="-3.854412976652384">
        <ele>416.38999999999999</ele>
        <time>2026-07-10T14:36:46Z</time>
      </trkpt>
      <trkpt lat="52.954572960734367" lon="-3.853321988135576">
        <ele>418.31</ele>
        <time>2026-07-10T14:36:50Z</time>
      </trkpt>
      <trkpt lat="52.953891009092331" lon="-3.85137596167624">
        <ele>419.26999999999998</ele>
        <time>2026-07-10T14:36:57Z</time>
      </trkpt>
      <trkpt lat="52.953772991895676" lon="-3.851150991395116">
        <ele>419.26999999999998</ele>
        <time>2026-07-10T14:36:58Z</time>
      </trkpt>
      <trkpt lat="52.953617004677653" lon="-3.850989975035191">
        <ele>418.79000000000002</ele>
        <time>2026-07-10T14:36:59Z</time>
      </trkpt>
      <trkpt lat="52.952000973746181" lon="-3.849318958818913">
        <ele>413.01999999999998</ele>
        <time>2026-07-10T14:37:08Z</time>
      </trkpt>
      <trkpt lat="52.950110016390681" lon="-3.847625982016325">
        <ele>418.31</ele>
        <time>2026-07-10T14:37:18Z</time>
      </trkpt>
      <trkpt lat="52.949044005945325" lon="-3.846313962712884">
        <ele>422.63999999999999</ele>
        <time>2026-07-10T14:37:25Z</time>
      </trkpt>
      <trkpt lat="52.94894602149725" lon="-3.846180019900203">
        <ele>423.60000000000002</ele>
        <time>2026-07-10T14:37:26Z</time>
      </trkpt>
      <trkpt lat="52.948887012898922" lon="-3.846012968569994">
        <ele>424.07999999999998</ele>
        <time>2026-07-10T14:37:27Z</time>
      </trkpt>
      <trkpt lat="52.948831021785736" lon="-3.845824962481856">
        <ele>424.56</ele>
        <time>2026-07-10T14:37:28Z</time>
      </trkpt>
      <trkpt lat="52.948621977120638" lon="-3.845129013061523">
        <ele>424.56</ele>
        <time>2026-07-10T14:37:31Z</time>
      </trkpt>
      <trkpt lat="52.948513012379408" lon="-3.844889039173722">
        <ele>424.56</ele>
        <time>2026-07-10T14:37:32Z</time>
      </trkpt>
      <trkpt lat="52.948394995182753" lon="-3.844643030315638">
        <ele>424.07999999999998</ele>
        <time>2026-07-10T14:37:33Z</time>
      </trkpt>
      <trkpt lat="52.947613969445229" lon="-3.843158008530736">
        <ele>424.07999999999998</ele>
        <time>2026-07-10T14:37:39Z</time>
      </trkpt>
      <trkpt lat="52.947536017745733" lon="-3.842901019379497">
        <ele>424.56</ele>
        <time>2026-07-10T14:37:40Z</time>
      </trkpt>
      <trkpt lat="52.947380030527711" lon="-3.842384023591876">
        <ele>425.51999999999998</ele>
        <time>2026-07-10T14:37:42Z</time>
      </trkpt>
      <trkpt lat="52.947294032201171" lon="-3.842116976156831">
        <ele>426</ele>
        <time>2026-07-10T14:37:43Z</time>
      </trkpt>
      <trkpt lat="52.947194958105683" lon="-3.841855963692069">
        <ele>426.48000000000002</ele>
        <time>2026-07-10T14:37:44Z</time>
      </trkpt>
      <trkpt lat="52.947075013071299" lon="-3.841618001461029">
        <ele>426.48000000000002</ele>
        <time>2026-07-10T14:37:45Z</time>
      </trkpt>
      <trkpt lat="52.946938974782825" lon="-3.841399988159537">
        <ele>426.95999999999998</ele>
        <time>2026-07-10T14:37:46Z</time>
      </trkpt>
      <trkpt lat="52.946802014485002" lon="-3.841179041191936">
        <ele>427.44</ele>
        <time>2026-07-10T14:37:47Z</time>
      </trkpt>
      <trkpt lat="52.945733992382884" lon="-3.839722014963627">
        <ele>426.95999999999998</ele>
        <time>2026-07-10T14:37:54Z</time>
      </trkpt>
      <trkpt lat="52.945633996278048" lon="-3.839522022753954">
        <ele>426.95999999999998</ele>
        <time>2026-07-10T14:37:55Z</time>
      </trkpt>
      <trkpt lat="52.945518996566534" lon="-3.839293029159308">
        <ele>426.48000000000002</ele>
        <time>2026-07-10T14:37:56Z</time>
      </trkpt>
      <trkpt lat="52.94518799521029" lon="-3.838276974856854">
        <ele>425.51999999999998</ele>
        <time>2026-07-10T14:38:00Z</time>
      </trkpt>
      <trkpt lat="52.945117000490427" lon="-3.837981009855866">
        <ele>425.04000000000002</ele>
        <time>2026-07-10T14:38:01Z</time>
      </trkpt>
      <trkpt lat="52.945044999942183" lon="-3.837679009884596">
        <ele>424.56</ele>
        <time>2026-07-10T14:38:02Z</time>
      </trkpt>
      <trkpt lat="52.944955984130502" lon="-3.837376004084945">
        <ele>424.56</ele>
        <time>2026-07-10T14:38:03Z</time>
      </trkpt>
      <trkpt lat="52.944860011339188" lon="-3.837071992456913">
        <ele>424.07999999999998</ele>
        <time>2026-07-10T14:38:04Z</time>
      </trkpt>
      <trkpt lat="52.943992987275124" lon="-3.834728999063373">
        <ele>421.68000000000001</ele>
        <time>2026-07-10T14:38:12Z</time>
      </trkpt>
      <trkpt lat="52.943900031968951" lon="-3.834479972720146">
        <ele>421.68000000000001</ele>
        <time>2026-07-10T14:38:13Z</time>
      </trkpt>
      <trkpt lat="52.943395022302866" lon="-3.831540020182729">
        <ele>424.07999999999998</ele>
        <time>2026-07-10T14:38:23Z</time>
      </trkpt>
      <trkpt lat="52.943205004557967" lon="-3.830499993637204">
        <ele>424.56</ele>
        <time>2026-07-10T14:38:27Z</time>
      </trkpt>
      <trkpt lat="52.943128980696201" lon="-3.830295978114009">
        <ele>424.07999999999998</ele>
        <time>2026-07-10T14:38:28Z</time>
      </trkpt>
      <trkpt lat="52.943019010126591" lon="-3.830133033916354">
        <ele>424.07999999999998</ele>
        <time>2026-07-10T14:38:29Z</time>
      </trkpt>
      <trkpt lat="52.942663030698895" lon="-3.829639004543424">
        <ele>423.12</ele>
        <time>2026-07-10T14:38:32Z</time>
      </trkpt>
      <trkpt lat="52.94258700683713" lon="-3.829439012333751">
        <ele>423.12</ele>
        <time>2026-07-10T14:38:33Z</time>
      </trkpt>
      <trkpt lat="52.942510982975364" lon="-3.829232985153794">
        <ele>423.12</ele>
        <time>2026-07-10T14:38:34Z</time>
      </trkpt>
      <trkpt lat="52.942124996334314" lon="-3.82729098200798">
        <ele>426.48000000000002</ele>
        <time>2026-07-10T14:38:41Z</time>
      </trkpt>
      <trkpt lat="52.941984012722969" lon="-3.826362015679479">
        <ele>432.25</ele>
        <time>2026-07-10T14:38:44Z</time>
      </trkpt>
      <trkpt lat="52.941817967221141" lon="-3.825478982180357">
        <ele>437.06</ele>
        <time>2026-07-10T14:38:47Z</time>
      </trkpt>
      <trkpt lat="52.941802963614464" lon="-3.825179999694228">
        <ele>438.01999999999998</ele>
        <time>2026-07-10T14:38:48Z</time>
      </trkpt>
      <trkpt lat="52.941785026341677" lon="-3.824829971417785">
        <ele>439.45999999999998</ele>
        <time>2026-07-10T14:38:49Z</time>
      </trkpt>
      <trkpt lat="52.941978983581066" lon="-3.822481026872993">
        <ele>446.67000000000002</ele>
        <time>2026-07-10T14:38:56Z</time>
      </trkpt>
      <trkpt lat="52.941993987187743" lon="-3.820136021822691">
        <ele>449.06999999999999</ele>
        <time>2026-07-10T14:39:03Z</time>
      </trkpt>
      <trkpt lat="52.941936990246177" lon="-3.818532982841134">
        <ele>451.95999999999998</ele>
        <time>2026-07-10T14:39:08Z</time>
      </trkpt>
      <trkpt lat="52.941873958334327" lon="-3.818235006183386">
        <ele>452.92000000000002</ele>
        <time>2026-07-10T14:39:09Z</time>
      </trkpt>
      <trkpt lat="52.94160196557641" lon="-3.817018959671259">
        <ele>456.27999999999997</ele>
        <time>2026-07-10T14:39:13Z</time>
      </trkpt>
      <trkpt lat="52.941500963643193" lon="-3.816754007712007">
        <ele>457.24000000000001</ele>
        <time>2026-07-10T14:39:14Z</time>
      </trkpt>
      <trkpt lat="52.940896963700652" lon="-3.815051978453994">
        <ele>459.17000000000002</ele>
        <time>2026-07-10T14:39:20Z</time>
      </trkpt>
      <trkpt lat="52.940837033092976" lon="-3.81474201567471">
        <ele>459.17000000000002</ele>
        <time>2026-07-10T14:39:21Z</time>
      </trkpt>
      <trkpt lat="52.940795039758086" lon="-3.814418977126479">
        <ele>460.13</ele>
        <time>2026-07-10T14:39:22Z</time>
      </trkpt>
      <trkpt lat="52.940292963758111" lon="-3.811009973287582">
        <ele>464.93000000000001</ele>
        <time>2026-07-10T14:39:32Z</time>
      </trkpt>
      <trkpt lat="52.93973296880722" lon="-3.807708006352186">
        <ele>470.69999999999999</ele>
        <time>2026-07-10T14:39:42Z</time>
      </trkpt>
      <trkpt lat="52.939749984070659" lon="-3.805817971006036">
        <ele>469.25999999999999</ele>
        <time>2026-07-10T14:39:48Z</time>
      </trkpt>
      <trkpt lat="52.939771022647619" lon="-3.803342962637544">
        <ele>463.97000000000003</ele>
        <time>2026-07-10T14:39:56Z</time>
      </trkpt>
      <trkpt lat="52.939685024321079" lon="-3.802471999078989">
        <ele>462.05000000000001</ele>
        <time>2026-07-10T14:40:00Z</time>
      </trkpt>
      <trkpt lat="52.939694998785853" lon="-3.802241999655962">
        <ele>461.56999999999999</ele>
        <time>2026-07-10T14:40:01Z</time>
      </trkpt>
      <trkpt lat="52.939960034564137" lon="-3.799093002453446">
        <ele>442.81999999999999</ele>
        <time>2026-07-10T14:40:14Z</time>
      </trkpt>
      <trkpt lat="52.940407041460276" lon="-3.795197010040283">
        <ele>432.25</ele>
        <time>2026-07-10T14:40:31Z</time>
      </trkpt>
      <trkpt lat="52.940623965114355" lon="-3.792705992236733">
        <ele>425.04000000000002</ele>
        <time>2026-07-10T14:40:43Z</time>
      </trkpt>
      <trkpt lat="52.940670987591147" lon="-3.792531983926892">
        <ele>424.07999999999998</ele>
        <time>2026-07-10T14:40:44Z</time>
      </trkpt>
      <trkpt lat="52.940734019502997" lon="-3.792385971173644">
        <ele>423.12</ele>
        <time>2026-07-10T14:40:45Z</time>
      </trkpt>
      <trkpt lat="52.940812977030873" lon="-3.792281029745936">
        <ele>423.12</ele>
        <time>2026-07-10T14:40:46Z</time>
      </trkpt>
      <trkpt lat="52.940892018377781" lon="-3.792174998670816">
        <ele>422.63999999999999</ele>
        <time>2026-07-10T14:40:47Z</time>
      </trkpt>
      <trkpt lat="52.940979022532701" lon="-3.792059998959303">
        <ele>422.16000000000003</ele>
        <time>2026-07-10T14:40:48Z</time>
      </trkpt>
      <trkpt lat="52.941064015030861" lon="-3.79194600507617">
        <ele>421.68000000000001</ele>
        <time>2026-07-10T14:40:49Z</time>
      </trkpt>
      <trkpt lat="52.941839005798101" lon="-3.790404992178083">
        <ele>416.87</ele>
        <time>2026-07-10T14:40:58Z</time>
      </trkpt>
      <trkpt lat="52.942262040451169" lon="-3.789459010586143">
        <ele>413.01999999999998</ele>
        <time>2026-07-10T14:41:03Z</time>
      </trkpt>
      <trkpt lat="52.94232901185751" lon="-3.789249965921044">
        <ele>412.06</ele>
        <time>2026-07-10T14:41:04Z</time>
      </trkpt>
      <trkpt lat="52.942366981878877" lon="-3.789015021175146">
        <ele>411.10000000000002</ele>
        <time>2026-07-10T14:41:05Z</time>
      </trkpt>
      <trkpt lat="52.942658001556993" lon="-3.786842012777925">
        <ele>407.74000000000001</ele>
        <time>2026-07-10T14:41:14Z</time>
      </trkpt>
      <trkpt lat="52.942654984071851" lon="-3.786621987819672">
        <ele>406.76999999999998</ele>
        <time>2026-07-10T14:41:15Z</time>
      </trkpt>
      <trkpt lat="52.942639980465174" lon="-3.786391988396645">
        <ele>405.32999999999998</ele>
        <time>2026-07-10T14:41:16Z</time>
      </trkpt>
      <trkpt lat="52.94254400767386" lon="-3.785279961302877">
        <ele>398.12</ele>
        <time>2026-07-10T14:41:21Z</time>
      </trkpt>
      <trkpt lat="52.942507965490222" lon="-3.785118022933602">
        <ele>397.63999999999999</ele>
        <time>2026-07-10T14:41:22Z</time>
      </trkpt>
      <trkpt lat="52.942446023225784" lon="-3.784977961331606">
        <ele>396.68000000000001</ele>
        <time>2026-07-10T14:41:23Z</time>
      </trkpt>
      <trkpt lat="52.942247036844492" lon="-3.784527014940977">
        <ele>394.75999999999999</ele>
        <time>2026-07-10T14:41:26Z</time>
      </trkpt>
      <trkpt lat="52.942185010761023" lon="-3.784334985539317">
        <ele>393.80000000000001</ele>
        <time>2026-07-10T14:41:27Z</time>
      </trkpt>
      <trkpt lat="52.942161038517952" lon="-3.784114038571715">
        <ele>392.83999999999997</ele>
        <time>2026-07-10T14:41:28Z</time>
      </trkpt>
      <trkpt lat="52.942002033814788" lon="-3.782638991251588">
        <ele>387.06999999999999</ele>
        <time>2026-07-10T14:41:34Z</time>
      </trkpt>
      <trkpt lat="52.942013014107943" lon="-3.782387031242251">
        <ele>386.58999999999997</ele>
        <time>2026-07-10T14:41:35Z</time>
      </trkpt>
      <trkpt lat="52.942264974117279" lon="-3.78006599843502">
        <ele>382.74000000000001</ele>
        <time>2026-07-10T14:41:44Z</time>
      </trkpt>
      <trkpt lat="52.942489022389054" lon="-3.77800296060741">
        <ele>388.99000000000001</ele>
        <time>2026-07-10T14:41:53Z</time>
      </trkpt>
      <trkpt lat="52.942593963816762" lon="-3.775689974427223">
        <ele>391.38999999999999</ele>
        <time>2026-07-10T14:42:03Z</time>
      </trkpt>
      <trkpt lat="52.942599998787045" lon="-3.775549996644259">
        <ele>390.91000000000003</ele>
        <time>2026-07-10T14:42:04Z</time>
      </trkpt>
      <trkpt lat="52.942575020715594" lon="-3.77542301081121">
        <ele>390.91000000000003</ele>
        <time>2026-07-10T14:42:05Z</time>
      </trkpt>
      <trkpt lat="52.942541996017098" lon="-3.775299964472652">
        <ele>390.91000000000003</ele>
        <time>2026-07-10T14:42:06Z</time>
      </trkpt>
      <trkpt lat="52.942506037652493" lon="-3.77516602165997">
        <ele>390.91000000000003</ele>
        <time>2026-07-10T14:42:07Z</time>
      </trkpt>
      <trkpt lat="52.942467983812094" lon="-3.775022020563483">
        <ele>390.91000000000003</ele>
        <time>2026-07-10T14:42:08Z</time>
      </trkpt>
      <trkpt lat="52.942167995497584" lon="-3.773486958816648">
        <ele>390.91000000000003</ele>
        <time>2026-07-10T14:42:16Z</time>
      </trkpt>
      <trkpt lat="52.941782008856535" lon="-3.771202974021435">
        <ele>389.47000000000003</ele>
        <time>2026-07-10T14:42:25Z</time>
      </trkpt>
      <trkpt lat="52.941151019185781" lon="-3.769153011962771">
        <ele>386.11000000000001</ele>
        <time>2026-07-10T14:42:34Z</time>
      </trkpt>
      <trkpt lat="52.941057980060577" lon="-3.769003981724381">
        <ele>385.63</ele>
        <time>2026-07-10T14:42:35Z</time>
      </trkpt>
      <trkpt lat="52.940952032804489" lon="-3.768866015598178">
        <ele>385.14999999999998</ele>
        <time>2026-07-10T14:42:36Z</time>
      </trkpt>
      <trkpt lat="52.940269997343421" lon="-3.767972001805902">
        <ele>380.33999999999997</ele>
        <time>2026-07-10T14:42:42Z</time>
      </trkpt>
      <trkpt lat="52.940186010673642" lon="-3.76779799349606">
        <ele>379.38</ele>
        <time>2026-07-10T14:42:43Z</time>
      </trkpt>
      <trkpt lat="52.940134964883327" lon="-3.767607975751162">
        <ele>378.42000000000002</ele>
        <time>2026-07-10T14:42:44Z</time>
      </trkpt>
      <trkpt lat="52.940102024003863" lon="-3.767403960227966">
        <ele>377.44999999999999</ele>
        <time>2026-07-10T14:42:45Z</time>
      </trkpt>
      <trkpt lat="52.940067993476987" lon="-3.767190976068378">
        <ele>376.49000000000001</ele>
        <time>2026-07-10T14:42:46Z</time>
      </trkpt>
      <trkpt lat="52.939771022647619" lon="-3.764571966603398">
        <ele>364.48000000000002</ele>
        <time>2026-07-10T14:42:57Z</time>
      </trkpt>
      <trkpt lat="52.939520990476012" lon="-3.762730965390801">
        <ele>355.82999999999998</ele>
        <time>2026-07-10T14:43:06Z</time>
      </trkpt>
      <trkpt lat="52.939511016011238" lon="-3.762608002871275">
        <ele>354.86000000000001</ele>
        <time>2026-07-10T14:43:07Z</time>
      </trkpt>
      <trkpt lat="52.939484026283026" lon="-3.762520998716354">
        <ele>354.38</ele>
        <time>2026-07-10T14:43:08Z</time>
      </trkpt>
      <trkpt lat="52.939457036554813" lon="-3.762441035360098">
        <ele>353.89999999999998</ele>
        <time>2026-07-10T14:43:09Z</time>
      </trkpt>
      <trkpt lat="52.939416971057653" lon="-3.762387977913022">
        <ele>353.42000000000002</ele>
        <time>2026-07-10T14:43:10Z</time>
      </trkpt>
      <trkpt lat="52.939379001036286" lon="-3.762358976528049">
        <ele>352.94</ele>
        <time>2026-07-10T14:43:11Z</time>
      </trkpt>
      <trkpt lat="52.939338013529778" lon="-3.762328969314694">
        <ele>351.5</ele>
        <time>2026-07-10T14:43:18Z</time>
      </trkpt>
      <trkpt lat="52.939285961911082" lon="-3.762215981259942">
        <ele>351.01999999999998</ele>
        <time>2026-07-10T14:43:25Z</time>
      </trkpt>
      <trkpt lat="52.939298031851649" lon="-3.762143980711699">
        <ele>350.54000000000002</ele>
        <time>2026-07-10T14:43:26Z</time>
      </trkpt>
      <trkpt lat="52.939315969124436" lon="-3.762035015970469">
        <ele>350.06</ele>
        <time>2026-07-10T14:43:27Z</time>
      </trkpt>
      <trkpt lat="52.939339019358158" lon="-3.761894032359123">
        <ele>350.06</ele>
        <time>2026-07-10T14:43:28Z</time>
      </trkpt>
      <trkpt lat="52.939368020743132" lon="-3.761723041534424">
        <ele>349.57999999999998</ele>
        <time>2026-07-10T14:43:29Z</time>
      </trkpt>
      <trkpt lat="52.939823996275663" lon="-3.760356036946178">
        <ele>348.13</ele>
        <time>2026-07-10T14:43:35Z</time>
      </trkpt>
      <trkpt lat="52.941238023340702" lon="-3.757084999233484">
        <ele>351.5</ele>
        <time>2026-07-10T14:43:47Z</time>
      </trkpt>
      <trkpt lat="52.942576026543975" lon="-3.754639998078346">
        <ele>365.44</ele>
        <time>2026-07-10T14:43:56Z</time>
      </trkpt>
      <trkpt lat="52.943180026486516" lon="-3.753591002896428">
        <ele>368.80000000000001</ele>
        <time>2026-07-10T14:44:00Z</time>
      </trkpt>
      <trkpt lat="52.943281028419733" lon="-3.753264024853706">
        <ele>368.80000000000001</ele>
        <time>2026-07-10T14:44:01Z</time>
      </trkpt>
      <trkpt lat="52.943378007039428" lon="-3.752948027104139">
        <ele>368.80000000000001</ele>
        <time>2026-07-10T14:44:02Z</time>
      </trkpt>
      <trkpt lat="52.944128019735217" lon="-3.749766005203128">
        <ele>358.23000000000002</ele>
        <time>2026-07-10T14:44:11Z</time>
      </trkpt>
      <trkpt lat="52.944669993594289" lon="-3.74633202329278">
        <ele>350.54000000000002</ele>
        <time>2026-07-10T14:44:20Z</time>
      </trkpt>
      <trkpt lat="52.944680973887444" lon="-3.743099961429834">
        <ele>354.38</ele>
        <time>2026-07-10T14:44:29Z</time>
      </trkpt>
      <trkpt lat="52.944329017773271" lon="-3.740333011373878">
        <ele>354.38</ele>
        <time>2026-07-10T14:44:37Z</time>
      </trkpt>
      <trkpt lat="52.944165989756584" lon="-3.738643974065781">
        <ele>351.5</ele>
        <time>2026-07-10T14:44:42Z</time>
      </trkpt>
      <trkpt lat="52.944148974493146" lon="-3.738302998244762">
        <ele>350.54000000000002</ele>
        <time>2026-07-10T14:44:43Z</time>
      </trkpt>
      <trkpt lat="52.944184010848403" lon="-3.737955987453461">
        <ele>349.57999999999998</ele>
        <time>2026-07-10T14:44:44Z</time>
      </trkpt>
      <trkpt lat="52.944240001961589" lon="-3.737616017460823">
        <ele>349.10000000000002</ele>
        <time>2026-07-10T14:44:45Z</time>
      </trkpt>
      <trkpt lat="52.944310996681452" lon="-3.73728702776134">
        <ele>348.13</ele>
        <time>2026-07-10T14:44:46Z</time>
      </trkpt>
      <trkpt lat="52.944763032719493" lon="-3.734255963936448">
        <ele>341.88999999999999</ele>
        <time>2026-07-10T14:44:55Z</time>
      </trkpt>
      <trkpt lat="52.944810977205634" lon="-3.729560002684593">
        <ele>339.95999999999998</ele>
        <time>2026-07-10T14:45:08Z</time>
      </trkpt>
      <trkpt lat="52.944889012724161" lon="-3.728599017485976">
        <ele>339.95999999999998</ele>
        <time>2026-07-10T14:45:11Z</time>
      </trkpt>
      <trkpt lat="52.944938968867064" lon="-3.728286037221551">
        <ele>339.48000000000002</ele>
        <time>2026-07-10T14:45:12Z</time>
      </trkpt>
      <trkpt lat="52.944997977465391" lon="-3.727972973138094">
        <ele>339</ele>
        <time>2026-07-10T14:45:13Z</time>
      </trkpt>
      <trkpt lat="52.94510199688375" lon="-3.727711038663983">
        <ele>338.51999999999998</ele>
        <time>2026-07-10T14:45:14Z</time>
      </trkpt>
      <trkpt lat="52.945206016302109" lon="-3.727446002885699">
        <ele>338.04000000000002</ele>
        <time>2026-07-10T14:45:15Z</time>
      </trkpt>
      <trkpt lat="52.945319004356861" lon="-3.727177027612925">
        <ele>337.56</ele>
        <time>2026-07-10T14:45:16Z</time>
      </trkpt>
      <trkpt lat="52.945461999624968" lon="-3.726965971291065">
        <ele>337.07999999999998</ele>
        <time>2026-07-10T14:45:17Z</time>
      </trkpt>
      <trkpt lat="52.946429019793868" lon="-3.725479021668434">
        <ele>332.75</ele>
        <time>2026-07-10T14:45:24Z</time>
      </trkpt>
      <trkpt lat="52.946566985920072" lon="-3.725244998931885">
        <ele>331.79000000000002</ele>
        <time>2026-07-10T14:45:25Z</time>
      </trkpt>
      <trkpt lat="52.946663964539766" lon="-3.724951967597008">
        <ele>330.82999999999998</ele>
        <time>2026-07-10T14:45:26Z</time>
      </trkpt>
      <trkpt lat="52.946752980351448" lon="-3.724644016474485">
        <ele>330.35000000000002</ele>
        <time>2026-07-10T14:45:27Z</time>
      </trkpt>
      <trkpt lat="52.946844007819891" lon="-3.72433003038168">
        <ele>329.38999999999999</ele>
        <time>2026-07-10T14:45:28Z</time>
      </trkpt>
      <trkpt lat="52.946921959519386" lon="-3.724001040682197">
        <ele>327.94999999999999</ele>
        <time>2026-07-10T14:45:29Z</time>
      </trkpt>
      <trkpt lat="52.947613969445229" lon="-3.721542041748762">
        <ele>318.81</ele>
        <time>2026-07-10T14:45:37Z</time>
      </trkpt>
      <trkpt lat="52.948288964107633" lon="-3.720313003286719">
        <ele>314.97000000000003</ele>
        <time>2026-07-10T14:45:42Z</time>
      </trkpt>
      <trkpt lat="52.949731992557645" lon="-3.718991009518504">
        <ele>311.12</ele>
        <time>2026-07-10T14:45:50Z</time>
      </trkpt>
      <trkpt lat="52.951205028221011" lon="-3.718485999852419">
        <ele>315.44999999999999</ele>
        <time>2026-07-10T14:45:58Z</time>
      </trkpt>
      <trkpt lat="52.951531000435352" lon="-3.71850703842938">
        <ele>316.41000000000003</ele>
        <time>2026-07-10T14:46:00Z</time>
      </trkpt>
      <trkpt lat="52.952661970630288" lon="-3.71896100230515">
        <ele>315.44999999999999</ele>
        <time>2026-07-10T14:46:07Z</time>
      </trkpt>
      <trkpt lat="52.954163001850247" lon="-3.720214013010263">
        <ele>310.16000000000003</ele>
        <time>2026-07-10T14:46:16Z</time>
      </trkpt>
      <trkpt lat="52.955990005284548" lon="-3.721038959920406">
        <ele>312.08999999999997</ele>
        <time>2026-07-10T14:46:26Z</time>
      </trkpt>
      <trkpt lat="52.957635037600994" lon="-3.721235012635589">
        <ele>314.49000000000001</ele>
        <time>2026-07-10T14:46:35Z</time>
      </trkpt>
      <trkpt lat="52.958886036649346" lon="-3.721670033410192">
        <ele>313.52999999999997</ele>
        <time>2026-07-10T14:46:42Z</time>
      </trkpt>
      <trkpt lat="52.960223034024239" lon="-3.722686003893614">
        <ele>311.60000000000002</ele>
        <time>2026-07-10T14:46:50Z</time>
      </trkpt>
      <trkpt lat="52.960387989878654" lon="-3.722754986956716">
        <ele>311.12</ele>
        <time>2026-07-10T14:46:51Z</time>
      </trkpt>
      <trkpt lat="52.960556969046593" lon="-3.722798991948366">
        <ele>310.16000000000003</ele>
        <time>2026-07-10T14:46:52Z</time>
      </trkpt>
      <trkpt lat="52.960725026205182" lon="-3.722798991948366">
        <ele>309.68000000000001</ele>
        <time>2026-07-10T14:46:53Z</time>
      </trkpt>
      <trkpt lat="52.960900040343404" lon="-3.722774013876915">
        <ele>309.19999999999999</ele>
        <time>2026-07-10T14:46:54Z</time>
      </trkpt>
      <trkpt lat="52.961054015904665" lon="-3.722674017772079">
        <ele>308.72000000000003</ele>
        <time>2026-07-10T14:46:55Z</time>
      </trkpt>
      <trkpt lat="52.961206985637546" lon="-3.722574021667242">
        <ele>308.24000000000001</ele>
        <time>2026-07-10T14:46:56Z</time>
      </trkpt>
      <trkpt lat="52.961350986734033" lon="-3.722422979772091">
        <ele>308.24000000000001</ele>
        <time>2026-07-10T14:46:57Z</time>
      </trkpt>
      <trkpt lat="52.961466992273927" lon="-3.722235979512334">
        <ele>307.75999999999999</ele>
        <time>2026-07-10T14:46:58Z</time>
      </trkpt>
      <trkpt lat="52.961582997813821" lon="-3.722031963989139">
        <ele>307.75999999999999</ele>
        <time>2026-07-10T14:46:59Z</time>
      </trkpt>
      <trkpt lat="52.96166799031198" lon="-3.721794001758099">
        <ele>307.27999999999997</ele>
        <time>2026-07-10T14:47:00Z</time>
      </trkpt>
      <trkpt lat="52.961719036102295" lon="-3.721521003171802">
        <ele>306.80000000000001</ele>
        <time>2026-07-10T14:47:01Z</time>
      </trkpt>
      <trkpt lat="52.961766980588436" lon="-3.721244987100363">
        <ele>306.80000000000001</ele>
        <time>2026-07-10T14:47:02Z</time>
      </trkpt>
      <trkpt lat="52.9617740213871" lon="-3.720952961593866">
        <ele>306.80000000000001</ele>
        <time>2026-07-10T14:47:03Z</time>
      </trkpt>
      <trkpt lat="52.961749965324998" lon="-3.720666971057653">
        <ele>306.80000000000001</ele>
        <time>2026-07-10T14:47:04Z</time>
      </trkpt>
      <trkpt lat="52.961700009182096" lon="-3.720376035198569">
        <ele>307.27999999999997</ele>
        <time>2026-07-10T14:47:05Z</time>
      </trkpt>
      <trkpt lat="52.961647035554051" lon="-3.720092978328466">
        <ele>307.27999999999997</ele>
        <time>2026-07-10T14:47:06Z</time>
      </trkpt>
      <trkpt lat="52.961560031399131" lon="-3.719830038025975">
        <ele>307.75999999999999</ele>
        <time>2026-07-10T14:47:07Z</time>
      </trkpt>
      <trkpt lat="52.96142902225256" lon="-3.719629961997271">
        <ele>307.75999999999999</ele>
        <time>2026-07-10T14:47:08Z</time>
      </trkpt>
      <trkpt lat="52.961289966478944" lon="-3.719439022243023">
        <ele>308.24000000000001</ele>
        <time>2026-07-10T14:47:09Z</time>
      </trkpt>
      <trkpt lat="52.961153006181121" lon="-3.719249004498124">
        <ele>308.72000000000003</ele>
        <time>2026-07-10T14:47:10Z</time>
      </trkpt>
      <trkpt lat="52.96100003644824" lon="-3.719077007845044">
        <ele>309.19999999999999</ele>
        <time>2026-07-10T14:47:11Z</time>
      </trkpt>
      <trkpt lat="52.960837008431554" lon="-3.718919008970261">
        <ele>309.68000000000001</ele>
        <time>2026-07-10T14:47:12Z</time>
      </trkpt>
      <trkpt lat="52.959308987483382" lon="-3.717408003285527">
        <ele>310.16000000000003</ele>
        <time>2026-07-10T14:47:21Z</time>
      </trkpt>
      <trkpt lat="52.957621961832047" lon="-3.715402968227863">
        <ele>309.68000000000001</ele>
        <time>2026-07-10T14:47:32Z</time>
      </trkpt>
      <trkpt lat="52.95636098831892" lon="-3.713792972266674">
        <ele>308.24000000000001</ele>
        <time>2026-07-10T14:47:40Z</time>
      </trkpt>
      <trkpt lat="52.955560013651848" lon="-3.712409036234021">
        <ele>306.80000000000001</ele>
        <time>2026-07-10T14:47:46Z</time>
      </trkpt>
      <trkpt lat="52.955100014805794" lon="-3.710246002301574">
        <ele>307.27999999999997</ele>
        <time>2026-07-10T14:47:53Z</time>
      </trkpt>
      <trkpt lat="52.954741017892957" lon="-3.707266990095377">
        <ele>308.24000000000001</ele>
        <time>2026-07-10T14:48:02Z</time>
      </trkpt>
      <trkpt lat="52.95455502346158" lon="-3.703683977946639">
        <ele>309.68000000000001</ele>
        <time>2026-07-10T14:48:13Z</time>
      </trkpt>
      <trkpt lat="52.954681003466249" lon="-3.701028004288673">
        <ele>309.68000000000001</ele>
        <time>2026-07-10T14:48:21Z</time>
      </trkpt>
      <trkpt lat="52.954776976257563" lon="-3.697525039315224">
        <ele>308.72000000000003</ele>
        <time>2026-07-10T14:48:31Z</time>
      </trkpt>
      <trkpt lat="52.954644039273262" lon="-3.69614495895803">
        <ele>309.68000000000001</ele>
        <time>2026-07-10T14:48:35Z</time>
      </trkpt>
      <trkpt lat="52.95414699241519" lon="-3.693559980019927">
        <ele>310.16000000000003</ele>
        <time>2026-07-10T14:48:43Z</time>
      </trkpt>
      <trkpt lat="52.9539530351758" lon="-3.692983975633979">
        <ele>309.68000000000001</ele>
        <time>2026-07-10T14:48:45Z</time>
      </trkpt>
      <trkpt lat="52.953062960878015" lon="-3.690334036946297">
        <ele>309.19999999999999</ele>
        <time>2026-07-10T14:48:54Z</time>
      </trkpt>
      <trkpt lat="52.952447980642319" lon="-3.68785098195076">
        <ele>309.68000000000001</ele>
        <time>2026-07-10T14:49:02Z</time>
      </trkpt>
      <trkpt lat="52.951780026778579" lon="-3.685258040204644">
        <ele>309.19999999999999</ele>
        <time>2026-07-10T14:49:11Z</time>
      </trkpt>
      <trkpt lat="52.951287003234029" lon="-3.683160971850157">
        <ele>313.05000000000001</ele>
        <time>2026-07-10T14:49:19Z</time>
      </trkpt>
      <trkpt lat="52.950986009091139" lon="-3.680567024275661">
        <ele>316.41000000000003</ele>
        <time>2026-07-10T14:49:29Z</time>
      </trkpt>
      <trkpt lat="52.950579989701509" lon="-3.676861971616745">
        <ele>314.97000000000003</ele>
        <time>2026-07-10T14:49:41Z</time>
      </trkpt>
      <trkpt lat="52.94999903999269" lon="-3.673999970778823">
        <ele>313.52999999999997</ele>
        <time>2026-07-10T14:49:50Z</time>
      </trkpt>
      <trkpt lat="52.949369978159666" lon="-3.670722981914878">
        <ele>314.00999999999999</ele>
        <time>2026-07-10T14:50:00Z</time>
      </trkpt>
      <trkpt lat="52.949211979284883" lon="-3.667960977181792">
        <ele>313.52999999999997</ele>
        <time>2026-07-10T14:50:08Z</time>
      </trkpt>
      <trkpt lat="52.948938980698586" lon="-3.66537700407207">
        <ele>309.19999999999999</ele>
        <time>2026-07-10T14:50:16Z</time>
      </trkpt>
      <trkpt lat="52.948931017890573" lon="-3.665035022422671">
        <ele>307.75999999999999</ele>
        <time>2026-07-10T14:50:17Z</time>
      </trkpt>
      <trkpt lat="52.948961025103927" lon="-3.664747020229697">
        <ele>306.31999999999999</ele>
        <time>2026-07-10T14:50:18Z</time>
      </trkpt>
      <trkpt lat="52.949019027873874" lon="-3.664428004994988">
        <ele>304.88</ele>
        <time>2026-07-10T14:50:19Z</time>
      </trkpt>
      <trkpt lat="52.949091028422117" lon="-3.66410999558866">
        <ele>303.43000000000001</ele>
        <time>2026-07-10T14:50:20Z</time>
      </trkpt>
      <trkpt lat="52.949164034798741" lon="-3.663791986182332">
        <ele>301.50999999999999</ele>
        <time>2026-07-10T14:50:21Z</time>
      </trkpt>
      <trkpt lat="52.949296971783042" lon="-3.663176000118256">
        <ele>299.11000000000001</ele>
        <time>2026-07-10T14:50:23Z</time>
      </trkpt>
      <trkpt lat="52.949308035895228" lon="-3.662864025682211">
        <ele>298.14999999999998</ele>
        <time>2026-07-10T14:50:24Z</time>
      </trkpt>
      <trkpt lat="52.949311975389719" lon="-3.66254098713398">
        <ele>296.69999999999999</ele>
        <time>2026-07-10T14:50:25Z</time>
      </trkpt>
      <trkpt lat="52.949274005368352" lon="-3.662221971899271">
        <ele>295.25999999999999</ele>
        <time>2026-07-10T14:50:26Z</time>
      </trkpt>
      <trkpt lat="52.949236035346985" lon="-3.661898011341691">
        <ele>293.81999999999999</ele>
        <time>2026-07-10T14:50:27Z</time>
      </trkpt>
      <trkpt lat="52.949167974293232" lon="-3.661586958914995">
        <ele>292.38</ele>
        <time>2026-07-10T14:50:28Z</time>
      </trkpt>
      <trkpt lat="52.949093962088227" lon="-3.661271966993809">
        <ele>290.94</ele>
        <time>2026-07-10T14:50:29Z</time>
      </trkpt>
      <trkpt lat="52.949020033702254" lon="-3.660952029749751">
        <ele>289.97000000000003</ele>
        <time>2026-07-10T14:50:30Z</time>
      </trkpt>
      <trkpt lat="52.948140017688274" lon="-3.657031981274486">
        <ele>275.06999999999999</ele>
        <time>2026-07-10T14:50:42Z</time>
      </trkpt>
      <trkpt lat="52.94783198274672" lon="-3.654280034825206">
        <ele>262.10000000000002</ele>
        <time>2026-07-10T14:50:51Z</time>
      </trkpt>
      <trkpt lat="52.947582034394145" lon="-3.651918014511466">
        <ele>250.56</ele>
        <time>2026-07-10T14:50:59Z</time>
      </trkpt>
      <trkpt lat="52.947252038866282" lon="-3.649724973365665">
        <ele>239.02000000000001</ele>
        <time>2026-07-10T14:51:07Z</time>
      </trkpt>
      <trkpt lat="52.946910979226232" lon="-3.647176958620548">
        <ele>231.81</ele>
        <time>2026-07-10T14:51:16Z</time>
      </trkpt>
      <trkpt lat="52.946331035345793" lon="-3.644859027117491">
        <ele>228.44999999999999</ele>
        <time>2026-07-10T14:51:24Z</time>
      </trkpt>
      <trkpt lat="52.945353034883738" lon="-3.642546962946653">
        <ele>227.00999999999999</ele>
        <time>2026-07-10T14:51:33Z</time>
      </trkpt>
      <trkpt lat="52.944911979138851" lon="-3.640758013352752">
        <ele>229.41</ele>
        <time>2026-07-10T14:51:39Z</time>
      </trkpt>
      <trkpt lat="52.944832015782595" lon="-3.638620041310787">
        <ele>233.25999999999999</ele>
        <time>2026-07-10T14:51:46Z</time>
      </trkpt>
      <trkpt lat="52.944711986929178" lon="-3.638078989461064">
        <ele>233.74000000000001</ele>
        <time>2026-07-10T14:51:48Z</time>
      </trkpt>
      <trkpt lat="52.94465197250247" lon="-3.637806996703148">
        <ele>233.74000000000001</ele>
        <time>2026-07-10T14:51:49Z</time>
      </trkpt>
      <trkpt lat="52.944573014974594" lon="-3.637550007551909">
        <ele>233.74000000000001</ele>
        <time>2026-07-10T14:51:50Z</time>
      </trkpt>
      <trkpt lat="52.944473018869758" lon="-3.637312967330217">
        <ele>233.25999999999999</ele>
        <time>2026-07-10T14:51:51Z</time>
      </trkpt>
      <trkpt lat="52.944381991401315" lon="-3.637096965685487">
        <ele>233.25999999999999</ele>
        <time>2026-07-10T14:51:52Z</time>
      </trkpt>
      <trkpt lat="52.944236984476447" lon="-3.636892028152943">
        <ele>233.25999999999999</ele>
        <time>2026-07-10T14:51:53Z</time>
      </trkpt>
      <trkpt lat="52.944104969501495" lon="-3.636707039549947">
        <ele>232.78</ele>
        <time>2026-07-10T14:51:54Z</time>
      </trkpt>
      <trkpt lat="52.943971026688814" lon="-3.636518027633429">
        <ele>232.30000000000001</ele>
        <time>2026-07-10T14:51:55Z</time>
      </trkpt>
      <trkpt lat="52.943816967308521" lon="-3.636368997395039">
        <ele>232.30000000000001</ele>
        <time>2026-07-10T14:51:56Z</time>
      </trkpt>
      <trkpt lat="52.943652011454105" lon="-3.636257015168667">
        <ele>232.30000000000001</ele>
        <time>2026-07-10T14:51:57Z</time>
      </trkpt>
      <trkpt lat="52.943488983437419" lon="-3.636145032942295">
        <ele>232.30000000000001</ele>
        <time>2026-07-10T14:51:58Z</time>
      </trkpt>
      <trkpt lat="52.942174030467868" lon="-3.635246995836496">
        <ele>230.84999999999999</ele>
        <time>2026-07-10T14:52:07Z</time>
      </trkpt>
      <trkpt lat="52.941072983667254" lon="-3.634386006742716">
        <ele>226.53</ele>
        <time>2026-07-10T14:52:17Z</time>
      </trkpt>
      <trkpt lat="52.94048298150301" lon="-3.632771987468004">
        <ele>220.75999999999999</ele>
        <time>2026-07-10T14:52:25Z</time>
      </trkpt>
      <trkpt lat="52.939472962170839" lon="-3.630061028525233">
        <ele>214.50999999999999</ele>
        <time>2026-07-10T14:52:38Z</time>
      </trkpt>
      <trkpt lat="52.938622031360865" lon="-3.628293033689261">
        <ele>212.59</ele>
        <time>2026-07-10T14:52:47Z</time>
      </trkpt>
      <trkpt lat="52.937499023973942" lon="-3.627315033227205">
        <ele>213.06999999999999</ele>
        <time>2026-07-10T14:52:55Z</time>
      </trkpt>
      <trkpt lat="52.936051972210407" lon="-3.626256985589862">
        <ele>213.06999999999999</ele>
        <time>2026-07-10T14:53:04Z</time>
      </trkpt>
      <trkpt lat="52.93513298034668" lon="-3.624645983800292">
        <ele>213.06999999999999</ele>
        <time>2026-07-10T14:53:11Z</time>
      </trkpt>
      <trkpt lat="52.933288039639592" lon="-3.620942020788789">
        <ele>211.15000000000001</ele>
        <time>2026-07-10T14:53:25Z</time>
      </trkpt>
      <trkpt lat="52.932312972843647" lon="-3.618336003273726">
        <ele>208.25999999999999</ele>
        <time>2026-07-10T14:53:34Z</time>
      </trkpt>
      <trkpt lat="52.931983983144164" lon="-3.617626978084445">
        <ele>206.34</ele>
        <time>2026-07-10T14:53:37Z</time>
      </trkpt>
      <trkpt lat="52.931840987876058" lon="-3.617454981431365">
        <ele>206.34</ele>
        <time>2026-07-10T14:53:38Z</time>
      </trkpt>
      <trkpt lat="52.931693969294429" lon="-3.617277033627033">
        <ele>205.86000000000001</ele>
        <time>2026-07-10T14:53:39Z</time>
      </trkpt>
      <trkpt lat="52.930024964734912" lon="-3.615608029067516">
        <ele>201.05000000000001</ele>
        <time>2026-07-10T14:53:49Z</time>
      </trkpt>
      <trkpt lat="52.928072987124324" lon="-3.613720005378127">
        <ele>198.65000000000001</ele>
        <time>2026-07-10T14:54:00Z</time>
      </trkpt>
      <trkpt lat="52.926451005041599" lon="-3.612155020236969">
        <ele>199.13</ele>
        <time>2026-07-10T14:54:10Z</time>
      </trkpt>
      <trkpt lat="52.924974029883742" lon="-3.611183976754546">
        <ele>197.69</ele>
        <time>2026-07-10T14:54:19Z</time>
      </trkpt>
      <trkpt lat="52.923245010897517" lon="-3.61037403345108">
        <ele>193.36000000000001</ele>
        <time>2026-07-10T14:54:28Z</time>
      </trkpt>
      <trkpt lat="52.922160979360342" lon="-3.609743965789676">
        <ele>193.36000000000001</ele>
        <time>2026-07-10T14:54:34Z</time>
      </trkpt>
      <trkpt lat="52.921700980514288" lon="-3.609373988583684">
        <ele>193.84</ele>
        <time>2026-07-10T14:54:37Z</time>
      </trkpt>
      <trkpt lat="52.921545999124646" lon="-3.609233004972339">
        <ele>193.84</ele>
        <time>2026-07-10T14:54:38Z</time>
      </trkpt>
      <trkpt lat="52.921393029391766" lon="-3.609095960855484">
        <ele>193.84</ele>
        <time>2026-07-10T14:54:39Z</time>
      </trkpt>
      <trkpt lat="52.921250034123659" lon="-3.608968975022435">
        <ele>194.31999999999999</ele>
        <time>2026-07-10T14:54:40Z</time>
      </trkpt>
      <trkpt lat="52.921107038855553" lon="-3.608840983361006">
        <ele>193.84</ele>
        <time>2026-07-10T14:54:41Z</time>
      </trkpt>
      <trkpt lat="52.920950967818499" lon="-3.608787003904581">
        <ele>193.84</ele>
        <time>2026-07-10T14:54:42Z</time>
      </trkpt>
      <trkpt lat="52.920779976993799" lon="-3.608748028054833">
        <ele>193.84</ele>
        <time>2026-07-10T14:54:43Z</time>
      </trkpt>
      <trkpt lat="52.920602029189467" lon="-3.608707962557674">
        <ele>193.36000000000001</ele>
        <time>2026-07-10T14:54:44Z</time>
      </trkpt>
      <trkpt lat="52.920427015051246" lon="-3.608667980879545">
        <ele>192.88</ele>
        <time>2026-07-10T14:54:45Z</time>
      </trkpt>
      <trkpt lat="52.920089978724718" lon="-3.608591035008431">
        <ele>191.91999999999999</ele>
        <time>2026-07-10T14:54:47Z</time>
      </trkpt>
      <trkpt lat="52.919931979849935" lon="-3.608554992824793">
        <ele>191.44</ele>
        <time>2026-07-10T14:54:48Z</time>
      </trkpt>
      <trkpt lat="52.918624989688396" lon="-3.608175963163376">
        <ele>191.91999999999999</ele>
        <time>2026-07-10T14:54:57Z</time>
      </trkpt>
      <trkpt lat="52.918341010808945" lon="-3.608045037835836">
        <ele>192.88</ele>
        <time>2026-07-10T14:54:59Z</time>
      </trkpt>
      <trkpt lat="52.918204972520471" lon="-3.607954010367394">
        <ele>193.36000000000001</ele>
        <time>2026-07-10T14:55:00Z</time>
      </trkpt>
      <trkpt lat="52.918076980859041" lon="-3.607807997614145">
        <ele>193.84</ele>
        <time>2026-07-10T14:55:01Z</time>
      </trkpt>
      <trkpt lat="52.917577000334859" lon="-3.607125962153077">
        <ele>193.84</ele>
        <time>2026-07-10T14:55:05Z</time>
      </trkpt>
      <trkpt lat="52.917473986744881" lon="-3.606949020177126">
        <ele>194.31999999999999</ele>
        <time>2026-07-10T14:55:06Z</time>
      </trkpt>
      <trkpt lat="52.917415983974934" lon="-3.606732012704015">
        <ele>194.80000000000001</ele>
        <time>2026-07-10T14:55:07Z</time>
      </trkpt>
      <trkpt lat="52.917359992861748" lon="-3.606520034372807">
        <ele>195.28</ele>
        <time>2026-07-10T14:55:08Z</time>
      </trkpt>
      <trkpt lat="52.917304001748562" lon="-3.606310989707708">
        <ele>195.28</ele>
        <time>2026-07-10T14:55:09Z</time>
      </trkpt>
      <trkpt lat="52.916739983484149" lon="-3.604579037055373">
        <ele>203.46000000000001</ele>
        <time>2026-07-10T14:55:17Z</time>
      </trkpt>
      <trkpt lat="52.915835995227098" lon="-3.602802995592356">
        <ele>204.90000000000001</ele>
        <time>2026-07-10T14:55:28Z</time>
      </trkpt>
      <trkpt lat="52.91497802361846" lon="-3.601142037659884">
        <ele>196.72999999999999</ele>
        <time>2026-07-10T14:55:40Z</time>
      </trkpt>
      <trkpt lat="52.914221975952387" lon="-3.599273040890694">
        <ele>181.34999999999999</ele>
        <time>2026-07-10T14:55:53Z</time>
      </trkpt>
      <trkpt lat="52.913860967382789" lon="-3.598528979346156">
        <ele>177.5</ele>
        <time>2026-07-10T14:56:00Z</time>
      </trkpt>
      <trkpt lat="52.913816962391138" lon="-3.598447004333139">
        <ele>177.02000000000001</ele>
        <time>2026-07-10T14:56:01Z</time>
      </trkpt>
      <trkpt lat="52.913246992975473" lon="-3.597421981394291">
        <ele>176.06</ele>
        <time>2026-07-10T14:56:13Z</time>
      </trkpt>
      <trkpt lat="52.912709964439273" lon="-3.596606003120542">
        <ele>175.58000000000001</ele>
        <time>2026-07-10T14:56:23Z</time>
      </trkpt>
      <trkpt lat="52.912676017731428" lon="-3.596526039764285">
        <ele>175.58000000000001</ele>
        <time>2026-07-10T14:56:24Z</time>
      </trkpt>
      <trkpt lat="52.912639975547791" lon="-3.596429983153939">
        <ele>175.58000000000001</ele>
        <time>2026-07-10T14:56:25Z</time>
      </trkpt>
      <trkpt lat="52.912612985819578" lon="-3.596324035897851">
        <ele>175.58000000000001</ele>
        <time>2026-07-10T14:56:26Z</time>
      </trkpt>
      <trkpt lat="52.912594964727759" lon="-3.596209036186338">
        <ele>176.06</ele>
        <time>2026-07-10T14:56:27Z</time>
      </trkpt>
      <trkpt lat="52.912582978606224" lon="-3.59608699567616">
        <ele>176.06</ele>
        <time>2026-07-10T14:56:28Z</time>
      </trkpt>
      <trkpt lat="52.912591025233269" lon="-3.595967972651124">
        <ele>176.06</ele>
        <time>2026-07-10T14:56:29Z</time>
      </trkpt>
      <trkpt lat="52.912602005526423" lon="-3.59584903344512">
        <ele>176.06</ele>
        <time>2026-07-10T14:56:30Z</time>
      </trkpt>
      <trkpt lat="52.912611979991198" lon="-3.595736967399716">
        <ele>176.06</ele>
        <time>2026-07-10T14:56:31Z</time>
      </trkpt>
      <trkpt lat="52.912622038275003" lon="-3.595630014315248">
        <ele>175.58000000000001</ele>
        <time>2026-07-10T14:56:32Z</time>
      </trkpt>
      <trkpt lat="52.912631006911397" lon="-3.595524989068508">
        <ele>175.58000000000001</ele>
        <time>2026-07-10T14:56:33Z</time>
      </trkpt>
      <trkpt lat="52.912646010518074" lon="-3.595361961051822">
        <ele>175.58000000000001</ele>
        <time>2026-07-10T14:56:35Z</time>
      </trkpt>
      <trkpt lat="52.912622038275003" lon="-3.595276968553662">
        <ele>175.58000000000001</ele>
        <time>2026-07-10T14:56:36Z</time>
      </trkpt>
      <trkpt lat="52.912579961121082" lon="-3.595126010477543">
        <ele>175.58000000000001</ele>
        <time>2026-07-10T14:56:38Z</time>
      </trkpt>
      <trkpt lat="52.912559006363153" lon="-3.595051998272538">
        <ele>175.58000000000001</ele>
        <time>2026-07-10T14:56:39Z</time>
      </trkpt>
      <trkpt lat="52.912541991099715" lon="-3.594990978017449">
        <ele>175.58000000000001</ele>
        <time>2026-07-10T14:56:40Z</time>
      </trkpt>
      <trkpt lat="52.912527993321419" lon="-3.594942027702928">
        <ele>175.58000000000001</ele>
        <time>2026-07-10T14:56:41Z</time>
      </trkpt>
      <trkpt lat="52.912519024685025" lon="-3.594907997176051">
        <ele>175.58000000000001</ele>
        <time>2026-07-10T14:56:42Z</time>
      </trkpt>
      <trkpt lat="52.912519024685025" lon="-3.594907997176051">
        <ele>175.58000000000001</ele>
        <time>2026-07-10T14:56:52Z</time>
      </trkpt>
      <trkpt lat="52.912495974451303" lon="-3.594825016334653">
        <ele>175.58000000000001</ele>
        <time>2026-07-10T14:57:18Z</time>
      </trkpt>
      <trkpt lat="52.91246403940022" lon="-3.594882013276219">
        <ele>175.58000000000001</ele>
        <time>2026-07-10T14:57:19Z</time>
      </trkpt>
      <trkpt lat="52.912436965852976" lon="-3.594929035753012">
        <ele>175.58000000000001</ele>
        <time>2026-07-10T14:57:20Z</time>
      </trkpt>
      <trkpt lat="52.912405030801892" lon="-3.594987038522959">
        <ele>175.58000000000001</ele>
        <time>2026-07-10T14:57:21Z</time>
      </trkpt>
      <trkpt lat="52.912369994446635" lon="-3.595047974959016">
        <ele>175.09999999999999</ele>
        <time>2026-07-10T14:57:22Z</time>
      </trkpt>
      <trkpt lat="52.912333030253649" lon="-3.595114024356008">
        <ele>174.62</ele>
        <time>2026-07-10T14:57:23Z</time>
      </trkpt>
      <trkpt lat="52.912293970584869" lon="-3.59518401324749">
        <ele>173.66</ele>
        <time>2026-07-10T14:57:24Z</time>
      </trkpt>
      <trkpt lat="52.912253988906741" lon="-3.595255007967353">
        <ele>173.16999999999999</ele>
        <time>2026-07-10T14:57:25Z</time>
      </trkpt>
      <trkpt lat="52.911788960918784" lon="-3.596139969304204">
        <ele>161.16</ele>
        <time>2026-07-10T14:57:38Z</time>
      </trkpt>
      <trkpt lat="52.911750990897417" lon="-3.596210964024067">
        <ele>160.19999999999999</ele>
        <time>2026-07-10T14:57:39Z</time>
      </trkpt>
      <trkpt lat="52.911714026704431" lon="-3.596278019249439">
        <ele>159.24000000000001</ele>
        <time>2026-07-10T14:57:40Z</time>
      </trkpt>
      <trkpt lat="52.911567008122802" lon="-3.596551017835736">
        <ele>156.34999999999999</ele>
        <time>2026-07-10T14:57:44Z</time>
      </trkpt>
      <trkpt lat="52.911502970382571" lon="-3.596669035032392">
        <ele>155.38999999999999</ele>
        <time>2026-07-10T14:57:46Z</time>
      </trkpt>
      <trkpt lat="52.911475980654359" lon="-3.596718991175294">
        <ele>154.91</ele>
        <time>2026-07-10T14:57:47Z</time>
      </trkpt>
      <trkpt lat="52.911287974566221" lon="-3.597066001966596">
        <ele>154.43000000000001</ele>
        <time>2026-07-10T14:57:57Z</time>
      </trkpt>
      <trkpt lat="52.911274982616305" lon="-3.597090980038047">
        <ele>154.91</ele>
        <time>2026-07-10T14:57:58Z</time>
      </trkpt>
      <trkpt lat="52.91126299649477" lon="-3.597113024443388">
        <ele>154.91</ele>
        <time>2026-07-10T14:57:59Z</time>
      </trkpt>
      <trkpt lat="52.911224020645022" lon="-3.597058039158583">
        <ele>162.12</ele>
        <time>2026-07-10T15:46:13Z</time>
      </trkpt>
      <trkpt lat="52.911203987896442" lon="-3.597111012786627">
        <ele>166.93000000000001</ele>
        <time>2026-07-10T15:46:44Z</time>
      </trkpt>
      <trkpt lat="52.911226032301784" lon="-3.597130039706826">
        <ele>171.72999999999999</ele>
        <time>2026-07-10T15:47:30Z</time>
      </trkpt>
      <trkpt lat="52.911217985674739" lon="-3.597133979201317">
        <ele>173.16999999999999</ele>
        <time>2026-07-10T15:48:18Z</time>
      </trkpt>
      <trkpt lat="52.911217985674739" lon="-3.597133979201317">
        <ele>173.16999999999999</ele>
        <time>2026-07-10T15:48:35Z</time>
      </trkpt>
      <trkpt lat="52.911214968189597" lon="-3.597133979201317">
        <ele>173.16999999999999</ele>
        <time>2026-07-10T15:48:38Z</time>
      </trkpt>
      <trkpt lat="52.911256039515138" lon="-3.597126016393304">
        <ele>173.16999999999999</ele>
        <time>2026-07-10T15:48:41Z</time>
      </trkpt>
      <trkpt lat="52.911280011758208" lon="-3.597081005573273">
        <ele>172.69</ele>
        <time>2026-07-10T15:48:43Z</time>
      </trkpt>
      <trkpt lat="52.911531971767545" lon="-3.596615977585316">
        <ele>172.21000000000001</ele>
        <time>2026-07-10T15:48:49Z</time>
      </trkpt>
      <trkpt lat="52.911557033658028" lon="-3.596569038927555">
        <ele>172.21000000000001</ele>
        <time>2026-07-10T15:48:50Z</time>
      </trkpt>
      <trkpt lat="52.911591986194253" lon="-3.596503995358944">
        <ele>171.72999999999999</ele>
        <time>2026-07-10T15:48:58Z</time>
      </trkpt>
      <trkpt lat="52.911621993407607" lon="-3.596450015902519">
        <ele>171.72999999999999</ele>
        <time>2026-07-10T15:48:59Z</time>
      </trkpt>
      <trkpt lat="52.911659963428974" lon="-3.596378015354276">
        <ele>171.25</ele>
        <time>2026-07-10T15:49:00Z</time>
      </trkpt>
      <trkpt lat="52.911813016980886" lon="-3.596094958484173">
        <ele>170.77000000000001</ele>
        <time>2026-07-10T15:49:04Z</time>
      </trkpt>
      <trkpt lat="52.911874037235975" lon="-3.595982976257801">
        <ele>170.28999999999999</ele>
        <time>2026-07-10T15:49:06Z</time>
      </trkpt>
      <trkpt lat="52.911903038620949" lon="-3.595921033993363">
        <ele>170.28999999999999</ele>
        <time>2026-07-10T15:49:07Z</time>
      </trkpt>
      <trkpt lat="52.911966992542148" lon="-3.595782984048128">
        <ele>169.81</ele>
        <time>2026-07-10T15:49:09Z</time>
      </trkpt>
      <trkpt lat="52.912002028897405" lon="-3.595705032348633">
        <ele>169.33000000000001</ele>
        <time>2026-07-10T15:49:10Z</time>
      </trkpt>
      <trkpt lat="52.912200009450316" lon="-3.595350980758667">
        <ele>168.84999999999999</ele>
        <time>2026-07-10T15:49:15Z</time>
      </trkpt>
      <trkpt lat="52.912244014441967" lon="-3.595273029059172">
        <ele>168.37</ele>
        <time>2026-07-10T15:49:16Z</time>
      </trkpt>
      <trkpt lat="52.912303023040295" lon="-3.595169009640813">
        <ele>168.37</ele>
        <time>2026-07-10T15:49:17Z</time>
      </trkpt>
      <trkpt lat="52.912717005237937" lon="-3.594382032752037">
        <ele>171.72999999999999</ele>
        <time>2026-07-10T15:49:23Z</time>
      </trkpt>
      <trkpt lat="52.913379007950425" lon="-3.593191970139742">
        <ele>171.72999999999999</ele>
        <time>2026-07-10T15:49:31Z</time>
      </trkpt>
      <trkpt lat="52.913646977394819" lon="-3.592745969071984">
        <ele>170.28999999999999</ele>
        <time>2026-07-10T15:49:34Z</time>
      </trkpt>
      <trkpt lat="52.913740016520023" lon="-3.592571960762143">
        <ele>169.81</ele>
        <time>2026-07-10T15:49:35Z</time>
      </trkpt>
      <trkpt lat="52.913848981261253" lon="-3.59236802905798">
        <ele>169.33000000000001</ele>
        <time>2026-07-10T15:49:36Z</time>
      </trkpt>
      <trkpt lat="52.914706030860543" lon="-3.590747974812985">
        <ele>167.41</ele>
        <time>2026-07-10T15:49:44Z</time>
      </trkpt>
      <trkpt lat="52.914778031408787" lon="-3.590471036732197">
        <ele>167.41</ele>
        <time>2026-07-10T15:49:45Z</time>
      </trkpt>
      <trkpt lat="52.914842991158366" lon="-3.590192003175616">
        <ele>167.41</ele>
        <time>2026-07-10T15:49:46Z</time>
      </trkpt>
      <trkpt lat="52.914880961179733" lon="-3.589891009032726">
        <ele>167.88999999999999</ele>
        <time>2026-07-10T15:49:47Z</time>
      </trkpt>
      <trkpt lat="52.914921026676893" lon="-3.58957702293992">
        <ele>168.37</ele>
        <time>2026-07-10T15:49:48Z</time>
      </trkpt>
      <trkpt lat="52.915262002497911" lon="-3.586965976282954">
        <ele>170.77000000000001</ele>
        <time>2026-07-10T15:49:57Z</time>
      </trkpt>
      <trkpt lat="52.915497031062841" lon="-3.585206028074026">
        <ele>172.21000000000001</ele>
        <time>2026-07-10T15:50:03Z</time>
      </trkpt>
      <trkpt lat="52.915533995255828" lon="-3.584909979254007">
        <ele>172.21000000000001</ele>
        <time>2026-07-10T15:50:04Z</time>
      </trkpt>
      <trkpt lat="52.916003968566656" lon="-3.581457976251841">
        <ele>171.25</ele>
        <time>2026-07-10T15:50:16Z</time>
      </trkpt>
      <trkpt lat="52.916792035102844" lon="-3.577194018289447">
        <ele>166.44999999999999</ele>
        <time>2026-07-10T15:50:31Z</time>
      </trkpt>
      <trkpt lat="52.917603990063071" lon="-3.573765987530351">
        <ele>167.41</ele>
        <time>2026-07-10T15:50:43Z</time>
      </trkpt>
      <trkpt lat="52.917777998372912" lon="-3.573209010064602">
        <ele>168.37</ele>
        <time>2026-07-10T15:50:45Z</time>
      </trkpt>
      <trkpt lat="52.917866008356214" lon="-3.57292796485126">
        <ele>168.37</ele>
        <time>2026-07-10T15:50:46Z</time>
      </trkpt>
      <trkpt lat="52.918886002153158" lon="-3.569679977372289">
        <ele>171.25</ele>
        <time>2026-07-10T15:50:58Z</time>
      </trkpt>
      <trkpt lat="52.919184984639287" lon="-3.568737013265491">
        <ele>171.72999999999999</ele>
        <time>2026-07-10T15:51:04Z</time>
      </trkpt>
      <trkpt lat="52.919213986024261" lon="-3.568642968311906">
        <ele>172.69</ele>
        <time>2026-07-10T15:51:10Z</time>
      </trkpt>
      <trkpt lat="52.919231001287699" lon="-3.568591000512242">
        <ele>174.62</ele>
        <time>2026-07-10T15:51:29Z</time>
      </trkpt>
      <trkpt lat="52.919193031266332" lon="-3.568542972207069">
        <ele>174.62</ele>
        <time>2026-07-10T15:51:30Z</time>
      </trkpt>
      <trkpt lat="52.919160006567836" lon="-3.568509025499225">
        <ele>174.62</ele>
        <time>2026-07-10T15:51:31Z</time>
      </trkpt>
      <trkpt lat="52.919121030718088" lon="-3.568469965830445">
        <ele>174.62</ele>
        <time>2026-07-10T15:51:32Z</time>
      </trkpt>
      <trkpt lat="52.919071996584535" lon="-3.568421015515924">
        <ele>174.13999999999999</ele>
        <time>2026-07-10T15:51:33Z</time>
      </trkpt>
      <trkpt lat="52.918953979387879" lon="-3.568302998319268">
        <ele>173.66</ele>
        <time>2026-07-10T15:51:35Z</time>
      </trkpt>
      <trkpt lat="52.918895976617932" lon="-3.568214988335967">
        <ele>173.16999999999999</ele>
        <time>2026-07-10T15:51:36Z</time>
      </trkpt>
      <trkpt lat="52.918847026303411" lon="-3.568067969754338">
        <ele>173.16999999999999</ele>
        <time>2026-07-10T15:51:37Z</time>
      </trkpt>
      <trkpt lat="52.918835040181875" lon="-3.567903013899922">
        <ele>172.69</ele>
        <time>2026-07-10T15:51:38Z</time>
      </trkpt>
      <trkpt lat="52.918820958584547" lon="-3.56770696118474">
        <ele>172.21000000000001</ele>
        <time>2026-07-10T15:51:39Z</time>
      </trkpt>
      <trkpt lat="52.918718028813601" lon="-3.565925974398851">
        <ele>172.21000000000001</ele>
        <time>2026-07-10T15:51:46Z</time>
      </trkpt>
      <trkpt lat="52.918646028265357" lon="-3.564472971484065">
        <ele>171.25</ele>
        <time>2026-07-10T15:51:51Z</time>
      </trkpt>
      <trkpt lat="52.918326007202268" lon="-3.562264004722238">
        <ele>169.33000000000001</ele>
        <time>2026-07-10T15:51:59Z</time>
      </trkpt>
      <trkpt lat="52.918225005269051" lon="-3.561244010925293">
        <ele>167.41</ele>
        <time>2026-07-10T15:52:03Z</time>
      </trkpt>
      <trkpt lat="52.918150993064046" lon="-3.56106597930193">
        <ele>166.93000000000001</ele>
        <time>2026-07-10T15:52:04Z</time>
      </trkpt>
      <trkpt lat="52.918073963373899" lon="-3.560879984870553">
        <ele>166.93000000000001</ele>
        <time>2026-07-10T15:52:05Z</time>
      </trkpt>
      <trkpt lat="52.917451020330191" lon="-3.559335032477975">
        <ele>163.08000000000001</ele>
        <time>2026-07-10T15:52:12Z</time>
      </trkpt>
      <trkpt lat="52.917281035333872" lon="-3.558884002268314">
        <ele>162.59999999999999</ele>
        <time>2026-07-10T15:52:14Z</time>
      </trkpt>
      <trkpt lat="52.917248010635376" lon="-3.558684010058641">
        <ele>162.12</ele>
        <time>2026-07-10T15:52:15Z</time>
      </trkpt>
      <trkpt lat="52.917238036170602" lon="-3.55844403617084">
        <ele>161.63999999999999</ele>
        <time>2026-07-10T15:52:16Z</time>
      </trkpt>
      <trkpt lat="52.917238036170602" lon="-3.558197021484375">
        <ele>160.68000000000001</ele>
        <time>2026-07-10T15:52:17Z</time>
      </trkpt>
      <trkpt lat="52.917283968999982" lon="-3.557964004576206">
        <ele>159.72</ele>
        <time>2026-07-10T15:52:18Z</time>
      </trkpt>
      <trkpt lat="52.917329985648394" lon="-3.557724030688405">
        <ele>159.24000000000001</ele>
        <time>2026-07-10T15:52:19Z</time>
      </trkpt>
      <trkpt lat="52.917722007259727" lon="-3.556012026965618">
        <ele>160.68000000000001</ele>
        <time>2026-07-10T15:52:26Z</time>
      </trkpt>
      <trkpt lat="52.917815968394279" lon="-3.555810023099184">
        <ele>161.63999999999999</ele>
        <time>2026-07-10T15:52:27Z</time>
      </trkpt>
      <trkpt lat="52.917910013347864" lon="-3.55560801923275">
        <ele>162.12</ele>
        <time>2026-07-10T15:52:28Z</time>
      </trkpt>
      <trkpt lat="52.918338999152184" lon="-3.554645022377372">
        <ele>163.56</ele>
        <time>2026-07-10T15:52:33Z</time>
      </trkpt>
      <trkpt lat="52.918360959738493" lon="-3.554450981318951">
        <ele>163.08000000000001</ele>
        <time>2026-07-10T15:52:34Z</time>
      </trkpt>
      <trkpt lat="52.918358026072383" lon="-3.554231962189078">
        <ele>163.56</ele>
        <time>2026-07-10T15:52:35Z</time>
      </trkpt>
      <trkpt lat="52.918317960575223" lon="-3.554003974422813">
        <ele>163.08000000000001</ele>
        <time>2026-07-10T15:52:36Z</time>
      </trkpt>
      <trkpt lat="52.918275967240334" lon="-3.553759977221489">
        <ele>163.08000000000001</ele>
        <time>2026-07-10T15:52:37Z</time>
      </trkpt>
      <trkpt lat="52.918202038854361" lon="-3.553525032475591">
        <ele>162.59999999999999</ele>
        <time>2026-07-10T15:52:38Z</time>
      </trkpt>
      <trkpt lat="52.918116040527821" lon="-3.553279023617506">
        <ele>162.59999999999999</ele>
        <time>2026-07-10T15:52:39Z</time>
      </trkpt>
      <trkpt lat="52.918026018887758" lon="-3.553022034466267">
        <ele>162.59999999999999</ele>
        <time>2026-07-10T15:52:40Z</time>
      </trkpt>
      <trkpt lat="52.917582029476762" lon="-3.551758965477347">
        <ele>160.68000000000001</ele>
        <time>2026-07-10T15:52:45Z</time>
      </trkpt>
      <trkpt lat="52.917473986744881" lon="-3.55157095938921">
        <ele>160.68000000000001</ele>
        <time>2026-07-10T15:52:46Z</time>
      </trkpt>
      <trkpt lat="52.917351024225354" lon="-3.55139896273613">
        <ele>160.19999999999999</ele>
        <time>2026-07-10T15:52:47Z</time>
      </trkpt>
      <trkpt lat="52.9172139801085" lon="-3.551241969689727">
        <ele>160.19999999999999</ele>
        <time>2026-07-10T15:52:48Z</time>
      </trkpt>
      <trkpt lat="52.917072996497154" lon="-3.551079025492072">
        <ele>160.19999999999999</ele>
        <time>2026-07-10T15:52:49Z</time>
      </trkpt>
      <trkpt lat="52.916923966258764" lon="-3.550909040495753">
        <ele>160.19999999999999</ele>
        <time>2026-07-10T15:52:50Z</time>
      </trkpt>
      <trkpt lat="52.916251989081502" lon="-3.550135977566242">
        <ele>161.16</ele>
        <time>2026-07-10T15:52:55Z</time>
      </trkpt>
      <trkpt lat="52.91615903377533" lon="-3.549968004226685">
        <ele>160.68000000000001</ele>
        <time>2026-07-10T15:52:56Z</time>
      </trkpt>
      <trkpt lat="52.91607303544879" lon="-3.549757031723857">
        <ele>160.19999999999999</ele>
        <time>2026-07-10T15:52:57Z</time>
      </trkpt>
      <trkpt lat="52.915982007980347" lon="-3.549536000937223">
        <ele>160.19999999999999</ele>
        <time>2026-07-10T15:52:58Z</time>
      </trkpt>
      <trkpt lat="52.915888968855143" lon="-3.549310024827719">
        <ele>160.19999999999999</ele>
        <time>2026-07-10T15:52:59Z</time>
      </trkpt>
      <trkpt lat="52.915532989427447" lon="-3.548369994387031">
        <ele>159.24000000000001</ele>
        <time>2026-07-10T15:53:03Z</time>
      </trkpt>
      <trkpt lat="52.915478004142642" lon="-3.548103030771017">
        <ele>159.24000000000001</ele>
        <time>2026-07-10T15:53:04Z</time>
      </trkpt>
      <trkpt lat="52.91521699167788" lon="-3.546051979064941">
        <ele>157.78999999999999</ele>
        <time>2026-07-10T15:53:11Z</time>
      </trkpt>
      <trkpt lat="52.914989003911614" lon="-3.543336996808648">
        <ele>158.75</ele>
        <time>2026-07-10T15:53:20Z</time>
      </trkpt>
      <trkpt lat="52.914880961179733" lon="-3.542514983564615">
        <ele>158.75</ele>
        <time>2026-07-10T15:53:23Z</time>
      </trkpt>
      <trkpt lat="52.914825975894928" lon="-3.542270986363292">
        <ele>158.27000000000001</ele>
        <time>2026-07-10T15:53:24Z</time>
      </trkpt>
      <trkpt lat="52.914748024195433" lon="-3.542037969455123">
        <ele>158.75</ele>
        <time>2026-07-10T15:53:25Z</time>
      </trkpt>
      <trkpt lat="52.914644004777074" lon="-3.541851975023747">
        <ele>158.75</ele>
        <time>2026-07-10T15:53:26Z</time>
      </trkpt>
      <trkpt lat="52.914523975923657" lon="-3.541674027219415">
        <ele>159.24000000000001</ele>
        <time>2026-07-10T15:53:27Z</time>
      </trkpt>
      <trkpt lat="52.914401013404131" lon="-3.54149297811091">
        <ele>159.72</ele>
        <time>2026-07-10T15:53:28Z</time>
      </trkpt>
      <trkpt lat="52.914165984839201" lon="-3.541104979813099">
        <ele>162.12</ele>
        <time>2026-07-10T15:53:30Z</time>
      </trkpt>
      <trkpt lat="52.913975967094302" lon="-3.540709018707275">
        <ele>163.56</ele>
        <time>2026-07-10T15:53:32Z</time>
      </trkpt>
      <trkpt lat="52.913916958495975" lon="-3.540474995970726">
        <ele>164.52000000000001</ele>
        <time>2026-07-10T15:53:33Z</time>
      </trkpt>
      <trkpt lat="52.913861973211169" lon="-3.540255976840854">
        <ele>165.96000000000001</ele>
        <time>2026-07-10T15:53:35Z</time>
      </trkpt>
      <trkpt lat="52.913225032389164" lon="-3.537739980965853">
        <ele>167.41</ele>
        <time>2026-07-10T15:53:44Z</time>
      </trkpt>
      <trkpt lat="52.91315495967865" lon="-3.537462037056685">
        <ele>167.88999999999999</ele>
        <time>2026-07-10T15:53:45Z</time>
      </trkpt>
      <trkpt lat="52.913078013807535" lon="-3.537188032642007">
        <ele>168.37</ele>
        <time>2026-07-10T15:53:46Z</time>
      </trkpt>
      <trkpt lat="52.912977011874318" lon="-3.536940012127161">
        <ele>168.84999999999999</ele>
        <time>2026-07-10T15:53:47Z</time>
      </trkpt>
      <trkpt lat="52.912866035476327" lon="-3.536704983562231">
        <ele>169.33000000000001</ele>
        <time>2026-07-10T15:53:48Z</time>
      </trkpt>
      <trkpt lat="52.912729997187853" lon="-3.536499962210655">
        <ele>169.81</ele>
        <time>2026-07-10T15:53:49Z</time>
      </trkpt>
      <trkpt lat="52.91259303689003" lon="-3.536296030506492">
        <ele>170.77000000000001</ele>
        <time>2026-07-10T15:53:50Z</time>
      </trkpt>
      <trkpt lat="52.912447024136782" lon="-3.536106012761593">
        <ele>171.25</ele>
        <time>2026-07-10T15:53:51Z</time>
      </trkpt>
      <trkpt lat="52.911373972892761" lon="-3.534888038411737">
        <ele>172.69</ele>
        <time>2026-07-10T15:53:58Z</time>
      </trkpt>
      <trkpt lat="52.910479037091136" lon="-3.533821022138">
        <ele>169.81</ele>
        <time>2026-07-10T15:54:05Z</time>
      </trkpt>
      <trkpt lat="52.910430002957582" lon="-3.533637039363384">
        <ele>169.33000000000001</ele>
        <time>2026-07-10T15:54:06Z</time>
      </trkpt>
      <trkpt lat="52.910388009622693" lon="-3.533459007740021">
        <ele>168.37</ele>
        <time>2026-07-10T15:54:07Z</time>
      </trkpt>
      <trkpt lat="52.910243002697825" lon="-3.53218998759985">
        <ele>164.52000000000001</ele>
        <time>2026-07-10T15:54:12Z</time>
      </trkpt>
      <trkpt lat="52.910178964957595" lon="-3.531913971528411">
        <ele>164.52000000000001</ele>
        <time>2026-07-10T15:54:13Z</time>
      </trkpt>
      <trkpt lat="52.909836983308196" lon="-3.530036006122828">
        <ele>165.96000000000001</ele>
        <time>2026-07-10T15:54:20Z</time>
      </trkpt>
      <trkpt lat="52.909818962216377" lon="-3.529810030013323">
        <ele>166.93000000000001</ele>
        <time>2026-07-10T15:54:21Z</time>
      </trkpt>
      <trkpt lat="52.909849975258112" lon="-3.529591010883451">
        <ele>167.41</ele>
        <time>2026-07-10T15:54:22Z</time>
      </trkpt>
      <trkpt lat="52.909879982471466" lon="-3.52937500923872">
        <ele>168.37</ele>
        <time>2026-07-10T15:54:23Z</time>
      </trkpt>
      <trkpt lat="52.90990898385644" lon="-3.529165964573622">
        <ele>168.84999999999999</ele>
        <time>2026-07-10T15:54:24Z</time>
      </trkpt>
      <trkpt lat="52.909960029646754" lon="-3.528977036476135">
        <ele>168.84999999999999</ele>
        <time>2026-07-10T15:54:25Z</time>
      </trkpt>
      <trkpt lat="52.910029012709856" lon="-3.52879598736763">
        <ele>169.33000000000001</ele>
        <time>2026-07-10T15:54:26Z</time>
      </trkpt>
      <trkpt lat="52.910096989944577" lon="-3.528618039563298">
        <ele>169.33000000000001</ele>
        <time>2026-07-10T15:54:27Z</time>
      </trkpt>
      <trkpt lat="52.910168990492821" lon="-3.528431039303541">
        <ele>169.81</ele>
        <time>2026-07-10T15:54:28Z</time>
      </trkpt>
      <trkpt lat="52.910268986597657" lon="-3.528253007680178">
        <ele>169.81</ele>
        <time>2026-07-10T15:54:29Z</time>
      </trkpt>
      <trkpt lat="52.910385997965932" lon="-3.528088973835111">
        <ele>170.28999999999999</ele>
        <time>2026-07-10T15:54:30Z</time>
      </trkpt>
      <trkpt lat="52.910508960485458" lon="-3.527916977182031">
        <ele>170.28999999999999</ele>
        <time>2026-07-10T15:54:31Z</time>
      </trkpt>
      <trkpt lat="52.911138022318482" lon="-3.527035033330321">
        <ele>169.33000000000001</ele>
        <time>2026-07-10T15:54:36Z</time>
      </trkpt>
      <trkpt lat="52.9112199973315" lon="-3.5268409922719">
        <ele>168.84999999999999</ele>
        <time>2026-07-10T15:54:37Z</time>
      </trkpt>
      <trkpt lat="52.911288980394602" lon="-3.526644017547369">
        <ele>168.37</ele>
        <time>2026-07-10T15:54:38Z</time>
      </trkpt>
      <trkpt lat="52.911320999264717" lon="-3.526446959003806">
        <ele>167.88999999999999</ele>
        <time>2026-07-10T15:54:39Z</time>
      </trkpt>
      <trkpt lat="52.911329967901111" lon="-3.526255013421178">
        <ele>167.41</ele>
        <time>2026-07-10T15:54:40Z</time>
      </trkpt>
      <trkpt lat="52.911328040063381" lon="-3.526053009554744">
        <ele>167.41</ele>
        <time>2026-07-10T15:54:41Z</time>
      </trkpt>
      <trkpt lat="52.911297027021646" lon="-3.525839019566774">
        <ele>167.41</ele>
        <time>2026-07-10T15:54:42Z</time>
      </trkpt>
      <trkpt lat="52.911264002323151" lon="-3.525603991001844">
        <ele>167.41</ele>
        <time>2026-07-10T15:54:43Z</time>
      </trkpt>
      <trkpt lat="52.911109020933509" lon="-3.524353997781873">
        <ele>166.44999999999999</ele>
        <time>2026-07-10T15:54:48Z</time>
      </trkpt>
      <trkpt lat="52.911126958206296" lon="-3.524114023894072">
        <ele>165.96000000000001</ele>
        <time>2026-07-10T15:54:49Z</time>
      </trkpt>
      <trkpt lat="52.911145985126495" lon="-3.52385301142931">
        <ele>165.96000000000001</ele>
        <time>2026-07-10T15:54:50Z</time>
      </trkpt>
      <trkpt lat="52.911169035360217" lon="-3.523572972044349">
        <ele>165.96000000000001</ele>
        <time>2026-07-10T15:54:51Z</time>
      </trkpt>
      <trkpt lat="52.911232989281416" lon="-3.523326963186264">
        <ele>165.96000000000001</ele>
        <time>2026-07-10T15:54:52Z</time>
      </trkpt>
      <trkpt lat="52.911351006478071" lon="-3.522871993482113">
        <ele>165.47999999999999</ele>
        <time>2026-07-10T15:54:54Z</time>
      </trkpt>
      <trkpt lat="52.911423007026315" lon="-3.522598994895816">
        <ele>165.47999999999999</ele>
        <time>2026-07-10T15:54:55Z</time>
      </trkpt>
      <trkpt lat="52.912042010575533" lon="-3.52123299613595">
        <ele>163.56</ele>
        <time>2026-07-10T15:55:02Z</time>
      </trkpt>
      <trkpt lat="52.912148041650653" lon="-3.521095030009747">
        <ele>163.56</ele>
        <time>2026-07-10T15:55:03Z</time>
      </trkpt>
      <trkpt lat="52.912252983078361" lon="-3.520962009206414">
        <ele>163.08000000000001</ele>
        <time>2026-07-10T15:55:04Z</time>
      </trkpt>
      <trkpt lat="52.91238097473979" lon="-3.520870981737971">
        <ele>162.59999999999999</ele>
        <time>2026-07-10T15:55:05Z</time>
      </trkpt>
      <trkpt lat="52.912524975836277" lon="-3.520793030038476">
        <ele>161.63999999999999</ele>
        <time>2026-07-10T15:55:06Z</time>
      </trkpt>
      <trkpt lat="52.912836028262973" lon="-3.5206070356071">
        <ele>159.72</ele>
        <time>2026-07-10T15:55:08Z</time>
      </trkpt>
      <trkpt lat="52.912994027137756" lon="-3.520455993711948">
        <ele>158.75</ele>
        <time>2026-07-10T15:55:09Z</time>
      </trkpt>
      <trkpt lat="52.914237985387444" lon="-3.518931996077299">
        <ele>152.03</ele>
        <time>2026-07-10T15:55:17Z</time>
      </trkpt>
      <trkpt lat="52.914664959535003" lon="-3.518355991691351">
        <ele>151.06</ele>
        <time>2026-07-10T15:55:20Z</time>
      </trkpt>
      <trkpt lat="52.914783982560039" lon="-3.51822598837316">
        <ele>151.06</ele>
        <time>2026-07-10T15:55:21Z</time>
      </trkpt>
      <trkpt lat="52.914927983656526" lon="-3.518153987824917">
        <ele>151.53999999999999</ele>
        <time>2026-07-10T15:55:22Z</time>
      </trkpt>
      <trkpt lat="52.916265986859798" lon="-3.517615031450987">
        <ele>153.47</ele>
        <time>2026-07-10T15:55:30Z</time>
      </trkpt>
      <trkpt lat="52.91641996242106" lon="-3.517487961798906">
        <ele>153.47</ele>
        <time>2026-07-10T15:55:31Z</time>
      </trkpt>
      <trkpt lat="52.916564969345927" lon="-3.517330968752503">
        <ele>153.47</ele>
        <time>2026-07-10T15:55:32Z</time>
      </trkpt>
      <trkpt lat="52.916694972664118" lon="-3.51715100929141">
        <ele>153.94999999999999</ele>
        <time>2026-07-10T15:55:33Z</time>
      </trkpt>
      <trkpt lat="52.916816007345915" lon="-3.516973983496428">
        <ele>154.43000000000001</ele>
        <time>2026-07-10T15:55:34Z</time>
      </trkpt>
      <trkpt lat="52.917175004258752" lon="-3.516449024900794">
        <ele>156.83000000000001</ele>
        <time>2026-07-10T15:55:37Z</time>
      </trkpt>
      <trkpt lat="52.917254967615008" lon="-3.516220031306148">
        <ele>157.31</ele>
        <time>2026-07-10T15:55:38Z</time>
      </trkpt>
      <trkpt lat="52.917308025062084" lon="-3.516043005511165">
        <ele>158.27000000000001</ele>
        <time>2026-07-10T15:55:39Z</time>
      </trkpt>
      <trkpt lat="52.917324034497142" lon="-3.515897998586297">
        <ele>158.75</ele>
        <time>2026-07-10T15:55:40Z</time>
      </trkpt>
      <trkpt lat="52.917324034497142" lon="-3.515786016359925">
        <ele>159.24000000000001</ele>
        <time>2026-07-10T15:55:41Z</time>
      </trkpt>
      <trkpt lat="52.917294027283788" lon="-3.515702029690146">
        <ele>159.24000000000001</ele>
        <time>2026-07-10T15:55:42Z</time>
      </trkpt>
      <trkpt lat="52.917237030342221" lon="-3.51564503274858">
        <ele>159.72</ele>
        <time>2026-07-10T15:55:43Z</time>
      </trkpt>
      <trkpt lat="52.917169975116849" lon="-3.515577977523208">
        <ele>160.19999999999999</ele>
        <time>2026-07-10T15:55:44Z</time>
      </trkpt>
      <trkpt lat="52.917092023417354" lon="-3.515501031652093">
        <ele>160.68000000000001</ele>
        <time>2026-07-10T15:55:45Z</time>
      </trkpt>
      <trkpt lat="52.916959002614021" lon="-3.515368010848761">
        <ele>160.68000000000001</ele>
        <time>2026-07-10T15:55:47Z</time>
      </trkpt>
      <trkpt lat="52.916894964873791" lon="-3.515201965346932">
        <ele>160.68000000000001</ele>
        <time>2026-07-10T15:55:48Z</time>
      </trkpt>
      <trkpt lat="52.916846014559269" lon="-3.515063999220729">
        <ele>160.68000000000001</ele>
        <time>2026-07-10T15:55:49Z</time>
      </trkpt>
      <trkpt lat="52.9167649615556" lon="-3.514698967337608">
        <ele>160.68000000000001</ele>
        <time>2026-07-10T15:55:51Z</time>
      </trkpt>
      <trkpt lat="52.916753981262445" lon="-3.514478020370007">
        <ele>160.68000000000001</ele>
        <time>2026-07-10T15:55:52Z</time>
      </trkpt>
      <trkpt lat="52.916750963777304" lon="-3.514257995411754">
        <ele>160.68000000000001</ele>
        <time>2026-07-10T15:55:53Z</time>
      </trkpt>
      <trkpt lat="52.916788011789322" lon="-3.51403403095901">
        <ele>161.16</ele>
        <time>2026-07-10T15:55:54Z</time>
      </trkpt>
      <trkpt lat="52.91682799346745" lon="-3.5137979965657">
        <ele>161.16</ele>
        <time>2026-07-10T15:55:55Z</time>
      </trkpt>
      <trkpt lat="52.916868980973959" lon="-3.51356104016304">
        <ele>161.16</ele>
        <time>2026-07-10T15:55:56Z</time>
      </trkpt>
      <trkpt lat="52.916993033140898" lon="-3.512600976973772">
        <ele>161.16</ele>
        <time>2026-07-10T15:56:00Z</time>
      </trkpt>
      <trkpt lat="52.916997978463769" lon="-3.51238296367228">
        <ele>161.16</ele>
        <time>2026-07-10T15:56:01Z</time>
      </trkpt>
      <trkpt lat="52.916957996785641" lon="-3.512169979512692">
        <ele>161.63999999999999</ele>
        <time>2026-07-10T15:56:02Z</time>
      </trkpt>
      <trkpt lat="52.916900999844074" lon="-3.51197199895978">
        <ele>162.12</ele>
        <time>2026-07-10T15:56:03Z</time>
      </trkpt>
      <trkpt lat="52.916831010952592" lon="-3.511796984821558">
        <ele>162.59999999999999</ele>
        <time>2026-07-10T15:56:04Z</time>
      </trkpt>
      <trkpt lat="52.916764039546251" lon="-3.511629011482">
        <ele>162.59999999999999</ele>
        <time>2026-07-10T15:56:05Z</time>
      </trkpt>
      <trkpt lat="52.916702013462782" lon="-3.511475035920739">
        <ele>163.08000000000001</ele>
        <time>2026-07-10T15:56:06Z</time>
      </trkpt>
      <trkpt lat="52.91665499098599" lon="-3.511330028995872">
        <ele>163.56</ele>
        <time>2026-07-10T15:56:07Z</time>
      </trkpt>
      <trkpt lat="52.91659003123641" lon="-3.511100029572845">
        <ele>164.52000000000001</ele>
        <time>2026-07-10T15:56:09Z</time>
      </trkpt>
      <trkpt lat="52.916511995717883" lon="-3.510824013501406">
        <ele>167.41</ele>
        <time>2026-07-10T15:56:14Z</time>
      </trkpt>
      <trkpt lat="52.916491040959954" lon="-3.51074899546802">
        <ele>168.37</ele>
        <time>2026-07-10T15:56:15Z</time>
      </trkpt>
      <trkpt lat="52.916451981291175" lon="-3.510530982166529">
        <ele>169.81</ele>
        <time>2026-07-10T15:56:17Z</time>
      </trkpt>
      <trkpt lat="52.916470002382994" lon="-3.510415982455015">
        <ele>170.28999999999999</ele>
        <time>2026-07-10T15:56:18Z</time>
      </trkpt>
      <trkpt lat="52.916491040959954" lon="-3.510272987186909">
        <ele>170.77000000000001</ele>
        <time>2026-07-10T15:56:19Z</time>
      </trkpt>
      <trkpt lat="52.916516019031405" lon="-3.510111970826984">
        <ele>170.77000000000001</ele>
        <time>2026-07-10T15:56:20Z</time>
      </trkpt>
      <trkpt lat="52.916543008759618" lon="-3.509936034679413">
        <ele>170.77000000000001</ele>
        <time>2026-07-10T15:56:21Z</time>
      </trkpt>
      <trkpt lat="52.916610985994339" lon="-3.509365981444717">
        <ele>171.25</ele>
        <time>2026-07-10T15:56:24Z</time>
      </trkpt>
      <trkpt lat="52.916602017357945" lon="-3.50917998701334">
        <ele>171.25</ele>
        <time>2026-07-10T15:56:25Z</time>
      </trkpt>
      <trkpt lat="52.916593970730901" lon="-3.509016036987305">
        <ele>171.25</ele>
        <time>2026-07-10T15:56:26Z</time>
      </trkpt>
      <trkpt lat="52.916513001546264" lon="-3.508873041719198">
        <ele>171.25</ele>
        <time>2026-07-10T15:56:27Z</time>
      </trkpt>
      <trkpt lat="52.916436977684498" lon="-3.508740020915866">
        <ele>170.77000000000001</ele>
        <time>2026-07-10T15:56:28Z</time>
      </trkpt>
      <trkpt lat="52.916335975751281" lon="-3.508665002882481">
        <ele>170.77000000000001</ele>
        <time>2026-07-10T15:56:29Z</time>
      </trkpt>
      <trkpt lat="52.916221981868148" lon="-3.50859803147614">
        <ele>170.77000000000001</ele>
        <time>2026-07-10T15:56:30Z</time>
      </trkpt>
      <trkpt lat="52.91598997078836" lon="-3.508410025388002">
        <ele>170.77000000000001</ele>
        <time>2026-07-10T15:56:32Z</time>
      </trkpt>
      <trkpt lat="52.915887041017413" lon="-3.508273987099528">
        <ele>170.28999999999999</ele>
        <time>2026-07-10T15:56:33Z</time>
      </trkpt>
      <trkpt lat="52.91581797413528" lon="-3.508102996274829">
        <ele>170.77000000000001</ele>
        <time>2026-07-10T15:56:34Z</time>
      </trkpt>
      <trkpt lat="52.9157530143857" lon="-3.507907027378678">
        <ele>170.77000000000001</ele>
        <time>2026-07-10T15:56:35Z</time>
      </trkpt>
      <trkpt lat="52.915723007172346" lon="-3.507689014077187">
        <ele>171.25</ele>
        <time>2026-07-10T15:56:36Z</time>
      </trkpt>
      <trkpt lat="52.915703980252147" lon="-3.507452979683876">
        <ele>171.25</ele>
        <time>2026-07-10T15:56:37Z</time>
      </trkpt>
      <trkpt lat="52.915685037150979" lon="-3.507209988310933">
        <ele>171.25</ele>
        <time>2026-07-10T15:56:38Z</time>
      </trkpt>
      <trkpt lat="52.915671039372683" lon="-3.506963979452848">
        <ele>171.72999999999999</ele>
        <time>2026-07-10T15:56:39Z</time>
      </trkpt>
      <trkpt lat="52.915699034929276" lon="-3.506482020020485">
        <ele>172.21000000000001</ele>
        <time>2026-07-10T15:56:41Z</time>
      </trkpt>
      <trkpt lat="52.915735999122262" lon="-3.506247997283936">
        <ele>172.69</ele>
        <time>2026-07-10T15:56:42Z</time>
      </trkpt>
      <trkpt lat="52.915797019377351" lon="-3.506031995639205">
        <ele>173.16999999999999</ele>
        <time>2026-07-10T15:56:43Z</time>
      </trkpt>
      <trkpt lat="52.916217958554626" lon="-3.504530964419246">
        <ele>173.16999999999999</ele>
        <time>2026-07-10T15:56:49Z</time>
      </trkpt>
      <trkpt lat="52.916252994909883" lon="-3.504248997196555">
        <ele>172.69</ele>
        <time>2026-07-10T15:56:50Z</time>
      </trkpt>
      <trkpt lat="52.916279984638095" lon="-3.503967029973865">
        <ele>172.21000000000001</ele>
        <time>2026-07-10T15:56:51Z</time>
      </trkpt>
      <trkpt lat="52.916275961324573" lon="-3.501474000513554">
        <ele>168.84999999999999</ele>
        <time>2026-07-10T15:57:00Z</time>
      </trkpt>
      <trkpt lat="52.916242014616728" lon="-3.500952981412411">
        <ele>169.81</ele>
        <time>2026-07-10T15:57:02Z</time>
      </trkpt>
      <trkpt lat="52.916207984089851" lon="-3.500688029453158">
        <ele>170.28999999999999</ele>
        <time>2026-07-10T15:57:03Z</time>
      </trkpt>
      <trkpt lat="52.916017966344953" lon="-3.498820038512349">
        <ele>173.66</ele>
        <time>2026-07-10T15:57:10Z</time>
      </trkpt>
      <trkpt lat="52.916051996871829" lon="-3.498567994683981">
        <ele>174.13999999999999</ele>
        <time>2026-07-10T15:57:11Z</time>
      </trkpt>
      <trkpt lat="52.9161830060184" lon="-3.497451022267342">
        <ele>177.5</ele>
        <time>2026-07-10T15:57:15Z</time>
      </trkpt>
      <trkpt lat="52.916174037382007" lon="-3.497192021459341">
        <ele>178.46000000000001</ele>
        <time>2026-07-10T15:57:16Z</time>
      </trkpt>
      <trkpt lat="52.91616297326982" lon="-3.496927991509438">
        <ele>179.41999999999999</ele>
        <time>2026-07-10T15:57:17Z</time>
      </trkpt>
      <trkpt lat="52.916103964671493" lon="-3.496669996529818">
        <ele>180.38</ele>
        <time>2026-07-10T15:57:18Z</time>
      </trkpt>
      <trkpt lat="52.916042022407055" lon="-3.496401021257043">
        <ele>181.34999999999999</ele>
        <time>2026-07-10T15:57:19Z</time>
      </trkpt>
      <trkpt lat="52.915983013808727" lon="-3.496140008792281">
        <ele>182.31</ele>
        <time>2026-07-10T15:57:20Z</time>
      </trkpt>
      <trkpt lat="52.915832977741957" lon="-3.495723009109497">
        <ele>183.75</ele>
        <time>2026-07-10T15:57:22Z</time>
      </trkpt>
      <trkpt lat="52.915728958323598" lon="-3.495526034384966">
        <ele>184.22999999999999</ele>
        <time>2026-07-10T15:57:23Z</time>
      </trkpt>
      <trkpt lat="52.915285974740982" lon="-3.494649035856128">
        <ele>186.15000000000001</ele>
        <time>2026-07-10T15:57:27Z</time>
      </trkpt>
      <trkpt lat="52.915208023041487" lon="-3.494428005069494">
        <ele>186.63</ele>
        <time>2026-07-10T15:57:28Z</time>
      </trkpt>
      <trkpt lat="52.915164018049836" lon="-3.494218960404396">
        <ele>187.59</ele>
        <time>2026-07-10T15:57:29Z</time>
      </trkpt>
      <trkpt lat="52.915124958381057" lon="-3.494012011215091">
        <ele>188.56</ele>
        <time>2026-07-10T15:57:30Z</time>
      </trkpt>
      <trkpt lat="52.915083970874548" lon="-3.49379500374198">
        <ele>189.52000000000001</ele>
        <time>2026-07-10T15:57:31Z</time>
      </trkpt>
      <trkpt lat="52.915047006681561" lon="-3.493563998490572">
        <ele>190.47999999999999</ele>
        <time>2026-07-10T15:57:32Z</time>
      </trkpt>
      <trkpt lat="52.915033008903265" lon="-3.493112968280911">
        <ele>191.91999999999999</ele>
        <time>2026-07-10T15:57:34Z</time>
      </trkpt>
      <trkpt lat="52.91504398919642" lon="-3.492918005213141">
        <ele>192.88</ele>
        <time>2026-07-10T15:57:35Z</time>
      </trkpt>
      <trkpt lat="52.915078019723296" lon="-3.49272103048861">
        <ele>193.36000000000001</ele>
        <time>2026-07-10T15:57:36Z</time>
      </trkpt>
      <trkpt lat="52.915455959737301" lon="-3.490931997075677">
        <ele>194.31999999999999</ele>
        <time>2026-07-10T15:57:43Z</time>
      </trkpt>
      <trkpt lat="52.915675984695554" lon="-3.488519014790654">
        <ele>191.44</ele>
        <time>2026-07-10T15:57:51Z</time>
      </trkpt>
      <trkpt lat="52.91568897664547" lon="-3.485488034784794">
        <ele>189.52000000000001</ele>
        <time>2026-07-10T15:58:01Z</time>
      </trkpt>
      <trkpt lat="52.915674978867173" lon="-3.485178994014859">
        <ele>189.52000000000001</ele>
        <time>2026-07-10T15:58:02Z</time>
      </trkpt>
      <trkpt lat="52.915699034929276" lon="-3.484875988215208">
        <ele>189.03999999999999</ele>
        <time>2026-07-10T15:58:03Z</time>
      </trkpt>
      <trkpt lat="52.915737004950643" lon="-3.484572982415557">
        <ele>189.03999999999999</ele>
        <time>2026-07-10T15:58:04Z</time>
      </trkpt>
      <trkpt lat="52.915942026302218" lon="-3.48348299972713">
        <ele>189.03999999999999</ele>
        <time>2026-07-10T15:58:08Z</time>
      </trkpt>
      <trkpt lat="52.916028024628758" lon="-3.483257023617625">
        <ele>189.03999999999999</ele>
        <time>2026-07-10T15:58:09Z</time>
      </trkpt>
      <trkpt lat="52.916135983541608" lon="-3.48303004167974">
        <ele>189.03999999999999</ele>
        <time>2026-07-10T15:58:10Z</time>
      </trkpt>
      <trkpt lat="52.916653985157609" lon="-3.481897981837392">
        <ele>187.59</ele>
        <time>2026-07-10T15:58:15Z</time>
      </trkpt>
      <trkpt lat="52.916730009019375" lon="-3.481649961322546">
        <ele>187.11000000000001</ele>
        <time>2026-07-10T15:58:16Z</time>
      </trkpt>
      <trkpt lat="52.916790023446083" lon="-3.481390038505197">
        <ele>186.63</ele>
        <time>2026-07-10T15:58:17Z</time>
      </trkpt>
      <trkpt lat="52.916959002614021" lon="-3.480670033022761">
        <ele>186.15000000000001</ele>
        <time>2026-07-10T15:58:20Z</time>
      </trkpt>
      <trkpt lat="52.91704198345542" lon="-3.48047599196434">
        <ele>186.15000000000001</ele>
        <time>2026-07-10T15:58:21Z</time>
      </trkpt>
      <trkpt lat="52.917894003912807" lon="-3.478484032675624">
        <ele>181.34999999999999</ele>
        <time>2026-07-10T15:58:29Z</time>
      </trkpt>
      <trkpt lat="52.919056992977858" lon="-3.476051017642021">
        <ele>177.02000000000001</ele>
        <time>2026-07-10T15:58:39Z</time>
      </trkpt>
      <trkpt lat="52.920272033661604" lon="-3.474095016717911">
        <ele>173.16999999999999</ele>
        <time>2026-07-10T15:58:48Z</time>
      </trkpt>
      <trkpt lat="52.920661037787795" lon="-3.473469978198409">
        <ele>171.72999999999999</ele>
        <time>2026-07-10T15:58:51Z</time>
      </trkpt>
      <trkpt lat="52.920765979215503" lon="-3.473300999030471">
        <ele>171.25</ele>
        <time>2026-07-10T15:58:52Z</time>
      </trkpt>
      <trkpt lat="52.920836973935366" lon="-3.473095977678895">
        <ele>170.28999999999999</ele>
        <time>2026-07-10T15:58:53Z</time>
      </trkpt>
      <trkpt lat="52.920895982533693" lon="-3.472856003791094">
        <ele>169.33000000000001</ele>
        <time>2026-07-10T15:58:54Z</time>
      </trkpt>
      <trkpt lat="52.920959014445543" lon="-3.472599014639854">
        <ele>168.84999999999999</ele>
        <time>2026-07-10T15:58:55Z</time>
      </trkpt>
      <trkpt lat="52.921023974195123" lon="-3.472330961376429">
        <ele>168.37</ele>
        <time>2026-07-10T15:58:56Z</time>
      </trkpt>
      <trkpt lat="52.921087006106973" lon="-3.472055029124022">
        <ele>167.88999999999999</ele>
        <time>2026-07-10T15:58:57Z</time>
      </trkpt>
      <trkpt lat="52.921126987785101" lon="-3.471785970032215">
        <ele>167.41</ele>
        <time>2026-07-10T15:58:58Z</time>
      </trkpt>
      <trkpt lat="52.9211650416255" lon="-3.47153702750802">
        <ele>166.44999999999999</ele>
        <time>2026-07-10T15:58:59Z</time>
      </trkpt>
      <trkpt lat="52.921198988333344" lon="-3.471309961751103">
        <ele>165.96000000000001</ele>
        <time>2026-07-10T15:59:00Z</time>
      </trkpt>
      <trkpt lat="52.921218015253544" lon="-3.471068982034922">
        <ele>165</ele>
        <time>2026-07-10T15:59:01Z</time>
      </trkpt>
      <trkpt lat="52.92125397361815" lon="-3.470480991527438">
        <ele>164.03999999999999</ele>
        <time>2026-07-10T15:59:03Z</time>
      </trkpt>
      <trkpt lat="52.921271994709969" lon="-3.470177985727787">
        <ele>163.56</ele>
        <time>2026-07-10T15:59:04Z</time>
      </trkpt>
      <trkpt lat="52.921246010810137" lon="-3.46878600306809">
        <ele>163.56</ele>
        <time>2026-07-10T15:59:09Z</time>
      </trkpt>
      <trkpt lat="52.921222960576415" lon="-3.468577964231372">
        <ele>163.56</ele>
        <time>2026-07-10T15:59:10Z</time>
      </trkpt>
      <trkpt lat="52.921174010261893" lon="-3.468383001163602">
        <ele>163.08000000000001</ele>
        <time>2026-07-10T15:59:11Z</time>
      </trkpt>
      <trkpt lat="52.921079965308309" lon="-3.468222990632057">
        <ele>163.08000000000001</ele>
        <time>2026-07-10T15:59:12Z</time>
      </trkpt>
      <trkpt lat="52.920975023880601" lon="-3.468046970665455">
        <ele>162.59999999999999</ele>
        <time>2026-07-10T15:59:13Z</time>
      </trkpt>
      <trkpt lat="52.920302040874958" lon="-3.466861015185714">
        <ele>158.27000000000001</ele>
        <time>2026-07-10T15:59:19Z</time>
      </trkpt>
      <trkpt lat="52.91983500123024" lon="-3.465610016137362">
        <ele>156.83000000000001</ele>
        <time>2026-07-10T15:59:25Z</time>
      </trkpt>
      <trkpt lat="52.919811028987169" lon="-3.465380016714335">
        <ele>156.83000000000001</ele>
        <time>2026-07-10T15:59:26Z</time>
      </trkpt>
      <trkpt lat="52.919790996238589" lon="-3.465126967057586">
        <ele>157.31</ele>
        <time>2026-07-10T15:59:27Z</time>
      </trkpt>
      <trkpt lat="52.919833995401859" lon="-3.463589977473021">
        <ele>162.59999999999999</ele>
        <time>2026-07-10T15:59:33Z</time>
      </trkpt>
      <trkpt lat="52.920143036171794" lon="-3.461841009557247">
        <ele>165.96000000000001</ele>
        <time>2026-07-10T15:59:40Z</time>
      </trkpt>
      <trkpt lat="52.920211013406515" lon="-3.461604975163937">
        <ele>165.47999999999999</ele>
        <time>2026-07-10T15:59:41Z</time>
      </trkpt>
      <trkpt lat="52.920312015339732" lon="-3.461401965469122">
        <ele>165</ele>
        <time>2026-07-10T15:59:42Z</time>
      </trkpt>
      <trkpt lat="52.920420980080962" lon="-3.461197027936578">
        <ele>164.52000000000001</ele>
        <time>2026-07-10T15:59:43Z</time>
      </trkpt>
      <trkpt lat="52.920531034469604" lon="-3.460991000756621">
        <ele>164.03999999999999</ele>
        <time>2026-07-10T15:59:44Z</time>
      </trkpt>
      <trkpt lat="52.920657014474273" lon="-3.460811041295528">
        <ele>163.56</ele>
        <time>2026-07-10T15:59:45Z</time>
      </trkpt>
      <trkpt lat="52.920791041105986" lon="-3.460640972480178">
        <ele>163.08000000000001</ele>
        <time>2026-07-10T15:59:46Z</time>
      </trkpt>
      <trkpt lat="52.921052975580096" lon="-3.460308965295553">
        <ele>162.12</ele>
        <time>2026-07-10T15:59:48Z</time>
      </trkpt>
      <trkpt lat="52.921171998605132" lon="-3.460106961429119">
        <ele>162.12</ele>
        <time>2026-07-10T15:59:49Z</time>
      </trkpt>
      <trkpt lat="52.922252006828785" lon="-3.457637988030911">
        <ele>160.68000000000001</ele>
        <time>2026-07-10T15:59:58Z</time>
      </trkpt>
      <trkpt lat="52.923582969233394" lon="-3.454439034685493">
        <ele>159.72</ele>
        <time>2026-07-10T16:00:09Z</time>
      </trkpt>
      <trkpt lat="52.924470026046038" lon="-3.451885990798473">
        <ele>157.78999999999999</ele>
        <time>2026-07-10T16:00:18Z</time>
      </trkpt>
      <trkpt lat="52.924525011330843" lon="-3.45159899443388">
        <ele>157.78999999999999</ele>
        <time>2026-07-10T16:00:19Z</time>
      </trkpt>
      <trkpt lat="52.924542026594281" lon="-3.451304035261273">
        <ele>157.78999999999999</ele>
        <time>2026-07-10T16:00:20Z</time>
      </trkpt>
      <trkpt lat="52.924601035192609" lon="-3.450154960155487">
        <ele>157.78999999999999</ele>
        <time>2026-07-10T16:00:24Z</time>
      </trkpt>
      <trkpt lat="52.924645962193608" lon="-3.449920015409589">
        <ele>157.78999999999999</ele>
        <time>2026-07-10T16:00:25Z</time>
      </trkpt>
      <trkpt lat="52.924730032682419" lon="-3.449479965493083">
        <ele>158.27000000000001</ele>
        <time>2026-07-10T16:00:27Z</time>
      </trkpt>
      <trkpt lat="52.924737995490432" lon="-3.449244014918804">
        <ele>158.27000000000001</ele>
        <time>2026-07-10T16:00:28Z</time>
      </trkpt>
      <trkpt lat="52.924719974398613" lon="-3.448997000232339">
        <ele>158.27000000000001</ele>
        <time>2026-07-10T16:00:29Z</time>
      </trkpt>
      <trkpt lat="52.924521993845701" lon="-3.446999005973339">
        <ele>156.83000000000001</ele>
        <time>2026-07-10T16:00:36Z</time>
      </trkpt>
      <trkpt lat="52.924458961933851" lon="-3.446714021265507">
        <ele>156.34999999999999</ele>
        <time>2026-07-10T16:00:37Z</time>
      </trkpt>
      <trkpt lat="52.92436801828444" lon="-3.446439011022449">
        <ele>155.87</ele>
        <time>2026-07-10T16:00:38Z</time>
      </trkpt>
      <trkpt lat="52.923715990036726" lon="-3.444467000663281">
        <ele>155.87</ele>
        <time>2026-07-10T16:00:46Z</time>
      </trkpt>
      <trkpt lat="52.923601996153593" lon="-3.444095011800528">
        <ele>155.87</ele>
        <time>2026-07-10T16:00:48Z</time>
      </trkpt>
      <trkpt lat="52.923571988940239" lon="-3.443899964913726">
        <ele>155.38999999999999</ele>
        <time>2026-07-10T16:00:49Z</time>
      </trkpt>
      <trkpt lat="52.923544999212027" lon="-3.443701984360814">
        <ele>154.91</ele>
        <time>2026-07-10T16:00:50Z</time>
      </trkpt>
      <trkpt lat="52.923477021977305" lon="-3.44188897870481">
        <ele>152.03</ele>
        <time>2026-07-10T16:00:58Z</time>
      </trkpt>
      <trkpt lat="52.923275018110871" lon="-3.440372021868825">
        <ele>155.38999999999999</ele>
        <time>2026-07-10T16:01:07Z</time>
      </trkpt>
      <trkpt lat="52.92307703755796" lon="-3.439860977232456">
        <ele>156.83000000000001</ele>
        <time>2026-07-10T16:01:11Z</time>
      </trkpt>
      <trkpt lat="52.922586025670171" lon="-3.438755990937352">
        <ele>157.31</ele>
        <time>2026-07-10T16:01:21Z</time>
      </trkpt>
      <trkpt lat="52.922543026506901" lon="-3.43866596929729">
        <ele>157.31</ele>
        <time>2026-07-10T16:01:22Z</time>
      </trkpt>
      <trkpt lat="52.922537997364998" lon="-3.438597992062569">
        <ele>157.78999999999999</ele>
        <time>2026-07-10T16:01:23Z</time>
      </trkpt>
      <trkpt lat="52.922537997364998" lon="-3.438518028706312">
        <ele>157.78999999999999</ele>
        <time>2026-07-10T16:01:24Z</time>
      </trkpt>
      <trkpt lat="52.922544032335281" lon="-3.438468994572759">
        <ele>157.78999999999999</ele>
        <time>2026-07-10T16:01:25Z</time>
      </trkpt>
      <trkpt lat="52.922577979043126" lon="-3.438387019559741">
        <ele>157.78999999999999</ele>
        <time>2026-07-10T16:01:26Z</time>
      </trkpt>
      <trkpt lat="52.922662971541286" lon="-3.438179986551404">
        <ele>157.78999999999999</ele>
        <time>2026-07-10T16:01:28Z</time>
      </trkpt>
      <trkpt lat="52.922743018716574" lon="-3.437945963814855">
        <ele>157.78999999999999</ele>
        <time>2026-07-10T16:01:30Z</time>
      </trkpt>
      <trkpt lat="52.922769002616405" lon="-3.437810009345412">
        <ele>157.31</ele>
        <time>2026-07-10T16:01:31Z</time>
      </trkpt>
      <trkpt lat="52.923046024516225" lon="-3.436012007296085">
        <ele>156.34999999999999</ele>
        <time>2026-07-10T16:01:44Z</time>
      </trkpt>
      <trkpt lat="52.923133028671145" lon="-3.435621997341514">
        <ele>155.38999999999999</ele>
        <time>2026-07-10T16:01:47Z</time>
      </trkpt>
      <trkpt lat="52.923160018399358" lon="-3.435501968488097">
        <ele>154.91</ele>
        <time>2026-07-10T16:01:48Z</time>
      </trkpt>
      <trkpt lat="52.923202011734247" lon="-3.435401972383261">
        <ele>154.91</ele>
        <time>2026-07-10T16:01:49Z</time>
      </trkpt>
      <trkpt lat="52.923267977312207" lon="-3.435244979336858">
        <ele>154.43000000000001</ele>
        <time>2026-07-10T16:01:50Z</time>
      </trkpt>
      <trkpt lat="52.923309970647097" lon="-3.435188988223672">
        <ele>153.94999999999999</ele>
        <time>2026-07-10T16:01:51Z</time>
      </trkpt>
      <trkpt lat="52.923377025872469" lon="-3.435101984068751">
        <ele>153.47</ele>
        <time>2026-07-10T16:01:52Z</time>
      </trkpt>
      <trkpt lat="52.923446008935571" lon="-3.435011962428689">
        <ele>153.47</ele>
        <time>2026-07-10T16:01:53Z</time>
      </trkpt>
      <trkpt lat="52.923515997827053" lon="-3.434919007122517">
        <ele>152.99000000000001</ele>
        <time>2026-07-10T16:01:54Z</time>
      </trkpt>
      <trkpt lat="52.924440018832684" lon="-3.433726010844111">
        <ele>153.94999999999999</ele>
        <time>2026-07-10T16:02:06Z</time>
      </trkpt>
      <trkpt lat="52.924741012975574" lon="-3.433390986174345">
        <ele>154.43000000000001</ele>
        <time>2026-07-10T16:02:09Z</time>
      </trkpt>
      <trkpt lat="52.924856012687087" lon="-3.433280009776354">
        <ele>154.43000000000001</ele>
        <time>2026-07-10T16:02:10Z</time>
      </trkpt>
      <trkpt lat="52.925629997625947" lon="-3.432494960725308">
        <ele>155.87</ele>
        <time>2026-07-10T16:02:16Z</time>
      </trkpt>
      <trkpt lat="52.925992012023926" lon="-3.431970002129674">
        <ele>155.87</ele>
        <time>2026-07-10T16:02:19Z</time>
      </trkpt>
      <trkpt lat="52.92613198980689" lon="-3.43185399658978">
        <ele>155.87</ele>
        <time>2026-07-10T16:02:20Z</time>
      </trkpt>
      <trkpt lat="52.926572039723396" lon="-3.43148997053504">
        <ele>155.87</ele>
        <time>2026-07-10T16:02:23Z</time>
      </trkpt>
      <trkpt lat="52.926726015284657" lon="-3.431409001350403">
        <ele>156.34999999999999</ele>
        <time>2026-07-10T16:02:24Z</time>
      </trkpt>
      <trkpt lat="52.928283959627151" lon="-3.430590005591512">
        <ele>155.87</ele>
        <time>2026-07-10T16:02:33Z</time>
      </trkpt>
      <trkpt lat="52.928983010351658" lon="-3.430222040042281">
        <ele>156.83000000000001</ele>
        <time>2026-07-10T16:02:37Z</time>
      </trkpt>
      <trkpt lat="52.92915802448988" lon="-3.430161019787192">
        <ele>157.31</ele>
        <time>2026-07-10T16:02:38Z</time>
      </trkpt>
      <trkpt lat="52.930250018835068" lon="-3.429938983172178">
        <ele>160.68000000000001</ele>
        <time>2026-07-10T16:02:44Z</time>
      </trkpt>
      <trkpt lat="52.932077022269368" lon="-3.428755039349198">
        <ele>165.47999999999999</ele>
        <time>2026-07-10T16:02:54Z</time>
      </trkpt>
      <trkpt lat="52.933437991887331" lon="-3.427859013900161">
        <ele>165</ele>
        <time>2026-07-10T16:03:02Z</time>
      </trkpt>
      <trkpt lat="52.934968024492264" lon="-3.426430989056826">
        <ele>169.33000000000001</ele>
        <time>2026-07-10T16:03:12Z</time>
      </trkpt>
      <trkpt lat="52.935753995552659" lon="-3.425847021862865">
        <ele>172.21000000000001</ele>
        <time>2026-07-10T16:03:18Z</time>
      </trkpt>
      <trkpt lat="52.935870001092553" lon="-3.425804022699595">
        <ele>172.21000000000001</ele>
        <time>2026-07-10T16:03:19Z</time>
      </trkpt>
      <trkpt lat="52.936006039381027" lon="-3.425812991335988">
        <ele>172.21000000000001</ele>
        <time>2026-07-10T16:03:20Z</time>
      </trkpt>
      <trkpt lat="52.936978004872799" lon="-3.425778038799763">
        <ele>170.28999999999999</ele>
        <time>2026-07-10T16:03:26Z</time>
      </trkpt>
      <trkpt lat="52.93713097460568" lon="-3.425697991624475">
        <ele>170.28999999999999</ele>
        <time>2026-07-10T16:03:27Z</time>
      </trkpt>
      <trkpt lat="52.937278999015689" lon="-3.425573017448187">
        <ele>169.81</ele>
        <time>2026-07-10T16:03:28Z</time>
      </trkpt>
      <trkpt lat="52.937430962920189" lon="-3.425445025786758">
        <ele>169.33000000000001</ele>
        <time>2026-07-10T16:03:29Z</time>
      </trkpt>
      <trkpt lat="52.937577981501818" lon="-3.425286021083593">
        <ele>169.33000000000001</ele>
        <time>2026-07-10T16:03:30Z</time>
      </trkpt>
      <trkpt lat="52.937712008133531" lon="-3.425093991681933">
        <ele>169.33000000000001</ele>
        <time>2026-07-10T16:03:31Z</time>
      </trkpt>
      <trkpt lat="52.938633011654019" lon="-3.423623973503709">
        <ele>172.69</ele>
        <time>2026-07-10T16:03:38Z</time>
      </trkpt>
      <trkpt lat="52.939673038199544" lon="-3.422002997249365">
        <ele>179.90000000000001</ele>
        <time>2026-07-10T16:03:46Z</time>
      </trkpt>
      <trkpt lat="52.939831959083676" lon="-3.4218630194664">
        <ele>181.34999999999999</ele>
        <time>2026-07-10T16:03:47Z</time>
      </trkpt>
      <trkpt lat="52.941011963412166" lon="-3.420992977917194">
        <ele>184.22999999999999</ele>
        <time>2026-07-10T16:03:54Z</time>
      </trkpt>
      <trkpt lat="52.941893991082907" lon="-3.420095024630427">
        <ele>184.22999999999999</ele>
        <time>2026-07-10T16:04:00Z</time>
      </trkpt>
      <trkpt lat="52.942138994112611" lon="-3.419923027977347">
        <ele>183.75</ele>
        <time>2026-07-10T16:04:02Z</time>
      </trkpt>
      <trkpt lat="52.942260028794408" lon="-3.419906012713909">
        <ele>183.27000000000001</ele>
        <time>2026-07-10T16:04:03Z</time>
      </trkpt>
      <trkpt lat="52.942392965778708" lon="-3.419912969693542">
        <ele>182.78999999999999</ele>
        <time>2026-07-10T16:04:04Z</time>
      </trkpt>
      <trkpt lat="52.94284500181675" lon="-3.419897966086865">
        <ele>181.83000000000001</ele>
        <time>2026-07-10T16:04:07Z</time>
      </trkpt>
      <trkpt lat="52.943006018176675" lon="-3.419871982187033">
        <ele>181.34999999999999</ele>
        <time>2026-07-10T16:04:08Z</time>
      </trkpt>
      <trkpt lat="52.943159993737936" lon="-3.419795036315918">
        <ele>180.87</ele>
        <time>2026-07-10T16:04:09Z</time>
      </trkpt>
      <trkpt lat="52.94329896569252" lon="-3.41969302855432">
        <ele>180.38</ele>
        <time>2026-07-10T16:04:10Z</time>
      </trkpt>
      <trkpt lat="52.943426035344601" lon="-3.419589009135962">
        <ele>179.90000000000001</ele>
        <time>2026-07-10T16:04:11Z</time>
      </trkpt>
      <trkpt lat="52.943548997864127" lon="-3.419487001374364">
        <ele>179.41999999999999</ele>
        <time>2026-07-10T16:04:12Z</time>
      </trkpt>
      <trkpt lat="52.943796012550592" lon="-3.419282985851169">
        <ele>178.46000000000001</ele>
        <time>2026-07-10T16:04:14Z</time>
      </trkpt>
      <trkpt lat="52.944289958104491" lon="-3.41887503862381">
        <ele>177.5</ele>
        <time>2026-07-10T16:04:18Z</time>
      </trkpt>
      <trkpt lat="52.944427002221346" lon="-3.418761966750026">
        <ele>177.5</ele>
        <time>2026-07-10T16:04:19Z</time>
      </trkpt>
      <trkpt lat="52.944571003317833" lon="-3.418642021715641">
        <ele>177.5</ele>
        <time>2026-07-10T16:04:20Z</time>
      </trkpt>
      <trkpt lat="52.945515979081392" lon="-3.417862001806498">
        <ele>172.69</ele>
        <time>2026-07-10T16:04:26Z</time>
      </trkpt>
      <trkpt lat="52.945662997663021" lon="-3.41773996129632">
        <ele>172.21000000000001</ele>
        <time>2026-07-10T16:04:27Z</time>
      </trkpt>
      <trkpt lat="52.945823008194566" lon="-3.417647005990148">
        <ele>171.72999999999999</ele>
        <time>2026-07-10T16:04:28Z</time>
      </trkpt>
      <trkpt lat="52.945986036211252" lon="-3.417552961036563">
        <ele>170.77000000000001</ele>
        <time>2026-07-10T16:04:29Z</time>
      </trkpt>
      <trkpt lat="52.946145040914416" lon="-3.417461011558771">
        <ele>169.81</ele>
        <time>2026-07-10T16:04:30Z</time>
      </trkpt>
      <trkpt lat="52.946300022304058" lon="-3.417371995747089">
        <ele>168.84999999999999</ele>
        <time>2026-07-10T16:04:31Z</time>
      </trkpt>
      <trkpt lat="52.946432959288359" lon="-3.417262025177479">
        <ele>167.88999999999999</ele>
        <time>2026-07-10T16:04:32Z</time>
      </trkpt>
      <trkpt lat="52.946556005626917" lon="-3.417116012424231">
        <ele>166.93000000000001</ele>
        <time>2026-07-10T16:04:33Z</time>
      </trkpt>
      <trkpt lat="52.946686008945107" lon="-3.416962958872318">
        <ele>166.44999999999999</ele>
        <time>2026-07-10T16:04:34Z</time>
      </trkpt>
      <trkpt lat="52.946826992556453" lon="-3.416796997189522">
        <ele>165</ele>
        <time>2026-07-10T16:04:35Z</time>
      </trkpt>
      <trkpt lat="52.946973005309701" lon="-3.416649978607893">
        <ele>163.56</ele>
        <time>2026-07-10T16:04:36Z</time>
      </trkpt>
      <trkpt lat="52.948140017688274" lon="-3.415808016434312">
        <ele>159.24000000000001</ele>
        <time>2026-07-10T16:04:43Z</time>
      </trkpt>
      <trkpt lat="52.949434015899897" lon="-3.415481960400939">
        <ele>156.83000000000001</ele>
        <time>2026-07-10T16:04:50Z</time>
      </trkpt>
      <trkpt lat="52.950999001041055" lon="-3.415063032880426">
        <ele>162.12</ele>
        <time>2026-07-10T16:04:59Z</time>
      </trkpt>
      <trkpt lat="52.952158972620964" lon="-3.414333974942565">
        <ele>162.59999999999999</ele>
        <time>2026-07-10T16:05:06Z</time>
      </trkpt>
      <trkpt lat="52.952309008687735" lon="-3.414263986051083">
        <ele>162.12</ele>
        <time>2026-07-10T16:05:07Z</time>
      </trkpt>
      <trkpt lat="52.952414033934474" lon="-3.41414999216795">
        <ele>162.59999999999999</ele>
        <time>2026-07-10T16:05:08Z</time>
      </trkpt>
      <trkpt lat="52.952498020604253" lon="-3.414003979414702">
        <ele>162.59999999999999</ele>
        <time>2026-07-10T16:05:09Z</time>
      </trkpt>
      <trkpt lat="52.952564992010593" lon="-3.413845980539918">
        <ele>162.12</ele>
        <time>2026-07-10T16:05:10Z</time>
      </trkpt>
      <trkpt lat="52.952625006437302" lon="-3.413664009422064">
        <ele>162.12</ele>
        <time>2026-07-10T16:05:11Z</time>
      </trkpt>
      <trkpt lat="52.95268602669239" lon="-3.413473991677165">
        <ele>162.12</ele>
        <time>2026-07-10T16:05:12Z</time>
      </trkpt>
      <trkpt lat="52.952992971986532" lon="-3.412658013403416">
        <ele>161.63999999999999</ele>
        <time>2026-07-10T16:05:16Z</time>
      </trkpt>
      <trkpt lat="52.953100008890033" lon="-3.412492973729968">
        <ele>161.16</ele>
        <time>2026-07-10T16:05:17Z</time>
      </trkpt>
      <trkpt lat="52.953219031915069" lon="-3.412336986511946">
        <ele>160.68000000000001</ele>
        <time>2026-07-10T16:05:18Z</time>
      </trkpt>
      <trkpt lat="52.954540019854903" lon="-3.410906028002501">
        <ele>161.16</ele>
        <time>2026-07-10T16:05:27Z</time>
      </trkpt>
      <trkpt lat="52.954677985981107" lon="-3.410723973065615">
        <ele>161.16</ele>
        <time>2026-07-10T16:05:28Z</time>
      </trkpt>
      <trkpt lat="52.954802960157394" lon="-3.410513000562787">
        <ele>161.63999999999999</ele>
        <time>2026-07-10T16:05:29Z</time>
      </trkpt>
      <trkpt lat="52.955295983701944" lon="-3.409726023674011">
        <ele>163.56</ele>
        <time>2026-07-10T16:05:33Z</time>
      </trkpt>
      <trkpt lat="52.955645006150007" lon="-3.409236017614603">
        <ele>165.47999999999999</ele>
        <time>2026-07-10T16:05:36Z</time>
      </trkpt>
      <trkpt lat="52.955740978941321" lon="-3.409040970727801">
        <ele>166.44999999999999</ele>
        <time>2026-07-10T16:05:37Z</time>
      </trkpt>
      <trkpt lat="52.955966033041477" lon="-3.40847603045404">
        <ele>168.84999999999999</ele>
        <time>2026-07-10T16:05:40Z</time>
      </trkpt>
      <trkpt lat="52.95605898834765" lon="-3.408319959416986">
        <ele>169.81</ele>
        <time>2026-07-10T16:05:41Z</time>
      </trkpt>
      <trkpt lat="52.956886030733585" lon="-3.40699796564877">
        <ele>173.16999999999999</ele>
        <time>2026-07-10T16:05:50Z</time>
      </trkpt>
      <trkpt lat="52.957664960995317" lon="-3.406109986826778">
        <ele>172.69</ele>
        <time>2026-07-10T16:05:59Z</time>
      </trkpt>
      <trkpt lat="52.95801498927176" lon="-3.405817039310932">
        <ele>171.72999999999999</ele>
        <time>2026-07-10T16:06:03Z</time>
      </trkpt>
      <trkpt lat="52.958114985376596" lon="-3.405761970207095">
        <ele>171.25</ele>
        <time>2026-07-10T16:06:04Z</time>
      </trkpt>
      <trkpt lat="52.958215987309813" lon="-3.405757024884224">
        <ele>171.25</ele>
        <time>2026-07-10T16:06:05Z</time>
      </trkpt>
      <trkpt lat="52.959231035783887" lon="-3.405761970207095">
        <ele>165</ele>
        <time>2026-07-10T16:06:15Z</time>
      </trkpt>
      <trkpt lat="52.95930303633213" lon="-3.405701033771038">
        <ele>165</ele>
        <time>2026-07-10T16:06:16Z</time>
      </trkpt>
      <trkpt lat="52.960437024012208" lon="-3.404819006100297">
        <ele>163.56</ele>
        <time>2026-07-10T16:06:28Z</time>
      </trkpt>
      <trkpt lat="52.961466992273927" lon="-3.403814015910029">
        <ele>160.19999999999999</ele>
        <time>2026-07-10T16:06:38Z</time>
      </trkpt>
      <trkpt lat="52.96252503991127" lon="-3.402754040434957">
        <ele>153.94999999999999</ele>
        <time>2026-07-10T16:06:47Z</time>
      </trkpt>
      <trkpt lat="52.963853990659118" lon="-3.400846989825368">
        <ele>156.83000000000001</ele>
        <time>2026-07-10T16:06:57Z</time>
      </trkpt>
      <trkpt lat="52.96460903249681" lon="-3.399620968848467">
        <ele>161.63999999999999</ele>
        <time>2026-07-10T16:07:03Z</time>
      </trkpt>
      <trkpt lat="52.965050004422665" lon="-3.398717986419797">
        <ele>164.52000000000001</ele>
        <time>2026-07-10T16:07:07Z</time>
      </trkpt>
      <trkpt lat="52.965188976377249" lon="-3.398544983938336">
        <ele>165</ele>
        <time>2026-07-10T16:07:08Z</time>
      </trkpt>
      <trkpt lat="52.965324008837342" lon="-3.398374998942018">
        <ele>165.47999999999999</ele>
        <time>2026-07-10T16:07:09Z</time>
      </trkpt>
      <trkpt lat="52.965464992448688" lon="-3.398233009502292">
        <ele>165.96000000000001</ele>
        <time>2026-07-10T16:07:10Z</time>
      </trkpt>
      <trkpt lat="52.965614022687078" lon="-3.398111974820495">
        <ele>165.96000000000001</ele>
        <time>2026-07-10T16:07:11Z</time>
      </trkpt>
      <trkpt lat="52.967009022831917" lon="-3.396976981312037">
        <ele>168.37</ele>
        <time>2026-07-10T16:07:20Z</time>
      </trkpt>
      <trkpt lat="52.968125995248556" lon="-3.395849028602243">
        <ele>172.21000000000001</ele>
        <time>2026-07-10T16:07:27Z</time>
      </trkpt>
      <trkpt lat="52.96948897652328" lon="-3.394563999027014">
        <ele>177.5</ele>
        <time>2026-07-10T16:07:35Z</time>
      </trkpt>
      <trkpt lat="52.969845039770007" lon="-3.39434003457427">
        <ele>177.5</ele>
        <time>2026-07-10T16:07:37Z</time>
      </trkpt>
      <trkpt lat="52.970031034201384" lon="-3.394273985177279">
        <ele>177.5</ele>
        <time>2026-07-10T16:07:38Z</time>
      </trkpt>
      <trkpt lat="52.970219040289521" lon="-3.394235009327531">
        <ele>177.5</ele>
        <time>2026-07-10T16:07:39Z</time>
      </trkpt>
      <trkpt lat="52.97041199170053" lon="-3.394226962700486">
        <ele>177.5</ele>
        <time>2026-07-10T16:07:40Z</time>
      </trkpt>
      <trkpt lat="52.97060402110219" lon="-3.394217994064093">
        <ele>177.5</ele>
        <time>2026-07-10T16:07:41Z</time>
      </trkpt>
      <trkpt lat="52.9715930018574" lon="-3.39403904043138">
        <ele>176.53999999999999</ele>
        <time>2026-07-10T16:07:46Z</time>
      </trkpt>
      <trkpt lat="52.97178503125906" lon="-3.39393200352788">
        <ele>176.53999999999999</ele>
        <time>2026-07-10T16:07:47Z</time>
      </trkpt>
      <trkpt lat="52.973389998078346" lon="-3.392609003931284">
        <ele>177.02000000000001</ele>
        <time>2026-07-10T16:07:56Z</time>
      </trkpt>
      <trkpt lat="52.974414015188813" lon="-3.391428999602795">
        <ele>177.5</ele>
        <time>2026-07-10T16:08:03Z</time>
      </trkpt>
      <trkpt lat="52.975464016199112" lon="-3.390361983329058">
        <ele>179.90000000000001</ele>
        <time>2026-07-10T16:08:10Z</time>
      </trkpt>
      <trkpt lat="52.975594019517303" lon="-3.390197027474642">
        <ele>179.90000000000001</ele>
        <time>2026-07-10T16:08:11Z</time>
      </trkpt>
      <trkpt lat="52.975714970380068" lon="-3.390017990022898">
        <ele>179.41999999999999</ele>
        <time>2026-07-10T16:08:12Z</time>
      </trkpt>
      <trkpt lat="52.976580988615751" lon="-3.388727009296417">
        <ele>174.62</ele>
        <time>2026-07-10T16:08:20Z</time>
      </trkpt>
      <trkpt lat="52.976666986942291" lon="-3.388570016250014">
        <ele>174.13999999999999</ele>
        <time>2026-07-10T16:08:21Z</time>
      </trkpt>
      <trkpt lat="52.976748961955309" lon="-3.388404976576567">
        <ele>173.16999999999999</ele>
        <time>2026-07-10T16:08:22Z</time>
      </trkpt>
      <trkpt lat="52.976807970553637" lon="-3.388216970488429">
        <ele>172.69</ele>
        <time>2026-07-10T16:08:23Z</time>
      </trkpt>
      <trkpt lat="52.976849041879177" lon="-3.388018989935517">
        <ele>171.72999999999999</ele>
        <time>2026-07-10T16:08:24Z</time>
      </trkpt>
      <trkpt lat="52.976890029385686" lon="-3.387817991897464">
        <ele>170.77000000000001</ele>
        <time>2026-07-10T16:08:25Z</time>
      </trkpt>
      <trkpt lat="52.976932022720575" lon="-3.38761598803103">
        <ele>169.81</ele>
        <time>2026-07-10T16:08:26Z</time>
      </trkpt>
      <trkpt lat="52.977007962763309" lon="-3.387457989156246">
        <ele>168.84999999999999</ele>
        <time>2026-07-10T16:08:27Z</time>
      </trkpt>
      <trkpt lat="52.977105025202036" lon="-3.387265037745237">
        <ele>167.88999999999999</ele>
        <time>2026-07-10T16:08:28Z</time>
      </trkpt>
      <trkpt lat="52.977195968851447" lon="-3.387182978913188">
        <ele>167.41</ele>
        <time>2026-07-10T16:08:29Z</time>
      </trkpt>
      <trkpt lat="52.977308034896851" lon="-3.387082982808352">
        <ele>166.44999999999999</ele>
        <time>2026-07-10T16:08:30Z</time>
      </trkpt>
      <trkpt lat="52.977423034608364" lon="-3.386978963389993">
        <ele>165.47999999999999</ele>
        <time>2026-07-10T16:08:31Z</time>
      </trkpt>
      <trkpt lat="52.977535016834736" lon="-3.386877039447427">
        <ele>164.03999999999999</ele>
        <time>2026-07-10T16:08:32Z</time>
      </trkpt>
      <trkpt lat="52.977644987404346" lon="-3.386748963966966">
        <ele>163.08000000000001</ele>
        <time>2026-07-10T16:08:33Z</time>
      </trkpt>
      <trkpt lat="52.977763004601002" lon="-3.386609992012382">
        <ele>161.63999999999999</ele>
        <time>2026-07-10T16:08:34Z</time>
      </trkpt>
      <trkpt lat="52.978482004255056" lon="-3.385885041207075">
        <ele>156.34999999999999</ele>
        <time>2026-07-10T16:08:40Z</time>
      </trkpt>
      <trkpt lat="52.978594992309809" lon="-3.385738022625446">
        <ele>155.87</ele>
        <time>2026-07-10T16:08:41Z</time>
      </trkpt>
      <trkpt lat="52.978700017556548" lon="-3.385581029579043">
        <ele>154.91</ele>
        <time>2026-07-10T16:08:42Z</time>
      </trkpt>
      <trkpt lat="52.978953989222646" lon="-3.385223038494587">
        <ele>152.50999999999999</ele>
        <time>2026-07-10T16:08:45Z</time>
      </trkpt>
      <trkpt lat="52.97900796867907" lon="-3.385168975219131">
        <ele>151.53999999999999</ele>
        <time>2026-07-10T16:08:46Z</time>
      </trkpt>
      <trkpt lat="52.979015009477735" lon="-3.385162018239498">
        <ele>150.58000000000001</ele>
        <time>2026-07-10T16:08:47Z</time>
      </trkpt>
      <trkpt lat="52.979072006419301" lon="-3.385146008804441">
        <ele>149.62</ele>
        <time>2026-07-10T16:08:48Z</time>
      </trkpt>
      <trkpt lat="52.979189017787576" lon="-3.385054981335998">
        <ele>146.25999999999999</ele>
        <time>2026-07-10T16:08:54Z</time>
      </trkpt>
      <trkpt lat="52.979221036657691" lon="-3.384970994666219">
        <ele>145.30000000000001</ele>
        <time>2026-07-10T16:08:55Z</time>
      </trkpt>
      <trkpt lat="52.979264035820961" lon="-3.384858006611466">
        <ele>144.81999999999999</ele>
        <time>2026-07-10T16:08:56Z</time>
      </trkpt>
      <trkpt lat="52.979375012218952" lon="-3.38456598110497">
        <ele>143.84999999999999</ele>
        <time>2026-07-10T16:08:58Z</time>
      </trkpt>
      <trkpt lat="52.979447012767196" lon="-3.384413011372089">
        <ele>143.37</ele>
        <time>2026-07-10T16:08:59Z</time>
      </trkpt>
      <trkpt lat="52.980013964697719" lon="-3.383272988721728">
        <ele>141.44999999999999</ele>
        <time>2026-07-10T16:09:05Z</time>
      </trkpt>
      <trkpt lat="52.980088982731104" lon="-3.383014993742108">
        <ele>140.97</ele>
        <time>2026-07-10T16:09:06Z</time>
      </trkpt>
      <trkpt lat="52.980161989107728" lon="-3.382762027904391">
        <ele>140.97</ele>
        <time>2026-07-10T16:09:07Z</time>
      </trkpt>
      <trkpt lat="52.980791972950101" lon="-3.38042096234858">
        <ele>143.37</ele>
        <time>2026-07-10T16:09:17Z</time>
      </trkpt>
      <trkpt lat="52.981052985414863" lon="-3.378900988027453">
        <ele>146.25999999999999</ele>
        <time>2026-07-10T16:09:24Z</time>
      </trkpt>
      <trkpt lat="52.981052985414863" lon="-3.378686998039484">
        <ele>145.78</ele>
        <time>2026-07-10T16:09:25Z</time>
      </trkpt>
      <trkpt lat="52.981052985414863" lon="-3.378478037193418">
        <ele>145.78</ele>
        <time>2026-07-10T16:09:26Z</time>
      </trkpt>
      <trkpt lat="52.981042005121708" lon="-3.378271004185081">
        <ele>146.25999999999999</ele>
        <time>2026-07-10T16:09:27Z</time>
      </trkpt>
      <trkpt lat="52.981027001515031" lon="-3.378062965348363">
        <ele>146.25999999999999</ele>
        <time>2026-07-10T16:09:28Z</time>
      </trkpt>
      <trkpt lat="52.980977967381477" lon="-3.377885017544031">
        <ele>146.25999999999999</ele>
        <time>2026-07-10T16:09:29Z</time>
      </trkpt>
      <trkpt lat="52.980930022895336" lon="-3.37771100923419">
        <ele>147.22</ele>
        <time>2026-07-10T16:09:30Z</time>
      </trkpt>
      <trkpt lat="52.980752997100353" lon="-3.377068033441901">
        <ele>149.13999999999999</ele>
        <time>2026-07-10T16:09:34Z</time>
      </trkpt>
      <trkpt lat="52.980731036514044" lon="-3.376933000981808">
        <ele>149.62</ele>
        <time>2026-07-10T16:09:35Z</time>
      </trkpt>
      <trkpt lat="52.980737993493676" lon="-3.376408964395523">
        <ele>148.66</ele>
        <time>2026-07-10T16:09:39Z</time>
      </trkpt>
      <trkpt lat="52.980794990435243" lon="-3.374871974810958">
        <ele>148.18000000000001</ele>
        <time>2026-07-10T16:09:52Z</time>
      </trkpt>
      <trkpt lat="52.980758026242256" lon="-3.374628983438015">
        <ele>148.66</ele>
        <time>2026-07-10T16:09:54Z</time>
      </trkpt>
      <trkpt lat="52.980737993493676" lon="-3.374506020918489">
        <ele>148.66</ele>
        <time>2026-07-10T16:09:55Z</time>
      </trkpt>
      <trkpt lat="52.980719972401857" lon="-3.374394038692117">
        <ele>149.13999999999999</ele>
        <time>2026-07-10T16:09:56Z</time>
      </trkpt>
      <trkpt lat="52.980703040957451" lon="-3.374291025102139">
        <ele>149.13999999999999</ele>
        <time>2026-07-10T16:09:57Z</time>
      </trkpt>
      <trkpt lat="52.980686025694013" lon="-3.374182982370257">
        <ele>149.13999999999999</ele>
        <time>2026-07-10T16:09:58Z</time>
      </trkpt>
      <trkpt lat="52.980645038187504" lon="-3.373891040682793">
        <ele>149.13999999999999</ele>
        <time>2026-07-10T16:10:01Z</time>
      </trkpt>
      <trkpt lat="52.980645038187504" lon="-3.373680990189314">
        <ele>149.13999999999999</ele>
        <time>2026-07-10T16:10:03Z</time>
      </trkpt>
      <trkpt lat="52.980607990175486" lon="-3.372818995267153">
        <ele>147.22</ele>
        <time>2026-07-10T16:10:12Z</time>
      </trkpt>
      <trkpt lat="52.980588041245937" lon="-3.372683962807059">
        <ele>147.22</ele>
        <time>2026-07-10T16:10:13Z</time>
      </trkpt>
      <trkpt lat="52.980541018769145" lon="-3.372573992237449">
        <ele>146.25999999999999</ele>
        <time>2026-07-10T16:10:14Z</time>
      </trkpt>
      <trkpt lat="52.980471029877663" lon="-3.372471984475851">
        <ele>146.25999999999999</ele>
        <time>2026-07-10T16:10:15Z</time>
      </trkpt>
      <trkpt lat="52.9804000351578" lon="-3.372368970885873">
        <ele>146.25999999999999</ele>
        <time>2026-07-10T16:10:16Z</time>
      </trkpt>
      <trkpt lat="52.980325017124414" lon="-3.372261011973023">
        <ele>146.25999999999999</ele>
        <time>2026-07-10T16:10:17Z</time>
      </trkpt>
      <trkpt lat="52.980247987434268" lon="-3.372150035575032">
        <ele>146.74000000000001</ele>
        <time>2026-07-10T16:10:18Z</time>
      </trkpt>
      <trkpt lat="52.980180010199547" lon="-3.372031012549996">
        <ele>147.22</ele>
        <time>2026-07-10T16:10:19Z</time>
      </trkpt>
      <trkpt lat="52.980127036571503" lon="-3.371884999796748">
        <ele>147.22</ele>
        <time>2026-07-10T16:10:20Z</time>
      </trkpt>
      <trkpt lat="52.980081019923091" lon="-3.371737981215119">
        <ele>147.69999999999999</ele>
        <time>2026-07-10T16:10:21Z</time>
      </trkpt>
      <trkpt lat="52.980053024366498" lon="-3.371573025360704">
        <ele>148.18000000000001</ele>
        <time>2026-07-10T16:10:22Z</time>
      </trkpt>
      <trkpt lat="52.980024022981524" lon="-3.371408991515636">
        <ele>147.69999999999999</ele>
        <time>2026-07-10T16:10:23Z</time>
      </trkpt>
      <trkpt lat="52.979895025491714" lon="-3.370612962171435">
        <ele>146.25999999999999</ele>
        <time>2026-07-10T16:10:28Z</time>
      </trkpt>
      <trkpt lat="52.979896031320095" lon="-3.368646986782551">
        <ele>144.34</ele>
        <time>2026-07-10T16:10:39Z</time>
      </trkpt>
      <trkpt lat="52.979974988847971" lon="-3.366828029975295">
        <ele>142.88999999999999</ele>
        <time>2026-07-10T16:10:46Z</time>
      </trkpt>
      <trkpt lat="52.980094011873007" lon="-3.36402595974505">
        <ele>142.41</ele>
        <time>2026-07-10T16:10:55Z</time>
      </trkpt>
      <trkpt lat="52.980171963572502" lon="-3.361389013007283">
        <ele>144.81999999999999</ele>
        <time>2026-07-10T16:11:03Z</time>
      </trkpt>
      <trkpt lat="52.980092000216246" lon="-3.357913037762046">
        <ele>149.13999999999999</ele>
        <time>2026-07-10T16:11:13Z</time>
      </trkpt>
      <trkpt lat="52.979878010228276" lon="-3.355515981093049">
        <ele>149.62</ele>
        <time>2026-07-10T16:11:20Z</time>
      </trkpt>
      <trkpt lat="52.979904999956489" lon="-3.354072030633688">
        <ele>147.69999999999999</ele>
        <time>2026-07-10T16:11:24Z</time>
      </trkpt>
      <trkpt lat="52.979947999119759" lon="-3.353337021544576">
        <ele>146.74000000000001</ele>
        <time>2026-07-10T16:11:26Z</time>
      </trkpt>
      <trkpt lat="52.980084037408233" lon="-3.352266987785697">
        <ele>145.78</ele>
        <time>2026-07-10T16:11:29Z</time>
      </trkpt>
      <trkpt lat="52.980140028521419" lon="-3.35158403031528">
        <ele>146.25999999999999</ele>
        <time>2026-07-10T16:11:31Z</time>
      </trkpt>
      <trkpt lat="52.980157965794206" lon="-3.350879028439522">
        <ele>146.74000000000001</ele>
        <time>2026-07-10T16:11:33Z</time>
      </trkpt>
      <trkpt lat="52.980167018249631" lon="-3.35014502517879">
        <ele>146.25999999999999</ele>
        <time>2026-07-10T16:11:35Z</time>
      </trkpt>
      <trkpt lat="52.980348989367485" lon="-3.347145980224013">
        <ele>145.30000000000001</ele>
        <time>2026-07-10T16:11:43Z</time>
      </trkpt>
      <trkpt lat="52.98040104098618" lon="-3.344418006017804">
        <ele>142.88999999999999</ele>
        <time>2026-07-10T16:11:51Z</time>
      </trkpt>
      <trkpt lat="52.980368016287684" lon="-3.343534972518683">
        <ele>142.41</ele>
        <time>2026-07-10T16:11:54Z</time>
      </trkpt>
      <trkpt lat="52.980139022693038" lon="-3.341388031840324">
        <ele>142.88999999999999</ele>
        <time>2026-07-10T16:12:02Z</time>
      </trkpt>
      <trkpt lat="52.979980017989874" lon="-3.340388992801309">
        <ele>142.88999999999999</ele>
        <time>2026-07-10T16:12:07Z</time>
      </trkpt>
      <trkpt lat="52.979936012998223" lon="-3.340222025290132">
        <ele>142.88999999999999</ele>
        <time>2026-07-10T16:12:08Z</time>
      </trkpt>
      <trkpt lat="52.979879016056657" lon="-3.34004801698029">
        <ele>142.41</ele>
        <time>2026-07-10T16:12:09Z</time>
      </trkpt>
      <trkpt lat="52.979505015537143" lon="-3.339014025405049">
        <ele>142.41</ele>
        <time>2026-07-10T16:12:14Z</time>
      </trkpt>
      <trkpt lat="52.979455981403589" lon="-3.338758964091539">
        <ele>142.88999999999999</ele>
        <time>2026-07-10T16:12:15Z</time>
      </trkpt>
      <trkpt lat="52.978817028924823" lon="-3.335982039570808">
        <ele>145.78</ele>
        <time>2026-07-10T16:12:26Z</time>
      </trkpt>
      <trkpt lat="52.978079002350569" lon="-3.333466965705156">
        <ele>142.41</ele>
        <time>2026-07-10T16:12:36Z</time>
      </trkpt>
      <trkpt lat="52.977840034291148" lon="-3.332532970234752">
        <ele>143.84999999999999</ele>
        <time>2026-07-10T16:12:40Z</time>
      </trkpt>
      <trkpt lat="52.977808015421033" lon="-3.332292996346951">
        <ele>143.84999999999999</ele>
        <time>2026-07-10T16:12:41Z</time>
      </trkpt>
      <trkpt lat="52.977707013487816" lon="-3.331528985872865">
        <ele>143.84999999999999</ele>
        <time>2026-07-10T16:12:44Z</time>
      </trkpt>
      <trkpt lat="52.977663008496165" lon="-3.33042299374938">
        <ele>144.81999999999999</ele>
        <time>2026-07-10T16:12:48Z</time>
      </trkpt>
      <trkpt lat="52.977772979065776" lon="-3.327784035354853">
        <ele>140.00999999999999</ele>
        <time>2026-07-10T16:12:57Z</time>
      </trkpt>
      <trkpt lat="52.977945981547236" lon="-3.326582992449403">
        <ele>138.56999999999999</ele>
        <time>2026-07-10T16:13:01Z</time>
      </trkpt>
      <trkpt lat="52.978535983711481" lon="-3.323341961950064">
        <ele>136.63999999999999</ele>
        <time>2026-07-10T16:13:12Z</time>
      </trkpt>
      <trkpt lat="52.978819040581584" lon="-3.321173982694745">
        <ele>137.13</ele>
        <time>2026-07-10T16:13:19Z</time>
      </trkpt>
      <trkpt lat="52.979187006130815" lon="-3.319215970113874">
        <ele>139.53</ele>
        <time>2026-07-10T16:13:26Z</time>
      </trkpt>
      <trkpt lat="52.979639964178205" lon="-3.316679019480944">
        <ele>146.25999999999999</ele>
        <time>2026-07-10T16:13:37Z</time>
      </trkpt>
      <trkpt lat="52.98001597635448" lon="-3.314471980556846">
        <ele>153.47</ele>
        <time>2026-07-10T16:13:47Z</time>
      </trkpt>
      <trkpt lat="52.980109015479684" lon="-3.313872003927827">
        <ele>155.38999999999999</ele>
        <time>2026-07-10T16:13:50Z</time>
      </trkpt>
      <trkpt lat="52.9801029805094" lon="-3.313672011718154">
        <ele>155.87</ele>
        <time>2026-07-10T16:13:51Z</time>
      </trkpt>
      <trkpt lat="52.980095017701387" lon="-3.313461961224675">
        <ele>155.87</ele>
        <time>2026-07-10T16:13:52Z</time>
      </trkpt>
      <trkpt lat="52.979963002726436" lon="-3.311572009697557">
        <ele>156.83000000000001</ele>
        <time>2026-07-10T16:13:59Z</time>
      </trkpt>
      <trkpt lat="52.979923021048307" lon="-3.311258023604751">
        <ele>156.83000000000001</ele>
        <time>2026-07-10T16:14:00Z</time>
      </trkpt>
      <trkpt lat="52.97949998639524" lon="-3.308873036876321">
        <ele>154.43000000000001</ele>
        <time>2026-07-10T16:14:08Z</time>
      </trkpt>
      <trkpt lat="52.979313991963863" lon="-3.307618014514446">
        <ele>153.47</ele>
        <time>2026-07-10T16:14:13Z</time>
      </trkpt>
      <trkpt lat="52.979073012247682" lon="-3.306668009608984">
        <ele>153.47</ele>
        <time>2026-07-10T16:14:17Z</time>
      </trkpt>
      <trkpt lat="52.978988019749522" lon="-3.306464999914169">
        <ele>152.99000000000001</ele>
        <time>2026-07-10T16:14:18Z</time>
      </trkpt>
      <trkpt lat="52.978790961205959" lon="-3.306081024929881">
        <ele>152.50999999999999</ele>
        <time>2026-07-10T16:14:20Z</time>
      </trkpt>
      <trkpt lat="52.978143962100148" lon="-3.305082991719246">
        <ele>149.62</ele>
        <time>2026-07-10T16:14:26Z</time>
      </trkpt>
      <trkpt lat="52.978074979037046" lon="-3.304871013388038">
        <ele>149.13999999999999</ele>
        <time>2026-07-10T16:14:27Z</time>
      </trkpt>
      <trkpt lat="52.977710030972958" lon="-3.303252970799804">
        <ele>142.88999999999999</ele>
        <time>2026-07-10T16:14:34Z</time>
      </trkpt>
      <trkpt lat="52.977295964956284" lon="-3.300043037161231">
        <ele>138.56999999999999</ele>
        <time>2026-07-10T16:14:45Z</time>
      </trkpt>
      <trkpt lat="52.976760026067495" lon="-3.295786958187819">
        <ele>140.00999999999999</ele>
        <time>2026-07-10T16:14:59Z</time>
      </trkpt>
      <trkpt lat="52.976574031636119" lon="-3.293872028589249">
        <ele>141.44999999999999</ele>
        <time>2026-07-10T16:15:05Z</time>
      </trkpt>
      <trkpt lat="52.97657797113061" lon="-3.291348991915584">
        <ele>144.81999999999999</ele>
        <time>2026-07-10T16:15:13Z</time>
      </trkpt>
      <trkpt lat="52.976595992222428" lon="-3.289233986288309">
        <ele>147.22</ele>
        <time>2026-07-10T16:15:20Z</time>
      </trkpt>
      <trkpt lat="52.97631997615099" lon="-3.286384977400303">
        <ele>145.30000000000001</ele>
        <time>2026-07-10T16:15:29Z</time>
      </trkpt>
      <trkpt lat="52.975984029471874" lon="-3.283788012340665">
        <ele>146.74000000000001</ele>
        <time>2026-07-10T16:15:38Z</time>
      </trkpt>
      <trkpt lat="52.975839022547007" lon="-3.282756032422185">
        <ele>147.22</ele>
        <time>2026-07-10T16:15:42Z</time>
      </trkpt>
      <trkpt lat="52.975842962041497" lon="-3.282499965280294">
        <ele>147.22</ele>
        <time>2026-07-10T16:15:43Z</time>
      </trkpt>
      <trkpt lat="52.975874980911613" lon="-3.280152026563883">
        <ele>148.18000000000001</ele>
        <time>2026-07-10T16:15:53Z</time>
      </trkpt>
      <trkpt lat="52.975877998396754" lon="-3.279910041019321">
        <ele>148.18000000000001</ele>
        <time>2026-07-10T16:15:54Z</time>
      </trkpt>
      <trkpt lat="52.975881015881896" lon="-3.27965397387743">
        <ele>148.18000000000001</ele>
        <time>2026-07-10T16:15:55Z</time>
      </trkpt>
      <trkpt lat="52.975821001455188" lon="-3.279419029131532">
        <ele>148.66</ele>
        <time>2026-07-10T16:15:56Z</time>
      </trkpt>
      <trkpt lat="52.975757969543338" lon="-3.279174026101828">
        <ele>148.66</ele>
        <time>2026-07-10T16:15:57Z</time>
      </trkpt>
      <trkpt lat="52.975694015622139" lon="-3.27892298810184">
        <ele>149.13999999999999</ele>
        <time>2026-07-10T16:15:58Z</time>
      </trkpt>
      <trkpt lat="52.975345999002457" lon="-3.277023984119296">
        <ele>152.03</ele>
        <time>2026-07-10T16:16:06Z</time>
      </trkpt>
      <trkpt lat="52.975065959617496" lon="-3.274355018511415">
        <ele>155.38999999999999</ele>
        <time>2026-07-10T16:16:18Z</time>
      </trkpt>
      <trkpt lat="52.975039975717664" lon="-3.274155026301742">
        <ele>155.87</ele>
        <time>2026-07-10T16:16:19Z</time>
      </trkpt>
      <trkpt lat="52.974744010716677" lon="-3.271926026791334">
        <ele>157.31</ele>
        <time>2026-07-10T16:16:29Z</time>
      </trkpt>
      <trkpt lat="52.974400017410517" lon="-3.269867012277246">
        <ele>157.78999999999999</ele>
        <time>2026-07-10T16:16:38Z</time>
      </trkpt>
      <trkpt lat="52.974366992712021" lon="-3.269440038129687">
        <ele>155.87</ele>
        <time>2026-07-10T16:16:40Z</time>
      </trkpt>
      <trkpt lat="52.974360035732388" lon="-3.269238034263253">
        <ele>155.38999999999999</ele>
        <time>2026-07-10T16:16:41Z</time>
      </trkpt>
      <trkpt lat="52.974394988268614" lon="-3.268699999898672">
        <ele>153.94999999999999</ele>
        <time>2026-07-10T16:16:44Z</time>
      </trkpt>
      <trkpt lat="52.974416026845574" lon="-3.267025966197252">
        <ele>155.87</ele>
        <time>2026-07-10T16:16:52Z</time>
      </trkpt>
      <trkpt lat="52.974289041012526" lon="-3.264703005552292">
        <ele>159.72</ele>
        <time>2026-07-10T16:17:02Z</time>
      </trkpt>
      <trkpt lat="52.973907999694347" lon="-3.262017024680972">
        <ele>165</ele>
        <time>2026-07-10T16:17:14Z</time>
      </trkpt>
      <trkpt lat="52.973674982786179" lon="-3.259689034894109">
        <ele>170.28999999999999</ele>
        <time>2026-07-10T16:17:24Z</time>
      </trkpt>
      <trkpt lat="52.973593007773161" lon="-3.258208958432078">
        <ele>173.66</ele>
        <time>2026-07-10T16:17:29Z</time>
      </trkpt>
      <trkpt lat="52.973523018881679" lon="-3.257897989824414">
        <ele>174.62</ele>
        <time>2026-07-10T16:17:30Z</time>
      </trkpt>
      <trkpt lat="52.973451018333435" lon="-3.257577968761325">
        <ele>175.09999999999999</ele>
        <time>2026-07-10T16:17:31Z</time>
      </trkpt>
      <trkpt lat="52.972481986507773" lon="-3.253894038498402">
        <ele>185.66999999999999</ele>
        <time>2026-07-10T16:17:42Z</time>
      </trkpt>
      <trkpt lat="52.971902964636683" lon="-3.251331020146608">
        <ele>186.15000000000001</ele>
        <time>2026-07-10T16:17:50Z</time>
      </trkpt>
      <trkpt lat="52.971705989912152" lon="-3.248398024588823">
        <ele>176.53999999999999</ele>
        <time>2026-07-10T16:17:58Z</time>
      </trkpt>
      <trkpt lat="52.971291001886129" lon="-3.244128031656146">
        <ele>168.37</ele>
        <time>2026-07-10T16:18:09Z</time>
      </trkpt>
      <trkpt lat="52.971211038529873" lon="-3.240015031769872">
        <ele>171.72999999999999</ele>
        <time>2026-07-10T16:18:20Z</time>
      </trkpt>
      <trkpt lat="52.971067959442735" lon="-3.236859999597073">
        <ele>176.53999999999999</ele>
        <time>2026-07-10T16:18:29Z</time>
      </trkpt>
      <trkpt lat="52.970834020525217" lon="-3.235058980062604">
        <ele>174.13999999999999</ele>
        <time>2026-07-10T16:18:35Z</time>
      </trkpt>
      <trkpt lat="52.970823040232062" lon="-3.234762009233236">
        <ele>173.66</ele>
        <time>2026-07-10T16:18:36Z</time>
      </trkpt>
      <trkpt lat="52.970837960019708" lon="-3.234456991776824">
        <ele>173.16999999999999</ele>
        <time>2026-07-10T16:18:37Z</time>
      </trkpt>
      <trkpt lat="52.971081035211682" lon="-3.23219002224505">
        <ele>167.41</ele>
        <time>2026-07-10T16:18:44Z</time>
      </trkpt>
      <trkpt lat="52.971197040751576" lon="-3.231243034824729">
        <ele>165.47999999999999</ele>
        <time>2026-07-10T16:18:47Z</time>
      </trkpt>
      <trkpt lat="52.971226964145899" lon="-3.230929970741272">
        <ele>164.52000000000001</ele>
        <time>2026-07-10T16:18:48Z</time>
      </trkpt>
      <trkpt lat="52.971234004944563" lon="-3.230598969385028">
        <ele>164.03999999999999</ele>
        <time>2026-07-10T16:18:49Z</time>
      </trkpt>
      <trkpt lat="52.971238028258085" lon="-3.226845972239971">
        <ele>158.75</ele>
        <time>2026-07-10T16:19:00Z</time>
      </trkpt>
      <trkpt lat="52.971282033249736" lon="-3.226518994197249">
        <ele>158.75</ele>
        <time>2026-07-10T16:19:01Z</time>
      </trkpt>
      <trkpt lat="52.971340036019683" lon="-3.226199978962541">
        <ele>158.75</ele>
        <time>2026-07-10T16:19:02Z</time>
      </trkpt>
      <trkpt lat="52.971401978284121" lon="-3.225879035890102">
        <ele>158.75</ele>
        <time>2026-07-10T16:19:03Z</time>
      </trkpt>
      <trkpt lat="52.972256010398269" lon="-3.222083039581776">
        <ele>160.19999999999999</ele>
        <time>2026-07-10T16:19:15Z</time>
      </trkpt>
      <trkpt lat="52.97296998091042" lon="-3.219566037878394">
        <ele>163.08000000000001</ele>
        <time>2026-07-10T16:19:24Z</time>
      </trkpt>
      <trkpt lat="52.973087998107076" lon="-3.219336960464716">
        <ele>163.08000000000001</ele>
        <time>2026-07-10T16:19:25Z</time>
      </trkpt>
      <trkpt lat="52.97320500947535" lon="-3.21910796687007">
        <ele>163.08000000000001</ele>
        <time>2026-07-10T16:19:26Z</time>
      </trkpt>
      <trkpt lat="52.973340963944793" lon="-3.218900011852384">
        <ele>163.56</ele>
        <time>2026-07-10T16:19:27Z</time>
      </trkpt>
      <trkpt lat="52.973499968647957" lon="-3.218752993270755">
        <ele>163.56</ele>
        <time>2026-07-10T16:19:28Z</time>
      </trkpt>
      <trkpt lat="52.973670037463307" lon="-3.218632964417338">
        <ele>164.03999999999999</ele>
        <time>2026-07-10T16:19:29Z</time>
      </trkpt>
      <trkpt lat="52.973843039944768" lon="-3.218534979969263">
        <ele>164.52000000000001</ele>
        <time>2026-07-10T16:19:30Z</time>
      </trkpt>
      <trkpt lat="52.974032973870635" lon="-3.218491980805993">
        <ele>165</ele>
        <time>2026-07-10T16:19:31Z</time>
      </trkpt>
      <trkpt lat="52.974221985787153" lon="-3.218458034098148">
        <ele>165.47999999999999</ele>
        <time>2026-07-10T16:19:32Z</time>
      </trkpt>
      <trkpt lat="52.974990019574761" lon="-3.218309003859758">
        <ele>167.41</ele>
        <time>2026-07-10T16:19:36Z</time>
      </trkpt>
      <trkpt lat="52.975361002609134" lon="-3.218103982508183">
        <ele>168.37</ele>
        <time>2026-07-10T16:19:38Z</time>
      </trkpt>
      <trkpt lat="52.975540040060878" lon="-3.217957969754934">
        <ele>168.84999999999999</ele>
        <time>2026-07-10T16:19:39Z</time>
      </trkpt>
      <trkpt lat="52.977032018825412" lon="-3.216941999271512">
        <ele>172.21000000000001</ele>
        <time>2026-07-10T16:19:47Z</time>
      </trkpt>
      <trkpt lat="52.977203009650111" lon="-3.21691601537168">
        <ele>172.69</ele>
        <time>2026-07-10T16:19:48Z</time>
      </trkpt>
      <trkpt lat="52.977377017959952" lon="-3.216930013149977">
        <ele>172.69</ele>
        <time>2026-07-10T16:19:49Z</time>
      </trkpt>
      <trkpt lat="52.977548008784652" lon="-3.216986004263163">
        <ele>173.16999999999999</ele>
        <time>2026-07-10T16:19:50Z</time>
      </trkpt>
      <trkpt lat="52.977723022922873" lon="-3.217061022296548">
        <ele>173.66</ele>
        <time>2026-07-10T16:19:51Z</time>
      </trkpt>
      <trkpt lat="52.977903988212347" lon="-3.217138973996043">
        <ele>174.13999999999999</ele>
        <time>2026-07-10T16:19:52Z</time>
      </trkpt>
      <trkpt lat="52.978086965158582" lon="-3.21721700951457">
        <ele>175.09999999999999</ele>
        <time>2026-07-10T16:19:53Z</time>
      </trkpt>
      <trkpt lat="52.979172002524137" lon="-3.217866020277143">
        <ele>177.5</ele>
        <time>2026-07-10T16:19:59Z</time>
      </trkpt>
      <trkpt lat="52.980159977450967" lon="-3.218676969408989">
        <ele>179.90000000000001</ele>
        <time>2026-07-10T16:20:06Z</time>
      </trkpt>
      <trkpt lat="52.980699017643929" lon="-3.218993972986937">
        <ele>181.34999999999999</ele>
        <time>2026-07-10T16:20:10Z</time>
      </trkpt>
      <trkpt lat="52.980880988761783" lon="-3.219101009890437">
        <ele>181.34999999999999</ele>
        <time>2026-07-10T16:20:12Z</time>
      </trkpt>
      <trkpt lat="52.981034964323044" lon="-3.219060022383928">
        <ele>180.87</ele>
        <time>2026-07-10T16:20:13Z</time>
      </trkpt>
      <trkpt lat="52.981133032590151" lon="-3.219016017392278">
        <ele>180.38</ele>
        <time>2026-07-10T16:20:14Z</time>
      </trkpt>
      <trkpt lat="52.981236968189478" lon="-3.218877967447043">
        <ele>179.90000000000001</ele>
        <time>2026-07-10T16:20:15Z</time>
      </trkpt>
      <trkpt lat="52.981318021193147" lon="-3.218729021027684">
        <ele>179.41999999999999</ele>
        <time>2026-07-10T16:20:16Z</time>
      </trkpt>
      <trkpt lat="52.981353979557753" lon="-3.21850597858429">
        <ele>178.46000000000001</ele>
        <time>2026-07-10T16:20:17Z</time>
      </trkpt>
      <trkpt lat="52.981367977336049" lon="-3.218303974717856">
        <ele>177.97999999999999</ele>
        <time>2026-07-10T16:20:18Z</time>
      </trkpt>
      <trkpt lat="52.981335036456585" lon="-3.218085039407015">
        <ele>177.5</ele>
        <time>2026-07-10T16:20:19Z</time>
      </trkpt>
      <trkpt lat="52.981278961524367" lon="-3.217855039983988">
        <ele>177.02000000000001</ele>
        <time>2026-07-10T16:20:20Z</time>
      </trkpt>
      <trkpt lat="52.981221964582801" lon="-3.21762403473258">
        <ele>176.53999999999999</ele>
        <time>2026-07-10T16:20:21Z</time>
      </trkpt>
      <trkpt lat="52.98063799738884" lon="-3.215448008850217">
        <ele>171.25</ele>
        <time>2026-07-10T16:20:29Z</time>
      </trkpt>
      <trkpt lat="52.97960702329874" lon="-3.212787006050348">
        <ele>165</ele>
        <time>2026-07-10T16:20:39Z</time>
      </trkpt>
      <trkpt lat="52.978836977854371" lon="-3.210488017648459">
        <ele>157.31</ele>
        <time>2026-07-10T16:20:47Z</time>
      </trkpt>
      <trkpt lat="52.978545036166906" lon="-3.208544002845883">
        <ele>151.53999999999999</ele>
        <time>2026-07-10T16:20:53Z</time>
      </trkpt>
      <trkpt lat="52.978434981778264" lon="-3.207897003740072">
        <ele>149.62</ele>
        <time>2026-07-10T16:20:55Z</time>
      </trkpt>
      <trkpt lat="52.978340014815331" lon="-3.207316976040602">
        <ele>148.18000000000001</ele>
        <time>2026-07-10T16:20:57Z</time>
      </trkpt>
      <trkpt lat="52.978312019258738" lon="-3.207054035738111">
        <ele>148.18000000000001</ele>
        <time>2026-07-10T16:20:58Z</time>
      </trkpt>
      <trkpt lat="52.97833900898695" lon="-3.206816995516419">
        <ele>147.69999999999999</ele>
        <time>2026-07-10T16:20:59Z</time>
      </trkpt>
      <trkpt lat="52.978737987577915" lon="-3.204875998198986">
        <ele>147.22</ele>
        <time>2026-07-10T16:21:06Z</time>
      </trkpt>
      <trkpt lat="52.979132020846009" lon="-3.203325010836124">
        <ele>146.74000000000001</ele>
        <time>2026-07-10T16:21:11Z</time>
      </trkpt>
      <trkpt lat="52.979853032156825" lon="-3.200470972806215">
        <ele>141.44999999999999</ele>
        <time>2026-07-10T16:21:20Z</time>
      </trkpt>
      <trkpt lat="52.979960991069674" lon="-3.199549969285727">
        <ele>137.61000000000001</ele>
        <time>2026-07-10T16:21:23Z</time>
      </trkpt>
      <trkpt lat="52.97997297719121" lon="-3.199271019548178">
        <ele>136.16</ele>
        <time>2026-07-10T16:21:24Z</time>
      </trkpt>
      <trkpt lat="52.979969959706068" lon="-3.199030039831996">
        <ele>134.24000000000001</ele>
        <time>2026-07-10T16:21:25Z</time>
      </trkpt>
      <trkpt lat="52.979825958609581" lon="-3.197791026905179">
        <ele>127.51000000000001</ele>
        <time>2026-07-10T16:21:31Z</time>
      </trkpt>
      <trkpt lat="52.979803998023272" lon="-3.197630010545254">
        <ele>126.55</ele>
        <time>2026-07-10T16:21:32Z</time>
      </trkpt>
      <trkpt lat="52.979754041880369" lon="-3.197284005582333">
        <ele>125.59</ele>
        <time>2026-07-10T16:21:34Z</time>
      </trkpt>
      <trkpt lat="52.979728979989886" lon="-3.197108991444111">
        <ele>124.63</ele>
        <time>2026-07-10T16:21:35Z</time>
      </trkpt>
      <trkpt lat="52.979571986943483" lon="-3.19588397629559">
        <ele>117.90000000000001</ele>
        <time>2026-07-10T16:21:44Z</time>
      </trkpt>
      <trkpt lat="52.979598976671696" lon="-3.195757996290922">
        <ele>117.42</ele>
        <time>2026-07-10T16:21:45Z</time>
      </trkpt>
      <trkpt lat="52.979613980278373" lon="-3.195682978257537">
        <ele>116.45999999999999</ele>
        <time>2026-07-10T16:21:46Z</time>
      </trkpt>
      <trkpt lat="52.979627978056669" lon="-3.195616006851196">
        <ele>115.98</ele>
        <time>2026-07-10T16:21:47Z</time>
      </trkpt>
      <trkpt lat="52.979640970006585" lon="-3.195554986596108">
        <ele>115.5</ele>
        <time>2026-07-10T16:21:48Z</time>
      </trkpt>
      <trkpt lat="52.979651028290391" lon="-3.195508969947696">
        <ele>114.53</ele>
        <time>2026-07-10T16:21:49Z</time>
      </trkpt>
      <trkpt lat="52.979656979441643" lon="-3.195477034896612">
        <ele>114.05</ele>
        <time>2026-07-10T16:21:50Z</time>
      </trkpt>
      <trkpt lat="52.979700984433293" lon="-3.195463959127665">
        <ele>113.56999999999999</ele>
        <time>2026-07-10T16:21:51Z</time>
      </trkpt>
      <trkpt lat="52.979708025231957" lon="-3.19549698382616">
        <ele>113.09</ele>
        <time>2026-07-10T16:21:52Z</time>
      </trkpt>
      <trkpt lat="52.979723028838634" lon="-3.195562027394772">
        <ele>112.13</ele>
        <time>2026-07-10T16:21:53Z</time>
      </trkpt>
      <trkpt lat="52.979723028838634" lon="-3.19560301490128">
        <ele>111.65000000000001</ele>
        <time>2026-07-10T16:21:54Z</time>
      </trkpt>
      <trkpt lat="52.979723028838634" lon="-3.19566898047924">
        <ele>111.17</ele>
        <time>2026-07-10T16:21:55Z</time>
      </trkpt>
      <trkpt lat="52.979723028838634" lon="-3.195743998512626">
        <ele>110.20999999999999</ele>
        <time>2026-07-10T16:21:56Z</time>
      </trkpt>
      <trkpt lat="52.979595037177205" lon="-3.19577400572598">
        <ele>109.25</ele>
        <time>2026-07-10T16:21:57Z</time>
      </trkpt>
      <trkpt lat="52.979581039398909" lon="-3.195841982960701">
        <ele>108.77</ele>
        <time>2026-07-10T16:21:58Z</time>
      </trkpt>
      <trkpt lat="52.979581961408257" lon="-3.195971986278892">
        <ele>107.81</ele>
        <time>2026-07-10T16:21:59Z</time>
      </trkpt>
      <trkpt lat="52.979590008035302" lon="-3.196038035675883">
        <ele>107.31999999999999</ele>
        <time>2026-07-10T16:22:00Z</time>
      </trkpt>
      <trkpt lat="52.97960601747036" lon="-3.196186982095242">
        <ele>105.88</ele>
        <time>2026-07-10T16:22:02Z</time>
      </trkpt>
      <trkpt lat="52.97975898720324" lon="-3.196238027885556">
        <ele>104.92</ele>
        <time>2026-07-10T16:22:04Z</time>
      </trkpt>
      <trkpt lat="52.979786982759833" lon="-3.19631296209991">
        <ele>104.44</ele>
        <time>2026-07-10T16:22:05Z</time>
      </trkpt>
      <trkpt lat="52.979797963052988" lon="-3.19631296209991">
        <ele>103.48</ele>
        <time>2026-07-10T16:22:06Z</time>
      </trkpt>
      <trkpt lat="52.979830987751484" lon="-3.1963100284338">
        <ele>103</ele>
        <time>2026-07-10T16:22:07Z</time>
      </trkpt>
      <trkpt lat="52.979853032156825" lon="-3.196308016777039">
        <ele>102.52</ele>
        <time>2026-07-10T16:22:08Z</time>
      </trkpt>
      <trkpt lat="52.979877004399896" lon="-3.196306005120277">
        <ele>102.04000000000001</ele>
        <time>2026-07-10T16:22:09Z</time>
      </trkpt>
      <trkpt lat="52.979902988299727" lon="-3.196303993463516">
        <ele>101.56</ele>
        <time>2026-07-10T16:22:10Z</time>
      </trkpt>
      <trkpt lat="52.980026034638286" lon="-3.196294018998742">
        <ele>101.56</ele>
        <time>2026-07-10T16:22:14Z</time>
      </trkpt>
      <trkpt lat="52.980071967467666" lon="-3.196287984028459">
        <ele>102.04000000000001</ele>
        <time>2026-07-10T16:22:15Z</time>
      </trkpt>
      <trkpt lat="52.980373967438936" lon="-3.196249008178711">
        <ele>102.52</ele>
        <time>2026-07-10T16:22:20Z</time>
      </trkpt>
      <trkpt lat="52.980477986857295" lon="-3.196236016228795">
        <ele>103</ele>
        <time>2026-07-10T16:22:22Z</time>
      </trkpt>
      <trkpt lat="52.980546969920397" lon="-3.196180025115609">
        <ele>103</ele>
        <time>2026-07-10T16:22:23Z</time>
      </trkpt>
      <trkpt lat="52.980563985183835" lon="-3.196093020960689">
        <ele>103</ele>
        <time>2026-07-10T16:22:24Z</time>
      </trkpt>
      <trkpt lat="52.980585023760796" lon="-3.195985984057188">
        <ele>103</ele>
        <time>2026-07-10T16:22:25Z</time>
      </trkpt>
      <trkpt lat="52.980607990175486" lon="-3.195867966860533">
        <ele>103.48</ele>
        <time>2026-07-10T16:22:26Z</time>
      </trkpt>
      <trkpt lat="52.980630034580827" lon="-3.195752967149019">
        <ele>103.95999999999999</ele>
        <time>2026-07-10T16:22:27Z</time>
      </trkpt>
      <trkpt lat="52.980649983510375" lon="-3.195650037378073">
        <ele>104.92</ele>
        <time>2026-07-10T16:22:28Z</time>
      </trkpt>
      <trkpt lat="52.980664987117052" lon="-3.195577031001449">
        <ele>105.88</ele>
        <time>2026-07-10T16:22:29Z</time>
      </trkpt>
      <trkpt lat="52.980688037350774" lon="-3.195454990491271">
        <ele>106.84</ele>
        <time>2026-07-10T16:22:30Z</time>
      </trkpt>
      <trkpt lat="52.980691976845264" lon="-3.195450967177749">
        <ele>107.81</ele>
        <time>2026-07-10T16:22:31Z</time>
      </trkpt>
      <trkpt lat="52.980722989886999" lon="-3.195414002984762">
        <ele>109.25</ele>
        <time>2026-07-10T16:22:33Z</time>
      </trkpt>
      <trkpt lat="52.980741010978818" lon="-3.195392964407802">
        <ele>110.69</ele>
        <time>2026-07-10T16:22:36Z</time>
      </trkpt>
      <trkpt lat="52.980760959908366" lon="-3.195368992164731">
        <ele>111.65000000000001</ele>
        <time>2026-07-10T16:22:37Z</time>
      </trkpt>
      <trkpt lat="52.980794990435243" lon="-3.195328004658222">
        <ele>112.13</ele>
        <time>2026-07-10T16:22:38Z</time>
      </trkpt>
      <trkpt lat="52.980840001255274" lon="-3.195274025201798">
        <ele>112.61</ele>
        <time>2026-07-10T16:22:39Z</time>
      </trkpt>
      <trkpt lat="52.980880988761783" lon="-3.195225996896625">
        <ele>113.09</ele>
        <time>2026-07-10T16:22:40Z</time>
      </trkpt>
      <trkpt lat="52.98091703094542" lon="-3.195182997733355">
        <ele>113.56999999999999</ele>
        <time>2026-07-10T16:22:41Z</time>
      </trkpt>
      <trkpt lat="52.980948965996504" lon="-3.195145027711988">
        <ele>114.05</ele>
        <time>2026-07-10T16:22:42Z</time>
      </trkpt>
      <trkpt lat="52.980968998745084" lon="-3.195121977478266">
        <ele>114.05</ele>
        <time>2026-07-10T16:22:43Z</time>
      </trkpt>
      <trkpt lat="52.980971010401845" lon="-3.195119965821505">
        <ele>114.05</ele>
        <time>2026-07-10T16:22:44Z</time>
      </trkpt>
      <trkpt lat="52.980971010401845" lon="-3.195119965821505">
        <ele>115.01000000000001</ele>
        <time>2026-07-10T16:22:48Z</time>
      </trkpt>
      <trkpt lat="52.980971010401845" lon="-3.195119965821505">
        <ele>116.94</ele>
        <time>2026-07-10T16:23:00Z</time>
      </trkpt>
      <trkpt lat="52.980971010401845" lon="-3.195119965821505">
        <ele>117.42</ele>
        <time>2026-07-10T16:23:42Z</time>
      </trkpt>
      <trkpt lat="52.980971010401845" lon="-3.195119965821505">
        <ele>117.42</ele>
        <time>2026-07-10T16:24:27Z</time>
      </trkpt>
      <trkpt lat="52.980971010401845" lon="-3.195119965821505">
        <ele>117.90000000000001</ele>
        <time>2026-07-10T16:25:13Z</time>
      </trkpt>
      <trkpt lat="52.980971010401845" lon="-3.195119965821505">
        <ele>117.42</ele>
        <time>2026-07-10T16:25:59Z</time>
      </trkpt>
      <trkpt lat="52.980971010401845" lon="-3.195119965821505">
        <ele>117.90000000000001</ele>
        <time>2026-07-10T16:26:49Z</time>
      </trkpt>
      <trkpt lat="52.980971010401845" lon="-3.195119965821505">
        <ele>118.86</ele>
        <time>2026-07-10T16:27:43Z</time>
      </trkpt>
      <trkpt lat="52.981427991762757" lon="-3.194915028288961">
        <ele>88.099999999999994</ele>
        <time>2026-07-10T16:43:29Z</time>
      </trkpt>
      <trkpt lat="52.981145018711686" lon="-3.195074032992125">
        <ele>137.13</ele>
        <time>2026-07-10T16:44:04Z</time>
      </trkpt>
      <trkpt lat="52.981054997071624" lon="-3.195069003850222">
        <ele>118.86</ele>
        <time>2026-07-10T16:44:52Z</time>
      </trkpt>
      <trkpt lat="52.981092967092991" lon="-3.195061963051558">
        <ele>123.19</ele>
        <time>2026-07-10T16:45:17Z</time>
      </trkpt>
      <trkpt lat="52.981083998456597" lon="-3.195075038820505">
        <ele>123.19</ele>
        <time>2026-07-10T16:45:33Z</time>
      </trkpt>
      <trkpt lat="52.981014009565115" lon="-3.195067998021841">
        <ele>124.15000000000001</ele>
        <time>2026-07-10T16:45:36Z</time>
      </trkpt>
      <trkpt lat="52.980968998745084" lon="-3.195121977478266">
        <ele>123.19</ele>
        <time>2026-07-10T16:45:37Z</time>
      </trkpt>
      <trkpt lat="52.980923987925053" lon="-3.195176040753722">
        <ele>122.70999999999999</ele>
        <time>2026-07-10T16:45:38Z</time>
      </trkpt>
      <trkpt lat="52.98078996129334" lon="-3.195334039628506">
        <ele>122.22</ele>
        <time>2026-07-10T16:45:41Z</time>
      </trkpt>
      <trkpt lat="52.98074402846396" lon="-3.195389024913311">
        <ele>122.22</ele>
        <time>2026-07-10T16:45:42Z</time>
      </trkpt>
      <trkpt lat="52.980688037350774" lon="-3.195454990491271">
        <ele>122.22</ele>
        <time>2026-07-10T16:45:43Z</time>
      </trkpt>
      <trkpt lat="52.980671022087336" lon="-3.195545012131333">
        <ele>122.22</ele>
        <time>2026-07-10T16:45:44Z</time>
      </trkpt>
      <trkpt lat="52.980650989338756" lon="-3.195644002407789">
        <ele>122.22</ele>
        <time>2026-07-10T16:45:45Z</time>
      </trkpt>
      <trkpt lat="52.980631040409207" lon="-3.195748021826148">
        <ele>122.22</ele>
        <time>2026-07-10T16:45:46Z</time>
      </trkpt>
      <trkpt lat="52.980608996003866" lon="-3.195863021537662">
        <ele>121.73999999999999</ele>
        <time>2026-07-10T16:45:47Z</time>
      </trkpt>
      <trkpt lat="52.980587035417557" lon="-3.195977015420795">
        <ele>121.26000000000001</ele>
        <time>2026-07-10T16:45:48Z</time>
      </trkpt>
      <trkpt lat="52.980567002668977" lon="-3.196077011525631">
        <ele>120.78</ele>
        <time>2026-07-10T16:45:49Z</time>
      </trkpt>
      <trkpt lat="52.98055300489068" lon="-3.196151023730636">
        <ele>119.81999999999999</ele>
        <time>2026-07-10T16:45:50Z</time>
      </trkpt>
      <trkpt lat="52.980541018769145" lon="-3.196210032328963">
        <ele>118.86</ele>
        <time>2026-07-10T16:45:51Z</time>
      </trkpt>
      <trkpt lat="52.980501037091017" lon="-3.196231992915273">
        <ele>117.90000000000001</ele>
        <time>2026-07-10T16:45:52Z</time>
      </trkpt>
      <trkpt lat="52.98044596798718" lon="-3.196239033713937">
        <ele>116.94</ele>
        <time>2026-07-10T16:45:53Z</time>
      </trkpt>
      <trkpt lat="52.980374973267317" lon="-3.196249008178711">
        <ele>115.5</ele>
        <time>2026-07-10T16:45:54Z</time>
      </trkpt>
      <trkpt lat="52.980297021567822" lon="-3.196258982643485">
        <ele>114.53</ele>
        <time>2026-07-10T16:45:55Z</time>
      </trkpt>
      <trkpt lat="52.980216974392533" lon="-3.196269040927291">
        <ele>113.56999999999999</ele>
        <time>2026-07-10T16:45:56Z</time>
      </trkpt>
      <trkpt lat="52.979853032156825" lon="-3.196308016777039">
        <ele>111.17</ele>
        <time>2026-07-10T16:46:01Z</time>
      </trkpt>
      <trkpt lat="52.979799974709749" lon="-3.196312040090561">
        <ele>111.17</ele>
        <time>2026-07-10T16:46:02Z</time>
      </trkpt>
      <trkpt lat="52.979770973324776" lon="-3.19626996293664">
        <ele>111.17</ele>
        <time>2026-07-10T16:46:03Z</time>
      </trkpt>
      <trkpt lat="52.979744989424944" lon="-3.196201985701919">
        <ele>110.69</ele>
        <time>2026-07-10T16:46:04Z</time>
      </trkpt>
      <trkpt lat="52.979723028838634" lon="-3.196111964061856">
        <ele>110.69</ele>
        <time>2026-07-10T16:46:05Z</time>
      </trkpt>
      <trkpt lat="52.979723028838634" lon="-3.196007022634149">
        <ele>110.69</ele>
        <time>2026-07-10T16:46:06Z</time>
      </trkpt>
      <trkpt lat="52.979723028838634" lon="-3.195889005437493">
        <ele>110.69</ele>
        <time>2026-07-10T16:46:07Z</time>
      </trkpt>
      <trkpt lat="52.979723028838634" lon="-3.195772999897599">
        <ele>110.69</ele>
        <time>2026-07-10T16:46:08Z</time>
      </trkpt>
      <trkpt lat="52.979723028838634" lon="-3.195655988529325">
        <ele>111.17</ele>
        <time>2026-07-10T16:46:09Z</time>
      </trkpt>
      <trkpt lat="52.979723028838634" lon="-3.195562027394772">
        <ele>111.65000000000001</ele>
        <time>2026-07-10T16:46:10Z</time>
      </trkpt>
      <trkpt lat="52.979723028838634" lon="-3.195562027394772">
        <ele>112.13</ele>
        <time>2026-07-10T16:46:11Z</time>
      </trkpt>
      <trkpt lat="52.979723028838634" lon="-3.195562027394772">
        <ele>113.09</ele>
        <time>2026-07-10T16:46:19Z</time>
      </trkpt>
      <trkpt lat="52.979723028838634" lon="-3.195562027394772">
        <ele>113.09</ele>
        <time>2026-07-10T16:46:39Z</time>
      </trkpt>
      <trkpt lat="52.979696961119771" lon="-3.195447027683258">
        <ele>113.56999999999999</ele>
        <time>2026-07-10T16:46:40Z</time>
      </trkpt>
      <trkpt lat="52.979686986654997" lon="-3.195404028519988">
        <ele>114.53</ele>
        <time>2026-07-10T16:46:41Z</time>
      </trkpt>
      <trkpt lat="52.979701990261674" lon="-3.195287017151713">
        <ele>115.5</ele>
        <time>2026-07-10T16:46:46Z</time>
      </trkpt>
      <trkpt lat="52.979725962504745" lon="-3.195192972198129">
        <ele>115.5</ele>
        <time>2026-07-10T16:46:47Z</time>
      </trkpt>
      <trkpt lat="52.97975898720324" lon="-3.195070009678602">
        <ele>115.5</ele>
        <time>2026-07-10T16:46:49Z</time>
      </trkpt>
      <trkpt lat="52.980290986597538" lon="-3.193527990952134">
        <ele>114.53</ele>
        <time>2026-07-10T16:46:57Z</time>
      </trkpt>
      <trkpt lat="52.981146024540067" lon="-3.19145699031651">
        <ele>114.05</ele>
        <time>2026-07-10T16:47:08Z</time>
      </trkpt>
      <trkpt lat="52.981851026415825" lon="-3.189471988007426">
        <ele>115.98</ele>
        <time>2026-07-10T16:47:17Z</time>
      </trkpt>
      <trkpt lat="52.982318988069892" lon="-3.187478017061949">
        <ele>116.94</ele>
        <time>2026-07-10T16:47:25Z</time>
      </trkpt>
      <trkpt lat="52.982318988069892" lon="-3.187232008203864">
        <ele>116.94</ele>
        <time>2026-07-10T16:47:26Z</time>
      </trkpt>
      <trkpt lat="52.982307001948357" lon="-3.186991028487682">
        <ele>117.42</ele>
        <time>2026-07-10T16:47:27Z</time>
      </trkpt>
      <trkpt lat="52.98225000500679" lon="-3.186749964952469">
        <ele>117.42</ele>
        <time>2026-07-10T16:47:28Z</time>
      </trkpt>
      <trkpt lat="52.982193008065224" lon="-3.186504961922765">
        <ele>117.42</ele>
        <time>2026-07-10T16:47:29Z</time>
      </trkpt>
      <trkpt lat="52.982123019173741" lon="-3.186269011348486">
        <ele>117.42</ele>
        <time>2026-07-10T16:47:30Z</time>
      </trkpt>
      <trkpt lat="52.982041966170073" lon="-3.186038006097078">
        <ele>117.42</ele>
        <time>2026-07-10T16:47:31Z</time>
      </trkpt>
      <trkpt lat="52.981945993378758" lon="-3.185819992795587">
        <ele>117.42</ele>
        <time>2026-07-10T16:47:32Z</time>
      </trkpt>
      <trkpt lat="52.981843985617161" lon="-3.185608014464378">
        <ele>117.42</ele>
        <time>2026-07-10T16:47:33Z</time>
      </trkpt>
      <trkpt lat="52.981743989512324" lon="-3.185400981456041">
        <ele>116.94</ele>
        <time>2026-07-10T16:47:34Z</time>
      </trkpt>
      <trkpt lat="52.98160401172936" lon="-3.185255974531174">
        <ele>116.94</ele>
        <time>2026-07-10T16:47:35Z</time>
      </trkpt>
      <trkpt lat="52.981464033946395" lon="-3.185115996748209">
        <ele>116.45999999999999</ele>
        <time>2026-07-10T16:47:36Z</time>
      </trkpt>
      <trkpt lat="52.981312992051244" lon="-3.184979958459735">
        <ele>116.45999999999999</ele>
        <time>2026-07-10T16:47:37Z</time>
      </trkpt>
      <trkpt lat="52.980070961639285" lon="-3.184019979089499">
        <ele>112.61</ele>
        <time>2026-07-10T16:47:45Z</time>
      </trkpt>
      <trkpt lat="52.978643020614982" lon="-3.182880962267518">
        <ele>106.36</ele>
        <time>2026-07-10T16:47:55Z</time>
      </trkpt>
      <trkpt lat="52.977626966312528" lon="-3.182070013135672">
        <ele>103.95999999999999</ele>
        <time>2026-07-10T16:48:02Z</time>
      </trkpt>
      <trkpt lat="52.977483971044421" lon="-3.181956019252539">
        <ele>103</ele>
        <time>2026-07-10T16:48:03Z</time>
      </trkpt>
      <trkpt lat="52.975756963714957" lon="-3.180834017693996">
        <ele>96.75</ele>
        <time>2026-07-10T16:48:15Z</time>
      </trkpt>
      <trkpt lat="52.97395502217114" lon="-3.180044023320079">
        <ele>93.870000000000005</ele>
        <time>2026-07-10T16:48:27Z</time>
      </trkpt>
      <trkpt lat="52.973294025287032" lon="-3.17987596616149">
        <ele>94.829999999999998</ele>
        <time>2026-07-10T16:48:33Z</time>
      </trkpt>
      <trkpt lat="52.972300015389919" lon="-3.179368022829294">
        <ele>96.75</ele>
        <time>2026-07-10T16:48:44Z</time>
      </trkpt>
      <trkpt lat="52.97131204046309" lon="-3.178569981828332">
        <ele>94.829999999999998</ele>
        <time>2026-07-10T16:48:55Z</time>
      </trkpt>
      <trkpt lat="52.970581976696849" lon="-3.177645038813353">
        <ele>96.269999999999996</ele>
        <time>2026-07-10T16:49:04Z</time>
      </trkpt>
      <trkpt lat="52.970506958663464" lon="-3.17753397859633">
        <ele>96.269999999999996</ele>
        <time>2026-07-10T16:49:05Z</time>
      </trkpt>
      <trkpt lat="52.970445016399026" lon="-3.177441023290157">
        <ele>96.75</ele>
        <time>2026-07-10T16:49:06Z</time>
      </trkpt>
      <trkpt lat="52.969911005347967" lon="-3.176391022279859">
        <ele>97.230000000000004</ele>
        <time>2026-07-10T16:49:17Z</time>
      </trkpt>
      <trkpt lat="52.969753006473184" lon="-3.175967987626791">
        <ele>97.709999999999994</ele>
        <time>2026-07-10T16:49:21Z</time>
      </trkpt>
      <trkpt lat="52.969670025631785" lon="-3.175744023174048">
        <ele>98.189999999999998</ele>
        <time>2026-07-10T16:49:23Z</time>
      </trkpt>
      <trkpt lat="52.969365008175373" lon="-3.174265958368778">
        <ele>98.670000000000002</ele>
        <time>2026-07-10T16:49:35Z</time>
      </trkpt>
      <trkpt lat="52.969218995422125" lon="-3.173246970400214">
        <ele>98.189999999999998</ele>
        <time>2026-07-10T16:49:44Z</time>
      </trkpt>
      <trkpt lat="52.969203991815448" lon="-3.173136999830604">
        <ele>98.189999999999998</ele>
        <time>2026-07-10T16:49:45Z</time>
      </trkpt>
      <trkpt lat="52.969174990430474" lon="-3.172924015671015">
        <ele>97.709999999999994</ele>
        <time>2026-07-10T16:49:47Z</time>
      </trkpt>
      <trkpt lat="52.969159986823797" lon="-3.172813039273024">
        <ele>97.709999999999994</ele>
        <time>2026-07-10T16:49:48Z</time>
      </trkpt>
      <trkpt lat="52.969068959355354" lon="-3.172056991606951">
        <ele>96.75</ele>
        <time>2026-07-10T16:49:55Z</time>
      </trkpt>
      <trkpt lat="52.96905898489058" lon="-3.171966969966888">
        <ele>96.75</ele>
        <time>2026-07-10T16:49:56Z</time>
      </trkpt>
      <trkpt lat="52.969051022082567" lon="-3.171891029924154">
        <ele>96.269999999999996</ele>
        <time>2026-07-10T16:49:57Z</time>
      </trkpt>
      <trkpt lat="52.96901598572731" lon="-3.171566985547543">
        <ele>96.75</ele>
        <time>2026-07-10T16:50:01Z</time>
      </trkpt>
      <trkpt lat="52.968974998220801" lon="-3.171143028885126">
        <ele>96.75</ele>
        <time>2026-07-10T16:50:09Z</time>
      </trkpt>
      <trkpt lat="52.96897198073566" lon="-3.171112015843391">
        <ele>96.269999999999996</ele>
        <time>2026-07-10T16:50:19Z</time>
      </trkpt>
      <trkpt lat="52.968970974907279" lon="-3.171091983094811">
        <ele>96.269999999999996</ele>
        <time>2026-07-10T16:50:53Z</time>
      </trkpt>
      <trkpt lat="52.968958988785744" lon="-3.17095996811986">
        <ele>97.709999999999994</ele>
        <time>2026-07-10T16:51:05Z</time>
      </trkpt>
      <trkpt lat="52.968953959643841" lon="-3.170899031683803">
        <ele>95.790000000000006</ele>
        <time>2026-07-10T16:51:25Z</time>
      </trkpt>
      <trkpt lat="52.968895034864545" lon="-3.170189000666142">
        <ele>91.459999999999994</ele>
        <time>2026-07-10T16:51:35Z</time>
      </trkpt>
      <trkpt lat="52.968883970752358" lon="-3.170093027874827">
        <ele>90.980000000000004</ele>
        <time>2026-07-10T16:51:36Z</time>
      </trkpt>
      <trkpt lat="52.968872990459204" lon="-3.169993031769991">
        <ele>90.980000000000004</ele>
        <time>2026-07-10T16:51:37Z</time>
      </trkpt>
      <trkpt lat="52.968858992680907" lon="-3.169708969071508">
        <ele>90.5</ele>
        <time>2026-07-10T16:51:40Z</time>
      </trkpt>
      <trkpt lat="52.968852035701275" lon="-3.169630011543632">
        <ele>90.019999999999996</ele>
        <time>2026-07-10T16:51:41Z</time>
      </trkpt>
      <trkpt lat="52.968836026266217" lon="-3.169452985748649">
        <ele>90.019999999999996</ele>
        <time>2026-07-10T16:51:43Z</time>
      </trkpt>
      <trkpt lat="52.968825967982411" lon="-3.169350977987051">
        <ele>90.019999999999996</ele>
        <time>2026-07-10T16:51:44Z</time>
      </trkpt>
      <trkpt lat="52.968806019052863" lon="-3.169131958857179">
        <ele>90.019999999999996</ele>
        <time>2026-07-10T16:51:46Z</time>
      </trkpt>
      <trkpt lat="52.968795960769057" lon="-3.169022994115949">
        <ele>90.019999999999996</ele>
        <time>2026-07-10T16:51:47Z</time>
      </trkpt>
      <trkpt lat="52.968764025717974" lon="-3.16863801330328">
        <ele>90.019999999999996</ele>
        <time>2026-07-10T16:51:51Z</time>
      </trkpt>
      <trkpt lat="52.968755979090929" lon="-3.168541034683585">
        <ele>90.019999999999996</ele>
        <time>2026-07-10T16:51:52Z</time>
      </trkpt>
      <trkpt lat="52.968736030161381" lon="-3.168267030268908">
        <ele>90.019999999999996</ele>
        <time>2026-07-10T16:51:55Z</time>
      </trkpt>
      <trkpt lat="52.96871398575604" lon="-3.167967963963747">
        <ele>90.019999999999996</ele>
        <time>2026-07-10T16:52:00Z</time>
      </trkpt>
      <trkpt lat="52.968711974099278" lon="-3.167941980063915">
        <ele>90.5</ele>
        <time>2026-07-10T16:52:01Z</time>
      </trkpt>
      <trkpt lat="52.968813981860876" lon="-3.167889006435871">
        <ele>90.980000000000004</ele>
        <time>2026-07-10T16:52:05Z</time>
      </trkpt>
      <trkpt lat="52.96910097822547" lon="-3.167646015062928">
        <ele>93.870000000000005</ele>
        <time>2026-07-10T16:52:14Z</time>
      </trkpt>
      <trkpt lat="52.96910097822547" lon="-3.167646015062928">
        <ele>93.870000000000005</ele>
        <time>2026-07-10T16:52:15Z</time>
      </trkpt>
      <trkpt lat="52.96910097822547" lon="-3.167646015062928">
        <ele>93.870000000000005</ele>
        <time>2026-07-10T16:52:22Z</time>
      </trkpt>
      <trkpt lat="52.969024032354355" lon="-3.16799302585423">
        <ele>94.829999999999998</ele>
        <time>2026-07-10T16:52:32Z</time>
      </trkpt>
      <trkpt lat="52.968865027651191" lon="-3.167969975620508">
        <ele>93.870000000000005</ele>
        <time>2026-07-10T16:52:41Z</time>
      </trkpt>
      <trkpt lat="52.968849018216133" lon="-3.1679099611938">
        <ele>93.390000000000001</ele>
        <time>2026-07-10T16:52:50Z</time>
      </trkpt>
      <trkpt lat="52.968877013772726" lon="-3.167816000059247">
        <ele>92.420000000000002</ele>
        <time>2026-07-10T16:53:04Z</time>
      </trkpt>
      <trkpt lat="52.968812976032495" lon="-3.167866040021181">
        <ele>93.870000000000005</ele>
        <time>2026-07-10T17:35:13Z</time>
      </trkpt>
      <trkpt lat="52.968751033768058" lon="-3.167875008657575">
        <ele>95.310000000000002</ele>
        <time>2026-07-10T17:35:40Z</time>
      </trkpt>
      <trkpt lat="52.968706022948027" lon="-3.16786696203053">
        <ele>95.790000000000006</ele>
        <time>2026-07-10T17:35:42Z</time>
      </trkpt>
      <trkpt lat="52.968703005462885" lon="-3.16782102920115">
        <ele>95.790000000000006</ele>
        <time>2026-07-10T17:35:43Z</time>
      </trkpt>
      <trkpt lat="52.968696970492601" lon="-3.167739976197481">
        <ele>95.790000000000006</ele>
        <time>2026-07-10T17:35:44Z</time>
      </trkpt>
      <trkpt lat="52.968608038499951" lon="-3.166501969099045">
        <ele>95.790000000000006</ele>
        <time>2026-07-10T17:35:53Z</time>
      </trkpt>
      <trkpt lat="52.968608038499951" lon="-3.166229976341128">
        <ele>95.790000000000006</ele>
        <time>2026-07-10T17:35:55Z</time>
      </trkpt>
      <trkpt lat="52.968619018793106" lon="-3.165689008310437">
        <ele>96.75</ele>
        <time>2026-07-10T17:35:59Z</time>
      </trkpt>
      <trkpt lat="52.968623964115977" lon="-3.165553975850344">
        <ele>97.709999999999994</ele>
        <time>2026-07-10T17:36:00Z</time>
      </trkpt>
      <trkpt lat="52.96862899325788" lon="-3.165153991430998">
        <ele>99.150000000000006</ele>
        <time>2026-07-10T17:36:03Z</time>
      </trkpt>
      <trkpt lat="52.968634022399783" lon="-3.165032034739852">
        <ele>99.150000000000006</ele>
        <time>2026-07-10T17:36:04Z</time>
      </trkpt>
      <trkpt lat="52.968641985207796" lon="-3.164904965087771">
        <ele>99.629999999999995</ele>
        <time>2026-07-10T17:36:05Z</time>
      </trkpt>
      <trkpt lat="52.968650031834841" lon="-3.164777979254723">
        <ele>100.11</ele>
        <time>2026-07-10T17:36:06Z</time>
      </trkpt>
      <trkpt lat="52.968668974936008" lon="-3.164660967886448">
        <ele>100.59999999999999</ele>
        <time>2026-07-10T17:36:07Z</time>
      </trkpt>
      <trkpt lat="52.96867199242115" lon="-3.16453599371016">
        <ele>101.08</ele>
        <time>2026-07-10T17:36:08Z</time>
      </trkpt>
      <trkpt lat="52.968680961057544" lon="-3.164413031190634">
        <ele>101.56</ele>
        <time>2026-07-10T17:36:09Z</time>
      </trkpt>
      <trkpt lat="52.968740975484252" lon="-3.16404196433723">
        <ele>101.56</ele>
        <time>2026-07-10T17:36:12Z</time>
      </trkpt>
      <trkpt lat="52.968761008232832" lon="-3.163917995989323">
        <ele>101.56</ele>
        <time>2026-07-10T17:36:13Z</time>
      </trkpt>
      <trkpt lat="52.968781040981412" lon="-3.163795033469796">
        <ele>101.08</ele>
        <time>2026-07-10T17:36:14Z</time>
      </trkpt>
      <trkpt lat="52.968997964635491" lon="-3.162156958132982">
        <ele>99.629999999999995</ele>
        <time>2026-07-10T17:36:27Z</time>
      </trkpt>
      <trkpt lat="52.96920801512897" lon="-3.160372031852603">
        <ele>96.75</ele>
        <time>2026-07-10T17:36:40Z</time>
      </trkpt>
      <trkpt lat="52.96923098154366" lon="-3.159369975328445">
        <ele>97.230000000000004</ele>
        <time>2026-07-10T17:36:47Z</time>
      </trkpt>
      <trkpt lat="52.969233999028802" lon="-3.159222034737468">
        <ele>97.230000000000004</ele>
        <time>2026-07-10T17:36:48Z</time>
      </trkpt>
      <trkpt lat="52.96925000846386" lon="-3.158478979021311">
        <ele>98.189999999999998</ele>
        <time>2026-07-10T17:36:53Z</time>
      </trkpt>
      <trkpt lat="52.969327960163355" lon="-3.156852973625064">
        <ele>98.189999999999998</ele>
        <time>2026-07-10T17:37:02Z</time>
      </trkpt>
      <trkpt lat="52.969341035932302" lon="-3.156637977808714">
        <ele>98.189999999999998</ele>
        <time>2026-07-10T17:37:03Z</time>
      </trkpt>
      <trkpt lat="52.969474978744984" lon="-3.154337983578444">
        <ele>97.709999999999994</ele>
        <time>2026-07-10T17:37:12Z</time>
      </trkpt>
      <trkpt lat="52.969519989565015" lon="-3.153547989204526">
        <ele>98.189999999999998</ele>
        <time>2026-07-10T17:37:15Z</time>
      </trkpt>
      <trkpt lat="52.9695950075984" lon="-3.152230018749833">
        <ele>100.11</ele>
        <time>2026-07-10T17:37:20Z</time>
      </trkpt>
      <trkpt lat="52.969276998192072" lon="-3.149892976507545">
        <ele>102.04000000000001</ele>
        <time>2026-07-10T17:37:29Z</time>
      </trkpt>
      <trkpt lat="52.96849999576807" lon="-3.1468749884516">
        <ele>101.08</ele>
        <time>2026-07-10T17:37:41Z</time>
      </trkpt>
      <trkpt lat="52.968152984976768" lon="-3.14477096311748">
        <ele>97.709999999999994</ele>
        <time>2026-07-10T17:37:48Z</time>
      </trkpt>
      <trkpt lat="52.96813496388495" lon="-3.143839985132217">
        <ele>95.790000000000006</ele>
        <time>2026-07-10T17:37:51Z</time>
      </trkpt>
      <trkpt lat="52.968478035181761" lon="-3.141351984813809">
        <ele>93.870000000000005</ele>
        <time>2026-07-10T17:37:59Z</time>
      </trkpt>
      <trkpt lat="52.968736030161381" lon="-3.139229016378522">
        <ele>96.75</ele>
        <time>2026-07-10T17:38:06Z</time>
      </trkpt>
      <trkpt lat="52.968729995191097" lon="-3.138941014185548">
        <ele>96.75</ele>
        <time>2026-07-10T17:38:07Z</time>
      </trkpt>
      <trkpt lat="52.968700993806124" lon="-3.138655023649335">
        <ele>96.75</ele>
        <time>2026-07-10T17:38:08Z</time>
      </trkpt>
      <trkpt lat="52.968521034345031" lon="-3.13720503821969">
        <ele>97.709999999999994</ele>
        <time>2026-07-10T17:38:13Z</time>
      </trkpt>
      <trkpt lat="52.968441992998123" lon="-3.13694997690618">
        <ele>98.189999999999998</ele>
        <time>2026-07-10T17:38:14Z</time>
      </trkpt>
      <trkpt lat="52.967519983649254" lon="-3.134694993495941">
        <ele>100.11</ele>
        <time>2026-07-10T17:38:23Z</time>
      </trkpt>
      <trkpt lat="52.967283027246594" lon="-3.134256033226848">
        <ele>99.150000000000006</ele>
        <time>2026-07-10T17:38:25Z</time>
      </trkpt>
      <trkpt lat="52.967168027535081" lon="-3.134062997996807">
        <ele>98.670000000000002</ele>
        <time>2026-07-10T17:38:26Z</time>
      </trkpt>
      <trkpt lat="52.967032995074987" lon="-3.133927965536714">
        <ele>98.670000000000002</ele>
        <time>2026-07-10T17:38:27Z</time>
      </trkpt>
      <trkpt lat="52.966885976493359" lon="-3.133814977481961">
        <ele>98.670000000000002</ele>
        <time>2026-07-10T17:38:28Z</time>
      </trkpt>
      <trkpt lat="52.966721020638943" lon="-3.133733002468944">
        <ele>98.670000000000002</ele>
        <time>2026-07-10T17:38:29Z</time>
      </trkpt>
      <trkpt lat="52.966549023985863" lon="-3.133647004142404">
        <ele>98.670000000000002</ele>
        <time>2026-07-10T17:38:30Z</time>
      </trkpt>
      <trkpt lat="52.965031983330846" lon="-3.132461970672011">
        <ele>98.670000000000002</ele>
        <time>2026-07-10T17:38:39Z</time>
      </trkpt>
      <trkpt lat="52.964900974184275" lon="-3.132262984290719">
        <ele>98.670000000000002</ele>
        <time>2026-07-10T17:38:40Z</time>
      </trkpt>
      <trkpt lat="52.964780023321509" lon="-3.132040025666356">
        <ele>98.670000000000002</ele>
        <time>2026-07-10T17:38:41Z</time>
      </trkpt>
      <trkpt lat="52.964058006182313" lon="-3.13020103611052">
        <ele>98.189999999999998</ele>
        <time>2026-07-10T17:38:48Z</time>
      </trkpt>
      <trkpt lat="52.964003020897508" lon="-3.129927031695843">
        <ele>98.189999999999998</ele>
        <time>2026-07-10T17:38:49Z</time>
      </trkpt>
      <trkpt lat="52.963948035612702" lon="-3.129655038937926">
        <ele>98.189999999999998</ele>
        <time>2026-07-10T17:38:50Z</time>
      </trkpt>
      <trkpt lat="52.963795987889171" lon="-3.128901002928615">
        <ele>97.709999999999994</ele>
        <time>2026-07-10T17:38:53Z</time>
      </trkpt>
      <trkpt lat="52.963747037574649" lon="-3.128658011555672">
        <ele>97.709999999999994</ele>
        <time>2026-07-10T17:38:54Z</time>
      </trkpt>
      <trkpt lat="52.963700015097857" lon="-3.128426000475884">
        <ele>97.709999999999994</ele>
        <time>2026-07-10T17:38:55Z</time>
      </trkpt>
      <trkpt lat="52.963357027620077" lon="-3.126966040581465">
        <ele>95.790000000000006</ele>
        <time>2026-07-10T17:39:02Z</time>
      </trkpt>
      <trkpt lat="52.96312602236867" lon="-3.126088036224246">
        <ele>94.349999999999994</ele>
        <time>2026-07-10T17:39:06Z</time>
      </trkpt>
      <trkpt lat="52.962961988523602" lon="-3.125462997704744">
        <ele>92.420000000000002</ele>
        <time>2026-07-10T17:39:09Z</time>
      </trkpt>
      <trkpt lat="52.962907003238797" lon="-3.125257976353169">
        <ele>91.939999999999998</ele>
        <time>2026-07-10T17:39:10Z</time>
      </trkpt>
      <trkpt lat="52.962852017953992" lon="-3.12504599802196">
        <ele>91.459999999999994</ele>
        <time>2026-07-10T17:39:11Z</time>
      </trkpt>
      <trkpt lat="52.962801977992058" lon="-3.124822033569217">
        <ele>90.980000000000004</ele>
        <time>2026-07-10T17:39:12Z</time>
      </trkpt>
      <trkpt lat="52.962768031284213" lon="-3.124593961983919">
        <ele>90.5</ele>
        <time>2026-07-10T17:39:13Z</time>
      </trkpt>
      <trkpt lat="52.962640039622784" lon="-3.123740013688803">
        <ele>88.579999999999998</ele>
        <time>2026-07-10T17:39:17Z</time>
      </trkpt>
      <trkpt lat="52.962542977184057" lon="-3.123120004311204">
        <ele>88.099999999999994</ele>
        <time>2026-07-10T17:39:20Z</time>
      </trkpt>
      <trkpt lat="52.962307026609778" lon="-3.121842015534639">
        <ele>84.730000000000004</ele>
        <time>2026-07-10T17:39:26Z</time>
      </trkpt>
      <trkpt lat="52.962164031341672" lon="-3.119809990748763">
        <ele>83.290000000000006</ele>
        <time>2026-07-10T17:39:35Z</time>
      </trkpt>
      <trkpt lat="52.961867982521653" lon="-3.117542015388608">
        <ele>85.209999999999994</ele>
        <time>2026-07-10T17:39:45Z</time>
      </trkpt>
      <trkpt lat="52.961824983358383" lon="-3.117320984601975">
        <ele>85.209999999999994</ele>
        <time>2026-07-10T17:39:46Z</time>
      </trkpt>
      <trkpt lat="52.96177301555872" lon="-3.117111017927527">
        <ele>85.209999999999994</ele>
        <time>2026-07-10T17:39:47Z</time>
      </trkpt>
      <trkpt lat="52.961663966998458" lon="-3.116674991324544">
        <ele>84.730000000000004</ele>
        <time>2026-07-10T17:39:49Z</time>
      </trkpt>
      <trkpt lat="52.961335983127356" lon="-3.115301029756665">
        <ele>85.209999999999994</ele>
        <time>2026-07-10T17:39:55Z</time>
      </trkpt>
      <trkpt lat="52.961297007277608" lon="-3.115056026726961">
        <ele>85.209999999999994</ele>
        <time>2026-07-10T17:39:56Z</time>
      </trkpt>
      <trkpt lat="52.961218971759081" lon="-3.114569960162044">
        <ele>85.209999999999994</ele>
        <time>2026-07-10T17:39:58Z</time>
      </trkpt>
      <trkpt lat="52.961050998419523" lon="-3.112607002258301">
        <ele>83.769999999999996</ele>
        <time>2026-07-10T17:40:06Z</time>
      </trkpt>
      <trkpt lat="52.961037000641227" lon="-3.112101992592216">
        <ele>83.290000000000006</ele>
        <time>2026-07-10T17:40:08Z</time>
      </trkpt>
      <trkpt lat="52.961016967892647" lon="-3.111834023147821">
        <ele>82.810000000000002</ele>
        <time>2026-07-10T17:40:09Z</time>
      </trkpt>
      <trkpt lat="52.960986960679293" lon="-3.111589020118117">
        <ele>82.329999999999998</ele>
        <time>2026-07-10T17:40:10Z</time>
      </trkpt>
      <trkpt lat="52.960957959294319" lon="-3.111348040401936">
        <ele>81.370000000000005</ele>
        <time>2026-07-10T17:40:11Z</time>
      </trkpt>
      <trkpt lat="52.960927030071616" lon="-3.111093984916806">
        <ele>80.890000000000001</ele>
        <time>2026-07-10T17:40:12Z</time>
      </trkpt>
      <trkpt lat="52.960903979837894" lon="-3.110839007422328">
        <ele>80.409999999999997</ele>
        <time>2026-07-10T17:40:13Z</time>
      </trkpt>
      <trkpt lat="52.960903979837894" lon="-3.110575983300805">
        <ele>80.409999999999997</ele>
        <time>2026-07-10T17:40:14Z</time>
      </trkpt>
      <trkpt lat="52.960903979837894" lon="-3.110069967806339">
        <ele>79.450000000000003</ele>
        <time>2026-07-10T17:40:16Z</time>
      </trkpt>
      <trkpt lat="52.960844971239567" lon="-3.108109021559358">
        <ele>80.409999999999997</ele>
        <time>2026-07-10T17:40:24Z</time>
      </trkpt>
      <trkpt lat="52.960767019540071" lon="-3.105653962120414">
        <ele>87.140000000000001</ele>
        <time>2026-07-10T17:40:34Z</time>
      </trkpt>
      <trkpt lat="52.960813958197832" lon="-3.103476008400321">
        <ele>91.459999999999994</ele>
        <time>2026-07-10T17:40:43Z</time>
      </trkpt>
      <trkpt lat="52.960952008143067" lon="-3.101472984999418">
        <ele>94.349999999999994</ele>
        <time>2026-07-10T17:40:51Z</time>
      </trkpt>
      <trkpt lat="52.961402032524347" lon="-3.098249975591898">
        <ele>103.95999999999999</ele>
        <time>2026-07-10T17:41:04Z</time>
      </trkpt>
      <trkpt lat="52.96198801137507" lon="-3.095662984997034">
        <ele>108.29000000000001</ele>
        <time>2026-07-10T17:41:14Z</time>
      </trkpt>
      <trkpt lat="52.962958971038461" lon="-3.09245296753943">
        <ele>110.69</ele>
        <time>2026-07-10T17:41:27Z</time>
      </trkpt>
      <trkpt lat="52.963762041181326" lon="-3.089779978618026">
        <ele>109.73</ele>
        <time>2026-07-10T17:41:38Z</time>
      </trkpt>
      <trkpt lat="52.96383798122406" lon="-3.089137002825737">
        <ele>109.25</ele>
        <time>2026-07-10T17:41:41Z</time>
      </trkpt>
      <trkpt lat="52.963862959295511" lon="-3.08858597651124">
        <ele>108.77</ele>
        <time>2026-07-10T17:41:44Z</time>
      </trkpt>
      <trkpt lat="52.963878968730569" lon="-3.08824198320508">
        <ele>108.29000000000001</ele>
        <time>2026-07-10T17:41:46Z</time>
      </trkpt>
      <trkpt lat="52.963868994265795" lon="-3.087744014337659">
        <ele>106.84</ele>
        <time>2026-07-10T17:41:49Z</time>
      </trkpt>
      <trkpt lat="52.96355701982975" lon="-3.086172994226217">
        <ele>109.25</ele>
        <time>2026-07-10T17:42:00Z</time>
      </trkpt>
      <trkpt lat="52.963525000959635" lon="-3.08604802004993">
        <ele>109.25</ele>
        <time>2026-07-10T17:42:01Z</time>
      </trkpt>
      <trkpt lat="52.963351998478174" lon="-3.085365984588862">
        <ele>109.25</ele>
        <time>2026-07-10T17:42:06Z</time>
      </trkpt>
      <trkpt lat="52.963069025427103" lon="-3.084028987213969">
        <ele>112.13</ele>
        <time>2026-07-10T17:42:16Z</time>
      </trkpt>
      <trkpt lat="52.963043041527271" lon="-3.083904013037682">
        <ele>112.13</ele>
        <time>2026-07-10T17:42:17Z</time>
      </trkpt>
      <trkpt lat="52.963016973808408" lon="-3.083778033033013">
        <ele>112.13</ele>
        <time>2026-07-10T17:42:18Z</time>
      </trkpt>
      <trkpt lat="52.962679015472531" lon="-3.082154961302877">
        <ele>111.17</ele>
        <time>2026-07-10T17:42:29Z</time>
      </trkpt>
      <trkpt lat="52.962673986330628" lon="-3.081347029656172">
        <ele>111.17</ele>
        <time>2026-07-10T17:42:35Z</time>
      </trkpt>
      <trkpt lat="52.962707011029124" lon="-3.080257968977094">
        <ele>111.65000000000001</ele>
        <time>2026-07-10T17:42:42Z</time>
      </trkpt>
      <trkpt lat="52.962646996602416" lon="-3.079551961272955">
        <ele>111.17</ele>
        <time>2026-07-10T17:42:45Z</time>
      </trkpt>
      <trkpt lat="52.962597962468863" lon="-3.079295977950096">
        <ele>110.69</ele>
        <time>2026-07-10T17:42:46Z</time>
      </trkpt>
      <trkpt lat="52.96254800632596" lon="-3.079031025990844">
        <ele>110.69</ele>
        <time>2026-07-10T17:42:47Z</time>
      </trkpt>
      <trkpt lat="52.96246200799942" lon="-3.078780993819237">
        <ele>110.69</ele>
        <time>2026-07-10T17:42:48Z</time>
      </trkpt>
      <trkpt lat="52.962362011894584" lon="-3.078535990789533">
        <ele>111.17</ele>
        <time>2026-07-10T17:42:49Z</time>
      </trkpt>
      <trkpt lat="52.962255980819464" lon="-3.078274978324771">
        <ele>111.17</ele>
        <time>2026-07-10T17:42:50Z</time>
      </trkpt>
      <trkpt lat="52.962137963622808" lon="-3.078050008043647">
        <ele>111.65000000000001</ele>
        <time>2026-07-10T17:42:51Z</time>
      </trkpt>
      <trkpt lat="52.962003014981747" lon="-3.077826965600252">
        <ele>112.13</ele>
        <time>2026-07-10T17:42:52Z</time>
      </trkpt>
      <trkpt lat="52.961845016106963" lon="-3.077662009745836">
        <ele>112.61</ele>
        <time>2026-07-10T17:42:53Z</time>
      </trkpt>
      <trkpt lat="52.961685005575418" lon="-3.077495964244008">
        <ele>113.09</ele>
        <time>2026-07-10T17:42:54Z</time>
      </trkpt>
      <trkpt lat="52.960454039275646" lon="-3.075911030173302">
        <ele>116.94</ele>
        <time>2026-07-10T17:43:03Z</time>
      </trkpt>
      <trkpt lat="52.95934896916151" lon="-3.073871964588761">
        <ele>120.78</ele>
        <time>2026-07-10T17:43:14Z</time>
      </trkpt>
      <trkpt lat="52.958206012845039" lon="-3.071363009512425">
        <ele>118.86</ele>
        <time>2026-07-10T17:43:26Z</time>
      </trkpt>
      <trkpt lat="52.956893993541598" lon="-3.068755986168981">
        <ele>115.01000000000001</ele>
        <time>2026-07-10T17:43:39Z</time>
      </trkpt>
      <trkpt lat="52.955573005601764" lon="-3.066484993323684">
        <ele>110.69</ele>
        <time>2026-07-10T17:43:49Z</time>
      </trkpt>
      <trkpt lat="52.954311026260257" lon="-3.064668970182538">
        <ele>107.31999999999999</ele>
        <time>2026-07-10T17:43:58Z</time>
      </trkpt>
      <trkpt lat="52.952967993915081" lon="-3.063171962276101">
        <ele>105.88</ele>
        <time>2026-07-10T17:44:07Z</time>
      </trkpt>
      <trkpt lat="52.951604006811976" lon="-3.061824990436435">
        <ele>98.189999999999998</ele>
        <time>2026-07-10T17:44:16Z</time>
      </trkpt>
      <trkpt lat="52.950812000781298" lon="-3.06063299998641">
        <ele>94.349999999999994</ele>
        <time>2026-07-10T17:44:23Z</time>
      </trkpt>
      <trkpt lat="52.950756009668112" lon="-3.060510959476233">
        <ele>94.349999999999994</ele>
        <time>2026-07-10T17:44:24Z</time>
      </trkpt>
      <trkpt lat="52.950718961656094" lon="-3.060432001948357">
        <ele>93.870000000000005</ele>
        <time>2026-07-10T17:44:25Z</time>
      </trkpt>
      <trkpt lat="52.950700018554926" lon="-3.060389002785087">
        <ele>93.390000000000001</ele>
        <time>2026-07-10T17:44:26Z</time>
      </trkpt>
      <trkpt lat="52.95068702660501" lon="-3.060362013056874">
        <ele>93.390000000000001</ele>
        <time>2026-07-10T17:44:27Z</time>
      </trkpt>
      <trkpt lat="52.950672022998333" lon="-3.060327982529998">
        <ele>93.390000000000001</ele>
        <time>2026-07-10T17:44:28Z</time>
      </trkpt>
      <trkpt lat="52.95068996027112" lon="-3.060099994763732">
        <ele>93.390000000000001</ele>
        <time>2026-07-10T17:44:30Z</time>
      </trkpt>
      <trkpt lat="52.950669005513191" lon="-3.059993041679263">
        <ele>93.390000000000001</ele>
        <time>2026-07-10T17:44:31Z</time>
      </trkpt>
      <trkpt lat="52.950493991374969" lon="-3.05904102511704">
        <ele>93.390000000000001</ele>
        <time>2026-07-10T17:44:37Z</time>
      </trkpt>
      <trkpt lat="52.950487034395337" lon="-3.05766899138689">
        <ele>95.310000000000002</ele>
        <time>2026-07-10T17:44:44Z</time>
      </trkpt>
      <trkpt lat="52.95079599134624" lon="-3.055384000763297">
        <ele>100.11</ele>
        <time>2026-07-10T17:44:53Z</time>
      </trkpt>
      <trkpt lat="52.951141996309161" lon="-3.052631970494986">
        <ele>105.40000000000001</ele>
        <time>2026-07-10T17:45:03Z</time>
      </trkpt>
      <trkpt lat="52.951210979372263" lon="-3.048537997528911">
        <ele>117.42</ele>
        <time>2026-07-10T17:45:18Z</time>
      </trkpt>
      <trkpt lat="52.951266970485449" lon="-3.046370018273592">
        <ele>122.70999999999999</ele>
        <time>2026-07-10T17:45:26Z</time>
      </trkpt>
      <trkpt lat="52.951291026547551" lon="-3.04512295871973">
        <ele>127.98999999999999</ele>
        <time>2026-07-10T17:45:33Z</time>
      </trkpt>
      <trkpt lat="52.951342994347215" lon="-3.044949034228921">
        <ele>131.36000000000001</ele>
        <time>2026-07-10T17:45:40Z</time>
      </trkpt>
      <trkpt lat="52.951379036530852" lon="-3.044829005375505">
        <ele>132.80000000000001</ele>
        <time>2026-07-10T17:45:43Z</time>
      </trkpt>
      <trkpt lat="52.951408037915826" lon="-3.044734038412571">
        <ele>133.28</ele>
        <time>2026-07-10T17:45:44Z</time>
      </trkpt>
      <trkpt lat="52.95148397795856" lon="-3.044521976262331">
        <ele>133.28</ele>
        <time>2026-07-10T17:45:46Z</time>
      </trkpt>
      <trkpt lat="52.951471991837025" lon="-3.044370012357831">
        <ele>133.28</ele>
        <time>2026-07-10T17:45:47Z</time>
      </trkpt>
      <trkpt lat="52.951446007937193" lon="-3.044231040403247">
        <ele>133.28</ele>
        <time>2026-07-10T17:45:48Z</time>
      </trkpt>
      <trkpt lat="52.951420024037361" lon="-3.044178988784552">
        <ele>133.28</ele>
        <time>2026-07-10T17:45:49Z</time>
      </trkpt>
      <trkpt lat="52.951306030154228" lon="-3.044164991006255">
        <ele>133.28</ele>
        <time>2026-07-10T17:45:50Z</time>
      </trkpt>
      <trkpt lat="52.951237969100475" lon="-3.044167002663016">
        <ele>132.80000000000001</ele>
        <time>2026-07-10T17:45:51Z</time>
      </trkpt>
      <trkpt lat="52.951148031279445" lon="-3.044231040403247">
        <ele>133.28</ele>
        <time>2026-07-10T17:45:52Z</time>
      </trkpt>
      <trkpt lat="52.951058009639382" lon="-3.044255012646318">
        <ele>133.28</ele>
        <time>2026-07-10T17:45:53Z</time>
      </trkpt>
      <trkpt lat="52.950960025191307" lon="-3.044279990717769">
        <ele>133.28</ele>
        <time>2026-07-10T17:45:54Z</time>
      </trkpt>
      <trkpt lat="52.950856005772948" lon="-3.044307986274362">
        <ele>133.75999999999999</ele>
        <time>2026-07-10T17:45:55Z</time>
      </trkpt>
      <trkpt lat="52.950740000233054" lon="-3.044320978224278">
        <ele>133.75999999999999</ele>
        <time>2026-07-10T17:45:56Z</time>
      </trkpt>
      <trkpt lat="52.949582040309906" lon="-3.044101959094405">
        <ele>134.24000000000001</ele>
        <time>2026-07-10T17:46:04Z</time>
      </trkpt>
      <trkpt lat="52.947628973051906" lon="-3.043855028226972">
        <ele>131.36000000000001</ele>
        <time>2026-07-10T17:46:14Z</time>
      </trkpt>
      <trkpt lat="52.945209033787251" lon="-3.043639026582241">
        <ele>131.36000000000001</ele>
        <time>2026-07-10T17:46:25Z</time>
      </trkpt>
      <trkpt lat="52.942693959921598" lon="-3.04357398301363">
        <ele>129.91999999999999</ele>
        <time>2026-07-10T17:46:36Z</time>
      </trkpt>
      <trkpt lat="52.940088026225567" lon="-3.043641960248351">
        <ele>125.59</ele>
        <time>2026-07-10T17:46:47Z</time>
      </trkpt>
      <trkpt lat="52.937464993447065" lon="-3.043679008260369">
        <ele>121.73999999999999</ele>
        <time>2026-07-10T17:46:58Z</time>
      </trkpt>
      <trkpt lat="52.935324003919959" lon="-3.043564008548856">
        <ele>113.56999999999999</ele>
        <time>2026-07-10T17:47:07Z</time>
      </trkpt>
      <trkpt lat="52.932961983606219" lon="-3.043376002460718">
        <ele>103.48</ele>
        <time>2026-07-10T17:47:17Z</time>
      </trkpt>
      <trkpt lat="52.930141976103187" lon="-3.042994039133191">
        <ele>95.790000000000006</ele>
        <time>2026-07-10T17:47:29Z</time>
      </trkpt>
      <trkpt lat="52.926398031413555" lon="-3.042505960911512">
        <ele>100.11</ele>
        <time>2026-07-10T17:47:45Z</time>
      </trkpt>
      <trkpt lat="52.924680998548865" lon="-3.042328013107181">
        <ele>103</ele>
        <time>2026-07-10T17:47:53Z</time>
      </trkpt>
      <trkpt lat="52.924502966925502" lon="-3.042321978136897">
        <ele>103</ele>
        <time>2026-07-10T17:47:54Z</time>
      </trkpt>
      <trkpt lat="52.92252098210156" lon="-3.042293982580304">
        <ele>104.44</ele>
        <time>2026-07-10T17:48:05Z</time>
      </trkpt>
      <trkpt lat="52.920962031930685" lon="-3.042367994785309">
        <ele>107.31999999999999</ele>
        <time>2026-07-10T17:48:14Z</time>
      </trkpt>
      <trkpt lat="52.919824020937085" lon="-3.04279999807477">
        <ele>107.81</ele>
        <time>2026-07-10T17:48:23Z</time>
      </trkpt>
      <trkpt lat="52.919736010953784" lon="-3.04279999807477">
        <ele>107.81</ele>
        <time>2026-07-10T17:48:24Z</time>
      </trkpt>
      <trkpt lat="52.919656969606876" lon="-3.042793963104487">
        <ele>107.81</ele>
        <time>2026-07-10T17:48:25Z</time>
      </trkpt>
      <trkpt lat="52.919579017907381" lon="-3.042789017781615">
        <ele>107.81</ele>
        <time>2026-07-10T17:48:26Z</time>
      </trkpt>
      <trkpt lat="52.919468963518739" lon="-3.042676029726863">
        <ele>107.81</ele>
        <time>2026-07-10T17:48:27Z</time>
      </trkpt>
      <trkpt lat="52.919415989890695" lon="-3.042646022513509">
        <ele>108.29000000000001</ele>
        <time>2026-07-10T17:48:28Z</time>
      </trkpt>
      <trkpt lat="52.919338038191199" lon="-3.042601011693478">
        <ele>108.29000000000001</ele>
        <time>2026-07-10T17:48:29Z</time>
      </trkpt>
      <trkpt lat="52.919251034036279" lon="-3.042620038613677">
        <ele>108.29000000000001</ele>
        <time>2026-07-10T17:48:30Z</time>
      </trkpt>
      <trkpt lat="52.919168975204229" lon="-3.042654991149902">
        <ele>107.81</ele>
        <time>2026-07-10T17:48:31Z</time>
      </trkpt>
      <trkpt lat="52.919092029333115" lon="-3.042749036103487">
        <ele>107.31999999999999</ele>
        <time>2026-07-10T17:48:32Z</time>
      </trkpt>
      <trkpt lat="52.918519964441657" lon="-3.04301499389112">
        <ele>105.40000000000001</ele>
        <time>2026-07-10T17:48:37Z</time>
      </trkpt>
      <trkpt lat="52.917187996208668" lon="-3.043074002489448">
        <ele>102.52</ele>
        <time>2026-07-10T17:48:45Z</time>
      </trkpt>
      <trkpt lat="52.915018005296588" lon="-3.042700001969934">
        <ele>104.92</ele>
        <time>2026-07-10T17:48:57Z</time>
      </trkpt>
      <trkpt lat="52.91267903521657" lon="-3.042294988408685">
        <ele>106.36</ele>
        <time>2026-07-10T17:49:09Z</time>
      </trkpt>
      <trkpt lat="52.910884972661734" lon="-3.042145036160946">
        <ele>108.77</ele>
        <time>2026-07-10T17:49:17Z</time>
      </trkpt>
      <trkpt lat="52.909127036109567" lon="-3.042376041412354">
        <ele>110.20999999999999</ele>
        <time>2026-07-10T17:49:25Z</time>
      </trkpt>
      <trkpt lat="52.906985962763429" lon="-3.042711988091469">
        <ele>111.17</ele>
        <time>2026-07-10T17:49:37Z</time>
      </trkpt>
      <trkpt lat="52.904877997934818" lon="-3.043025974184275">
        <ele>110.20999999999999</ele>
        <time>2026-07-10T17:49:48Z</time>
      </trkpt>
      <trkpt lat="52.902655033394694" lon="-3.043394023552537">
        <ele>111.65000000000001</ele>
        <time>2026-07-10T17:50:00Z</time>
      </trkpt>
      <trkpt lat="52.900425028055906" lon="-3.043711027130485">
        <ele>118.38</ele>
        <time>2026-07-10T17:50:13Z</time>
      </trkpt>
      <trkpt lat="52.898719981312752" lon="-3.043937003239989">
        <ele>117.90000000000001</ele>
        <time>2026-07-10T17:50:23Z</time>
      </trkpt>
      <trkpt lat="52.898164009675384" lon="-3.043900039047003">
        <ele>117.42</ele>
        <time>2026-07-10T17:50:26Z</time>
      </trkpt>
      <trkpt lat="52.896529035642743" lon="-3.043362004682422">
        <ele>119.34</ele>
        <time>2026-07-10T17:50:35Z</time>
      </trkpt>
      <trkpt lat="52.894522994756699" lon="-3.042477965354919">
        <ele>119.34</ele>
        <time>2026-07-10T17:50:46Z</time>
      </trkpt>
      <trkpt lat="52.892161980271339" lon="-3.041412038728595">
        <ele>117.42</ele>
        <time>2026-07-10T17:50:58Z</time>
      </trkpt>
      <trkpt lat="52.890531029552221" lon="-3.040796974673867">
        <ele>118.38</ele>
        <time>2026-07-10T17:51:06Z</time>
      </trkpt>
      <trkpt lat="52.889482034370303" lon="-3.040611986070871">
        <ele>118.86</ele>
        <time>2026-07-10T17:51:11Z</time>
      </trkpt>
      <trkpt lat="52.887295028194785" lon="-3.04065297357738">
        <ele>120.78</ele>
        <time>2026-07-10T17:51:22Z</time>
      </trkpt>
      <trkpt lat="52.884400002658367" lon="-3.040784988552332">
        <ele>124.15000000000001</ele>
        <time>2026-07-10T17:51:36Z</time>
      </trkpt>
      <trkpt lat="52.883213041350245" lon="-3.040653979405761">
        <ele>124.15000000000001</ele>
        <time>2026-07-10T17:51:43Z</time>
      </trkpt>
      <trkpt lat="52.88303098641336" lon="-3.040567981079221">
        <ele>123.67</ele>
        <time>2026-07-10T17:51:45Z</time>
      </trkpt>
      <trkpt lat="52.8829650208354" lon="-3.040517019107938">
        <ele>123.67</ele>
        <time>2026-07-10T17:51:46Z</time>
      </trkpt>
      <trkpt lat="52.882904000580311" lon="-3.040455998852849">
        <ele>123.67</ele>
        <time>2026-07-10T17:51:47Z</time>
      </trkpt>
      <trkpt lat="52.88277299143374" lon="-3.040083004161716">
        <ele>123.67</ele>
        <time>2026-07-10T17:51:50Z</time>
      </trkpt>
      <trkpt lat="52.882691016420722" lon="-3.039950989186764">
        <ele>123.67</ele>
        <time>2026-07-10T17:51:51Z</time>
      </trkpt>
      <trkpt lat="52.882590014487505" lon="-3.039953000843525">
        <ele>124.15000000000001</ele>
        <time>2026-07-10T17:51:52Z</time>
      </trkpt>
      <trkpt lat="52.882476020604372" lon="-3.040036987513304">
        <ele>124.63</ele>
        <time>2026-07-10T17:51:53Z</time>
      </trkpt>
      <trkpt lat="52.882410977035761" lon="-3.040075041353703">
        <ele>124.63</ele>
        <time>2026-07-10T17:51:54Z</time>
      </trkpt>
      <trkpt lat="52.882316010072827" lon="-3.040130026638508">
        <ele>124.63</ele>
        <time>2026-07-10T17:51:55Z</time>
      </trkpt>
      <trkpt lat="52.882219031453133" lon="-3.040187023580074">
        <ele>124.63</ele>
        <time>2026-07-10T17:51:56Z</time>
      </trkpt>
      <trkpt lat="52.882116017863154" lon="-3.040187023580074">
        <ele>125.11</ele>
        <time>2026-07-10T17:51:57Z</time>
      </trkpt>
      <trkpt lat="52.882014010101557" lon="-3.040187023580074">
        <ele>125.59</ele>
        <time>2026-07-10T17:51:58Z</time>
      </trkpt>
      <trkpt lat="52.881907979026437" lon="-3.040187023580074">
        <ele>125.59</ele>
        <time>2026-07-10T17:51:59Z</time>
      </trkpt>
      <trkpt lat="52.881800020113587" lon="-3.040187023580074">
        <ele>125.11</ele>
        <time>2026-07-10T17:52:00Z</time>
      </trkpt>
      <trkpt lat="52.88058103993535" lon="-3.039916036650538">
        <ele>125.11</ele>
        <time>2026-07-10T17:52:09Z</time>
      </trkpt>
      <trkpt lat="52.878480032086372" lon="-3.039345983415842">
        <ele>123.67</ele>
        <time>2026-07-10T17:52:21Z</time>
      </trkpt>
      <trkpt lat="52.876366032287478" lon="-3.038811972364783">
        <ele>127.03</ele>
        <time>2026-07-10T17:52:32Z</time>
      </trkpt>
      <trkpt lat="52.874005017802119" lon="-3.038153992965818">
        <ele>128.47</ele>
        <time>2026-07-10T17:52:43Z</time>
      </trkpt>
      <trkpt lat="52.871985984966159" lon="-3.037151014432311">
        <ele>127.03</ele>
        <time>2026-07-10T17:52:52Z</time>
      </trkpt>
      <trkpt lat="52.870904970914125" lon="-3.036254988983274">
        <ele>126.06999999999999</ele>
        <time>2026-07-10T17:52:58Z</time>
      </trkpt>
      <trkpt lat="52.870035013183951" lon="-3.03543196991086">
        <ele>125.59</ele>
        <time>2026-07-10T17:53:05Z</time>
      </trkpt>
      <trkpt lat="52.869714992120862" lon="-3.03512703627348">
        <ele>125.11</ele>
        <time>2026-07-10T17:53:08Z</time>
      </trkpt>
      <trkpt lat="52.869629999622703" lon="-3.034999966621399">
        <ele>124.63</ele>
        <time>2026-07-10T17:53:09Z</time>
      </trkpt>
      <trkpt lat="52.869568979367614" lon="-3.034860994666815">
        <ele>124.63</ele>
        <time>2026-07-10T17:53:10Z</time>
      </trkpt>
      <trkpt lat="52.869509970769286" lon="-3.034729985520244">
        <ele>124.15000000000001</ele>
        <time>2026-07-10T17:53:11Z</time>
      </trkpt>
      <trkpt lat="52.869468983262777" lon="-3.034578021615744">
        <ele>124.63</ele>
        <time>2026-07-10T17:53:12Z</time>
      </trkpt>
      <trkpt lat="52.869369992986321" lon="-3.03448598831892">
        <ele>124.63</ele>
        <time>2026-07-10T17:53:13Z</time>
      </trkpt>
      <trkpt lat="52.86934400908649" lon="-3.034480037167668">
        <ele>125.11</ele>
        <time>2026-07-10T17:53:14Z</time>
      </trkpt>
      <trkpt lat="52.869133036583662" lon="-3.03448598831892">
        <ele>125.11</ele>
        <time>2026-07-10T17:53:15Z</time>
      </trkpt>
      <trkpt lat="52.869039997458458" lon="-3.03437601774931">
        <ele>125.11</ele>
        <time>2026-07-10T17:53:16Z</time>
      </trkpt>
      <trkpt lat="52.867974992841482" lon="-3.033384019508958">
        <ele>124.15000000000001</ele>
        <time>2026-07-10T17:53:25Z</time>
      </trkpt>
      <trkpt lat="52.866289978846908" lon="-3.03177603520453">
        <ele>121.73999999999999</ele>
        <time>2026-07-10T17:53:36Z</time>
      </trkpt>
      <trkpt lat="52.864345964044333" lon="-3.030030000954866">
        <ele>120.3</ele>
        <time>2026-07-10T17:53:47Z</time>
      </trkpt>
      <trkpt lat="52.862646030262113" lon="-3.029295997694135">
        <ele>117.42</ele>
        <time>2026-07-10T17:53:55Z</time>
      </trkpt>
      <trkpt lat="52.860412001609802" lon="-3.028982011601329">
        <ele>112.13</ele>
        <time>2026-07-10T17:54:05Z</time>
      </trkpt>
      <trkpt lat="52.858690023422241" lon="-3.028766009956598">
        <ele>110.20999999999999</ele>
        <time>2026-07-10T17:54:14Z</time>
      </trkpt>
      <trkpt lat="52.858324991539121" lon="-3.028719993308187">
        <ele>110.20999999999999</ele>
        <time>2026-07-10T17:54:16Z</time>
      </trkpt>
      <trkpt lat="52.856986988335848" lon="-3.028557971119881">
        <ele>109.73</ele>
        <time>2026-07-10T17:54:23Z</time>
      </trkpt>
      <trkpt lat="52.854784978553653" lon="-3.028303999453783">
        <ele>110.69</ele>
        <time>2026-07-10T17:54:34Z</time>
      </trkpt>
      <trkpt lat="52.852914975956082" lon="-3.027741992846131">
        <ele>109.25</ele>
        <time>2026-07-10T17:54:44Z</time>
      </trkpt>
      <trkpt lat="52.85179196856916" lon="-3.027033973485231">
        <ele>109.25</ele>
        <time>2026-07-10T17:54:51Z</time>
      </trkpt>
      <trkpt lat="52.851713011041284" lon="-3.026885027065873">
        <ele>109.25</ele>
        <time>2026-07-10T17:54:52Z</time>
      </trkpt>
      <trkpt lat="52.851646961644292" lon="-3.026761980727315">
        <ele>109.25</ele>
        <time>2026-07-10T17:54:53Z</time>
      </trkpt>
      <trkpt lat="52.85161997191608" lon="-3.026637006551027">
        <ele>109.73</ele>
        <time>2026-07-10T17:54:54Z</time>
      </trkpt>
      <trkpt lat="52.85161997191608" lon="-3.026465009897947">
        <ele>109.73</ele>
        <time>2026-07-10T17:54:55Z</time>
      </trkpt>
      <trkpt lat="52.851562974974513" lon="-3.026239033788443">
        <ele>109.73</ele>
        <time>2026-07-10T17:54:56Z</time>
      </trkpt>
      <trkpt lat="52.851460967212915" lon="-3.026126967743039">
        <ele>109.73</ele>
        <time>2026-07-10T17:54:57Z</time>
      </trkpt>
      <trkpt lat="52.851384021341801" lon="-3.026074999943376">
        <ele>109.73</ele>
        <time>2026-07-10T17:54:58Z</time>
      </trkpt>
      <trkpt lat="52.851283019408584" lon="-3.026061002165079">
        <ele>109.73</ele>
        <time>2026-07-10T17:54:59Z</time>
      </trkpt>
      <trkpt lat="52.85118998028338" lon="-3.02608497440815">
        <ele>109.25</ele>
        <time>2026-07-10T17:55:00Z</time>
      </trkpt>
      <trkpt lat="52.851097024977207" lon="-3.026174996048212">
        <ele>109.25</ele>
        <time>2026-07-10T17:55:01Z</time>
      </trkpt>
      <trkpt lat="52.851025024428964" lon="-3.026304999366403">
        <ele>108.77</ele>
        <time>2026-07-10T17:55:02Z</time>
      </trkpt>
      <trkpt lat="52.850998034700751" lon="-3.026412036269903">
        <ele>108.29000000000001</ele>
        <time>2026-07-10T17:55:03Z</time>
      </trkpt>
      <trkpt lat="52.850983031094074" lon="-3.026624014601111">
        <ele>108.29000000000001</ele>
        <time>2026-07-10T17:55:04Z</time>
      </trkpt>
      <trkpt lat="52.85095302388072" lon="-3.026753012090921">
        <ele>108.29000000000001</ele>
        <time>2026-07-10T17:55:05Z</time>
      </trkpt>
      <trkpt lat="52.850855039432645" lon="-3.027101028710604">
        <ele>107.81</ele>
        <time>2026-07-10T17:55:08Z</time>
      </trkpt>
      <trkpt lat="52.850814973935485" lon="-3.027202030643821">
        <ele>107.81</ele>
        <time>2026-07-10T17:55:09Z</time>
      </trkpt>
      <trkpt lat="52.850754959508777" lon="-3.027282999828458">
        <ele>108.29000000000001</ele>
        <time>2026-07-10T17:55:10Z</time>
      </trkpt>
      <trkpt lat="52.850700980052352" lon="-3.027343014255166">
        <ele>108.29000000000001</ele>
        <time>2026-07-10T17:55:11Z</time>
      </trkpt>
      <trkpt lat="52.850649012252688" lon="-3.027401017025113">
        <ele>108.29000000000001</ele>
        <time>2026-07-10T17:55:12Z</time>
      </trkpt>
      <trkpt lat="52.850582962855697" lon="-3.027445022016764">
        <ele>108.29000000000001</ele>
        <time>2026-07-10T17:55:13Z</time>
      </trkpt>
      <trkpt lat="52.850519008934498" lon="-3.027451978996396">
        <ele>107.81</ele>
        <time>2026-07-10T17:55:14Z</time>
      </trkpt>
      <trkpt lat="52.850450025871396" lon="-3.027460025623441">
        <ele>107.81</ele>
        <time>2026-07-10T17:55:15Z</time>
      </trkpt>
      <trkpt lat="52.850366961210966" lon="-3.027442004531622">
        <ele>107.81</ele>
        <time>2026-07-10T17:55:16Z</time>
      </trkpt>
      <trkpt lat="52.850280040875077" lon="-3.027442004531622">
        <ele>107.81</ele>
        <time>2026-07-10T17:55:17Z</time>
      </trkpt>
      <trkpt lat="52.850187001749873" lon="-3.027474023401737">
        <ele>107.81</ele>
        <time>2026-07-10T17:55:18Z</time>
      </trkpt>
      <trkpt lat="52.850105026736856" lon="-3.027542000636458">
        <ele>107.81</ele>
        <time>2026-07-10T17:55:19Z</time>
      </trkpt>
      <trkpt lat="52.850059010088444" lon="-3.027692036703229">
        <ele>107.81</ele>
        <time>2026-07-10T17:55:20Z</time>
      </trkpt>
      <trkpt lat="52.850021962076426" lon="-3.027831008657813">
        <ele>107.31999999999999</ele>
        <time>2026-07-10T17:55:21Z</time>
      </trkpt>
      <trkpt lat="52.850010981783271" lon="-3.027998981997371">
        <ele>107.31999999999999</ele>
        <time>2026-07-10T17:55:22Z</time>
      </trkpt>
      <trkpt lat="52.849974017590284" lon="-3.028118005022407">
        <ele>106.84</ele>
        <time>2026-07-10T17:55:23Z</time>
      </trkpt>
      <trkpt lat="52.849935963749886" lon="-3.028244990855455">
        <ele>106.36</ele>
        <time>2026-07-10T17:55:24Z</time>
      </trkpt>
      <trkpt lat="52.849862035363913" lon="-3.028356973081827">
        <ele>105.88</ele>
        <time>2026-07-10T17:55:25Z</time>
      </trkpt>
      <trkpt lat="52.84979104064405" lon="-3.028445988893509">
        <ele>104.92</ele>
        <time>2026-07-10T17:55:26Z</time>
      </trkpt>
      <trkpt lat="52.849699007347226" lon="-3.028531987220049">
        <ele>104.92</ele>
        <time>2026-07-10T17:55:27Z</time>
      </trkpt>
      <trkpt lat="52.848721006885171" lon="-3.029278982430697">
        <ele>104.44</ele>
        <time>2026-07-10T17:55:35Z</time>
      </trkpt>
      <trkpt lat="52.847368000075221" lon="-3.030774984508753">
        <ele>105.88</ele>
        <time>2026-07-10T17:55:44Z</time>
      </trkpt>
      <trkpt lat="52.845796979963779" lon="-3.032754035666585">
        <ele>106.36</ele>
        <time>2026-07-10T17:55:53Z</time>
      </trkpt>
      <trkpt lat="52.844136022031307" lon="-3.034990997985005">
        <ele>105.40000000000001</ele>
        <time>2026-07-10T17:56:03Z</time>
      </trkpt>
      <trkpt lat="52.842846969142556" lon="-3.036777013912797">
        <ele>104.44</ele>
        <time>2026-07-10T17:56:12Z</time>
      </trkpt>
      <trkpt lat="52.842119000852108" lon="-3.037745961919427">
        <ele>105.88</ele>
        <time>2026-07-10T17:56:19Z</time>
      </trkpt>
      <trkpt lat="52.841335041448474" lon="-3.03897500038147">
        <ele>106.36</ele>
        <time>2026-07-10T17:56:27Z</time>
      </trkpt>
      <trkpt lat="52.840434992685914" lon="-3.040817007422447">
        <ele>106.36</ele>
        <time>2026-07-10T17:56:37Z</time>
      </trkpt>
      <trkpt lat="52.839303016662598" lon="-3.043046006932855">
        <ele>102.04000000000001</ele>
        <time>2026-07-10T17:56:48Z</time>
      </trkpt>
      <trkpt lat="52.837866023182869" lon="-3.0458739772439">
        <ele>100.11</ele>
        <time>2026-07-10T17:57:00Z</time>
      </trkpt>
      <trkpt lat="52.836444033309817" lon="-3.048676969483495">
        <ele>100.11</ele>
        <time>2026-07-10T17:57:11Z</time>
      </trkpt>
      <trkpt lat="52.834833031520247" lon="-3.051810041069984">
        <ele>98.189999999999998</ele>
        <time>2026-07-10T17:57:22Z</time>
      </trkpt>
      <trkpt lat="52.833566023036838" lon="-3.053865032270551">
        <ele>98.670000000000002</ele>
        <time>2026-07-10T17:57:30Z</time>
      </trkpt>
      <trkpt lat="52.832024004310369" lon="-3.055276963859797">
        <ele>98.670000000000002</ele>
        <time>2026-07-10T17:57:38Z</time>
      </trkpt>
      <trkpt lat="52.830278975889087" lon="-3.055937038734555">
        <ele>99.629999999999995</ele>
        <time>2026-07-10T17:57:46Z</time>
      </trkpt>
      <trkpt lat="52.827117992565036" lon="-3.056377004832029">
        <ele>96.269999999999996</ele>
        <time>2026-07-10T17:58:00Z</time>
      </trkpt>
      <trkpt lat="52.824629992246628" lon="-3.056883020326495">
        <ele>94.829999999999998</ele>
        <time>2026-07-10T17:58:12Z</time>
      </trkpt>
      <trkpt lat="52.822630992159247" lon="-3.058113986626267">
        <ele>93.870000000000005</ele>
        <time>2026-07-10T17:58:22Z</time>
      </trkpt>
      <trkpt lat="52.820667028427124" lon="-3.05895896628499">
        <ele>92.420000000000002</ele>
        <time>2026-07-10T17:58:32Z</time>
      </trkpt>
      <trkpt lat="52.817744007334113" lon="-3.059964962303639">
        <ele>93.390000000000001</ele>
        <time>2026-07-10T17:58:47Z</time>
      </trkpt>
      <trkpt lat="52.815467985346913" lon="-3.060945980250835">
        <ele>92.420000000000002</ele>
        <time>2026-07-10T17:59:00Z</time>
      </trkpt>
      <trkpt lat="52.815298000350595" lon="-3.061045976355672">
        <ele>92.420000000000002</ele>
        <time>2026-07-10T17:59:01Z</time>
      </trkpt>
      <trkpt lat="52.81513899564743" lon="-3.06119098328054">
        <ele>92.420000000000002</ele>
        <time>2026-07-10T17:59:02Z</time>
      </trkpt>
      <trkpt lat="52.814982002601027" lon="-3.061372032389045">
        <ele>92.420000000000002</ele>
        <time>2026-07-10T17:59:03Z</time>
      </trkpt>
      <trkpt lat="52.814819980412722" lon="-3.061560960486531">
        <ele>91.939999999999998</ele>
        <time>2026-07-10T17:59:04Z</time>
      </trkpt>
      <trkpt lat="52.814658964052796" lon="-3.061761958524585">
        <ele>91.939999999999998</ele>
        <time>2026-07-10T17:59:05Z</time>
      </trkpt>
      <trkpt lat="52.813736032694578" lon="-3.063426017761231">
        <ele>94.829999999999998</ele>
        <time>2026-07-10T17:59:12Z</time>
      </trkpt>
      <trkpt lat="52.813601000234485" lon="-3.063603965565562">
        <ele>95.310000000000002</ele>
        <time>2026-07-10T17:59:13Z</time>
      </trkpt>
      <trkpt lat="52.812241958454251" lon="-3.064938029274344">
        <ele>99.150000000000006</ele>
        <time>2026-07-10T17:59:22Z</time>
      </trkpt>
      <trkpt lat="52.810931028798223" lon="-3.065563989803195">
        <ele>101.08</ele>
        <time>2026-07-10T17:59:30Z</time>
      </trkpt>
      <trkpt lat="52.809782037511468" lon="-3.066223980858922">
        <ele>99.150000000000006</ele>
        <time>2026-07-10T17:59:37Z</time>
      </trkpt>
      <trkpt lat="52.80925003811717" lon="-3.06643201969564">
        <ele>98.670000000000002</ele>
        <time>2026-07-10T17:59:40Z</time>
      </trkpt>
      <trkpt lat="52.809068989008665" lon="-3.06645599193871">
        <ele>99.150000000000006</ele>
        <time>2026-07-10T17:59:41Z</time>
      </trkpt>
      <trkpt lat="52.807586984708905" lon="-3.066872991621494">
        <ele>99.629999999999995</ele>
        <time>2026-07-10T17:59:50Z</time>
      </trkpt>
      <trkpt lat="52.806274965405464" lon="-3.067626021802425">
        <ele>95.790000000000006</ele>
        <time>2026-07-10T17:59:58Z</time>
      </trkpt>
      <trkpt lat="52.804350983351469" lon="-3.068509977310896">
        <ele>98.189999999999998</ele>
        <time>2026-07-10T18:00:08Z</time>
      </trkpt>
      <trkpt lat="52.802034979686141" lon="-3.069895002990961">
        <ele>98.670000000000002</ele>
        <time>2026-07-10T18:00:19Z</time>
      </trkpt>
      <trkpt lat="52.801072988659143" lon="-3.070978028699756">
        <ele>97.230000000000004</ele>
        <time>2026-07-10T18:00:25Z</time>
      </trkpt>
      <trkpt lat="52.800117032602429" lon="-3.072293987497687">
        <ele>99.150000000000006</ele>
        <time>2026-07-10T18:00:33Z</time>
      </trkpt>
      <trkpt lat="52.798857986927032" lon="-3.073713965713978">
        <ele>101.56</ele>
        <time>2026-07-10T18:00:43Z</time>
      </trkpt>
      <trkpt lat="52.797923991456628" lon="-3.074365993961692">
        <ele>101.56</ele>
        <time>2026-07-10T18:00:51Z</time>
      </trkpt>
      <trkpt lat="52.796858986839652" lon="-3.074995977804065">
        <ele>100.11</ele>
        <time>2026-07-10T18:01:02Z</time>
      </trkpt>
      <trkpt lat="52.79552198946476" lon="-3.07562998495996">
        <ele>102.52</ele>
        <time>2026-07-10T18:01:14Z</time>
      </trkpt>
      <trkpt lat="52.793778972700238" lon="-3.076171036809683">
        <ele>103.48</ele>
        <time>2026-07-10T18:01:29Z</time>
      </trkpt>
      <trkpt lat="52.793535981327295" lon="-3.076241025701165">
        <ele>103.48</ele>
        <time>2026-07-10T18:01:31Z</time>
      </trkpt>
      <trkpt lat="52.79227701947093" lon="-3.07683102786541">
        <ele>104.92</ele>
        <time>2026-07-10T18:01:41Z</time>
      </trkpt>
      <trkpt lat="52.792182974517345" lon="-3.076944015920162">
        <ele>105.40000000000001</ele>
        <time>2026-07-10T18:01:42Z</time>
      </trkpt>
      <trkpt lat="52.792012989521027" lon="-3.077242998406291">
        <ele>105.88</ele>
        <time>2026-07-10T18:01:44Z</time>
      </trkpt>
      <trkpt lat="52.791079999879003" lon="-3.078756015747786">
        <ele>110.20999999999999</ele>
        <time>2026-07-10T18:01:55Z</time>
      </trkpt>
      <trkpt lat="52.790229991078377" lon="-3.079662015661597">
        <ele>112.13</ele>
        <time>2026-07-10T18:02:04Z</time>
      </trkpt>
      <trkpt lat="52.789221983402967" lon="-3.08065602555871">
        <ele>114.05</ele>
        <time>2026-07-10T18:02:14Z</time>
      </trkpt>
      <trkpt lat="52.788460990414023" lon="-3.081331020221114">
        <ele>111.65000000000001</ele>
        <time>2026-07-10T18:02:21Z</time>
      </trkpt>
      <trkpt lat="52.787669990211725" lon="-3.082271972671151">
        <ele>111.17</ele>
        <time>2026-07-10T18:02:29Z</time>
      </trkpt>
      <trkpt lat="52.787586003541946" lon="-3.082413962110877">
        <ele>111.17</ele>
        <time>2026-07-10T18:02:30Z</time>
      </trkpt>
      <trkpt lat="52.787543004378676" lon="-3.082606997340918">
        <ele>110.69</ele>
        <time>2026-07-10T18:02:31Z</time>
      </trkpt>
      <trkpt lat="52.787501011043787" lon="-3.082800032570958">
        <ele>110.69</ele>
        <time>2026-07-10T18:02:32Z</time>
      </trkpt>
      <trkpt lat="52.787457006052136" lon="-3.08299801312387">
        <ele>110.69</ele>
        <time>2026-07-10T18:02:33Z</time>
      </trkpt>
      <trkpt lat="52.786987032741308" lon="-3.084944961592555">
        <ele>113.09</ele>
        <time>2026-07-10T18:02:43Z</time>
      </trkpt>
      <trkpt lat="52.786399964243174" lon="-3.086628969758749">
        <ele>111.65000000000001</ele>
        <time>2026-07-10T18:02:52Z</time>
      </trkpt>
      <trkpt lat="52.785978019237518" lon="-3.087394991889596">
        <ele>107.81</ele>
        <time>2026-07-10T18:02:57Z</time>
      </trkpt>
      <trkpt lat="52.78570200316608" lon="-3.087737979367375">
        <ele>106.36</ele>
        <time>2026-07-10T18:03:00Z</time>
      </trkpt>
      <trkpt lat="52.785604018718004" lon="-3.087806040421128">
        <ele>105.88</ele>
        <time>2026-07-10T18:03:01Z</time>
      </trkpt>
      <trkpt lat="52.785505028441548" lon="-3.087864965200424">
        <ele>105.40000000000001</ele>
        <time>2026-07-10T18:03:02Z</time>
      </trkpt>
      <trkpt lat="52.78486599214375" lon="-3.088252963498235">
        <ele>103.95999999999999</ele>
        <time>2026-07-10T18:03:08Z</time>
      </trkpt>
      <trkpt lat="52.784749986603856" lon="-3.088367963209748">
        <ele>103.95999999999999</ele>
        <time>2026-07-10T18:03:09Z</time>
      </trkpt>
      <trkpt lat="52.783724963665009" lon="-3.089170027524233">
        <ele>100.59999999999999</ele>
        <time>2026-07-10T18:03:19Z</time>
      </trkpt>
      <trkpt lat="52.78361801058054" lon="-3.089231969788671">
        <ele>100.11</ele>
        <time>2026-07-10T18:03:20Z</time>
      </trkpt>
      <trkpt lat="52.783178966492414" lon="-3.089440008625388">
        <ele>97.709999999999994</ele>
        <time>2026-07-10T18:03:24Z</time>
      </trkpt>
      <trkpt lat="52.783065978437662" lon="-3.089454006403685">
        <ele>96.75</ele>
        <time>2026-07-10T18:03:25Z</time>
      </trkpt>
      <trkpt lat="52.782956007868052" lon="-3.089466998353601">
        <ele>96.269999999999996</ele>
        <time>2026-07-10T18:03:26Z</time>
      </trkpt>
      <trkpt lat="52.782852994278073" lon="-3.089464986696839">
        <ele>95.790000000000006</ele>
        <time>2026-07-10T18:03:27Z</time>
      </trkpt>
      <trkpt lat="52.782755009829998" lon="-3.089435985311866">
        <ele>95.790000000000006</ele>
        <time>2026-07-10T18:03:28Z</time>
      </trkpt>
      <trkpt lat="52.782669011503458" lon="-3.089410001412034">
        <ele>95.310000000000002</ele>
        <time>2026-07-10T18:03:29Z</time>
      </trkpt>
      <trkpt lat="52.782333986833692" lon="-3.089282009750605">
        <ele>94.349999999999994</ele>
        <time>2026-07-10T18:03:33Z</time>
      </trkpt>
      <trkpt lat="52.782255029305816" lon="-3.089245967566967">
        <ele>94.349999999999994</ele>
        <time>2026-07-10T18:03:34Z</time>
      </trkpt>
      <trkpt lat="52.782032992690802" lon="-3.089145971462131">
        <ele>92.900000000000006</ele>
        <time>2026-07-10T18:03:37Z</time>
      </trkpt>
      <trkpt lat="52.781380964443088" lon="-3.088852018117905">
        <ele>85.689999999999998</ele>
        <time>2026-07-10T18:03:47Z</time>
      </trkpt>
      <trkpt lat="52.781186001375318" lon="-3.088764008134604">
        <ele>82.329999999999998</ele>
        <time>2026-07-10T18:03:54Z</time>
      </trkpt>
      <trkpt lat="52.781003024429083" lon="-3.088668035343289">
        <ele>80.890000000000001</ele>
        <time>2026-07-10T18:04:02Z</time>
      </trkpt>
      <trkpt lat="52.781001012772322" lon="-3.088621012866497">
        <ele>81.370000000000005</ele>
        <time>2026-07-10T18:04:03Z</time>
      </trkpt>
      <trkpt lat="52.780999001115561" lon="-3.088572984561324">
        <ele>81.370000000000005</ele>
        <time>2026-07-10T18:04:04Z</time>
      </trkpt>
      <trkpt lat="52.78099799528718" lon="-3.088522022590041">
        <ele>81.370000000000005</ele>
        <time>2026-07-10T18:04:05Z</time>
      </trkpt>
      <trkpt lat="52.780995983630419" lon="-3.088482962921262">
        <ele>81.370000000000005</ele>
        <time>2026-07-10T18:04:06Z</time>
      </trkpt>
      <trkpt lat="52.780994977802038" lon="-3.088448010385037">
        <ele>81.370000000000005</ele>
        <time>2026-07-10T18:04:08Z</time>
      </trkpt>
      <trkpt lat="52.780994977802038" lon="-3.088448010385037">
        <ele>80.890000000000001</ele>
        <time>2026-07-10T18:04:23Z</time>
      </trkpt>
      <trkpt lat="52.780994977802038" lon="-3.088448010385037">
        <ele>81.370000000000005</ele>
        <time>2026-07-10T18:04:46Z</time>
      </trkpt>
      <trkpt lat="52.781011993065476" lon="-3.088605003431439">
        <ele>80.890000000000001</ele>
        <time>2026-07-10T18:04:57Z</time>
      </trkpt>
      <trkpt lat="52.781005958095193" lon="-3.08860600925982">
        <ele>80.409999999999997</ele>
        <time>2026-07-10T18:04:58Z</time>
      </trkpt>
      <trkpt lat="52.7809779625386" lon="-3.088670969009399">
        <ele>79.930000000000007</ele>
        <time>2026-07-10T18:05:00Z</time>
      </trkpt>
      <trkpt lat="52.780956001952291" lon="-3.088660994544625">
        <ele>79.450000000000003</ele>
        <time>2026-07-10T18:05:01Z</time>
      </trkpt>
      <trkpt lat="52.780933035537601" lon="-3.088651020079851">
        <ele>78.969999999999999</ele>
        <time>2026-07-10T18:05:02Z</time>
      </trkpt>
      <trkpt lat="52.780906967818737" lon="-3.088639033958316">
        <ele>78.969999999999999</ele>
        <time>2026-07-10T18:05:03Z</time>
      </trkpt>
      <trkpt lat="52.780882995575666" lon="-3.08862897567451">
        <ele>78.480000000000004</ele>
        <time>2026-07-10T18:05:04Z</time>
      </trkpt>
      <trkpt lat="52.780859023332596" lon="-3.088617995381355">
        <ele>78</ele>
        <time>2026-07-10T18:05:05Z</time>
      </trkpt>
      <trkpt lat="52.780836978927255" lon="-3.088609026744962">
        <ele>78</ele>
        <time>2026-07-10T18:05:06Z</time>
      </trkpt>
      <trkpt lat="52.780819963663816" lon="-3.088600980117917">
        <ele>77.519999999999996</ele>
        <time>2026-07-10T18:05:07Z</time>
      </trkpt>
      <trkpt lat="52.780787022784352" lon="-3.088586982339621">
        <ele>77.040000000000006</ele>
        <time>2026-07-10T18:05:11Z</time>
      </trkpt>
      <trkpt lat="52.780787022784352" lon="-3.088586982339621">
        <ele>76.560000000000002</ele>
        <time>2026-07-10T18:05:26Z</time>
      </trkpt>
      <trkpt lat="52.780787022784352" lon="-3.088586982339621">
        <ele>76.560000000000002</ele>
        <time>2026-07-10T18:06:19Z</time>
      </trkpt>
      <trkpt lat="52.780787022784352" lon="-3.088586982339621">
        <ele>76.560000000000002</ele>
        <time>2026-07-10T18:06:58Z</time>
      </trkpt>
      <trkpt lat="52.780787022784352" lon="-3.088586982339621">
        <ele>77.040000000000006</ele>
        <time>2026-07-10T18:07:41Z</time>
      </trkpt>
      <trkpt lat="52.780787022784352" lon="-3.088586982339621">
        <ele>77.040000000000006</ele>
        <time>2026-07-10T18:08:20Z</time>
      </trkpt>
      <trkpt lat="52.780787022784352" lon="-3.088586982339621">
        <ele>77.519999999999996</ele>
        <time>2026-07-10T18:09:08Z</time>
      </trkpt>
      <trkpt lat="52.780787022784352" lon="-3.088586982339621">
        <ele>77.519999999999996</ele>
        <time>2026-07-10T18:09:49Z</time>
      </trkpt>
      <trkpt lat="52.780787022784352" lon="-3.088586982339621">
        <ele>78</ele>
        <time>2026-07-10T18:10:27Z</time>
      </trkpt>
    </trkseg>
  </trk>

</gpx>